<?xml version="1.0" encoding="UTF-8" standalone="no" ?>
<gpx xmlns="http://www.topografix.com/GPX/1/1" xmlns:xsi="http://www.w3.org/2001/XMLSchema-instance" xsi:schemaLocation="http://www.topografix.com/GPX/1/1 http://www.topografix.com/GPX/1/1/gpx.xsd" version="1.1" creator="VisuGPX - https://www.visugpx.com">
  <metadata>
    <name>GR738-J1</name>
  </metadata>
  <trk>
    <name><![CDATA[GR738-J1]]></name>
    <extensions>
      <line xmlns="http://www.topografix.com/GPX/gpx_style/0/2">
        <color>0000FF</color>
        <width>4</width>
      </line>
    </extensions>
    <trkseg>
      <trkpt lat="45.54314" lon="6.30241">
        <ele>319.79998779297</ele>
        <time>2023-08-08T04:37:34.000Z</time>
      </trkpt>
      <trkpt lat="45.54317" lon="6.3023">
        <ele>319.60000610352</ele>
        <time>2023-08-08T04:37:40.000Z</time>
      </trkpt>
      <trkpt lat="45.54318" lon="6.3022">
        <ele>319.79998779297</ele>
        <time>2023-08-08T04:37:46.000Z</time>
      </trkpt>
      <trkpt lat="45.54323" lon="6.3021">
        <ele>319.79998779297</ele>
        <time>2023-08-08T04:37:52.000Z</time>
      </trkpt>
      <trkpt lat="45.5433" lon="6.30201">
        <ele>319.79998779297</ele>
        <time>2023-08-08T04:37:58.000Z</time>
      </trkpt>
      <trkpt lat="45.54337" lon="6.30189">
        <ele>320</ele>
        <time>2023-08-08T04:38:05.000Z</time>
      </trkpt>
      <trkpt lat="45.54342" lon="6.30174">
        <ele>319.79998779297</ele>
        <time>2023-08-08T04:38:12.000Z</time>
      </trkpt>
      <trkpt lat="45.54346" lon="6.30157">
        <ele>319.79998779297</ele>
        <time>2023-08-08T04:38:20.000Z</time>
      </trkpt>
      <trkpt lat="45.5435" lon="6.30147">
        <ele>319.39999389648</ele>
        <time>2023-08-08T04:38:27.000Z</time>
      </trkpt>
      <trkpt lat="45.54358" lon="6.30129">
        <ele>319.39999389648</ele>
        <time>2023-08-08T04:38:38.000Z</time>
      </trkpt>
      <trkpt lat="45.54363" lon="6.30114">
        <ele>320</ele>
        <time>2023-08-08T04:38:45.000Z</time>
      </trkpt>
      <trkpt lat="45.5437" lon="6.30099">
        <ele>320</ele>
        <time>2023-08-08T04:38:52.000Z</time>
      </trkpt>
      <trkpt lat="45.54376" lon="6.30087">
        <ele>319.79998779297</ele>
        <time>2023-08-08T04:38:59.000Z</time>
      </trkpt>
      <trkpt lat="45.5438" lon="6.30074">
        <ele>319.79998779297</ele>
        <time>2023-08-08T04:39:07.000Z</time>
      </trkpt>
      <trkpt lat="45.54386" lon="6.30058">
        <ele>320</ele>
        <time>2023-08-08T04:39:16.000Z</time>
      </trkpt>
      <trkpt lat="45.54392" lon="6.3004">
        <ele>320</ele>
        <time>2023-08-08T04:39:25.000Z</time>
      </trkpt>
      <trkpt lat="45.54392" lon="6.30029">
        <ele>320</ele>
        <time>2023-08-08T04:39:31.000Z</time>
      </trkpt>
      <trkpt lat="45.54392" lon="6.30011">
        <ele>320</ele>
        <time>2023-08-08T04:39:39.000Z</time>
      </trkpt>
      <trkpt lat="45.54394" lon="6.29993">
        <ele>319.60000610352</ele>
        <time>2023-08-08T04:39:48.000Z</time>
      </trkpt>
      <trkpt lat="45.54396" lon="6.29969">
        <ele>319.60000610352</ele>
        <time>2023-08-08T04:39:59.000Z</time>
      </trkpt>
      <trkpt lat="45.54399" lon="6.29948">
        <ele>319.39999389648</ele>
        <time>2023-08-08T04:40:08.000Z</time>
      </trkpt>
      <trkpt lat="45.54469" lon="6.29855">
        <ele>320.20001220703</ele>
        <time>2023-08-08T05:06:40.000Z</time>
      </trkpt>
      <trkpt lat="45.54476" lon="6.29847">
        <ele>320</ele>
        <time>2023-08-08T05:06:53.000Z</time>
      </trkpt>
      <trkpt lat="45.54484" lon="6.29833">
        <ele>319.79998779297</ele>
        <time>2023-08-08T05:07:00.000Z</time>
      </trkpt>
      <trkpt lat="45.54489" lon="6.29821">
        <ele>319.79998779297</ele>
        <time>2023-08-08T05:07:07.000Z</time>
      </trkpt>
      <trkpt lat="45.54492" lon="6.29814">
        <ele>319.39999389648</ele>
        <time>2023-08-08T05:07:13.000Z</time>
      </trkpt>
      <trkpt lat="45.54495" lon="6.29798">
        <ele>319.60000610352</ele>
        <time>2023-08-08T05:07:20.000Z</time>
      </trkpt>
      <trkpt lat="45.54501" lon="6.29781">
        <ele>319.39999389648</ele>
        <time>2023-08-08T05:07:28.000Z</time>
      </trkpt>
      <trkpt lat="45.54505" lon="6.29768">
        <ele>319.20001220703</ele>
        <time>2023-08-08T05:07:36.000Z</time>
      </trkpt>
      <trkpt lat="45.54511" lon="6.29753">
        <ele>319.20001220703</ele>
        <time>2023-08-08T05:07:46.000Z</time>
      </trkpt>
      <trkpt lat="45.54511" lon="6.29752">
        <ele>319.20001220703</ele>
        <time>2023-08-08T05:07:48.000Z</time>
      </trkpt>
      <trkpt lat="45.54512" lon="6.29751">
        <ele>319</ele>
        <time>2023-08-08T05:07:53.000Z</time>
      </trkpt>
      <trkpt lat="45.54515" lon="6.29743">
        <ele>319</ele>
        <time>2023-08-08T05:08:02.000Z</time>
      </trkpt>
      <trkpt lat="45.54521" lon="6.29729">
        <ele>318.79998779297</ele>
        <time>2023-08-08T05:08:11.000Z</time>
      </trkpt>
      <trkpt lat="45.54526" lon="6.29714">
        <ele>318.60000610352</ele>
        <time>2023-08-08T05:08:19.000Z</time>
      </trkpt>
      <trkpt lat="45.54531" lon="6.29702">
        <ele>318.79998779297</ele>
        <time>2023-08-08T05:08:27.000Z</time>
      </trkpt>
      <trkpt lat="45.54536" lon="6.29687">
        <ele>319</ele>
        <time>2023-08-08T05:08:35.000Z</time>
      </trkpt>
      <trkpt lat="45.5454" lon="6.29672">
        <ele>319</ele>
        <time>2023-08-08T05:08:45.000Z</time>
      </trkpt>
      <trkpt lat="45.54548" lon="6.29658">
        <ele>319</ele>
        <time>2023-08-08T05:08:53.000Z</time>
      </trkpt>
      <trkpt lat="45.54553" lon="6.29641">
        <ele>319.20001220703</ele>
        <time>2023-08-08T05:09:01.000Z</time>
      </trkpt>
      <trkpt lat="45.54557" lon="6.29628">
        <ele>319.39999389648</ele>
        <time>2023-08-08T05:09:08.000Z</time>
      </trkpt>
      <trkpt lat="45.54561" lon="6.29608">
        <ele>319.60000610352</ele>
        <time>2023-08-08T05:09:17.000Z</time>
      </trkpt>
      <trkpt lat="45.54563" lon="6.29589">
        <ele>320</ele>
        <time>2023-08-08T05:09:26.000Z</time>
      </trkpt>
      <trkpt lat="45.54563" lon="6.2958">
        <ele>320.20001220703</ele>
        <time>2023-08-08T05:09:31.000Z</time>
      </trkpt>
      <trkpt lat="45.54563" lon="6.29567">
        <ele>320.39999389648</ele>
        <time>2023-08-08T05:09:38.000Z</time>
      </trkpt>
      <trkpt lat="45.54564" lon="6.29547">
        <ele>321</ele>
        <time>2023-08-08T05:09:47.000Z</time>
      </trkpt>
      <trkpt lat="45.54565" lon="6.29545">
        <ele>321.20001220703</ele>
        <time>2023-08-08T05:09:49.000Z</time>
      </trkpt>
      <trkpt lat="45.54566" lon="6.29542">
        <ele>321.39999389648</ele>
        <time>2023-08-08T05:09:53.000Z</time>
      </trkpt>
      <trkpt lat="45.54567" lon="6.29545">
        <ele>321.39999389648</ele>
        <time>2023-08-08T05:10:02.000Z</time>
      </trkpt>
      <trkpt lat="45.54566" lon="6.2953">
        <ele>321.79998779297</ele>
        <time>2023-08-08T05:10:09.000Z</time>
      </trkpt>
      <trkpt lat="45.54567" lon="6.29523">
        <ele>322.20001220703</ele>
        <time>2023-08-08T05:10:14.000Z</time>
      </trkpt>
      <trkpt lat="45.54567" lon="6.29519">
        <ele>322.60000610352</ele>
        <time>2023-08-08T05:10:16.000Z</time>
      </trkpt>
      <trkpt lat="45.54568" lon="6.29507">
        <ele>323.39999389648</ele>
        <time>2023-08-08T05:10:23.000Z</time>
      </trkpt>
      <trkpt lat="45.5457" lon="6.29493">
        <ele>324.39999389648</ele>
        <time>2023-08-08T05:10:30.000Z</time>
      </trkpt>
      <trkpt lat="45.5457" lon="6.29491">
        <ele>324.39999389648</ele>
        <time>2023-08-08T05:10:31.000Z</time>
      </trkpt>
      <trkpt lat="45.54573" lon="6.29476">
        <ele>325.20001220703</ele>
        <time>2023-08-08T05:10:38.000Z</time>
      </trkpt>
      <trkpt lat="45.54574" lon="6.29474">
        <ele>325.39999389648</ele>
        <time>2023-08-08T05:10:39.000Z</time>
      </trkpt>
      <trkpt lat="45.54576" lon="6.29453">
        <ele>326.39999389648</ele>
        <time>2023-08-08T05:10:49.000Z</time>
      </trkpt>
      <trkpt lat="45.54577" lon="6.29438">
        <ele>327.20001220703</ele>
        <time>2023-08-08T05:10:57.000Z</time>
      </trkpt>
      <trkpt lat="45.54578" lon="6.29435">
        <ele>327.60000610352</ele>
        <time>2023-08-08T05:10:59.000Z</time>
      </trkpt>
      <trkpt lat="45.5458" lon="6.29418">
        <ele>328.20001220703</ele>
        <time>2023-08-08T05:11:06.000Z</time>
      </trkpt>
      <trkpt lat="45.54581" lon="6.294">
        <ele>328.60000610352</ele>
        <time>2023-08-08T05:11:13.000Z</time>
      </trkpt>
      <trkpt lat="45.54582" lon="6.29387">
        <ele>328.79998779297</ele>
        <time>2023-08-08T05:11:20.000Z</time>
      </trkpt>
      <trkpt lat="45.54583" lon="6.29374">
        <ele>328.79998779297</ele>
        <time>2023-08-08T05:11:28.000Z</time>
      </trkpt>
      <trkpt lat="45.54583" lon="6.29367">
        <ele>328.60000610352</ele>
        <time>2023-08-08T05:11:34.000Z</time>
      </trkpt>
      <trkpt lat="45.54583" lon="6.29367">
        <ele>328.60000610352</ele>
        <time>2023-08-08T05:11:36.000Z</time>
      </trkpt>
      <trkpt lat="45.54584" lon="6.29362">
        <ele>328.60000610352</ele>
        <time>2023-08-08T05:11:41.000Z</time>
      </trkpt>
      <trkpt lat="45.54585" lon="6.29362">
        <ele>328.60000610352</ele>
        <time>2023-08-08T05:11:42.000Z</time>
      </trkpt>
      <trkpt lat="45.5459" lon="6.29353">
        <ele>328.79998779297</ele>
        <time>2023-08-08T05:11:51.000Z</time>
      </trkpt>
      <trkpt lat="45.54594" lon="6.29339">
        <ele>329</ele>
        <time>2023-08-08T05:11:59.000Z</time>
      </trkpt>
      <trkpt lat="45.54593" lon="6.29337">
        <ele>328.79998779297</ele>
        <time>2023-08-08T05:12:05.000Z</time>
      </trkpt>
      <trkpt lat="45.54597" lon="6.2933">
        <ele>328.60000610352</ele>
        <time>2023-08-08T05:12:16.000Z</time>
      </trkpt>
      <trkpt lat="45.546" lon="6.29319">
        <ele>328.60000610352</ele>
        <time>2023-08-08T05:12:26.000Z</time>
      </trkpt>
      <trkpt lat="45.54605" lon="6.29308">
        <ele>328.39999389648</ele>
        <time>2023-08-08T05:12:34.000Z</time>
      </trkpt>
      <trkpt lat="45.54614" lon="6.29298">
        <ele>328.20001220703</ele>
        <time>2023-08-08T05:12:41.000Z</time>
      </trkpt>
      <trkpt lat="45.5463" lon="6.29286">
        <ele>328</ele>
        <time>2023-08-08T05:12:49.000Z</time>
      </trkpt>
      <trkpt lat="45.54632" lon="6.29285">
        <ele>328</ele>
        <time>2023-08-08T05:12:50.000Z</time>
      </trkpt>
      <trkpt lat="45.54642" lon="6.29274">
        <ele>327.79998779297</ele>
        <time>2023-08-08T05:12:59.000Z</time>
      </trkpt>
      <trkpt lat="45.54648" lon="6.2926">
        <ele>328.20001220703</ele>
        <time>2023-08-08T05:13:08.000Z</time>
      </trkpt>
      <trkpt lat="45.54654" lon="6.29246">
        <ele>328.60000610352</ele>
        <time>2023-08-08T05:13:16.000Z</time>
      </trkpt>
      <trkpt lat="45.54657" lon="6.29237">
        <ele>329.20001220703</ele>
        <time>2023-08-08T05:13:21.000Z</time>
      </trkpt>
      <trkpt lat="45.54661" lon="6.29231">
        <ele>329.60000610352</ele>
        <time>2023-08-08T05:13:25.000Z</time>
      </trkpt>
      <trkpt lat="45.54665" lon="6.29224">
        <ele>330</ele>
        <time>2023-08-08T05:13:29.000Z</time>
      </trkpt>
      <trkpt lat="45.54671" lon="6.29209">
        <ele>330.79998779297</ele>
        <time>2023-08-08T05:13:37.000Z</time>
      </trkpt>
      <trkpt lat="45.54675" lon="6.29205">
        <ele>331.20001220703</ele>
        <time>2023-08-08T05:13:41.000Z</time>
      </trkpt>
      <trkpt lat="45.54685" lon="6.29197">
        <ele>331.79998779297</ele>
        <time>2023-08-08T05:13:50.000Z</time>
      </trkpt>
      <trkpt lat="45.54718" lon="6.29178">
        <ele>333.20001220703</ele>
        <time>2023-08-08T05:14:23.000Z</time>
      </trkpt>
      <trkpt lat="45.54727" lon="6.29175">
        <ele>333.79998779297</ele>
        <time>2023-08-08T05:14:29.000Z</time>
      </trkpt>
      <trkpt lat="45.54731" lon="6.29174">
        <ele>334</ele>
        <time>2023-08-08T05:14:31.000Z</time>
      </trkpt>
      <trkpt lat="45.54737" lon="6.29167">
        <ele>334.79998779297</ele>
        <time>2023-08-08T05:14:37.000Z</time>
      </trkpt>
      <trkpt lat="45.54737" lon="6.29166">
        <ele>334.79998779297</ele>
        <time>2023-08-08T05:14:38.000Z</time>
      </trkpt>
      <trkpt lat="45.54743" lon="6.29152">
        <ele>335.60000610352</ele>
        <time>2023-08-08T05:14:46.000Z</time>
      </trkpt>
      <trkpt lat="45.54749" lon="6.29142">
        <ele>335.79998779297</ele>
        <time>2023-08-08T05:14:53.000Z</time>
      </trkpt>
      <trkpt lat="45.54753" lon="6.29131">
        <ele>336</ele>
        <time>2023-08-08T05:15:00.000Z</time>
      </trkpt>
      <trkpt lat="45.54755" lon="6.29126">
        <ele>336.20001220703</ele>
        <time>2023-08-08T05:15:02.000Z</time>
      </trkpt>
      <trkpt lat="45.54761" lon="6.29114">
        <ele>337</ele>
        <time>2023-08-08T05:15:09.000Z</time>
      </trkpt>
      <trkpt lat="45.54762" lon="6.29113">
        <ele>337</ele>
        <time>2023-08-08T05:15:10.000Z</time>
      </trkpt>
      <trkpt lat="45.54764" lon="6.29099">
        <ele>337.79998779297</ele>
        <time>2023-08-08T05:15:17.000Z</time>
      </trkpt>
      <trkpt lat="45.54765" lon="6.29094">
        <ele>338</ele>
        <time>2023-08-08T05:15:20.000Z</time>
      </trkpt>
      <trkpt lat="45.54761" lon="6.29085">
        <ele>339</ele>
        <time>2023-08-08T05:15:26.000Z</time>
      </trkpt>
      <trkpt lat="45.5476" lon="6.29084">
        <ele>339</ele>
        <time>2023-08-08T05:15:27.000Z</time>
      </trkpt>
      <trkpt lat="45.54751" lon="6.2908">
        <ele>340</ele>
        <time>2023-08-08T05:15:32.000Z</time>
      </trkpt>
      <trkpt lat="45.5475" lon="6.29079">
        <ele>340.20001220703</ele>
        <time>2023-08-08T05:15:33.000Z</time>
      </trkpt>
      <trkpt lat="45.54744" lon="6.29074">
        <ele>340.79998779297</ele>
        <time>2023-08-08T05:15:38.000Z</time>
      </trkpt>
      <trkpt lat="45.5474" lon="6.29072">
        <ele>341.20001220703</ele>
        <time>2023-08-08T05:15:41.000Z</time>
      </trkpt>
      <trkpt lat="45.54733" lon="6.29069">
        <ele>341.79998779297</ele>
        <time>2023-08-08T05:15:45.000Z</time>
      </trkpt>
      <trkpt lat="45.54729" lon="6.29067">
        <ele>342.20001220703</ele>
        <time>2023-08-08T05:15:48.000Z</time>
      </trkpt>
      <trkpt lat="45.54725" lon="6.29065">
        <ele>342.60000610352</ele>
        <time>2023-08-08T05:15:51.000Z</time>
      </trkpt>
      <trkpt lat="45.54719" lon="6.29057">
        <ele>343.20001220703</ele>
        <time>2023-08-08T05:15:57.000Z</time>
      </trkpt>
      <trkpt lat="45.54717" lon="6.29056">
        <ele>343.60000610352</ele>
        <time>2023-08-08T05:15:59.000Z</time>
      </trkpt>
      <trkpt lat="45.54709" lon="6.29049">
        <ele>344.20001220703</ele>
        <time>2023-08-08T05:16:05.000Z</time>
      </trkpt>
      <trkpt lat="45.54708" lon="6.29047">
        <ele>344.39999389648</ele>
        <time>2023-08-08T05:16:06.000Z</time>
      </trkpt>
      <trkpt lat="45.54709" lon="6.29037">
        <ele>344.79998779297</ele>
        <time>2023-08-08T05:16:11.000Z</time>
      </trkpt>
      <trkpt lat="45.54715" lon="6.29027">
        <ele>345.39999389648</ele>
        <time>2023-08-08T05:16:17.000Z</time>
      </trkpt>
      <trkpt lat="45.54717" lon="6.29026">
        <ele>345.60000610352</ele>
        <time>2023-08-08T05:16:18.000Z</time>
      </trkpt>
      <trkpt lat="45.54725" lon="6.29029">
        <ele>346.39999389648</ele>
        <time>2023-08-08T05:16:24.000Z</time>
      </trkpt>
      <trkpt lat="45.54728" lon="6.29031">
        <ele>346.60000610352</ele>
        <time>2023-08-08T05:16:26.000Z</time>
      </trkpt>
      <trkpt lat="45.54737" lon="6.29034">
        <ele>347.39999389648</ele>
        <time>2023-08-08T05:16:32.000Z</time>
      </trkpt>
      <trkpt lat="45.5474" lon="6.29035">
        <ele>347.60000610352</ele>
        <time>2023-08-08T05:16:34.000Z</time>
      </trkpt>
      <trkpt lat="45.54745" lon="6.29036">
        <ele>348.20001220703</ele>
        <time>2023-08-08T05:16:38.000Z</time>
      </trkpt>
      <trkpt lat="45.54749" lon="6.29037">
        <ele>348.60000610352</ele>
        <time>2023-08-08T05:16:41.000Z</time>
      </trkpt>
      <trkpt lat="45.54754" lon="6.29037">
        <ele>349.39999389648</ele>
        <time>2023-08-08T05:16:46.000Z</time>
      </trkpt>
      <trkpt lat="45.54756" lon="6.29038">
        <ele>349.79998779297</ele>
        <time>2023-08-08T05:16:48.000Z</time>
      </trkpt>
      <trkpt lat="45.54762" lon="6.29039">
        <ele>350.20001220703</ele>
        <time>2023-08-08T05:16:52.000Z</time>
      </trkpt>
      <trkpt lat="45.54765" lon="6.29041">
        <ele>350.79998779297</ele>
        <time>2023-08-08T05:16:55.000Z</time>
      </trkpt>
      <trkpt lat="45.5477" lon="6.29042">
        <ele>351.39999389648</ele>
        <time>2023-08-08T05:16:59.000Z</time>
      </trkpt>
      <trkpt lat="45.54769" lon="6.29039">
        <ele>351.79998779297</ele>
        <time>2023-08-08T05:17:06.000Z</time>
      </trkpt>
      <trkpt lat="45.54769" lon="6.29039">
        <ele>351.79998779297</ele>
        <time>2023-08-08T05:17:07.000Z</time>
      </trkpt>
      <trkpt lat="45.54767" lon="6.29039">
        <ele>351.79998779297</ele>
        <time>2023-08-08T05:17:09.000Z</time>
      </trkpt>
      <trkpt lat="45.54767" lon="6.29039">
        <ele>351.79998779297</ele>
        <time>2023-08-08T05:17:13.000Z</time>
      </trkpt>
      <trkpt lat="45.54766" lon="6.29038">
        <ele>351.79998779297</ele>
        <time>2023-08-08T05:17:14.000Z</time>
      </trkpt>
      <trkpt lat="45.54778" lon="6.29039">
        <ele>352.20001220703</ele>
        <time>2023-08-08T05:17:20.000Z</time>
      </trkpt>
      <trkpt lat="45.54786" lon="6.29039">
        <ele>353</ele>
        <time>2023-08-08T05:17:25.000Z</time>
      </trkpt>
      <trkpt lat="45.54791" lon="6.29037">
        <ele>353.60000610352</ele>
        <time>2023-08-08T05:17:29.000Z</time>
      </trkpt>
      <trkpt lat="45.54793" lon="6.29036">
        <ele>354.20001220703</ele>
        <time>2023-08-08T05:17:32.000Z</time>
      </trkpt>
      <trkpt lat="45.54796" lon="6.29036">
        <ele>354.79998779297</ele>
        <time>2023-08-08T05:17:36.000Z</time>
      </trkpt>
      <trkpt lat="45.54799" lon="6.29034">
        <ele>355.20001220703</ele>
        <time>2023-08-08T05:17:39.000Z</time>
      </trkpt>
      <trkpt lat="45.54808" lon="6.29032">
        <ele>356.20001220703</ele>
        <time>2023-08-08T05:17:45.000Z</time>
      </trkpt>
      <trkpt lat="45.5481" lon="6.29031">
        <ele>356.39999389648</ele>
        <time>2023-08-08T05:17:46.000Z</time>
      </trkpt>
      <trkpt lat="45.54817" lon="6.29029">
        <ele>357.20001220703</ele>
        <time>2023-08-08T05:17:52.000Z</time>
      </trkpt>
      <trkpt lat="45.54819" lon="6.29028">
        <ele>357.39999389648</ele>
        <time>2023-08-08T05:17:53.000Z</time>
      </trkpt>
      <trkpt lat="45.54822" lon="6.29027">
        <ele>358.20001220703</ele>
        <time>2023-08-08T05:17:59.000Z</time>
      </trkpt>
      <trkpt lat="45.54823" lon="6.29027">
        <ele>358.39999389648</ele>
        <time>2023-08-08T05:18:02.000Z</time>
      </trkpt>
      <trkpt lat="45.54821" lon="6.29022">
        <ele>358.39999389648</ele>
        <time>2023-08-08T05:18:10.000Z</time>
      </trkpt>
      <trkpt lat="45.54824" lon="6.29019">
        <ele>358.60000610352</ele>
        <time>2023-08-08T05:18:18.000Z</time>
      </trkpt>
      <trkpt lat="45.54824" lon="6.29019">
        <ele>359</ele>
        <time>2023-08-08T05:18:25.000Z</time>
      </trkpt>
      <trkpt lat="45.54823" lon="6.29019">
        <ele>359.20001220703</ele>
        <time>2023-08-08T05:18:33.000Z</time>
      </trkpt>
      <trkpt lat="45.54824" lon="6.29024">
        <ele>359.39999389648</ele>
        <time>2023-08-08T05:18:41.000Z</time>
      </trkpt>
      <trkpt lat="45.54826" lon="6.2903">
        <ele>359.39999389648</ele>
        <time>2023-08-08T05:18:48.000Z</time>
      </trkpt>
      <trkpt lat="45.54827" lon="6.2903">
        <ele>359.39999389648</ele>
        <time>2023-08-08T05:18:51.000Z</time>
      </trkpt>
      <trkpt lat="45.54827" lon="6.29027">
        <ele>359.39999389648</ele>
        <time>2023-08-08T05:18:56.000Z</time>
      </trkpt>
      <trkpt lat="45.54826" lon="6.29025">
        <ele>359.60000610352</ele>
        <time>2023-08-08T05:19:05.000Z</time>
      </trkpt>
      <trkpt lat="45.54828" lon="6.29022">
        <ele>359.60000610352</ele>
        <time>2023-08-08T05:19:14.000Z</time>
      </trkpt>
      <trkpt lat="45.5483" lon="6.2902">
        <ele>359.79998779297</ele>
        <time>2023-08-08T05:19:21.000Z</time>
      </trkpt>
      <trkpt lat="45.54829" lon="6.29014">
        <ele>359.79998779297</ele>
        <time>2023-08-08T05:19:29.000Z</time>
      </trkpt>
      <trkpt lat="45.54828" lon="6.29012">
        <ele>360.60000610352</ele>
        <time>2023-08-08T05:19:36.000Z</time>
      </trkpt>
      <trkpt lat="45.54829" lon="6.29008">
        <ele>361.60000610352</ele>
        <time>2023-08-08T05:19:41.000Z</time>
      </trkpt>
      <trkpt lat="45.54831" lon="6.29004">
        <ele>362.39999389648</ele>
        <time>2023-08-08T05:19:44.000Z</time>
      </trkpt>
      <trkpt lat="45.54833" lon="6.29001">
        <ele>363</ele>
        <time>2023-08-08T05:19:46.000Z</time>
      </trkpt>
      <trkpt lat="45.54835" lon="6.29">
        <ele>364</ele>
        <time>2023-08-08T05:19:50.000Z</time>
      </trkpt>
      <trkpt lat="45.54835" lon="6.29">
        <ele>364.39999389648</ele>
        <time>2023-08-08T05:19:51.000Z</time>
      </trkpt>
      <trkpt lat="45.54881" lon="6.28942">
        <ele>381.20001220703</ele>
        <time>2023-08-08T05:21:16.000Z</time>
      </trkpt>
      <trkpt lat="45.54881" lon="6.28938">
        <ele>382</ele>
        <time>2023-08-08T05:21:20.000Z</time>
      </trkpt>
      <trkpt lat="45.5488" lon="6.28933">
        <ele>383.20001220703</ele>
        <time>2023-08-08T05:21:26.000Z</time>
      </trkpt>
      <trkpt lat="45.54869" lon="6.28934">
        <ele>385.20001220703</ele>
        <time>2023-08-08T05:21:37.000Z</time>
      </trkpt>
      <trkpt lat="45.54869" lon="6.28935">
        <ele>385.39999389648</ele>
        <time>2023-08-08T05:21:38.000Z</time>
      </trkpt>
      <trkpt lat="45.54862" lon="6.28943">
        <ele>387.60000610352</ele>
        <time>2023-08-08T05:21:49.000Z</time>
      </trkpt>
      <trkpt lat="45.54861" lon="6.28946">
        <ele>388</ele>
        <time>2023-08-08T05:21:51.000Z</time>
      </trkpt>
      <trkpt lat="45.54858" lon="6.28948">
        <ele>388.60000610352</ele>
        <time>2023-08-08T05:21:55.000Z</time>
      </trkpt>
      <trkpt lat="45.54854" lon="6.2895">
        <ele>389.60000610352</ele>
        <time>2023-08-08T05:22:00.000Z</time>
      </trkpt>
      <trkpt lat="45.54853" lon="6.28951">
        <ele>389.79998779297</ele>
        <time>2023-08-08T05:22:01.000Z</time>
      </trkpt>
      <trkpt lat="45.5485" lon="6.28956">
        <ele>391</ele>
        <time>2023-08-08T05:22:07.000Z</time>
      </trkpt>
      <trkpt lat="45.54851" lon="6.28958">
        <ele>391.39999389648</ele>
        <time>2023-08-08T05:22:09.000Z</time>
      </trkpt>
      <trkpt lat="45.54849" lon="6.28964">
        <ele>392.20001220703</ele>
        <time>2023-08-08T05:22:13.000Z</time>
      </trkpt>
      <trkpt lat="45.54847" lon="6.28966">
        <ele>392.79998779297</ele>
        <time>2023-08-08T05:22:17.000Z</time>
      </trkpt>
      <trkpt lat="45.54844" lon="6.28966">
        <ele>393.20001220703</ele>
        <time>2023-08-08T05:22:19.000Z</time>
      </trkpt>
      <trkpt lat="45.54839" lon="6.28968">
        <ele>394</ele>
        <time>2023-08-08T05:22:24.000Z</time>
      </trkpt>
      <trkpt lat="45.54838" lon="6.28969">
        <ele>394.20001220703</ele>
        <time>2023-08-08T05:22:25.000Z</time>
      </trkpt>
      <trkpt lat="45.54828" lon="6.28965">
        <ele>395.39999389648</ele>
        <time>2023-08-08T05:22:33.000Z</time>
      </trkpt>
      <trkpt lat="45.54827" lon="6.28965">
        <ele>395.60000610352</ele>
        <time>2023-08-08T05:22:34.000Z</time>
      </trkpt>
      <trkpt lat="45.54819" lon="6.2896">
        <ele>396.39999389648</ele>
        <time>2023-08-08T05:22:40.000Z</time>
      </trkpt>
      <trkpt lat="45.54817" lon="6.28959">
        <ele>396.60000610352</ele>
        <time>2023-08-08T05:22:41.000Z</time>
      </trkpt>
      <trkpt lat="45.54814" lon="6.28955">
        <ele>397.39999389648</ele>
        <time>2023-08-08T05:22:46.000Z</time>
      </trkpt>
      <trkpt lat="45.54811" lon="6.28953">
        <ele>398.20001220703</ele>
        <time>2023-08-08T05:22:50.000Z</time>
      </trkpt>
      <trkpt lat="45.54809" lon="6.28949">
        <ele>398.60000610352</ele>
        <time>2023-08-08T05:22:53.000Z</time>
      </trkpt>
      <trkpt lat="45.54808" lon="6.28944">
        <ele>398.79998779297</ele>
        <time>2023-08-08T05:22:58.000Z</time>
      </trkpt>
      <trkpt lat="45.54808" lon="6.28945">
        <ele>398.60000610352</ele>
        <time>2023-08-08T05:23:07.000Z</time>
      </trkpt>
      <trkpt lat="45.54805" lon="6.28947">
        <ele>398.39999389648</ele>
        <time>2023-08-08T05:23:14.000Z</time>
      </trkpt>
      <trkpt lat="45.548" lon="6.28945">
        <ele>399.60000610352</ele>
        <time>2023-08-08T05:23:22.000Z</time>
      </trkpt>
      <trkpt lat="45.548" lon="6.28945">
        <ele>399.79998779297</ele>
        <time>2023-08-08T05:23:23.000Z</time>
      </trkpt>
      <trkpt lat="45.54798" lon="6.28941">
        <ele>400.79998779297</ele>
        <time>2023-08-08T05:23:27.000Z</time>
      </trkpt>
      <trkpt lat="45.54795" lon="6.28938">
        <ele>401.60000610352</ele>
        <time>2023-08-08T05:23:31.000Z</time>
      </trkpt>
      <trkpt lat="45.54795" lon="6.28938">
        <ele>401.79998779297</ele>
        <time>2023-08-08T05:23:32.000Z</time>
      </trkpt>
      <trkpt lat="45.54793" lon="6.28935">
        <ele>402.79998779297</ele>
        <time>2023-08-08T05:23:37.000Z</time>
      </trkpt>
      <trkpt lat="45.54791" lon="6.28933">
        <ele>403.20001220703</ele>
        <time>2023-08-08T05:23:39.000Z</time>
      </trkpt>
      <trkpt lat="45.54787" lon="6.28928">
        <ele>404</ele>
        <time>2023-08-08T05:23:47.000Z</time>
      </trkpt>
      <trkpt lat="45.54786" lon="6.28927">
        <ele>404.20001220703</ele>
        <time>2023-08-08T05:23:48.000Z</time>
      </trkpt>
      <trkpt lat="45.54783" lon="6.28922">
        <ele>405</ele>
        <time>2023-08-08T05:23:53.000Z</time>
      </trkpt>
      <trkpt lat="45.54781" lon="6.2892">
        <ele>405.39999389648</ele>
        <time>2023-08-08T05:23:55.000Z</time>
      </trkpt>
      <trkpt lat="45.5478" lon="6.28916">
        <ele>406</ele>
        <time>2023-08-08T05:23:59.000Z</time>
      </trkpt>
      <trkpt lat="45.54777" lon="6.28912">
        <ele>407</ele>
        <time>2023-08-08T05:24:04.000Z</time>
      </trkpt>
      <trkpt lat="45.54777" lon="6.28911">
        <ele>407.20001220703</ele>
        <time>2023-08-08T05:24:05.000Z</time>
      </trkpt>
      <trkpt lat="45.54773" lon="6.28906">
        <ele>408.20001220703</ele>
        <time>2023-08-08T05:24:11.000Z</time>
      </trkpt>
      <trkpt lat="45.54771" lon="6.28904">
        <ele>408.60000610352</ele>
        <time>2023-08-08T05:24:13.000Z</time>
      </trkpt>
      <trkpt lat="45.54769" lon="6.289">
        <ele>409.20001220703</ele>
        <time>2023-08-08T05:24:17.000Z</time>
      </trkpt>
      <trkpt lat="45.54767" lon="6.28897">
        <ele>409.79998779297</ele>
        <time>2023-08-08T05:24:20.000Z</time>
      </trkpt>
      <trkpt lat="45.54766" lon="6.28895">
        <ele>410.20001220703</ele>
        <time>2023-08-08T05:24:22.000Z</time>
      </trkpt>
      <trkpt lat="45.54763" lon="6.28893">
        <ele>411.39999389648</ele>
        <time>2023-08-08T05:24:28.000Z</time>
      </trkpt>
      <trkpt lat="45.54762" lon="6.28892">
        <ele>411.79998779297</ele>
        <time>2023-08-08T05:24:30.000Z</time>
      </trkpt>
      <trkpt lat="45.5476" lon="6.2889">
        <ele>412.39999389648</ele>
        <time>2023-08-08T05:24:34.000Z</time>
      </trkpt>
      <trkpt lat="45.54757" lon="6.28888">
        <ele>413.20001220703</ele>
        <time>2023-08-08T05:24:38.000Z</time>
      </trkpt>
      <trkpt lat="45.54757" lon="6.28888">
        <ele>413.60000610352</ele>
        <time>2023-08-08T05:24:40.000Z</time>
      </trkpt>
      <trkpt lat="45.54754" lon="6.28886">
        <ele>414.60000610352</ele>
        <time>2023-08-08T05:24:45.000Z</time>
      </trkpt>
      <trkpt lat="45.54753" lon="6.28883">
        <ele>415</ele>
        <time>2023-08-08T05:24:47.000Z</time>
      </trkpt>
      <trkpt lat="45.54751" lon="6.28878">
        <ele>415.79998779297</ele>
        <time>2023-08-08T05:24:51.000Z</time>
      </trkpt>
      <trkpt lat="45.5475" lon="6.28874">
        <ele>416.39999389648</ele>
        <time>2023-08-08T05:24:55.000Z</time>
      </trkpt>
      <trkpt lat="45.5475" lon="6.28871">
        <ele>416.79998779297</ele>
        <time>2023-08-08T05:24:58.000Z</time>
      </trkpt>
      <trkpt lat="45.54749" lon="6.2887">
        <ele>416.79998779297</ele>
        <time>2023-08-08T05:25:02.000Z</time>
      </trkpt>
      <trkpt lat="45.54751" lon="6.28873">
        <ele>416.60000610352</ele>
        <time>2023-08-08T05:25:13.000Z</time>
      </trkpt>
      <trkpt lat="45.54748" lon="6.28874">
        <ele>416.39999389648</ele>
        <time>2023-08-08T05:25:24.000Z</time>
      </trkpt>
      <trkpt lat="45.54746" lon="6.28868">
        <ele>417</ele>
        <time>2023-08-08T05:25:32.000Z</time>
      </trkpt>
      <trkpt lat="45.54744" lon="6.28864">
        <ele>418</ele>
        <time>2023-08-08T05:25:38.000Z</time>
      </trkpt>
      <trkpt lat="45.54741" lon="6.28859">
        <ele>418.60000610352</ele>
        <time>2023-08-08T05:25:41.000Z</time>
      </trkpt>
      <trkpt lat="45.54741" lon="6.28857">
        <ele>419.20001220703</ele>
        <time>2023-08-08T05:25:44.000Z</time>
      </trkpt>
      <trkpt lat="45.5474" lon="6.28854">
        <ele>420.20001220703</ele>
        <time>2023-08-08T05:25:49.000Z</time>
      </trkpt>
      <trkpt lat="45.5474" lon="6.28852">
        <ele>420.60000610352</ele>
        <time>2023-08-08T05:25:51.000Z</time>
      </trkpt>
      <trkpt lat="45.54738" lon="6.2885">
        <ele>421.39999389648</ele>
        <time>2023-08-08T05:25:55.000Z</time>
      </trkpt>
      <trkpt lat="45.54737" lon="6.2885">
        <ele>422</ele>
        <time>2023-08-08T05:25:58.000Z</time>
      </trkpt>
      <trkpt lat="45.54736" lon="6.28848">
        <ele>422.60000610352</ele>
        <time>2023-08-08T05:26:01.000Z</time>
      </trkpt>
      <trkpt lat="45.54734" lon="6.28846">
        <ele>423.39999389648</ele>
        <time>2023-08-08T05:26:06.000Z</time>
      </trkpt>
      <trkpt lat="45.54734" lon="6.28845">
        <ele>423.60000610352</ele>
        <time>2023-08-08T05:26:07.000Z</time>
      </trkpt>
      <trkpt lat="45.5473" lon="6.28839">
        <ele>424.79998779297</ele>
        <time>2023-08-08T05:26:13.000Z</time>
      </trkpt>
      <trkpt lat="45.5473" lon="6.28838">
        <ele>425</ele>
        <time>2023-08-08T05:26:14.000Z</time>
      </trkpt>
      <trkpt lat="45.54728" lon="6.28832">
        <ele>426</ele>
        <time>2023-08-08T05:26:19.000Z</time>
      </trkpt>
      <trkpt lat="45.54725" lon="6.28828">
        <ele>426.60000610352</ele>
        <time>2023-08-08T05:26:23.000Z</time>
      </trkpt>
      <trkpt lat="45.54724" lon="6.28826">
        <ele>427.20001220703</ele>
        <time>2023-08-08T05:26:25.000Z</time>
      </trkpt>
      <trkpt lat="45.54722" lon="6.28822">
        <ele>428.20001220703</ele>
        <time>2023-08-08T05:26:30.000Z</time>
      </trkpt>
      <trkpt lat="45.54721" lon="6.2882">
        <ele>428.60000610352</ele>
        <time>2023-08-08T05:26:32.000Z</time>
      </trkpt>
      <trkpt lat="45.54721" lon="6.28816">
        <ele>429.20001220703</ele>
        <time>2023-08-08T05:26:35.000Z</time>
      </trkpt>
      <trkpt lat="45.54718" lon="6.28812">
        <ele>430.20001220703</ele>
        <time>2023-08-08T05:26:42.000Z</time>
      </trkpt>
      <trkpt lat="45.54717" lon="6.28811">
        <ele>430.39999389648</ele>
        <time>2023-08-08T05:26:43.000Z</time>
      </trkpt>
      <trkpt lat="45.54713" lon="6.28806">
        <ele>431</ele>
        <time>2023-08-08T05:26:50.000Z</time>
      </trkpt>
      <trkpt lat="45.5471" lon="6.28801">
        <ele>431.39999389648</ele>
        <time>2023-08-08T05:26:54.000Z</time>
      </trkpt>
      <trkpt lat="45.54707" lon="6.28797">
        <ele>431.79998779297</ele>
        <time>2023-08-08T05:26:57.000Z</time>
      </trkpt>
      <trkpt lat="45.54701" lon="6.2879">
        <ele>432.39999389648</ele>
        <time>2023-08-08T05:27:03.000Z</time>
      </trkpt>
      <trkpt lat="45.547" lon="6.28789">
        <ele>432.39999389648</ele>
        <time>2023-08-08T05:27:04.000Z</time>
      </trkpt>
      <trkpt lat="45.54691" lon="6.2878">
        <ele>433.39999389648</ele>
        <time>2023-08-08T05:27:13.000Z</time>
      </trkpt>
      <trkpt lat="45.5469" lon="6.28779">
        <ele>433.60000610352</ele>
        <time>2023-08-08T05:27:14.000Z</time>
      </trkpt>
      <trkpt lat="45.54683" lon="6.28771">
        <ele>434.60000610352</ele>
        <time>2023-08-08T05:27:22.000Z</time>
      </trkpt>
      <trkpt lat="45.54676" lon="6.28765">
        <ele>435.60000610352</ele>
        <time>2023-08-08T05:27:30.000Z</time>
      </trkpt>
      <trkpt lat="45.54671" lon="6.28755">
        <ele>436.39999389648</ele>
        <time>2023-08-08T05:27:38.000Z</time>
      </trkpt>
      <trkpt lat="45.5467" lon="6.28754">
        <ele>436.60000610352</ele>
        <time>2023-08-08T05:27:40.000Z</time>
      </trkpt>
      <trkpt lat="45.54667" lon="6.28747">
        <ele>437.60000610352</ele>
        <time>2023-08-08T05:27:47.000Z</time>
      </trkpt>
      <trkpt lat="45.54666" lon="6.28745">
        <ele>437.60000610352</ele>
        <time>2023-08-08T05:27:48.000Z</time>
      </trkpt>
      <trkpt lat="45.54665" lon="6.28738">
        <ele>438.60000610352</ele>
        <time>2023-08-08T05:27:54.000Z</time>
      </trkpt>
      <trkpt lat="45.54665" lon="6.28737">
        <ele>438.79998779297</ele>
        <time>2023-08-08T05:27:55.000Z</time>
      </trkpt>
      <trkpt lat="45.54664" lon="6.28731">
        <ele>440</ele>
        <time>2023-08-08T05:28:02.000Z</time>
      </trkpt>
      <trkpt lat="45.54662" lon="6.28724">
        <ele>440.79998779297</ele>
        <time>2023-08-08T05:28:08.000Z</time>
      </trkpt>
      <trkpt lat="45.54661" lon="6.28722">
        <ele>441</ele>
        <time>2023-08-08T05:28:10.000Z</time>
      </trkpt>
      <trkpt lat="45.54661" lon="6.28719">
        <ele>442.20001220703</ele>
        <time>2023-08-08T05:28:17.000Z</time>
      </trkpt>
      <trkpt lat="45.5466" lon="6.28711">
        <ele>443.39999389648</ele>
        <time>2023-08-08T05:28:24.000Z</time>
      </trkpt>
      <trkpt lat="45.54662" lon="6.28709">
        <ele>444.39999389648</ele>
        <time>2023-08-08T05:28:31.000Z</time>
      </trkpt>
      <trkpt lat="45.54664" lon="6.28703">
        <ele>444.79998779297</ele>
        <time>2023-08-08T05:28:38.000Z</time>
      </trkpt>
      <trkpt lat="45.54665" lon="6.28698">
        <ele>445.20001220703</ele>
        <time>2023-08-08T05:28:45.000Z</time>
      </trkpt>
      <trkpt lat="45.54665" lon="6.28696">
        <ele>445.39999389648</ele>
        <time>2023-08-08T05:28:47.000Z</time>
      </trkpt>
      <trkpt lat="45.54664" lon="6.28689">
        <ele>446</ele>
        <time>2023-08-08T05:28:53.000Z</time>
      </trkpt>
      <trkpt lat="45.54664" lon="6.28686">
        <ele>446.60000610352</ele>
        <time>2023-08-08T05:28:56.000Z</time>
      </trkpt>
      <trkpt lat="45.54665" lon="6.28682">
        <ele>447</ele>
        <time>2023-08-08T05:28:59.000Z</time>
      </trkpt>
      <trkpt lat="45.54668" lon="6.28677">
        <ele>447.60000610352</ele>
        <time>2023-08-08T05:29:04.000Z</time>
      </trkpt>
      <trkpt lat="45.54669" lon="6.28676">
        <ele>447.79998779297</ele>
        <time>2023-08-08T05:29:05.000Z</time>
      </trkpt>
      <trkpt lat="45.54675" lon="6.28675">
        <ele>448.39999389648</ele>
        <time>2023-08-08T05:29:12.000Z</time>
      </trkpt>
      <trkpt lat="45.54677" lon="6.28672">
        <ele>448.60000610352</ele>
        <time>2023-08-08T05:29:21.000Z</time>
      </trkpt>
      <trkpt lat="45.54678" lon="6.28677">
        <ele>448.60000610352</ele>
        <time>2023-08-08T05:29:29.000Z</time>
      </trkpt>
      <trkpt lat="45.54678" lon="6.28678">
        <ele>448.39999389648</ele>
        <time>2023-08-08T05:29:36.000Z</time>
      </trkpt>
      <trkpt lat="45.54677" lon="6.28672">
        <ele>448.39999389648</ele>
        <time>2023-08-08T05:29:46.000Z</time>
      </trkpt>
      <trkpt lat="45.54678" lon="6.28671">
        <ele>448.60000610352</ele>
        <time>2023-08-08T05:29:53.000Z</time>
      </trkpt>
      <trkpt lat="45.5468" lon="6.28667">
        <ele>448.79998779297</ele>
        <time>2023-08-08T05:29:59.000Z</time>
      </trkpt>
      <trkpt lat="45.54681" lon="6.28664">
        <ele>449.39999389648</ele>
        <time>2023-08-08T05:30:02.000Z</time>
      </trkpt>
      <trkpt lat="45.54681" lon="6.28663">
        <ele>449.79998779297</ele>
        <time>2023-08-08T05:30:05.000Z</time>
      </trkpt>
      <trkpt lat="45.54682" lon="6.2866">
        <ele>450.39999389648</ele>
        <time>2023-08-08T05:30:09.000Z</time>
      </trkpt>
      <trkpt lat="45.54683" lon="6.28657">
        <ele>450.79998779297</ele>
        <time>2023-08-08T05:30:11.000Z</time>
      </trkpt>
      <trkpt lat="45.54685" lon="6.2865">
        <ele>451.79998779297</ele>
        <time>2023-08-08T05:30:17.000Z</time>
      </trkpt>
      <trkpt lat="45.54685" lon="6.28648">
        <ele>451.79998779297</ele>
        <time>2023-08-08T05:30:18.000Z</time>
      </trkpt>
      <trkpt lat="45.54688" lon="6.28642">
        <ele>453</ele>
        <time>2023-08-08T05:30:23.000Z</time>
      </trkpt>
      <trkpt lat="45.54689" lon="6.28639">
        <ele>453.20001220703</ele>
        <time>2023-08-08T05:30:25.000Z</time>
      </trkpt>
      <trkpt lat="45.54691" lon="6.28635">
        <ele>454</ele>
        <time>2023-08-08T05:30:29.000Z</time>
      </trkpt>
      <trkpt lat="45.54692" lon="6.28633">
        <ele>454.79998779297</ele>
        <time>2023-08-08T05:30:34.000Z</time>
      </trkpt>
      <trkpt lat="45.54692" lon="6.28634">
        <ele>455</ele>
        <time>2023-08-08T05:30:35.000Z</time>
      </trkpt>
      <trkpt lat="45.54694" lon="6.28632">
        <ele>455.79998779297</ele>
        <time>2023-08-08T05:30:40.000Z</time>
      </trkpt>
      <trkpt lat="45.54695" lon="6.28628">
        <ele>455.79998779297</ele>
        <time>2023-08-08T05:30:47.000Z</time>
      </trkpt>
      <trkpt lat="45.54697" lon="6.28625">
        <ele>456.20001220703</ele>
        <time>2023-08-08T05:30:51.000Z</time>
      </trkpt>
      <trkpt lat="45.54699" lon="6.28623">
        <ele>456.79998779297</ele>
        <time>2023-08-08T05:30:55.000Z</time>
      </trkpt>
      <trkpt lat="45.54701" lon="6.28623">
        <ele>457.20001220703</ele>
        <time>2023-08-08T05:30:58.000Z</time>
      </trkpt>
      <trkpt lat="45.54705" lon="6.2862">
        <ele>458.20001220703</ele>
        <time>2023-08-08T05:31:04.000Z</time>
      </trkpt>
      <trkpt lat="45.5471" lon="6.28617">
        <ele>459.20001220703</ele>
        <time>2023-08-08T05:31:11.000Z</time>
      </trkpt>
      <trkpt lat="45.54712" lon="6.28615">
        <ele>459.60000610352</ele>
        <time>2023-08-08T05:31:13.000Z</time>
      </trkpt>
      <trkpt lat="45.54713" lon="6.28613">
        <ele>460.39999389648</ele>
        <time>2023-08-08T05:31:17.000Z</time>
      </trkpt>
      <trkpt lat="45.54715" lon="6.28613">
        <ele>460.79998779297</ele>
        <time>2023-08-08T05:31:20.000Z</time>
      </trkpt>
      <trkpt lat="45.54717" lon="6.28611">
        <ele>461.39999389648</ele>
        <time>2023-08-08T05:31:23.000Z</time>
      </trkpt>
      <trkpt lat="45.54721" lon="6.28608">
        <ele>462.39999389648</ele>
        <time>2023-08-08T05:31:29.000Z</time>
      </trkpt>
      <trkpt lat="45.54722" lon="6.28608">
        <ele>462.60000610352</ele>
        <time>2023-08-08T05:31:30.000Z</time>
      </trkpt>
      <trkpt lat="45.54726" lon="6.28608">
        <ele>463.60000610352</ele>
        <time>2023-08-08T05:31:35.000Z</time>
      </trkpt>
      <trkpt lat="45.54727" lon="6.28608">
        <ele>464.39999389648</ele>
        <time>2023-08-08T05:31:39.000Z</time>
      </trkpt>
      <trkpt lat="45.54728" lon="6.28607">
        <ele>464.79998779297</ele>
        <time>2023-08-08T05:31:41.000Z</time>
      </trkpt>
      <trkpt lat="45.54732" lon="6.28608">
        <ele>465.79998779297</ele>
        <time>2023-08-08T05:31:46.000Z</time>
      </trkpt>
      <trkpt lat="45.54735" lon="6.28608">
        <ele>466.20001220703</ele>
        <time>2023-08-08T05:31:48.000Z</time>
      </trkpt>
      <trkpt lat="45.54738" lon="6.28608">
        <ele>467</ele>
        <time>2023-08-08T05:31:52.000Z</time>
      </trkpt>
      <trkpt lat="45.54739" lon="6.28605">
        <ele>467.79998779297</ele>
        <time>2023-08-08T05:31:56.000Z</time>
      </trkpt>
      <trkpt lat="45.54739" lon="6.28604">
        <ele>468</ele>
        <time>2023-08-08T05:31:58.000Z</time>
      </trkpt>
      <trkpt lat="45.5474" lon="6.28602">
        <ele>468.39999389648</ele>
        <time>2023-08-08T05:32:04.000Z</time>
      </trkpt>
      <trkpt lat="45.5474" lon="6.28603">
        <ele>468.20001220703</ele>
        <time>2023-08-08T05:32:12.000Z</time>
      </trkpt>
      <trkpt lat="45.54744" lon="6.28597">
        <ele>468.20001220703</ele>
        <time>2023-08-08T05:32:19.000Z</time>
      </trkpt>
      <trkpt lat="45.54746" lon="6.28596">
        <ele>468.39999389648</ele>
        <time>2023-08-08T05:32:29.000Z</time>
      </trkpt>
      <trkpt lat="45.54747" lon="6.28595">
        <ele>468.20001220703</ele>
        <time>2023-08-08T05:32:36.000Z</time>
      </trkpt>
      <trkpt lat="45.54744" lon="6.28602">
        <ele>468.39999389648</ele>
        <time>2023-08-08T05:32:43.000Z</time>
      </trkpt>
      <trkpt lat="45.54742" lon="6.28605">
        <ele>468.20001220703</ele>
        <time>2023-08-08T05:32:49.000Z</time>
      </trkpt>
      <trkpt lat="45.54743" lon="6.28604">
        <ele>468.20001220703</ele>
        <time>2023-08-08T05:32:57.000Z</time>
      </trkpt>
      <trkpt lat="45.54744" lon="6.28603">
        <ele>468.39999389648</ele>
        <time>2023-08-08T05:33:04.000Z</time>
      </trkpt>
      <trkpt lat="45.54742" lon="6.28604">
        <ele>468.39999389648</ele>
        <time>2023-08-08T05:33:10.000Z</time>
      </trkpt>
      <trkpt lat="45.54742" lon="6.286">
        <ele>468</ele>
        <time>2023-08-08T05:33:18.000Z</time>
      </trkpt>
      <trkpt lat="45.54744" lon="6.28602">
        <ele>468</ele>
        <time>2023-08-08T05:33:25.000Z</time>
      </trkpt>
      <trkpt lat="45.54744" lon="6.28607">
        <ele>468</ele>
        <time>2023-08-08T05:33:32.000Z</time>
      </trkpt>
      <trkpt lat="45.54743" lon="6.28608">
        <ele>468</ele>
        <time>2023-08-08T05:33:40.000Z</time>
      </trkpt>
      <trkpt lat="45.54743" lon="6.28607">
        <ele>468</ele>
        <time>2023-08-08T05:33:50.000Z</time>
      </trkpt>
      <trkpt lat="45.54743" lon="6.28608">
        <ele>468</ele>
        <time>2023-08-08T05:33:59.000Z</time>
      </trkpt>
      <trkpt lat="45.54742" lon="6.28609">
        <ele>468.20001220703</ele>
        <time>2023-08-08T05:34:08.000Z</time>
      </trkpt>
      <trkpt lat="45.54744" lon="6.28608">
        <ele>468.39999389648</ele>
        <time>2023-08-08T05:34:15.000Z</time>
      </trkpt>
      <trkpt lat="45.54746" lon="6.28606">
        <ele>468.39999389648</ele>
        <time>2023-08-08T05:34:23.000Z</time>
      </trkpt>
      <trkpt lat="45.54746" lon="6.28605">
        <ele>468.39999389648</ele>
        <time>2023-08-08T05:34:32.000Z</time>
      </trkpt>
      <trkpt lat="45.54748" lon="6.28605">
        <ele>468.39999389648</ele>
        <time>2023-08-08T05:34:41.000Z</time>
      </trkpt>
      <trkpt lat="45.54746" lon="6.28602">
        <ele>468.39999389648</ele>
        <time>2023-08-08T05:34:48.000Z</time>
      </trkpt>
      <trkpt lat="45.54744" lon="6.28603">
        <ele>468.60000610352</ele>
        <time>2023-08-08T05:34:56.000Z</time>
      </trkpt>
      <trkpt lat="45.54743" lon="6.28606">
        <ele>468.39999389648</ele>
        <time>2023-08-08T05:35:06.000Z</time>
      </trkpt>
      <trkpt lat="45.54744" lon="6.28603">
        <ele>468.39999389648</ele>
        <time>2023-08-08T05:35:14.000Z</time>
      </trkpt>
      <trkpt lat="45.54743" lon="6.28594">
        <ele>468.39999389648</ele>
        <time>2023-08-08T05:35:23.000Z</time>
      </trkpt>
      <trkpt lat="45.54741" lon="6.28598">
        <ele>468.60000610352</ele>
        <time>2023-08-08T05:35:30.000Z</time>
      </trkpt>
      <trkpt lat="45.54744" lon="6.28602">
        <ele>468.60000610352</ele>
        <time>2023-08-08T05:35:38.000Z</time>
      </trkpt>
      <trkpt lat="45.54747" lon="6.28606">
        <ele>468.60000610352</ele>
        <time>2023-08-08T05:35:47.000Z</time>
      </trkpt>
      <trkpt lat="45.54745" lon="6.28603">
        <ele>468.60000610352</ele>
        <time>2023-08-08T05:35:54.000Z</time>
      </trkpt>
      <trkpt lat="45.54748" lon="6.28609">
        <ele>468.60000610352</ele>
        <time>2023-08-08T05:36:03.000Z</time>
      </trkpt>
      <trkpt lat="45.54745" lon="6.28611">
        <ele>468.60000610352</ele>
        <time>2023-08-08T05:36:10.000Z</time>
      </trkpt>
      <trkpt lat="45.54744" lon="6.28605">
        <ele>468.60000610352</ele>
        <time>2023-08-08T05:36:19.000Z</time>
      </trkpt>
      <trkpt lat="45.54751" lon="6.28609">
        <ele>468.60000610352</ele>
        <time>2023-08-08T05:36:27.000Z</time>
      </trkpt>
      <trkpt lat="45.5475" lon="6.28609">
        <ele>468.60000610352</ele>
        <time>2023-08-08T05:36:35.000Z</time>
      </trkpt>
      <trkpt lat="45.54744" lon="6.28604">
        <ele>468.60000610352</ele>
        <time>2023-08-08T05:36:46.000Z</time>
      </trkpt>
      <trkpt lat="45.54747" lon="6.28603">
        <ele>469</ele>
        <time>2023-08-08T05:36:54.000Z</time>
      </trkpt>
      <trkpt lat="45.54747" lon="6.28604">
        <ele>469.20001220703</ele>
        <time>2023-08-08T05:36:55.000Z</time>
      </trkpt>
      <trkpt lat="45.54753" lon="6.28608">
        <ele>470.20001220703</ele>
        <time>2023-08-08T05:37:02.000Z</time>
      </trkpt>
      <trkpt lat="45.54758" lon="6.28611">
        <ele>471.20001220703</ele>
        <time>2023-08-08T05:37:09.000Z</time>
      </trkpt>
      <trkpt lat="45.5476" lon="6.28612">
        <ele>471.79998779297</ele>
        <time>2023-08-08T05:37:11.000Z</time>
      </trkpt>
      <trkpt lat="45.54764" lon="6.28612">
        <ele>472.39999389648</ele>
        <time>2023-08-08T05:37:15.000Z</time>
      </trkpt>
      <trkpt lat="45.54766" lon="6.28613">
        <ele>472.79998779297</ele>
        <time>2023-08-08T05:37:19.000Z</time>
      </trkpt>
      <trkpt lat="45.54768" lon="6.28616">
        <ele>473.60000610352</ele>
        <time>2023-08-08T05:37:26.000Z</time>
      </trkpt>
      <trkpt lat="45.54769" lon="6.28617">
        <ele>474</ele>
        <time>2023-08-08T05:37:28.000Z</time>
      </trkpt>
      <trkpt lat="45.54771" lon="6.28618">
        <ele>474.79998779297</ele>
        <time>2023-08-08T05:37:32.000Z</time>
      </trkpt>
      <trkpt lat="45.54775" lon="6.28622">
        <ele>475.79998779297</ele>
        <time>2023-08-08T05:37:38.000Z</time>
      </trkpt>
      <trkpt lat="45.54775" lon="6.28623">
        <ele>476</ele>
        <time>2023-08-08T05:37:39.000Z</time>
      </trkpt>
      <trkpt lat="45.54776" lon="6.28624">
        <ele>477</ele>
        <time>2023-08-08T05:37:44.000Z</time>
      </trkpt>
      <trkpt lat="45.5478" lon="6.28624">
        <ele>478</ele>
        <time>2023-08-08T05:37:50.000Z</time>
      </trkpt>
      <trkpt lat="45.54785" lon="6.28626">
        <ele>479</ele>
        <time>2023-08-08T05:37:55.000Z</time>
      </trkpt>
      <trkpt lat="45.54786" lon="6.28627">
        <ele>479.39999389648</ele>
        <time>2023-08-08T05:37:57.000Z</time>
      </trkpt>
      <trkpt lat="45.54789" lon="6.28629">
        <ele>480.20001220703</ele>
        <time>2023-08-08T05:38:02.000Z</time>
      </trkpt>
      <trkpt lat="45.54791" lon="6.2863">
        <ele>480.60000610352</ele>
        <time>2023-08-08T05:38:04.000Z</time>
      </trkpt>
      <trkpt lat="45.54794" lon="6.2863">
        <ele>481.20001220703</ele>
        <time>2023-08-08T05:38:08.000Z</time>
      </trkpt>
      <trkpt lat="45.54798" lon="6.28632">
        <ele>482</ele>
        <time>2023-08-08T05:38:12.000Z</time>
      </trkpt>
      <trkpt lat="45.54799" lon="6.28632">
        <ele>482.39999389648</ele>
        <time>2023-08-08T05:38:15.000Z</time>
      </trkpt>
      <trkpt lat="45.54804" lon="6.28636">
        <ele>483.60000610352</ele>
        <time>2023-08-08T05:38:22.000Z</time>
      </trkpt>
      <trkpt lat="45.54809" lon="6.28643">
        <ele>484.60000610352</ele>
        <time>2023-08-08T05:38:27.000Z</time>
      </trkpt>
      <trkpt lat="45.5481" lon="6.28645">
        <ele>484.79998779297</ele>
        <time>2023-08-08T05:38:29.000Z</time>
      </trkpt>
      <trkpt lat="45.54811" lon="6.28646">
        <ele>485.79998779297</ele>
        <time>2023-08-08T05:38:33.000Z</time>
      </trkpt>
      <trkpt lat="45.54812" lon="6.28646">
        <ele>486.79998779297</ele>
        <time>2023-08-08T05:38:36.000Z</time>
      </trkpt>
      <trkpt lat="45.54813" lon="6.28648">
        <ele>487</ele>
        <time>2023-08-08T05:38:37.000Z</time>
      </trkpt>
      <trkpt lat="45.54817" lon="6.28648">
        <ele>487.39999389648</ele>
        <time>2023-08-08T05:38:42.000Z</time>
      </trkpt>
      <trkpt lat="45.54824" lon="6.28652">
        <ele>487</ele>
        <time>2023-08-08T05:38:49.000Z</time>
      </trkpt>
      <trkpt lat="45.54834" lon="6.28651">
        <ele>487.60000610352</ele>
        <time>2023-08-08T05:38:58.000Z</time>
      </trkpt>
      <trkpt lat="45.54861" lon="6.28648">
        <ele>490.20001220703</ele>
        <time>2023-08-08T05:39:19.000Z</time>
      </trkpt>
      <trkpt lat="45.54869" lon="6.28648">
        <ele>491.79998779297</ele>
        <time>2023-08-08T05:39:28.000Z</time>
      </trkpt>
      <trkpt lat="45.54871" lon="6.28649">
        <ele>492.60000610352</ele>
        <time>2023-08-08T05:39:32.000Z</time>
      </trkpt>
      <trkpt lat="45.54894" lon="6.28649">
        <ele>498.79998779297</ele>
        <time>2023-08-08T05:40:04.000Z</time>
      </trkpt>
      <trkpt lat="45.54904" lon="6.28647">
        <ele>500.39999389648</ele>
        <time>2023-08-08T05:40:16.000Z</time>
      </trkpt>
      <trkpt lat="45.54907" lon="6.28646">
        <ele>501</ele>
        <time>2023-08-08T05:40:20.000Z</time>
      </trkpt>
      <trkpt lat="45.54909" lon="6.28646">
        <ele>501.60000610352</ele>
        <time>2023-08-08T05:40:23.000Z</time>
      </trkpt>
      <trkpt lat="45.54913" lon="6.28644">
        <ele>502.60000610352</ele>
        <time>2023-08-08T05:40:28.000Z</time>
      </trkpt>
      <trkpt lat="45.54913" lon="6.28644">
        <ele>502.79998779297</ele>
        <time>2023-08-08T05:40:29.000Z</time>
      </trkpt>
      <trkpt lat="45.54922" lon="6.28644">
        <ele>503.20001220703</ele>
        <time>2023-08-08T05:40:36.000Z</time>
      </trkpt>
      <trkpt lat="45.54933" lon="6.28645">
        <ele>504.20001220703</ele>
        <time>2023-08-08T05:40:44.000Z</time>
      </trkpt>
      <trkpt lat="45.54952" lon="6.28614">
        <ele>507.20001220703</ele>
        <time>2023-08-08T05:41:13.000Z</time>
      </trkpt>
      <trkpt lat="45.54954" lon="6.28616">
        <ele>507.20001220703</ele>
        <time>2023-08-08T05:41:29.000Z</time>
      </trkpt>
      <trkpt lat="45.54955" lon="6.28614">
        <ele>508.20001220703</ele>
        <time>2023-08-08T05:41:34.000Z</time>
      </trkpt>
      <trkpt lat="45.54956" lon="6.28613">
        <ele>508.79998779297</ele>
        <time>2023-08-08T05:41:37.000Z</time>
      </trkpt>
      <trkpt lat="45.54957" lon="6.28613">
        <ele>509.20001220703</ele>
        <time>2023-08-08T05:41:39.000Z</time>
      </trkpt>
      <trkpt lat="45.54958" lon="6.28611">
        <ele>510.39999389648</ele>
        <time>2023-08-08T05:41:44.000Z</time>
      </trkpt>
      <trkpt lat="45.54958" lon="6.2861">
        <ele>510.60000610352</ele>
        <time>2023-08-08T05:41:45.000Z</time>
      </trkpt>
      <trkpt lat="45.54959" lon="6.28605">
        <ele>511.39999389648</ele>
        <time>2023-08-08T05:41:49.000Z</time>
      </trkpt>
      <trkpt lat="45.54961" lon="6.286">
        <ele>512.79998779297</ele>
        <time>2023-08-08T05:41:54.000Z</time>
      </trkpt>
      <trkpt lat="45.54961" lon="6.28599">
        <ele>513</ele>
        <time>2023-08-08T05:41:55.000Z</time>
      </trkpt>
      <trkpt lat="45.54962" lon="6.28595">
        <ele>513.79998779297</ele>
        <time>2023-08-08T05:41:59.000Z</time>
      </trkpt>
      <trkpt lat="45.54962" lon="6.28589">
        <ele>515</ele>
        <time>2023-08-08T05:42:04.000Z</time>
      </trkpt>
      <trkpt lat="45.54964" lon="6.28582">
        <ele>516</ele>
        <time>2023-08-08T05:42:11.000Z</time>
      </trkpt>
      <trkpt lat="45.54966" lon="6.2858">
        <ele>516.40002441406</ele>
        <time>2023-08-08T05:42:13.000Z</time>
      </trkpt>
      <trkpt lat="45.54969" lon="6.28578">
        <ele>517.20001220703</ele>
        <time>2023-08-08T05:42:17.000Z</time>
      </trkpt>
      <trkpt lat="45.54975" lon="6.28578">
        <ele>518.40002441406</ele>
        <time>2023-08-08T05:42:23.000Z</time>
      </trkpt>
      <trkpt lat="45.54982" lon="6.28577">
        <ele>520.59997558594</ele>
        <time>2023-08-08T05:42:33.000Z</time>
      </trkpt>
      <trkpt lat="45.54984" lon="6.28573">
        <ele>521.40002441406</ele>
        <time>2023-08-08T05:42:37.000Z</time>
      </trkpt>
      <trkpt lat="45.54983" lon="6.28572">
        <ele>521.59997558594</ele>
        <time>2023-08-08T05:42:38.000Z</time>
      </trkpt>
      <trkpt lat="45.54983" lon="6.28571">
        <ele>522.79998779297</ele>
        <time>2023-08-08T05:42:43.000Z</time>
      </trkpt>
      <trkpt lat="45.54983" lon="6.28569">
        <ele>523</ele>
        <time>2023-08-08T05:42:45.000Z</time>
      </trkpt>
      <trkpt lat="45.54982" lon="6.28565">
        <ele>523.79998779297</ele>
        <time>2023-08-08T05:42:49.000Z</time>
      </trkpt>
      <trkpt lat="45.54981" lon="6.28561">
        <ele>525</ele>
        <time>2023-08-08T05:42:54.000Z</time>
      </trkpt>
      <trkpt lat="45.54981" lon="6.2856">
        <ele>525.20001220703</ele>
        <time>2023-08-08T05:42:55.000Z</time>
      </trkpt>
      <trkpt lat="45.54981" lon="6.28557">
        <ele>526.20001220703</ele>
        <time>2023-08-08T05:43:00.000Z</time>
      </trkpt>
      <trkpt lat="45.54981" lon="6.28556">
        <ele>526.40002441406</ele>
        <time>2023-08-08T05:43:01.000Z</time>
      </trkpt>
      <trkpt lat="45.54981" lon="6.28553">
        <ele>527.20001220703</ele>
        <time>2023-08-08T05:43:06.000Z</time>
      </trkpt>
      <trkpt lat="45.54981" lon="6.28551">
        <ele>527.59997558594</ele>
        <time>2023-08-08T05:43:08.000Z</time>
      </trkpt>
      <trkpt lat="45.54981" lon="6.28546">
        <ele>528.20001220703</ele>
        <time>2023-08-08T05:43:12.000Z</time>
      </trkpt>
      <trkpt lat="45.54981" lon="6.28543">
        <ele>528.59997558594</ele>
        <time>2023-08-08T05:43:14.000Z</time>
      </trkpt>
      <trkpt lat="45.54982" lon="6.28539">
        <ele>529.20001220703</ele>
        <time>2023-08-08T05:43:17.000Z</time>
      </trkpt>
      <trkpt lat="45.54982" lon="6.28537">
        <ele>529.59997558594</ele>
        <time>2023-08-08T05:43:19.000Z</time>
      </trkpt>
      <trkpt lat="45.54983" lon="6.28536">
        <ele>530.40002441406</ele>
        <time>2023-08-08T05:43:22.000Z</time>
      </trkpt>
      <trkpt lat="45.54983" lon="6.28535">
        <ele>531.40002441406</ele>
        <time>2023-08-08T05:43:26.000Z</time>
      </trkpt>
      <trkpt lat="45.54983" lon="6.28535">
        <ele>531.79998779297</ele>
        <time>2023-08-08T05:43:27.000Z</time>
      </trkpt>
      <trkpt lat="45.54984" lon="6.28532">
        <ele>532.59997558594</ele>
        <time>2023-08-08T05:43:31.000Z</time>
      </trkpt>
      <trkpt lat="45.54984" lon="6.28527">
        <ele>533.59997558594</ele>
        <time>2023-08-08T05:43:36.000Z</time>
      </trkpt>
      <trkpt lat="45.54985" lon="6.28526">
        <ele>533.59997558594</ele>
        <time>2023-08-08T05:43:37.000Z</time>
      </trkpt>
      <trkpt lat="45.54986" lon="6.28515">
        <ele>534.79998779297</ele>
        <time>2023-08-08T05:43:45.000Z</time>
      </trkpt>
      <trkpt lat="45.54986" lon="6.28512">
        <ele>535.79998779297</ele>
        <time>2023-08-08T05:43:50.000Z</time>
      </trkpt>
      <trkpt lat="45.54986" lon="6.2851">
        <ele>536.20001220703</ele>
        <time>2023-08-08T05:43:52.000Z</time>
      </trkpt>
      <trkpt lat="45.54989" lon="6.28511">
        <ele>536.79998779297</ele>
        <time>2023-08-08T05:43:58.000Z</time>
      </trkpt>
      <trkpt lat="45.54994" lon="6.28506">
        <ele>537.20001220703</ele>
        <time>2023-08-08T05:44:05.000Z</time>
      </trkpt>
      <trkpt lat="45.54996" lon="6.28495">
        <ele>538</ele>
        <time>2023-08-08T05:44:11.000Z</time>
      </trkpt>
      <trkpt lat="45.54998" lon="6.28488">
        <ele>538.79998779297</ele>
        <time>2023-08-08T05:44:17.000Z</time>
      </trkpt>
      <trkpt lat="45.55001" lon="6.28484">
        <ele>539</ele>
        <time>2023-08-08T05:44:19.000Z</time>
      </trkpt>
      <trkpt lat="45.55005" lon="6.2848">
        <ele>539.59997558594</ele>
        <time>2023-08-08T05:44:23.000Z</time>
      </trkpt>
      <trkpt lat="45.5501" lon="6.28472">
        <ele>540</ele>
        <time>2023-08-08T05:44:28.000Z</time>
      </trkpt>
      <trkpt lat="45.55011" lon="6.2847">
        <ele>540</ele>
        <time>2023-08-08T05:44:29.000Z</time>
      </trkpt>
      <trkpt lat="45.55008" lon="6.28459">
        <ele>540.59997558594</ele>
        <time>2023-08-08T05:44:34.000Z</time>
      </trkpt>
      <trkpt lat="45.55007" lon="6.28458">
        <ele>540.59997558594</ele>
        <time>2023-08-08T05:44:35.000Z</time>
      </trkpt>
      <trkpt lat="45.55008" lon="6.28458">
        <ele>541</ele>
        <time>2023-08-08T05:44:39.000Z</time>
      </trkpt>
      <trkpt lat="45.55008" lon="6.2846">
        <ele>541</ele>
        <time>2023-08-08T05:44:43.000Z</time>
      </trkpt>
      <trkpt lat="45.5501" lon="6.28462">
        <ele>541</ele>
        <time>2023-08-08T05:44:52.000Z</time>
      </trkpt>
      <trkpt lat="45.55009" lon="6.28459">
        <ele>540.79998779297</ele>
        <time>2023-08-08T05:45:01.000Z</time>
      </trkpt>
      <trkpt lat="45.55005" lon="6.28459">
        <ele>540.79998779297</ele>
        <time>2023-08-08T05:45:13.000Z</time>
      </trkpt>
      <trkpt lat="45.55004" lon="6.28454">
        <ele>540.59997558594</ele>
        <time>2023-08-08T05:45:22.000Z</time>
      </trkpt>
      <trkpt lat="45.55" lon="6.28457">
        <ele>540.79998779297</ele>
        <time>2023-08-08T05:45:30.000Z</time>
      </trkpt>
      <trkpt lat="45.54994" lon="6.28457">
        <ele>541.40002441406</ele>
        <time>2023-08-08T05:45:37.000Z</time>
      </trkpt>
      <trkpt lat="45.54986" lon="6.28461">
        <ele>542.20001220703</ele>
        <time>2023-08-08T05:45:44.000Z</time>
      </trkpt>
      <trkpt lat="45.54985" lon="6.28461">
        <ele>542.20001220703</ele>
        <time>2023-08-08T05:45:45.000Z</time>
      </trkpt>
      <trkpt lat="45.54973" lon="6.28457">
        <ele>543.40002441406</ele>
        <time>2023-08-08T05:45:55.000Z</time>
      </trkpt>
      <trkpt lat="45.54968" lon="6.28456">
        <ele>543.59997558594</ele>
        <time>2023-08-08T05:45:57.000Z</time>
      </trkpt>
      <trkpt lat="45.54961" lon="6.28454">
        <ele>544.40002441406</ele>
        <time>2023-08-08T05:46:02.000Z</time>
      </trkpt>
      <trkpt lat="45.54953" lon="6.28459">
        <ele>545</ele>
        <time>2023-08-08T05:46:09.000Z</time>
      </trkpt>
      <trkpt lat="45.5495" lon="6.2846">
        <ele>545.40002441406</ele>
        <time>2023-08-08T05:46:12.000Z</time>
      </trkpt>
      <trkpt lat="45.54945" lon="6.28461">
        <ele>546</ele>
        <time>2023-08-08T05:46:16.000Z</time>
      </trkpt>
      <trkpt lat="45.5494" lon="6.28459">
        <ele>546.40002441406</ele>
        <time>2023-08-08T05:46:20.000Z</time>
      </trkpt>
      <trkpt lat="45.54938" lon="6.28456">
        <ele>546.59997558594</ele>
        <time>2023-08-08T05:46:23.000Z</time>
      </trkpt>
      <trkpt lat="45.54935" lon="6.28443">
        <ele>547.40002441406</ele>
        <time>2023-08-08T05:46:31.000Z</time>
      </trkpt>
      <trkpt lat="45.54935" lon="6.28438">
        <ele>548</ele>
        <time>2023-08-08T05:46:37.000Z</time>
      </trkpt>
      <trkpt lat="45.54939" lon="6.28432">
        <ele>548</ele>
        <time>2023-08-08T05:46:44.000Z</time>
      </trkpt>
      <trkpt lat="45.54945" lon="6.28427">
        <ele>548.59997558594</ele>
        <time>2023-08-08T05:46:50.000Z</time>
      </trkpt>
      <trkpt lat="45.54948" lon="6.28425">
        <ele>549</ele>
        <time>2023-08-08T05:46:53.000Z</time>
      </trkpt>
      <trkpt lat="45.54957" lon="6.28423">
        <ele>549.40002441406</ele>
        <time>2023-08-08T05:47:03.000Z</time>
      </trkpt>
      <trkpt lat="45.5496" lon="6.28419">
        <ele>549.59997558594</ele>
        <time>2023-08-08T05:47:07.000Z</time>
      </trkpt>
      <trkpt lat="45.54962" lon="6.28415">
        <ele>550</ele>
        <time>2023-08-08T05:47:10.000Z</time>
      </trkpt>
      <trkpt lat="45.54963" lon="6.28402">
        <ele>550.59997558594</ele>
        <time>2023-08-08T05:47:16.000Z</time>
      </trkpt>
      <trkpt lat="45.54962" lon="6.28401">
        <ele>550.79998779297</ele>
        <time>2023-08-08T05:47:17.000Z</time>
      </trkpt>
      <trkpt lat="45.54956" lon="6.28401">
        <ele>551.40002441406</ele>
        <time>2023-08-08T05:47:22.000Z</time>
      </trkpt>
      <trkpt lat="45.54951" lon="6.28405">
        <ele>551.79998779297</ele>
        <time>2023-08-08T05:47:25.000Z</time>
      </trkpt>
      <trkpt lat="45.54946" lon="6.28408">
        <ele>552.40002441406</ele>
        <time>2023-08-08T05:47:29.000Z</time>
      </trkpt>
      <trkpt lat="45.54942" lon="6.28411">
        <ele>553</ele>
        <time>2023-08-08T05:47:33.000Z</time>
      </trkpt>
      <trkpt lat="45.54936" lon="6.28415">
        <ele>553.40002441406</ele>
        <time>2023-08-08T05:47:38.000Z</time>
      </trkpt>
      <trkpt lat="45.54928" lon="6.28416">
        <ele>554</ele>
        <time>2023-08-08T05:47:44.000Z</time>
      </trkpt>
      <trkpt lat="45.54925" lon="6.28415">
        <ele>554.20001220703</ele>
        <time>2023-08-08T05:47:46.000Z</time>
      </trkpt>
      <trkpt lat="45.54916" lon="6.28408">
        <ele>555</ele>
        <time>2023-08-08T05:47:56.000Z</time>
      </trkpt>
      <trkpt lat="45.54914" lon="6.28407">
        <ele>555.20001220703</ele>
        <time>2023-08-08T05:47:57.000Z</time>
      </trkpt>
      <trkpt lat="45.54904" lon="6.28399">
        <ele>556</ele>
        <time>2023-08-08T05:48:04.000Z</time>
      </trkpt>
      <trkpt lat="45.54893" lon="6.28389">
        <ele>557.20001220703</ele>
        <time>2023-08-08T05:48:12.000Z</time>
      </trkpt>
      <trkpt lat="45.54888" lon="6.28387">
        <ele>558</ele>
        <time>2023-08-08T05:48:19.000Z</time>
      </trkpt>
      <trkpt lat="45.54886" lon="6.28386">
        <ele>558.20001220703</ele>
        <time>2023-08-08T05:48:21.000Z</time>
      </trkpt>
      <trkpt lat="45.54877" lon="6.28383">
        <ele>558.59997558594</ele>
        <time>2023-08-08T05:48:26.000Z</time>
      </trkpt>
      <trkpt lat="45.54872" lon="6.28379">
        <ele>559.20001220703</ele>
        <time>2023-08-08T05:48:31.000Z</time>
      </trkpt>
      <trkpt lat="45.54872" lon="6.28378">
        <ele>559.20001220703</ele>
        <time>2023-08-08T05:48:32.000Z</time>
      </trkpt>
      <trkpt lat="45.54871" lon="6.28378">
        <ele>559.20001220703</ele>
        <time>2023-08-08T05:48:33.000Z</time>
      </trkpt>
      <trkpt lat="45.54871" lon="6.28379">
        <ele>559.59997558594</ele>
        <time>2023-08-08T05:48:39.000Z</time>
      </trkpt>
      <trkpt lat="45.5487" lon="6.28378">
        <ele>559.59997558594</ele>
        <time>2023-08-08T05:48:46.000Z</time>
      </trkpt>
      <trkpt lat="45.54865" lon="6.28376">
        <ele>559.79998779297</ele>
        <time>2023-08-08T05:48:52.000Z</time>
      </trkpt>
      <trkpt lat="45.54866" lon="6.28375">
        <ele>560</ele>
        <time>2023-08-08T05:48:59.000Z</time>
      </trkpt>
      <trkpt lat="45.54863" lon="6.28374">
        <ele>559.79998779297</ele>
        <time>2023-08-08T05:49:06.000Z</time>
      </trkpt>
      <trkpt lat="45.54864" lon="6.28375">
        <ele>559.79998779297</ele>
        <time>2023-08-08T05:49:13.000Z</time>
      </trkpt>
      <trkpt lat="45.54865" lon="6.2837">
        <ele>559.79998779297</ele>
        <time>2023-08-08T05:49:21.000Z</time>
      </trkpt>
      <trkpt lat="45.54864" lon="6.28369">
        <ele>559.79998779297</ele>
        <time>2023-08-08T05:49:28.000Z</time>
      </trkpt>
      <trkpt lat="45.54856" lon="6.28372">
        <ele>560</ele>
        <time>2023-08-08T05:49:34.000Z</time>
      </trkpt>
      <trkpt lat="45.54853" lon="6.28371">
        <ele>560.20001220703</ele>
        <time>2023-08-08T05:49:37.000Z</time>
      </trkpt>
      <trkpt lat="45.54847" lon="6.28369">
        <ele>560.79998779297</ele>
        <time>2023-08-08T05:49:41.000Z</time>
      </trkpt>
      <trkpt lat="45.54841" lon="6.28367">
        <ele>561.40002441406</ele>
        <time>2023-08-08T05:49:45.000Z</time>
      </trkpt>
      <trkpt lat="45.54837" lon="6.28366">
        <ele>561.59997558594</ele>
        <time>2023-08-08T05:49:48.000Z</time>
      </trkpt>
      <trkpt lat="45.54831" lon="6.28363">
        <ele>562.40002441406</ele>
        <time>2023-08-08T05:49:54.000Z</time>
      </trkpt>
      <trkpt lat="45.54828" lon="6.28362">
        <ele>562.59997558594</ele>
        <time>2023-08-08T05:49:56.000Z</time>
      </trkpt>
      <trkpt lat="45.5482" lon="6.28362">
        <ele>563.59997558594</ele>
        <time>2023-08-08T05:50:02.000Z</time>
      </trkpt>
      <trkpt lat="45.54817" lon="6.28361">
        <ele>563.79998779297</ele>
        <time>2023-08-08T05:50:04.000Z</time>
      </trkpt>
      <trkpt lat="45.54811" lon="6.28358">
        <ele>564.59997558594</ele>
        <time>2023-08-08T05:50:09.000Z</time>
      </trkpt>
      <trkpt lat="45.54809" lon="6.28358">
        <ele>564.79998779297</ele>
        <time>2023-08-08T05:50:10.000Z</time>
      </trkpt>
      <trkpt lat="45.54802" lon="6.28355">
        <ele>565.59997558594</ele>
        <time>2023-08-08T05:50:17.000Z</time>
      </trkpt>
      <trkpt lat="45.54801" lon="6.28354">
        <ele>565.79998779297</ele>
        <time>2023-08-08T05:50:18.000Z</time>
      </trkpt>
      <trkpt lat="45.54794" lon="6.2835">
        <ele>566.79998779297</ele>
        <time>2023-08-08T05:50:25.000Z</time>
      </trkpt>
      <trkpt lat="45.54784" lon="6.28343">
        <ele>568</ele>
        <time>2023-08-08T05:50:32.000Z</time>
      </trkpt>
      <trkpt lat="45.5478" lon="6.28341">
        <ele>569</ele>
        <time>2023-08-08T05:50:38.000Z</time>
      </trkpt>
      <trkpt lat="45.54778" lon="6.2834">
        <ele>569.20001220703</ele>
        <time>2023-08-08T05:50:40.000Z</time>
      </trkpt>
      <trkpt lat="45.54772" lon="6.28335">
        <ele>570</ele>
        <time>2023-08-08T05:50:45.000Z</time>
      </trkpt>
      <trkpt lat="45.54771" lon="6.28333">
        <ele>570.40002441406</ele>
        <time>2023-08-08T05:50:47.000Z</time>
      </trkpt>
      <trkpt lat="45.54768" lon="6.2833">
        <ele>571</ele>
        <time>2023-08-08T05:50:52.000Z</time>
      </trkpt>
      <trkpt lat="45.54765" lon="6.28327">
        <ele>571.40002441406</ele>
        <time>2023-08-08T05:50:55.000Z</time>
      </trkpt>
      <trkpt lat="45.54763" lon="6.28324">
        <ele>572.20001220703</ele>
        <time>2023-08-08T05:51:00.000Z</time>
      </trkpt>
      <trkpt lat="45.54763" lon="6.28324">
        <ele>572.59997558594</ele>
        <time>2023-08-08T05:51:02.000Z</time>
      </trkpt>
      <trkpt lat="45.54764" lon="6.28324">
        <ele>572.79998779297</ele>
        <time>2023-08-08T05:51:06.000Z</time>
      </trkpt>
      <trkpt lat="45.54762" lon="6.28323">
        <ele>572.79998779297</ele>
        <time>2023-08-08T05:51:11.000Z</time>
      </trkpt>
      <trkpt lat="45.54761" lon="6.28325">
        <ele>572.59997558594</ele>
        <time>2023-08-08T05:51:18.000Z</time>
      </trkpt>
      <trkpt lat="45.54758" lon="6.28318">
        <ele>572.59997558594</ele>
        <time>2023-08-08T05:51:24.000Z</time>
      </trkpt>
      <trkpt lat="45.54753" lon="6.28312">
        <ele>573.20001220703</ele>
        <time>2023-08-08T05:51:29.000Z</time>
      </trkpt>
      <trkpt lat="45.54752" lon="6.28309">
        <ele>573.40002441406</ele>
        <time>2023-08-08T05:51:31.000Z</time>
      </trkpt>
      <trkpt lat="45.54748" lon="6.28303">
        <ele>574.20001220703</ele>
        <time>2023-08-08T05:51:36.000Z</time>
      </trkpt>
      <trkpt lat="45.54745" lon="6.28301">
        <ele>575</ele>
        <time>2023-08-08T05:51:40.000Z</time>
      </trkpt>
      <trkpt lat="45.54743" lon="6.28299">
        <ele>575.40002441406</ele>
        <time>2023-08-08T05:51:42.000Z</time>
      </trkpt>
      <trkpt lat="45.54737" lon="6.28294">
        <ele>576.20001220703</ele>
        <time>2023-08-08T05:51:48.000Z</time>
      </trkpt>
      <trkpt lat="45.54736" lon="6.28293">
        <ele>576.40002441406</ele>
        <time>2023-08-08T05:51:49.000Z</time>
      </trkpt>
      <trkpt lat="45.54727" lon="6.28286">
        <ele>577.40002441406</ele>
        <time>2023-08-08T05:51:55.000Z</time>
      </trkpt>
      <trkpt lat="45.54725" lon="6.28284">
        <ele>577.79998779297</ele>
        <time>2023-08-08T05:51:57.000Z</time>
      </trkpt>
      <trkpt lat="45.54721" lon="6.2828">
        <ele>578.59997558594</ele>
        <time>2023-08-08T05:52:02.000Z</time>
      </trkpt>
      <trkpt lat="45.54718" lon="6.28277">
        <ele>579</ele>
        <time>2023-08-08T05:52:05.000Z</time>
      </trkpt>
      <trkpt lat="45.54714" lon="6.28272">
        <ele>579.59997558594</ele>
        <time>2023-08-08T05:52:09.000Z</time>
      </trkpt>
      <trkpt lat="45.54712" lon="6.28268">
        <ele>580.20001220703</ele>
        <time>2023-08-08T05:52:12.000Z</time>
      </trkpt>
      <trkpt lat="45.54709" lon="6.28265">
        <ele>580.59997558594</ele>
        <time>2023-08-08T05:52:15.000Z</time>
      </trkpt>
      <trkpt lat="45.54704" lon="6.28262">
        <ele>581.79998779297</ele>
        <time>2023-08-08T05:52:21.000Z</time>
      </trkpt>
      <trkpt lat="45.54698" lon="6.28256">
        <ele>582.79998779297</ele>
        <time>2023-08-08T05:52:27.000Z</time>
      </trkpt>
      <trkpt lat="45.54693" lon="6.28252">
        <ele>583.40002441406</ele>
        <time>2023-08-08T05:52:30.000Z</time>
      </trkpt>
      <trkpt lat="45.5469" lon="6.28248">
        <ele>583.79998779297</ele>
        <time>2023-08-08T05:52:33.000Z</time>
      </trkpt>
      <trkpt lat="45.54686" lon="6.28242">
        <ele>584.79998779297</ele>
        <time>2023-08-08T05:52:38.000Z</time>
      </trkpt>
      <trkpt lat="45.54685" lon="6.28241">
        <ele>584.79998779297</ele>
        <time>2023-08-08T05:52:39.000Z</time>
      </trkpt>
      <trkpt lat="45.54682" lon="6.28237">
        <ele>585.59997558594</ele>
        <time>2023-08-08T05:52:44.000Z</time>
      </trkpt>
      <trkpt lat="45.5468" lon="6.28234">
        <ele>586</ele>
        <time>2023-08-08T05:52:46.000Z</time>
      </trkpt>
      <trkpt lat="45.54676" lon="6.28228">
        <ele>586.59997558594</ele>
        <time>2023-08-08T05:52:51.000Z</time>
      </trkpt>
      <trkpt lat="45.54674" lon="6.28224">
        <ele>587</ele>
        <time>2023-08-08T05:52:53.000Z</time>
      </trkpt>
      <trkpt lat="45.54668" lon="6.28219">
        <ele>588</ele>
        <time>2023-08-08T05:52:58.000Z</time>
      </trkpt>
      <trkpt lat="45.54668" lon="6.28219">
        <ele>588.20001220703</ele>
        <time>2023-08-08T05:52:59.000Z</time>
      </trkpt>
      <trkpt lat="45.54663" lon="6.28216">
        <ele>589</ele>
        <time>2023-08-08T05:53:04.000Z</time>
      </trkpt>
      <trkpt lat="45.54661" lon="6.28214">
        <ele>589.20001220703</ele>
        <time>2023-08-08T05:53:06.000Z</time>
      </trkpt>
      <trkpt lat="45.54657" lon="6.28211">
        <ele>590</ele>
        <time>2023-08-08T05:53:10.000Z</time>
      </trkpt>
      <trkpt lat="45.54655" lon="6.28209">
        <ele>590.40002441406</ele>
        <time>2023-08-08T05:53:12.000Z</time>
      </trkpt>
      <trkpt lat="45.54651" lon="6.28203">
        <ele>591.20001220703</ele>
        <time>2023-08-08T05:53:17.000Z</time>
      </trkpt>
      <trkpt lat="45.5465" lon="6.28202">
        <ele>591.40002441406</ele>
        <time>2023-08-08T05:53:19.000Z</time>
      </trkpt>
      <trkpt lat="45.54643" lon="6.28197">
        <ele>592.59997558594</ele>
        <time>2023-08-08T05:53:25.000Z</time>
      </trkpt>
      <trkpt lat="45.54637" lon="6.28196">
        <ele>593.59997558594</ele>
        <time>2023-08-08T05:53:31.000Z</time>
      </trkpt>
      <trkpt lat="45.54632" lon="6.28192">
        <ele>594.40002441406</ele>
        <time>2023-08-08T05:53:36.000Z</time>
      </trkpt>
      <trkpt lat="45.54631" lon="6.2819">
        <ele>594.59997558594</ele>
        <time>2023-08-08T05:53:38.000Z</time>
      </trkpt>
      <trkpt lat="45.54626" lon="6.28185">
        <ele>595.79998779297</ele>
        <time>2023-08-08T05:53:44.000Z</time>
      </trkpt>
      <trkpt lat="45.54622" lon="6.2818">
        <ele>596.79998779297</ele>
        <time>2023-08-08T05:53:50.000Z</time>
      </trkpt>
      <trkpt lat="45.5462" lon="6.28178">
        <ele>597.20001220703</ele>
        <time>2023-08-08T05:53:52.000Z</time>
      </trkpt>
      <trkpt lat="45.54616" lon="6.28172">
        <ele>597.79998779297</ele>
        <time>2023-08-08T05:53:56.000Z</time>
      </trkpt>
      <trkpt lat="45.54612" lon="6.28165">
        <ele>599</ele>
        <time>2023-08-08T05:54:02.000Z</time>
      </trkpt>
      <trkpt lat="45.54607" lon="6.28161">
        <ele>600.20001220703</ele>
        <time>2023-08-08T05:54:09.000Z</time>
      </trkpt>
      <trkpt lat="45.54602" lon="6.28157">
        <ele>601.20001220703</ele>
        <time>2023-08-08T05:54:15.000Z</time>
      </trkpt>
      <trkpt lat="45.546" lon="6.28152">
        <ele>601.59997558594</ele>
        <time>2023-08-08T05:54:18.000Z</time>
      </trkpt>
      <trkpt lat="45.54601" lon="6.28145">
        <ele>602.40002441406</ele>
        <time>2023-08-08T05:54:26.000Z</time>
      </trkpt>
      <trkpt lat="45.54603" lon="6.28147">
        <ele>602.40002441406</ele>
        <time>2023-08-08T05:54:28.000Z</time>
      </trkpt>
      <trkpt lat="45.54604" lon="6.28147">
        <ele>602.40002441406</ele>
        <time>2023-08-08T05:54:29.000Z</time>
      </trkpt>
      <trkpt lat="45.54605" lon="6.28148">
        <ele>602.40002441406</ele>
        <time>2023-08-08T05:54:32.000Z</time>
      </trkpt>
      <trkpt lat="45.54602" lon="6.28144">
        <ele>602.20001220703</ele>
        <time>2023-08-08T05:54:37.000Z</time>
      </trkpt>
      <trkpt lat="45.54605" lon="6.28144">
        <ele>602.40002441406</ele>
        <time>2023-08-08T05:54:47.000Z</time>
      </trkpt>
      <trkpt lat="45.546" lon="6.2814">
        <ele>602.40002441406</ele>
        <time>2023-08-08T05:54:52.000Z</time>
      </trkpt>
      <trkpt lat="45.54596" lon="6.28136">
        <ele>603</ele>
        <time>2023-08-08T05:54:58.000Z</time>
      </trkpt>
      <trkpt lat="45.54596" lon="6.28136">
        <ele>603.40002441406</ele>
        <time>2023-08-08T05:54:59.000Z</time>
      </trkpt>
      <trkpt lat="45.54595" lon="6.28134">
        <ele>604.40002441406</ele>
        <time>2023-08-08T05:55:03.000Z</time>
      </trkpt>
      <trkpt lat="45.54594" lon="6.28133">
        <ele>605</ele>
        <time>2023-08-08T05:55:06.000Z</time>
      </trkpt>
      <trkpt lat="45.54593" lon="6.28132">
        <ele>605.59997558594</ele>
        <time>2023-08-08T05:55:08.000Z</time>
      </trkpt>
      <trkpt lat="45.54593" lon="6.28132">
        <ele>606.59997558594</ele>
        <time>2023-08-08T05:55:12.000Z</time>
      </trkpt>
      <trkpt lat="45.54592" lon="6.2813">
        <ele>607.59997558594</ele>
        <time>2023-08-08T05:55:16.000Z</time>
      </trkpt>
      <trkpt lat="45.54591" lon="6.28129">
        <ele>607.79998779297</ele>
        <time>2023-08-08T05:55:17.000Z</time>
      </trkpt>
      <trkpt lat="45.54589" lon="6.28125">
        <ele>608.79998779297</ele>
        <time>2023-08-08T05:55:22.000Z</time>
      </trkpt>
      <trkpt lat="45.54588" lon="6.28122">
        <ele>609.79998779297</ele>
        <time>2023-08-08T05:55:25.000Z</time>
      </trkpt>
      <trkpt lat="45.54588" lon="6.28122">
        <ele>610</ele>
        <time>2023-08-08T05:55:26.000Z</time>
      </trkpt>
      <trkpt lat="45.54583" lon="6.28116">
        <ele>611</ele>
        <time>2023-08-08T05:55:31.000Z</time>
      </trkpt>
      <trkpt lat="45.54582" lon="6.28115">
        <ele>611.20001220703</ele>
        <time>2023-08-08T05:55:32.000Z</time>
      </trkpt>
      <trkpt lat="45.54578" lon="6.28113">
        <ele>612.20001220703</ele>
        <time>2023-08-08T05:55:37.000Z</time>
      </trkpt>
      <trkpt lat="45.54577" lon="6.28111">
        <ele>612.40002441406</ele>
        <time>2023-08-08T05:55:39.000Z</time>
      </trkpt>
      <trkpt lat="45.54571" lon="6.28106">
        <ele>612.40002441406</ele>
        <time>2023-08-08T05:55:47.000Z</time>
      </trkpt>
      <trkpt lat="45.54566" lon="6.281">
        <ele>612.79998779297</ele>
        <time>2023-08-08T05:55:56.000Z</time>
      </trkpt>
      <trkpt lat="45.54563" lon="6.28096">
        <ele>613.40002441406</ele>
        <time>2023-08-08T05:55:59.000Z</time>
      </trkpt>
      <trkpt lat="45.5456" lon="6.28091">
        <ele>613.59997558594</ele>
        <time>2023-08-08T05:56:02.000Z</time>
      </trkpt>
      <trkpt lat="45.54556" lon="6.28088">
        <ele>613.79998779297</ele>
        <time>2023-08-08T05:56:08.000Z</time>
      </trkpt>
      <trkpt lat="45.54552" lon="6.28084">
        <ele>614.40002441406</ele>
        <time>2023-08-08T05:56:11.000Z</time>
      </trkpt>
      <trkpt lat="45.54549" lon="6.28079">
        <ele>615.59997558594</ele>
        <time>2023-08-08T05:56:15.000Z</time>
      </trkpt>
      <trkpt lat="45.54549" lon="6.28075">
        <ele>616.59997558594</ele>
        <time>2023-08-08T05:56:19.000Z</time>
      </trkpt>
      <trkpt lat="45.54545" lon="6.28067">
        <ele>618.59997558594</ele>
        <time>2023-08-08T05:56:28.000Z</time>
      </trkpt>
      <trkpt lat="45.54544" lon="6.28066">
        <ele>618.79998779297</ele>
        <time>2023-08-08T05:56:29.000Z</time>
      </trkpt>
      <trkpt lat="45.54539" lon="6.28063">
        <ele>620</ele>
        <time>2023-08-08T05:56:34.000Z</time>
      </trkpt>
      <trkpt lat="45.54532" lon="6.2806">
        <ele>620.20001220703</ele>
        <time>2023-08-08T05:56:44.000Z</time>
      </trkpt>
      <trkpt lat="45.54526" lon="6.28057">
        <ele>620.20001220703</ele>
        <time>2023-08-08T05:56:53.000Z</time>
      </trkpt>
      <trkpt lat="45.54525" lon="6.28053">
        <ele>621.20001220703</ele>
        <time>2023-08-08T05:56:57.000Z</time>
      </trkpt>
      <trkpt lat="45.54523" lon="6.28051">
        <ele>621.79998779297</ele>
        <time>2023-08-08T05:56:59.000Z</time>
      </trkpt>
      <trkpt lat="45.54523" lon="6.2805">
        <ele>622.20001220703</ele>
        <time>2023-08-08T05:57:01.000Z</time>
      </trkpt>
      <trkpt lat="45.54519" lon="6.28047">
        <ele>622.59997558594</ele>
        <time>2023-08-08T05:57:05.000Z</time>
      </trkpt>
      <trkpt lat="45.54512" lon="6.28039">
        <ele>623</ele>
        <time>2023-08-08T05:57:14.000Z</time>
      </trkpt>
      <trkpt lat="45.54511" lon="6.28037">
        <ele>623.40002441406</ele>
        <time>2023-08-08T05:57:16.000Z</time>
      </trkpt>
      <trkpt lat="45.54506" lon="6.28032">
        <ele>624</ele>
        <time>2023-08-08T05:57:23.000Z</time>
      </trkpt>
      <trkpt lat="45.54503" lon="6.28029">
        <ele>624.40002441406</ele>
        <time>2023-08-08T05:57:26.000Z</time>
      </trkpt>
      <trkpt lat="45.54498" lon="6.28026">
        <ele>625</ele>
        <time>2023-08-08T05:57:30.000Z</time>
      </trkpt>
      <trkpt lat="45.54491" lon="6.28021">
        <ele>625</ele>
        <time>2023-08-08T05:57:37.000Z</time>
      </trkpt>
      <trkpt lat="45.54486" lon="6.28016">
        <ele>625.59997558594</ele>
        <time>2023-08-08T05:57:43.000Z</time>
      </trkpt>
      <trkpt lat="45.54475" lon="6.28005">
        <ele>625.59997558594</ele>
        <time>2023-08-08T05:57:53.000Z</time>
      </trkpt>
      <trkpt lat="45.54468" lon="6.28">
        <ele>626.59997558594</ele>
        <time>2023-08-08T05:58:00.000Z</time>
      </trkpt>
      <trkpt lat="45.54463" lon="6.27994">
        <ele>627.79998779297</ele>
        <time>2023-08-08T05:58:07.000Z</time>
      </trkpt>
      <trkpt lat="45.54461" lon="6.27992">
        <ele>628.20001220703</ele>
        <time>2023-08-08T05:58:09.000Z</time>
      </trkpt>
      <trkpt lat="45.54459" lon="6.27989">
        <ele>628.79998779297</ele>
        <time>2023-08-08T05:58:13.000Z</time>
      </trkpt>
      <trkpt lat="45.54456" lon="6.27987">
        <ele>629.40002441406</ele>
        <time>2023-08-08T05:58:16.000Z</time>
      </trkpt>
      <trkpt lat="45.54453" lon="6.27985">
        <ele>629.79998779297</ele>
        <time>2023-08-08T05:58:21.000Z</time>
      </trkpt>
      <trkpt lat="45.54449" lon="6.27981">
        <ele>630.59997558594</ele>
        <time>2023-08-08T05:58:24.000Z</time>
      </trkpt>
      <trkpt lat="45.54448" lon="6.27978">
        <ele>631</ele>
        <time>2023-08-08T05:58:26.000Z</time>
      </trkpt>
      <trkpt lat="45.54445" lon="6.27974">
        <ele>631.40002441406</ele>
        <time>2023-08-08T05:58:30.000Z</time>
      </trkpt>
      <trkpt lat="45.54441" lon="6.27967">
        <ele>632</ele>
        <time>2023-08-08T05:58:34.000Z</time>
      </trkpt>
      <trkpt lat="45.5444" lon="6.27965">
        <ele>632.40002441406</ele>
        <time>2023-08-08T05:58:36.000Z</time>
      </trkpt>
      <trkpt lat="45.54438" lon="6.27963">
        <ele>633</ele>
        <time>2023-08-08T05:58:39.000Z</time>
      </trkpt>
      <trkpt lat="45.54433" lon="6.27959">
        <ele>633.79998779297</ele>
        <time>2023-08-08T05:58:44.000Z</time>
      </trkpt>
      <trkpt lat="45.54431" lon="6.27957">
        <ele>634.20001220703</ele>
        <time>2023-08-08T05:58:46.000Z</time>
      </trkpt>
      <trkpt lat="45.54425" lon="6.2795">
        <ele>635.20001220703</ele>
        <time>2023-08-08T05:58:53.000Z</time>
      </trkpt>
      <trkpt lat="45.5442" lon="6.27941">
        <ele>636.40002441406</ele>
        <time>2023-08-08T05:59:00.000Z</time>
      </trkpt>
      <trkpt lat="45.54419" lon="6.27938">
        <ele>636.79998779297</ele>
        <time>2023-08-08T05:59:02.000Z</time>
      </trkpt>
      <trkpt lat="45.54418" lon="6.27935">
        <ele>637.40002441406</ele>
        <time>2023-08-08T05:59:05.000Z</time>
      </trkpt>
      <trkpt lat="45.54416" lon="6.27931">
        <ele>638.40002441406</ele>
        <time>2023-08-08T05:59:10.000Z</time>
      </trkpt>
      <trkpt lat="45.54415" lon="6.2793">
        <ele>639.40002441406</ele>
        <time>2023-08-08T05:59:15.000Z</time>
      </trkpt>
      <trkpt lat="45.54416" lon="6.2793">
        <ele>639.59997558594</ele>
        <time>2023-08-08T05:59:16.000Z</time>
      </trkpt>
      <trkpt lat="45.54406" lon="6.27903">
        <ele>641.59997558594</ele>
        <time>2023-08-08T05:59:34.000Z</time>
      </trkpt>
      <trkpt lat="45.54396" lon="6.27859">
        <ele>645</ele>
        <time>2023-08-08T06:00:14.000Z</time>
      </trkpt>
      <trkpt lat="45.54388" lon="6.27833">
        <ele>647.79998779297</ele>
        <time>2023-08-08T06:00:37.000Z</time>
      </trkpt>
      <trkpt lat="45.54385" lon="6.27824">
        <ele>648.20001220703</ele>
        <time>2023-08-08T06:00:41.000Z</time>
      </trkpt>
      <trkpt lat="45.5438" lon="6.27812">
        <ele>648.79998779297</ele>
        <time>2023-08-08T06:00:45.000Z</time>
      </trkpt>
      <trkpt lat="45.54376" lon="6.27807">
        <ele>649.20001220703</ele>
        <time>2023-08-08T06:00:48.000Z</time>
      </trkpt>
      <trkpt lat="45.54373" lon="6.27803">
        <ele>649.40002441406</ele>
        <time>2023-08-08T06:00:51.000Z</time>
      </trkpt>
      <trkpt lat="45.54369" lon="6.27798">
        <ele>650.20001220703</ele>
        <time>2023-08-08T06:00:55.000Z</time>
      </trkpt>
      <trkpt lat="45.54366" lon="6.27794">
        <ele>650.59997558594</ele>
        <time>2023-08-08T06:00:58.000Z</time>
      </trkpt>
      <trkpt lat="45.54362" lon="6.27789">
        <ele>651.40002441406</ele>
        <time>2023-08-08T06:01:02.000Z</time>
      </trkpt>
      <trkpt lat="45.54358" lon="6.27784">
        <ele>652.40002441406</ele>
        <time>2023-08-08T06:01:07.000Z</time>
      </trkpt>
      <trkpt lat="45.54357" lon="6.27782">
        <ele>652.40002441406</ele>
        <time>2023-08-08T06:01:08.000Z</time>
      </trkpt>
      <trkpt lat="45.54353" lon="6.27775">
        <ele>653.59997558594</ele>
        <time>2023-08-08T06:01:14.000Z</time>
      </trkpt>
      <trkpt lat="45.54352" lon="6.27774">
        <ele>653.79998779297</ele>
        <time>2023-08-08T06:01:15.000Z</time>
      </trkpt>
      <trkpt lat="45.54347" lon="6.27767">
        <ele>654.59997558594</ele>
        <time>2023-08-08T06:01:20.000Z</time>
      </trkpt>
      <trkpt lat="45.54345" lon="6.27765">
        <ele>654.79998779297</ele>
        <time>2023-08-08T06:01:22.000Z</time>
      </trkpt>
      <trkpt lat="45.54341" lon="6.27761">
        <ele>655.59997558594</ele>
        <time>2023-08-08T06:01:26.000Z</time>
      </trkpt>
      <trkpt lat="45.54338" lon="6.27759">
        <ele>655.79998779297</ele>
        <time>2023-08-08T06:01:28.000Z</time>
      </trkpt>
      <trkpt lat="45.54332" lon="6.27754">
        <ele>656.79998779297</ele>
        <time>2023-08-08T06:01:33.000Z</time>
      </trkpt>
      <trkpt lat="45.54331" lon="6.27753">
        <ele>657</ele>
        <time>2023-08-08T06:01:34.000Z</time>
      </trkpt>
      <trkpt lat="45.54326" lon="6.27739">
        <ele>658</ele>
        <time>2023-08-08T06:01:41.000Z</time>
      </trkpt>
      <trkpt lat="45.54326" lon="6.27738">
        <ele>658</ele>
        <time>2023-08-08T06:01:42.000Z</time>
      </trkpt>
      <trkpt lat="45.54324" lon="6.27736">
        <ele>659</ele>
        <time>2023-08-08T06:01:47.000Z</time>
      </trkpt>
      <trkpt lat="45.54321" lon="6.27735">
        <ele>659.59997558594</ele>
        <time>2023-08-08T06:01:50.000Z</time>
      </trkpt>
      <trkpt lat="45.54317" lon="6.27732">
        <ele>660.20001220703</ele>
        <time>2023-08-08T06:01:53.000Z</time>
      </trkpt>
      <trkpt lat="45.54316" lon="6.27731">
        <ele>661.20001220703</ele>
        <time>2023-08-08T06:01:57.000Z</time>
      </trkpt>
      <trkpt lat="45.54316" lon="6.2773">
        <ele>661.40002441406</ele>
        <time>2023-08-08T06:01:59.000Z</time>
      </trkpt>
      <trkpt lat="45.54318" lon="6.2773">
        <ele>661.40002441406</ele>
        <time>2023-08-08T06:02:05.000Z</time>
      </trkpt>
      <trkpt lat="45.54317" lon="6.27729">
        <ele>661.59997558594</ele>
        <time>2023-08-08T06:02:12.000Z</time>
      </trkpt>
      <trkpt lat="45.54308" lon="6.27726">
        <ele>662.40002441406</ele>
        <time>2023-08-08T06:02:19.000Z</time>
      </trkpt>
      <trkpt lat="45.54307" lon="6.27725">
        <ele>662.59997558594</ele>
        <time>2023-08-08T06:02:20.000Z</time>
      </trkpt>
      <trkpt lat="45.54304" lon="6.27724">
        <ele>663.40002441406</ele>
        <time>2023-08-08T06:02:25.000Z</time>
      </trkpt>
      <trkpt lat="45.54298" lon="6.27721">
        <ele>663.59997558594</ele>
        <time>2023-08-08T06:02:30.000Z</time>
      </trkpt>
      <trkpt lat="45.54297" lon="6.2772">
        <ele>663.59997558594</ele>
        <time>2023-08-08T06:02:31.000Z</time>
      </trkpt>
      <trkpt lat="45.54291" lon="6.27716">
        <ele>664.59997558594</ele>
        <time>2023-08-08T06:02:37.000Z</time>
      </trkpt>
      <trkpt lat="45.54284" lon="6.27712">
        <ele>665.79998779297</ele>
        <time>2023-08-08T06:02:43.000Z</time>
      </trkpt>
      <trkpt lat="45.54283" lon="6.27712">
        <ele>666</ele>
        <time>2023-08-08T06:02:44.000Z</time>
      </trkpt>
      <trkpt lat="45.54275" lon="6.27704">
        <ele>666.59997558594</ele>
        <time>2023-08-08T06:02:51.000Z</time>
      </trkpt>
      <trkpt lat="45.54274" lon="6.27703">
        <ele>666.79998779297</ele>
        <time>2023-08-08T06:02:52.000Z</time>
      </trkpt>
      <trkpt lat="45.5427" lon="6.27694">
        <ele>667.59997558594</ele>
        <time>2023-08-08T06:02:58.000Z</time>
      </trkpt>
      <trkpt lat="45.54267" lon="6.27687">
        <ele>668</ele>
        <time>2023-08-08T06:03:02.000Z</time>
      </trkpt>
      <trkpt lat="45.54267" lon="6.27686">
        <ele>668.20001220703</ele>
        <time>2023-08-08T06:03:04.000Z</time>
      </trkpt>
      <trkpt lat="45.5427" lon="6.27685">
        <ele>668.59997558594</ele>
        <time>2023-08-08T06:03:12.000Z</time>
      </trkpt>
      <trkpt lat="45.54274" lon="6.27687">
        <ele>668.40002441406</ele>
        <time>2023-08-08T06:03:22.000Z</time>
      </trkpt>
      <trkpt lat="45.54273" lon="6.27681">
        <ele>668.20001220703</ele>
        <time>2023-08-08T06:03:33.000Z</time>
      </trkpt>
      <trkpt lat="45.54269" lon="6.27679">
        <ele>668</ele>
        <time>2023-08-08T06:03:50.000Z</time>
      </trkpt>
      <trkpt lat="45.54265" lon="6.27672">
        <ele>668.59997558594</ele>
        <time>2023-08-08T06:03:57.000Z</time>
      </trkpt>
      <trkpt lat="45.54261" lon="6.27651">
        <ele>670</ele>
        <time>2023-08-08T06:04:09.000Z</time>
      </trkpt>
      <trkpt lat="45.54261" lon="6.27647">
        <ele>670.20001220703</ele>
        <time>2023-08-08T06:04:11.000Z</time>
      </trkpt>
      <trkpt lat="45.54253" lon="6.2761">
        <ele>673.40002441406</ele>
        <time>2023-08-08T06:04:32.000Z</time>
      </trkpt>
      <trkpt lat="45.54253" lon="6.27609">
        <ele>673.59997558594</ele>
        <time>2023-08-08T06:04:33.000Z</time>
      </trkpt>
      <trkpt lat="45.54251" lon="6.27601">
        <ele>674.59997558594</ele>
        <time>2023-08-08T06:04:39.000Z</time>
      </trkpt>
      <trkpt lat="45.54251" lon="6.27599">
        <ele>674.59997558594</ele>
        <time>2023-08-08T06:04:40.000Z</time>
      </trkpt>
      <trkpt lat="45.5425" lon="6.27591">
        <ele>675.59997558594</ele>
        <time>2023-08-08T06:04:46.000Z</time>
      </trkpt>
      <trkpt lat="45.5425" lon="6.27586">
        <ele>676</ele>
        <time>2023-08-08T06:04:49.000Z</time>
      </trkpt>
      <trkpt lat="45.5425" lon="6.27577">
        <ele>676.79998779297</ele>
        <time>2023-08-08T06:04:54.000Z</time>
      </trkpt>
      <trkpt lat="45.54251" lon="6.27564">
        <ele>677.59997558594</ele>
        <time>2023-08-08T06:04:59.000Z</time>
      </trkpt>
      <trkpt lat="45.5425" lon="6.2756">
        <ele>677.79998779297</ele>
        <time>2023-08-08T06:05:01.000Z</time>
      </trkpt>
      <trkpt lat="45.54249" lon="6.27548">
        <ele>678.79998779297</ele>
        <time>2023-08-08T06:05:07.000Z</time>
      </trkpt>
      <trkpt lat="45.54249" lon="6.27547">
        <ele>679</ele>
        <time>2023-08-08T06:05:08.000Z</time>
      </trkpt>
      <trkpt lat="45.54247" lon="6.27541">
        <ele>679.59997558594</ele>
        <time>2023-08-08T06:05:13.000Z</time>
      </trkpt>
      <trkpt lat="45.54247" lon="6.27539">
        <ele>680</ele>
        <time>2023-08-08T06:05:15.000Z</time>
      </trkpt>
      <trkpt lat="45.54246" lon="6.27533">
        <ele>680.79998779297</ele>
        <time>2023-08-08T06:05:21.000Z</time>
      </trkpt>
      <trkpt lat="45.54246" lon="6.2753">
        <ele>681.20001220703</ele>
        <time>2023-08-08T06:05:23.000Z</time>
      </trkpt>
      <trkpt lat="45.54244" lon="6.27523">
        <ele>681.79998779297</ele>
        <time>2023-08-08T06:05:28.000Z</time>
      </trkpt>
      <trkpt lat="45.54241" lon="6.27519">
        <ele>682.20001220703</ele>
        <time>2023-08-08T06:05:31.000Z</time>
      </trkpt>
      <trkpt lat="45.54236" lon="6.27511">
        <ele>683</ele>
        <time>2023-08-08T06:05:35.000Z</time>
      </trkpt>
      <trkpt lat="45.54234" lon="6.27507">
        <ele>683.40002441406</ele>
        <time>2023-08-08T06:05:37.000Z</time>
      </trkpt>
      <trkpt lat="45.54226" lon="6.27498">
        <ele>684.40002441406</ele>
        <time>2023-08-08T06:05:43.000Z</time>
      </trkpt>
      <trkpt lat="45.54221" lon="6.2749">
        <ele>685.40002441406</ele>
        <time>2023-08-08T06:05:49.000Z</time>
      </trkpt>
      <trkpt lat="45.5422" lon="6.27487">
        <ele>685.79998779297</ele>
        <time>2023-08-08T06:05:51.000Z</time>
      </trkpt>
      <trkpt lat="45.54219" lon="6.27481">
        <ele>686.59997558594</ele>
        <time>2023-08-08T06:05:55.000Z</time>
      </trkpt>
      <trkpt lat="45.54216" lon="6.27477">
        <ele>687</ele>
        <time>2023-08-08T06:05:58.000Z</time>
      </trkpt>
      <trkpt lat="45.54214" lon="6.27473">
        <ele>687.59997558594</ele>
        <time>2023-08-08T06:06:02.000Z</time>
      </trkpt>
      <trkpt lat="45.54211" lon="6.2747">
        <ele>688.20001220703</ele>
        <time>2023-08-08T06:06:05.000Z</time>
      </trkpt>
      <trkpt lat="45.54207" lon="6.27464">
        <ele>688.79998779297</ele>
        <time>2023-08-08T06:06:09.000Z</time>
      </trkpt>
      <trkpt lat="45.54203" lon="6.27459">
        <ele>689.40002441406</ele>
        <time>2023-08-08T06:06:12.000Z</time>
      </trkpt>
      <trkpt lat="45.542" lon="6.27458">
        <ele>689.79998779297</ele>
        <time>2023-08-08T06:06:15.000Z</time>
      </trkpt>
      <trkpt lat="45.54195" lon="6.27455">
        <ele>690.59997558594</ele>
        <time>2023-08-08T06:06:19.000Z</time>
      </trkpt>
      <trkpt lat="45.54192" lon="6.27453">
        <ele>690.79998779297</ele>
        <time>2023-08-08T06:06:21.000Z</time>
      </trkpt>
      <trkpt lat="45.54189" lon="6.2745">
        <ele>691.79998779297</ele>
        <time>2023-08-08T06:06:26.000Z</time>
      </trkpt>
      <trkpt lat="45.54188" lon="6.2745">
        <ele>692</ele>
        <time>2023-08-08T06:06:27.000Z</time>
      </trkpt>
      <trkpt lat="45.54181" lon="6.27447">
        <ele>693</ele>
        <time>2023-08-08T06:06:34.000Z</time>
      </trkpt>
      <trkpt lat="45.54177" lon="6.27441">
        <ele>693.59997558594</ele>
        <time>2023-08-08T06:06:39.000Z</time>
      </trkpt>
      <trkpt lat="45.54175" lon="6.27438">
        <ele>694</ele>
        <time>2023-08-08T06:06:41.000Z</time>
      </trkpt>
      <trkpt lat="45.54174" lon="6.27434">
        <ele>694.40002441406</ele>
        <time>2023-08-08T06:06:45.000Z</time>
      </trkpt>
      <trkpt lat="45.54172" lon="6.27426">
        <ele>695.20001220703</ele>
        <time>2023-08-08T06:06:50.000Z</time>
      </trkpt>
      <trkpt lat="45.54171" lon="6.27423">
        <ele>695.40002441406</ele>
        <time>2023-08-08T06:06:52.000Z</time>
      </trkpt>
      <trkpt lat="45.54168" lon="6.27416">
        <ele>696.20001220703</ele>
        <time>2023-08-08T06:06:57.000Z</time>
      </trkpt>
      <trkpt lat="45.54165" lon="6.2741">
        <ele>696.79998779297</ele>
        <time>2023-08-08T06:07:01.000Z</time>
      </trkpt>
      <trkpt lat="45.54163" lon="6.27408">
        <ele>697.40002441406</ele>
        <time>2023-08-08T06:07:04.000Z</time>
      </trkpt>
      <trkpt lat="45.54159" lon="6.27404">
        <ele>698</ele>
        <time>2023-08-08T06:07:08.000Z</time>
      </trkpt>
      <trkpt lat="45.54155" lon="6.27398">
        <ele>698.59997558594</ele>
        <time>2023-08-08T06:07:11.000Z</time>
      </trkpt>
      <trkpt lat="45.5415" lon="6.27392">
        <ele>699</ele>
        <time>2023-08-08T06:07:16.000Z</time>
      </trkpt>
      <trkpt lat="45.54147" lon="6.27389">
        <ele>699.59997558594</ele>
        <time>2023-08-08T06:07:21.000Z</time>
      </trkpt>
      <trkpt lat="45.54145" lon="6.27384">
        <ele>700.20001220703</ele>
        <time>2023-08-08T06:07:24.000Z</time>
      </trkpt>
      <trkpt lat="45.54144" lon="6.27381">
        <ele>700.79998779297</ele>
        <time>2023-08-08T06:07:27.000Z</time>
      </trkpt>
      <trkpt lat="45.54141" lon="6.27371">
        <ele>701.79998779297</ele>
        <time>2023-08-08T06:07:33.000Z</time>
      </trkpt>
      <trkpt lat="45.54137" lon="6.27361">
        <ele>702.79998779297</ele>
        <time>2023-08-08T06:07:39.000Z</time>
      </trkpt>
      <trkpt lat="45.54135" lon="6.2736">
        <ele>703.20001220703</ele>
        <time>2023-08-08T06:07:41.000Z</time>
      </trkpt>
      <trkpt lat="45.54131" lon="6.27359">
        <ele>704</ele>
        <time>2023-08-08T06:07:45.000Z</time>
      </trkpt>
      <trkpt lat="45.54129" lon="6.27359">
        <ele>704.40002441406</ele>
        <time>2023-08-08T06:07:48.000Z</time>
      </trkpt>
      <trkpt lat="45.54124" lon="6.27357">
        <ele>705</ele>
        <time>2023-08-08T06:07:52.000Z</time>
      </trkpt>
      <trkpt lat="45.5412" lon="6.27357">
        <ele>705.79998779297</ele>
        <time>2023-08-08T06:07:57.000Z</time>
      </trkpt>
      <trkpt lat="45.54117" lon="6.27356">
        <ele>706.20001220703</ele>
        <time>2023-08-08T06:07:58.000Z</time>
      </trkpt>
      <trkpt lat="45.54108" lon="6.27357">
        <ele>707</ele>
        <time>2023-08-08T06:08:05.000Z</time>
      </trkpt>
      <trkpt lat="45.54106" lon="6.27357">
        <ele>707.20001220703</ele>
        <time>2023-08-08T06:08:06.000Z</time>
      </trkpt>
      <trkpt lat="45.54099" lon="6.27357">
        <ele>707.79998779297</ele>
        <time>2023-08-08T06:08:11.000Z</time>
      </trkpt>
      <trkpt lat="45.54096" lon="6.27356">
        <ele>708.20001220703</ele>
        <time>2023-08-08T06:08:14.000Z</time>
      </trkpt>
      <trkpt lat="45.54091" lon="6.27354">
        <ele>708.59997558594</ele>
        <time>2023-08-08T06:08:18.000Z</time>
      </trkpt>
      <trkpt lat="45.54084" lon="6.27351">
        <ele>709.40002441406</ele>
        <time>2023-08-08T06:08:23.000Z</time>
      </trkpt>
      <trkpt lat="45.54079" lon="6.27348">
        <ele>709.79998779297</ele>
        <time>2023-08-08T06:08:27.000Z</time>
      </trkpt>
      <trkpt lat="45.54074" lon="6.27343">
        <ele>710.59997558594</ele>
        <time>2023-08-08T06:08:32.000Z</time>
      </trkpt>
      <trkpt lat="45.5407" lon="6.27341">
        <ele>711</ele>
        <time>2023-08-08T06:08:36.000Z</time>
      </trkpt>
      <trkpt lat="45.54066" lon="6.27339">
        <ele>711.59997558594</ele>
        <time>2023-08-08T06:08:40.000Z</time>
      </trkpt>
      <trkpt lat="45.54064" lon="6.27338">
        <ele>711.79998779297</ele>
        <time>2023-08-08T06:08:42.000Z</time>
      </trkpt>
      <trkpt lat="45.54055" lon="6.27333">
        <ele>712.79998779297</ele>
        <time>2023-08-08T06:08:50.000Z</time>
      </trkpt>
      <trkpt lat="45.54052" lon="6.2733">
        <ele>713</ele>
        <time>2023-08-08T06:08:52.000Z</time>
      </trkpt>
      <trkpt lat="45.54049" lon="6.27326">
        <ele>713.59997558594</ele>
        <time>2023-08-08T06:08:58.000Z</time>
      </trkpt>
      <trkpt lat="45.5405" lon="6.2733">
        <ele>713.59997558594</ele>
        <time>2023-08-08T06:08:59.000Z</time>
      </trkpt>
      <trkpt lat="45.54045" lon="6.2732">
        <ele>713.59997558594</ele>
        <time>2023-08-08T06:09:02.000Z</time>
      </trkpt>
      <trkpt lat="45.54045" lon="6.2732">
        <ele>713.59997558594</ele>
        <time>2023-08-08T06:09:04.000Z</time>
      </trkpt>
      <trkpt lat="45.54044" lon="6.27319">
        <ele>713.40002441406</ele>
        <time>2023-08-08T06:09:06.000Z</time>
      </trkpt>
      <trkpt lat="45.54039" lon="6.27315">
        <ele>713.79998779297</ele>
        <time>2023-08-08T06:09:14.000Z</time>
      </trkpt>
      <trkpt lat="45.54039" lon="6.27313">
        <ele>714</ele>
        <time>2023-08-08T06:09:15.000Z</time>
      </trkpt>
      <trkpt lat="45.54034" lon="6.2731">
        <ele>714.59997558594</ele>
        <time>2023-08-08T06:09:21.000Z</time>
      </trkpt>
      <trkpt lat="45.54031" lon="6.27304">
        <ele>714.79998779297</ele>
        <time>2023-08-08T06:09:24.000Z</time>
      </trkpt>
      <trkpt lat="45.54027" lon="6.27299">
        <ele>715.40002441406</ele>
        <time>2023-08-08T06:09:28.000Z</time>
      </trkpt>
      <trkpt lat="45.54026" lon="6.2729">
        <ele>716</ele>
        <time>2023-08-08T06:09:33.000Z</time>
      </trkpt>
      <trkpt lat="45.54025" lon="6.27286">
        <ele>716.20001220703</ele>
        <time>2023-08-08T06:09:35.000Z</time>
      </trkpt>
      <trkpt lat="45.54023" lon="6.27275">
        <ele>717</ele>
        <time>2023-08-08T06:09:41.000Z</time>
      </trkpt>
      <trkpt lat="45.54022" lon="6.27271">
        <ele>717.20001220703</ele>
        <time>2023-08-08T06:09:43.000Z</time>
      </trkpt>
      <trkpt lat="45.5402" lon="6.27265">
        <ele>718</ele>
        <time>2023-08-08T06:09:49.000Z</time>
      </trkpt>
      <trkpt lat="45.54015" lon="6.27252">
        <ele>719</ele>
        <time>2023-08-08T06:09:57.000Z</time>
      </trkpt>
      <trkpt lat="45.54015" lon="6.2725">
        <ele>719.20001220703</ele>
        <time>2023-08-08T06:09:58.000Z</time>
      </trkpt>
      <trkpt lat="45.5401" lon="6.27237">
        <ele>720.20001220703</ele>
        <time>2023-08-08T06:10:06.000Z</time>
      </trkpt>
      <trkpt lat="45.54006" lon="6.27227">
        <ele>721.20001220703</ele>
        <time>2023-08-08T06:10:13.000Z</time>
      </trkpt>
      <trkpt lat="45.54005" lon="6.27226">
        <ele>721.20001220703</ele>
        <time>2023-08-08T06:10:14.000Z</time>
      </trkpt>
      <trkpt lat="45.53999" lon="6.27212">
        <ele>722.20001220703</ele>
        <time>2023-08-08T06:10:21.000Z</time>
      </trkpt>
      <trkpt lat="45.53998" lon="6.27209">
        <ele>722.40002441406</ele>
        <time>2023-08-08T06:10:23.000Z</time>
      </trkpt>
      <trkpt lat="45.53994" lon="6.27202">
        <ele>723</ele>
        <time>2023-08-08T06:10:28.000Z</time>
      </trkpt>
      <trkpt lat="45.53991" lon="6.27198">
        <ele>723.40002441406</ele>
        <time>2023-08-08T06:10:30.000Z</time>
      </trkpt>
      <trkpt lat="45.53987" lon="6.27191">
        <ele>724.20001220703</ele>
        <time>2023-08-08T06:10:36.000Z</time>
      </trkpt>
      <trkpt lat="45.53985" lon="6.27187">
        <ele>724.59997558594</ele>
        <time>2023-08-08T06:10:39.000Z</time>
      </trkpt>
      <trkpt lat="45.53983" lon="6.2718">
        <ele>725.20001220703</ele>
        <time>2023-08-08T06:10:44.000Z</time>
      </trkpt>
      <trkpt lat="45.53981" lon="6.27176">
        <ele>725.59997558594</ele>
        <time>2023-08-08T06:10:47.000Z</time>
      </trkpt>
      <trkpt lat="45.53977" lon="6.27172">
        <ele>726.20001220703</ele>
        <time>2023-08-08T06:10:52.000Z</time>
      </trkpt>
      <trkpt lat="45.53975" lon="6.27168">
        <ele>726.59997558594</ele>
        <time>2023-08-08T06:10:55.000Z</time>
      </trkpt>
      <trkpt lat="45.5397" lon="6.2716">
        <ele>727.40002441406</ele>
        <time>2023-08-08T06:11:00.000Z</time>
      </trkpt>
      <trkpt lat="45.53967" lon="6.27155">
        <ele>727.79998779297</ele>
        <time>2023-08-08T06:11:03.000Z</time>
      </trkpt>
      <trkpt lat="45.53962" lon="6.27148">
        <ele>728.59997558594</ele>
        <time>2023-08-08T06:11:09.000Z</time>
      </trkpt>
      <trkpt lat="45.53959" lon="6.27145">
        <ele>728.79998779297</ele>
        <time>2023-08-08T06:11:11.000Z</time>
      </trkpt>
      <trkpt lat="45.53954" lon="6.27137">
        <ele>729.59997558594</ele>
        <time>2023-08-08T06:11:16.000Z</time>
      </trkpt>
      <trkpt lat="45.53953" lon="6.27134">
        <ele>730</ele>
        <time>2023-08-08T06:11:19.000Z</time>
      </trkpt>
      <trkpt lat="45.53953" lon="6.27132">
        <ele>730.20001220703</ele>
        <time>2023-08-08T06:11:22.000Z</time>
      </trkpt>
      <trkpt lat="45.53956" lon="6.27122">
        <ele>731</ele>
        <time>2023-08-08T06:11:27.000Z</time>
      </trkpt>
      <trkpt lat="45.53959" lon="6.27122">
        <ele>731.40002441406</ele>
        <time>2023-08-08T06:11:29.000Z</time>
      </trkpt>
      <trkpt lat="45.53962" lon="6.27123">
        <ele>731.79998779297</ele>
        <time>2023-08-08T06:11:32.000Z</time>
      </trkpt>
      <trkpt lat="45.53963" lon="6.27124">
        <ele>732</ele>
        <time>2023-08-08T06:11:33.000Z</time>
      </trkpt>
      <trkpt lat="45.53972" lon="6.27133">
        <ele>732.79998779297</ele>
        <time>2023-08-08T06:11:40.000Z</time>
      </trkpt>
      <trkpt lat="45.53973" lon="6.27134">
        <ele>733</ele>
        <time>2023-08-08T06:11:42.000Z</time>
      </trkpt>
      <trkpt lat="45.53978" lon="6.27142">
        <ele>733.59997558594</ele>
        <time>2023-08-08T06:11:48.000Z</time>
      </trkpt>
      <trkpt lat="45.53981" lon="6.27146">
        <ele>734</ele>
        <time>2023-08-08T06:11:51.000Z</time>
      </trkpt>
      <trkpt lat="45.53988" lon="6.27151">
        <ele>735</ele>
        <time>2023-08-08T06:11:58.000Z</time>
      </trkpt>
      <trkpt lat="45.53989" lon="6.27151">
        <ele>735</ele>
        <time>2023-08-08T06:11:59.000Z</time>
      </trkpt>
      <trkpt lat="45.53999" lon="6.27154">
        <ele>735.79998779297</ele>
        <time>2023-08-08T06:12:05.000Z</time>
      </trkpt>
      <trkpt lat="45.54002" lon="6.27156">
        <ele>736.20001220703</ele>
        <time>2023-08-08T06:12:08.000Z</time>
      </trkpt>
      <trkpt lat="45.54004" lon="6.27159">
        <ele>736.79998779297</ele>
        <time>2023-08-08T06:12:13.000Z</time>
      </trkpt>
      <trkpt lat="45.54007" lon="6.27162">
        <ele>737.20001220703</ele>
        <time>2023-08-08T06:12:16.000Z</time>
      </trkpt>
      <trkpt lat="45.54012" lon="6.27165">
        <ele>737.79998779297</ele>
        <time>2023-08-08T06:12:20.000Z</time>
      </trkpt>
      <trkpt lat="45.54015" lon="6.27166">
        <ele>738.20001220703</ele>
        <time>2023-08-08T06:12:23.000Z</time>
      </trkpt>
      <trkpt lat="45.5402" lon="6.27168">
        <ele>738.59997558594</ele>
        <time>2023-08-08T06:12:28.000Z</time>
      </trkpt>
      <trkpt lat="45.54028" lon="6.2717">
        <ele>739.40002441406</ele>
        <time>2023-08-08T06:12:33.000Z</time>
      </trkpt>
      <trkpt lat="45.54031" lon="6.27169">
        <ele>739.79998779297</ele>
        <time>2023-08-08T06:12:36.000Z</time>
      </trkpt>
      <trkpt lat="45.54036" lon="6.27171">
        <ele>740.40002441406</ele>
        <time>2023-08-08T06:12:41.000Z</time>
      </trkpt>
      <trkpt lat="45.5404" lon="6.27173">
        <ele>740.79998779297</ele>
        <time>2023-08-08T06:12:44.000Z</time>
      </trkpt>
      <trkpt lat="45.54044" lon="6.27178">
        <ele>741.59997558594</ele>
        <time>2023-08-08T06:12:49.000Z</time>
      </trkpt>
      <trkpt lat="45.54048" lon="6.2718">
        <ele>741.79998779297</ele>
        <time>2023-08-08T06:12:52.000Z</time>
      </trkpt>
      <trkpt lat="45.54054" lon="6.27185">
        <ele>742.59997558594</ele>
        <time>2023-08-08T06:12:56.000Z</time>
      </trkpt>
      <trkpt lat="45.54057" lon="6.27187">
        <ele>743</ele>
        <time>2023-08-08T06:12:58.000Z</time>
      </trkpt>
      <trkpt lat="45.54063" lon="6.27191">
        <ele>743.59997558594</ele>
        <time>2023-08-08T06:13:03.000Z</time>
      </trkpt>
      <trkpt lat="45.54065" lon="6.27193">
        <ele>744.20001220703</ele>
        <time>2023-08-08T06:13:06.000Z</time>
      </trkpt>
      <trkpt lat="45.54071" lon="6.27194">
        <ele>744.79998779297</ele>
        <time>2023-08-08T06:13:11.000Z</time>
      </trkpt>
      <trkpt lat="45.54075" lon="6.27195">
        <ele>745.20001220703</ele>
        <time>2023-08-08T06:13:14.000Z</time>
      </trkpt>
      <trkpt lat="45.54079" lon="6.27198">
        <ele>745.79998779297</ele>
        <time>2023-08-08T06:13:18.000Z</time>
      </trkpt>
      <trkpt lat="45.54082" lon="6.27201">
        <ele>746.20001220703</ele>
        <time>2023-08-08T06:13:21.000Z</time>
      </trkpt>
      <trkpt lat="45.54089" lon="6.2721">
        <ele>746.79998779297</ele>
        <time>2023-08-08T06:13:27.000Z</time>
      </trkpt>
      <trkpt lat="45.54091" lon="6.2721">
        <ele>747</ele>
        <time>2023-08-08T06:13:28.000Z</time>
      </trkpt>
      <trkpt lat="45.54096" lon="6.27214">
        <ele>748</ele>
        <time>2023-08-08T06:13:34.000Z</time>
      </trkpt>
      <trkpt lat="45.54097" lon="6.27215">
        <ele>748</ele>
        <time>2023-08-08T06:13:35.000Z</time>
      </trkpt>
      <trkpt lat="45.54102" lon="6.2722">
        <ele>749</ele>
        <time>2023-08-08T06:13:41.000Z</time>
      </trkpt>
      <trkpt lat="45.54107" lon="6.27225">
        <ele>749.40002441406</ele>
        <time>2023-08-08T06:13:44.000Z</time>
      </trkpt>
      <trkpt lat="45.54112" lon="6.27227">
        <ele>750.20001220703</ele>
        <time>2023-08-08T06:13:49.000Z</time>
      </trkpt>
      <trkpt lat="45.54116" lon="6.27229">
        <ele>750.59997558594</ele>
        <time>2023-08-08T06:13:52.000Z</time>
      </trkpt>
      <trkpt lat="45.5412" lon="6.27229">
        <ele>751.20001220703</ele>
        <time>2023-08-08T06:13:56.000Z</time>
      </trkpt>
      <trkpt lat="45.54126" lon="6.27228">
        <ele>751.59997558594</ele>
        <time>2023-08-08T06:14:00.000Z</time>
      </trkpt>
      <trkpt lat="45.54132" lon="6.27228">
        <ele>752.20001220703</ele>
        <time>2023-08-08T06:14:04.000Z</time>
      </trkpt>
      <trkpt lat="45.54138" lon="6.27229">
        <ele>752.59997558594</ele>
        <time>2023-08-08T06:14:08.000Z</time>
      </trkpt>
      <trkpt lat="45.54145" lon="6.27231">
        <ele>753.20001220703</ele>
        <time>2023-08-08T06:14:13.000Z</time>
      </trkpt>
      <trkpt lat="45.54149" lon="6.27233">
        <ele>753.79998779297</ele>
        <time>2023-08-08T06:14:17.000Z</time>
      </trkpt>
      <trkpt lat="45.54152" lon="6.27234">
        <ele>754.20001220703</ele>
        <time>2023-08-08T06:14:20.000Z</time>
      </trkpt>
      <trkpt lat="45.54157" lon="6.27237">
        <ele>754.79998779297</ele>
        <time>2023-08-08T06:14:25.000Z</time>
      </trkpt>
      <trkpt lat="45.54161" lon="6.2724">
        <ele>755.40002441406</ele>
        <time>2023-08-08T06:14:28.000Z</time>
      </trkpt>
      <trkpt lat="45.54167" lon="6.27243">
        <ele>756</ele>
        <time>2023-08-08T06:14:33.000Z</time>
      </trkpt>
      <trkpt lat="45.54173" lon="6.27245">
        <ele>756.40002441406</ele>
        <time>2023-08-08T06:14:37.000Z</time>
      </trkpt>
      <trkpt lat="45.54177" lon="6.27245">
        <ele>756.79998779297</ele>
        <time>2023-08-08T06:14:40.000Z</time>
      </trkpt>
      <trkpt lat="45.54183" lon="6.27247">
        <ele>757.59997558594</ele>
        <time>2023-08-08T06:14:46.000Z</time>
      </trkpt>
      <trkpt lat="45.54185" lon="6.27248">
        <ele>757.79998779297</ele>
        <time>2023-08-08T06:14:49.000Z</time>
      </trkpt>
      <trkpt lat="45.54193" lon="6.27251">
        <ele>758.59997558594</ele>
        <time>2023-08-08T06:14:56.000Z</time>
      </trkpt>
      <trkpt lat="45.54195" lon="6.27252">
        <ele>758.79998779297</ele>
        <time>2023-08-08T06:14:57.000Z</time>
      </trkpt>
      <trkpt lat="45.54208" lon="6.27258">
        <ele>759.79998779297</ele>
        <time>2023-08-08T06:15:06.000Z</time>
      </trkpt>
      <trkpt lat="45.54216" lon="6.27256">
        <ele>760.79998779297</ele>
        <time>2023-08-08T06:15:12.000Z</time>
      </trkpt>
      <trkpt lat="45.54218" lon="6.27256">
        <ele>761</ele>
        <time>2023-08-08T06:15:13.000Z</time>
      </trkpt>
      <trkpt lat="45.54222" lon="6.27254">
        <ele>761.59997558594</ele>
        <time>2023-08-08T06:15:19.000Z</time>
      </trkpt>
      <trkpt lat="45.54222" lon="6.27252">
        <ele>761.79998779297</ele>
        <time>2023-08-08T06:15:24.000Z</time>
      </trkpt>
      <trkpt lat="45.54219" lon="6.2725">
        <ele>761.59997558594</ele>
        <time>2023-08-08T06:15:26.000Z</time>
      </trkpt>
      <trkpt lat="45.54212" lon="6.27245">
        <ele>761.59997558594</ele>
        <time>2023-08-08T06:15:32.000Z</time>
      </trkpt>
      <trkpt lat="45.54207" lon="6.27244">
        <ele>762</ele>
        <time>2023-08-08T06:15:35.000Z</time>
      </trkpt>
      <trkpt lat="45.54203" lon="6.27244">
        <ele>762.59997558594</ele>
        <time>2023-08-08T06:15:39.000Z</time>
      </trkpt>
      <trkpt lat="45.54199" lon="6.27243">
        <ele>763</ele>
        <time>2023-08-08T06:15:42.000Z</time>
      </trkpt>
      <trkpt lat="45.54192" lon="6.2724">
        <ele>763.79998779297</ele>
        <time>2023-08-08T06:15:49.000Z</time>
      </trkpt>
      <trkpt lat="45.54188" lon="6.27237">
        <ele>764.20001220703</ele>
        <time>2023-08-08T06:15:52.000Z</time>
      </trkpt>
      <trkpt lat="45.54183" lon="6.27232">
        <ele>764.59997558594</ele>
        <time>2023-08-08T06:15:56.000Z</time>
      </trkpt>
      <trkpt lat="45.54178" lon="6.27226">
        <ele>765.20001220703</ele>
        <time>2023-08-08T06:16:00.000Z</time>
      </trkpt>
      <trkpt lat="45.54174" lon="6.2722">
        <ele>765.59997558594</ele>
        <time>2023-08-08T06:16:04.000Z</time>
      </trkpt>
      <trkpt lat="45.54169" lon="6.27209">
        <ele>766.20001220703</ele>
        <time>2023-08-08T06:16:09.000Z</time>
      </trkpt>
      <trkpt lat="45.54168" lon="6.27207">
        <ele>766.40002441406</ele>
        <time>2023-08-08T06:16:10.000Z</time>
      </trkpt>
      <trkpt lat="45.54162" lon="6.27194">
        <ele>767.20001220703</ele>
        <time>2023-08-08T06:16:16.000Z</time>
      </trkpt>
      <trkpt lat="45.54158" lon="6.27189">
        <ele>767.79998779297</ele>
        <time>2023-08-08T06:16:22.000Z</time>
      </trkpt>
      <trkpt lat="45.54156" lon="6.27185">
        <ele>768.40002441406</ele>
        <time>2023-08-08T06:16:25.000Z</time>
      </trkpt>
      <trkpt lat="45.54153" lon="6.27179">
        <ele>769</ele>
        <time>2023-08-08T06:16:30.000Z</time>
      </trkpt>
      <trkpt lat="45.54152" lon="6.27172">
        <ele>769.40002441406</ele>
        <time>2023-08-08T06:16:34.000Z</time>
      </trkpt>
      <trkpt lat="45.54152" lon="6.27165">
        <ele>769.79998779297</ele>
        <time>2023-08-08T06:16:37.000Z</time>
      </trkpt>
      <trkpt lat="45.54155" lon="6.27164">
        <ele>770.20001220703</ele>
        <time>2023-08-08T06:16:40.000Z</time>
      </trkpt>
      <trkpt lat="45.54156" lon="6.27164">
        <ele>770.40002441406</ele>
        <time>2023-08-08T06:16:41.000Z</time>
      </trkpt>
      <trkpt lat="45.54158" lon="6.27164">
        <ele>770.59997558594</ele>
        <time>2023-08-08T06:16:42.000Z</time>
      </trkpt>
      <trkpt lat="45.54166" lon="6.27168">
        <ele>771.40002441406</ele>
        <time>2023-08-08T06:16:48.000Z</time>
      </trkpt>
      <trkpt lat="45.54173" lon="6.27169">
        <ele>771.79998779297</ele>
        <time>2023-08-08T06:16:55.000Z</time>
      </trkpt>
      <trkpt lat="45.54174" lon="6.27166">
        <ele>771.79998779297</ele>
        <time>2023-08-08T06:16:59.000Z</time>
      </trkpt>
      <trkpt lat="45.54176" lon="6.27168">
        <ele>771.79998779297</ele>
        <time>2023-08-08T06:17:05.000Z</time>
      </trkpt>
      <trkpt lat="45.54175" lon="6.27173">
        <ele>771.59997558594</ele>
        <time>2023-08-08T06:17:13.000Z</time>
      </trkpt>
      <trkpt lat="45.5418" lon="6.27173">
        <ele>771.59997558594</ele>
        <time>2023-08-08T06:17:23.000Z</time>
      </trkpt>
      <trkpt lat="45.54189" lon="6.27178">
        <ele>772</ele>
        <time>2023-08-08T06:17:31.000Z</time>
      </trkpt>
      <trkpt lat="45.54199" lon="6.27191">
        <ele>773.20001220703</ele>
        <time>2023-08-08T06:17:41.000Z</time>
      </trkpt>
      <trkpt lat="45.54204" lon="6.27192">
        <ele>773.20001220703</ele>
        <time>2023-08-08T06:17:46.000Z</time>
      </trkpt>
      <trkpt lat="45.54206" lon="6.27189">
        <ele>773.40002441406</ele>
        <time>2023-08-08T06:17:48.000Z</time>
      </trkpt>
      <trkpt lat="45.5421" lon="6.27186">
        <ele>773.79998779297</ele>
        <time>2023-08-08T06:17:51.000Z</time>
      </trkpt>
      <trkpt lat="45.54216" lon="6.2718">
        <ele>774.20001220703</ele>
        <time>2023-08-08T06:17:55.000Z</time>
      </trkpt>
      <trkpt lat="45.54221" lon="6.27177">
        <ele>775</ele>
        <time>2023-08-08T06:17:59.000Z</time>
      </trkpt>
      <trkpt lat="45.54227" lon="6.27176">
        <ele>775.79998779297</ele>
        <time>2023-08-08T06:18:04.000Z</time>
      </trkpt>
      <trkpt lat="45.54231" lon="6.27175">
        <ele>776.20001220703</ele>
        <time>2023-08-08T06:18:06.000Z</time>
      </trkpt>
      <trkpt lat="45.54239" lon="6.27174">
        <ele>777.40002441406</ele>
        <time>2023-08-08T06:18:12.000Z</time>
      </trkpt>
      <trkpt lat="45.54243" lon="6.27173">
        <ele>778.40002441406</ele>
        <time>2023-08-08T06:18:18.000Z</time>
      </trkpt>
      <trkpt lat="45.54243" lon="6.27173">
        <ele>778.59997558594</ele>
        <time>2023-08-08T06:18:19.000Z</time>
      </trkpt>
      <trkpt lat="45.54245" lon="6.27171">
        <ele>779.40002441406</ele>
        <time>2023-08-08T06:18:24.000Z</time>
      </trkpt>
      <trkpt lat="45.54246" lon="6.27169">
        <ele>779.79998779297</ele>
        <time>2023-08-08T06:18:25.000Z</time>
      </trkpt>
      <trkpt lat="45.54249" lon="6.27165">
        <ele>780.59997558594</ele>
        <time>2023-08-08T06:18:30.000Z</time>
      </trkpt>
      <trkpt lat="45.5425" lon="6.27163">
        <ele>781</ele>
        <time>2023-08-08T06:18:32.000Z</time>
      </trkpt>
      <trkpt lat="45.54253" lon="6.27161">
        <ele>781.79998779297</ele>
        <time>2023-08-08T06:18:36.000Z</time>
      </trkpt>
      <trkpt lat="45.54257" lon="6.27159">
        <ele>782.40002441406</ele>
        <time>2023-08-08T06:18:40.000Z</time>
      </trkpt>
      <trkpt lat="45.54258" lon="6.27159">
        <ele>783</ele>
        <time>2023-08-08T06:18:42.000Z</time>
      </trkpt>
      <trkpt lat="45.54264" lon="6.27157">
        <ele>783.79998779297</ele>
        <time>2023-08-08T06:18:47.000Z</time>
      </trkpt>
      <trkpt lat="45.54265" lon="6.27157">
        <ele>784.20001220703</ele>
        <time>2023-08-08T06:18:48.000Z</time>
      </trkpt>
      <trkpt lat="45.54267" lon="6.27155">
        <ele>785.20001220703</ele>
        <time>2023-08-08T06:18:54.000Z</time>
      </trkpt>
      <trkpt lat="45.54268" lon="6.27155">
        <ele>785.40002441406</ele>
        <time>2023-08-08T06:18:55.000Z</time>
      </trkpt>
      <trkpt lat="45.54272" lon="6.27152">
        <ele>786.40002441406</ele>
        <time>2023-08-08T06:19:00.000Z</time>
      </trkpt>
      <trkpt lat="45.54274" lon="6.27152">
        <ele>786.79998779297</ele>
        <time>2023-08-08T06:19:03.000Z</time>
      </trkpt>
      <trkpt lat="45.54276" lon="6.27151">
        <ele>787.40002441406</ele>
        <time>2023-08-08T06:19:06.000Z</time>
      </trkpt>
      <trkpt lat="45.54279" lon="6.27147">
        <ele>788.40002441406</ele>
        <time>2023-08-08T06:19:11.000Z</time>
      </trkpt>
      <trkpt lat="45.5428" lon="6.27147">
        <ele>788.59997558594</ele>
        <time>2023-08-08T06:19:12.000Z</time>
      </trkpt>
      <trkpt lat="45.54282" lon="6.27143">
        <ele>789.59997558594</ele>
        <time>2023-08-08T06:19:17.000Z</time>
      </trkpt>
      <trkpt lat="45.54283" lon="6.27142">
        <ele>789.79998779297</ele>
        <time>2023-08-08T06:19:19.000Z</time>
      </trkpt>
      <trkpt lat="45.54286" lon="6.27139">
        <ele>790.59997558594</ele>
        <time>2023-08-08T06:19:23.000Z</time>
      </trkpt>
      <trkpt lat="45.54288" lon="6.27137">
        <ele>791.20001220703</ele>
        <time>2023-08-08T06:19:27.000Z</time>
      </trkpt>
      <trkpt lat="45.54289" lon="6.27136">
        <ele>791.59997558594</ele>
        <time>2023-08-08T06:19:29.000Z</time>
      </trkpt>
      <trkpt lat="45.54289" lon="6.27135">
        <ele>792.40002441406</ele>
        <time>2023-08-08T06:19:33.000Z</time>
      </trkpt>
      <trkpt lat="45.5429" lon="6.27134">
        <ele>792.79998779297</ele>
        <time>2023-08-08T06:19:35.000Z</time>
      </trkpt>
      <trkpt lat="45.54292" lon="6.27132">
        <ele>793.59997558594</ele>
        <time>2023-08-08T06:19:40.000Z</time>
      </trkpt>
      <trkpt lat="45.54294" lon="6.27131">
        <ele>794</ele>
        <time>2023-08-08T06:19:42.000Z</time>
      </trkpt>
      <trkpt lat="45.54297" lon="6.27128">
        <ele>795</ele>
        <time>2023-08-08T06:19:47.000Z</time>
      </trkpt>
      <trkpt lat="45.54297" lon="6.27128">
        <ele>795</ele>
        <time>2023-08-08T06:19:48.000Z</time>
      </trkpt>
      <trkpt lat="45.54301" lon="6.27122">
        <ele>796.20001220703</ele>
        <time>2023-08-08T06:19:54.000Z</time>
      </trkpt>
      <trkpt lat="45.54303" lon="6.27118">
        <ele>797.40002441406</ele>
        <time>2023-08-08T06:20:01.000Z</time>
      </trkpt>
      <trkpt lat="45.54304" lon="6.27118">
        <ele>797.59997558594</ele>
        <time>2023-08-08T06:20:03.000Z</time>
      </trkpt>
      <trkpt lat="45.54306" lon="6.27117">
        <ele>798.40002441406</ele>
        <time>2023-08-08T06:20:07.000Z</time>
      </trkpt>
      <trkpt lat="45.54307" lon="6.27116">
        <ele>799.20001220703</ele>
        <time>2023-08-08T06:20:11.000Z</time>
      </trkpt>
      <trkpt lat="45.54308" lon="6.27115">
        <ele>799.59997558594</ele>
        <time>2023-08-08T06:20:14.000Z</time>
      </trkpt>
      <trkpt lat="45.54312" lon="6.27113">
        <ele>800.59997558594</ele>
        <time>2023-08-08T06:20:19.000Z</time>
      </trkpt>
      <trkpt lat="45.54313" lon="6.27113">
        <ele>800.59997558594</ele>
        <time>2023-08-08T06:20:20.000Z</time>
      </trkpt>
      <trkpt lat="45.54315" lon="6.27112">
        <ele>801.59997558594</ele>
        <time>2023-08-08T06:20:25.000Z</time>
      </trkpt>
      <trkpt lat="45.54317" lon="6.27112">
        <ele>802</ele>
        <time>2023-08-08T06:20:27.000Z</time>
      </trkpt>
      <trkpt lat="45.54319" lon="6.2711">
        <ele>802.79998779297</ele>
        <time>2023-08-08T06:20:31.000Z</time>
      </trkpt>
      <trkpt lat="45.54321" lon="6.27109">
        <ele>803.20001220703</ele>
        <time>2023-08-08T06:20:33.000Z</time>
      </trkpt>
      <trkpt lat="45.54323" lon="6.27105">
        <ele>803.79998779297</ele>
        <time>2023-08-08T06:20:37.000Z</time>
      </trkpt>
      <trkpt lat="45.54325" lon="6.271">
        <ele>804.59997558594</ele>
        <time>2023-08-08T06:20:41.000Z</time>
      </trkpt>
      <trkpt lat="45.54326" lon="6.27097">
        <ele>805</ele>
        <time>2023-08-08T06:20:43.000Z</time>
      </trkpt>
      <trkpt lat="45.54325" lon="6.27094">
        <ele>806</ele>
        <time>2023-08-08T06:20:48.000Z</time>
      </trkpt>
      <trkpt lat="45.54326" lon="6.27092">
        <ele>806</ele>
        <time>2023-08-08T06:20:57.000Z</time>
      </trkpt>
      <trkpt lat="45.5433" lon="6.2709">
        <ele>806</ele>
        <time>2023-08-08T06:21:04.000Z</time>
      </trkpt>
      <trkpt lat="45.5433" lon="6.27089">
        <ele>806</ele>
        <time>2023-08-08T06:21:06.000Z</time>
      </trkpt>
      <trkpt lat="45.54329" lon="6.2709">
        <ele>807.20001220703</ele>
        <time>2023-08-08T06:21:12.000Z</time>
      </trkpt>
      <trkpt lat="45.5433" lon="6.2709">
        <ele>807.79998779297</ele>
        <time>2023-08-08T06:21:15.000Z</time>
      </trkpt>
      <trkpt lat="45.54331" lon="6.2709">
        <ele>808.20001220703</ele>
        <time>2023-08-08T06:21:17.000Z</time>
      </trkpt>
      <trkpt lat="45.54334" lon="6.27088">
        <ele>809.20001220703</ele>
        <time>2023-08-08T06:21:22.000Z</time>
      </trkpt>
      <trkpt lat="45.54334" lon="6.27088">
        <ele>809.40002441406</ele>
        <time>2023-08-08T06:21:23.000Z</time>
      </trkpt>
      <trkpt lat="45.54337" lon="6.27085">
        <ele>810.40002441406</ele>
        <time>2023-08-08T06:21:27.000Z</time>
      </trkpt>
      <trkpt lat="45.54336" lon="6.27085">
        <ele>810.79998779297</ele>
        <time>2023-08-08T06:21:30.000Z</time>
      </trkpt>
      <trkpt lat="45.54337" lon="6.27085">
        <ele>811.40002441406</ele>
        <time>2023-08-08T06:21:32.000Z</time>
      </trkpt>
      <trkpt lat="45.54338" lon="6.27085">
        <ele>812.20001220703</ele>
        <time>2023-08-08T06:21:36.000Z</time>
      </trkpt>
      <trkpt lat="45.54339" lon="6.27085">
        <ele>812.59997558594</ele>
        <time>2023-08-08T06:21:37.000Z</time>
      </trkpt>
      <trkpt lat="45.54341" lon="6.27088">
        <ele>813.59997558594</ele>
        <time>2023-08-08T06:21:42.000Z</time>
      </trkpt>
      <trkpt lat="45.5434" lon="6.27089">
        <ele>813.79998779297</ele>
        <time>2023-08-08T06:21:43.000Z</time>
      </trkpt>
      <trkpt lat="45.54342" lon="6.27084">
        <ele>814.79998779297</ele>
        <time>2023-08-08T06:21:48.000Z</time>
      </trkpt>
      <trkpt lat="45.54344" lon="6.27082">
        <ele>815.59997558594</ele>
        <time>2023-08-08T06:21:52.000Z</time>
      </trkpt>
      <trkpt lat="45.54346" lon="6.27081">
        <ele>816</ele>
        <time>2023-08-08T06:21:54.000Z</time>
      </trkpt>
      <trkpt lat="45.54348" lon="6.27081">
        <ele>817</ele>
        <time>2023-08-08T06:21:59.000Z</time>
      </trkpt>
      <trkpt lat="45.54351" lon="6.27079">
        <ele>818.20001220703</ele>
        <time>2023-08-08T06:22:04.000Z</time>
      </trkpt>
      <trkpt lat="45.5435" lon="6.27083">
        <ele>818.40002441406</ele>
        <time>2023-08-08T06:22:05.000Z</time>
      </trkpt>
      <trkpt lat="45.54354" lon="6.27077">
        <ele>819.40002441406</ele>
        <time>2023-08-08T06:22:09.000Z</time>
      </trkpt>
      <trkpt lat="45.54356" lon="6.27073">
        <ele>820.40002441406</ele>
        <time>2023-08-08T06:22:13.000Z</time>
      </trkpt>
      <trkpt lat="45.54357" lon="6.27073">
        <ele>820.59997558594</ele>
        <time>2023-08-08T06:22:14.000Z</time>
      </trkpt>
      <trkpt lat="45.54364" lon="6.2707">
        <ele>821.79998779297</ele>
        <time>2023-08-08T06:22:20.000Z</time>
      </trkpt>
      <trkpt lat="45.54366" lon="6.27064">
        <ele>823</ele>
        <time>2023-08-08T06:22:27.000Z</time>
      </trkpt>
      <trkpt lat="45.54366" lon="6.27063">
        <ele>823.20001220703</ele>
        <time>2023-08-08T06:22:28.000Z</time>
      </trkpt>
      <trkpt lat="45.54368" lon="6.27059">
        <ele>824.20001220703</ele>
        <time>2023-08-08T06:22:32.000Z</time>
      </trkpt>
      <trkpt lat="45.54369" lon="6.27054">
        <ele>824.40002441406</ele>
        <time>2023-08-08T06:22:35.000Z</time>
      </trkpt>
      <trkpt lat="45.54371" lon="6.27052">
        <ele>824.79998779297</ele>
        <time>2023-08-08T06:22:42.000Z</time>
      </trkpt>
      <trkpt lat="45.54371" lon="6.27053">
        <ele>824.59997558594</ele>
        <time>2023-08-08T06:22:52.000Z</time>
      </trkpt>
      <trkpt lat="45.54368" lon="6.27053">
        <ele>824.40002441406</ele>
        <time>2023-08-08T06:22:59.000Z</time>
      </trkpt>
      <trkpt lat="45.54367" lon="6.27047">
        <ele>824.79998779297</ele>
        <time>2023-08-08T06:23:06.000Z</time>
      </trkpt>
      <trkpt lat="45.54366" lon="6.27035">
        <ele>825.40002441406</ele>
        <time>2023-08-08T06:23:11.000Z</time>
      </trkpt>
      <trkpt lat="45.54365" lon="6.27033">
        <ele>825.40002441406</ele>
        <time>2023-08-08T06:23:12.000Z</time>
      </trkpt>
      <trkpt lat="45.54364" lon="6.27022">
        <ele>826</ele>
        <time>2023-08-08T06:23:18.000Z</time>
      </trkpt>
      <trkpt lat="45.54364" lon="6.27018">
        <ele>826.40002441406</ele>
        <time>2023-08-08T06:23:20.000Z</time>
      </trkpt>
      <trkpt lat="45.54363" lon="6.27012">
        <ele>827</ele>
        <time>2023-08-08T06:23:25.000Z</time>
      </trkpt>
      <trkpt lat="45.54359" lon="6.27012">
        <ele>827.40002441406</ele>
        <time>2023-08-08T06:23:29.000Z</time>
      </trkpt>
      <trkpt lat="45.54358" lon="6.27014">
        <ele>827.79998779297</ele>
        <time>2023-08-08T06:23:31.000Z</time>
      </trkpt>
      <trkpt lat="45.54357" lon="6.27017">
        <ele>828.40002441406</ele>
        <time>2023-08-08T06:23:33.000Z</time>
      </trkpt>
      <trkpt lat="45.54357" lon="6.27018">
        <ele>828.59997558594</ele>
        <time>2023-08-08T06:23:34.000Z</time>
      </trkpt>
      <trkpt lat="45.54356" lon="6.27022">
        <ele>829</ele>
        <time>2023-08-08T06:23:37.000Z</time>
      </trkpt>
      <trkpt lat="45.54351" lon="6.27031">
        <ele>829.59997558594</ele>
        <time>2023-08-08T06:23:43.000Z</time>
      </trkpt>
      <trkpt lat="45.54345" lon="6.27033">
        <ele>830.20001220703</ele>
        <time>2023-08-08T06:23:50.000Z</time>
      </trkpt>
      <trkpt lat="45.54345" lon="6.27033">
        <ele>830.40002441406</ele>
        <time>2023-08-08T06:23:59.000Z</time>
      </trkpt>
      <trkpt lat="45.54342" lon="6.27033">
        <ele>830</ele>
        <time>2023-08-08T06:24:08.000Z</time>
      </trkpt>
      <trkpt lat="45.54335" lon="6.27026">
        <ele>830</ele>
        <time>2023-08-08T06:24:16.000Z</time>
      </trkpt>
      <trkpt lat="45.54334" lon="6.27021">
        <ele>830.59997558594</ele>
        <time>2023-08-08T06:24:22.000Z</time>
      </trkpt>
      <trkpt lat="45.54333" lon="6.2702">
        <ele>830.79998779297</ele>
        <time>2023-08-08T06:24:23.000Z</time>
      </trkpt>
      <trkpt lat="45.54331" lon="6.27013">
        <ele>831.79998779297</ele>
        <time>2023-08-08T06:24:30.000Z</time>
      </trkpt>
      <trkpt lat="45.54328" lon="6.27007">
        <ele>833</ele>
        <time>2023-08-08T06:24:36.000Z</time>
      </trkpt>
      <trkpt lat="45.54322" lon="6.27003">
        <ele>834.20001220703</ele>
        <time>2023-08-08T06:24:42.000Z</time>
      </trkpt>
      <trkpt lat="45.5432" lon="6.27001">
        <ele>834.59997558594</ele>
        <time>2023-08-08T06:24:45.000Z</time>
      </trkpt>
      <trkpt lat="45.54319" lon="6.27">
        <ele>835.40002441406</ele>
        <time>2023-08-08T06:24:49.000Z</time>
      </trkpt>
      <trkpt lat="45.54318" lon="6.26998">
        <ele>835.79998779297</ele>
        <time>2023-08-08T06:24:52.000Z</time>
      </trkpt>
      <trkpt lat="45.54315" lon="6.26994">
        <ele>836.40002441406</ele>
        <time>2023-08-08T06:24:56.000Z</time>
      </trkpt>
      <trkpt lat="45.54313" lon="6.2699">
        <ele>837</ele>
        <time>2023-08-08T06:24:59.000Z</time>
      </trkpt>
      <trkpt lat="45.54311" lon="6.26987">
        <ele>837.40002441406</ele>
        <time>2023-08-08T06:25:03.000Z</time>
      </trkpt>
      <trkpt lat="45.54309" lon="6.26984">
        <ele>838</ele>
        <time>2023-08-08T06:25:07.000Z</time>
      </trkpt>
      <trkpt lat="45.54306" lon="6.26982">
        <ele>838.59997558594</ele>
        <time>2023-08-08T06:25:10.000Z</time>
      </trkpt>
      <trkpt lat="45.54302" lon="6.26979">
        <ele>839.40002441406</ele>
        <time>2023-08-08T06:25:15.000Z</time>
      </trkpt>
      <trkpt lat="45.543" lon="6.26977">
        <ele>839.59997558594</ele>
        <time>2023-08-08T06:25:17.000Z</time>
      </trkpt>
      <trkpt lat="45.54297" lon="6.26974">
        <ele>840.59997558594</ele>
        <time>2023-08-08T06:25:22.000Z</time>
      </trkpt>
      <trkpt lat="45.54297" lon="6.26974">
        <ele>840.59997558594</ele>
        <time>2023-08-08T06:25:23.000Z</time>
      </trkpt>
      <trkpt lat="45.54293" lon="6.26971">
        <ele>841.79998779297</ele>
        <time>2023-08-08T06:25:29.000Z</time>
      </trkpt>
      <trkpt lat="45.5429" lon="6.26964">
        <ele>842.79998779297</ele>
        <time>2023-08-08T06:25:36.000Z</time>
      </trkpt>
      <trkpt lat="45.54289" lon="6.26961">
        <ele>843.40002441406</ele>
        <time>2023-08-08T06:25:39.000Z</time>
      </trkpt>
      <trkpt lat="45.54288" lon="6.26957">
        <ele>844</ele>
        <time>2023-08-08T06:25:42.000Z</time>
      </trkpt>
      <trkpt lat="45.54285" lon="6.26951">
        <ele>845</ele>
        <time>2023-08-08T06:25:49.000Z</time>
      </trkpt>
      <trkpt lat="45.54282" lon="6.26948">
        <ele>846</ele>
        <time>2023-08-08T06:25:56.000Z</time>
      </trkpt>
      <trkpt lat="45.54278" lon="6.26946">
        <ele>847</ele>
        <time>2023-08-08T06:26:01.000Z</time>
      </trkpt>
      <trkpt lat="45.54277" lon="6.26945">
        <ele>847.20001220703</ele>
        <time>2023-08-08T06:26:02.000Z</time>
      </trkpt>
      <trkpt lat="45.54272" lon="6.26939">
        <ele>848.20001220703</ele>
        <time>2023-08-08T06:26:08.000Z</time>
      </trkpt>
      <trkpt lat="45.54266" lon="6.26932">
        <ele>849.20001220703</ele>
        <time>2023-08-08T06:26:15.000Z</time>
      </trkpt>
      <trkpt lat="45.54265" lon="6.2693">
        <ele>849.59997558594</ele>
        <time>2023-08-08T06:26:17.000Z</time>
      </trkpt>
      <trkpt lat="45.54263" lon="6.26927">
        <ele>850.40002441406</ele>
        <time>2023-08-08T06:26:22.000Z</time>
      </trkpt>
      <trkpt lat="45.54262" lon="6.26926">
        <ele>850.79998779297</ele>
        <time>2023-08-08T06:26:24.000Z</time>
      </trkpt>
      <trkpt lat="45.5426" lon="6.26923">
        <ele>851.59997558594</ele>
        <time>2023-08-08T06:26:29.000Z</time>
      </trkpt>
      <trkpt lat="45.54257" lon="6.2692">
        <ele>852.40002441406</ele>
        <time>2023-08-08T06:26:33.000Z</time>
      </trkpt>
      <trkpt lat="45.54257" lon="6.2692">
        <ele>852.79998779297</ele>
        <time>2023-08-08T06:26:35.000Z</time>
      </trkpt>
      <trkpt lat="45.54255" lon="6.26917">
        <ele>853.59997558594</ele>
        <time>2023-08-08T06:26:40.000Z</time>
      </trkpt>
      <trkpt lat="45.54255" lon="6.26917">
        <ele>853.79998779297</ele>
        <time>2023-08-08T06:26:41.000Z</time>
      </trkpt>
      <trkpt lat="45.54252" lon="6.26911">
        <ele>854.79998779297</ele>
        <time>2023-08-08T06:26:47.000Z</time>
      </trkpt>
      <trkpt lat="45.54251" lon="6.2691">
        <ele>855</ele>
        <time>2023-08-08T06:26:48.000Z</time>
      </trkpt>
      <trkpt lat="45.54248" lon="6.26908">
        <ele>856</ele>
        <time>2023-08-08T06:26:54.000Z</time>
      </trkpt>
      <trkpt lat="45.54246" lon="6.26908">
        <ele>857</ele>
        <time>2023-08-08T06:27:00.000Z</time>
      </trkpt>
      <trkpt lat="45.54245" lon="6.26906">
        <ele>857.59997558594</ele>
        <time>2023-08-08T06:27:03.000Z</time>
      </trkpt>
      <trkpt lat="45.54244" lon="6.26904">
        <ele>858.20001220703</ele>
        <time>2023-08-08T06:27:06.000Z</time>
      </trkpt>
      <trkpt lat="45.54242" lon="6.26898">
        <ele>859</ele>
        <time>2023-08-08T06:27:11.000Z</time>
      </trkpt>
      <trkpt lat="45.54242" lon="6.26897">
        <ele>859.20001220703</ele>
        <time>2023-08-08T06:27:12.000Z</time>
      </trkpt>
      <trkpt lat="45.54239" lon="6.26892">
        <ele>860.20001220703</ele>
        <time>2023-08-08T06:27:18.000Z</time>
      </trkpt>
      <trkpt lat="45.54237" lon="6.26891">
        <ele>860.79998779297</ele>
        <time>2023-08-08T06:27:21.000Z</time>
      </trkpt>
      <trkpt lat="45.54236" lon="6.26889">
        <ele>861.40002441406</ele>
        <time>2023-08-08T06:27:24.000Z</time>
      </trkpt>
      <trkpt lat="45.54234" lon="6.26886">
        <ele>862.40002441406</ele>
        <time>2023-08-08T06:27:30.000Z</time>
      </trkpt>
      <trkpt lat="45.54232" lon="6.26882">
        <ele>863.59997558594</ele>
        <time>2023-08-08T06:27:36.000Z</time>
      </trkpt>
      <trkpt lat="45.54232" lon="6.26882">
        <ele>863.79998779297</ele>
        <time>2023-08-08T06:27:37.000Z</time>
      </trkpt>
      <trkpt lat="45.54233" lon="6.26879">
        <ele>864.59997558594</ele>
        <time>2023-08-08T06:27:42.000Z</time>
      </trkpt>
      <trkpt lat="45.54233" lon="6.26875">
        <ele>865.40002441406</ele>
        <time>2023-08-08T06:27:45.000Z</time>
      </trkpt>
      <trkpt lat="45.54232" lon="6.26873">
        <ele>865.79998779297</ele>
        <time>2023-08-08T06:27:48.000Z</time>
      </trkpt>
      <trkpt lat="45.54231" lon="6.2687">
        <ele>866.40002441406</ele>
        <time>2023-08-08T06:27:51.000Z</time>
      </trkpt>
      <trkpt lat="45.5423" lon="6.26868">
        <ele>867</ele>
        <time>2023-08-08T06:27:54.000Z</time>
      </trkpt>
      <trkpt lat="45.54226" lon="6.26866">
        <ele>868</ele>
        <time>2023-08-08T06:27:59.000Z</time>
      </trkpt>
      <trkpt lat="45.54221" lon="6.26866">
        <ele>869</ele>
        <time>2023-08-08T06:28:05.000Z</time>
      </trkpt>
      <trkpt lat="45.5422" lon="6.26865">
        <ele>869.40002441406</ele>
        <time>2023-08-08T06:28:07.000Z</time>
      </trkpt>
      <trkpt lat="45.54218" lon="6.26864">
        <ele>870.20001220703</ele>
        <time>2023-08-08T06:28:11.000Z</time>
      </trkpt>
      <trkpt lat="45.54217" lon="6.26861">
        <ele>870.79998779297</ele>
        <time>2023-08-08T06:28:15.000Z</time>
      </trkpt>
      <trkpt lat="45.54216" lon="6.2686">
        <ele>871.40002441406</ele>
        <time>2023-08-08T06:28:18.000Z</time>
      </trkpt>
      <trkpt lat="45.54214" lon="6.26855">
        <ele>872.40002441406</ele>
        <time>2023-08-08T06:28:24.000Z</time>
      </trkpt>
      <trkpt lat="45.54213" lon="6.26854">
        <ele>872.59997558594</ele>
        <time>2023-08-08T06:28:25.000Z</time>
      </trkpt>
      <trkpt lat="45.54212" lon="6.26851">
        <ele>873.59997558594</ele>
        <time>2023-08-08T06:28:31.000Z</time>
      </trkpt>
      <trkpt lat="45.54212" lon="6.2685">
        <ele>873.79998779297</ele>
        <time>2023-08-08T06:28:32.000Z</time>
      </trkpt>
      <trkpt lat="45.5421" lon="6.26848">
        <ele>874.79998779297</ele>
        <time>2023-08-08T06:28:37.000Z</time>
      </trkpt>
      <trkpt lat="45.54209" lon="6.26848">
        <ele>875</ele>
        <time>2023-08-08T06:28:39.000Z</time>
      </trkpt>
      <trkpt lat="45.54207" lon="6.26846">
        <ele>875.79998779297</ele>
        <time>2023-08-08T06:28:43.000Z</time>
      </trkpt>
      <trkpt lat="45.54206" lon="6.26843">
        <ele>876.59997558594</ele>
        <time>2023-08-08T06:28:48.000Z</time>
      </trkpt>
      <trkpt lat="45.54206" lon="6.26842">
        <ele>877</ele>
        <time>2023-08-08T06:28:49.000Z</time>
      </trkpt>
      <trkpt lat="45.54204" lon="6.26839">
        <ele>878</ele>
        <time>2023-08-08T06:28:55.000Z</time>
      </trkpt>
      <trkpt lat="45.54204" lon="6.26838">
        <ele>878.20001220703</ele>
        <time>2023-08-08T06:28:56.000Z</time>
      </trkpt>
      <trkpt lat="45.54202" lon="6.26834">
        <ele>879.20001220703</ele>
        <time>2023-08-08T06:29:01.000Z</time>
      </trkpt>
      <trkpt lat="45.54201" lon="6.26833">
        <ele>879.79998779297</ele>
        <time>2023-08-08T06:29:04.000Z</time>
      </trkpt>
      <trkpt lat="45.542" lon="6.26832">
        <ele>880.20001220703</ele>
        <time>2023-08-08T06:29:07.000Z</time>
      </trkpt>
      <trkpt lat="45.54198" lon="6.2683">
        <ele>881.40002441406</ele>
        <time>2023-08-08T06:29:12.000Z</time>
      </trkpt>
      <trkpt lat="45.54197" lon="6.2683">
        <ele>881.59997558594</ele>
        <time>2023-08-08T06:29:13.000Z</time>
      </trkpt>
      <trkpt lat="45.54195" lon="6.26829">
        <ele>882.40002441406</ele>
        <time>2023-08-08T06:29:18.000Z</time>
      </trkpt>
      <trkpt lat="45.54194" lon="6.26829">
        <ele>882.79998779297</ele>
        <time>2023-08-08T06:29:20.000Z</time>
      </trkpt>
      <trkpt lat="45.54191" lon="6.26827">
        <ele>883.59997558594</ele>
        <time>2023-08-08T06:29:24.000Z</time>
      </trkpt>
      <trkpt lat="45.54187" lon="6.26825">
        <ele>884.59997558594</ele>
        <time>2023-08-08T06:29:29.000Z</time>
      </trkpt>
      <trkpt lat="45.54186" lon="6.26819">
        <ele>885.79998779297</ele>
        <time>2023-08-08T06:29:35.000Z</time>
      </trkpt>
      <trkpt lat="45.54186" lon="6.26816">
        <ele>886.20001220703</ele>
        <time>2023-08-08T06:29:37.000Z</time>
      </trkpt>
      <trkpt lat="45.54185" lon="6.26812">
        <ele>886.79998779297</ele>
        <time>2023-08-08T06:29:40.000Z</time>
      </trkpt>
      <trkpt lat="45.54184" lon="6.2681">
        <ele>887.59997558594</ele>
        <time>2023-08-08T06:29:45.000Z</time>
      </trkpt>
      <trkpt lat="45.54184" lon="6.2681">
        <ele>888</ele>
        <time>2023-08-08T06:29:46.000Z</time>
      </trkpt>
      <trkpt lat="45.54181" lon="6.2681">
        <ele>889</ele>
        <time>2023-08-08T06:29:51.000Z</time>
      </trkpt>
      <trkpt lat="45.54179" lon="6.26811">
        <ele>889.59997558594</ele>
        <time>2023-08-08T06:29:55.000Z</time>
      </trkpt>
      <trkpt lat="45.54178" lon="6.2681">
        <ele>890</ele>
        <time>2023-08-08T06:29:57.000Z</time>
      </trkpt>
      <trkpt lat="45.54172" lon="6.26808">
        <ele>891</ele>
        <time>2023-08-08T06:30:03.000Z</time>
      </trkpt>
      <trkpt lat="45.54172" lon="6.26808">
        <ele>891.20001220703</ele>
        <time>2023-08-08T06:30:04.000Z</time>
      </trkpt>
      <trkpt lat="45.5417" lon="6.26804">
        <ele>892.20001220703</ele>
        <time>2023-08-08T06:30:09.000Z</time>
      </trkpt>
      <trkpt lat="45.54169" lon="6.26803">
        <ele>892.59997558594</ele>
        <time>2023-08-08T06:30:11.000Z</time>
      </trkpt>
      <trkpt lat="45.54167" lon="6.26802">
        <ele>893.40002441406</ele>
        <time>2023-08-08T06:30:15.000Z</time>
      </trkpt>
      <trkpt lat="45.54166" lon="6.26801">
        <ele>893.79998779297</ele>
        <time>2023-08-08T06:30:18.000Z</time>
      </trkpt>
      <trkpt lat="45.54166" lon="6.26798">
        <ele>894.40002441406</ele>
        <time>2023-08-08T06:30:21.000Z</time>
      </trkpt>
      <trkpt lat="45.54164" lon="6.26797">
        <ele>895.20001220703</ele>
        <time>2023-08-08T06:30:26.000Z</time>
      </trkpt>
      <trkpt lat="45.54163" lon="6.26796">
        <ele>895.40002441406</ele>
        <time>2023-08-08T06:30:27.000Z</time>
      </trkpt>
      <trkpt lat="45.5416" lon="6.26793">
        <ele>896.59997558594</ele>
        <time>2023-08-08T06:30:32.000Z</time>
      </trkpt>
      <trkpt lat="45.54158" lon="6.26788">
        <ele>897.59997558594</ele>
        <time>2023-08-08T06:30:38.000Z</time>
      </trkpt>
      <trkpt lat="45.54158" lon="6.26787">
        <ele>898</ele>
        <time>2023-08-08T06:30:40.000Z</time>
      </trkpt>
      <trkpt lat="45.54157" lon="6.26786">
        <ele>898.79998779297</ele>
        <time>2023-08-08T06:30:43.000Z</time>
      </trkpt>
      <trkpt lat="45.54155" lon="6.26787">
        <ele>899.40002441406</ele>
        <time>2023-08-08T06:30:46.000Z</time>
      </trkpt>
      <trkpt lat="45.54154" lon="6.26786">
        <ele>899.79998779297</ele>
        <time>2023-08-08T06:30:48.000Z</time>
      </trkpt>
      <trkpt lat="45.54152" lon="6.26783">
        <ele>900.79998779297</ele>
        <time>2023-08-08T06:30:53.000Z</time>
      </trkpt>
      <trkpt lat="45.54152" lon="6.26782">
        <ele>901</ele>
        <time>2023-08-08T06:30:54.000Z</time>
      </trkpt>
      <trkpt lat="45.54151" lon="6.26782">
        <ele>901.79998779297</ele>
        <time>2023-08-08T06:30:58.000Z</time>
      </trkpt>
      <trkpt lat="45.54148" lon="6.26781">
        <ele>902.59997558594</ele>
        <time>2023-08-08T06:31:02.000Z</time>
      </trkpt>
      <trkpt lat="45.54148" lon="6.2678">
        <ele>903</ele>
        <time>2023-08-08T06:31:04.000Z</time>
      </trkpt>
      <trkpt lat="45.54144" lon="6.26776">
        <ele>904.20001220703</ele>
        <time>2023-08-08T06:31:10.000Z</time>
      </trkpt>
      <trkpt lat="45.54141" lon="6.26772">
        <ele>905.40002441406</ele>
        <time>2023-08-08T06:31:16.000Z</time>
      </trkpt>
      <trkpt lat="45.5414" lon="6.26771">
        <ele>905.79998779297</ele>
        <time>2023-08-08T06:31:17.000Z</time>
      </trkpt>
      <trkpt lat="45.54138" lon="6.26771">
        <ele>906.40002441406</ele>
        <time>2023-08-08T06:31:22.000Z</time>
      </trkpt>
      <trkpt lat="45.54136" lon="6.26768">
        <ele>907.40002441406</ele>
        <time>2023-08-08T06:31:26.000Z</time>
      </trkpt>
      <trkpt lat="45.54135" lon="6.26767">
        <ele>907.59997558594</ele>
        <time>2023-08-08T06:31:27.000Z</time>
      </trkpt>
      <trkpt lat="45.54134" lon="6.26762">
        <ele>908.59997558594</ele>
        <time>2023-08-08T06:31:32.000Z</time>
      </trkpt>
      <trkpt lat="45.54134" lon="6.2676">
        <ele>909.20001220703</ele>
        <time>2023-08-08T06:31:35.000Z</time>
      </trkpt>
      <trkpt lat="45.54134" lon="6.26759">
        <ele>909.59997558594</ele>
        <time>2023-08-08T06:31:37.000Z</time>
      </trkpt>
      <trkpt lat="45.54134" lon="6.26758">
        <ele>910.79998779297</ele>
        <time>2023-08-08T06:31:42.000Z</time>
      </trkpt>
      <trkpt lat="45.54134" lon="6.26757">
        <ele>911</ele>
        <time>2023-08-08T06:31:43.000Z</time>
      </trkpt>
      <trkpt lat="45.54133" lon="6.26754">
        <ele>912</ele>
        <time>2023-08-08T06:31:48.000Z</time>
      </trkpt>
      <trkpt lat="45.54131" lon="6.26751">
        <ele>912.59997558594</ele>
        <time>2023-08-08T06:31:52.000Z</time>
      </trkpt>
      <trkpt lat="45.5413" lon="6.2675">
        <ele>913</ele>
        <time>2023-08-08T06:31:54.000Z</time>
      </trkpt>
      <trkpt lat="45.54127" lon="6.26749">
        <ele>914</ele>
        <time>2023-08-08T06:31:59.000Z</time>
      </trkpt>
      <trkpt lat="45.54126" lon="6.26748">
        <ele>914.20001220703</ele>
        <time>2023-08-08T06:32:00.000Z</time>
      </trkpt>
      <trkpt lat="45.54122" lon="6.26745">
        <ele>915.20001220703</ele>
        <time>2023-08-08T06:32:06.000Z</time>
      </trkpt>
      <trkpt lat="45.5412" lon="6.26743">
        <ele>915.59997558594</ele>
        <time>2023-08-08T06:32:08.000Z</time>
      </trkpt>
      <trkpt lat="45.54116" lon="6.26738">
        <ele>916.20001220703</ele>
        <time>2023-08-08T06:32:12.000Z</time>
      </trkpt>
      <trkpt lat="45.54115" lon="6.26736">
        <ele>916.59997558594</ele>
        <time>2023-08-08T06:32:14.000Z</time>
      </trkpt>
      <trkpt lat="45.54115" lon="6.26732">
        <ele>917.40002441406</ele>
        <time>2023-08-08T06:32:19.000Z</time>
      </trkpt>
      <trkpt lat="45.54115" lon="6.26731">
        <ele>917.59997558594</ele>
        <time>2023-08-08T06:32:20.000Z</time>
      </trkpt>
      <trkpt lat="45.54114" lon="6.2673">
        <ele>918.40002441406</ele>
        <time>2023-08-08T06:32:28.000Z</time>
      </trkpt>
      <trkpt lat="45.54112" lon="6.26733">
        <ele>918.40002441406</ele>
        <time>2023-08-08T06:32:39.000Z</time>
      </trkpt>
      <trkpt lat="45.54111" lon="6.26733">
        <ele>918.40002441406</ele>
        <time>2023-08-08T06:32:43.000Z</time>
      </trkpt>
      <trkpt lat="45.54112" lon="6.26733">
        <ele>918.40002441406</ele>
        <time>2023-08-08T06:32:47.000Z</time>
      </trkpt>
      <trkpt lat="45.54113" lon="6.2673">
        <ele>918.59997558594</ele>
        <time>2023-08-08T06:32:52.000Z</time>
      </trkpt>
      <trkpt lat="45.54112" lon="6.26726">
        <ele>918.79998779297</ele>
        <time>2023-08-08T06:32:59.000Z</time>
      </trkpt>
      <trkpt lat="45.54113" lon="6.26727">
        <ele>918.79998779297</ele>
        <time>2023-08-08T06:33:09.000Z</time>
      </trkpt>
      <trkpt lat="45.54112" lon="6.26727">
        <ele>918.79998779297</ele>
        <time>2023-08-08T06:33:18.000Z</time>
      </trkpt>
      <trkpt lat="45.54109" lon="6.26724">
        <ele>919.40002441406</ele>
        <time>2023-08-08T06:33:27.000Z</time>
      </trkpt>
      <trkpt lat="45.54108" lon="6.26723">
        <ele>919.59997558594</ele>
        <time>2023-08-08T06:33:28.000Z</time>
      </trkpt>
      <trkpt lat="45.54105" lon="6.26719">
        <ele>920.79998779297</ele>
        <time>2023-08-08T06:33:33.000Z</time>
      </trkpt>
      <trkpt lat="45.54104" lon="6.26715">
        <ele>921.59997558594</ele>
        <time>2023-08-08T06:33:37.000Z</time>
      </trkpt>
      <trkpt lat="45.54104" lon="6.26713">
        <ele>922</ele>
        <time>2023-08-08T06:33:39.000Z</time>
      </trkpt>
      <trkpt lat="45.54102" lon="6.26707">
        <ele>923</ele>
        <time>2023-08-08T06:33:44.000Z</time>
      </trkpt>
      <trkpt lat="45.54102" lon="6.26706">
        <ele>923.20001220703</ele>
        <time>2023-08-08T06:33:45.000Z</time>
      </trkpt>
      <trkpt lat="45.54101" lon="6.26706">
        <ele>924.20001220703</ele>
        <time>2023-08-08T06:33:49.000Z</time>
      </trkpt>
      <trkpt lat="45.54098" lon="6.26704">
        <ele>924.79998779297</ele>
        <time>2023-08-08T06:33:53.000Z</time>
      </trkpt>
      <trkpt lat="45.54096" lon="6.26702">
        <ele>925.40002441406</ele>
        <time>2023-08-08T06:33:56.000Z</time>
      </trkpt>
      <trkpt lat="45.54092" lon="6.26699">
        <ele>926.20001220703</ele>
        <time>2023-08-08T06:34:00.000Z</time>
      </trkpt>
      <trkpt lat="45.54091" lon="6.26698">
        <ele>926.40002441406</ele>
        <time>2023-08-08T06:34:01.000Z</time>
      </trkpt>
      <trkpt lat="45.54087" lon="6.26688">
        <ele>927.59997558594</ele>
        <time>2023-08-08T06:34:09.000Z</time>
      </trkpt>
      <trkpt lat="45.54085" lon="6.26681">
        <ele>928.59997558594</ele>
        <time>2023-08-08T06:34:16.000Z</time>
      </trkpt>
      <trkpt lat="45.54085" lon="6.2668">
        <ele>929</ele>
        <time>2023-08-08T06:34:17.000Z</time>
      </trkpt>
      <trkpt lat="45.54084" lon="6.26675">
        <ele>930</ele>
        <time>2023-08-08T06:34:22.000Z</time>
      </trkpt>
      <trkpt lat="45.54084" lon="6.26672">
        <ele>930.59997558594</ele>
        <time>2023-08-08T06:34:26.000Z</time>
      </trkpt>
      <trkpt lat="45.54083" lon="6.26669">
        <ele>931</ele>
        <time>2023-08-08T06:34:28.000Z</time>
      </trkpt>
      <trkpt lat="45.54081" lon="6.26664">
        <ele>931.79998779297</ele>
        <time>2023-08-08T06:34:33.000Z</time>
      </trkpt>
      <trkpt lat="45.5408" lon="6.26662">
        <ele>932</ele>
        <time>2023-08-08T06:34:34.000Z</time>
      </trkpt>
      <trkpt lat="45.54078" lon="6.26658">
        <ele>933.20001220703</ele>
        <time>2023-08-08T06:34:39.000Z</time>
      </trkpt>
      <trkpt lat="45.54078" lon="6.26656">
        <ele>933.59997558594</ele>
        <time>2023-08-08T06:34:41.000Z</time>
      </trkpt>
      <trkpt lat="45.54077" lon="6.26652">
        <ele>934.40002441406</ele>
        <time>2023-08-08T06:34:45.000Z</time>
      </trkpt>
      <trkpt lat="45.54075" lon="6.26647">
        <ele>935.20001220703</ele>
        <time>2023-08-08T06:34:50.000Z</time>
      </trkpt>
      <trkpt lat="45.54074" lon="6.26645">
        <ele>935.59997558594</ele>
        <time>2023-08-08T06:34:52.000Z</time>
      </trkpt>
      <trkpt lat="45.54073" lon="6.26638">
        <ele>936.40002441406</ele>
        <time>2023-08-08T06:34:57.000Z</time>
      </trkpt>
      <trkpt lat="45.54073" lon="6.26635">
        <ele>936.79998779297</ele>
        <time>2023-08-08T06:35:00.000Z</time>
      </trkpt>
      <trkpt lat="45.54073" lon="6.26632">
        <ele>937.79998779297</ele>
        <time>2023-08-08T06:35:05.000Z</time>
      </trkpt>
      <trkpt lat="45.54073" lon="6.26631">
        <ele>938</ele>
        <time>2023-08-08T06:35:06.000Z</time>
      </trkpt>
      <trkpt lat="45.54072" lon="6.26622">
        <ele>939.20001220703</ele>
        <time>2023-08-08T06:35:12.000Z</time>
      </trkpt>
      <trkpt lat="45.54071" lon="6.2662">
        <ele>939.40002441406</ele>
        <time>2023-08-08T06:35:13.000Z</time>
      </trkpt>
      <trkpt lat="45.54068" lon="6.26615">
        <ele>940.20001220703</ele>
        <time>2023-08-08T06:35:18.000Z</time>
      </trkpt>
      <trkpt lat="45.54066" lon="6.26613">
        <ele>940.79998779297</ele>
        <time>2023-08-08T06:35:21.000Z</time>
      </trkpt>
      <trkpt lat="45.54063" lon="6.26609">
        <ele>941.40002441406</ele>
        <time>2023-08-08T06:35:25.000Z</time>
      </trkpt>
      <trkpt lat="45.54063" lon="6.26607">
        <ele>941.59997558594</ele>
        <time>2023-08-08T06:35:27.000Z</time>
      </trkpt>
      <trkpt lat="45.54062" lon="6.26601">
        <ele>942.40002441406</ele>
        <time>2023-08-08T06:35:33.000Z</time>
      </trkpt>
      <trkpt lat="45.54063" lon="6.266">
        <ele>942.59997558594</ele>
        <time>2023-08-08T06:35:34.000Z</time>
      </trkpt>
      <trkpt lat="45.54065" lon="6.26597">
        <ele>943.59997558594</ele>
        <time>2023-08-08T06:35:39.000Z</time>
      </trkpt>
      <trkpt lat="45.54065" lon="6.26595">
        <ele>943.59997558594</ele>
        <time>2023-08-08T06:35:41.000Z</time>
      </trkpt>
      <trkpt lat="45.54061" lon="6.26593">
        <ele>943.59997558594</ele>
        <time>2023-08-08T06:35:48.000Z</time>
      </trkpt>
      <trkpt lat="45.54057" lon="6.26587">
        <ele>943.79998779297</ele>
        <time>2023-08-08T06:35:58.000Z</time>
      </trkpt>
      <trkpt lat="45.54057" lon="6.26584">
        <ele>943.79998779297</ele>
        <time>2023-08-08T06:36:05.000Z</time>
      </trkpt>
      <trkpt lat="45.54059" lon="6.26578">
        <ele>944.79998779297</ele>
        <time>2023-08-08T06:36:12.000Z</time>
      </trkpt>
      <trkpt lat="45.5406" lon="6.26577">
        <ele>945</ele>
        <time>2023-08-08T06:36:13.000Z</time>
      </trkpt>
      <trkpt lat="45.54061" lon="6.26575">
        <ele>946</ele>
        <time>2023-08-08T06:36:18.000Z</time>
      </trkpt>
      <trkpt lat="45.54062" lon="6.26573">
        <ele>946.59997558594</ele>
        <time>2023-08-08T06:36:20.000Z</time>
      </trkpt>
      <trkpt lat="45.54064" lon="6.2657">
        <ele>947.20001220703</ele>
        <time>2023-08-08T06:36:23.000Z</time>
      </trkpt>
      <trkpt lat="45.54065" lon="6.26568">
        <ele>948</ele>
        <time>2023-08-08T06:36:27.000Z</time>
      </trkpt>
      <trkpt lat="45.54065" lon="6.26568">
        <ele>948.20001220703</ele>
        <time>2023-08-08T06:36:28.000Z</time>
      </trkpt>
      <trkpt lat="45.54065" lon="6.26567">
        <ele>949.40002441406</ele>
        <time>2023-08-08T06:36:33.000Z</time>
      </trkpt>
      <trkpt lat="45.54065" lon="6.26565">
        <ele>950.40002441406</ele>
        <time>2023-08-08T06:36:37.000Z</time>
      </trkpt>
      <trkpt lat="45.54065" lon="6.26564">
        <ele>950.59997558594</ele>
        <time>2023-08-08T06:36:38.000Z</time>
      </trkpt>
      <trkpt lat="45.54066" lon="6.26559">
        <ele>951.79998779297</ele>
        <time>2023-08-08T06:36:43.000Z</time>
      </trkpt>
      <trkpt lat="45.54066" lon="6.26558">
        <ele>952</ele>
        <time>2023-08-08T06:36:44.000Z</time>
      </trkpt>
      <trkpt lat="45.54067" lon="6.26555">
        <ele>953</ele>
        <time>2023-08-08T06:36:48.000Z</time>
      </trkpt>
      <trkpt lat="45.54068" lon="6.26555">
        <ele>953.79998779297</ele>
        <time>2023-08-08T06:36:51.000Z</time>
      </trkpt>
      <trkpt lat="45.54069" lon="6.26555">
        <ele>954.20001220703</ele>
        <time>2023-08-08T06:36:53.000Z</time>
      </trkpt>
      <trkpt lat="45.54071" lon="6.26553">
        <ele>954.79998779297</ele>
        <time>2023-08-08T06:36:57.000Z</time>
      </trkpt>
      <trkpt lat="45.54072" lon="6.26552">
        <ele>955.40002441406</ele>
        <time>2023-08-08T06:36:59.000Z</time>
      </trkpt>
      <trkpt lat="45.5407" lon="6.26549">
        <ele>956.59997558594</ele>
        <time>2023-08-08T06:37:04.000Z</time>
      </trkpt>
      <trkpt lat="45.54072" lon="6.26545">
        <ele>957.59997558594</ele>
        <time>2023-08-08T06:37:09.000Z</time>
      </trkpt>
      <trkpt lat="45.54071" lon="6.26544">
        <ele>958.20001220703</ele>
        <time>2023-08-08T06:37:11.000Z</time>
      </trkpt>
      <trkpt lat="45.54071" lon="6.26542">
        <ele>958.79998779297</ele>
        <time>2023-08-08T06:37:14.000Z</time>
      </trkpt>
      <trkpt lat="45.5407" lon="6.26538">
        <ele>959.79998779297</ele>
        <time>2023-08-08T06:37:19.000Z</time>
      </trkpt>
      <trkpt lat="45.5407" lon="6.26531">
        <ele>961</ele>
        <time>2023-08-08T06:37:25.000Z</time>
      </trkpt>
      <trkpt lat="45.5407" lon="6.26528">
        <ele>961.59997558594</ele>
        <time>2023-08-08T06:37:28.000Z</time>
      </trkpt>
      <trkpt lat="45.54071" lon="6.26526">
        <ele>962</ele>
        <time>2023-08-08T06:37:30.000Z</time>
      </trkpt>
      <trkpt lat="45.54071" lon="6.26521">
        <ele>963.20001220703</ele>
        <time>2023-08-08T06:37:36.000Z</time>
      </trkpt>
      <trkpt lat="45.54071" lon="6.26517">
        <ele>964.40002441406</ele>
        <time>2023-08-08T06:37:42.000Z</time>
      </trkpt>
      <trkpt lat="45.54071" lon="6.26514">
        <ele>965</ele>
        <time>2023-08-08T06:37:45.000Z</time>
      </trkpt>
      <trkpt lat="45.54068" lon="6.26511">
        <ele>965.59997558594</ele>
        <time>2023-08-08T06:37:48.000Z</time>
      </trkpt>
      <trkpt lat="45.54063" lon="6.26507">
        <ele>966.40002441406</ele>
        <time>2023-08-08T06:37:53.000Z</time>
      </trkpt>
      <trkpt lat="45.54061" lon="6.26505">
        <ele>966.59997558594</ele>
        <time>2023-08-08T06:37:55.000Z</time>
      </trkpt>
      <trkpt lat="45.54057" lon="6.26501">
        <ele>967.59997558594</ele>
        <time>2023-08-08T06:38:01.000Z</time>
      </trkpt>
      <trkpt lat="45.54056" lon="6.26499">
        <ele>967.79998779297</ele>
        <time>2023-08-08T06:38:02.000Z</time>
      </trkpt>
      <trkpt lat="45.54055" lon="6.26498">
        <ele>968.59997558594</ele>
        <time>2023-08-08T06:38:06.000Z</time>
      </trkpt>
      <trkpt lat="45.54054" lon="6.26497">
        <ele>969</ele>
        <time>2023-08-08T06:38:08.000Z</time>
      </trkpt>
      <trkpt lat="45.54051" lon="6.26494">
        <ele>970.20001220703</ele>
        <time>2023-08-08T06:38:14.000Z</time>
      </trkpt>
      <trkpt lat="45.54051" lon="6.26493">
        <ele>970.40002441406</ele>
        <time>2023-08-08T06:38:15.000Z</time>
      </trkpt>
      <trkpt lat="45.54047" lon="6.26491">
        <ele>971.40002441406</ele>
        <time>2023-08-08T06:38:20.000Z</time>
      </trkpt>
      <trkpt lat="45.54045" lon="6.2649">
        <ele>972.40002441406</ele>
        <time>2023-08-08T06:38:24.000Z</time>
      </trkpt>
      <trkpt lat="45.54045" lon="6.2649">
        <ele>972.59997558594</ele>
        <time>2023-08-08T06:38:25.000Z</time>
      </trkpt>
      <trkpt lat="45.54042" lon="6.26489">
        <ele>973.59997558594</ele>
        <time>2023-08-08T06:38:31.000Z</time>
      </trkpt>
      <trkpt lat="45.5404" lon="6.26488">
        <ele>974.59997558594</ele>
        <time>2023-08-08T06:38:35.000Z</time>
      </trkpt>
      <trkpt lat="45.54039" lon="6.26488">
        <ele>974.79998779297</ele>
        <time>2023-08-08T06:38:36.000Z</time>
      </trkpt>
      <trkpt lat="45.54039" lon="6.26485">
        <ele>975.79998779297</ele>
        <time>2023-08-08T06:38:41.000Z</time>
      </trkpt>
      <trkpt lat="45.54038" lon="6.26484">
        <ele>976</ele>
        <time>2023-08-08T06:38:42.000Z</time>
      </trkpt>
      <trkpt lat="45.54037" lon="6.26479">
        <ele>977</ele>
        <time>2023-08-08T06:38:47.000Z</time>
      </trkpt>
      <trkpt lat="45.54035" lon="6.26477">
        <ele>977.59997558594</ele>
        <time>2023-08-08T06:38:50.000Z</time>
      </trkpt>
      <trkpt lat="45.54034" lon="6.26475">
        <ele>978</ele>
        <time>2023-08-08T06:38:53.000Z</time>
      </trkpt>
      <trkpt lat="45.54033" lon="6.26474">
        <ele>978.59997558594</ele>
        <time>2023-08-08T06:38:56.000Z</time>
      </trkpt>
      <trkpt lat="45.54032" lon="6.26471">
        <ele>979.20001220703</ele>
        <time>2023-08-08T06:38:59.000Z</time>
      </trkpt>
      <trkpt lat="45.54031" lon="6.26466">
        <ele>979.79998779297</ele>
        <time>2023-08-08T06:39:03.000Z</time>
      </trkpt>
      <trkpt lat="45.5403" lon="6.26462">
        <ele>980.20001220703</ele>
        <time>2023-08-08T06:39:05.000Z</time>
      </trkpt>
      <trkpt lat="45.54029" lon="6.2646">
        <ele>981.20001220703</ele>
        <time>2023-08-08T06:39:09.000Z</time>
      </trkpt>
      <trkpt lat="45.54029" lon="6.26459">
        <ele>981.20001220703</ele>
        <time>2023-08-08T06:39:10.000Z</time>
      </trkpt>
      <trkpt lat="45.54026" lon="6.26453">
        <ele>982.40002441406</ele>
        <time>2023-08-08T06:39:17.000Z</time>
      </trkpt>
      <trkpt lat="45.54026" lon="6.26452">
        <ele>982.59997558594</ele>
        <time>2023-08-08T06:39:18.000Z</time>
      </trkpt>
      <trkpt lat="45.54022" lon="6.26449">
        <ele>983.59997558594</ele>
        <time>2023-08-08T06:39:24.000Z</time>
      </trkpt>
      <trkpt lat="45.54021" lon="6.26446">
        <ele>984</ele>
        <time>2023-08-08T06:39:26.000Z</time>
      </trkpt>
      <trkpt lat="45.54018" lon="6.26441">
        <ele>984.59997558594</ele>
        <time>2023-08-08T06:39:32.000Z</time>
      </trkpt>
      <trkpt lat="45.54018" lon="6.26439">
        <ele>985</ele>
        <time>2023-08-08T06:39:34.000Z</time>
      </trkpt>
      <trkpt lat="45.54016" lon="6.26434">
        <ele>985.79998779297</ele>
        <time>2023-08-08T06:39:38.000Z</time>
      </trkpt>
      <trkpt lat="45.54015" lon="6.26432">
        <ele>986.20001220703</ele>
        <time>2023-08-08T06:39:42.000Z</time>
      </trkpt>
      <trkpt lat="45.54014" lon="6.26431">
        <ele>986.79998779297</ele>
        <time>2023-08-08T06:39:44.000Z</time>
      </trkpt>
      <trkpt lat="45.54012" lon="6.26426">
        <ele>987.40002441406</ele>
        <time>2023-08-08T06:39:49.000Z</time>
      </trkpt>
      <trkpt lat="45.54011" lon="6.26423">
        <ele>987.79998779297</ele>
        <time>2023-08-08T06:39:52.000Z</time>
      </trkpt>
      <trkpt lat="45.54007" lon="6.26414">
        <ele>988.59997558594</ele>
        <time>2023-08-08T06:39:57.000Z</time>
      </trkpt>
      <trkpt lat="45.54007" lon="6.2641">
        <ele>988.79998779297</ele>
        <time>2023-08-08T06:39:59.000Z</time>
      </trkpt>
      <trkpt lat="45.54006" lon="6.26402">
        <ele>989.59997558594</ele>
        <time>2023-08-08T06:40:06.000Z</time>
      </trkpt>
      <trkpt lat="45.54006" lon="6.26398">
        <ele>989.79998779297</ele>
        <time>2023-08-08T06:40:10.000Z</time>
      </trkpt>
      <trkpt lat="45.54006" lon="6.26393">
        <ele>990</ele>
        <time>2023-08-08T06:40:13.000Z</time>
      </trkpt>
      <trkpt lat="45.54004" lon="6.2639">
        <ele>990.79998779297</ele>
        <time>2023-08-08T06:40:18.000Z</time>
      </trkpt>
      <trkpt lat="45.54004" lon="6.26386">
        <ele>991.20001220703</ele>
        <time>2023-08-08T06:40:21.000Z</time>
      </trkpt>
      <trkpt lat="45.54" lon="6.26378">
        <ele>992</ele>
        <time>2023-08-08T06:40:26.000Z</time>
      </trkpt>
      <trkpt lat="45.53999" lon="6.26376">
        <ele>992.40002441406</ele>
        <time>2023-08-08T06:40:29.000Z</time>
      </trkpt>
      <trkpt lat="45.53995" lon="6.26373">
        <ele>993</ele>
        <time>2023-08-08T06:40:33.000Z</time>
      </trkpt>
      <trkpt lat="45.53992" lon="6.26369">
        <ele>993.59997558594</ele>
        <time>2023-08-08T06:40:36.000Z</time>
      </trkpt>
      <trkpt lat="45.5399" lon="6.26367">
        <ele>994.20001220703</ele>
        <time>2023-08-08T06:40:39.000Z</time>
      </trkpt>
      <trkpt lat="45.53987" lon="6.26364">
        <ele>995</ele>
        <time>2023-08-08T06:40:44.000Z</time>
      </trkpt>
      <trkpt lat="45.53986" lon="6.26363">
        <ele>995.20001220703</ele>
        <time>2023-08-08T06:40:45.000Z</time>
      </trkpt>
      <trkpt lat="45.53982" lon="6.2636">
        <ele>996</ele>
        <time>2023-08-08T06:40:51.000Z</time>
      </trkpt>
      <trkpt lat="45.53981" lon="6.2636">
        <ele>996.40002441406</ele>
        <time>2023-08-08T06:40:52.000Z</time>
      </trkpt>
      <trkpt lat="45.53976" lon="6.26354">
        <ele>997.40002441406</ele>
        <time>2023-08-08T06:40:59.000Z</time>
      </trkpt>
      <trkpt lat="45.53975" lon="6.26353">
        <ele>997.59997558594</ele>
        <time>2023-08-08T06:41:00.000Z</time>
      </trkpt>
      <trkpt lat="45.53971" lon="6.2635">
        <ele>998.59997558594</ele>
        <time>2023-08-08T06:41:05.000Z</time>
      </trkpt>
      <trkpt lat="45.53971" lon="6.26349">
        <ele>998.79998779297</ele>
        <time>2023-08-08T06:41:07.000Z</time>
      </trkpt>
      <trkpt lat="45.53969" lon="6.26347">
        <ele>999.59997558594</ele>
        <time>2023-08-08T06:41:11.000Z</time>
      </trkpt>
      <trkpt lat="45.53967" lon="6.26345">
        <ele>1000.4000244141</ele>
        <time>2023-08-08T06:41:15.000Z</time>
      </trkpt>
      <trkpt lat="45.53967" lon="6.26344">
        <ele>1000.5999755859</ele>
        <time>2023-08-08T06:41:16.000Z</time>
      </trkpt>
      <trkpt lat="45.53963" lon="6.26337">
        <ele>1001.5999755859</ele>
        <time>2023-08-08T06:41:22.000Z</time>
      </trkpt>
      <trkpt lat="45.53961" lon="6.26332">
        <ele>1002.5999755859</ele>
        <time>2023-08-08T06:41:31.000Z</time>
      </trkpt>
      <trkpt lat="45.5396" lon="6.26331">
        <ele>1002.799987793</ele>
        <time>2023-08-08T06:41:32.000Z</time>
      </trkpt>
      <trkpt lat="45.53959" lon="6.26332">
        <ele>1003.799987793</ele>
        <time>2023-08-08T06:41:38.000Z</time>
      </trkpt>
      <trkpt lat="45.53958" lon="6.2633">
        <ele>1004.200012207</ele>
        <time>2023-08-08T06:41:39.000Z</time>
      </trkpt>
      <trkpt lat="45.53954" lon="6.26324">
        <ele>1005</ele>
        <time>2023-08-08T06:41:44.000Z</time>
      </trkpt>
      <trkpt lat="45.53952" lon="6.26322">
        <ele>1005.5999755859</ele>
        <time>2023-08-08T06:41:47.000Z</time>
      </trkpt>
      <trkpt lat="45.5395" lon="6.26318">
        <ele>1006</ele>
        <time>2023-08-08T06:41:50.000Z</time>
      </trkpt>
      <trkpt lat="45.53947" lon="6.26316">
        <ele>1006.799987793</ele>
        <time>2023-08-08T06:41:55.000Z</time>
      </trkpt>
      <trkpt lat="45.53944" lon="6.26313">
        <ele>1007.200012207</ele>
        <time>2023-08-08T06:41:58.000Z</time>
      </trkpt>
      <trkpt lat="45.5394" lon="6.2631">
        <ele>1007.799987793</ele>
        <time>2023-08-08T06:42:04.000Z</time>
      </trkpt>
      <trkpt lat="45.53937" lon="6.26307">
        <ele>1008.4000244141</ele>
        <time>2023-08-08T06:42:07.000Z</time>
      </trkpt>
      <trkpt lat="45.53936" lon="6.26307">
        <ele>1008.799987793</ele>
        <time>2023-08-08T06:42:10.000Z</time>
      </trkpt>
      <trkpt lat="45.53935" lon="6.26305">
        <ele>1009.4000244141</ele>
        <time>2023-08-08T06:42:14.000Z</time>
      </trkpt>
      <trkpt lat="45.5393" lon="6.26302">
        <ele>1010.200012207</ele>
        <time>2023-08-08T06:42:19.000Z</time>
      </trkpt>
      <trkpt lat="45.53928" lon="6.263">
        <ele>1010.4000244141</ele>
        <time>2023-08-08T06:42:21.000Z</time>
      </trkpt>
      <trkpt lat="45.53925" lon="6.26297">
        <ele>1011.200012207</ele>
        <time>2023-08-08T06:42:26.000Z</time>
      </trkpt>
      <trkpt lat="45.53923" lon="6.26296">
        <ele>1011.5999755859</ele>
        <time>2023-08-08T06:42:28.000Z</time>
      </trkpt>
      <trkpt lat="45.53921" lon="6.26294">
        <ele>1012.200012207</ele>
        <time>2023-08-08T06:42:32.000Z</time>
      </trkpt>
      <trkpt lat="45.53919" lon="6.26293">
        <ele>1012.5999755859</ele>
        <time>2023-08-08T06:42:35.000Z</time>
      </trkpt>
      <trkpt lat="45.53917" lon="6.2629">
        <ele>1013.200012207</ele>
        <time>2023-08-08T06:42:39.000Z</time>
      </trkpt>
      <trkpt lat="45.53917" lon="6.26287">
        <ele>1013.799987793</ele>
        <time>2023-08-08T06:42:42.000Z</time>
      </trkpt>
      <trkpt lat="45.53914" lon="6.26281">
        <ele>1014.5999755859</ele>
        <time>2023-08-08T06:42:47.000Z</time>
      </trkpt>
      <trkpt lat="45.53913" lon="6.26279">
        <ele>1015</ele>
        <time>2023-08-08T06:42:49.000Z</time>
      </trkpt>
      <trkpt lat="45.53911" lon="6.26275">
        <ele>1016</ele>
        <time>2023-08-08T06:42:55.000Z</time>
      </trkpt>
      <trkpt lat="45.53908" lon="6.26275">
        <ele>1017.200012207</ele>
        <time>2023-08-08T06:43:01.000Z</time>
      </trkpt>
      <trkpt lat="45.53908" lon="6.26276">
        <ele>1017.4000244141</ele>
        <time>2023-08-08T06:43:02.000Z</time>
      </trkpt>
      <trkpt lat="45.53906" lon="6.26275">
        <ele>1018.200012207</ele>
        <time>2023-08-08T06:43:06.000Z</time>
      </trkpt>
      <trkpt lat="45.53905" lon="6.26273">
        <ele>1019.4000244141</ele>
        <time>2023-08-08T06:43:11.000Z</time>
      </trkpt>
      <trkpt lat="45.53902" lon="6.26268">
        <ele>1020.5999755859</ele>
        <time>2023-08-08T06:43:18.000Z</time>
      </trkpt>
      <trkpt lat="45.53899" lon="6.26264">
        <ele>1021.5999755859</ele>
        <time>2023-08-08T06:43:25.000Z</time>
      </trkpt>
      <trkpt lat="45.53897" lon="6.2626">
        <ele>1022.799987793</ele>
        <time>2023-08-08T06:43:31.000Z</time>
      </trkpt>
      <trkpt lat="45.53897" lon="6.26259">
        <ele>1023.200012207</ele>
        <time>2023-08-08T06:43:33.000Z</time>
      </trkpt>
      <trkpt lat="45.53898" lon="6.2626">
        <ele>1024</ele>
        <time>2023-08-08T06:43:35.000Z</time>
      </trkpt>
      <trkpt lat="45.53895" lon="6.26259">
        <ele>1025</ele>
        <time>2023-08-08T06:43:41.000Z</time>
      </trkpt>
      <trkpt lat="45.53888" lon="6.26256">
        <ele>1025.8000488281</ele>
        <time>2023-08-08T06:43:47.000Z</time>
      </trkpt>
      <trkpt lat="45.53887" lon="6.26255">
        <ele>1026.1999511719</ele>
        <time>2023-08-08T06:43:48.000Z</time>
      </trkpt>
      <trkpt lat="45.53885" lon="6.26253">
        <ele>1027.1999511719</ele>
        <time>2023-08-08T06:43:53.000Z</time>
      </trkpt>
      <trkpt lat="45.53884" lon="6.26252">
        <ele>1027.4000244141</ele>
        <time>2023-08-08T06:43:54.000Z</time>
      </trkpt>
      <trkpt lat="45.53881" lon="6.26248">
        <ele>1028.4000244141</ele>
        <time>2023-08-08T06:43:59.000Z</time>
      </trkpt>
      <trkpt lat="45.5388" lon="6.26246">
        <ele>1028.8000488281</ele>
        <time>2023-08-08T06:44:01.000Z</time>
      </trkpt>
      <trkpt lat="45.5388" lon="6.26246">
        <ele>1029.5999755859</ele>
        <time>2023-08-08T06:44:05.000Z</time>
      </trkpt>
      <trkpt lat="45.5388" lon="6.26246">
        <ele>1029.8000488281</ele>
        <time>2023-08-08T06:44:07.000Z</time>
      </trkpt>
      <trkpt lat="45.53879" lon="6.26244">
        <ele>1030.5999755859</ele>
        <time>2023-08-08T06:44:11.000Z</time>
      </trkpt>
      <trkpt lat="45.53878" lon="6.26242">
        <ele>1031.4000244141</ele>
        <time>2023-08-08T06:44:16.000Z</time>
      </trkpt>
      <trkpt lat="45.53878" lon="6.26242">
        <ele>1031.5999755859</ele>
        <time>2023-08-08T06:44:17.000Z</time>
      </trkpt>
      <trkpt lat="45.53876" lon="6.2624">
        <ele>1032.8000488281</ele>
        <time>2023-08-08T06:44:23.000Z</time>
      </trkpt>
      <trkpt lat="45.53875" lon="6.2624">
        <ele>1033</ele>
        <time>2023-08-08T06:44:24.000Z</time>
      </trkpt>
      <trkpt lat="45.53871" lon="6.26239">
        <ele>1034</ele>
        <time>2023-08-08T06:44:29.000Z</time>
      </trkpt>
      <trkpt lat="45.53869" lon="6.26237">
        <ele>1034.5999755859</ele>
        <time>2023-08-08T06:44:33.000Z</time>
      </trkpt>
      <trkpt lat="45.53868" lon="6.26236">
        <ele>1035</ele>
        <time>2023-08-08T06:44:35.000Z</time>
      </trkpt>
      <trkpt lat="45.53866" lon="6.26232">
        <ele>1036.1999511719</ele>
        <time>2023-08-08T06:44:41.000Z</time>
      </trkpt>
      <trkpt lat="45.53863" lon="6.26227">
        <ele>1037.4000244141</ele>
        <time>2023-08-08T06:44:48.000Z</time>
      </trkpt>
      <trkpt lat="45.53862" lon="6.26227">
        <ele>1037.5999755859</ele>
        <time>2023-08-08T06:44:49.000Z</time>
      </trkpt>
      <trkpt lat="45.53857" lon="6.26226">
        <ele>1038.4000244141</ele>
        <time>2023-08-08T06:44:55.000Z</time>
      </trkpt>
      <trkpt lat="45.53854" lon="6.26224">
        <ele>1039</ele>
        <time>2023-08-08T06:44:58.000Z</time>
      </trkpt>
      <trkpt lat="45.5385" lon="6.26223">
        <ele>1039.5999755859</ele>
        <time>2023-08-08T06:45:01.000Z</time>
      </trkpt>
      <trkpt lat="45.53846" lon="6.26223">
        <ele>1040.5999755859</ele>
        <time>2023-08-08T06:45:07.000Z</time>
      </trkpt>
      <trkpt lat="45.53845" lon="6.26223">
        <ele>1040.5999755859</ele>
        <time>2023-08-08T06:45:08.000Z</time>
      </trkpt>
      <trkpt lat="45.53839" lon="6.2622">
        <ele>1041.8000488281</ele>
        <time>2023-08-08T06:45:15.000Z</time>
      </trkpt>
      <trkpt lat="45.53838" lon="6.2622">
        <ele>1042</ele>
        <time>2023-08-08T06:45:16.000Z</time>
      </trkpt>
      <trkpt lat="45.53834" lon="6.26217">
        <ele>1042.8000488281</ele>
        <time>2023-08-08T06:45:22.000Z</time>
      </trkpt>
      <trkpt lat="45.53831" lon="6.26215">
        <ele>1043.1999511719</ele>
        <time>2023-08-08T06:45:25.000Z</time>
      </trkpt>
      <trkpt lat="45.53828" lon="6.26212">
        <ele>1043.8000488281</ele>
        <time>2023-08-08T06:45:29.000Z</time>
      </trkpt>
      <trkpt lat="45.53824" lon="6.26207">
        <ele>1044.4000244141</ele>
        <time>2023-08-08T06:45:34.000Z</time>
      </trkpt>
      <trkpt lat="45.5382" lon="6.26205">
        <ele>1045</ele>
        <time>2023-08-08T06:45:38.000Z</time>
      </trkpt>
      <trkpt lat="45.53818" lon="6.26202">
        <ele>1046</ele>
        <time>2023-08-08T06:45:44.000Z</time>
      </trkpt>
      <trkpt lat="45.53817" lon="6.26201">
        <ele>1046.1999511719</ele>
        <time>2023-08-08T06:45:45.000Z</time>
      </trkpt>
      <trkpt lat="45.53814" lon="6.26199">
        <ele>1047.1999511719</ele>
        <time>2023-08-08T06:45:50.000Z</time>
      </trkpt>
      <trkpt lat="45.53809" lon="6.26194">
        <ele>1048.1999511719</ele>
        <time>2023-08-08T06:45:56.000Z</time>
      </trkpt>
      <trkpt lat="45.53807" lon="6.26193">
        <ele>1049.4000244141</ele>
        <time>2023-08-08T06:46:02.000Z</time>
      </trkpt>
      <trkpt lat="45.53806" lon="6.26193">
        <ele>1049.5999755859</ele>
        <time>2023-08-08T06:46:03.000Z</time>
      </trkpt>
      <trkpt lat="45.53802" lon="6.26189">
        <ele>1050.4000244141</ele>
        <time>2023-08-08T06:46:08.000Z</time>
      </trkpt>
      <trkpt lat="45.538" lon="6.26187">
        <ele>1051.1999511719</ele>
        <time>2023-08-08T06:46:12.000Z</time>
      </trkpt>
      <trkpt lat="45.53799" lon="6.26186">
        <ele>1051.5999755859</ele>
        <time>2023-08-08T06:46:14.000Z</time>
      </trkpt>
      <trkpt lat="45.53797" lon="6.26185">
        <ele>1052.5999755859</ele>
        <time>2023-08-08T06:46:19.000Z</time>
      </trkpt>
      <trkpt lat="45.53795" lon="6.26185">
        <ele>1053</ele>
        <time>2023-08-08T06:46:21.000Z</time>
      </trkpt>
      <trkpt lat="45.53793" lon="6.26185">
        <ele>1053.8000488281</ele>
        <time>2023-08-08T06:46:25.000Z</time>
      </trkpt>
      <trkpt lat="45.53792" lon="6.26185">
        <ele>1054.5999755859</ele>
        <time>2023-08-08T06:46:29.000Z</time>
      </trkpt>
      <trkpt lat="45.53791" lon="6.26184">
        <ele>1054.8000488281</ele>
        <time>2023-08-08T06:46:31.000Z</time>
      </trkpt>
      <trkpt lat="45.53789" lon="6.2618">
        <ele>1055.8000488281</ele>
        <time>2023-08-08T06:46:36.000Z</time>
      </trkpt>
      <trkpt lat="45.53787" lon="6.26178">
        <ele>1056.1999511719</ele>
        <time>2023-08-08T06:46:38.000Z</time>
      </trkpt>
      <trkpt lat="45.53783" lon="6.26174">
        <ele>1056.8000488281</ele>
        <time>2023-08-08T06:46:42.000Z</time>
      </trkpt>
      <trkpt lat="45.53779" lon="6.26169">
        <ele>1058</ele>
        <time>2023-08-08T06:46:49.000Z</time>
      </trkpt>
      <trkpt lat="45.53775" lon="6.26167">
        <ele>1059</ele>
        <time>2023-08-08T06:46:55.000Z</time>
      </trkpt>
      <trkpt lat="45.53772" lon="6.26166">
        <ele>1059.4000244141</ele>
        <time>2023-08-08T06:46:58.000Z</time>
      </trkpt>
      <trkpt lat="45.53769" lon="6.26162">
        <ele>1060</ele>
        <time>2023-08-08T06:47:03.000Z</time>
      </trkpt>
      <trkpt lat="45.53767" lon="6.26159">
        <ele>1060.5999755859</ele>
        <time>2023-08-08T06:47:07.000Z</time>
      </trkpt>
      <trkpt lat="45.53767" lon="6.26157">
        <ele>1061.4000244141</ele>
        <time>2023-08-08T06:47:10.000Z</time>
      </trkpt>
      <trkpt lat="45.53767" lon="6.26155">
        <ele>1062</ele>
        <time>2023-08-08T06:47:14.000Z</time>
      </trkpt>
      <trkpt lat="45.53766" lon="6.26153">
        <ele>1062.4000244141</ele>
        <time>2023-08-08T06:47:17.000Z</time>
      </trkpt>
      <trkpt lat="45.53761" lon="6.26149">
        <ele>1063.4000244141</ele>
        <time>2023-08-08T06:47:22.000Z</time>
      </trkpt>
      <trkpt lat="45.53759" lon="6.26147">
        <ele>1063.5999755859</ele>
        <time>2023-08-08T06:47:24.000Z</time>
      </trkpt>
      <trkpt lat="45.53756" lon="6.26142">
        <ele>1064.5999755859</ele>
        <time>2023-08-08T06:47:30.000Z</time>
      </trkpt>
      <trkpt lat="45.53755" lon="6.2614">
        <ele>1064.8000488281</ele>
        <time>2023-08-08T06:47:31.000Z</time>
      </trkpt>
      <trkpt lat="45.53754" lon="6.26138">
        <ele>1065.8000488281</ele>
        <time>2023-08-08T06:47:37.000Z</time>
      </trkpt>
      <trkpt lat="45.53754" lon="6.26138">
        <ele>1066</ele>
        <time>2023-08-08T06:47:38.000Z</time>
      </trkpt>
      <trkpt lat="45.53754" lon="6.26139">
        <ele>1067</ele>
        <time>2023-08-08T06:47:43.000Z</time>
      </trkpt>
      <trkpt lat="45.53752" lon="6.26138">
        <ele>1067.8000488281</ele>
        <time>2023-08-08T06:47:47.000Z</time>
      </trkpt>
      <trkpt lat="45.5375" lon="6.26136">
        <ele>1068.1999511719</ele>
        <time>2023-08-08T06:47:49.000Z</time>
      </trkpt>
      <trkpt lat="45.53747" lon="6.26133">
        <ele>1069</ele>
        <time>2023-08-08T06:47:54.000Z</time>
      </trkpt>
      <trkpt lat="45.53745" lon="6.2613">
        <ele>1069.4000244141</ele>
        <time>2023-08-08T06:47:56.000Z</time>
      </trkpt>
      <trkpt lat="45.53743" lon="6.26126">
        <ele>1070.5999755859</ele>
        <time>2023-08-08T06:48:02.000Z</time>
      </trkpt>
      <trkpt lat="45.53741" lon="6.26126">
        <ele>1071.5999755859</ele>
        <time>2023-08-08T06:48:07.000Z</time>
      </trkpt>
      <trkpt lat="45.53739" lon="6.26124">
        <ele>1072.1999511719</ele>
        <time>2023-08-08T06:48:10.000Z</time>
      </trkpt>
      <trkpt lat="45.53737" lon="6.26122">
        <ele>1072.8000488281</ele>
        <time>2023-08-08T06:48:13.000Z</time>
      </trkpt>
      <trkpt lat="45.53736" lon="6.26123">
        <ele>1073.8000488281</ele>
        <time>2023-08-08T06:48:18.000Z</time>
      </trkpt>
      <trkpt lat="45.53736" lon="6.26123">
        <ele>1074</ele>
        <time>2023-08-08T06:48:19.000Z</time>
      </trkpt>
      <trkpt lat="45.53733" lon="6.2612">
        <ele>1075</ele>
        <time>2023-08-08T06:48:24.000Z</time>
      </trkpt>
      <trkpt lat="45.53731" lon="6.2612">
        <ele>1075.4000244141</ele>
        <time>2023-08-08T06:48:27.000Z</time>
      </trkpt>
      <trkpt lat="45.53729" lon="6.26118">
        <ele>1076</ele>
        <time>2023-08-08T06:48:30.000Z</time>
      </trkpt>
      <trkpt lat="45.53723" lon="6.26116">
        <ele>1077.1999511719</ele>
        <time>2023-08-08T06:48:36.000Z</time>
      </trkpt>
      <trkpt lat="45.53722" lon="6.26116">
        <ele>1077.4000244141</ele>
        <time>2023-08-08T06:48:37.000Z</time>
      </trkpt>
      <trkpt lat="45.5372" lon="6.26117">
        <ele>1078.4000244141</ele>
        <time>2023-08-08T06:48:42.000Z</time>
      </trkpt>
      <trkpt lat="45.53719" lon="6.26118">
        <ele>1079.1999511719</ele>
        <time>2023-08-08T06:48:45.000Z</time>
      </trkpt>
      <trkpt lat="45.53718" lon="6.26117">
        <ele>1079.4000244141</ele>
        <time>2023-08-08T06:48:47.000Z</time>
      </trkpt>
      <trkpt lat="45.53712" lon="6.26116">
        <ele>1080.5999755859</ele>
        <time>2023-08-08T06:48:53.000Z</time>
      </trkpt>
      <trkpt lat="45.53706" lon="6.26116">
        <ele>1081.8000488281</ele>
        <time>2023-08-08T06:49:00.000Z</time>
      </trkpt>
      <trkpt lat="45.53705" lon="6.26115">
        <ele>1082.1999511719</ele>
        <time>2023-08-08T06:49:03.000Z</time>
      </trkpt>
      <trkpt lat="45.53704" lon="6.26115">
        <ele>1082.8000488281</ele>
        <time>2023-08-08T06:49:06.000Z</time>
      </trkpt>
      <trkpt lat="45.53703" lon="6.26117">
        <ele>1083.5999755859</ele>
        <time>2023-08-08T06:49:11.000Z</time>
      </trkpt>
      <trkpt lat="45.53703" lon="6.26117">
        <ele>1083.8000488281</ele>
        <time>2023-08-08T06:49:12.000Z</time>
      </trkpt>
      <trkpt lat="45.53695" lon="6.26113">
        <ele>1084.8000488281</ele>
        <time>2023-08-08T06:49:21.000Z</time>
      </trkpt>
      <trkpt lat="45.53694" lon="6.26112">
        <ele>1085</ele>
        <time>2023-08-08T06:49:22.000Z</time>
      </trkpt>
      <trkpt lat="45.53687" lon="6.26111">
        <ele>1086</ele>
        <time>2023-08-08T06:49:28.000Z</time>
      </trkpt>
      <trkpt lat="45.53683" lon="6.2611">
        <ele>1086.1999511719</ele>
        <time>2023-08-08T06:49:30.000Z</time>
      </trkpt>
      <trkpt lat="45.53679" lon="6.26106">
        <ele>1087</ele>
        <time>2023-08-08T06:49:36.000Z</time>
      </trkpt>
      <trkpt lat="45.53678" lon="6.26106">
        <ele>1087.1999511719</ele>
        <time>2023-08-08T06:49:37.000Z</time>
      </trkpt>
      <trkpt lat="45.5367" lon="6.26102">
        <ele>1088</ele>
        <time>2023-08-08T06:49:45.000Z</time>
      </trkpt>
      <trkpt lat="45.5367" lon="6.26101">
        <ele>1088.1999511719</ele>
        <time>2023-08-08T06:49:46.000Z</time>
      </trkpt>
      <trkpt lat="45.53669" lon="6.26091">
        <ele>1088.8000488281</ele>
        <time>2023-08-08T06:49:54.000Z</time>
      </trkpt>
      <trkpt lat="45.53671" lon="6.26087">
        <ele>1089.1999511719</ele>
        <time>2023-08-08T06:49:57.000Z</time>
      </trkpt>
      <trkpt lat="45.53674" lon="6.26082">
        <ele>1089.4000244141</ele>
        <time>2023-08-08T06:50:01.000Z</time>
      </trkpt>
      <trkpt lat="45.53675" lon="6.26075">
        <ele>1089.4000244141</ele>
        <time>2023-08-08T06:50:08.000Z</time>
      </trkpt>
      <trkpt lat="45.53675" lon="6.26071">
        <ele>1089.4000244141</ele>
        <time>2023-08-08T06:50:15.000Z</time>
      </trkpt>
      <trkpt lat="45.53671" lon="6.26059">
        <ele>1089.4000244141</ele>
        <time>2023-08-08T06:50:25.000Z</time>
      </trkpt>
      <trkpt lat="45.53664" lon="6.26047">
        <ele>1090</ele>
        <time>2023-08-08T06:50:34.000Z</time>
      </trkpt>
      <trkpt lat="45.53663" lon="6.26046">
        <ele>1090.1999511719</ele>
        <time>2023-08-08T06:50:35.000Z</time>
      </trkpt>
      <trkpt lat="45.53657" lon="6.26038">
        <ele>1090.5999755859</ele>
        <time>2023-08-08T06:50:42.000Z</time>
      </trkpt>
      <trkpt lat="45.53653" lon="6.26033">
        <ele>1091.1999511719</ele>
        <time>2023-08-08T06:50:47.000Z</time>
      </trkpt>
      <trkpt lat="45.53649" lon="6.26027">
        <ele>1091.8000488281</ele>
        <time>2023-08-08T06:50:52.000Z</time>
      </trkpt>
      <trkpt lat="45.53646" lon="6.2602">
        <ele>1092.4000244141</ele>
        <time>2023-08-08T06:50:56.000Z</time>
      </trkpt>
      <trkpt lat="45.53645" lon="6.26016">
        <ele>1093</ele>
        <time>2023-08-08T06:51:00.000Z</time>
      </trkpt>
      <trkpt lat="45.53643" lon="6.26011">
        <ele>1093.4000244141</ele>
        <time>2023-08-08T06:51:05.000Z</time>
      </trkpt>
      <trkpt lat="45.53641" lon="6.26007">
        <ele>1093.8000488281</ele>
        <time>2023-08-08T06:51:08.000Z</time>
      </trkpt>
      <trkpt lat="45.53637" lon="6.26002">
        <ele>1094.5999755859</ele>
        <time>2023-08-08T06:51:12.000Z</time>
      </trkpt>
      <trkpt lat="45.53633" lon="6.25997">
        <ele>1095</ele>
        <time>2023-08-08T06:51:16.000Z</time>
      </trkpt>
      <trkpt lat="45.53629" lon="6.25991">
        <ele>1095.5999755859</ele>
        <time>2023-08-08T06:51:22.000Z</time>
      </trkpt>
      <trkpt lat="45.53629" lon="6.25987">
        <ele>1096</ele>
        <time>2023-08-08T06:51:25.000Z</time>
      </trkpt>
      <trkpt lat="45.53629" lon="6.25986">
        <ele>1096</ele>
        <time>2023-08-08T06:51:26.000Z</time>
      </trkpt>
      <trkpt lat="45.53628" lon="6.25986">
        <ele>1096.5999755859</ele>
        <time>2023-08-08T06:51:30.000Z</time>
      </trkpt>
      <trkpt lat="45.53626" lon="6.25983">
        <ele>1096.5999755859</ele>
        <time>2023-08-08T06:51:34.000Z</time>
      </trkpt>
      <trkpt lat="45.53626" lon="6.25981">
        <ele>1096.5999755859</ele>
        <time>2023-08-08T06:51:36.000Z</time>
      </trkpt>
      <trkpt lat="45.53623" lon="6.25974">
        <ele>1096.5999755859</ele>
        <time>2023-08-08T06:51:43.000Z</time>
      </trkpt>
      <trkpt lat="45.53624" lon="6.25978">
        <ele>1096.5999755859</ele>
        <time>2023-08-08T06:51:52.000Z</time>
      </trkpt>
      <trkpt lat="45.53625" lon="6.25984">
        <ele>1096.4000244141</ele>
        <time>2023-08-08T06:52:01.000Z</time>
      </trkpt>
      <trkpt lat="45.53622" lon="6.25985">
        <ele>1097.4000244141</ele>
        <time>2023-08-08T06:52:08.000Z</time>
      </trkpt>
      <trkpt lat="45.53621" lon="6.25985">
        <ele>1097.8000488281</ele>
        <time>2023-08-08T06:52:10.000Z</time>
      </trkpt>
      <trkpt lat="45.53617" lon="6.25983">
        <ele>1099</ele>
        <time>2023-08-08T06:52:15.000Z</time>
      </trkpt>
      <trkpt lat="45.53617" lon="6.25982">
        <ele>1099.1999511719</ele>
        <time>2023-08-08T06:52:16.000Z</time>
      </trkpt>
      <trkpt lat="45.53615" lon="6.2598">
        <ele>1100</ele>
        <time>2023-08-08T06:52:19.000Z</time>
      </trkpt>
      <trkpt lat="45.53612" lon="6.2598">
        <ele>1101</ele>
        <time>2023-08-08T06:52:25.000Z</time>
      </trkpt>
      <trkpt lat="45.53612" lon="6.2598">
        <ele>1101.1999511719</ele>
        <time>2023-08-08T06:52:26.000Z</time>
      </trkpt>
      <trkpt lat="45.5361" lon="6.25979">
        <ele>1102</ele>
        <time>2023-08-08T06:52:30.000Z</time>
      </trkpt>
      <trkpt lat="45.53606" lon="6.25978">
        <ele>1103</ele>
        <time>2023-08-08T06:52:35.000Z</time>
      </trkpt>
      <trkpt lat="45.53605" lon="6.25978">
        <ele>1103.1999511719</ele>
        <time>2023-08-08T06:52:36.000Z</time>
      </trkpt>
      <trkpt lat="45.53602" lon="6.25977">
        <ele>1104.1999511719</ele>
        <time>2023-08-08T06:52:41.000Z</time>
      </trkpt>
      <trkpt lat="45.53602" lon="6.25977">
        <ele>1104.5999755859</ele>
        <time>2023-08-08T06:52:43.000Z</time>
      </trkpt>
      <trkpt lat="45.53599" lon="6.25975">
        <ele>1105.4000244141</ele>
        <time>2023-08-08T06:52:47.000Z</time>
      </trkpt>
      <trkpt lat="45.53594" lon="6.25973">
        <ele>1106.4000244141</ele>
        <time>2023-08-08T06:52:52.000Z</time>
      </trkpt>
      <trkpt lat="45.53594" lon="6.25972">
        <ele>1106.5999755859</ele>
        <time>2023-08-08T06:52:53.000Z</time>
      </trkpt>
      <trkpt lat="45.5359" lon="6.2597">
        <ele>1107.5999755859</ele>
        <time>2023-08-08T06:52:59.000Z</time>
      </trkpt>
      <trkpt lat="45.53584" lon="6.25965">
        <ele>1108.8000488281</ele>
        <time>2023-08-08T06:53:06.000Z</time>
      </trkpt>
      <trkpt lat="45.53582" lon="6.25964">
        <ele>1109</ele>
        <time>2023-08-08T06:53:08.000Z</time>
      </trkpt>
      <trkpt lat="45.53581" lon="6.25962">
        <ele>1110</ele>
        <time>2023-08-08T06:53:13.000Z</time>
      </trkpt>
      <trkpt lat="45.53582" lon="6.25962">
        <ele>1110.1999511719</ele>
        <time>2023-08-08T06:53:15.000Z</time>
      </trkpt>
      <trkpt lat="45.53586" lon="6.25961">
        <ele>1110.4000244141</ele>
        <time>2023-08-08T06:53:24.000Z</time>
      </trkpt>
      <trkpt lat="45.53591" lon="6.25959">
        <ele>1110.1999511719</ele>
        <time>2023-08-08T06:53:33.000Z</time>
      </trkpt>
      <trkpt lat="45.53588" lon="6.25959">
        <ele>1110.1999511719</ele>
        <time>2023-08-08T06:53:40.000Z</time>
      </trkpt>
      <trkpt lat="45.53585" lon="6.25958">
        <ele>1110.1999511719</ele>
        <time>2023-08-08T06:53:49.000Z</time>
      </trkpt>
      <trkpt lat="45.53586" lon="6.25955">
        <ele>1110</ele>
        <time>2023-08-08T06:53:58.000Z</time>
      </trkpt>
      <trkpt lat="45.53585" lon="6.25958">
        <ele>1110.1999511719</ele>
        <time>2023-08-08T06:54:07.000Z</time>
      </trkpt>
      <trkpt lat="45.53575" lon="6.25954">
        <ele>1110.4000244141</ele>
        <time>2023-08-08T06:54:14.000Z</time>
      </trkpt>
      <trkpt lat="45.53571" lon="6.25951">
        <ele>1111.1999511719</ele>
        <time>2023-08-08T06:54:19.000Z</time>
      </trkpt>
      <trkpt lat="45.53568" lon="6.2595">
        <ele>1111.8000488281</ele>
        <time>2023-08-08T06:54:22.000Z</time>
      </trkpt>
      <trkpt lat="45.53566" lon="6.2595">
        <ele>1112.1999511719</ele>
        <time>2023-08-08T06:54:24.000Z</time>
      </trkpt>
      <trkpt lat="45.53563" lon="6.25948">
        <ele>1113.4000244141</ele>
        <time>2023-08-08T06:54:29.000Z</time>
      </trkpt>
      <trkpt lat="45.53563" lon="6.25948">
        <ele>1113.5999755859</ele>
        <time>2023-08-08T06:54:30.000Z</time>
      </trkpt>
      <trkpt lat="45.53557" lon="6.25945">
        <ele>1115</ele>
        <time>2023-08-08T06:54:37.000Z</time>
      </trkpt>
      <trkpt lat="45.53556" lon="6.25944">
        <ele>1115</ele>
        <time>2023-08-08T06:54:38.000Z</time>
      </trkpt>
      <trkpt lat="45.53551" lon="6.25941">
        <ele>1116.1999511719</ele>
        <time>2023-08-08T06:54:43.000Z</time>
      </trkpt>
      <trkpt lat="45.5355" lon="6.25939">
        <ele>1116.5999755859</ele>
        <time>2023-08-08T06:54:45.000Z</time>
      </trkpt>
      <trkpt lat="45.53547" lon="6.25935">
        <ele>1117.4000244141</ele>
        <time>2023-08-08T06:54:49.000Z</time>
      </trkpt>
      <trkpt lat="45.53547" lon="6.25933">
        <ele>1118.1999511719</ele>
        <time>2023-08-08T06:54:53.000Z</time>
      </trkpt>
      <trkpt lat="45.53547" lon="6.25934">
        <ele>1118.4000244141</ele>
        <time>2023-08-08T06:54:54.000Z</time>
      </trkpt>
      <trkpt lat="45.53543" lon="6.25932">
        <ele>1119.4000244141</ele>
        <time>2023-08-08T06:55:00.000Z</time>
      </trkpt>
      <trkpt lat="45.5354" lon="6.25931">
        <ele>1120.4000244141</ele>
        <time>2023-08-08T06:55:06.000Z</time>
      </trkpt>
      <trkpt lat="45.53539" lon="6.25931">
        <ele>1121.1999511719</ele>
        <time>2023-08-08T06:55:09.000Z</time>
      </trkpt>
      <trkpt lat="45.53538" lon="6.2593">
        <ele>1121.5999755859</ele>
        <time>2023-08-08T06:55:11.000Z</time>
      </trkpt>
      <trkpt lat="45.53535" lon="6.25926">
        <ele>1122.8000488281</ele>
        <time>2023-08-08T06:55:17.000Z</time>
      </trkpt>
      <trkpt lat="45.53534" lon="6.25925">
        <ele>1123</ele>
        <time>2023-08-08T06:55:18.000Z</time>
      </trkpt>
      <trkpt lat="45.53533" lon="6.25923">
        <ele>1123.8000488281</ele>
        <time>2023-08-08T06:55:22.000Z</time>
      </trkpt>
      <trkpt lat="45.5353" lon="6.25922">
        <ele>1124.5999755859</ele>
        <time>2023-08-08T06:55:26.000Z</time>
      </trkpt>
      <trkpt lat="45.53529" lon="6.25921">
        <ele>1125.1999511719</ele>
        <time>2023-08-08T06:55:28.000Z</time>
      </trkpt>
      <trkpt lat="45.53526" lon="6.25918">
        <ele>1126.1999511719</ele>
        <time>2023-08-08T06:55:34.000Z</time>
      </trkpt>
      <trkpt lat="45.53525" lon="6.25916">
        <ele>1127</ele>
        <time>2023-08-08T06:55:38.000Z</time>
      </trkpt>
      <trkpt lat="45.53525" lon="6.25914">
        <ele>1127.1999511719</ele>
        <time>2023-08-08T06:55:40.000Z</time>
      </trkpt>
      <trkpt lat="45.53521" lon="6.25909">
        <ele>1128.4000244141</ele>
        <time>2023-08-08T06:55:46.000Z</time>
      </trkpt>
      <trkpt lat="45.53519" lon="6.25906">
        <ele>1129</ele>
        <time>2023-08-08T06:55:49.000Z</time>
      </trkpt>
      <trkpt lat="45.53517" lon="6.25906">
        <ele>1129.4000244141</ele>
        <time>2023-08-08T06:55:52.000Z</time>
      </trkpt>
      <trkpt lat="45.53516" lon="6.25905">
        <ele>1130.4000244141</ele>
        <time>2023-08-08T06:55:57.000Z</time>
      </trkpt>
      <trkpt lat="45.53515" lon="6.25905">
        <ele>1130.5999755859</ele>
        <time>2023-08-08T06:55:58.000Z</time>
      </trkpt>
      <trkpt lat="45.53514" lon="6.25901">
        <ele>1131.5999755859</ele>
        <time>2023-08-08T06:56:05.000Z</time>
      </trkpt>
      <trkpt lat="45.5351" lon="6.25896">
        <ele>1132.5999755859</ele>
        <time>2023-08-08T06:56:11.000Z</time>
      </trkpt>
      <trkpt lat="45.53506" lon="6.25895">
        <ele>1133.1999511719</ele>
        <time>2023-08-08T06:56:14.000Z</time>
      </trkpt>
      <trkpt lat="45.53503" lon="6.25894">
        <ele>1133.8000488281</ele>
        <time>2023-08-08T06:56:17.000Z</time>
      </trkpt>
      <trkpt lat="45.53498" lon="6.25891">
        <ele>1135</ele>
        <time>2023-08-08T06:56:23.000Z</time>
      </trkpt>
      <trkpt lat="45.53497" lon="6.25891">
        <ele>1135.4000244141</ele>
        <time>2023-08-08T06:56:25.000Z</time>
      </trkpt>
      <trkpt lat="45.53494" lon="6.25889">
        <ele>1136.1999511719</ele>
        <time>2023-08-08T06:56:29.000Z</time>
      </trkpt>
      <trkpt lat="45.53491" lon="6.25887">
        <ele>1137.1999511719</ele>
        <time>2023-08-08T06:56:35.000Z</time>
      </trkpt>
      <trkpt lat="45.53491" lon="6.25885">
        <ele>1137.8000488281</ele>
        <time>2023-08-08T06:56:38.000Z</time>
      </trkpt>
      <trkpt lat="45.5349" lon="6.25884">
        <ele>1138.4000244141</ele>
        <time>2023-08-08T06:56:41.000Z</time>
      </trkpt>
      <trkpt lat="45.53485" lon="6.25877">
        <ele>1139.4000244141</ele>
        <time>2023-08-08T06:56:46.000Z</time>
      </trkpt>
      <trkpt lat="45.53484" lon="6.25876">
        <ele>1139.8000488281</ele>
        <time>2023-08-08T06:56:48.000Z</time>
      </trkpt>
      <trkpt lat="45.53482" lon="6.25873">
        <ele>1140.4000244141</ele>
        <time>2023-08-08T06:56:52.000Z</time>
      </trkpt>
      <trkpt lat="45.5348" lon="6.25872">
        <ele>1141.4000244141</ele>
        <time>2023-08-08T06:56:58.000Z</time>
      </trkpt>
      <trkpt lat="45.53474" lon="6.25867">
        <ele>1142.5999755859</ele>
        <time>2023-08-08T06:57:04.000Z</time>
      </trkpt>
      <trkpt lat="45.53472" lon="6.25865">
        <ele>1143</ele>
        <time>2023-08-08T06:57:07.000Z</time>
      </trkpt>
      <trkpt lat="45.53469" lon="6.2586">
        <ele>1143.5999755859</ele>
        <time>2023-08-08T06:57:11.000Z</time>
      </trkpt>
      <trkpt lat="45.53465" lon="6.25857">
        <ele>1144.4000244141</ele>
        <time>2023-08-08T06:57:16.000Z</time>
      </trkpt>
      <trkpt lat="45.53463" lon="6.25856">
        <ele>1144.5999755859</ele>
        <time>2023-08-08T06:57:18.000Z</time>
      </trkpt>
      <trkpt lat="45.53459" lon="6.25854">
        <ele>1145.5999755859</ele>
        <time>2023-08-08T06:57:24.000Z</time>
      </trkpt>
      <trkpt lat="45.53459" lon="6.25854">
        <ele>1146</ele>
        <time>2023-08-08T06:57:25.000Z</time>
      </trkpt>
      <trkpt lat="45.53456" lon="6.25852">
        <ele>1146.8000488281</ele>
        <time>2023-08-08T06:57:30.000Z</time>
      </trkpt>
      <trkpt lat="45.53452" lon="6.25849">
        <ele>1147.4000244141</ele>
        <time>2023-08-08T06:57:34.000Z</time>
      </trkpt>
      <trkpt lat="45.53451" lon="6.25847">
        <ele>1148</ele>
        <time>2023-08-08T06:57:37.000Z</time>
      </trkpt>
      <trkpt lat="45.53448" lon="6.25845">
        <ele>1149</ele>
        <time>2023-08-08T06:57:43.000Z</time>
      </trkpt>
      <trkpt lat="45.53447" lon="6.25845">
        <ele>1149</ele>
        <time>2023-08-08T06:57:44.000Z</time>
      </trkpt>
      <trkpt lat="45.53439" lon="6.25839">
        <ele>1150.1999511719</ele>
        <time>2023-08-08T06:57:51.000Z</time>
      </trkpt>
      <trkpt lat="45.53437" lon="6.25838">
        <ele>1150.5999755859</ele>
        <time>2023-08-08T06:57:53.000Z</time>
      </trkpt>
      <trkpt lat="45.53432" lon="6.25838">
        <ele>1151.1999511719</ele>
        <time>2023-08-08T06:57:57.000Z</time>
      </trkpt>
      <trkpt lat="45.53427" lon="6.25839">
        <ele>1152</ele>
        <time>2023-08-08T06:58:04.000Z</time>
      </trkpt>
      <trkpt lat="45.53427" lon="6.2584">
        <ele>1152.1999511719</ele>
        <time>2023-08-08T06:58:06.000Z</time>
      </trkpt>
      <trkpt lat="45.53423" lon="6.2584">
        <ele>1153.4000244141</ele>
        <time>2023-08-08T06:58:12.000Z</time>
      </trkpt>
      <trkpt lat="45.53422" lon="6.25839">
        <ele>1153.8000488281</ele>
        <time>2023-08-08T06:58:14.000Z</time>
      </trkpt>
      <trkpt lat="45.53419" lon="6.2584">
        <ele>1154.4000244141</ele>
        <time>2023-08-08T06:58:18.000Z</time>
      </trkpt>
      <trkpt lat="45.53414" lon="6.2584">
        <ele>1155.4000244141</ele>
        <time>2023-08-08T06:58:23.000Z</time>
      </trkpt>
      <trkpt lat="45.53413" lon="6.2584">
        <ele>1155.5999755859</ele>
        <time>2023-08-08T06:58:24.000Z</time>
      </trkpt>
      <trkpt lat="45.53406" lon="6.25839">
        <ele>1156.8000488281</ele>
        <time>2023-08-08T06:58:30.000Z</time>
      </trkpt>
      <trkpt lat="45.53404" lon="6.25839">
        <ele>1157.1999511719</ele>
        <time>2023-08-08T06:58:32.000Z</time>
      </trkpt>
      <trkpt lat="45.53402" lon="6.25838">
        <ele>1158</ele>
        <time>2023-08-08T06:58:36.000Z</time>
      </trkpt>
      <trkpt lat="45.534" lon="6.25837">
        <ele>1158.5999755859</ele>
        <time>2023-08-08T06:58:40.000Z</time>
      </trkpt>
      <trkpt lat="45.534" lon="6.25836">
        <ele>1159</ele>
        <time>2023-08-08T06:58:42.000Z</time>
      </trkpt>
      <trkpt lat="45.53397" lon="6.25834">
        <ele>1160</ele>
        <time>2023-08-08T06:58:47.000Z</time>
      </trkpt>
      <trkpt lat="45.53397" lon="6.25834">
        <ele>1160.1999511719</ele>
        <time>2023-08-08T06:58:48.000Z</time>
      </trkpt>
      <trkpt lat="45.53395" lon="6.25833">
        <ele>1161.1999511719</ele>
        <time>2023-08-08T06:58:52.000Z</time>
      </trkpt>
      <trkpt lat="45.53393" lon="6.25833">
        <ele>1161.4000244141</ele>
        <time>2023-08-08T06:58:54.000Z</time>
      </trkpt>
      <trkpt lat="45.53392" lon="6.25833">
        <ele>1162.1999511719</ele>
        <time>2023-08-08T06:58:57.000Z</time>
      </trkpt>
      <trkpt lat="45.53388" lon="6.25831">
        <ele>1163.4000244141</ele>
        <time>2023-08-08T06:59:03.000Z</time>
      </trkpt>
      <trkpt lat="45.53386" lon="6.25829">
        <ele>1164.4000244141</ele>
        <time>2023-08-08T06:59:09.000Z</time>
      </trkpt>
      <trkpt lat="45.53385" lon="6.25828">
        <ele>1165</ele>
        <time>2023-08-08T06:59:12.000Z</time>
      </trkpt>
      <trkpt lat="45.53385" lon="6.25828">
        <ele>1165.4000244141</ele>
        <time>2023-08-08T06:59:15.000Z</time>
      </trkpt>
      <trkpt lat="45.53382" lon="6.25825">
        <ele>1166.5999755859</ele>
        <time>2023-08-08T06:59:21.000Z</time>
      </trkpt>
      <trkpt lat="45.53381" lon="6.25824">
        <ele>1166.5999755859</ele>
        <time>2023-08-08T06:59:22.000Z</time>
      </trkpt>
      <trkpt lat="45.53377" lon="6.25818">
        <ele>1167.5999755859</ele>
        <time>2023-08-08T06:59:28.000Z</time>
      </trkpt>
      <trkpt lat="45.53376" lon="6.25817">
        <ele>1168</ele>
        <time>2023-08-08T06:59:30.000Z</time>
      </trkpt>
      <trkpt lat="45.53375" lon="6.25813">
        <ele>1168.5999755859</ele>
        <time>2023-08-08T06:59:34.000Z</time>
      </trkpt>
      <trkpt lat="45.53367" lon="6.25807">
        <ele>1169.4000244141</ele>
        <time>2023-08-08T06:59:41.000Z</time>
      </trkpt>
      <trkpt lat="45.53365" lon="6.25806">
        <ele>1169.8000488281</ele>
        <time>2023-08-08T06:59:43.000Z</time>
      </trkpt>
      <trkpt lat="45.53357" lon="6.25799">
        <ele>1170.5999755859</ele>
        <time>2023-08-08T06:59:50.000Z</time>
      </trkpt>
      <trkpt lat="45.53356" lon="6.25798">
        <ele>1170.8000488281</ele>
        <time>2023-08-08T06:59:51.000Z</time>
      </trkpt>
      <trkpt lat="45.53349" lon="6.25791">
        <ele>1171.8000488281</ele>
        <time>2023-08-08T06:59:58.000Z</time>
      </trkpt>
      <trkpt lat="45.53348" lon="6.2579">
        <ele>1172</ele>
        <time>2023-08-08T07:00:00.000Z</time>
      </trkpt>
      <trkpt lat="45.53345" lon="6.25787">
        <ele>1172.8000488281</ele>
        <time>2023-08-08T07:00:05.000Z</time>
      </trkpt>
      <trkpt lat="45.53342" lon="6.25784">
        <ele>1173.5999755859</ele>
        <time>2023-08-08T07:00:09.000Z</time>
      </trkpt>
      <trkpt lat="45.5334" lon="6.25782">
        <ele>1174</ele>
        <time>2023-08-08T07:00:12.000Z</time>
      </trkpt>
      <trkpt lat="45.53336" lon="6.2578">
        <ele>1175</ele>
        <time>2023-08-08T07:00:17.000Z</time>
      </trkpt>
      <trkpt lat="45.53335" lon="6.2578">
        <ele>1175.1999511719</ele>
        <time>2023-08-08T07:00:18.000Z</time>
      </trkpt>
      <trkpt lat="45.53332" lon="6.25779">
        <ele>1176.1999511719</ele>
        <time>2023-08-08T07:00:24.000Z</time>
      </trkpt>
      <trkpt lat="45.53331" lon="6.25779">
        <ele>1176.4000244141</ele>
        <time>2023-08-08T07:00:25.000Z</time>
      </trkpt>
      <trkpt lat="45.53328" lon="6.25778">
        <ele>1177.1999511719</ele>
        <time>2023-08-08T07:00:30.000Z</time>
      </trkpt>
      <trkpt lat="45.53324" lon="6.25775">
        <ele>1178</ele>
        <time>2023-08-08T07:00:34.000Z</time>
      </trkpt>
      <trkpt lat="45.53323" lon="6.25774">
        <ele>1178.1999511719</ele>
        <time>2023-08-08T07:00:36.000Z</time>
      </trkpt>
      <trkpt lat="45.53321" lon="6.25771">
        <ele>1179.4000244141</ele>
        <time>2023-08-08T07:00:42.000Z</time>
      </trkpt>
      <trkpt lat="45.53321" lon="6.25769">
        <ele>1179.8000488281</ele>
        <time>2023-08-08T07:00:44.000Z</time>
      </trkpt>
      <trkpt lat="45.53318" lon="6.25764">
        <ele>1180.4000244141</ele>
        <time>2023-08-08T07:00:48.000Z</time>
      </trkpt>
      <trkpt lat="45.53313" lon="6.25759">
        <ele>1181.1999511719</ele>
        <time>2023-08-08T07:00:53.000Z</time>
      </trkpt>
      <trkpt lat="45.53312" lon="6.25759">
        <ele>1181.4000244141</ele>
        <time>2023-08-08T07:00:55.000Z</time>
      </trkpt>
      <trkpt lat="45.53306" lon="6.25755">
        <ele>1182.4000244141</ele>
        <time>2023-08-08T07:01:01.000Z</time>
      </trkpt>
      <trkpt lat="45.53306" lon="6.25754">
        <ele>1182.5999755859</ele>
        <time>2023-08-08T07:01:02.000Z</time>
      </trkpt>
      <trkpt lat="45.53302" lon="6.25755">
        <ele>1183.5999755859</ele>
        <time>2023-08-08T07:01:07.000Z</time>
      </trkpt>
      <trkpt lat="45.533" lon="6.25756">
        <ele>1184.1999511719</ele>
        <time>2023-08-08T07:01:10.000Z</time>
      </trkpt>
      <trkpt lat="45.53301" lon="6.25756">
        <ele>1184.8000488281</ele>
        <time>2023-08-08T07:01:13.000Z</time>
      </trkpt>
      <trkpt lat="45.53299" lon="6.25754">
        <ele>1185.4000244141</ele>
        <time>2023-08-08T07:01:17.000Z</time>
      </trkpt>
      <trkpt lat="45.53298" lon="6.25752">
        <ele>1186</ele>
        <time>2023-08-08T07:01:20.000Z</time>
      </trkpt>
      <trkpt lat="45.53296" lon="6.25748">
        <ele>1187</ele>
        <time>2023-08-08T07:01:26.000Z</time>
      </trkpt>
      <trkpt lat="45.53295" lon="6.25744">
        <ele>1188.1999511719</ele>
        <time>2023-08-08T07:01:32.000Z</time>
      </trkpt>
      <trkpt lat="45.53291" lon="6.25741">
        <ele>1188.8000488281</ele>
        <time>2023-08-08T07:01:36.000Z</time>
      </trkpt>
      <trkpt lat="45.53287" lon="6.25739">
        <ele>1189.1999511719</ele>
        <time>2023-08-08T07:01:39.000Z</time>
      </trkpt>
      <trkpt lat="45.5328" lon="6.25738">
        <ele>1190.4000244141</ele>
        <time>2023-08-08T07:01:45.000Z</time>
      </trkpt>
      <trkpt lat="45.53279" lon="6.25737">
        <ele>1190.4000244141</ele>
        <time>2023-08-08T07:01:46.000Z</time>
      </trkpt>
      <trkpt lat="45.53276" lon="6.25737">
        <ele>1191.4000244141</ele>
        <time>2023-08-08T07:01:52.000Z</time>
      </trkpt>
      <trkpt lat="45.53274" lon="6.25736">
        <ele>1191.8000488281</ele>
        <time>2023-08-08T07:01:54.000Z</time>
      </trkpt>
      <trkpt lat="45.5327" lon="6.25734">
        <ele>1192.5999755859</ele>
        <time>2023-08-08T07:01:58.000Z</time>
      </trkpt>
      <trkpt lat="45.53268" lon="6.25732">
        <ele>1193.1999511719</ele>
        <time>2023-08-08T07:02:02.000Z</time>
      </trkpt>
      <trkpt lat="45.53268" lon="6.25731">
        <ele>1193.5999755859</ele>
        <time>2023-08-08T07:02:04.000Z</time>
      </trkpt>
      <trkpt lat="45.53265" lon="6.25728">
        <ele>1194.5999755859</ele>
        <time>2023-08-08T07:02:09.000Z</time>
      </trkpt>
      <trkpt lat="45.53265" lon="6.25727">
        <ele>1195</ele>
        <time>2023-08-08T07:02:11.000Z</time>
      </trkpt>
      <trkpt lat="45.53264" lon="6.25726">
        <ele>1195.5999755859</ele>
        <time>2023-08-08T07:02:14.000Z</time>
      </trkpt>
      <trkpt lat="45.53264" lon="6.25728">
        <ele>1196.8000488281</ele>
        <time>2023-08-08T07:02:20.000Z</time>
      </trkpt>
      <trkpt lat="45.5326" lon="6.25727">
        <ele>1197.8000488281</ele>
        <time>2023-08-08T07:02:26.000Z</time>
      </trkpt>
      <trkpt lat="45.53259" lon="6.25728">
        <ele>1198</ele>
        <time>2023-08-08T07:02:27.000Z</time>
      </trkpt>
      <trkpt lat="45.53255" lon="6.25728">
        <ele>1199.1999511719</ele>
        <time>2023-08-08T07:02:32.000Z</time>
      </trkpt>
      <trkpt lat="45.53253" lon="6.25729">
        <ele>1200</ele>
        <time>2023-08-08T07:02:37.000Z</time>
      </trkpt>
      <trkpt lat="45.53253" lon="6.2573">
        <ele>1200.1999511719</ele>
        <time>2023-08-08T07:02:38.000Z</time>
      </trkpt>
      <trkpt lat="45.53249" lon="6.25732">
        <ele>1201.1999511719</ele>
        <time>2023-08-08T07:02:43.000Z</time>
      </trkpt>
      <trkpt lat="45.53247" lon="6.25734">
        <ele>1201.5999755859</ele>
        <time>2023-08-08T07:02:45.000Z</time>
      </trkpt>
      <trkpt lat="45.53242" lon="6.25736">
        <ele>1202.4000244141</ele>
        <time>2023-08-08T07:02:49.000Z</time>
      </trkpt>
      <trkpt lat="45.53239" lon="6.2574">
        <ele>1203.4000244141</ele>
        <time>2023-08-08T07:02:54.000Z</time>
      </trkpt>
      <trkpt lat="45.53239" lon="6.25741">
        <ele>1203.4000244141</ele>
        <time>2023-08-08T07:02:55.000Z</time>
      </trkpt>
      <trkpt lat="45.53233" lon="6.25745">
        <ele>1204.5999755859</ele>
        <time>2023-08-08T07:03:03.000Z</time>
      </trkpt>
      <trkpt lat="45.53228" lon="6.2575">
        <ele>1205.8000488281</ele>
        <time>2023-08-08T07:03:10.000Z</time>
      </trkpt>
      <trkpt lat="45.53222" lon="6.25754">
        <ele>1207</ele>
        <time>2023-08-08T07:03:17.000Z</time>
      </trkpt>
      <trkpt lat="45.53212" lon="6.25761">
        <ele>1208.4000244141</ele>
        <time>2023-08-08T07:03:29.000Z</time>
      </trkpt>
      <trkpt lat="45.53204" lon="6.25764">
        <ele>1209.4000244141</ele>
        <time>2023-08-08T07:03:39.000Z</time>
      </trkpt>
      <trkpt lat="45.53204" lon="6.25764">
        <ele>1209.4000244141</ele>
        <time>2023-08-08T07:03:40.000Z</time>
      </trkpt>
      <trkpt lat="45.53206" lon="6.25762">
        <ele>1209.4000244141</ele>
        <time>2023-08-08T07:03:46.000Z</time>
      </trkpt>
      <trkpt lat="45.53206" lon="6.25765">
        <ele>1209.4000244141</ele>
        <time>2023-08-08T07:04:19.000Z</time>
      </trkpt>
      <trkpt lat="45.53198" lon="6.25771">
        <ele>1209.5999755859</ele>
        <time>2023-08-08T07:04:32.000Z</time>
      </trkpt>
      <trkpt lat="45.5319" lon="6.25775">
        <ele>1209.8000488281</ele>
        <time>2023-08-08T07:04:40.000Z</time>
      </trkpt>
      <trkpt lat="45.53167" lon="6.25783">
        <ele>1210.4000244141</ele>
        <time>2023-08-08T07:04:58.000Z</time>
      </trkpt>
      <trkpt lat="45.53166" lon="6.25782">
        <ele>1210.4000244141</ele>
        <time>2023-08-08T07:04:59.000Z</time>
      </trkpt>
      <trkpt lat="45.5316" lon="6.25783">
        <ele>1210.1999511719</ele>
        <time>2023-08-08T07:05:05.000Z</time>
      </trkpt>
      <trkpt lat="45.53149" lon="6.2579">
        <ele>1209.5999755859</ele>
        <time>2023-08-08T07:05:15.000Z</time>
      </trkpt>
      <trkpt lat="45.5315" lon="6.25791">
        <ele>1209.5999755859</ele>
        <time>2023-08-08T07:05:17.000Z</time>
      </trkpt>
      <trkpt lat="45.53154" lon="6.25798">
        <ele>1210</ele>
        <time>2023-08-08T07:05:33.000Z</time>
      </trkpt>
      <trkpt lat="45.53153" lon="6.25799">
        <ele>1210.1999511719</ele>
        <time>2023-08-08T07:05:42.000Z</time>
      </trkpt>
      <trkpt lat="45.53144" lon="6.25803">
        <ele>1210.4000244141</ele>
        <time>2023-08-08T07:05:52.000Z</time>
      </trkpt>
      <trkpt lat="45.53143" lon="6.25805">
        <ele>1211</ele>
        <time>2023-08-08T07:05:58.000Z</time>
      </trkpt>
      <trkpt lat="45.5314" lon="6.25809">
        <ele>1211.1999511719</ele>
        <time>2023-08-08T07:06:02.000Z</time>
      </trkpt>
      <trkpt lat="45.53138" lon="6.25818">
        <ele>1212</ele>
        <time>2023-08-08T07:06:08.000Z</time>
      </trkpt>
      <trkpt lat="45.53136" lon="6.25828">
        <ele>1213</ele>
        <time>2023-08-08T07:06:15.000Z</time>
      </trkpt>
      <trkpt lat="45.53136" lon="6.25829">
        <ele>1213.1999511719</ele>
        <time>2023-08-08T07:06:16.000Z</time>
      </trkpt>
      <trkpt lat="45.53132" lon="6.2584">
        <ele>1214.1999511719</ele>
        <time>2023-08-08T07:06:22.000Z</time>
      </trkpt>
      <trkpt lat="45.53124" lon="6.25853">
        <ele>1215</ele>
        <time>2023-08-08T07:06:30.000Z</time>
      </trkpt>
      <trkpt lat="45.53124" lon="6.25854">
        <ele>1215.1999511719</ele>
        <time>2023-08-08T07:06:31.000Z</time>
      </trkpt>
      <trkpt lat="45.5312" lon="6.25859">
        <ele>1216</ele>
        <time>2023-08-08T07:06:37.000Z</time>
      </trkpt>
      <trkpt lat="45.53119" lon="6.25862">
        <ele>1216.4000244141</ele>
        <time>2023-08-08T07:06:39.000Z</time>
      </trkpt>
      <trkpt lat="45.53111" lon="6.25868">
        <ele>1216.8000488281</ele>
        <time>2023-08-08T07:06:45.000Z</time>
      </trkpt>
      <trkpt lat="45.531" lon="6.25871">
        <ele>1217.1999511719</ele>
        <time>2023-08-08T07:06:52.000Z</time>
      </trkpt>
      <trkpt lat="45.53098" lon="6.25872">
        <ele>1217.4000244141</ele>
        <time>2023-08-08T07:06:54.000Z</time>
      </trkpt>
      <trkpt lat="45.53095" lon="6.25876">
        <ele>1217.5999755859</ele>
        <time>2023-08-08T07:06:59.000Z</time>
      </trkpt>
      <trkpt lat="45.53094" lon="6.25876">
        <ele>1217.5999755859</ele>
        <time>2023-08-08T07:07:00.000Z</time>
      </trkpt>
      <trkpt lat="45.53094" lon="6.25881">
        <ele>1217.5999755859</ele>
        <time>2023-08-08T07:07:09.000Z</time>
      </trkpt>
      <trkpt lat="45.53096" lon="6.25877">
        <ele>1217.5999755859</ele>
        <time>2023-08-08T07:07:17.000Z</time>
      </trkpt>
      <trkpt lat="45.53091" lon="6.25872">
        <ele>1218.1999511719</ele>
        <time>2023-08-08T07:07:25.000Z</time>
      </trkpt>
      <trkpt lat="45.5309" lon="6.25872">
        <ele>1218.5999755859</ele>
        <time>2023-08-08T07:07:26.000Z</time>
      </trkpt>
      <trkpt lat="45.53084" lon="6.25869">
        <ele>1219.5999755859</ele>
        <time>2023-08-08T07:07:31.000Z</time>
      </trkpt>
      <trkpt lat="45.53081" lon="6.25867">
        <ele>1220</ele>
        <time>2023-08-08T07:07:34.000Z</time>
      </trkpt>
      <trkpt lat="45.53077" lon="6.25866">
        <ele>1220.5999755859</ele>
        <time>2023-08-08T07:07:37.000Z</time>
      </trkpt>
      <trkpt lat="45.53073" lon="6.25862">
        <ele>1221.5999755859</ele>
        <time>2023-08-08T07:07:43.000Z</time>
      </trkpt>
      <trkpt lat="45.53072" lon="6.25861">
        <ele>1221.8000488281</ele>
        <time>2023-08-08T07:07:44.000Z</time>
      </trkpt>
      <trkpt lat="45.53068" lon="6.25859">
        <ele>1222.8000488281</ele>
        <time>2023-08-08T07:07:49.000Z</time>
      </trkpt>
      <trkpt lat="45.53067" lon="6.25858">
        <ele>1223.4000244141</ele>
        <time>2023-08-08T07:07:51.000Z</time>
      </trkpt>
      <trkpt lat="45.53064" lon="6.25858">
        <ele>1224</ele>
        <time>2023-08-08T07:07:54.000Z</time>
      </trkpt>
      <trkpt lat="45.5306" lon="6.25858">
        <ele>1224.8000488281</ele>
        <time>2023-08-08T07:07:58.000Z</time>
      </trkpt>
      <trkpt lat="45.53058" lon="6.25858">
        <ele>1225</ele>
        <time>2023-08-08T07:07:59.000Z</time>
      </trkpt>
      <trkpt lat="45.53053" lon="6.25857">
        <ele>1226.1999511719</ele>
        <time>2023-08-08T07:08:04.000Z</time>
      </trkpt>
      <trkpt lat="45.53051" lon="6.25856">
        <ele>1226.5999755859</ele>
        <time>2023-08-08T07:08:06.000Z</time>
      </trkpt>
      <trkpt lat="45.53046" lon="6.25854">
        <ele>1227.1999511719</ele>
        <time>2023-08-08T07:08:10.000Z</time>
      </trkpt>
      <trkpt lat="45.53043" lon="6.25854">
        <ele>1228</ele>
        <time>2023-08-08T07:08:14.000Z</time>
      </trkpt>
      <trkpt lat="45.53041" lon="6.25853">
        <ele>1228.4000244141</ele>
        <time>2023-08-08T07:08:16.000Z</time>
      </trkpt>
      <trkpt lat="45.5304" lon="6.25852">
        <ele>1229.1999511719</ele>
        <time>2023-08-08T07:08:21.000Z</time>
      </trkpt>
      <trkpt lat="45.53039" lon="6.25852">
        <ele>1229.4000244141</ele>
        <time>2023-08-08T07:08:22.000Z</time>
      </trkpt>
      <trkpt lat="45.53034" lon="6.2585">
        <ele>1230.4000244141</ele>
        <time>2023-08-08T07:08:28.000Z</time>
      </trkpt>
      <trkpt lat="45.53028" lon="6.25852">
        <ele>1231.5999755859</ele>
        <time>2023-08-08T07:08:34.000Z</time>
      </trkpt>
      <trkpt lat="45.53028" lon="6.25852">
        <ele>1231.8000488281</ele>
        <time>2023-08-08T07:08:35.000Z</time>
      </trkpt>
      <trkpt lat="45.53024" lon="6.25852">
        <ele>1232.8000488281</ele>
        <time>2023-08-08T07:08:40.000Z</time>
      </trkpt>
      <trkpt lat="45.53023" lon="6.25853">
        <ele>1233.1999511719</ele>
        <time>2023-08-08T07:08:42.000Z</time>
      </trkpt>
      <trkpt lat="45.53023" lon="6.25852">
        <ele>1233.8000488281</ele>
        <time>2023-08-08T07:08:45.000Z</time>
      </trkpt>
      <trkpt lat="45.53018" lon="6.25852">
        <ele>1235</ele>
        <time>2023-08-08T07:08:50.000Z</time>
      </trkpt>
      <trkpt lat="45.53016" lon="6.2585">
        <ele>1236</ele>
        <time>2023-08-08T07:08:56.000Z</time>
      </trkpt>
      <trkpt lat="45.53014" lon="6.25849">
        <ele>1236.5999755859</ele>
        <time>2023-08-08T07:08:59.000Z</time>
      </trkpt>
      <trkpt lat="45.53013" lon="6.25848">
        <ele>1237.1999511719</ele>
        <time>2023-08-08T07:09:02.000Z</time>
      </trkpt>
      <trkpt lat="45.53009" lon="6.2585">
        <ele>1238.4000244141</ele>
        <time>2023-08-08T07:09:07.000Z</time>
      </trkpt>
      <trkpt lat="45.53006" lon="6.25852">
        <ele>1239.4000244141</ele>
        <time>2023-08-08T07:09:13.000Z</time>
      </trkpt>
      <trkpt lat="45.53004" lon="6.25853">
        <ele>1240</ele>
        <time>2023-08-08T07:09:16.000Z</time>
      </trkpt>
      <trkpt lat="45.53001" lon="6.25855">
        <ele>1240.5999755859</ele>
        <time>2023-08-08T07:09:19.000Z</time>
      </trkpt>
      <trkpt lat="45.52999" lon="6.25857">
        <ele>1241.4000244141</ele>
        <time>2023-08-08T07:09:24.000Z</time>
      </trkpt>
      <trkpt lat="45.52998" lon="6.25858">
        <ele>1241.5999755859</ele>
        <time>2023-08-08T07:09:26.000Z</time>
      </trkpt>
      <trkpt lat="45.52992" lon="6.2586">
        <ele>1242.5999755859</ele>
        <time>2023-08-08T07:09:32.000Z</time>
      </trkpt>
      <trkpt lat="45.52992" lon="6.2586">
        <ele>1243</ele>
        <time>2023-08-08T07:09:33.000Z</time>
      </trkpt>
      <trkpt lat="45.5299" lon="6.25861">
        <ele>1243.8000488281</ele>
        <time>2023-08-08T07:09:38.000Z</time>
      </trkpt>
      <trkpt lat="45.52987" lon="6.25862">
        <ele>1244.5999755859</ele>
        <time>2023-08-08T07:09:43.000Z</time>
      </trkpt>
      <trkpt lat="45.52987" lon="6.25862">
        <ele>1244.8000488281</ele>
        <time>2023-08-08T07:09:44.000Z</time>
      </trkpt>
      <trkpt lat="45.52986" lon="6.25862">
        <ele>1246</ele>
        <time>2023-08-08T07:09:49.000Z</time>
      </trkpt>
      <trkpt lat="45.52985" lon="6.25863">
        <ele>1246.1999511719</ele>
        <time>2023-08-08T07:09:50.000Z</time>
      </trkpt>
      <trkpt lat="45.52981" lon="6.25864">
        <ele>1247</ele>
        <time>2023-08-08T07:09:55.000Z</time>
      </trkpt>
      <trkpt lat="45.52977" lon="6.25863">
        <ele>1247.8000488281</ele>
        <time>2023-08-08T07:10:00.000Z</time>
      </trkpt>
      <trkpt lat="45.52976" lon="6.25863">
        <ele>1248</ele>
        <time>2023-08-08T07:10:01.000Z</time>
      </trkpt>
      <trkpt lat="45.52973" lon="6.2586">
        <ele>1249.1999511719</ele>
        <time>2023-08-08T07:10:07.000Z</time>
      </trkpt>
      <trkpt lat="45.52972" lon="6.2586">
        <ele>1249.5999755859</ele>
        <time>2023-08-08T07:10:09.000Z</time>
      </trkpt>
      <trkpt lat="45.52968" lon="6.25858">
        <ele>1250.1999511719</ele>
        <time>2023-08-08T07:10:13.000Z</time>
      </trkpt>
      <trkpt lat="45.52964" lon="6.25857">
        <ele>1250.8000488281</ele>
        <time>2023-08-08T07:10:17.000Z</time>
      </trkpt>
      <trkpt lat="45.52963" lon="6.25856">
        <ele>1251.1999511719</ele>
        <time>2023-08-08T07:10:19.000Z</time>
      </trkpt>
      <trkpt lat="45.52959" lon="6.25851">
        <ele>1252</ele>
        <time>2023-08-08T07:10:25.000Z</time>
      </trkpt>
      <trkpt lat="45.52959" lon="6.2585">
        <ele>1252.1999511719</ele>
        <time>2023-08-08T07:10:26.000Z</time>
      </trkpt>
      <trkpt lat="45.52956" lon="6.25848">
        <ele>1253.1999511719</ele>
        <time>2023-08-08T07:10:32.000Z</time>
      </trkpt>
      <trkpt lat="45.52955" lon="6.25847">
        <ele>1253.4000244141</ele>
        <time>2023-08-08T07:10:33.000Z</time>
      </trkpt>
      <trkpt lat="45.52949" lon="6.25847">
        <ele>1254.4000244141</ele>
        <time>2023-08-08T07:10:39.000Z</time>
      </trkpt>
      <trkpt lat="45.52947" lon="6.25847">
        <ele>1254.8000488281</ele>
        <time>2023-08-08T07:10:41.000Z</time>
      </trkpt>
      <trkpt lat="45.52943" lon="6.25847">
        <ele>1255.5999755859</ele>
        <time>2023-08-08T07:10:45.000Z</time>
      </trkpt>
      <trkpt lat="45.52939" lon="6.25847">
        <ele>1256.5999755859</ele>
        <time>2023-08-08T07:10:51.000Z</time>
      </trkpt>
      <trkpt lat="45.52937" lon="6.25848">
        <ele>1257</ele>
        <time>2023-08-08T07:10:54.000Z</time>
      </trkpt>
      <trkpt lat="45.52933" lon="6.25849">
        <ele>1257.5999755859</ele>
        <time>2023-08-08T07:10:57.000Z</time>
      </trkpt>
      <trkpt lat="45.52931" lon="6.25848">
        <ele>1258</ele>
        <time>2023-08-08T07:11:00.000Z</time>
      </trkpt>
      <trkpt lat="45.52928" lon="6.25842">
        <ele>1258.8000488281</ele>
        <time>2023-08-08T07:11:05.000Z</time>
      </trkpt>
      <trkpt lat="45.52927" lon="6.25841">
        <ele>1259</ele>
        <time>2023-08-08T07:11:07.000Z</time>
      </trkpt>
      <trkpt lat="45.52923" lon="6.25838">
        <ele>1259.8000488281</ele>
        <time>2023-08-08T07:11:13.000Z</time>
      </trkpt>
      <trkpt lat="45.52922" lon="6.25838">
        <ele>1260.1999511719</ele>
        <time>2023-08-08T07:11:15.000Z</time>
      </trkpt>
      <trkpt lat="45.52918" lon="6.25839">
        <ele>1260.8000488281</ele>
        <time>2023-08-08T07:11:20.000Z</time>
      </trkpt>
      <trkpt lat="45.52913" lon="6.25839">
        <ele>1261.4000244141</ele>
        <time>2023-08-08T07:11:24.000Z</time>
      </trkpt>
      <trkpt lat="45.5291" lon="6.25838">
        <ele>1262</ele>
        <time>2023-08-08T07:11:27.000Z</time>
      </trkpt>
      <trkpt lat="45.52905" lon="6.25834">
        <ele>1263</ele>
        <time>2023-08-08T07:11:33.000Z</time>
      </trkpt>
      <trkpt lat="45.52904" lon="6.25833">
        <ele>1263.1999511719</ele>
        <time>2023-08-08T07:11:34.000Z</time>
      </trkpt>
      <trkpt lat="45.52901" lon="6.25829">
        <ele>1264.1999511719</ele>
        <time>2023-08-08T07:11:41.000Z</time>
      </trkpt>
      <trkpt lat="45.52897" lon="6.25825">
        <ele>1265.1999511719</ele>
        <time>2023-08-08T07:11:47.000Z</time>
      </trkpt>
      <trkpt lat="45.52893" lon="6.25824">
        <ele>1265.5999755859</ele>
        <time>2023-08-08T07:11:50.000Z</time>
      </trkpt>
      <trkpt lat="45.52887" lon="6.25825">
        <ele>1266.4000244141</ele>
        <time>2023-08-08T07:11:54.000Z</time>
      </trkpt>
      <trkpt lat="45.52882" lon="6.25829">
        <ele>1267</ele>
        <time>2023-08-08T07:11:58.000Z</time>
      </trkpt>
      <trkpt lat="45.52879" lon="6.25829">
        <ele>1267.4000244141</ele>
        <time>2023-08-08T07:12:00.000Z</time>
      </trkpt>
      <trkpt lat="45.52875" lon="6.25828">
        <ele>1268.1999511719</ele>
        <time>2023-08-08T07:12:05.000Z</time>
      </trkpt>
      <trkpt lat="45.52871" lon="6.25827">
        <ele>1268.4000244141</ele>
        <time>2023-08-08T07:12:08.000Z</time>
      </trkpt>
      <trkpt lat="45.52868" lon="6.25825">
        <ele>1269.5999755859</ele>
        <time>2023-08-08T07:12:14.000Z</time>
      </trkpt>
      <trkpt lat="45.52864" lon="6.25826">
        <ele>1270.8000488281</ele>
        <time>2023-08-08T07:12:21.000Z</time>
      </trkpt>
      <trkpt lat="45.52863" lon="6.25827">
        <ele>1271</ele>
        <time>2023-08-08T07:12:22.000Z</time>
      </trkpt>
      <trkpt lat="45.52857" lon="6.25826">
        <ele>1271.8000488281</ele>
        <time>2023-08-08T07:12:28.000Z</time>
      </trkpt>
      <trkpt lat="45.52856" lon="6.25826">
        <ele>1272</ele>
        <time>2023-08-08T07:12:29.000Z</time>
      </trkpt>
      <trkpt lat="45.52853" lon="6.25827">
        <ele>1273</ele>
        <time>2023-08-08T07:12:34.000Z</time>
      </trkpt>
      <trkpt lat="45.52851" lon="6.25827">
        <ele>1273.4000244141</ele>
        <time>2023-08-08T07:12:36.000Z</time>
      </trkpt>
      <trkpt lat="45.52849" lon="6.25828">
        <ele>1274</ele>
        <time>2023-08-08T07:12:39.000Z</time>
      </trkpt>
      <trkpt lat="45.52845" lon="6.25829">
        <ele>1274.8000488281</ele>
        <time>2023-08-08T07:12:44.000Z</time>
      </trkpt>
      <trkpt lat="45.52844" lon="6.25829">
        <ele>1275</ele>
        <time>2023-08-08T07:12:45.000Z</time>
      </trkpt>
      <trkpt lat="45.5284" lon="6.25828">
        <ele>1276.1999511719</ele>
        <time>2023-08-08T07:12:51.000Z</time>
      </trkpt>
      <trkpt lat="45.52838" lon="6.25827">
        <ele>1276.5999755859</ele>
        <time>2023-08-08T07:12:53.000Z</time>
      </trkpt>
      <trkpt lat="45.52835" lon="6.25827">
        <ele>1277.1999511719</ele>
        <time>2023-08-08T07:12:57.000Z</time>
      </trkpt>
      <trkpt lat="45.52831" lon="6.25828">
        <ele>1278.1999511719</ele>
        <time>2023-08-08T07:13:02.000Z</time>
      </trkpt>
      <trkpt lat="45.5283" lon="6.25829">
        <ele>1278.4000244141</ele>
        <time>2023-08-08T07:13:03.000Z</time>
      </trkpt>
      <trkpt lat="45.52825" lon="6.2583">
        <ele>1279.5999755859</ele>
        <time>2023-08-08T07:13:09.000Z</time>
      </trkpt>
      <trkpt lat="45.52825" lon="6.2583">
        <ele>1279.5999755859</ele>
        <time>2023-08-08T07:13:10.000Z</time>
      </trkpt>
      <trkpt lat="45.5282" lon="6.25834">
        <ele>1280.5999755859</ele>
        <time>2023-08-08T07:13:17.000Z</time>
      </trkpt>
      <trkpt lat="45.52819" lon="6.25835">
        <ele>1280.8000488281</ele>
        <time>2023-08-08T07:13:18.000Z</time>
      </trkpt>
      <trkpt lat="45.52814" lon="6.25838">
        <ele>1281.8000488281</ele>
        <time>2023-08-08T07:13:24.000Z</time>
      </trkpt>
      <trkpt lat="45.52812" lon="6.25836">
        <ele>1282</ele>
        <time>2023-08-08T07:13:26.000Z</time>
      </trkpt>
      <trkpt lat="45.52811" lon="6.25835">
        <ele>1282.1999511719</ele>
        <time>2023-08-08T07:13:28.000Z</time>
      </trkpt>
      <trkpt lat="45.52809" lon="6.25832">
        <ele>1282.4000244141</ele>
        <time>2023-08-08T07:13:34.000Z</time>
      </trkpt>
      <trkpt lat="45.52807" lon="6.25837">
        <ele>1282.1999511719</ele>
        <time>2023-08-08T07:13:42.000Z</time>
      </trkpt>
      <trkpt lat="45.528" lon="6.25844">
        <ele>1282.5999755859</ele>
        <time>2023-08-08T07:13:49.000Z</time>
      </trkpt>
      <trkpt lat="45.52799" lon="6.25845">
        <ele>1282.8000488281</ele>
        <time>2023-08-08T07:13:50.000Z</time>
      </trkpt>
      <trkpt lat="45.5279" lon="6.2585">
        <ele>1283.4000244141</ele>
        <time>2023-08-08T07:13:57.000Z</time>
      </trkpt>
      <trkpt lat="45.52786" lon="6.25849">
        <ele>1283.8000488281</ele>
        <time>2023-08-08T07:14:02.000Z</time>
      </trkpt>
      <trkpt lat="45.52783" lon="6.25849">
        <ele>1284</ele>
        <time>2023-08-08T07:14:04.000Z</time>
      </trkpt>
      <trkpt lat="45.52773" lon="6.2585">
        <ele>1284.4000244141</ele>
        <time>2023-08-08T07:14:13.000Z</time>
      </trkpt>
      <trkpt lat="45.52764" lon="6.25851">
        <ele>1284.8000488281</ele>
        <time>2023-08-08T07:14:20.000Z</time>
      </trkpt>
      <trkpt lat="45.52754" lon="6.25848">
        <ele>1285.1999511719</ele>
        <time>2023-08-08T07:14:27.000Z</time>
      </trkpt>
      <trkpt lat="45.52744" lon="6.2584">
        <ele>1285.8000488281</ele>
        <time>2023-08-08T07:14:35.000Z</time>
      </trkpt>
      <trkpt lat="45.5274" lon="6.25838">
        <ele>1286</ele>
        <time>2023-08-08T07:14:38.000Z</time>
      </trkpt>
      <trkpt lat="45.52734" lon="6.25834">
        <ele>1286.4000244141</ele>
        <time>2023-08-08T07:14:42.000Z</time>
      </trkpt>
      <trkpt lat="45.52731" lon="6.25822">
        <ele>1286.8000488281</ele>
        <time>2023-08-08T07:14:50.000Z</time>
      </trkpt>
      <trkpt lat="45.5273" lon="6.25819">
        <ele>1287</ele>
        <time>2023-08-08T07:14:52.000Z</time>
      </trkpt>
      <trkpt lat="45.52725" lon="6.25808">
        <ele>1288</ele>
        <time>2023-08-08T07:14:57.000Z</time>
      </trkpt>
      <trkpt lat="45.52724" lon="6.25806">
        <ele>1288.1999511719</ele>
        <time>2023-08-08T07:14:58.000Z</time>
      </trkpt>
      <trkpt lat="45.52719" lon="6.25795">
        <ele>1289.1999511719</ele>
        <time>2023-08-08T07:15:05.000Z</time>
      </trkpt>
      <trkpt lat="45.52718" lon="6.25793">
        <ele>1289.4000244141</ele>
        <time>2023-08-08T07:15:06.000Z</time>
      </trkpt>
      <trkpt lat="45.52716" lon="6.25784">
        <ele>1290.4000244141</ele>
        <time>2023-08-08T07:15:11.000Z</time>
      </trkpt>
      <trkpt lat="45.52717" lon="6.2578">
        <ele>1290.5999755859</ele>
        <time>2023-08-08T07:15:13.000Z</time>
      </trkpt>
      <trkpt lat="45.52722" lon="6.25775">
        <ele>1290.8000488281</ele>
        <time>2023-08-08T07:15:18.000Z</time>
      </trkpt>
      <trkpt lat="45.52724" lon="6.25776">
        <ele>1290.8000488281</ele>
        <time>2023-08-08T07:15:19.000Z</time>
      </trkpt>
      <trkpt lat="45.52728" lon="6.25776">
        <ele>1291</ele>
        <time>2023-08-08T07:15:26.000Z</time>
      </trkpt>
      <trkpt lat="45.52723" lon="6.25775">
        <ele>1290.5999755859</ele>
        <time>2023-08-08T07:15:33.000Z</time>
      </trkpt>
      <trkpt lat="45.52715" lon="6.25775">
        <ele>1290.4000244141</ele>
        <time>2023-08-08T07:15:42.000Z</time>
      </trkpt>
      <trkpt lat="45.52714" lon="6.25775">
        <ele>1290.4000244141</ele>
        <time>2023-08-08T07:15:51.000Z</time>
      </trkpt>
      <trkpt lat="45.52722" lon="6.25774">
        <ele>1290.4000244141</ele>
        <time>2023-08-08T07:16:01.000Z</time>
      </trkpt>
      <trkpt lat="45.52726" lon="6.25773">
        <ele>1290.4000244141</ele>
        <time>2023-08-08T07:16:07.000Z</time>
      </trkpt>
      <trkpt lat="45.52725" lon="6.25776">
        <ele>1290.5999755859</ele>
        <time>2023-08-08T07:16:14.000Z</time>
      </trkpt>
      <trkpt lat="45.52723" lon="6.2578">
        <ele>1290.8000488281</ele>
        <time>2023-08-08T07:16:19.000Z</time>
      </trkpt>
      <trkpt lat="45.52708" lon="6.25792">
        <ele>1291</ele>
        <time>2023-08-08T07:16:54.000Z</time>
      </trkpt>
      <trkpt lat="45.52706" lon="6.25794">
        <ele>1291.4000244141</ele>
        <time>2023-08-08T07:16:57.000Z</time>
      </trkpt>
      <trkpt lat="45.52705" lon="6.25794">
        <ele>1291.5999755859</ele>
        <time>2023-08-08T07:16:59.000Z</time>
      </trkpt>
      <trkpt lat="45.52702" lon="6.25798">
        <ele>1292.4000244141</ele>
        <time>2023-08-08T07:17:05.000Z</time>
      </trkpt>
      <trkpt lat="45.527" lon="6.258">
        <ele>1293.5999755859</ele>
        <time>2023-08-08T07:17:10.000Z</time>
      </trkpt>
      <trkpt lat="45.52698" lon="6.25798">
        <ele>1294.5999755859</ele>
        <time>2023-08-08T07:17:14.000Z</time>
      </trkpt>
      <trkpt lat="45.52697" lon="6.25798">
        <ele>1295.4000244141</ele>
        <time>2023-08-08T07:17:18.000Z</time>
      </trkpt>
      <trkpt lat="45.52698" lon="6.25798">
        <ele>1295.8000488281</ele>
        <time>2023-08-08T07:17:20.000Z</time>
      </trkpt>
      <trkpt lat="45.52702" lon="6.25801">
        <ele>1296.1999511719</ele>
        <time>2023-08-08T07:17:36.000Z</time>
      </trkpt>
      <trkpt lat="45.52703" lon="6.25799">
        <ele>1296.1999511719</ele>
        <time>2023-08-08T07:17:43.000Z</time>
      </trkpt>
      <trkpt lat="45.52698" lon="6.25801">
        <ele>1296.1999511719</ele>
        <time>2023-08-08T07:17:49.000Z</time>
      </trkpt>
      <trkpt lat="45.52688" lon="6.25805">
        <ele>1299.1999511719</ele>
        <time>2023-08-08T07:18:03.000Z</time>
      </trkpt>
      <trkpt lat="45.52687" lon="6.25807">
        <ele>1299.5999755859</ele>
        <time>2023-08-08T07:18:05.000Z</time>
      </trkpt>
      <trkpt lat="45.52683" lon="6.2581">
        <ele>1301.5999755859</ele>
        <time>2023-08-08T07:18:13.000Z</time>
      </trkpt>
      <trkpt lat="45.5268" lon="6.25814">
        <ele>1302.1999511719</ele>
        <time>2023-08-08T07:18:16.000Z</time>
      </trkpt>
      <trkpt lat="45.52675" lon="6.25817">
        <ele>1304</ele>
        <time>2023-08-08T07:18:23.000Z</time>
      </trkpt>
      <trkpt lat="45.52672" lon="6.2582">
        <ele>1304.8000488281</ele>
        <time>2023-08-08T07:18:27.000Z</time>
      </trkpt>
      <trkpt lat="45.52671" lon="6.2582">
        <ele>1305.1999511719</ele>
        <time>2023-08-08T07:18:28.000Z</time>
      </trkpt>
      <trkpt lat="45.52666" lon="6.25822">
        <ele>1306.1999511719</ele>
        <time>2023-08-08T07:18:33.000Z</time>
      </trkpt>
      <trkpt lat="45.52666" lon="6.25823">
        <ele>1306.4000244141</ele>
        <time>2023-08-08T07:18:34.000Z</time>
      </trkpt>
      <trkpt lat="45.52663" lon="6.25824">
        <ele>1307.1999511719</ele>
        <time>2023-08-08T07:18:38.000Z</time>
      </trkpt>
      <trkpt lat="45.52664" lon="6.25826">
        <ele>1307.8000488281</ele>
        <time>2023-08-08T07:18:41.000Z</time>
      </trkpt>
      <trkpt lat="45.52666" lon="6.25829">
        <ele>1308</ele>
        <time>2023-08-08T07:18:51.000Z</time>
      </trkpt>
      <trkpt lat="45.52663" lon="6.25826">
        <ele>1307.8000488281</ele>
        <time>2023-08-08T07:18:57.000Z</time>
      </trkpt>
      <trkpt lat="45.52661" lon="6.25828">
        <ele>1307.8000488281</ele>
        <time>2023-08-08T07:19:06.000Z</time>
      </trkpt>
      <trkpt lat="45.52658" lon="6.25832">
        <ele>1308.4000244141</ele>
        <time>2023-08-08T07:19:13.000Z</time>
      </trkpt>
      <trkpt lat="45.52657" lon="6.25832">
        <ele>1308.8000488281</ele>
        <time>2023-08-08T07:19:15.000Z</time>
      </trkpt>
      <trkpt lat="45.52653" lon="6.25835">
        <ele>1310.1999511719</ele>
        <time>2023-08-08T07:19:23.000Z</time>
      </trkpt>
      <trkpt lat="45.52652" lon="6.25838">
        <ele>1310.8000488281</ele>
        <time>2023-08-08T07:19:26.000Z</time>
      </trkpt>
      <trkpt lat="45.52652" lon="6.25839">
        <ele>1311</ele>
        <time>2023-08-08T07:19:27.000Z</time>
      </trkpt>
      <trkpt lat="45.52649" lon="6.25845">
        <ele>1312</ele>
        <time>2023-08-08T07:19:32.000Z</time>
      </trkpt>
      <trkpt lat="45.52645" lon="6.25851">
        <ele>1312.5999755859</ele>
        <time>2023-08-08T07:19:36.000Z</time>
      </trkpt>
      <trkpt lat="45.52644" lon="6.25853">
        <ele>1313</ele>
        <time>2023-08-08T07:19:38.000Z</time>
      </trkpt>
      <trkpt lat="45.52641" lon="6.25856">
        <ele>1314</ele>
        <time>2023-08-08T07:19:43.000Z</time>
      </trkpt>
      <trkpt lat="45.5264" lon="6.25858">
        <ele>1314.4000244141</ele>
        <time>2023-08-08T07:19:45.000Z</time>
      </trkpt>
      <trkpt lat="45.52639" lon="6.2586">
        <ele>1315.4000244141</ele>
        <time>2023-08-08T07:19:49.000Z</time>
      </trkpt>
      <trkpt lat="45.52636" lon="6.25864">
        <ele>1316.1999511719</ele>
        <time>2023-08-08T07:19:53.000Z</time>
      </trkpt>
      <trkpt lat="45.52635" lon="6.25864">
        <ele>1316.4000244141</ele>
        <time>2023-08-08T07:19:54.000Z</time>
      </trkpt>
      <trkpt lat="45.52631" lon="6.25868">
        <ele>1317.5999755859</ele>
        <time>2023-08-08T07:20:00.000Z</time>
      </trkpt>
      <trkpt lat="45.5263" lon="6.25869">
        <ele>1317.8000488281</ele>
        <time>2023-08-08T07:20:01.000Z</time>
      </trkpt>
      <trkpt lat="45.52627" lon="6.25871">
        <ele>1318.5999755859</ele>
        <time>2023-08-08T07:20:05.000Z</time>
      </trkpt>
      <trkpt lat="45.52623" lon="6.25873">
        <ele>1319.5999755859</ele>
        <time>2023-08-08T07:20:10.000Z</time>
      </trkpt>
      <trkpt lat="45.52622" lon="6.25873">
        <ele>1319.8000488281</ele>
        <time>2023-08-08T07:20:11.000Z</time>
      </trkpt>
      <trkpt lat="45.52617" lon="6.25876">
        <ele>1320.8000488281</ele>
        <time>2023-08-08T07:20:17.000Z</time>
      </trkpt>
      <trkpt lat="45.52614" lon="6.25878">
        <ele>1321.1999511719</ele>
        <time>2023-08-08T07:20:19.000Z</time>
      </trkpt>
      <trkpt lat="45.52609" lon="6.2588">
        <ele>1321.8000488281</ele>
        <time>2023-08-08T07:20:25.000Z</time>
      </trkpt>
      <trkpt lat="45.52608" lon="6.25881">
        <ele>1321.8000488281</ele>
        <time>2023-08-08T07:20:28.000Z</time>
      </trkpt>
      <trkpt lat="45.52599" lon="6.25889">
        <ele>1321.4000244141</ele>
        <time>2023-08-08T07:20:37.000Z</time>
      </trkpt>
      <trkpt lat="45.526" lon="6.2589">
        <ele>1321.4000244141</ele>
        <time>2023-08-08T07:20:44.000Z</time>
      </trkpt>
      <trkpt lat="45.52599" lon="6.25886">
        <ele>1321.5999755859</ele>
        <time>2023-08-08T07:20:52.000Z</time>
      </trkpt>
      <trkpt lat="45.52599" lon="6.25887">
        <ele>1321.4000244141</ele>
        <time>2023-08-08T07:20:58.000Z</time>
      </trkpt>
      <trkpt lat="45.52591" lon="6.25895">
        <ele>1321.4000244141</ele>
        <time>2023-08-08T07:21:06.000Z</time>
      </trkpt>
      <trkpt lat="45.52583" lon="6.25904">
        <ele>1321.8000488281</ele>
        <time>2023-08-08T07:21:14.000Z</time>
      </trkpt>
      <trkpt lat="45.52578" lon="6.25908">
        <ele>1322</ele>
        <time>2023-08-08T07:21:20.000Z</time>
      </trkpt>
      <trkpt lat="45.52573" lon="6.25915">
        <ele>1322</ele>
        <time>2023-08-08T07:21:27.000Z</time>
      </trkpt>
      <trkpt lat="45.52566" lon="6.25927">
        <ele>1322</ele>
        <time>2023-08-08T07:21:33.000Z</time>
      </trkpt>
      <trkpt lat="45.52562" lon="6.25942">
        <ele>1322</ele>
        <time>2023-08-08T07:21:41.000Z</time>
      </trkpt>
      <trkpt lat="45.52555" lon="6.25957">
        <ele>1322.5999755859</ele>
        <time>2023-08-08T07:21:50.000Z</time>
      </trkpt>
      <trkpt lat="45.52554" lon="6.25959">
        <ele>1322.8000488281</ele>
        <time>2023-08-08T07:21:51.000Z</time>
      </trkpt>
      <trkpt lat="45.52549" lon="6.25968">
        <ele>1324</ele>
        <time>2023-08-08T07:21:58.000Z</time>
      </trkpt>
      <trkpt lat="45.52544" lon="6.25973">
        <ele>1325</ele>
        <time>2023-08-08T07:22:04.000Z</time>
      </trkpt>
      <trkpt lat="45.52544" lon="6.25973">
        <ele>1325.1999511719</ele>
        <time>2023-08-08T07:22:05.000Z</time>
      </trkpt>
      <trkpt lat="45.52535" lon="6.25981">
        <ele>1326</ele>
        <time>2023-08-08T07:22:12.000Z</time>
      </trkpt>
      <trkpt lat="45.52534" lon="6.25982">
        <ele>1326.1999511719</ele>
        <time>2023-08-08T07:22:13.000Z</time>
      </trkpt>
      <trkpt lat="45.52527" lon="6.25986">
        <ele>1327.1999511719</ele>
        <time>2023-08-08T07:22:20.000Z</time>
      </trkpt>
      <trkpt lat="45.52526" lon="6.25986">
        <ele>1327.1999511719</ele>
        <time>2023-08-08T07:22:21.000Z</time>
      </trkpt>
      <trkpt lat="45.52523" lon="6.25988">
        <ele>1328.4000244141</ele>
        <time>2023-08-08T07:22:27.000Z</time>
      </trkpt>
      <trkpt lat="45.5252" lon="6.25989">
        <ele>1328.8000488281</ele>
        <time>2023-08-08T07:22:30.000Z</time>
      </trkpt>
      <trkpt lat="45.52514" lon="6.25994">
        <ele>1329.4000244141</ele>
        <time>2023-08-08T07:22:34.000Z</time>
      </trkpt>
      <trkpt lat="45.52511" lon="6.25997">
        <ele>1330</ele>
        <time>2023-08-08T07:22:37.000Z</time>
      </trkpt>
      <trkpt lat="45.52506" lon="6.26001">
        <ele>1330.4000244141</ele>
        <time>2023-08-08T07:22:41.000Z</time>
      </trkpt>
      <trkpt lat="45.52503" lon="6.26003">
        <ele>1330.5999755859</ele>
        <time>2023-08-08T07:22:44.000Z</time>
      </trkpt>
      <trkpt lat="45.52495" lon="6.26008">
        <ele>1330.5999755859</ele>
        <time>2023-08-08T07:22:51.000Z</time>
      </trkpt>
      <trkpt lat="45.52484" lon="6.26016">
        <ele>1330.1999511719</ele>
        <time>2023-08-08T07:22:59.000Z</time>
      </trkpt>
      <trkpt lat="45.52474" lon="6.26013">
        <ele>1329.4000244141</ele>
        <time>2023-08-08T07:23:08.000Z</time>
      </trkpt>
      <trkpt lat="45.52461" lon="6.26008">
        <ele>1328.4000244141</ele>
        <time>2023-08-08T07:23:17.000Z</time>
      </trkpt>
      <trkpt lat="45.5246" lon="6.26007">
        <ele>1328.1999511719</ele>
        <time>2023-08-08T07:23:18.000Z</time>
      </trkpt>
      <trkpt lat="45.52456" lon="6.26002">
        <ele>1327.4000244141</ele>
        <time>2023-08-08T07:23:24.000Z</time>
      </trkpt>
      <trkpt lat="45.52454" lon="6.25997">
        <ele>1327.1999511719</ele>
        <time>2023-08-08T07:23:34.000Z</time>
      </trkpt>
      <trkpt lat="45.52454" lon="6.25997">
        <ele>1327.1999511719</ele>
        <time>2023-08-08T07:23:36.000Z</time>
      </trkpt>
      <trkpt lat="45.52453" lon="6.25997">
        <ele>1327</ele>
        <time>2023-08-08T07:23:43.000Z</time>
      </trkpt>
      <trkpt lat="45.52449" lon="6.25998">
        <ele>1326.8000488281</ele>
        <time>2023-08-08T07:23:50.000Z</time>
      </trkpt>
      <trkpt lat="45.52442" lon="6.25992">
        <ele>1325.8000488281</ele>
        <time>2023-08-08T07:23:56.000Z</time>
      </trkpt>
      <trkpt lat="45.52441" lon="6.25992">
        <ele>1325.8000488281</ele>
        <time>2023-08-08T07:23:58.000Z</time>
      </trkpt>
      <trkpt lat="45.52404" lon="6.2599">
        <ele>1331.4000244141</ele>
        <time>2023-08-08T07:24:43.000Z</time>
      </trkpt>
      <trkpt lat="45.524" lon="6.25995">
        <ele>1331.1999511719</ele>
        <time>2023-08-08T07:24:51.000Z</time>
      </trkpt>
      <trkpt lat="45.52403" lon="6.25985">
        <ele>1331.1999511719</ele>
        <time>2023-08-08T07:25:00.000Z</time>
      </trkpt>
      <trkpt lat="45.52403" lon="6.25982">
        <ele>1331</ele>
        <time>2023-08-08T07:25:11.000Z</time>
      </trkpt>
      <trkpt lat="45.52398" lon="6.25978">
        <ele>1330.1999511719</ele>
        <time>2023-08-08T07:25:18.000Z</time>
      </trkpt>
      <trkpt lat="45.52396" lon="6.25975">
        <ele>1330</ele>
        <time>2023-08-08T07:25:20.000Z</time>
      </trkpt>
      <trkpt lat="45.5239" lon="6.2597">
        <ele>1330</ele>
        <time>2023-08-08T07:25:27.000Z</time>
      </trkpt>
      <trkpt lat="45.5239" lon="6.25969">
        <ele>1330</ele>
        <time>2023-08-08T07:25:33.000Z</time>
      </trkpt>
      <trkpt lat="45.52392" lon="6.25967">
        <ele>1330</ele>
        <time>2023-08-08T07:25:40.000Z</time>
      </trkpt>
      <trkpt lat="45.52386" lon="6.25969">
        <ele>1330.5999755859</ele>
        <time>2023-08-08T07:26:11.000Z</time>
      </trkpt>
      <trkpt lat="45.52385" lon="6.25969">
        <ele>1331.1999511719</ele>
        <time>2023-08-08T07:26:13.000Z</time>
      </trkpt>
      <trkpt lat="45.52382" lon="6.25968">
        <ele>1332.4000244141</ele>
        <time>2023-08-08T07:26:18.000Z</time>
      </trkpt>
      <trkpt lat="45.52381" lon="6.25965">
        <ele>1333.5999755859</ele>
        <time>2023-08-08T07:26:23.000Z</time>
      </trkpt>
      <trkpt lat="45.52381" lon="6.25963">
        <ele>1334</ele>
        <time>2023-08-08T07:26:25.000Z</time>
      </trkpt>
      <trkpt lat="45.52379" lon="6.2596">
        <ele>1334.8000488281</ele>
        <time>2023-08-08T07:26:29.000Z</time>
      </trkpt>
      <trkpt lat="45.52375" lon="6.25954">
        <ele>1335.8000488281</ele>
        <time>2023-08-08T07:26:34.000Z</time>
      </trkpt>
      <trkpt lat="45.5237" lon="6.25951">
        <ele>1337</ele>
        <time>2023-08-08T07:26:40.000Z</time>
      </trkpt>
      <trkpt lat="45.52367" lon="6.25948">
        <ele>1337.5999755859</ele>
        <time>2023-08-08T07:26:43.000Z</time>
      </trkpt>
      <trkpt lat="45.52365" lon="6.25947">
        <ele>1338.1999511719</ele>
        <time>2023-08-08T07:26:46.000Z</time>
      </trkpt>
      <trkpt lat="45.52361" lon="6.25945">
        <ele>1339.1999511719</ele>
        <time>2023-08-08T07:26:51.000Z</time>
      </trkpt>
      <trkpt lat="45.52361" lon="6.25945">
        <ele>1339.4000244141</ele>
        <time>2023-08-08T07:26:52.000Z</time>
      </trkpt>
      <trkpt lat="45.5236" lon="6.25942">
        <ele>1340.5999755859</ele>
        <time>2023-08-08T07:26:58.000Z</time>
      </trkpt>
      <trkpt lat="45.5236" lon="6.25941">
        <ele>1340.8000488281</ele>
        <time>2023-08-08T07:26:59.000Z</time>
      </trkpt>
      <trkpt lat="45.52357" lon="6.25937">
        <ele>1341.5999755859</ele>
        <time>2023-08-08T07:27:05.000Z</time>
      </trkpt>
      <trkpt lat="45.52355" lon="6.25935">
        <ele>1341.8000488281</ele>
        <time>2023-08-08T07:27:07.000Z</time>
      </trkpt>
      <trkpt lat="45.5235" lon="6.25934">
        <ele>1342.5999755859</ele>
        <time>2023-08-08T07:27:12.000Z</time>
      </trkpt>
      <trkpt lat="45.52343" lon="6.25932">
        <ele>1343.4000244141</ele>
        <time>2023-08-08T07:27:17.000Z</time>
      </trkpt>
      <trkpt lat="45.52341" lon="6.25931">
        <ele>1343.8000488281</ele>
        <time>2023-08-08T07:27:20.000Z</time>
      </trkpt>
      <trkpt lat="45.52338" lon="6.25929">
        <ele>1344.5999755859</ele>
        <time>2023-08-08T07:27:27.000Z</time>
      </trkpt>
      <trkpt lat="45.52338" lon="6.25929">
        <ele>1344.8000488281</ele>
        <time>2023-08-08T07:27:28.000Z</time>
      </trkpt>
      <trkpt lat="45.52333" lon="6.2593">
        <ele>1345.8000488281</ele>
        <time>2023-08-08T07:27:34.000Z</time>
      </trkpt>
      <trkpt lat="45.5233" lon="6.25929">
        <ele>1346.5999755859</ele>
        <time>2023-08-08T07:27:39.000Z</time>
      </trkpt>
      <trkpt lat="45.52329" lon="6.25928">
        <ele>1346.8000488281</ele>
        <time>2023-08-08T07:27:41.000Z</time>
      </trkpt>
      <trkpt lat="45.52318" lon="6.25928">
        <ele>1348</ele>
        <time>2023-08-08T07:27:50.000Z</time>
      </trkpt>
      <trkpt lat="45.52307" lon="6.25924">
        <ele>1348.4000244141</ele>
        <time>2023-08-08T07:28:00.000Z</time>
      </trkpt>
      <trkpt lat="45.52298" lon="6.25923">
        <ele>1348.4000244141</ele>
        <time>2023-08-08T07:28:08.000Z</time>
      </trkpt>
      <trkpt lat="45.52286" lon="6.25919">
        <ele>1348.8000488281</ele>
        <time>2023-08-08T07:28:16.000Z</time>
      </trkpt>
      <trkpt lat="45.52283" lon="6.25919">
        <ele>1349</ele>
        <time>2023-08-08T07:28:19.000Z</time>
      </trkpt>
      <trkpt lat="45.52278" lon="6.2592">
        <ele>1349.1999511719</ele>
        <time>2023-08-08T07:28:24.000Z</time>
      </trkpt>
      <trkpt lat="45.52268" lon="6.25921">
        <ele>1349.4000244141</ele>
        <time>2023-08-08T07:28:33.000Z</time>
      </trkpt>
      <trkpt lat="45.52259" lon="6.25922">
        <ele>1350.1999511719</ele>
        <time>2023-08-08T07:28:41.000Z</time>
      </trkpt>
      <trkpt lat="45.52251" lon="6.25922">
        <ele>1351.1999511719</ele>
        <time>2023-08-08T07:28:49.000Z</time>
      </trkpt>
      <trkpt lat="45.52246" lon="6.25923">
        <ele>1352.4000244141</ele>
        <time>2023-08-08T07:28:55.000Z</time>
      </trkpt>
      <trkpt lat="45.52244" lon="6.25923">
        <ele>1353</ele>
        <time>2023-08-08T07:28:58.000Z</time>
      </trkpt>
      <trkpt lat="45.52242" lon="6.25923">
        <ele>1353.4000244141</ele>
        <time>2023-08-08T07:29:01.000Z</time>
      </trkpt>
      <trkpt lat="45.52235" lon="6.25922">
        <ele>1354.4000244141</ele>
        <time>2023-08-08T07:29:06.000Z</time>
      </trkpt>
      <trkpt lat="45.52234" lon="6.25922">
        <ele>1354.5999755859</ele>
        <time>2023-08-08T07:29:07.000Z</time>
      </trkpt>
      <trkpt lat="45.52226" lon="6.25922">
        <ele>1355.5999755859</ele>
        <time>2023-08-08T07:29:14.000Z</time>
      </trkpt>
      <trkpt lat="45.52224" lon="6.25922">
        <ele>1356</ele>
        <time>2023-08-08T07:29:17.000Z</time>
      </trkpt>
      <trkpt lat="45.52217" lon="6.25919">
        <ele>1356.5999755859</ele>
        <time>2023-08-08T07:29:23.000Z</time>
      </trkpt>
      <trkpt lat="45.52214" lon="6.25921">
        <ele>1356.8000488281</ele>
        <time>2023-08-08T07:29:26.000Z</time>
      </trkpt>
      <trkpt lat="45.52207" lon="6.25929">
        <ele>1357.1999511719</ele>
        <time>2023-08-08T07:29:33.000Z</time>
      </trkpt>
      <trkpt lat="45.52201" lon="6.25936">
        <ele>1357</ele>
        <time>2023-08-08T07:29:39.000Z</time>
      </trkpt>
      <trkpt lat="45.52199" lon="6.25944">
        <ele>1356.1999511719</ele>
        <time>2023-08-08T07:29:46.000Z</time>
      </trkpt>
      <trkpt lat="45.52199" lon="6.25947">
        <ele>1356.1999511719</ele>
        <time>2023-08-08T07:29:50.000Z</time>
      </trkpt>
      <trkpt lat="45.522" lon="6.25949">
        <ele>1356.1999511719</ele>
        <time>2023-08-08T07:29:56.000Z</time>
      </trkpt>
      <trkpt lat="45.522" lon="6.25949">
        <ele>1356.1999511719</ele>
        <time>2023-08-08T07:29:57.000Z</time>
      </trkpt>
      <trkpt lat="45.52196" lon="6.25954">
        <ele>1356</ele>
        <time>2023-08-08T07:30:06.000Z</time>
      </trkpt>
      <trkpt lat="45.52193" lon="6.25958">
        <ele>1355.5999755859</ele>
        <time>2023-08-08T07:30:18.000Z</time>
      </trkpt>
      <trkpt lat="45.52184" lon="6.25968">
        <ele>1355</ele>
        <time>2023-08-08T07:30:28.000Z</time>
      </trkpt>
      <trkpt lat="45.52177" lon="6.25975">
        <ele>1354.5999755859</ele>
        <time>2023-08-08T07:30:35.000Z</time>
      </trkpt>
      <trkpt lat="45.52176" lon="6.25977">
        <ele>1354.5999755859</ele>
        <time>2023-08-08T07:30:36.000Z</time>
      </trkpt>
      <trkpt lat="45.52168" lon="6.25989">
        <ele>1353.4000244141</ele>
        <time>2023-08-08T07:30:44.000Z</time>
      </trkpt>
      <trkpt lat="45.52167" lon="6.25991">
        <ele>1353.4000244141</ele>
        <time>2023-08-08T07:30:45.000Z</time>
      </trkpt>
      <trkpt lat="45.52158" lon="6.25999">
        <ele>1352.5999755859</ele>
        <time>2023-08-08T07:30:51.000Z</time>
      </trkpt>
      <trkpt lat="45.52157" lon="6.26001">
        <ele>1352.4000244141</ele>
        <time>2023-08-08T07:30:52.000Z</time>
      </trkpt>
      <trkpt lat="45.52151" lon="6.26019">
        <ele>1351.5999755859</ele>
        <time>2023-08-08T07:31:00.000Z</time>
      </trkpt>
      <trkpt lat="45.52155" lon="6.26027">
        <ele>1351.4000244141</ele>
        <time>2023-08-08T07:31:07.000Z</time>
      </trkpt>
      <trkpt lat="45.52157" lon="6.26026">
        <ele>1351.4000244141</ele>
        <time>2023-08-08T07:31:08.000Z</time>
      </trkpt>
      <trkpt lat="45.52158" lon="6.26028">
        <ele>1351.1999511719</ele>
        <time>2023-08-08T07:31:16.000Z</time>
      </trkpt>
      <trkpt lat="45.52161" lon="6.2603">
        <ele>1351.1999511719</ele>
        <time>2023-08-08T07:31:21.000Z</time>
      </trkpt>
      <trkpt lat="45.52158" lon="6.26034">
        <ele>1351.1999511719</ele>
        <time>2023-08-08T07:31:26.000Z</time>
      </trkpt>
      <trkpt lat="45.52155" lon="6.26027">
        <ele>1351.1999511719</ele>
        <time>2023-08-08T07:31:37.000Z</time>
      </trkpt>
      <trkpt lat="45.52151" lon="6.26019">
        <ele>1351.1999511719</ele>
        <time>2023-08-08T07:31:43.000Z</time>
      </trkpt>
      <trkpt lat="45.5215" lon="6.26019">
        <ele>1351.1999511719</ele>
        <time>2023-08-08T07:31:44.000Z</time>
      </trkpt>
      <trkpt lat="45.52144" lon="6.26029">
        <ele>1351.4000244141</ele>
        <time>2023-08-08T07:31:53.000Z</time>
      </trkpt>
      <trkpt lat="45.5214" lon="6.26034">
        <ele>1351.4000244141</ele>
        <time>2023-08-08T07:32:00.000Z</time>
      </trkpt>
      <trkpt lat="45.52136" lon="6.26045">
        <ele>1351.1999511719</ele>
        <time>2023-08-08T07:32:09.000Z</time>
      </trkpt>
      <trkpt lat="45.52128" lon="6.2606">
        <ele>1351</ele>
        <time>2023-08-08T07:32:16.000Z</time>
      </trkpt>
      <trkpt lat="45.52123" lon="6.26065">
        <ele>1350.5999755859</ele>
        <time>2023-08-08T07:32:22.000Z</time>
      </trkpt>
      <trkpt lat="45.52118" lon="6.26072">
        <ele>1350.4000244141</ele>
        <time>2023-08-08T07:32:28.000Z</time>
      </trkpt>
      <trkpt lat="45.52117" lon="6.26073">
        <ele>1350.4000244141</ele>
        <time>2023-08-08T07:32:29.000Z</time>
      </trkpt>
      <trkpt lat="45.52109" lon="6.26087">
        <ele>1350.4000244141</ele>
        <time>2023-08-08T07:32:39.000Z</time>
      </trkpt>
      <trkpt lat="45.52109" lon="6.26092">
        <ele>1350.4000244141</ele>
        <time>2023-08-08T07:32:46.000Z</time>
      </trkpt>
      <trkpt lat="45.52109" lon="6.26092">
        <ele>1350.4000244141</ele>
        <time>2023-08-08T07:32:47.000Z</time>
      </trkpt>
      <trkpt lat="45.5211" lon="6.26091">
        <ele>1350.1999511719</ele>
        <time>2023-08-08T07:32:52.000Z</time>
      </trkpt>
      <trkpt lat="45.5211" lon="6.26091">
        <ele>1350.1999511719</ele>
        <time>2023-08-08T07:32:53.000Z</time>
      </trkpt>
      <trkpt lat="45.52113" lon="6.2609">
        <ele>1349.8000488281</ele>
        <time>2023-08-08T07:32:59.000Z</time>
      </trkpt>
      <trkpt lat="45.52118" lon="6.26088">
        <ele>1350</ele>
        <time>2023-08-08T07:33:06.000Z</time>
      </trkpt>
      <trkpt lat="45.52121" lon="6.26089">
        <ele>1350.1999511719</ele>
        <time>2023-08-08T07:33:12.000Z</time>
      </trkpt>
      <trkpt lat="45.52122" lon="6.26098">
        <ele>1350.4000244141</ele>
        <time>2023-08-08T07:33:19.000Z</time>
      </trkpt>
      <trkpt lat="45.5212" lon="6.2611">
        <ele>1351.1999511719</ele>
        <time>2023-08-08T07:33:27.000Z</time>
      </trkpt>
      <trkpt lat="45.5212" lon="6.26114">
        <ele>1351.4000244141</ele>
        <time>2023-08-08T07:33:29.000Z</time>
      </trkpt>
      <trkpt lat="45.5212" lon="6.26124">
        <ele>1352.1999511719</ele>
        <time>2023-08-08T07:33:34.000Z</time>
      </trkpt>
      <trkpt lat="45.52122" lon="6.2613">
        <ele>1352.5999755859</ele>
        <time>2023-08-08T07:33:38.000Z</time>
      </trkpt>
      <trkpt lat="45.52126" lon="6.26136">
        <ele>1353.1999511719</ele>
        <time>2023-08-08T07:33:43.000Z</time>
      </trkpt>
      <trkpt lat="45.52129" lon="6.26142">
        <ele>1353.5999755859</ele>
        <time>2023-08-08T07:33:46.000Z</time>
      </trkpt>
      <trkpt lat="45.52133" lon="6.26142">
        <ele>1354.1999511719</ele>
        <time>2023-08-08T07:33:50.000Z</time>
      </trkpt>
      <trkpt lat="45.52135" lon="6.26142">
        <ele>1354.1999511719</ele>
        <time>2023-08-08T07:33:51.000Z</time>
      </trkpt>
      <trkpt lat="45.52139" lon="6.26144">
        <ele>1354.8000488281</ele>
        <time>2023-08-08T07:33:55.000Z</time>
      </trkpt>
      <trkpt lat="45.52141" lon="6.26147">
        <ele>1355</ele>
        <time>2023-08-08T07:33:57.000Z</time>
      </trkpt>
      <trkpt lat="45.52144" lon="6.26157">
        <ele>1355.8000488281</ele>
        <time>2023-08-08T07:34:04.000Z</time>
      </trkpt>
      <trkpt lat="45.52145" lon="6.26159">
        <ele>1356</ele>
        <time>2023-08-08T07:34:05.000Z</time>
      </trkpt>
      <trkpt lat="45.52145" lon="6.26168">
        <ele>1356.8000488281</ele>
        <time>2023-08-08T07:34:12.000Z</time>
      </trkpt>
      <trkpt lat="45.52142" lon="6.26168">
        <ele>1357.1999511719</ele>
        <time>2023-08-08T07:34:15.000Z</time>
      </trkpt>
      <trkpt lat="45.52129" lon="6.26167">
        <ele>1358.1999511719</ele>
        <time>2023-08-08T07:34:28.000Z</time>
      </trkpt>
      <trkpt lat="45.52128" lon="6.26167">
        <ele>1358.4000244141</ele>
        <time>2023-08-08T07:34:29.000Z</time>
      </trkpt>
      <trkpt lat="45.52124" lon="6.26164">
        <ele>1358.8000488281</ele>
        <time>2023-08-08T07:34:32.000Z</time>
      </trkpt>
      <trkpt lat="45.52121" lon="6.26162">
        <ele>1359.4000244141</ele>
        <time>2023-08-08T07:34:36.000Z</time>
      </trkpt>
      <trkpt lat="45.52118" lon="6.26158">
        <ele>1360</ele>
        <time>2023-08-08T07:34:41.000Z</time>
      </trkpt>
      <trkpt lat="45.52116" lon="6.26154">
        <ele>1360.4000244141</ele>
        <time>2023-08-08T07:34:44.000Z</time>
      </trkpt>
      <trkpt lat="45.52111" lon="6.26147">
        <ele>1361</ele>
        <time>2023-08-08T07:34:49.000Z</time>
      </trkpt>
      <trkpt lat="45.52109" lon="6.26144">
        <ele>1361.5999755859</ele>
        <time>2023-08-08T07:34:53.000Z</time>
      </trkpt>
      <trkpt lat="45.52105" lon="6.26138">
        <ele>1362.1999511719</ele>
        <time>2023-08-08T07:34:58.000Z</time>
      </trkpt>
      <trkpt lat="45.52102" lon="6.26135">
        <ele>1362.5999755859</ele>
        <time>2023-08-08T07:35:02.000Z</time>
      </trkpt>
      <trkpt lat="45.52097" lon="6.26129">
        <ele>1363.1999511719</ele>
        <time>2023-08-08T07:35:07.000Z</time>
      </trkpt>
      <trkpt lat="45.52094" lon="6.26127">
        <ele>1363.5999755859</ele>
        <time>2023-08-08T07:35:10.000Z</time>
      </trkpt>
      <trkpt lat="45.5209" lon="6.26124">
        <ele>1364.4000244141</ele>
        <time>2023-08-08T07:35:15.000Z</time>
      </trkpt>
      <trkpt lat="45.52088" lon="6.26123">
        <ele>1364.5999755859</ele>
        <time>2023-08-08T07:35:17.000Z</time>
      </trkpt>
      <trkpt lat="45.5208" lon="6.2612">
        <ele>1365.4000244141</ele>
        <time>2023-08-08T07:35:23.000Z</time>
      </trkpt>
      <trkpt lat="45.52075" lon="6.26118">
        <ele>1365.8000488281</ele>
        <time>2023-08-08T07:35:26.000Z</time>
      </trkpt>
      <trkpt lat="45.52068" lon="6.26113">
        <ele>1366.4000244141</ele>
        <time>2023-08-08T07:35:31.000Z</time>
      </trkpt>
      <trkpt lat="45.52063" lon="6.26109">
        <ele>1367</ele>
        <time>2023-08-08T07:35:35.000Z</time>
      </trkpt>
      <trkpt lat="45.52059" lon="6.26107">
        <ele>1367.4000244141</ele>
        <time>2023-08-08T07:35:39.000Z</time>
      </trkpt>
      <trkpt lat="45.52057" lon="6.26114">
        <ele>1368</ele>
        <time>2023-08-08T07:35:45.000Z</time>
      </trkpt>
      <trkpt lat="45.52058" lon="6.26125">
        <ele>1368.5999755859</ele>
        <time>2023-08-08T07:35:50.000Z</time>
      </trkpt>
      <trkpt lat="45.52058" lon="6.26127">
        <ele>1368.5999755859</ele>
        <time>2023-08-08T07:35:51.000Z</time>
      </trkpt>
      <trkpt lat="45.52065" lon="6.26131">
        <ele>1369.5999755859</ele>
        <time>2023-08-08T07:35:57.000Z</time>
      </trkpt>
      <trkpt lat="45.52069" lon="6.26134">
        <ele>1370.5999755859</ele>
        <time>2023-08-08T07:36:05.000Z</time>
      </trkpt>
      <trkpt lat="45.52078" lon="6.26141">
        <ele>1371.5999755859</ele>
        <time>2023-08-08T07:36:13.000Z</time>
      </trkpt>
      <trkpt lat="45.52079" lon="6.26141">
        <ele>1371.8000488281</ele>
        <time>2023-08-08T07:36:14.000Z</time>
      </trkpt>
      <trkpt lat="45.52083" lon="6.26147">
        <ele>1372.5999755859</ele>
        <time>2023-08-08T07:36:21.000Z</time>
      </trkpt>
      <trkpt lat="45.52085" lon="6.26156">
        <ele>1373.5999755859</ele>
        <time>2023-08-08T07:36:28.000Z</time>
      </trkpt>
      <trkpt lat="45.52086" lon="6.26159">
        <ele>1373.8000488281</ele>
        <time>2023-08-08T07:36:30.000Z</time>
      </trkpt>
      <trkpt lat="45.52089" lon="6.26173">
        <ele>1374.5999755859</ele>
        <time>2023-08-08T07:36:37.000Z</time>
      </trkpt>
      <trkpt lat="45.5209" lon="6.26178">
        <ele>1375</ele>
        <time>2023-08-08T07:36:39.000Z</time>
      </trkpt>
      <trkpt lat="45.52091" lon="6.26187">
        <ele>1375.5999755859</ele>
        <time>2023-08-08T07:36:44.000Z</time>
      </trkpt>
      <trkpt lat="45.5209" lon="6.26192">
        <ele>1376</ele>
        <time>2023-08-08T07:36:46.000Z</time>
      </trkpt>
      <trkpt lat="45.5209" lon="6.26203">
        <ele>1376.8000488281</ele>
        <time>2023-08-08T07:36:53.000Z</time>
      </trkpt>
      <trkpt lat="45.5209" lon="6.26207">
        <ele>1377.1999511719</ele>
        <time>2023-08-08T07:36:56.000Z</time>
      </trkpt>
      <trkpt lat="45.5209" lon="6.26216">
        <ele>1377.8000488281</ele>
        <time>2023-08-08T07:37:01.000Z</time>
      </trkpt>
      <trkpt lat="45.5209" lon="6.26224">
        <ele>1378.1999511719</ele>
        <time>2023-08-08T07:37:05.000Z</time>
      </trkpt>
      <trkpt lat="45.52089" lon="6.26231">
        <ele>1378.5999755859</ele>
        <time>2023-08-08T07:37:09.000Z</time>
      </trkpt>
      <trkpt lat="45.52089" lon="6.26242">
        <ele>1379.4000244141</ele>
        <time>2023-08-08T07:37:15.000Z</time>
      </trkpt>
      <trkpt lat="45.52088" lon="6.26247">
        <ele>1379.4000244141</ele>
        <time>2023-08-08T07:37:18.000Z</time>
      </trkpt>
      <trkpt lat="45.52085" lon="6.2626">
        <ele>1380</ele>
        <time>2023-08-08T07:37:29.000Z</time>
      </trkpt>
      <trkpt lat="45.52084" lon="6.2626">
        <ele>1380</ele>
        <time>2023-08-08T07:37:32.000Z</time>
      </trkpt>
      <trkpt lat="45.52084" lon="6.26256">
        <ele>1380</ele>
        <time>2023-08-08T07:37:34.000Z</time>
      </trkpt>
      <trkpt lat="45.5208" lon="6.26252">
        <ele>1380</ele>
        <time>2023-08-08T07:37:40.000Z</time>
      </trkpt>
      <trkpt lat="45.52075" lon="6.26246">
        <ele>1380</ele>
        <time>2023-08-08T07:37:48.000Z</time>
      </trkpt>
      <trkpt lat="45.52073" lon="6.26246">
        <ele>1380</ele>
        <time>2023-08-08T07:38:00.000Z</time>
      </trkpt>
      <trkpt lat="45.52061" lon="6.26242">
        <ele>1380</ele>
        <time>2023-08-08T07:38:25.000Z</time>
      </trkpt>
      <trkpt lat="45.52065" lon="6.26246">
        <ele>1379.8000488281</ele>
        <time>2023-08-08T07:38:35.000Z</time>
      </trkpt>
      <trkpt lat="45.52074" lon="6.26249">
        <ele>1379.8000488281</ele>
        <time>2023-08-08T07:38:41.000Z</time>
      </trkpt>
      <trkpt lat="45.5208" lon="6.26255">
        <ele>1379.5999755859</ele>
        <time>2023-08-08T07:38:47.000Z</time>
      </trkpt>
      <trkpt lat="45.52081" lon="6.26264">
        <ele>1379.4000244141</ele>
        <time>2023-08-08T07:38:55.000Z</time>
      </trkpt>
      <trkpt lat="45.52084" lon="6.26276">
        <ele>1379.1999511719</ele>
        <time>2023-08-08T07:39:02.000Z</time>
      </trkpt>
      <trkpt lat="45.5209" lon="6.26293">
        <ele>1378.4000244141</ele>
        <time>2023-08-08T07:39:11.000Z</time>
      </trkpt>
      <trkpt lat="45.52091" lon="6.26296">
        <ele>1378.1999511719</ele>
        <time>2023-08-08T07:39:12.000Z</time>
      </trkpt>
      <trkpt lat="45.52093" lon="6.26305">
        <ele>1377.4000244141</ele>
        <time>2023-08-08T07:39:17.000Z</time>
      </trkpt>
      <trkpt lat="45.52094" lon="6.26307">
        <ele>1377.1999511719</ele>
        <time>2023-08-08T07:39:18.000Z</time>
      </trkpt>
      <trkpt lat="45.52098" lon="6.26313">
        <ele>1376.1999511719</ele>
        <time>2023-08-08T07:39:25.000Z</time>
      </trkpt>
      <trkpt lat="45.52099" lon="6.26313">
        <ele>1376</ele>
        <time>2023-08-08T07:39:26.000Z</time>
      </trkpt>
      <trkpt lat="45.52101" lon="6.26322">
        <ele>1375.8000488281</ele>
        <time>2023-08-08T07:39:32.000Z</time>
      </trkpt>
      <trkpt lat="45.521" lon="6.26329">
        <ele>1375.1999511719</ele>
        <time>2023-08-08T07:39:36.000Z</time>
      </trkpt>
      <trkpt lat="45.521" lon="6.26329">
        <ele>1375</ele>
        <time>2023-08-08T07:39:38.000Z</time>
      </trkpt>
      <trkpt lat="45.52101" lon="6.26329">
        <ele>1375</ele>
        <time>2023-08-08T07:39:40.000Z</time>
      </trkpt>
      <trkpt lat="45.52108" lon="6.26337">
        <ele>1374.4000244141</ele>
        <time>2023-08-08T07:39:54.000Z</time>
      </trkpt>
      <trkpt lat="45.5211" lon="6.26346">
        <ele>1374</ele>
        <time>2023-08-08T07:39:58.000Z</time>
      </trkpt>
      <trkpt lat="45.52111" lon="6.2635">
        <ele>1373.4000244141</ele>
        <time>2023-08-08T07:40:02.000Z</time>
      </trkpt>
      <trkpt lat="45.52112" lon="6.26356">
        <ele>1372.8000488281</ele>
        <time>2023-08-08T07:40:05.000Z</time>
      </trkpt>
      <trkpt lat="45.52109" lon="6.26368">
        <ele>1371.8000488281</ele>
        <time>2023-08-08T07:40:11.000Z</time>
      </trkpt>
      <trkpt lat="45.52098" lon="6.26372">
        <ele>1370.8000488281</ele>
        <time>2023-08-08T07:40:17.000Z</time>
      </trkpt>
      <trkpt lat="45.52096" lon="6.26373">
        <ele>1370.5999755859</ele>
        <time>2023-08-08T07:40:18.000Z</time>
      </trkpt>
      <trkpt lat="45.52084" lon="6.26376">
        <ele>1369.8000488281</ele>
        <time>2023-08-08T07:40:23.000Z</time>
      </trkpt>
      <trkpt lat="45.52081" lon="6.26376">
        <ele>1369.4000244141</ele>
        <time>2023-08-08T07:40:26.000Z</time>
      </trkpt>
      <trkpt lat="45.52078" lon="6.26374">
        <ele>1369.1999511719</ele>
        <time>2023-08-08T07:40:29.000Z</time>
      </trkpt>
      <trkpt lat="45.52071" lon="6.26372">
        <ele>1368.4000244141</ele>
        <time>2023-08-08T07:40:33.000Z</time>
      </trkpt>
      <trkpt lat="45.52064" lon="6.2637">
        <ele>1367.8000488281</ele>
        <time>2023-08-08T07:40:37.000Z</time>
      </trkpt>
      <trkpt lat="45.52062" lon="6.26369">
        <ele>1367.4000244141</ele>
        <time>2023-08-08T07:40:39.000Z</time>
      </trkpt>
      <trkpt lat="45.52057" lon="6.26367">
        <ele>1366.8000488281</ele>
        <time>2023-08-08T07:40:43.000Z</time>
      </trkpt>
      <trkpt lat="45.52051" lon="6.26364">
        <ele>1366.4000244141</ele>
        <time>2023-08-08T07:40:47.000Z</time>
      </trkpt>
      <trkpt lat="45.52042" lon="6.26362">
        <ele>1365.1999511719</ele>
        <time>2023-08-08T07:40:54.000Z</time>
      </trkpt>
      <trkpt lat="45.52036" lon="6.26358">
        <ele>1364.1999511719</ele>
        <time>2023-08-08T07:40:59.000Z</time>
      </trkpt>
      <trkpt lat="45.52031" lon="6.26356">
        <ele>1364</ele>
        <time>2023-08-08T07:41:03.000Z</time>
      </trkpt>
      <trkpt lat="45.52024" lon="6.26355">
        <ele>1363.1999511719</ele>
        <time>2023-08-08T07:41:07.000Z</time>
      </trkpt>
      <trkpt lat="45.5202" lon="6.26354">
        <ele>1362.5999755859</ele>
        <time>2023-08-08T07:41:10.000Z</time>
      </trkpt>
      <trkpt lat="45.52016" lon="6.26354">
        <ele>1362.1999511719</ele>
        <time>2023-08-08T07:41:13.000Z</time>
      </trkpt>
      <trkpt lat="45.52009" lon="6.26352">
        <ele>1361.1999511719</ele>
        <time>2023-08-08T07:41:18.000Z</time>
      </trkpt>
      <trkpt lat="45.52002" lon="6.2635">
        <ele>1360</ele>
        <time>2023-08-08T07:41:24.000Z</time>
      </trkpt>
      <trkpt lat="45.52003" lon="6.26348">
        <ele>1359.5999755859</ele>
        <time>2023-08-08T07:41:26.000Z</time>
      </trkpt>
      <trkpt lat="45.52002" lon="6.26348">
        <ele>1359.1999511719</ele>
        <time>2023-08-08T07:41:33.000Z</time>
      </trkpt>
      <trkpt lat="45.52" lon="6.2635">
        <ele>1359.1999511719</ele>
        <time>2023-08-08T07:41:36.000Z</time>
      </trkpt>
      <trkpt lat="45.51996" lon="6.26354">
        <ele>1359.1999511719</ele>
        <time>2023-08-08T07:41:40.000Z</time>
      </trkpt>
      <trkpt lat="45.51998" lon="6.26352">
        <ele>1359.1999511719</ele>
        <time>2023-08-08T07:41:41.000Z</time>
      </trkpt>
      <trkpt lat="45.51989" lon="6.2636">
        <ele>1359</ele>
        <time>2023-08-08T07:41:44.000Z</time>
      </trkpt>
      <trkpt lat="45.51985" lon="6.26363">
        <ele>1357.5999755859</ele>
        <time>2023-08-08T07:41:50.000Z</time>
      </trkpt>
      <trkpt lat="45.51981" lon="6.26373">
        <ele>1355.5999755859</ele>
        <time>2023-08-08T07:42:01.000Z</time>
      </trkpt>
      <trkpt lat="45.51978" lon="6.26381">
        <ele>1354.4000244141</ele>
        <time>2023-08-08T07:42:06.000Z</time>
      </trkpt>
      <trkpt lat="45.51978" lon="6.26382">
        <ele>1354.1999511719</ele>
        <time>2023-08-08T07:42:07.000Z</time>
      </trkpt>
      <trkpt lat="45.51976" lon="6.26391">
        <ele>1353.8000488281</ele>
        <time>2023-08-08T07:42:14.000Z</time>
      </trkpt>
      <trkpt lat="45.51973" lon="6.26398">
        <ele>1353.4000244141</ele>
        <time>2023-08-08T07:42:18.000Z</time>
      </trkpt>
      <trkpt lat="45.5197" lon="6.26406">
        <ele>1353</ele>
        <time>2023-08-08T07:42:22.000Z</time>
      </trkpt>
      <trkpt lat="45.51967" lon="6.26413">
        <ele>1352.1999511719</ele>
        <time>2023-08-08T07:42:26.000Z</time>
      </trkpt>
      <trkpt lat="45.51966" lon="6.26417">
        <ele>1351.8000488281</ele>
        <time>2023-08-08T07:42:29.000Z</time>
      </trkpt>
      <trkpt lat="45.51963" lon="6.26424">
        <ele>1351.1999511719</ele>
        <time>2023-08-08T07:42:33.000Z</time>
      </trkpt>
      <trkpt lat="45.51959" lon="6.2643">
        <ele>1350.4000244141</ele>
        <time>2023-08-08T07:42:37.000Z</time>
      </trkpt>
      <trkpt lat="45.51957" lon="6.26433">
        <ele>1350.1999511719</ele>
        <time>2023-08-08T07:42:39.000Z</time>
      </trkpt>
      <trkpt lat="45.51953" lon="6.26441">
        <ele>1349</ele>
        <time>2023-08-08T07:42:45.000Z</time>
      </trkpt>
      <trkpt lat="45.51952" lon="6.26442">
        <ele>1348.8000488281</ele>
        <time>2023-08-08T07:42:46.000Z</time>
      </trkpt>
      <trkpt lat="45.51947" lon="6.26452">
        <ele>1348</ele>
        <time>2023-08-08T07:42:52.000Z</time>
      </trkpt>
      <trkpt lat="45.51942" lon="6.26457">
        <ele>1347.4000244141</ele>
        <time>2023-08-08T07:42:55.000Z</time>
      </trkpt>
      <trkpt lat="45.51933" lon="6.26462">
        <ele>1346.5999755859</ele>
        <time>2023-08-08T07:42:59.000Z</time>
      </trkpt>
      <trkpt lat="45.51927" lon="6.26464">
        <ele>1346.1999511719</ele>
        <time>2023-08-08T07:43:02.000Z</time>
      </trkpt>
      <trkpt lat="45.51922" lon="6.26464">
        <ele>1345.4000244141</ele>
        <time>2023-08-08T07:43:05.000Z</time>
      </trkpt>
      <trkpt lat="45.51914" lon="6.26464">
        <ele>1344.8000488281</ele>
        <time>2023-08-08T07:43:09.000Z</time>
      </trkpt>
      <trkpt lat="45.51911" lon="6.26465">
        <ele>1344.4000244141</ele>
        <time>2023-08-08T07:43:11.000Z</time>
      </trkpt>
      <trkpt lat="45.51905" lon="6.26464">
        <ele>1343.4000244141</ele>
        <time>2023-08-08T07:43:17.000Z</time>
      </trkpt>
      <trkpt lat="45.51898" lon="6.26458">
        <ele>1342.1999511719</ele>
        <time>2023-08-08T07:43:24.000Z</time>
      </trkpt>
      <trkpt lat="45.51896" lon="6.26456">
        <ele>1342</ele>
        <time>2023-08-08T07:43:26.000Z</time>
      </trkpt>
      <trkpt lat="45.51888" lon="6.2645">
        <ele>1341.1999511719</ele>
        <time>2023-08-08T07:43:32.000Z</time>
      </trkpt>
      <trkpt lat="45.51887" lon="6.2645">
        <ele>1341</ele>
        <time>2023-08-08T07:43:33.000Z</time>
      </trkpt>
      <trkpt lat="45.51881" lon="6.26447">
        <ele>1340</ele>
        <time>2023-08-08T07:43:38.000Z</time>
      </trkpt>
      <trkpt lat="45.51876" lon="6.26445">
        <ele>1339.5999755859</ele>
        <time>2023-08-08T07:43:41.000Z</time>
      </trkpt>
      <trkpt lat="45.5187" lon="6.26441">
        <ele>1339</ele>
        <time>2023-08-08T07:43:44.000Z</time>
      </trkpt>
      <trkpt lat="45.51867" lon="6.26439">
        <ele>1337.8000488281</ele>
        <time>2023-08-08T07:43:48.000Z</time>
      </trkpt>
      <trkpt lat="45.51865" lon="6.26437">
        <ele>1337.5999755859</ele>
        <time>2023-08-08T07:43:49.000Z</time>
      </trkpt>
      <trkpt lat="45.5186" lon="6.26433">
        <ele>1336.8000488281</ele>
        <time>2023-08-08T07:43:53.000Z</time>
      </trkpt>
      <trkpt lat="45.51859" lon="6.26435">
        <ele>1336.1999511719</ele>
        <time>2023-08-08T07:43:57.000Z</time>
      </trkpt>
      <trkpt lat="45.51857" lon="6.26436">
        <ele>1335.8000488281</ele>
        <time>2023-08-08T07:43:59.000Z</time>
      </trkpt>
      <trkpt lat="45.51851" lon="6.26442">
        <ele>1334.5999755859</ele>
        <time>2023-08-08T07:44:07.000Z</time>
      </trkpt>
      <trkpt lat="45.51851" lon="6.26444">
        <ele>1334.4000244141</ele>
        <time>2023-08-08T07:44:08.000Z</time>
      </trkpt>
      <trkpt lat="45.51848" lon="6.26453">
        <ele>1333.5999755859</ele>
        <time>2023-08-08T07:44:14.000Z</time>
      </trkpt>
      <trkpt lat="45.51851" lon="6.26453">
        <ele>1333.1999511719</ele>
        <time>2023-08-08T07:44:17.000Z</time>
      </trkpt>
      <trkpt lat="45.51851" lon="6.26454">
        <ele>1333.1999511719</ele>
        <time>2023-08-08T07:44:18.000Z</time>
      </trkpt>
      <trkpt lat="45.51854" lon="6.26453">
        <ele>1333</ele>
        <time>2023-08-08T07:44:24.000Z</time>
      </trkpt>
      <trkpt lat="45.51853" lon="6.26457">
        <ele>1333</ele>
        <time>2023-08-08T07:44:27.000Z</time>
      </trkpt>
      <trkpt lat="45.51846" lon="6.2646">
        <ele>1333</ele>
        <time>2023-08-08T07:44:35.000Z</time>
      </trkpt>
      <trkpt lat="45.51843" lon="6.26465">
        <ele>1332.8000488281</ele>
        <time>2023-08-08T07:44:40.000Z</time>
      </trkpt>
      <trkpt lat="45.51841" lon="6.26469">
        <ele>1332.5999755859</ele>
        <time>2023-08-08T07:44:43.000Z</time>
      </trkpt>
      <trkpt lat="45.51839" lon="6.26475">
        <ele>1332.1999511719</ele>
        <time>2023-08-08T07:44:48.000Z</time>
      </trkpt>
      <trkpt lat="45.51833" lon="6.26487">
        <ele>1331.5999755859</ele>
        <time>2023-08-08T07:44:55.000Z</time>
      </trkpt>
      <trkpt lat="45.51832" lon="6.26489">
        <ele>1331.4000244141</ele>
        <time>2023-08-08T07:44:56.000Z</time>
      </trkpt>
      <trkpt lat="45.51825" lon="6.26502">
        <ele>1331.4000244141</ele>
        <time>2023-08-08T07:45:03.000Z</time>
      </trkpt>
      <trkpt lat="45.51818" lon="6.26516">
        <ele>1331.4000244141</ele>
        <time>2023-08-08T07:45:12.000Z</time>
      </trkpt>
      <trkpt lat="45.51816" lon="6.26527">
        <ele>1331.5999755859</ele>
        <time>2023-08-08T07:45:20.000Z</time>
      </trkpt>
      <trkpt lat="45.51812" lon="6.26544">
        <ele>1332</ele>
        <time>2023-08-08T07:45:28.000Z</time>
      </trkpt>
      <trkpt lat="45.51807" lon="6.26566">
        <ele>1332</ele>
        <time>2023-08-08T07:45:38.000Z</time>
      </trkpt>
      <trkpt lat="45.51799" lon="6.26576">
        <ele>1332</ele>
        <time>2023-08-08T07:45:48.000Z</time>
      </trkpt>
      <trkpt lat="45.51793" lon="6.26586">
        <ele>1332.1999511719</ele>
        <time>2023-08-08T07:45:56.000Z</time>
      </trkpt>
      <trkpt lat="45.51793" lon="6.26592">
        <ele>1332.5999755859</ele>
        <time>2023-08-08T07:46:00.000Z</time>
      </trkpt>
      <trkpt lat="45.51795" lon="6.26597">
        <ele>1334</ele>
        <time>2023-08-08T07:46:04.000Z</time>
      </trkpt>
      <trkpt lat="45.51799" lon="6.26602">
        <ele>1335</ele>
        <time>2023-08-08T07:46:09.000Z</time>
      </trkpt>
      <trkpt lat="45.518" lon="6.26603">
        <ele>1335.4000244141</ele>
        <time>2023-08-08T07:46:11.000Z</time>
      </trkpt>
      <trkpt lat="45.51802" lon="6.26606">
        <ele>1336</ele>
        <time>2023-08-08T07:46:14.000Z</time>
      </trkpt>
      <trkpt lat="45.51805" lon="6.26611">
        <ele>1336.8000488281</ele>
        <time>2023-08-08T07:46:20.000Z</time>
      </trkpt>
      <trkpt lat="45.51806" lon="6.26612">
        <ele>1337</ele>
        <time>2023-08-08T07:46:21.000Z</time>
      </trkpt>
      <trkpt lat="45.51811" lon="6.26619">
        <ele>1338.1999511719</ele>
        <time>2023-08-08T07:46:28.000Z</time>
      </trkpt>
      <trkpt lat="45.51813" lon="6.26627">
        <ele>1339.1999511719</ele>
        <time>2023-08-08T07:46:34.000Z</time>
      </trkpt>
      <trkpt lat="45.51814" lon="6.26629">
        <ele>1339.5999755859</ele>
        <time>2023-08-08T07:46:36.000Z</time>
      </trkpt>
      <trkpt lat="45.51813" lon="6.26633">
        <ele>1340.1999511719</ele>
        <time>2023-08-08T07:46:40.000Z</time>
      </trkpt>
      <trkpt lat="45.51813" lon="6.26637">
        <ele>1341.1999511719</ele>
        <time>2023-08-08T07:46:44.000Z</time>
      </trkpt>
      <trkpt lat="45.51814" lon="6.26641">
        <ele>1341.4000244141</ele>
        <time>2023-08-08T07:46:46.000Z</time>
      </trkpt>
      <trkpt lat="45.51817" lon="6.26649">
        <ele>1342.4000244141</ele>
        <time>2023-08-08T07:46:52.000Z</time>
      </trkpt>
      <trkpt lat="45.51817" lon="6.26649">
        <ele>1342.5999755859</ele>
        <time>2023-08-08T07:46:53.000Z</time>
      </trkpt>
      <trkpt lat="45.51817" lon="6.26651">
        <ele>1343.4000244141</ele>
        <time>2023-08-08T07:46:58.000Z</time>
      </trkpt>
      <trkpt lat="45.51817" lon="6.26652">
        <ele>1343.5999755859</ele>
        <time>2023-08-08T07:46:59.000Z</time>
      </trkpt>
      <trkpt lat="45.51816" lon="6.26662">
        <ele>1344.8000488281</ele>
        <time>2023-08-08T07:47:05.000Z</time>
      </trkpt>
      <trkpt lat="45.51816" lon="6.26663">
        <ele>1345</ele>
        <time>2023-08-08T07:47:06.000Z</time>
      </trkpt>
      <trkpt lat="45.51818" lon="6.26668">
        <ele>1345.8000488281</ele>
        <time>2023-08-08T07:47:11.000Z</time>
      </trkpt>
      <trkpt lat="45.51818" lon="6.26669">
        <ele>1346</ele>
        <time>2023-08-08T07:47:12.000Z</time>
      </trkpt>
      <trkpt lat="45.5182" lon="6.26671">
        <ele>1347</ele>
        <time>2023-08-08T07:47:18.000Z</time>
      </trkpt>
      <trkpt lat="45.51821" lon="6.26672">
        <ele>1347.4000244141</ele>
        <time>2023-08-08T07:47:21.000Z</time>
      </trkpt>
      <trkpt lat="45.5182" lon="6.26678">
        <ele>1348</ele>
        <time>2023-08-08T07:47:25.000Z</time>
      </trkpt>
      <trkpt lat="45.51819" lon="6.26683">
        <ele>1348.8000488281</ele>
        <time>2023-08-08T07:47:29.000Z</time>
      </trkpt>
      <trkpt lat="45.51818" lon="6.26685">
        <ele>1349</ele>
        <time>2023-08-08T07:47:30.000Z</time>
      </trkpt>
      <trkpt lat="45.51816" lon="6.26691">
        <ele>1350</ele>
        <time>2023-08-08T07:47:35.000Z</time>
      </trkpt>
      <trkpt lat="45.51815" lon="6.26693">
        <ele>1350.4000244141</ele>
        <time>2023-08-08T07:47:38.000Z</time>
      </trkpt>
      <trkpt lat="45.51812" lon="6.26699">
        <ele>1352</ele>
        <time>2023-08-08T07:47:49.000Z</time>
      </trkpt>
      <trkpt lat="45.51812" lon="6.267">
        <ele>1352.1999511719</ele>
        <time>2023-08-08T07:47:50.000Z</time>
      </trkpt>
      <trkpt lat="45.51812" lon="6.26705">
        <ele>1353.1999511719</ele>
        <time>2023-08-08T07:47:56.000Z</time>
      </trkpt>
      <trkpt lat="45.51812" lon="6.26706">
        <ele>1353.5999755859</ele>
        <time>2023-08-08T07:47:58.000Z</time>
      </trkpt>
      <trkpt lat="45.51812" lon="6.26714">
        <ele>1354.1999511719</ele>
        <time>2023-08-08T07:48:03.000Z</time>
      </trkpt>
      <trkpt lat="45.51809" lon="6.26722">
        <ele>1354.4000244141</ele>
        <time>2023-08-08T07:48:08.000Z</time>
      </trkpt>
      <trkpt lat="45.51806" lon="6.26732">
        <ele>1355.1999511719</ele>
        <time>2023-08-08T07:48:16.000Z</time>
      </trkpt>
      <trkpt lat="45.51806" lon="6.26733">
        <ele>1355.1999511719</ele>
        <time>2023-08-08T07:48:17.000Z</time>
      </trkpt>
      <trkpt lat="45.51799" lon="6.2674">
        <ele>1356</ele>
        <time>2023-08-08T07:48:24.000Z</time>
      </trkpt>
      <trkpt lat="45.51796" lon="6.26743">
        <ele>1356.1999511719</ele>
        <time>2023-08-08T07:48:26.000Z</time>
      </trkpt>
      <trkpt lat="45.51789" lon="6.26751">
        <ele>1357.4000244141</ele>
        <time>2023-08-08T07:48:33.000Z</time>
      </trkpt>
      <trkpt lat="45.51789" lon="6.26751">
        <ele>1357.4000244141</ele>
        <time>2023-08-08T07:48:34.000Z</time>
      </trkpt>
      <trkpt lat="45.51767" lon="6.26764">
        <ele>1361.5999755859</ele>
        <time>2023-08-08T07:49:02.000Z</time>
      </trkpt>
      <trkpt lat="45.51766" lon="6.26766">
        <ele>1362.8000488281</ele>
        <time>2023-08-08T07:49:08.000Z</time>
      </trkpt>
      <trkpt lat="45.51766" lon="6.26767">
        <ele>1363</ele>
        <time>2023-08-08T07:49:09.000Z</time>
      </trkpt>
      <trkpt lat="45.51754" lon="6.26762">
        <ele>1365</ele>
        <time>2023-08-08T07:49:21.000Z</time>
      </trkpt>
      <trkpt lat="45.51751" lon="6.2676">
        <ele>1366</ele>
        <time>2023-08-08T07:49:27.000Z</time>
      </trkpt>
      <trkpt lat="45.51748" lon="6.2676">
        <ele>1366.4000244141</ele>
        <time>2023-08-08T07:49:29.000Z</time>
      </trkpt>
      <trkpt lat="45.51743" lon="6.26757">
        <ele>1367</ele>
        <time>2023-08-08T07:49:33.000Z</time>
      </trkpt>
      <trkpt lat="45.51738" lon="6.26755">
        <ele>1368</ele>
        <time>2023-08-08T07:49:38.000Z</time>
      </trkpt>
      <trkpt lat="45.51737" lon="6.26755">
        <ele>1368.1999511719</ele>
        <time>2023-08-08T07:49:39.000Z</time>
      </trkpt>
      <trkpt lat="45.51731" lon="6.26755">
        <ele>1369.1999511719</ele>
        <time>2023-08-08T07:49:45.000Z</time>
      </trkpt>
      <trkpt lat="45.51729" lon="6.26755">
        <ele>1369.4000244141</ele>
        <time>2023-08-08T07:49:46.000Z</time>
      </trkpt>
      <trkpt lat="45.51727" lon="6.26757">
        <ele>1370.4000244141</ele>
        <time>2023-08-08T07:49:51.000Z</time>
      </trkpt>
      <trkpt lat="45.51725" lon="6.26758">
        <ele>1371.1999511719</ele>
        <time>2023-08-08T07:49:55.000Z</time>
      </trkpt>
      <trkpt lat="45.51725" lon="6.26758">
        <ele>1371.4000244141</ele>
        <time>2023-08-08T07:49:56.000Z</time>
      </trkpt>
      <trkpt lat="45.51721" lon="6.26758">
        <ele>1372.5999755859</ele>
        <time>2023-08-08T07:50:02.000Z</time>
      </trkpt>
      <trkpt lat="45.51718" lon="6.26755">
        <ele>1373.5999755859</ele>
        <time>2023-08-08T07:50:07.000Z</time>
      </trkpt>
      <trkpt lat="45.51717" lon="6.26755">
        <ele>1373.8000488281</ele>
        <time>2023-08-08T07:50:08.000Z</time>
      </trkpt>
      <trkpt lat="45.51713" lon="6.26751">
        <ele>1375</ele>
        <time>2023-08-08T07:50:14.000Z</time>
      </trkpt>
      <trkpt lat="45.51713" lon="6.2675">
        <ele>1375.1999511719</ele>
        <time>2023-08-08T07:50:15.000Z</time>
      </trkpt>
      <trkpt lat="45.51707" lon="6.26746">
        <ele>1376</ele>
        <time>2023-08-08T07:50:20.000Z</time>
      </trkpt>
      <trkpt lat="45.51703" lon="6.26744">
        <ele>1376.1999511719</ele>
        <time>2023-08-08T07:50:23.000Z</time>
      </trkpt>
      <trkpt lat="45.51694" lon="6.26743">
        <ele>1376.5999755859</ele>
        <time>2023-08-08T07:50:30.000Z</time>
      </trkpt>
      <trkpt lat="45.51688" lon="6.26743">
        <ele>1377</ele>
        <time>2023-08-08T07:50:35.000Z</time>
      </trkpt>
      <trkpt lat="45.51688" lon="6.26742">
        <ele>1377.1999511719</ele>
        <time>2023-08-08T07:50:37.000Z</time>
      </trkpt>
      <trkpt lat="45.51693" lon="6.2674">
        <ele>1377.1999511719</ele>
        <time>2023-08-08T07:50:43.000Z</time>
      </trkpt>
      <trkpt lat="45.51697" lon="6.26742">
        <ele>1376.5999755859</ele>
        <time>2023-08-08T07:50:50.000Z</time>
      </trkpt>
      <trkpt lat="45.51693" lon="6.26743">
        <ele>1376.8000488281</ele>
        <time>2023-08-08T07:50:56.000Z</time>
      </trkpt>
      <trkpt lat="45.51664" lon="6.26743">
        <ele>1380.1999511719</ele>
        <time>2023-08-08T07:51:21.000Z</time>
      </trkpt>
      <trkpt lat="45.51661" lon="6.26743">
        <ele>1380.5999755859</ele>
        <time>2023-08-08T07:51:23.000Z</time>
      </trkpt>
      <trkpt lat="45.51653" lon="6.26743">
        <ele>1381.4000244141</ele>
        <time>2023-08-08T07:51:30.000Z</time>
      </trkpt>
      <trkpt lat="45.51653" lon="6.26743">
        <ele>1381.5999755859</ele>
        <time>2023-08-08T07:51:31.000Z</time>
      </trkpt>
      <trkpt lat="45.51625" lon="6.26737">
        <ele>1385.5999755859</ele>
        <time>2023-08-08T07:52:00.000Z</time>
      </trkpt>
      <trkpt lat="45.51621" lon="6.26734">
        <ele>1386</ele>
        <time>2023-08-08T07:52:03.000Z</time>
      </trkpt>
      <trkpt lat="45.51616" lon="6.2673">
        <ele>1386.4000244141</ele>
        <time>2023-08-08T07:52:06.000Z</time>
      </trkpt>
      <trkpt lat="45.51609" lon="6.26724">
        <ele>1387</ele>
        <time>2023-08-08T07:52:10.000Z</time>
      </trkpt>
      <trkpt lat="45.51608" lon="6.26722">
        <ele>1387.4000244141</ele>
        <time>2023-08-08T07:52:12.000Z</time>
      </trkpt>
      <trkpt lat="45.51604" lon="6.26719">
        <ele>1388</ele>
        <time>2023-08-08T07:52:16.000Z</time>
      </trkpt>
      <trkpt lat="45.516" lon="6.26714">
        <ele>1388.5999755859</ele>
        <time>2023-08-08T07:52:20.000Z</time>
      </trkpt>
      <trkpt lat="45.51598" lon="6.26712">
        <ele>1389</ele>
        <time>2023-08-08T07:52:22.000Z</time>
      </trkpt>
      <trkpt lat="45.51591" lon="6.26707">
        <ele>1390.1999511719</ele>
        <time>2023-08-08T07:52:28.000Z</time>
      </trkpt>
      <trkpt lat="45.5159" lon="6.26707">
        <ele>1390.4000244141</ele>
        <time>2023-08-08T07:52:29.000Z</time>
      </trkpt>
      <trkpt lat="45.51585" lon="6.26704">
        <ele>1391.1999511719</ele>
        <time>2023-08-08T07:52:34.000Z</time>
      </trkpt>
      <trkpt lat="45.51583" lon="6.26703">
        <ele>1391.5999755859</ele>
        <time>2023-08-08T07:52:36.000Z</time>
      </trkpt>
      <trkpt lat="45.51568" lon="6.26697">
        <ele>1393.4000244141</ele>
        <time>2023-08-08T07:52:48.000Z</time>
      </trkpt>
      <trkpt lat="45.51567" lon="6.26695">
        <ele>1393.5999755859</ele>
        <time>2023-08-08T07:52:49.000Z</time>
      </trkpt>
      <trkpt lat="45.5156" lon="6.26684">
        <ele>1394.4000244141</ele>
        <time>2023-08-08T07:52:56.000Z</time>
      </trkpt>
      <trkpt lat="45.51554" lon="6.26675">
        <ele>1395.4000244141</ele>
        <time>2023-08-08T07:53:03.000Z</time>
      </trkpt>
      <trkpt lat="45.51554" lon="6.26673">
        <ele>1395.5999755859</ele>
        <time>2023-08-08T07:53:04.000Z</time>
      </trkpt>
      <trkpt lat="45.51551" lon="6.26666">
        <ele>1396.5999755859</ele>
        <time>2023-08-08T07:53:10.000Z</time>
      </trkpt>
      <trkpt lat="45.51549" lon="6.26665">
        <ele>1396.8000488281</ele>
        <time>2023-08-08T07:53:12.000Z</time>
      </trkpt>
      <trkpt lat="45.51543" lon="6.26659">
        <ele>1397.8000488281</ele>
        <time>2023-08-08T07:53:17.000Z</time>
      </trkpt>
      <trkpt lat="45.51541" lon="6.26656">
        <ele>1398</ele>
        <time>2023-08-08T07:53:19.000Z</time>
      </trkpt>
      <trkpt lat="45.51533" lon="6.26645">
        <ele>1398.8000488281</ele>
        <time>2023-08-08T07:53:25.000Z</time>
      </trkpt>
      <trkpt lat="45.51531" lon="6.26641">
        <ele>1399.1999511719</ele>
        <time>2023-08-08T07:53:28.000Z</time>
      </trkpt>
      <trkpt lat="45.51529" lon="6.26635">
        <ele>1400</ele>
        <time>2023-08-08T07:53:33.000Z</time>
      </trkpt>
      <trkpt lat="45.51527" lon="6.26633">
        <ele>1400.4000244141</ele>
        <time>2023-08-08T07:53:37.000Z</time>
      </trkpt>
      <trkpt lat="45.51522" lon="6.26628">
        <ele>1401</ele>
        <time>2023-08-08T07:53:41.000Z</time>
      </trkpt>
      <trkpt lat="45.51518" lon="6.26623">
        <ele>1401.4000244141</ele>
        <time>2023-08-08T07:53:44.000Z</time>
      </trkpt>
      <trkpt lat="45.51513" lon="6.26618">
        <ele>1401.8000488281</ele>
        <time>2023-08-08T07:53:51.000Z</time>
      </trkpt>
      <trkpt lat="45.51513" lon="6.26617">
        <ele>1402</ele>
        <time>2023-08-08T07:53:52.000Z</time>
      </trkpt>
      <trkpt lat="45.51506" lon="6.2661">
        <ele>1402.8000488281</ele>
        <time>2023-08-08T07:53:59.000Z</time>
      </trkpt>
      <trkpt lat="45.51503" lon="6.26607">
        <ele>1403</ele>
        <time>2023-08-08T07:54:01.000Z</time>
      </trkpt>
      <trkpt lat="45.51499" lon="6.26601">
        <ele>1403.8000488281</ele>
        <time>2023-08-08T07:54:06.000Z</time>
      </trkpt>
      <trkpt lat="45.51498" lon="6.26597">
        <ele>1404.1999511719</ele>
        <time>2023-08-08T07:54:09.000Z</time>
      </trkpt>
      <trkpt lat="45.51495" lon="6.2659">
        <ele>1405</ele>
        <time>2023-08-08T07:54:15.000Z</time>
      </trkpt>
      <trkpt lat="45.51491" lon="6.26586">
        <ele>1405.1999511719</ele>
        <time>2023-08-08T07:54:18.000Z</time>
      </trkpt>
      <trkpt lat="45.51483" lon="6.2658">
        <ele>1405.5999755859</ele>
        <time>2023-08-08T07:54:23.000Z</time>
      </trkpt>
      <trkpt lat="45.51475" lon="6.26577">
        <ele>1406.1999511719</ele>
        <time>2023-08-08T07:54:27.000Z</time>
      </trkpt>
      <trkpt lat="45.5147" lon="6.26576">
        <ele>1406.4000244141</ele>
        <time>2023-08-08T07:54:30.000Z</time>
      </trkpt>
      <trkpt lat="45.51448" lon="6.26572">
        <ele>1408</ele>
        <time>2023-08-08T07:54:48.000Z</time>
      </trkpt>
      <trkpt lat="45.51447" lon="6.26572">
        <ele>1408.1999511719</ele>
        <time>2023-08-08T07:54:49.000Z</time>
      </trkpt>
      <trkpt lat="45.51438" lon="6.26566">
        <ele>1409.1999511719</ele>
        <time>2023-08-08T07:54:56.000Z</time>
      </trkpt>
      <trkpt lat="45.51436" lon="6.26566">
        <ele>1409.4000244141</ele>
        <time>2023-08-08T07:54:58.000Z</time>
      </trkpt>
      <trkpt lat="45.5142" lon="6.26562">
        <ele>1410.1999511719</ele>
        <time>2023-08-08T07:55:07.000Z</time>
      </trkpt>
      <trkpt lat="45.51419" lon="6.26562">
        <ele>1410.1999511719</ele>
        <time>2023-08-08T07:55:08.000Z</time>
      </trkpt>
      <trkpt lat="45.51412" lon="6.26561">
        <ele>1411.1999511719</ele>
        <time>2023-08-08T07:55:15.000Z</time>
      </trkpt>
      <trkpt lat="45.5141" lon="6.26561">
        <ele>1411.1999511719</ele>
        <time>2023-08-08T07:55:16.000Z</time>
      </trkpt>
      <trkpt lat="45.51396" lon="6.26562">
        <ele>1411.1999511719</ele>
        <time>2023-08-08T07:55:23.000Z</time>
      </trkpt>
      <trkpt lat="45.5139" lon="6.26566">
        <ele>1411.4000244141</ele>
        <time>2023-08-08T07:55:30.000Z</time>
      </trkpt>
      <trkpt lat="45.51382" lon="6.26573">
        <ele>1411.5999755859</ele>
        <time>2023-08-08T07:55:37.000Z</time>
      </trkpt>
      <trkpt lat="45.51372" lon="6.26581">
        <ele>1411.8000488281</ele>
        <time>2023-08-08T07:55:46.000Z</time>
      </trkpt>
      <trkpt lat="45.51365" lon="6.26594">
        <ele>1412</ele>
        <time>2023-08-08T07:55:55.000Z</time>
      </trkpt>
      <trkpt lat="45.51357" lon="6.26598">
        <ele>1411.5999755859</ele>
        <time>2023-08-08T07:56:02.000Z</time>
      </trkpt>
      <trkpt lat="45.5135" lon="6.26595">
        <ele>1412</ele>
        <time>2023-08-08T07:56:08.000Z</time>
      </trkpt>
      <trkpt lat="45.51342" lon="6.26593">
        <ele>1412.4000244141</ele>
        <time>2023-08-08T07:56:12.000Z</time>
      </trkpt>
      <trkpt lat="45.51338" lon="6.26591">
        <ele>1413</ele>
        <time>2023-08-08T07:56:16.000Z</time>
      </trkpt>
      <trkpt lat="45.51333" lon="6.26587">
        <ele>1413.5999755859</ele>
        <time>2023-08-08T07:56:20.000Z</time>
      </trkpt>
      <trkpt lat="45.51328" lon="6.26581">
        <ele>1414.4000244141</ele>
        <time>2023-08-08T07:56:25.000Z</time>
      </trkpt>
      <trkpt lat="45.51325" lon="6.26578">
        <ele>1414.5999755859</ele>
        <time>2023-08-08T07:56:27.000Z</time>
      </trkpt>
      <trkpt lat="45.51321" lon="6.26574">
        <ele>1415.1999511719</ele>
        <time>2023-08-08T07:56:33.000Z</time>
      </trkpt>
      <trkpt lat="45.51317" lon="6.26576">
        <ele>1415.4000244141</ele>
        <time>2023-08-08T07:56:42.000Z</time>
      </trkpt>
      <trkpt lat="45.51312" lon="6.26581">
        <ele>1415.1999511719</ele>
        <time>2023-08-08T07:56:52.000Z</time>
      </trkpt>
      <trkpt lat="45.51311" lon="6.26578">
        <ele>1415</ele>
        <time>2023-08-08T07:57:02.000Z</time>
      </trkpt>
      <trkpt lat="45.51315" lon="6.26573">
        <ele>1414.8000488281</ele>
        <time>2023-08-08T07:57:12.000Z</time>
      </trkpt>
      <trkpt lat="45.51314" lon="6.26567">
        <ele>1414.8000488281</ele>
        <time>2023-08-08T07:57:20.000Z</time>
      </trkpt>
      <trkpt lat="45.51307" lon="6.26562">
        <ele>1415.5999755859</ele>
        <time>2023-08-08T07:57:27.000Z</time>
      </trkpt>
      <trkpt lat="45.51306" lon="6.26562">
        <ele>1415.5999755859</ele>
        <time>2023-08-08T07:57:28.000Z</time>
      </trkpt>
      <trkpt lat="45.51296" lon="6.26556">
        <ele>1416.1999511719</ele>
        <time>2023-08-08T07:57:36.000Z</time>
      </trkpt>
      <trkpt lat="45.51289" lon="6.26551">
        <ele>1416.5999755859</ele>
        <time>2023-08-08T07:57:41.000Z</time>
      </trkpt>
      <trkpt lat="45.51286" lon="6.2655">
        <ele>1416.5999755859</ele>
        <time>2023-08-08T07:57:43.000Z</time>
      </trkpt>
      <trkpt lat="45.51276" lon="6.26548">
        <ele>1417</ele>
        <time>2023-08-08T07:57:52.000Z</time>
      </trkpt>
      <trkpt lat="45.51271" lon="6.26545">
        <ele>1417.8000488281</ele>
        <time>2023-08-08T07:57:58.000Z</time>
      </trkpt>
      <trkpt lat="45.5127" lon="6.26545">
        <ele>1418</ele>
        <time>2023-08-08T07:57:59.000Z</time>
      </trkpt>
      <trkpt lat="45.51266" lon="6.26543">
        <ele>1418.8000488281</ele>
        <time>2023-08-08T07:58:04.000Z</time>
      </trkpt>
      <trkpt lat="45.51262" lon="6.26542">
        <ele>1420</ele>
        <time>2023-08-08T07:58:08.000Z</time>
      </trkpt>
      <trkpt lat="45.51258" lon="6.26541">
        <ele>1420.8000488281</ele>
        <time>2023-08-08T07:58:12.000Z</time>
      </trkpt>
      <trkpt lat="45.51256" lon="6.26539">
        <ele>1421</ele>
        <time>2023-08-08T07:58:15.000Z</time>
      </trkpt>
      <trkpt lat="45.51252" lon="6.26535">
        <ele>1421</ele>
        <time>2023-08-08T07:58:21.000Z</time>
      </trkpt>
      <trkpt lat="45.51252" lon="6.26536">
        <ele>1421</ele>
        <time>2023-08-08T07:58:22.000Z</time>
      </trkpt>
      <trkpt lat="45.51252" lon="6.26535">
        <ele>1420.8000488281</ele>
        <time>2023-08-08T07:58:26.000Z</time>
      </trkpt>
      <trkpt lat="45.51251" lon="6.26534">
        <ele>1420.5999755859</ele>
        <time>2023-08-08T07:58:28.000Z</time>
      </trkpt>
      <trkpt lat="45.51253" lon="6.26533">
        <ele>1420.4000244141</ele>
        <time>2023-08-08T07:58:37.000Z</time>
      </trkpt>
      <trkpt lat="45.51252" lon="6.26534">
        <ele>1420</ele>
        <time>2023-08-08T07:58:44.000Z</time>
      </trkpt>
      <trkpt lat="45.51253" lon="6.26534">
        <ele>1420</ele>
        <time>2023-08-08T07:58:46.000Z</time>
      </trkpt>
      <trkpt lat="45.51253" lon="6.26531">
        <ele>1419.5999755859</ele>
        <time>2023-08-08T07:58:54.000Z</time>
      </trkpt>
      <trkpt lat="45.51253" lon="6.26532">
        <ele>1419.4000244141</ele>
        <time>2023-08-08T07:59:01.000Z</time>
      </trkpt>
      <trkpt lat="45.51253" lon="6.26534">
        <ele>1419</ele>
        <time>2023-08-08T07:59:08.000Z</time>
      </trkpt>
      <trkpt lat="45.51253" lon="6.26533">
        <ele>1419</ele>
        <time>2023-08-08T07:59:09.000Z</time>
      </trkpt>
      <trkpt lat="45.51253" lon="6.26529">
        <ele>1418.5999755859</ele>
        <time>2023-08-08T07:59:17.000Z</time>
      </trkpt>
      <trkpt lat="45.51253" lon="6.26531">
        <ele>1418.4000244141</ele>
        <time>2023-08-08T07:59:24.000Z</time>
      </trkpt>
      <trkpt lat="45.51249" lon="6.26532">
        <ele>1418</ele>
        <time>2023-08-08T07:59:33.000Z</time>
      </trkpt>
      <trkpt lat="45.5125" lon="6.26532">
        <ele>1418</ele>
        <time>2023-08-08T07:59:34.000Z</time>
      </trkpt>
      <trkpt lat="45.51254" lon="6.26533">
        <ele>1417.8000488281</ele>
        <time>2023-08-08T07:59:41.000Z</time>
      </trkpt>
      <trkpt lat="45.51256" lon="6.26533">
        <ele>1417</ele>
        <time>2023-08-08T07:59:50.000Z</time>
      </trkpt>
      <trkpt lat="45.51256" lon="6.26533">
        <ele>1417</ele>
        <time>2023-08-08T07:59:51.000Z</time>
      </trkpt>
      <trkpt lat="45.51255" lon="6.26533">
        <ele>1416.5999755859</ele>
        <time>2023-08-08T08:00:00.000Z</time>
      </trkpt>
      <trkpt lat="45.51255" lon="6.26535">
        <ele>1416.4000244141</ele>
        <time>2023-08-08T08:00:10.000Z</time>
      </trkpt>
      <trkpt lat="45.51254" lon="6.26534">
        <ele>1416</ele>
        <time>2023-08-08T08:00:18.000Z</time>
      </trkpt>
      <trkpt lat="45.51254" lon="6.26533">
        <ele>1416</ele>
        <time>2023-08-08T08:00:19.000Z</time>
      </trkpt>
      <trkpt lat="45.51252" lon="6.26532">
        <ele>1415.5999755859</ele>
        <time>2023-08-08T08:00:30.000Z</time>
      </trkpt>
      <trkpt lat="45.51252" lon="6.2653">
        <ele>1415.4000244141</ele>
        <time>2023-08-08T08:00:38.000Z</time>
      </trkpt>
      <trkpt lat="45.51252" lon="6.2653">
        <ele>1415</ele>
        <time>2023-08-08T08:00:47.000Z</time>
      </trkpt>
      <trkpt lat="45.51254" lon="6.26532">
        <ele>1414.8000488281</ele>
        <time>2023-08-08T08:00:54.000Z</time>
      </trkpt>
      <trkpt lat="45.51254" lon="6.26533">
        <ele>1414.4000244141</ele>
        <time>2023-08-08T08:01:02.000Z</time>
      </trkpt>
      <trkpt lat="45.51255" lon="6.26533">
        <ele>1414.1999511719</ele>
        <time>2023-08-08T08:01:13.000Z</time>
      </trkpt>
      <trkpt lat="45.51256" lon="6.26533">
        <ele>1414</ele>
        <time>2023-08-08T08:01:19.000Z</time>
      </trkpt>
      <trkpt lat="45.51256" lon="6.26532">
        <ele>1413.8000488281</ele>
        <time>2023-08-08T08:01:23.000Z</time>
      </trkpt>
      <trkpt lat="45.51256" lon="6.26534">
        <ele>1413.5999755859</ele>
        <time>2023-08-08T08:01:32.000Z</time>
      </trkpt>
      <trkpt lat="45.51256" lon="6.26533">
        <ele>1413.4000244141</ele>
        <time>2023-08-08T08:01:41.000Z</time>
      </trkpt>
      <trkpt lat="45.51253" lon="6.26532">
        <ele>1413</ele>
        <time>2023-08-08T08:01:50.000Z</time>
      </trkpt>
      <trkpt lat="45.51252" lon="6.26531">
        <ele>1413</ele>
        <time>2023-08-08T08:01:52.000Z</time>
      </trkpt>
      <trkpt lat="45.5125" lon="6.26527">
        <ele>1412.5999755859</ele>
        <time>2023-08-08T08:02:00.000Z</time>
      </trkpt>
      <trkpt lat="45.51251" lon="6.2653">
        <ele>1412.1999511719</ele>
        <time>2023-08-08T08:02:12.000Z</time>
      </trkpt>
      <trkpt lat="45.51256" lon="6.26534">
        <ele>1412</ele>
        <time>2023-08-08T08:02:21.000Z</time>
      </trkpt>
      <trkpt lat="45.51254" lon="6.26532">
        <ele>1412</ele>
        <time>2023-08-08T08:02:24.000Z</time>
      </trkpt>
      <trkpt lat="45.51253" lon="6.26531">
        <ele>1411.8000488281</ele>
        <time>2023-08-08T08:02:29.000Z</time>
      </trkpt>
      <trkpt lat="45.51253" lon="6.2653">
        <ele>1411.5999755859</ele>
        <time>2023-08-08T08:02:38.000Z</time>
      </trkpt>
      <trkpt lat="45.51249" lon="6.26526">
        <ele>1411.1999511719</ele>
        <time>2023-08-08T08:02:49.000Z</time>
      </trkpt>
      <trkpt lat="45.51247" lon="6.26519">
        <ele>1411</ele>
        <time>2023-08-08T08:02:59.000Z</time>
      </trkpt>
      <trkpt lat="45.51247" lon="6.2652">
        <ele>1411</ele>
        <time>2023-08-08T08:03:01.000Z</time>
      </trkpt>
      <trkpt lat="45.51249" lon="6.26524">
        <ele>1410.8000488281</ele>
        <time>2023-08-08T08:03:08.000Z</time>
      </trkpt>
      <trkpt lat="45.51247" lon="6.26522">
        <ele>1410.5999755859</ele>
        <time>2023-08-08T08:03:16.000Z</time>
      </trkpt>
      <trkpt lat="45.51247" lon="6.26525">
        <ele>1410.4000244141</ele>
        <time>2023-08-08T08:03:25.000Z</time>
      </trkpt>
      <trkpt lat="45.51251" lon="6.26532">
        <ele>1410.1999511719</ele>
        <time>2023-08-08T08:03:35.000Z</time>
      </trkpt>
      <trkpt lat="45.51254" lon="6.26536">
        <ele>1410</ele>
        <time>2023-08-08T08:03:43.000Z</time>
      </trkpt>
      <trkpt lat="45.51253" lon="6.26535">
        <ele>1410</ele>
        <time>2023-08-08T08:03:46.000Z</time>
      </trkpt>
      <trkpt lat="45.5125" lon="6.26533">
        <ele>1409.8000488281</ele>
        <time>2023-08-08T08:03:54.000Z</time>
      </trkpt>
      <trkpt lat="45.51253" lon="6.26533">
        <ele>1409.5999755859</ele>
        <time>2023-08-08T08:04:03.000Z</time>
      </trkpt>
      <trkpt lat="45.51253" lon="6.2653">
        <ele>1409.4000244141</ele>
        <time>2023-08-08T08:04:12.000Z</time>
      </trkpt>
      <trkpt lat="45.51254" lon="6.26532">
        <ele>1409.1999511719</ele>
        <time>2023-08-08T08:04:22.000Z</time>
      </trkpt>
      <trkpt lat="45.51255" lon="6.26532">
        <ele>1409.1999511719</ele>
        <time>2023-08-08T08:04:31.000Z</time>
      </trkpt>
      <trkpt lat="45.51253" lon="6.26532">
        <ele>1409</ele>
        <time>2023-08-08T08:04:40.000Z</time>
      </trkpt>
      <trkpt lat="45.51254" lon="6.26531">
        <ele>1409</ele>
        <time>2023-08-08T08:04:43.000Z</time>
      </trkpt>
      <trkpt lat="45.51254" lon="6.26533">
        <ele>1408.8000488281</ele>
        <time>2023-08-08T08:04:48.000Z</time>
      </trkpt>
      <trkpt lat="45.51255" lon="6.26532">
        <ele>1408.5999755859</ele>
        <time>2023-08-08T08:04:58.000Z</time>
      </trkpt>
      <trkpt lat="45.51256" lon="6.26532">
        <ele>1408.4000244141</ele>
        <time>2023-08-08T08:05:08.000Z</time>
      </trkpt>
      <trkpt lat="45.51256" lon="6.26533">
        <ele>1408.1999511719</ele>
        <time>2023-08-08T08:05:18.000Z</time>
      </trkpt>
      <trkpt lat="45.51255" lon="6.26532">
        <ele>1408.1999511719</ele>
        <time>2023-08-08T08:05:29.000Z</time>
      </trkpt>
      <trkpt lat="45.51256" lon="6.26532">
        <ele>1408</ele>
        <time>2023-08-08T08:05:40.000Z</time>
      </trkpt>
      <trkpt lat="45.51256" lon="6.26531">
        <ele>1408</ele>
        <time>2023-08-08T08:05:43.000Z</time>
      </trkpt>
      <trkpt lat="45.51256" lon="6.2653">
        <ele>1407.8000488281</ele>
        <time>2023-08-08T08:05:49.000Z</time>
      </trkpt>
      <trkpt lat="45.51254" lon="6.26529">
        <ele>1407.5999755859</ele>
        <time>2023-08-08T08:05:58.000Z</time>
      </trkpt>
      <trkpt lat="45.51254" lon="6.2653">
        <ele>1407.4000244141</ele>
        <time>2023-08-08T08:06:07.000Z</time>
      </trkpt>
      <trkpt lat="45.51255" lon="6.2653">
        <ele>1407.4000244141</ele>
        <time>2023-08-08T08:06:13.000Z</time>
      </trkpt>
      <trkpt lat="45.51255" lon="6.2653">
        <ele>1407.1999511719</ele>
        <time>2023-08-08T08:06:23.000Z</time>
      </trkpt>
      <trkpt lat="45.51255" lon="6.26531">
        <ele>1407.1999511719</ele>
        <time>2023-08-08T08:06:32.000Z</time>
      </trkpt>
      <trkpt lat="45.51254" lon="6.26532">
        <ele>1407.1999511719</ele>
        <time>2023-08-08T08:06:44.000Z</time>
      </trkpt>
      <trkpt lat="45.51252" lon="6.26529">
        <ele>1407</ele>
        <time>2023-08-08T08:06:55.000Z</time>
      </trkpt>
      <trkpt lat="45.51252" lon="6.26528">
        <ele>1407</ele>
        <time>2023-08-08T08:07:05.000Z</time>
      </trkpt>
      <trkpt lat="45.51255" lon="6.2653">
        <ele>1406.8000488281</ele>
        <time>2023-08-08T08:07:12.000Z</time>
      </trkpt>
      <trkpt lat="45.51255" lon="6.2653">
        <ele>1406.8000488281</ele>
        <time>2023-08-08T08:07:15.000Z</time>
      </trkpt>
      <trkpt lat="45.51253" lon="6.26533">
        <ele>1406.8000488281</ele>
        <time>2023-08-08T08:07:23.000Z</time>
      </trkpt>
      <trkpt lat="45.51254" lon="6.26531">
        <ele>1406.5999755859</ele>
        <time>2023-08-08T08:07:31.000Z</time>
      </trkpt>
      <trkpt lat="45.51255" lon="6.26531">
        <ele>1406.5999755859</ele>
        <time>2023-08-08T08:07:37.000Z</time>
      </trkpt>
      <trkpt lat="45.51256" lon="6.26531">
        <ele>1406.4000244141</ele>
        <time>2023-08-08T08:07:49.000Z</time>
      </trkpt>
      <trkpt lat="45.51253" lon="6.26528">
        <ele>1406.1999511719</ele>
        <time>2023-08-08T08:07:56.000Z</time>
      </trkpt>
      <trkpt lat="45.51252" lon="6.26524">
        <ele>1405.8000488281</ele>
        <time>2023-08-08T08:08:03.000Z</time>
      </trkpt>
      <trkpt lat="45.51252" lon="6.26524">
        <ele>1405.8000488281</ele>
        <time>2023-08-08T08:08:04.000Z</time>
      </trkpt>
      <trkpt lat="45.5125" lon="6.26524">
        <ele>1405.8000488281</ele>
        <time>2023-08-08T08:08:12.000Z</time>
      </trkpt>
      <trkpt lat="45.51253" lon="6.26526">
        <ele>1405.5999755859</ele>
        <time>2023-08-08T08:08:23.000Z</time>
      </trkpt>
      <trkpt lat="45.51254" lon="6.26527">
        <ele>1405.5999755859</ele>
        <time>2023-08-08T08:08:32.000Z</time>
      </trkpt>
      <trkpt lat="45.51255" lon="6.26531">
        <ele>1405.5999755859</ele>
        <time>2023-08-08T08:08:38.000Z</time>
      </trkpt>
      <trkpt lat="45.51253" lon="6.26528">
        <ele>1405.5999755859</ele>
        <time>2023-08-08T08:08:45.000Z</time>
      </trkpt>
      <trkpt lat="45.51257" lon="6.2653">
        <ele>1405.5999755859</ele>
        <time>2023-08-08T08:08:51.000Z</time>
      </trkpt>
      <trkpt lat="45.51258" lon="6.26531">
        <ele>1405.4000244141</ele>
        <time>2023-08-08T08:09:09.000Z</time>
      </trkpt>
      <trkpt lat="45.51258" lon="6.2653">
        <ele>1405.4000244141</ele>
        <time>2023-08-08T08:09:16.000Z</time>
      </trkpt>
      <trkpt lat="45.51257" lon="6.26531">
        <ele>1405.4000244141</ele>
        <time>2023-08-08T08:09:24.000Z</time>
      </trkpt>
      <trkpt lat="45.51257" lon="6.26532">
        <ele>1405.4000244141</ele>
        <time>2023-08-08T08:09:32.000Z</time>
      </trkpt>
      <trkpt lat="45.51257" lon="6.26533">
        <ele>1405.1999511719</ele>
        <time>2023-08-08T08:09:40.000Z</time>
      </trkpt>
      <trkpt lat="45.51258" lon="6.26531">
        <ele>1405</ele>
        <time>2023-08-08T08:09:47.000Z</time>
      </trkpt>
      <trkpt lat="45.51258" lon="6.26528">
        <ele>1404.8000488281</ele>
        <time>2023-08-08T08:10:01.000Z</time>
      </trkpt>
      <trkpt lat="45.51259" lon="6.26527">
        <ele>1404.8000488281</ele>
        <time>2023-08-08T08:10:04.000Z</time>
      </trkpt>
      <trkpt lat="45.51261" lon="6.26529">
        <ele>1404.8000488281</ele>
        <time>2023-08-08T08:10:13.000Z</time>
      </trkpt>
      <trkpt lat="45.51261" lon="6.26531">
        <ele>1404.8000488281</ele>
        <time>2023-08-08T08:10:22.000Z</time>
      </trkpt>
      <trkpt lat="45.5126" lon="6.26528">
        <ele>1404.5999755859</ele>
        <time>2023-08-08T08:10:29.000Z</time>
      </trkpt>
      <trkpt lat="45.51255" lon="6.26537">
        <ele>1404.4000244141</ele>
        <time>2023-08-08T08:10:34.000Z</time>
      </trkpt>
      <trkpt lat="45.51252" lon="6.2654">
        <ele>1404</ele>
        <time>2023-08-08T08:10:41.000Z</time>
      </trkpt>
      <trkpt lat="45.51251" lon="6.26537">
        <ele>1404</ele>
        <time>2023-08-08T08:10:51.000Z</time>
      </trkpt>
      <trkpt lat="45.51251" lon="6.26541">
        <ele>1403.8000488281</ele>
        <time>2023-08-08T08:11:00.000Z</time>
      </trkpt>
      <trkpt lat="45.5124" lon="6.26547">
        <ele>1402.8000488281</ele>
        <time>2023-08-08T08:11:08.000Z</time>
      </trkpt>
      <trkpt lat="45.51238" lon="6.26547">
        <ele>1402.5999755859</ele>
        <time>2023-08-08T08:11:09.000Z</time>
      </trkpt>
      <trkpt lat="45.51235" lon="6.26548">
        <ele>1401.5999755859</ele>
        <time>2023-08-08T08:11:13.000Z</time>
      </trkpt>
      <trkpt lat="45.51231" lon="6.26548">
        <ele>1400.4000244141</ele>
        <time>2023-08-08T08:11:17.000Z</time>
      </trkpt>
      <trkpt lat="45.51227" lon="6.26549">
        <ele>1399.4000244141</ele>
        <time>2023-08-08T08:11:20.000Z</time>
      </trkpt>
      <trkpt lat="45.51221" lon="6.26548">
        <ele>1398.4000244141</ele>
        <time>2023-08-08T08:11:24.000Z</time>
      </trkpt>
      <trkpt lat="45.5122" lon="6.26548">
        <ele>1398.1999511719</ele>
        <time>2023-08-08T08:11:25.000Z</time>
      </trkpt>
      <trkpt lat="45.51213" lon="6.26552">
        <ele>1397.4000244141</ele>
        <time>2023-08-08T08:11:33.000Z</time>
      </trkpt>
      <trkpt lat="45.51212" lon="6.26552">
        <ele>1397.1999511719</ele>
        <time>2023-08-08T08:11:35.000Z</time>
      </trkpt>
      <trkpt lat="45.51207" lon="6.26555">
        <ele>1396</ele>
        <time>2023-08-08T08:11:39.000Z</time>
      </trkpt>
      <trkpt lat="45.51204" lon="6.26556">
        <ele>1394.8000488281</ele>
        <time>2023-08-08T08:11:42.000Z</time>
      </trkpt>
      <trkpt lat="45.51202" lon="6.26556">
        <ele>1393.5999755859</ele>
        <time>2023-08-08T08:11:46.000Z</time>
      </trkpt>
      <trkpt lat="45.51198" lon="6.26556">
        <ele>1392.4000244141</ele>
        <time>2023-08-08T08:11:50.000Z</time>
      </trkpt>
      <trkpt lat="45.51194" lon="6.26556">
        <ele>1391.1999511719</ele>
        <time>2023-08-08T08:11:53.000Z</time>
      </trkpt>
      <trkpt lat="45.5119" lon="6.26557">
        <ele>1390.1999511719</ele>
        <time>2023-08-08T08:11:56.000Z</time>
      </trkpt>
      <trkpt lat="45.51186" lon="6.26559">
        <ele>1389</ele>
        <time>2023-08-08T08:11:59.000Z</time>
      </trkpt>
      <trkpt lat="45.51185" lon="6.2656">
        <ele>1388.5999755859</ele>
        <time>2023-08-08T08:12:00.000Z</time>
      </trkpt>
      <trkpt lat="45.51183" lon="6.26561">
        <ele>1387.8000488281</ele>
        <time>2023-08-08T08:12:03.000Z</time>
      </trkpt>
      <trkpt lat="45.51177" lon="6.26562">
        <ele>1386.8000488281</ele>
        <time>2023-08-08T08:12:08.000Z</time>
      </trkpt>
      <trkpt lat="45.51176" lon="6.26562">
        <ele>1386.5999755859</ele>
        <time>2023-08-08T08:12:09.000Z</time>
      </trkpt>
      <trkpt lat="45.51171" lon="6.26561">
        <ele>1385.4000244141</ele>
        <time>2023-08-08T08:12:14.000Z</time>
      </trkpt>
      <trkpt lat="45.51167" lon="6.2656">
        <ele>1384.8000488281</ele>
        <time>2023-08-08T08:12:17.000Z</time>
      </trkpt>
      <trkpt lat="45.51164" lon="6.26559">
        <ele>1384.1999511719</ele>
        <time>2023-08-08T08:12:20.000Z</time>
      </trkpt>
      <trkpt lat="45.51161" lon="6.26556">
        <ele>1384</ele>
        <time>2023-08-08T08:12:25.000Z</time>
      </trkpt>
      <trkpt lat="45.51157" lon="6.26556">
        <ele>1384</ele>
        <time>2023-08-08T08:12:33.000Z</time>
      </trkpt>
      <trkpt lat="45.51157" lon="6.26557">
        <ele>1384</ele>
        <time>2023-08-08T08:12:35.000Z</time>
      </trkpt>
      <trkpt lat="45.5115" lon="6.26556">
        <ele>1383.4000244141</ele>
        <time>2023-08-08T08:12:42.000Z</time>
      </trkpt>
      <trkpt lat="45.51144" lon="6.26552">
        <ele>1383.1999511719</ele>
        <time>2023-08-08T08:12:49.000Z</time>
      </trkpt>
      <trkpt lat="45.51141" lon="6.26552">
        <ele>1382.4000244141</ele>
        <time>2023-08-08T08:12:52.000Z</time>
      </trkpt>
      <trkpt lat="45.51138" lon="6.26552">
        <ele>1382</ele>
        <time>2023-08-08T08:12:54.000Z</time>
      </trkpt>
      <trkpt lat="45.51136" lon="6.26555">
        <ele>1381</ele>
        <time>2023-08-08T08:13:00.000Z</time>
      </trkpt>
      <trkpt lat="45.51135" lon="6.2656">
        <ele>1379.8000488281</ele>
        <time>2023-08-08T08:13:05.000Z</time>
      </trkpt>
      <trkpt lat="45.51134" lon="6.26563">
        <ele>1378.5999755859</ele>
        <time>2023-08-08T08:13:09.000Z</time>
      </trkpt>
      <trkpt lat="45.51133" lon="6.26564">
        <ele>1378.4000244141</ele>
        <time>2023-08-08T08:13:10.000Z</time>
      </trkpt>
      <trkpt lat="45.51131" lon="6.26566">
        <ele>1377.4000244141</ele>
        <time>2023-08-08T08:13:13.000Z</time>
      </trkpt>
      <trkpt lat="45.5113" lon="6.26567">
        <ele>1376.8000488281</ele>
        <time>2023-08-08T08:13:15.000Z</time>
      </trkpt>
      <trkpt lat="45.51129" lon="6.26566">
        <ele>1376.4000244141</ele>
        <time>2023-08-08T08:13:17.000Z</time>
      </trkpt>
      <trkpt lat="45.51125" lon="6.26566">
        <ele>1375.4000244141</ele>
        <time>2023-08-08T08:13:21.000Z</time>
      </trkpt>
      <trkpt lat="45.51125" lon="6.26566">
        <ele>1375.1999511719</ele>
        <time>2023-08-08T08:13:22.000Z</time>
      </trkpt>
      <trkpt lat="45.51121" lon="6.26559">
        <ele>1374.1999511719</ele>
        <time>2023-08-08T08:13:29.000Z</time>
      </trkpt>
      <trkpt lat="45.51121" lon="6.26554">
        <ele>1374.1999511719</ele>
        <time>2023-08-08T08:13:32.000Z</time>
      </trkpt>
      <trkpt lat="45.51124" lon="6.2655">
        <ele>1373</ele>
        <time>2023-08-08T08:13:37.000Z</time>
      </trkpt>
      <trkpt lat="45.51124" lon="6.26545">
        <ele>1373</ele>
        <time>2023-08-08T08:13:43.000Z</time>
      </trkpt>
      <trkpt lat="45.5112" lon="6.26543">
        <ele>1372</ele>
        <time>2023-08-08T08:13:47.000Z</time>
      </trkpt>
      <trkpt lat="45.51118" lon="6.26542">
        <ele>1371.1999511719</ele>
        <time>2023-08-08T08:13:50.000Z</time>
      </trkpt>
      <trkpt lat="45.51118" lon="6.26542">
        <ele>1370.8000488281</ele>
        <time>2023-08-08T08:13:51.000Z</time>
      </trkpt>
      <trkpt lat="45.51116" lon="6.26541">
        <ele>1369.4000244141</ele>
        <time>2023-08-08T08:13:55.000Z</time>
      </trkpt>
      <trkpt lat="45.51115" lon="6.26538">
        <ele>1368.5999755859</ele>
        <time>2023-08-08T08:13:57.000Z</time>
      </trkpt>
      <trkpt lat="45.51115" lon="6.26537">
        <ele>1368.4000244141</ele>
        <time>2023-08-08T08:13:58.000Z</time>
      </trkpt>
      <trkpt lat="45.51114" lon="6.26534">
        <ele>1367.4000244141</ele>
        <time>2023-08-08T08:14:02.000Z</time>
      </trkpt>
      <trkpt lat="45.51113" lon="6.26533">
        <ele>1367.1999511719</ele>
        <time>2023-08-08T08:14:03.000Z</time>
      </trkpt>
      <trkpt lat="45.51112" lon="6.26525">
        <ele>1366.5999755859</ele>
        <time>2023-08-08T08:14:09.000Z</time>
      </trkpt>
      <trkpt lat="45.51112" lon="6.26524">
        <ele>1366.1999511719</ele>
        <time>2023-08-08T08:14:10.000Z</time>
      </trkpt>
      <trkpt lat="45.51115" lon="6.26517">
        <ele>1365.1999511719</ele>
        <time>2023-08-08T08:14:16.000Z</time>
      </trkpt>
      <trkpt lat="45.51117" lon="6.26515">
        <ele>1364.8000488281</ele>
        <time>2023-08-08T08:14:18.000Z</time>
      </trkpt>
      <trkpt lat="45.51116" lon="6.26515">
        <ele>1364.1999511719</ele>
        <time>2023-08-08T08:14:20.000Z</time>
      </trkpt>
      <trkpt lat="45.51116" lon="6.26514">
        <ele>1364</ele>
        <time>2023-08-08T08:14:21.000Z</time>
      </trkpt>
      <trkpt lat="45.51115" lon="6.26511">
        <ele>1363</ele>
        <time>2023-08-08T08:14:25.000Z</time>
      </trkpt>
      <trkpt lat="45.51114" lon="6.2651">
        <ele>1362.1999511719</ele>
        <time>2023-08-08T08:14:27.000Z</time>
      </trkpt>
      <trkpt lat="45.51113" lon="6.2651">
        <ele>1362</ele>
        <time>2023-08-08T08:14:28.000Z</time>
      </trkpt>
      <trkpt lat="45.51112" lon="6.26508">
        <ele>1361.8000488281</ele>
        <time>2023-08-08T08:14:29.000Z</time>
      </trkpt>
      <trkpt lat="45.51111" lon="6.26506">
        <ele>1360.5999755859</ele>
        <time>2023-08-08T08:14:32.000Z</time>
      </trkpt>
      <trkpt lat="45.5111" lon="6.26505">
        <ele>1360.4000244141</ele>
        <time>2023-08-08T08:14:33.000Z</time>
      </trkpt>
      <trkpt lat="45.51108" lon="6.26504">
        <ele>1359.4000244141</ele>
        <time>2023-08-08T08:14:37.000Z</time>
      </trkpt>
      <trkpt lat="45.51105" lon="6.26502">
        <ele>1358.4000244141</ele>
        <time>2023-08-08T08:14:40.000Z</time>
      </trkpt>
      <trkpt lat="45.51104" lon="6.26502">
        <ele>1358</ele>
        <time>2023-08-08T08:14:41.000Z</time>
      </trkpt>
      <trkpt lat="45.51103" lon="6.26501">
        <ele>1357.1999511719</ele>
        <time>2023-08-08T08:14:43.000Z</time>
      </trkpt>
      <trkpt lat="45.51101" lon="6.26501">
        <ele>1356</ele>
        <time>2023-08-08T08:14:48.000Z</time>
      </trkpt>
      <trkpt lat="45.511" lon="6.265">
        <ele>1355.4000244141</ele>
        <time>2023-08-08T08:14:50.000Z</time>
      </trkpt>
      <trkpt lat="45.51099" lon="6.26499">
        <ele>1354.5999755859</ele>
        <time>2023-08-08T08:14:52.000Z</time>
      </trkpt>
      <trkpt lat="45.51096" lon="6.26497">
        <ele>1353.4000244141</ele>
        <time>2023-08-08T08:14:56.000Z</time>
      </trkpt>
      <trkpt lat="45.51093" lon="6.26496">
        <ele>1352.5999755859</ele>
        <time>2023-08-08T08:14:59.000Z</time>
      </trkpt>
      <trkpt lat="45.51094" lon="6.26496">
        <ele>1352.1999511719</ele>
        <time>2023-08-08T08:15:00.000Z</time>
      </trkpt>
      <trkpt lat="45.51095" lon="6.26493">
        <ele>1351</ele>
        <time>2023-08-08T08:15:04.000Z</time>
      </trkpt>
      <trkpt lat="45.51095" lon="6.2649">
        <ele>1350.4000244141</ele>
        <time>2023-08-08T08:15:06.000Z</time>
      </trkpt>
      <trkpt lat="45.51095" lon="6.26488">
        <ele>1349.5999755859</ele>
        <time>2023-08-08T08:15:08.000Z</time>
      </trkpt>
      <trkpt lat="45.51093" lon="6.26486">
        <ele>1348.4000244141</ele>
        <time>2023-08-08T08:15:12.000Z</time>
      </trkpt>
      <trkpt lat="45.51093" lon="6.26485">
        <ele>1348</ele>
        <time>2023-08-08T08:15:13.000Z</time>
      </trkpt>
      <trkpt lat="45.51092" lon="6.26483">
        <ele>1347.1999511719</ele>
        <time>2023-08-08T08:15:15.000Z</time>
      </trkpt>
      <trkpt lat="45.51088" lon="6.26476">
        <ele>1346.1999511719</ele>
        <time>2023-08-08T08:15:19.000Z</time>
      </trkpt>
      <trkpt lat="45.51086" lon="6.26475">
        <ele>1345.4000244141</ele>
        <time>2023-08-08T08:15:22.000Z</time>
      </trkpt>
      <trkpt lat="45.51084" lon="6.26473">
        <ele>1345</ele>
        <time>2023-08-08T08:15:23.000Z</time>
      </trkpt>
      <trkpt lat="45.51082" lon="6.2647">
        <ele>1343.8000488281</ele>
        <time>2023-08-08T08:15:27.000Z</time>
      </trkpt>
      <trkpt lat="45.51081" lon="6.26465">
        <ele>1343.4000244141</ele>
        <time>2023-08-08T08:15:33.000Z</time>
      </trkpt>
      <trkpt lat="45.51085" lon="6.26457">
        <ele>1342.8000488281</ele>
        <time>2023-08-08T08:15:39.000Z</time>
      </trkpt>
      <trkpt lat="45.51095" lon="6.26449">
        <ele>1341.8000488281</ele>
        <time>2023-08-08T08:15:47.000Z</time>
      </trkpt>
      <trkpt lat="45.51101" lon="6.26444">
        <ele>1341.8000488281</ele>
        <time>2023-08-08T08:15:53.000Z</time>
      </trkpt>
      <trkpt lat="45.51112" lon="6.26433">
        <ele>1340.5999755859</ele>
        <time>2023-08-08T08:16:01.000Z</time>
      </trkpt>
      <trkpt lat="45.51121" lon="6.26423">
        <ele>1340.1999511719</ele>
        <time>2023-08-08T08:16:10.000Z</time>
      </trkpt>
      <trkpt lat="45.51127" lon="6.26419">
        <ele>1340.5999755859</ele>
        <time>2023-08-08T08:16:18.000Z</time>
      </trkpt>
      <trkpt lat="45.51245" lon="6.26424">
        <ele>1340</ele>
        <time>2023-08-08T08:18:09.000Z</time>
      </trkpt>
      <trkpt lat="45.51299" lon="6.26441">
        <ele>1343.8000488281</ele>
        <time>2023-08-08T08:18:47.000Z</time>
      </trkpt>
      <trkpt lat="45.513" lon="6.26441">
        <ele>1344.5999755859</ele>
        <time>2023-08-08T08:18:51.000Z</time>
      </trkpt>
      <trkpt lat="45.51325" lon="6.2645">
        <ele>1346.8000488281</ele>
        <time>2023-08-08T08:19:13.000Z</time>
      </trkpt>
      <trkpt lat="45.51318" lon="6.26452">
        <ele>1346.8000488281</ele>
        <time>2023-08-08T08:19:14.000Z</time>
      </trkpt>
      <trkpt lat="45.51327" lon="6.2645">
        <ele>1347.1999511719</ele>
        <time>2023-08-08T08:19:16.000Z</time>
      </trkpt>
      <trkpt lat="45.51329" lon="6.26451">
        <ele>1347.8000488281</ele>
        <time>2023-08-08T08:19:20.000Z</time>
      </trkpt>
      <trkpt lat="45.5133" lon="6.2645">
        <ele>1348.1999511719</ele>
        <time>2023-08-08T08:19:23.000Z</time>
      </trkpt>
      <trkpt lat="45.51332" lon="6.26449">
        <ele>1348.5999755859</ele>
        <time>2023-08-08T08:19:25.000Z</time>
      </trkpt>
      <trkpt lat="45.51337" lon="6.26447">
        <ele>1349</ele>
        <time>2023-08-08T08:19:28.000Z</time>
      </trkpt>
      <trkpt lat="45.51346" lon="6.26446">
        <ele>1349.4000244141</ele>
        <time>2023-08-08T08:19:32.000Z</time>
      </trkpt>
      <trkpt lat="45.51348" lon="6.26446">
        <ele>1349.4000244141</ele>
        <time>2023-08-08T08:19:33.000Z</time>
      </trkpt>
      <trkpt lat="45.51369" lon="6.26429">
        <ele>1348.1999511719</ele>
        <time>2023-08-08T08:19:51.000Z</time>
      </trkpt>
      <trkpt lat="45.51371" lon="6.26426">
        <ele>1348</ele>
        <time>2023-08-08T08:19:53.000Z</time>
      </trkpt>
      <trkpt lat="45.5138" lon="6.26412">
        <ele>1347.5999755859</ele>
        <time>2023-08-08T08:20:02.000Z</time>
      </trkpt>
      <trkpt lat="45.51387" lon="6.26398">
        <ele>1347.4000244141</ele>
        <time>2023-08-08T08:20:10.000Z</time>
      </trkpt>
      <trkpt lat="45.51388" lon="6.26393">
        <ele>1347.1999511719</ele>
        <time>2023-08-08T08:20:14.000Z</time>
      </trkpt>
      <trkpt lat="45.5139" lon="6.26388">
        <ele>1347.1999511719</ele>
        <time>2023-08-08T08:20:18.000Z</time>
      </trkpt>
      <trkpt lat="45.51395" lon="6.26373">
        <ele>1346.1999511719</ele>
        <time>2023-08-08T08:20:26.000Z</time>
      </trkpt>
      <trkpt lat="45.51396" lon="6.26372">
        <ele>1346.1999511719</ele>
        <time>2023-08-08T08:20:27.000Z</time>
      </trkpt>
      <trkpt lat="45.51403" lon="6.2636">
        <ele>1345.4000244141</ele>
        <time>2023-08-08T08:20:35.000Z</time>
      </trkpt>
      <trkpt lat="45.51412" lon="6.26352">
        <ele>1345</ele>
        <time>2023-08-08T08:20:41.000Z</time>
      </trkpt>
      <trkpt lat="45.51415" lon="6.26348">
        <ele>1344.4000244141</ele>
        <time>2023-08-08T08:20:44.000Z</time>
      </trkpt>
      <trkpt lat="45.51416" lon="6.26346">
        <ele>1344</ele>
        <time>2023-08-08T08:20:45.000Z</time>
      </trkpt>
      <trkpt lat="45.51421" lon="6.26339">
        <ele>1342.8000488281</ele>
        <time>2023-08-08T08:20:49.000Z</time>
      </trkpt>
      <trkpt lat="45.51424" lon="6.26335">
        <ele>1342.1999511719</ele>
        <time>2023-08-08T08:20:52.000Z</time>
      </trkpt>
      <trkpt lat="45.51426" lon="6.26334">
        <ele>1341.5999755859</ele>
        <time>2023-08-08T08:20:54.000Z</time>
      </trkpt>
      <trkpt lat="45.51429" lon="6.26328">
        <ele>1340.5999755859</ele>
        <time>2023-08-08T08:20:59.000Z</time>
      </trkpt>
      <trkpt lat="45.51431" lon="6.26325">
        <ele>1340.1999511719</ele>
        <time>2023-08-08T08:21:01.000Z</time>
      </trkpt>
      <trkpt lat="45.51435" lon="6.26318">
        <ele>1339.4000244141</ele>
        <time>2023-08-08T08:21:05.000Z</time>
      </trkpt>
      <trkpt lat="45.51436" lon="6.26317">
        <ele>1339.1999511719</ele>
        <time>2023-08-08T08:21:06.000Z</time>
      </trkpt>
      <trkpt lat="45.51438" lon="6.26314">
        <ele>1338.4000244141</ele>
        <time>2023-08-08T08:21:10.000Z</time>
      </trkpt>
      <trkpt lat="45.51441" lon="6.26307">
        <ele>1337.8000488281</ele>
        <time>2023-08-08T08:21:15.000Z</time>
      </trkpt>
      <trkpt lat="45.51444" lon="6.26303">
        <ele>1337.1999511719</ele>
        <time>2023-08-08T08:21:18.000Z</time>
      </trkpt>
      <trkpt lat="45.51445" lon="6.263">
        <ele>1336.5999755859</ele>
        <time>2023-08-08T08:21:21.000Z</time>
      </trkpt>
      <trkpt lat="45.51447" lon="6.26298">
        <ele>1336.1999511719</ele>
        <time>2023-08-08T08:21:23.000Z</time>
      </trkpt>
      <trkpt lat="45.51456" lon="6.26292">
        <ele>1335.1999511719</ele>
        <time>2023-08-08T08:21:30.000Z</time>
      </trkpt>
      <trkpt lat="45.51466" lon="6.26285">
        <ele>1334</ele>
        <time>2023-08-08T08:21:38.000Z</time>
      </trkpt>
      <trkpt lat="45.51471" lon="6.2628">
        <ele>1333</ele>
        <time>2023-08-08T08:21:44.000Z</time>
      </trkpt>
      <trkpt lat="45.51473" lon="6.26277">
        <ele>1332.1999511719</ele>
        <time>2023-08-08T08:21:48.000Z</time>
      </trkpt>
      <trkpt lat="45.51475" lon="6.26275">
        <ele>1331.5999755859</ele>
        <time>2023-08-08T08:21:50.000Z</time>
      </trkpt>
      <trkpt lat="45.51479" lon="6.26271">
        <ele>1330.5999755859</ele>
        <time>2023-08-08T08:21:53.000Z</time>
      </trkpt>
      <trkpt lat="45.51483" lon="6.26268">
        <ele>1330</ele>
        <time>2023-08-08T08:21:56.000Z</time>
      </trkpt>
      <trkpt lat="45.51484" lon="6.26265">
        <ele>1329.5999755859</ele>
        <time>2023-08-08T08:21:58.000Z</time>
      </trkpt>
      <trkpt lat="45.51484" lon="6.26264">
        <ele>1329.4000244141</ele>
        <time>2023-08-08T08:21:59.000Z</time>
      </trkpt>
      <trkpt lat="45.51485" lon="6.26258">
        <ele>1329.4000244141</ele>
        <time>2023-08-08T08:22:03.000Z</time>
      </trkpt>
      <trkpt lat="45.51486" lon="6.26255">
        <ele>1329.5999755859</ele>
        <time>2023-08-08T08:22:11.000Z</time>
      </trkpt>
      <trkpt lat="45.51483" lon="6.26245">
        <ele>1328.8000488281</ele>
        <time>2023-08-08T08:22:17.000Z</time>
      </trkpt>
      <trkpt lat="45.51481" lon="6.26243">
        <ele>1328.5999755859</ele>
        <time>2023-08-08T08:22:19.000Z</time>
      </trkpt>
      <trkpt lat="45.51474" lon="6.26236">
        <ele>1328</ele>
        <time>2023-08-08T08:22:26.000Z</time>
      </trkpt>
      <trkpt lat="45.51467" lon="6.26231">
        <ele>1327.4000244141</ele>
        <time>2023-08-08T08:22:30.000Z</time>
      </trkpt>
      <trkpt lat="45.51459" lon="6.26228">
        <ele>1327</ele>
        <time>2023-08-08T08:22:34.000Z</time>
      </trkpt>
      <trkpt lat="45.5145" lon="6.26224">
        <ele>1326.4000244141</ele>
        <time>2023-08-08T08:22:39.000Z</time>
      </trkpt>
      <trkpt lat="45.51445" lon="6.26222">
        <ele>1326</ele>
        <time>2023-08-08T08:22:42.000Z</time>
      </trkpt>
      <trkpt lat="45.51439" lon="6.26223">
        <ele>1325.4000244141</ele>
        <time>2023-08-08T08:22:46.000Z</time>
      </trkpt>
      <trkpt lat="45.51433" lon="6.26224">
        <ele>1324.8000488281</ele>
        <time>2023-08-08T08:22:50.000Z</time>
      </trkpt>
      <trkpt lat="45.51416" lon="6.26231">
        <ele>1323.1999511719</ele>
        <time>2023-08-08T08:23:02.000Z</time>
      </trkpt>
      <trkpt lat="45.51415" lon="6.26234">
        <ele>1323.1999511719</ele>
        <time>2023-08-08T08:23:05.000Z</time>
      </trkpt>
      <trkpt lat="45.5141" lon="6.2624">
        <ele>1323</ele>
        <time>2023-08-08T08:23:13.000Z</time>
      </trkpt>
      <trkpt lat="45.514" lon="6.26247">
        <ele>1322.1999511719</ele>
        <time>2023-08-08T08:23:22.000Z</time>
      </trkpt>
      <trkpt lat="45.51399" lon="6.26248">
        <ele>1322.1999511719</ele>
        <time>2023-08-08T08:23:23.000Z</time>
      </trkpt>
      <trkpt lat="45.51394" lon="6.26246">
        <ele>1321.4000244141</ele>
        <time>2023-08-08T08:23:34.000Z</time>
      </trkpt>
      <trkpt lat="45.51394" lon="6.26246">
        <ele>1321.1999511719</ele>
        <time>2023-08-08T08:23:35.000Z</time>
      </trkpt>
      <trkpt lat="45.51395" lon="6.26242">
        <ele>1320.1999511719</ele>
        <time>2023-08-08T08:23:38.000Z</time>
      </trkpt>
      <trkpt lat="45.51395" lon="6.26235">
        <ele>1319</ele>
        <time>2023-08-08T08:23:42.000Z</time>
      </trkpt>
      <trkpt lat="45.51394" lon="6.26234">
        <ele>1318.1999511719</ele>
        <time>2023-08-08T08:23:44.000Z</time>
      </trkpt>
      <trkpt lat="45.51394" lon="6.26233">
        <ele>1317.8000488281</ele>
        <time>2023-08-08T08:23:45.000Z</time>
      </trkpt>
      <trkpt lat="45.51395" lon="6.2623">
        <ele>1316.5999755859</ele>
        <time>2023-08-08T08:23:48.000Z</time>
      </trkpt>
      <trkpt lat="45.51394" lon="6.26227">
        <ele>1315.5999755859</ele>
        <time>2023-08-08T08:23:51.000Z</time>
      </trkpt>
      <trkpt lat="45.51394" lon="6.26225">
        <ele>1315.1999511719</ele>
        <time>2023-08-08T08:23:52.000Z</time>
      </trkpt>
      <trkpt lat="45.51394" lon="6.26223">
        <ele>1314.4000244141</ele>
        <time>2023-08-08T08:23:54.000Z</time>
      </trkpt>
      <trkpt lat="45.51394" lon="6.26221">
        <ele>1313.4000244141</ele>
        <time>2023-08-08T08:23:57.000Z</time>
      </trkpt>
      <trkpt lat="45.51396" lon="6.26221">
        <ele>1312.8000488281</ele>
        <time>2023-08-08T08:23:59.000Z</time>
      </trkpt>
      <trkpt lat="45.51396" lon="6.2622">
        <ele>1312.5999755859</ele>
        <time>2023-08-08T08:24:00.000Z</time>
      </trkpt>
      <trkpt lat="45.51398" lon="6.26218">
        <ele>1312.4000244141</ele>
        <time>2023-08-08T08:24:04.000Z</time>
      </trkpt>
      <trkpt lat="45.51397" lon="6.26214">
        <ele>1312.4000244141</ele>
        <time>2023-08-08T08:24:11.000Z</time>
      </trkpt>
      <trkpt lat="45.51397" lon="6.26208">
        <ele>1313.5999755859</ele>
        <time>2023-08-08T08:24:16.000Z</time>
      </trkpt>
      <trkpt lat="45.51396" lon="6.26204">
        <ele>1314.4000244141</ele>
        <time>2023-08-08T08:24:19.000Z</time>
      </trkpt>
      <trkpt lat="45.51395" lon="6.26204">
        <ele>1314.8000488281</ele>
        <time>2023-08-08T08:24:20.000Z</time>
      </trkpt>
      <trkpt lat="45.51393" lon="6.26197">
        <ele>1315.8000488281</ele>
        <time>2023-08-08T08:24:24.000Z</time>
      </trkpt>
      <trkpt lat="45.5139" lon="6.26192">
        <ele>1316.4000244141</ele>
        <time>2023-08-08T08:24:27.000Z</time>
      </trkpt>
      <trkpt lat="45.51385" lon="6.26184">
        <ele>1316.8000488281</ele>
        <time>2023-08-08T08:24:34.000Z</time>
      </trkpt>
      <trkpt lat="45.51385" lon="6.26179">
        <ele>1316.8000488281</ele>
        <time>2023-08-08T08:24:37.000Z</time>
      </trkpt>
      <trkpt lat="45.51386" lon="6.26173">
        <ele>1317.1999511719</ele>
        <time>2023-08-08T08:24:41.000Z</time>
      </trkpt>
      <trkpt lat="45.51387" lon="6.26158">
        <ele>1317.4000244141</ele>
        <time>2023-08-08T08:24:50.000Z</time>
      </trkpt>
      <trkpt lat="45.51385" lon="6.26152">
        <ele>1315.8000488281</ele>
        <time>2023-08-08T08:24:56.000Z</time>
      </trkpt>
      <trkpt lat="45.51384" lon="6.26152">
        <ele>1314.8000488281</ele>
        <time>2023-08-08T08:24:59.000Z</time>
      </trkpt>
      <trkpt lat="45.51383" lon="6.26151">
        <ele>1314.5999755859</ele>
        <time>2023-08-08T08:25:00.000Z</time>
      </trkpt>
      <trkpt lat="45.51376" lon="6.26145">
        <ele>1314.1999511719</ele>
        <time>2023-08-08T08:25:07.000Z</time>
      </trkpt>
      <trkpt lat="45.51371" lon="6.26132">
        <ele>1314</ele>
        <time>2023-08-08T08:25:14.000Z</time>
      </trkpt>
      <trkpt lat="45.51363" lon="6.26114">
        <ele>1315.1999511719</ele>
        <time>2023-08-08T08:25:26.000Z</time>
      </trkpt>
      <trkpt lat="45.51357" lon="6.26103">
        <ele>1315</ele>
        <time>2023-08-08T08:25:34.000Z</time>
      </trkpt>
      <trkpt lat="45.5135" lon="6.26101">
        <ele>1313.4000244141</ele>
        <time>2023-08-08T08:25:43.000Z</time>
      </trkpt>
      <trkpt lat="45.51343" lon="6.26098">
        <ele>1312.4000244141</ele>
        <time>2023-08-08T08:25:47.000Z</time>
      </trkpt>
      <trkpt lat="45.51336" lon="6.26093">
        <ele>1311.4000244141</ele>
        <time>2023-08-08T08:25:52.000Z</time>
      </trkpt>
      <trkpt lat="45.51335" lon="6.26092">
        <ele>1311.1999511719</ele>
        <time>2023-08-08T08:25:53.000Z</time>
      </trkpt>
      <trkpt lat="45.51324" lon="6.26085">
        <ele>1310.5999755859</ele>
        <time>2023-08-08T08:26:00.000Z</time>
      </trkpt>
      <trkpt lat="45.51314" lon="6.26078">
        <ele>1310.4000244141</ele>
        <time>2023-08-08T08:26:08.000Z</time>
      </trkpt>
      <trkpt lat="45.5131" lon="6.26075">
        <ele>1310.1999511719</ele>
        <time>2023-08-08T08:26:12.000Z</time>
      </trkpt>
      <trkpt lat="45.51306" lon="6.26073">
        <ele>1310</ele>
        <time>2023-08-08T08:26:14.000Z</time>
      </trkpt>
      <trkpt lat="45.51295" lon="6.2607">
        <ele>1309.1999511719</ele>
        <time>2023-08-08T08:26:22.000Z</time>
      </trkpt>
      <trkpt lat="45.51284" lon="6.26069">
        <ele>1308.1999511719</ele>
        <time>2023-08-08T08:26:30.000Z</time>
      </trkpt>
      <trkpt lat="45.51282" lon="6.26065">
        <ele>1307.4000244141</ele>
        <time>2023-08-08T08:26:38.000Z</time>
      </trkpt>
      <trkpt lat="45.51282" lon="6.26061">
        <ele>1307.4000244141</ele>
        <time>2023-08-08T08:26:42.000Z</time>
      </trkpt>
      <trkpt lat="45.5128" lon="6.26062">
        <ele>1307.4000244141</ele>
        <time>2023-08-08T08:26:45.000Z</time>
      </trkpt>
      <trkpt lat="45.51279" lon="6.26061">
        <ele>1307.4000244141</ele>
        <time>2023-08-08T08:26:46.000Z</time>
      </trkpt>
      <trkpt lat="45.51272" lon="6.26057">
        <ele>1307</ele>
        <time>2023-08-08T08:26:52.000Z</time>
      </trkpt>
      <trkpt lat="45.51267" lon="6.26055">
        <ele>1305.8000488281</ele>
        <time>2023-08-08T08:26:57.000Z</time>
      </trkpt>
      <trkpt lat="45.51264" lon="6.26054">
        <ele>1305.1999511719</ele>
        <time>2023-08-08T08:27:00.000Z</time>
      </trkpt>
      <trkpt lat="45.51261" lon="6.26053">
        <ele>1304.5999755859</ele>
        <time>2023-08-08T08:27:03.000Z</time>
      </trkpt>
      <trkpt lat="45.51256" lon="6.2605">
        <ele>1303.4000244141</ele>
        <time>2023-08-08T08:27:07.000Z</time>
      </trkpt>
      <trkpt lat="45.51255" lon="6.26049">
        <ele>1303.1999511719</ele>
        <time>2023-08-08T08:27:08.000Z</time>
      </trkpt>
      <trkpt lat="45.51251" lon="6.26047">
        <ele>1302.1999511719</ele>
        <time>2023-08-08T08:27:11.000Z</time>
      </trkpt>
      <trkpt lat="45.51248" lon="6.26046">
        <ele>1301</ele>
        <time>2023-08-08T08:27:15.000Z</time>
      </trkpt>
      <trkpt lat="45.51247" lon="6.26045">
        <ele>1300.5999755859</ele>
        <time>2023-08-08T08:27:16.000Z</time>
      </trkpt>
      <trkpt lat="45.51243" lon="6.26042">
        <ele>1299.8000488281</ele>
        <time>2023-08-08T08:27:19.000Z</time>
      </trkpt>
      <trkpt lat="45.51238" lon="6.26037">
        <ele>1298.5999755859</ele>
        <time>2023-08-08T08:27:23.000Z</time>
      </trkpt>
      <trkpt lat="45.51236" lon="6.26035">
        <ele>1298</ele>
        <time>2023-08-08T08:27:25.000Z</time>
      </trkpt>
      <trkpt lat="45.51234" lon="6.26035">
        <ele>1297.5999755859</ele>
        <time>2023-08-08T08:27:27.000Z</time>
      </trkpt>
      <trkpt lat="45.51229" lon="6.26035">
        <ele>1296.4000244141</ele>
        <time>2023-08-08T08:27:31.000Z</time>
      </trkpt>
      <trkpt lat="45.51226" lon="6.26033">
        <ele>1295.4000244141</ele>
        <time>2023-08-08T08:27:34.000Z</time>
      </trkpt>
      <trkpt lat="45.51222" lon="6.26029">
        <ele>1294.1999511719</ele>
        <time>2023-08-08T08:27:38.000Z</time>
      </trkpt>
      <trkpt lat="45.51218" lon="6.26027">
        <ele>1293</ele>
        <time>2023-08-08T08:27:41.000Z</time>
      </trkpt>
      <trkpt lat="45.51213" lon="6.26023">
        <ele>1291.5999755859</ele>
        <time>2023-08-08T08:27:45.000Z</time>
      </trkpt>
      <trkpt lat="45.51207" lon="6.26018">
        <ele>1290.4000244141</ele>
        <time>2023-08-08T08:27:49.000Z</time>
      </trkpt>
      <trkpt lat="45.51206" lon="6.26018">
        <ele>1289.8000488281</ele>
        <time>2023-08-08T08:27:51.000Z</time>
      </trkpt>
      <trkpt lat="45.51205" lon="6.26018">
        <ele>1289.4000244141</ele>
        <time>2023-08-08T08:27:52.000Z</time>
      </trkpt>
      <trkpt lat="45.51198" lon="6.26016">
        <ele>1287</ele>
        <time>2023-08-08T08:28:01.000Z</time>
      </trkpt>
      <trkpt lat="45.51186" lon="6.26016">
        <ele>1284</ele>
        <time>2023-08-08T08:28:12.000Z</time>
      </trkpt>
      <trkpt lat="45.51181" lon="6.26017">
        <ele>1282</ele>
        <time>2023-08-08T08:28:19.000Z</time>
      </trkpt>
      <trkpt lat="45.51178" lon="6.26017">
        <ele>1281.4000244141</ele>
        <time>2023-08-08T08:28:21.000Z</time>
      </trkpt>
      <trkpt lat="45.51176" lon="6.26018">
        <ele>1281</ele>
        <time>2023-08-08T08:28:22.000Z</time>
      </trkpt>
      <trkpt lat="45.51172" lon="6.26017">
        <ele>1280</ele>
        <time>2023-08-08T08:28:25.000Z</time>
      </trkpt>
      <trkpt lat="45.51168" lon="6.26019">
        <ele>1279</ele>
        <time>2023-08-08T08:28:28.000Z</time>
      </trkpt>
      <trkpt lat="45.51166" lon="6.26021">
        <ele>1278.4000244141</ele>
        <time>2023-08-08T08:28:30.000Z</time>
      </trkpt>
      <trkpt lat="45.51164" lon="6.26023">
        <ele>1277.8000488281</ele>
        <time>2023-08-08T08:28:32.000Z</time>
      </trkpt>
      <trkpt lat="45.51159" lon="6.26032">
        <ele>1276.5999755859</ele>
        <time>2023-08-08T08:28:38.000Z</time>
      </trkpt>
      <trkpt lat="45.51159" lon="6.26033">
        <ele>1276.4000244141</ele>
        <time>2023-08-08T08:28:39.000Z</time>
      </trkpt>
      <trkpt lat="45.51156" lon="6.26036">
        <ele>1275.5999755859</ele>
        <time>2023-08-08T08:28:42.000Z</time>
      </trkpt>
      <trkpt lat="45.51154" lon="6.26039">
        <ele>1274.5999755859</ele>
        <time>2023-08-08T08:28:45.000Z</time>
      </trkpt>
      <trkpt lat="45.51151" lon="6.26042">
        <ele>1273.1999511719</ele>
        <time>2023-08-08T08:28:49.000Z</time>
      </trkpt>
      <trkpt lat="45.51151" lon="6.26044">
        <ele>1272.1999511719</ele>
        <time>2023-08-08T08:28:52.000Z</time>
      </trkpt>
      <trkpt lat="45.51151" lon="6.26046">
        <ele>1271.8000488281</ele>
        <time>2023-08-08T08:28:53.000Z</time>
      </trkpt>
      <trkpt lat="45.51152" lon="6.2605">
        <ele>1270.5999755859</ele>
        <time>2023-08-08T08:28:56.000Z</time>
      </trkpt>
      <trkpt lat="45.51152" lon="6.26053">
        <ele>1269.4000244141</ele>
        <time>2023-08-08T08:29:00.000Z</time>
      </trkpt>
      <trkpt lat="45.51152" lon="6.26055">
        <ele>1268.4000244141</ele>
        <time>2023-08-08T08:29:05.000Z</time>
      </trkpt>
      <trkpt lat="45.51152" lon="6.2606">
        <ele>1267.1999511719</ele>
        <time>2023-08-08T08:29:08.000Z</time>
      </trkpt>
      <trkpt lat="45.51152" lon="6.2607">
        <ele>1266</ele>
        <time>2023-08-08T08:29:12.000Z</time>
      </trkpt>
      <trkpt lat="45.51151" lon="6.26078">
        <ele>1264.8000488281</ele>
        <time>2023-08-08T08:29:17.000Z</time>
      </trkpt>
      <trkpt lat="45.51149" lon="6.2608">
        <ele>1263.8000488281</ele>
        <time>2023-08-08T08:29:21.000Z</time>
      </trkpt>
      <trkpt lat="45.51148" lon="6.26079">
        <ele>1263.5999755859</ele>
        <time>2023-08-08T08:29:22.000Z</time>
      </trkpt>
      <trkpt lat="45.5114" lon="6.26069">
        <ele>1263.5999755859</ele>
        <time>2023-08-08T08:29:36.000Z</time>
      </trkpt>
      <trkpt lat="45.51132" lon="6.26055">
        <ele>1264</ele>
        <time>2023-08-08T08:29:47.000Z</time>
      </trkpt>
      <trkpt lat="45.51126" lon="6.26052">
        <ele>1263.8000488281</ele>
        <time>2023-08-08T08:29:53.000Z</time>
      </trkpt>
      <trkpt lat="45.51121" lon="6.26045">
        <ele>1263.8000488281</ele>
        <time>2023-08-08T08:29:59.000Z</time>
      </trkpt>
      <trkpt lat="45.51111" lon="6.26028">
        <ele>1263.5999755859</ele>
        <time>2023-08-08T08:30:06.000Z</time>
      </trkpt>
      <trkpt lat="45.51102" lon="6.26016">
        <ele>1262.8000488281</ele>
        <time>2023-08-08T08:30:14.000Z</time>
      </trkpt>
      <trkpt lat="45.51097" lon="6.2601">
        <ele>1262.5999755859</ele>
        <time>2023-08-08T08:30:17.000Z</time>
      </trkpt>
      <trkpt lat="45.51093" lon="6.26004">
        <ele>1261.8000488281</ele>
        <time>2023-08-08T08:30:21.000Z</time>
      </trkpt>
      <trkpt lat="45.51091" lon="6.25999">
        <ele>1261.5999755859</ele>
        <time>2023-08-08T08:30:24.000Z</time>
      </trkpt>
      <trkpt lat="45.5109" lon="6.25991">
        <ele>1260.4000244141</ele>
        <time>2023-08-08T08:30:29.000Z</time>
      </trkpt>
      <trkpt lat="45.51089" lon="6.25988">
        <ele>1259.8000488281</ele>
        <time>2023-08-08T08:30:31.000Z</time>
      </trkpt>
      <trkpt lat="45.51089" lon="6.25984">
        <ele>1259.1999511719</ele>
        <time>2023-08-08T08:30:33.000Z</time>
      </trkpt>
      <trkpt lat="45.51087" lon="6.25975">
        <ele>1258</ele>
        <time>2023-08-08T08:30:37.000Z</time>
      </trkpt>
      <trkpt lat="45.51087" lon="6.25973">
        <ele>1257.8000488281</ele>
        <time>2023-08-08T08:30:38.000Z</time>
      </trkpt>
      <trkpt lat="45.51087" lon="6.25967">
        <ele>1257</ele>
        <time>2023-08-08T08:30:41.000Z</time>
      </trkpt>
      <trkpt lat="45.51087" lon="6.25959">
        <ele>1256.1999511719</ele>
        <time>2023-08-08T08:30:46.000Z</time>
      </trkpt>
      <trkpt lat="45.51087" lon="6.25957">
        <ele>1256</ele>
        <time>2023-08-08T08:30:47.000Z</time>
      </trkpt>
      <trkpt lat="45.51086" lon="6.25943">
        <ele>1255</ele>
        <time>2023-08-08T08:30:53.000Z</time>
      </trkpt>
      <trkpt lat="45.51085" lon="6.2593">
        <ele>1254.8000488281</ele>
        <time>2023-08-08T08:30:58.000Z</time>
      </trkpt>
      <trkpt lat="45.51086" lon="6.25914">
        <ele>1255.5999755859</ele>
        <time>2023-08-08T08:31:06.000Z</time>
      </trkpt>
      <trkpt lat="45.51086" lon="6.25909">
        <ele>1256</ele>
        <time>2023-08-08T08:31:09.000Z</time>
      </trkpt>
      <trkpt lat="45.51086" lon="6.25901">
        <ele>1256.5999755859</ele>
        <time>2023-08-08T08:31:15.000Z</time>
      </trkpt>
      <trkpt lat="45.51086" lon="6.2589">
        <ele>1257.1999511719</ele>
        <time>2023-08-08T08:31:20.000Z</time>
      </trkpt>
      <trkpt lat="45.51088" lon="6.25882">
        <ele>1257.5999755859</ele>
        <time>2023-08-08T08:31:23.000Z</time>
      </trkpt>
      <trkpt lat="45.51092" lon="6.25866">
        <ele>1257.4000244141</ele>
        <time>2023-08-08T08:31:32.000Z</time>
      </trkpt>
      <trkpt lat="45.5109" lon="6.25856">
        <ele>1257</ele>
        <time>2023-08-08T08:31:40.000Z</time>
      </trkpt>
      <trkpt lat="45.51085" lon="6.25844">
        <ele>1256.8000488281</ele>
        <time>2023-08-08T08:31:47.000Z</time>
      </trkpt>
      <trkpt lat="45.51081" lon="6.25824">
        <ele>1256.4000244141</ele>
        <time>2023-08-08T08:31:55.000Z</time>
      </trkpt>
      <trkpt lat="45.51081" lon="6.2582">
        <ele>1256.1999511719</ele>
        <time>2023-08-08T08:31:57.000Z</time>
      </trkpt>
      <trkpt lat="45.51082" lon="6.2581">
        <ele>1255.1999511719</ele>
        <time>2023-08-08T08:32:03.000Z</time>
      </trkpt>
      <trkpt lat="45.51082" lon="6.25809">
        <ele>1255</ele>
        <time>2023-08-08T08:32:04.000Z</time>
      </trkpt>
      <trkpt lat="45.51084" lon="6.25802">
        <ele>1254</ele>
        <time>2023-08-08T08:32:08.000Z</time>
      </trkpt>
      <trkpt lat="45.51088" lon="6.25791">
        <ele>1252.8000488281</ele>
        <time>2023-08-08T08:32:13.000Z</time>
      </trkpt>
      <trkpt lat="45.51094" lon="6.25784">
        <ele>1251.8000488281</ele>
        <time>2023-08-08T08:32:18.000Z</time>
      </trkpt>
      <trkpt lat="45.51096" lon="6.2578">
        <ele>1251.8000488281</ele>
        <time>2023-08-08T08:32:22.000Z</time>
      </trkpt>
      <trkpt lat="45.51105" lon="6.25775">
        <ele>1252.8000488281</ele>
        <time>2023-08-08T08:32:30.000Z</time>
      </trkpt>
      <trkpt lat="45.51117" lon="6.25763">
        <ele>1252.8000488281</ele>
        <time>2023-08-08T08:32:38.000Z</time>
      </trkpt>
      <trkpt lat="45.51119" lon="6.25755">
        <ele>1251.8000488281</ele>
        <time>2023-08-08T08:32:45.000Z</time>
      </trkpt>
      <trkpt lat="45.51119" lon="6.25753">
        <ele>1251.8000488281</ele>
        <time>2023-08-08T08:32:46.000Z</time>
      </trkpt>
      <trkpt lat="45.51121" lon="6.2574">
        <ele>1251.4000244141</ele>
        <time>2023-08-08T08:32:53.000Z</time>
      </trkpt>
      <trkpt lat="45.51122" lon="6.25726">
        <ele>1251.1999511719</ele>
        <time>2023-08-08T08:33:02.000Z</time>
      </trkpt>
      <trkpt lat="45.51117" lon="6.2571">
        <ele>1252.1999511719</ele>
        <time>2023-08-08T08:33:09.000Z</time>
      </trkpt>
      <trkpt lat="45.51116" lon="6.25703">
        <ele>1252.8000488281</ele>
        <time>2023-08-08T08:33:13.000Z</time>
      </trkpt>
      <trkpt lat="45.51114" lon="6.25695">
        <ele>1253.4000244141</ele>
        <time>2023-08-08T08:33:17.000Z</time>
      </trkpt>
      <trkpt lat="45.51113" lon="6.25684">
        <ele>1253.8000488281</ele>
        <time>2023-08-08T08:33:22.000Z</time>
      </trkpt>
      <trkpt lat="45.51114" lon="6.25679">
        <ele>1254</ele>
        <time>2023-08-08T08:33:25.000Z</time>
      </trkpt>
      <trkpt lat="45.51117" lon="6.25664">
        <ele>1253.8000488281</ele>
        <time>2023-08-08T08:33:33.000Z</time>
      </trkpt>
      <trkpt lat="45.51123" lon="6.25645">
        <ele>1253.4000244141</ele>
        <time>2023-08-08T08:33:43.000Z</time>
      </trkpt>
      <trkpt lat="45.51127" lon="6.25639">
        <ele>1253.1999511719</ele>
        <time>2023-08-08T08:33:49.000Z</time>
      </trkpt>
      <trkpt lat="45.51125" lon="6.25636">
        <ele>1253.1999511719</ele>
        <time>2023-08-08T08:33:53.000Z</time>
      </trkpt>
      <trkpt lat="45.5112" lon="6.25629">
        <ele>1253.4000244141</ele>
        <time>2023-08-08T08:33:57.000Z</time>
      </trkpt>
      <trkpt lat="45.51108" lon="6.25613">
        <ele>1253</ele>
        <time>2023-08-08T08:34:05.000Z</time>
      </trkpt>
      <trkpt lat="45.51107" lon="6.2561">
        <ele>1252.8000488281</ele>
        <time>2023-08-08T08:34:07.000Z</time>
      </trkpt>
      <trkpt lat="45.51103" lon="6.25598">
        <ele>1251.8000488281</ele>
        <time>2023-08-08T08:34:15.000Z</time>
      </trkpt>
      <trkpt lat="45.51103" lon="6.25595">
        <ele>1251.5999755859</ele>
        <time>2023-08-08T08:34:17.000Z</time>
      </trkpt>
      <trkpt lat="45.51102" lon="6.25581">
        <ele>1251.1999511719</ele>
        <time>2023-08-08T08:34:24.000Z</time>
      </trkpt>
      <trkpt lat="45.51103" lon="6.25566">
        <ele>1250.5999755859</ele>
        <time>2023-08-08T08:34:31.000Z</time>
      </trkpt>
      <trkpt lat="45.51102" lon="6.25565">
        <ele>1250.4000244141</ele>
        <time>2023-08-08T08:34:32.000Z</time>
      </trkpt>
      <trkpt lat="45.51102" lon="6.25554">
        <ele>1249.4000244141</ele>
        <time>2023-08-08T08:34:37.000Z</time>
      </trkpt>
      <trkpt lat="45.51102" lon="6.25551">
        <ele>1249</ele>
        <time>2023-08-08T08:34:39.000Z</time>
      </trkpt>
      <trkpt lat="45.51102" lon="6.25544">
        <ele>1248.1999511719</ele>
        <time>2023-08-08T08:34:43.000Z</time>
      </trkpt>
      <trkpt lat="45.51102" lon="6.25538">
        <ele>1247.1999511719</ele>
        <time>2023-08-08T08:34:47.000Z</time>
      </trkpt>
      <trkpt lat="45.51101" lon="6.25529">
        <ele>1246.1999511719</ele>
        <time>2023-08-08T08:34:52.000Z</time>
      </trkpt>
      <trkpt lat="45.511" lon="6.25526">
        <ele>1245.5999755859</ele>
        <time>2023-08-08T08:34:54.000Z</time>
      </trkpt>
      <trkpt lat="45.511" lon="6.2552">
        <ele>1245</ele>
        <time>2023-08-08T08:34:57.000Z</time>
      </trkpt>
      <trkpt lat="45.511" lon="6.25506">
        <ele>1244</ele>
        <time>2023-08-08T08:35:03.000Z</time>
      </trkpt>
      <trkpt lat="45.51101" lon="6.25504">
        <ele>1243.8000488281</ele>
        <time>2023-08-08T08:35:04.000Z</time>
      </trkpt>
      <trkpt lat="45.511" lon="6.25484">
        <ele>1243</ele>
        <time>2023-08-08T08:35:13.000Z</time>
      </trkpt>
      <trkpt lat="45.51095" lon="6.25466">
        <ele>1242.5999755859</ele>
        <time>2023-08-08T08:35:21.000Z</time>
      </trkpt>
      <trkpt lat="45.51091" lon="6.25456">
        <ele>1242.4000244141</ele>
        <time>2023-08-08T08:35:28.000Z</time>
      </trkpt>
      <trkpt lat="45.51086" lon="6.25439">
        <ele>1242</ele>
        <time>2023-08-08T08:35:37.000Z</time>
      </trkpt>
      <trkpt lat="45.51083" lon="6.25423">
        <ele>1242</ele>
        <time>2023-08-08T08:35:45.000Z</time>
      </trkpt>
      <trkpt lat="45.51083" lon="6.25421">
        <ele>1242</ele>
        <time>2023-08-08T08:35:46.000Z</time>
      </trkpt>
      <trkpt lat="45.51081" lon="6.25405">
        <ele>1241.5999755859</ele>
        <time>2023-08-08T08:35:53.000Z</time>
      </trkpt>
      <trkpt lat="45.51082" lon="6.25388">
        <ele>1241.5999755859</ele>
        <time>2023-08-08T08:36:01.000Z</time>
      </trkpt>
      <trkpt lat="45.51079" lon="6.25381">
        <ele>1241.4000244141</ele>
        <time>2023-08-08T08:36:05.000Z</time>
      </trkpt>
      <trkpt lat="45.51074" lon="6.25381">
        <ele>1241</ele>
        <time>2023-08-08T08:36:10.000Z</time>
      </trkpt>
      <trkpt lat="45.51066" lon="6.25373">
        <ele>1241.8000488281</ele>
        <time>2023-08-08T08:36:18.000Z</time>
      </trkpt>
      <trkpt lat="45.51066" lon="6.25372">
        <ele>1242.1999511719</ele>
        <time>2023-08-08T08:36:20.000Z</time>
      </trkpt>
      <trkpt lat="45.5106" lon="6.25364">
        <ele>1242.1999511719</ele>
        <time>2023-08-08T08:36:28.000Z</time>
      </trkpt>
      <trkpt lat="45.51059" lon="6.2536">
        <ele>1241</ele>
        <time>2023-08-08T08:36:32.000Z</time>
      </trkpt>
      <trkpt lat="45.51057" lon="6.25352">
        <ele>1239.8000488281</ele>
        <time>2023-08-08T08:36:36.000Z</time>
      </trkpt>
      <trkpt lat="45.51056" lon="6.25343">
        <ele>1238.5999755859</ele>
        <time>2023-08-08T08:36:41.000Z</time>
      </trkpt>
      <trkpt lat="45.51056" lon="6.25341">
        <ele>1237.8000488281</ele>
        <time>2023-08-08T08:36:44.000Z</time>
      </trkpt>
      <trkpt lat="45.51056" lon="6.25339">
        <ele>1237.1999511719</ele>
        <time>2023-08-08T08:36:46.000Z</time>
      </trkpt>
      <trkpt lat="45.51055" lon="6.25333">
        <ele>1236</ele>
        <time>2023-08-08T08:36:50.000Z</time>
      </trkpt>
      <trkpt lat="45.51052" lon="6.2533">
        <ele>1234.8000488281</ele>
        <time>2023-08-08T08:36:53.000Z</time>
      </trkpt>
      <trkpt lat="45.51048" lon="6.25326">
        <ele>1233.4000244141</ele>
        <time>2023-08-08T08:36:57.000Z</time>
      </trkpt>
      <trkpt lat="45.51043" lon="6.25321">
        <ele>1232.1999511719</ele>
        <time>2023-08-08T08:37:01.000Z</time>
      </trkpt>
      <trkpt lat="45.51041" lon="6.25317">
        <ele>1231.1999511719</ele>
        <time>2023-08-08T08:37:05.000Z</time>
      </trkpt>
      <trkpt lat="45.51036" lon="6.2531">
        <ele>1230.4000244141</ele>
        <time>2023-08-08T08:37:10.000Z</time>
      </trkpt>
      <trkpt lat="45.51034" lon="6.25303">
        <ele>1230.1999511719</ele>
        <time>2023-08-08T08:37:14.000Z</time>
      </trkpt>
      <trkpt lat="45.51032" lon="6.25299">
        <ele>1229.8000488281</ele>
        <time>2023-08-08T08:37:16.000Z</time>
      </trkpt>
      <trkpt lat="45.51029" lon="6.25294">
        <ele>1229</ele>
        <time>2023-08-08T08:37:20.000Z</time>
      </trkpt>
      <trkpt lat="45.51023" lon="6.25286">
        <ele>1227.8000488281</ele>
        <time>2023-08-08T08:37:25.000Z</time>
      </trkpt>
      <trkpt lat="45.5102" lon="6.25277">
        <ele>1226.8000488281</ele>
        <time>2023-08-08T08:37:30.000Z</time>
      </trkpt>
      <trkpt lat="45.51018" lon="6.25273">
        <ele>1226</ele>
        <time>2023-08-08T08:37:33.000Z</time>
      </trkpt>
      <trkpt lat="45.51017" lon="6.25268">
        <ele>1225.5999755859</ele>
        <time>2023-08-08T08:37:35.000Z</time>
      </trkpt>
      <trkpt lat="45.51013" lon="6.2526">
        <ele>1224.5999755859</ele>
        <time>2023-08-08T08:37:40.000Z</time>
      </trkpt>
      <trkpt lat="45.51013" lon="6.25259">
        <ele>1224.4000244141</ele>
        <time>2023-08-08T08:37:41.000Z</time>
      </trkpt>
      <trkpt lat="45.51008" lon="6.25249">
        <ele>1223.4000244141</ele>
        <time>2023-08-08T08:37:48.000Z</time>
      </trkpt>
      <trkpt lat="45.51007" lon="6.25246">
        <ele>1223.1999511719</ele>
        <time>2023-08-08T08:37:49.000Z</time>
      </trkpt>
      <trkpt lat="45.51005" lon="6.25241">
        <ele>1222.1999511719</ele>
        <time>2023-08-08T08:37:52.000Z</time>
      </trkpt>
      <trkpt lat="45.51002" lon="6.25231">
        <ele>1221</ele>
        <time>2023-08-08T08:37:56.000Z</time>
      </trkpt>
      <trkpt lat="45.51" lon="6.25224">
        <ele>1219.8000488281</ele>
        <time>2023-08-08T08:38:00.000Z</time>
      </trkpt>
      <trkpt lat="45.50998" lon="6.25215">
        <ele>1218.8000488281</ele>
        <time>2023-08-08T08:38:04.000Z</time>
      </trkpt>
      <trkpt lat="45.50997" lon="6.25207">
        <ele>1217.5999755859</ele>
        <time>2023-08-08T08:38:08.000Z</time>
      </trkpt>
      <trkpt lat="45.50997" lon="6.25203">
        <ele>1217.1999511719</ele>
        <time>2023-08-08T08:38:10.000Z</time>
      </trkpt>
      <trkpt lat="45.50997" lon="6.252">
        <ele>1216.5999755859</ele>
        <time>2023-08-08T08:38:12.000Z</time>
      </trkpt>
      <trkpt lat="45.50997" lon="6.25193">
        <ele>1215.8000488281</ele>
        <time>2023-08-08T08:38:17.000Z</time>
      </trkpt>
      <trkpt lat="45.50997" lon="6.25189">
        <ele>1215.4000244141</ele>
        <time>2023-08-08T08:38:19.000Z</time>
      </trkpt>
      <trkpt lat="45.50998" lon="6.25179">
        <ele>1214.5999755859</ele>
        <time>2023-08-08T08:38:25.000Z</time>
      </trkpt>
      <trkpt lat="45.50998" lon="6.25177">
        <ele>1214.4000244141</ele>
        <time>2023-08-08T08:38:26.000Z</time>
      </trkpt>
      <trkpt lat="45.50996" lon="6.25169">
        <ele>1213.1999511719</ele>
        <time>2023-08-08T08:38:33.000Z</time>
      </trkpt>
      <trkpt lat="45.50994" lon="6.2516">
        <ele>1212.1999511719</ele>
        <time>2023-08-08T08:38:38.000Z</time>
      </trkpt>
      <trkpt lat="45.50992" lon="6.25153">
        <ele>1211.8000488281</ele>
        <time>2023-08-08T08:38:41.000Z</time>
      </trkpt>
      <trkpt lat="45.50988" lon="6.2514">
        <ele>1211.1999511719</ele>
        <time>2023-08-08T08:38:47.000Z</time>
      </trkpt>
      <trkpt lat="45.50984" lon="6.25128">
        <ele>1210.1999511719</ele>
        <time>2023-08-08T08:38:53.000Z</time>
      </trkpt>
      <trkpt lat="45.50983" lon="6.25127">
        <ele>1210</ele>
        <time>2023-08-08T08:38:54.000Z</time>
      </trkpt>
      <trkpt lat="45.5098" lon="6.25115">
        <ele>1209</ele>
        <time>2023-08-08T08:39:01.000Z</time>
      </trkpt>
      <trkpt lat="45.50981" lon="6.2511">
        <ele>1208.5999755859</ele>
        <time>2023-08-08T08:39:08.000Z</time>
      </trkpt>
      <trkpt lat="45.50977" lon="6.25102">
        <ele>1208.5999755859</ele>
        <time>2023-08-08T08:39:16.000Z</time>
      </trkpt>
      <trkpt lat="45.50973" lon="6.251">
        <ele>1208.5999755859</ele>
        <time>2023-08-08T08:39:24.000Z</time>
      </trkpt>
      <trkpt lat="45.50974" lon="6.25098">
        <ele>1208.5999755859</ele>
        <time>2023-08-08T08:39:35.000Z</time>
      </trkpt>
      <trkpt lat="45.50974" lon="6.25092">
        <ele>1208.4000244141</ele>
        <time>2023-08-08T08:39:41.000Z</time>
      </trkpt>
      <trkpt lat="45.50975" lon="6.25089">
        <ele>1208</ele>
        <time>2023-08-08T08:39:46.000Z</time>
      </trkpt>
      <trkpt lat="45.50975" lon="6.25088">
        <ele>1207.8000488281</ele>
        <time>2023-08-08T08:39:47.000Z</time>
      </trkpt>
      <trkpt lat="45.50973" lon="6.25082">
        <ele>1206.8000488281</ele>
        <time>2023-08-08T08:39:51.000Z</time>
      </trkpt>
      <trkpt lat="45.50972" lon="6.2508">
        <ele>1205.8000488281</ele>
        <time>2023-08-08T08:39:54.000Z</time>
      </trkpt>
      <trkpt lat="45.50972" lon="6.25079">
        <ele>1205.5999755859</ele>
        <time>2023-08-08T08:39:55.000Z</time>
      </trkpt>
      <trkpt lat="45.5097" lon="6.25076">
        <ele>1204.1999511719</ele>
        <time>2023-08-08T08:39:59.000Z</time>
      </trkpt>
      <trkpt lat="45.50968" lon="6.2507">
        <ele>1203.1999511719</ele>
        <time>2023-08-08T08:40:02.000Z</time>
      </trkpt>
      <trkpt lat="45.50968" lon="6.25069">
        <ele>1203</ele>
        <time>2023-08-08T08:40:03.000Z</time>
      </trkpt>
      <trkpt lat="45.50966" lon="6.25068">
        <ele>1202</ele>
        <time>2023-08-08T08:40:06.000Z</time>
      </trkpt>
      <trkpt lat="45.50964" lon="6.25068">
        <ele>1201.1999511719</ele>
        <time>2023-08-08T08:40:08.000Z</time>
      </trkpt>
      <trkpt lat="45.50963" lon="6.25067">
        <ele>1200.8000488281</ele>
        <time>2023-08-08T08:40:09.000Z</time>
      </trkpt>
      <trkpt lat="45.50962" lon="6.25067">
        <ele>1200.4000244141</ele>
        <time>2023-08-08T08:40:10.000Z</time>
      </trkpt>
      <trkpt lat="45.5096" lon="6.25066">
        <ele>1199.5999755859</ele>
        <time>2023-08-08T08:40:12.000Z</time>
      </trkpt>
      <trkpt lat="45.50958" lon="6.25064">
        <ele>1198.5999755859</ele>
        <time>2023-08-08T08:40:15.000Z</time>
      </trkpt>
      <trkpt lat="45.50956" lon="6.25061">
        <ele>1197.5999755859</ele>
        <time>2023-08-08T08:40:18.000Z</time>
      </trkpt>
      <trkpt lat="45.50956" lon="6.25061">
        <ele>1197.1999511719</ele>
        <time>2023-08-08T08:40:19.000Z</time>
      </trkpt>
      <trkpt lat="45.50956" lon="6.25059">
        <ele>1196.4000244141</ele>
        <time>2023-08-08T08:40:21.000Z</time>
      </trkpt>
      <trkpt lat="45.50956" lon="6.25056">
        <ele>1195</ele>
        <time>2023-08-08T08:40:24.000Z</time>
      </trkpt>
      <trkpt lat="45.50956" lon="6.25053">
        <ele>1193.8000488281</ele>
        <time>2023-08-08T08:40:27.000Z</time>
      </trkpt>
      <trkpt lat="45.50956" lon="6.25049">
        <ele>1192.5999755859</ele>
        <time>2023-08-08T08:40:30.000Z</time>
      </trkpt>
      <trkpt lat="45.50955" lon="6.25048">
        <ele>1192.1999511719</ele>
        <time>2023-08-08T08:40:31.000Z</time>
      </trkpt>
      <trkpt lat="45.50954" lon="6.25046">
        <ele>1191.5999755859</ele>
        <time>2023-08-08T08:40:33.000Z</time>
      </trkpt>
      <trkpt lat="45.50954" lon="6.25044">
        <ele>1190.8000488281</ele>
        <time>2023-08-08T08:40:35.000Z</time>
      </trkpt>
      <trkpt lat="45.50953" lon="6.25043">
        <ele>1190.4000244141</ele>
        <time>2023-08-08T08:40:36.000Z</time>
      </trkpt>
      <trkpt lat="45.5095" lon="6.25037">
        <ele>1189.1999511719</ele>
        <time>2023-08-08T08:40:40.000Z</time>
      </trkpt>
      <trkpt lat="45.50948" lon="6.25035">
        <ele>1188.4000244141</ele>
        <time>2023-08-08T08:40:43.000Z</time>
      </trkpt>
      <trkpt lat="45.50948" lon="6.25034">
        <ele>1187.8000488281</ele>
        <time>2023-08-08T08:40:45.000Z</time>
      </trkpt>
      <trkpt lat="45.50947" lon="6.2503">
        <ele>1186.4000244141</ele>
        <time>2023-08-08T08:40:49.000Z</time>
      </trkpt>
      <trkpt lat="45.50947" lon="6.25028">
        <ele>1185.1999511719</ele>
        <time>2023-08-08T08:40:52.000Z</time>
      </trkpt>
      <trkpt lat="45.50947" lon="6.25026">
        <ele>1184</ele>
        <time>2023-08-08T08:40:56.000Z</time>
      </trkpt>
      <trkpt lat="45.50948" lon="6.25024">
        <ele>1183.8000488281</ele>
        <time>2023-08-08T08:40:57.000Z</time>
      </trkpt>
      <trkpt lat="45.50947" lon="6.25022">
        <ele>1183</ele>
        <time>2023-08-08T08:41:00.000Z</time>
      </trkpt>
      <trkpt lat="45.50946" lon="6.25018">
        <ele>1181.8000488281</ele>
        <time>2023-08-08T08:41:03.000Z</time>
      </trkpt>
      <trkpt lat="45.50945" lon="6.25016">
        <ele>1181.4000244141</ele>
        <time>2023-08-08T08:41:04.000Z</time>
      </trkpt>
      <trkpt lat="45.50944" lon="6.25011">
        <ele>1180.8000488281</ele>
        <time>2023-08-08T08:41:06.000Z</time>
      </trkpt>
      <trkpt lat="45.50941" lon="6.25007">
        <ele>1179.4000244141</ele>
        <time>2023-08-08T08:41:10.000Z</time>
      </trkpt>
      <trkpt lat="45.50937" lon="6.25003">
        <ele>1178.4000244141</ele>
        <time>2023-08-08T08:41:13.000Z</time>
      </trkpt>
      <trkpt lat="45.50932" lon="6.24996">
        <ele>1177.4000244141</ele>
        <time>2023-08-08T08:41:16.000Z</time>
      </trkpt>
      <trkpt lat="45.50929" lon="6.24993">
        <ele>1176.1999511719</ele>
        <time>2023-08-08T08:41:19.000Z</time>
      </trkpt>
      <trkpt lat="45.50925" lon="6.24989">
        <ele>1173.8000488281</ele>
        <time>2023-08-08T08:41:25.000Z</time>
      </trkpt>
      <trkpt lat="45.50923" lon="6.24985">
        <ele>1172.5999755859</ele>
        <time>2023-08-08T08:41:28.000Z</time>
      </trkpt>
      <trkpt lat="45.50922" lon="6.24983">
        <ele>1172</ele>
        <time>2023-08-08T08:41:30.000Z</time>
      </trkpt>
      <trkpt lat="45.50921" lon="6.24982">
        <ele>1171.5999755859</ele>
        <time>2023-08-08T08:41:31.000Z</time>
      </trkpt>
      <trkpt lat="45.50919" lon="6.24978">
        <ele>1170.1999511719</ele>
        <time>2023-08-08T08:41:35.000Z</time>
      </trkpt>
      <trkpt lat="45.50918" lon="6.24974">
        <ele>1169.1999511719</ele>
        <time>2023-08-08T08:41:38.000Z</time>
      </trkpt>
      <trkpt lat="45.50916" lon="6.2497">
        <ele>1168</ele>
        <time>2023-08-08T08:41:42.000Z</time>
      </trkpt>
      <trkpt lat="45.50914" lon="6.24966">
        <ele>1166.5999755859</ele>
        <time>2023-08-08T08:41:46.000Z</time>
      </trkpt>
      <trkpt lat="45.50913" lon="6.24963">
        <ele>1166</ele>
        <time>2023-08-08T08:41:48.000Z</time>
      </trkpt>
      <trkpt lat="45.50913" lon="6.24962">
        <ele>1165.5999755859</ele>
        <time>2023-08-08T08:41:49.000Z</time>
      </trkpt>
      <trkpt lat="45.50912" lon="6.24957">
        <ele>1164.4000244141</ele>
        <time>2023-08-08T08:41:53.000Z</time>
      </trkpt>
      <trkpt lat="45.50911" lon="6.24956">
        <ele>1163.4000244141</ele>
        <time>2023-08-08T08:41:56.000Z</time>
      </trkpt>
      <trkpt lat="45.50911" lon="6.24956">
        <ele>1163.1999511719</ele>
        <time>2023-08-08T08:41:57.000Z</time>
      </trkpt>
      <trkpt lat="45.50909" lon="6.24953">
        <ele>1162</ele>
        <time>2023-08-08T08:42:00.000Z</time>
      </trkpt>
      <trkpt lat="45.50907" lon="6.2495">
        <ele>1160.8000488281</ele>
        <time>2023-08-08T08:42:05.000Z</time>
      </trkpt>
      <trkpt lat="45.50903" lon="6.24941">
        <ele>1159.1999511719</ele>
        <time>2023-08-08T08:42:14.000Z</time>
      </trkpt>
      <trkpt lat="45.50903" lon="6.24939">
        <ele>1159</ele>
        <time>2023-08-08T08:42:15.000Z</time>
      </trkpt>
      <trkpt lat="45.50903" lon="6.24936">
        <ele>1158.4000244141</ele>
        <time>2023-08-08T08:42:17.000Z</time>
      </trkpt>
      <trkpt lat="45.50904" lon="6.24928">
        <ele>1157.4000244141</ele>
        <time>2023-08-08T08:42:21.000Z</time>
      </trkpt>
      <trkpt lat="45.50904" lon="6.24922">
        <ele>1156.5999755859</ele>
        <time>2023-08-08T08:42:24.000Z</time>
      </trkpt>
      <trkpt lat="45.50904" lon="6.2492">
        <ele>1156.4000244141</ele>
        <time>2023-08-08T08:42:25.000Z</time>
      </trkpt>
      <trkpt lat="45.50902" lon="6.24912">
        <ele>1155.1999511719</ele>
        <time>2023-08-08T08:42:30.000Z</time>
      </trkpt>
      <trkpt lat="45.50901" lon="6.24905">
        <ele>1154.4000244141</ele>
        <time>2023-08-08T08:42:33.000Z</time>
      </trkpt>
      <trkpt lat="45.50901" lon="6.24903">
        <ele>1154</ele>
        <time>2023-08-08T08:42:34.000Z</time>
      </trkpt>
      <trkpt lat="45.509" lon="6.24896">
        <ele>1153</ele>
        <time>2023-08-08T08:42:38.000Z</time>
      </trkpt>
      <trkpt lat="45.50899" lon="6.24892">
        <ele>1152.1999511719</ele>
        <time>2023-08-08T08:42:41.000Z</time>
      </trkpt>
      <trkpt lat="45.50899" lon="6.24892">
        <ele>1151.8000488281</ele>
        <time>2023-08-08T08:42:42.000Z</time>
      </trkpt>
      <trkpt lat="45.50898" lon="6.24889">
        <ele>1150.8000488281</ele>
        <time>2023-08-08T08:42:46.000Z</time>
      </trkpt>
      <trkpt lat="45.50898" lon="6.24883">
        <ele>1149.5999755859</ele>
        <time>2023-08-08T08:42:51.000Z</time>
      </trkpt>
      <trkpt lat="45.50897" lon="6.24882">
        <ele>1149.5999755859</ele>
        <time>2023-08-08T08:42:52.000Z</time>
      </trkpt>
      <trkpt lat="45.50896" lon="6.24881">
        <ele>1149.1999511719</ele>
        <time>2023-08-08T08:42:55.000Z</time>
      </trkpt>
      <trkpt lat="45.50895" lon="6.24878">
        <ele>1149</ele>
        <time>2023-08-08T08:42:57.000Z</time>
      </trkpt>
      <trkpt lat="45.50894" lon="6.24877">
        <ele>1148.8000488281</ele>
        <time>2023-08-08T08:42:58.000Z</time>
      </trkpt>
      <trkpt lat="45.50894" lon="6.24876">
        <ele>1148.5999755859</ele>
        <time>2023-08-08T08:42:59.000Z</time>
      </trkpt>
      <trkpt lat="45.50891" lon="6.24868">
        <ele>1147.4000244141</ele>
        <time>2023-08-08T08:43:04.000Z</time>
      </trkpt>
      <trkpt lat="45.5089" lon="6.24864">
        <ele>1146.8000488281</ele>
        <time>2023-08-08T08:43:06.000Z</time>
      </trkpt>
      <trkpt lat="45.50886" lon="6.2486">
        <ele>1146.4000244141</ele>
        <time>2023-08-08T08:43:08.000Z</time>
      </trkpt>
      <trkpt lat="45.50886" lon="6.24857">
        <ele>1145.1999511719</ele>
        <time>2023-08-08T08:43:12.000Z</time>
      </trkpt>
      <trkpt lat="45.50886" lon="6.24855">
        <ele>1144.8000488281</ele>
        <time>2023-08-08T08:43:14.000Z</time>
      </trkpt>
      <trkpt lat="45.50885" lon="6.24854">
        <ele>1144.1999511719</ele>
        <time>2023-08-08T08:43:16.000Z</time>
      </trkpt>
      <trkpt lat="45.50885" lon="6.24849">
        <ele>1143</ele>
        <time>2023-08-08T08:43:20.000Z</time>
      </trkpt>
      <trkpt lat="45.50885" lon="6.24848">
        <ele>1142.8000488281</ele>
        <time>2023-08-08T08:43:21.000Z</time>
      </trkpt>
      <trkpt lat="45.50881" lon="6.2484">
        <ele>1142</ele>
        <time>2023-08-08T08:43:25.000Z</time>
      </trkpt>
      <trkpt lat="45.50876" lon="6.24832">
        <ele>1141.1999511719</ele>
        <time>2023-08-08T08:43:28.000Z</time>
      </trkpt>
      <trkpt lat="45.50875" lon="6.24828">
        <ele>1140.8000488281</ele>
        <time>2023-08-08T08:43:30.000Z</time>
      </trkpt>
      <trkpt lat="45.50872" lon="6.24819">
        <ele>1139.8000488281</ele>
        <time>2023-08-08T08:43:34.000Z</time>
      </trkpt>
      <trkpt lat="45.50872" lon="6.24814">
        <ele>1138.5999755859</ele>
        <time>2023-08-08T08:43:39.000Z</time>
      </trkpt>
      <trkpt lat="45.50873" lon="6.24814">
        <ele>1138.1999511719</ele>
        <time>2023-08-08T08:43:41.000Z</time>
      </trkpt>
      <trkpt lat="45.5082" lon="6.24781">
        <ele>1130</ele>
        <time>2023-08-08T08:44:16.000Z</time>
      </trkpt>
      <trkpt lat="45.50818" lon="6.2478">
        <ele>1129.8000488281</ele>
        <time>2023-08-08T08:44:17.000Z</time>
      </trkpt>
      <trkpt lat="45.50817" lon="6.24779">
        <ele>1129.5999755859</ele>
        <time>2023-08-08T08:44:18.000Z</time>
      </trkpt>
      <trkpt lat="45.50812" lon="6.24772">
        <ele>1128.5999755859</ele>
        <time>2023-08-08T08:44:23.000Z</time>
      </trkpt>
      <trkpt lat="45.50807" lon="6.24765">
        <ele>1127.5999755859</ele>
        <time>2023-08-08T08:44:28.000Z</time>
      </trkpt>
      <trkpt lat="45.50805" lon="6.2476">
        <ele>1127</ele>
        <time>2023-08-08T08:44:32.000Z</time>
      </trkpt>
      <trkpt lat="45.50804" lon="6.24751">
        <ele>1126.4000244141</ele>
        <time>2023-08-08T08:44:36.000Z</time>
      </trkpt>
      <trkpt lat="45.50804" lon="6.24749">
        <ele>1126.4000244141</ele>
        <time>2023-08-08T08:44:37.000Z</time>
      </trkpt>
      <trkpt lat="45.50804" lon="6.24736">
        <ele>1125.4000244141</ele>
        <time>2023-08-08T08:44:44.000Z</time>
      </trkpt>
      <trkpt lat="45.50804" lon="6.24733">
        <ele>1124.8000488281</ele>
        <time>2023-08-08T08:44:46.000Z</time>
      </trkpt>
      <trkpt lat="45.50804" lon="6.2473">
        <ele>1124.1999511719</ele>
        <time>2023-08-08T08:44:48.000Z</time>
      </trkpt>
      <trkpt lat="45.50805" lon="6.24717">
        <ele>1123.1999511719</ele>
        <time>2023-08-08T08:44:53.000Z</time>
      </trkpt>
      <trkpt lat="45.50806" lon="6.24711">
        <ele>1123</ele>
        <time>2023-08-08T08:44:56.000Z</time>
      </trkpt>
      <trkpt lat="45.50806" lon="6.24705">
        <ele>1122.5999755859</ele>
        <time>2023-08-08T08:45:00.000Z</time>
      </trkpt>
      <trkpt lat="45.50804" lon="6.24698">
        <ele>1122</ele>
        <time>2023-08-08T08:45:04.000Z</time>
      </trkpt>
      <trkpt lat="45.50803" lon="6.24694">
        <ele>1121.4000244141</ele>
        <time>2023-08-08T08:45:07.000Z</time>
      </trkpt>
      <trkpt lat="45.50803" lon="6.2469">
        <ele>1120.8000488281</ele>
        <time>2023-08-08T08:45:10.000Z</time>
      </trkpt>
      <trkpt lat="45.50804" lon="6.24681">
        <ele>1120</ele>
        <time>2023-08-08T08:45:14.000Z</time>
      </trkpt>
      <trkpt lat="45.50805" lon="6.24681">
        <ele>1119.8000488281</ele>
        <time>2023-08-08T08:45:15.000Z</time>
      </trkpt>
      <trkpt lat="45.50803" lon="6.24678">
        <ele>1118.8000488281</ele>
        <time>2023-08-08T08:45:19.000Z</time>
      </trkpt>
      <trkpt lat="45.50802" lon="6.24677">
        <ele>1118.8000488281</ele>
        <time>2023-08-08T08:45:20.000Z</time>
      </trkpt>
      <trkpt lat="45.50799" lon="6.24668">
        <ele>1117.8000488281</ele>
        <time>2023-08-08T08:45:27.000Z</time>
      </trkpt>
      <trkpt lat="45.50797" lon="6.24663">
        <ele>1116.5999755859</ele>
        <time>2023-08-08T08:45:31.000Z</time>
      </trkpt>
      <trkpt lat="45.50795" lon="6.2466">
        <ele>1115.4000244141</ele>
        <time>2023-08-08T08:45:34.000Z</time>
      </trkpt>
      <trkpt lat="45.50794" lon="6.24656">
        <ele>1114.4000244141</ele>
        <time>2023-08-08T08:45:37.000Z</time>
      </trkpt>
      <trkpt lat="45.50792" lon="6.24652">
        <ele>1113.1999511719</ele>
        <time>2023-08-08T08:45:40.000Z</time>
      </trkpt>
      <trkpt lat="45.50791" lon="6.24652">
        <ele>1112.8000488281</ele>
        <time>2023-08-08T08:45:41.000Z</time>
      </trkpt>
      <trkpt lat="45.50791" lon="6.24652">
        <ele>1112.4000244141</ele>
        <time>2023-08-08T08:45:42.000Z</time>
      </trkpt>
      <trkpt lat="45.50788" lon="6.24647">
        <ele>1110.8000488281</ele>
        <time>2023-08-08T08:45:46.000Z</time>
      </trkpt>
      <trkpt lat="45.50775" lon="6.24632">
        <ele>1102.4000244141</ele>
        <time>2023-08-08T08:46:13.000Z</time>
      </trkpt>
      <trkpt lat="45.50766" lon="6.24616">
        <ele>1097.8000488281</ele>
        <time>2023-08-08T08:46:28.000Z</time>
      </trkpt>
      <trkpt lat="45.50765" lon="6.24613">
        <ele>1097.1999511719</ele>
        <time>2023-08-08T08:46:30.000Z</time>
      </trkpt>
      <trkpt lat="45.50761" lon="6.24607">
        <ele>1096</ele>
        <time>2023-08-08T08:46:35.000Z</time>
      </trkpt>
      <trkpt lat="45.50757" lon="6.24602">
        <ele>1094.8000488281</ele>
        <time>2023-08-08T08:46:39.000Z</time>
      </trkpt>
      <trkpt lat="45.50737" lon="6.2459">
        <ele>1088</ele>
        <time>2023-08-08T08:47:04.000Z</time>
      </trkpt>
      <trkpt lat="45.50636" lon="6.24497">
        <ele>1055.5999755859</ele>
        <time>2023-08-08T08:49:51.000Z</time>
      </trkpt>
      <trkpt lat="45.50637" lon="6.24497">
        <ele>1055.5999755859</ele>
        <time>2023-08-08T08:49:52.000Z</time>
      </trkpt>
      <trkpt lat="45.50638" lon="6.24494">
        <ele>1054.5999755859</ele>
        <time>2023-08-08T08:49:58.000Z</time>
      </trkpt>
      <trkpt lat="45.50639" lon="6.24488">
        <ele>1053.4000244141</ele>
        <time>2023-08-08T08:50:03.000Z</time>
      </trkpt>
      <trkpt lat="45.50639" lon="6.24488">
        <ele>1052.4000244141</ele>
        <time>2023-08-08T08:50:07.000Z</time>
      </trkpt>
      <trkpt lat="45.50639" lon="6.24487">
        <ele>1052.1999511719</ele>
        <time>2023-08-08T08:50:08.000Z</time>
      </trkpt>
      <trkpt lat="45.50641" lon="6.24484">
        <ele>1051</ele>
        <time>2023-08-08T08:50:13.000Z</time>
      </trkpt>
      <trkpt lat="45.50615" lon="6.24441">
        <ele>1040.4000244141</ele>
        <time>2023-08-08T08:50:59.000Z</time>
      </trkpt>
      <trkpt lat="45.50605" lon="6.24424">
        <ele>1035.4000244141</ele>
        <time>2023-08-08T08:51:19.000Z</time>
      </trkpt>
      <trkpt lat="45.50604" lon="6.24416">
        <ele>1034.1999511719</ele>
        <time>2023-08-08T08:51:25.000Z</time>
      </trkpt>
      <trkpt lat="45.50603" lon="6.24415">
        <ele>1034</ele>
        <time>2023-08-08T08:51:26.000Z</time>
      </trkpt>
      <trkpt lat="45.50602" lon="6.24411">
        <ele>1033</ele>
        <time>2023-08-08T08:51:31.000Z</time>
      </trkpt>
      <trkpt lat="45.50602" lon="6.24408">
        <ele>1032.8000488281</ele>
        <time>2023-08-08T08:51:33.000Z</time>
      </trkpt>
      <trkpt lat="45.50598" lon="6.24404">
        <ele>1032</ele>
        <time>2023-08-08T08:51:37.000Z</time>
      </trkpt>
      <trkpt lat="45.50594" lon="6.24401">
        <ele>1031.4000244141</ele>
        <time>2023-08-08T08:51:40.000Z</time>
      </trkpt>
      <trkpt lat="45.5059" lon="6.24396">
        <ele>1030.8000488281</ele>
        <time>2023-08-08T08:51:43.000Z</time>
      </trkpt>
      <trkpt lat="45.50589" lon="6.2439">
        <ele>1029.4000244141</ele>
        <time>2023-08-08T08:51:49.000Z</time>
      </trkpt>
      <trkpt lat="45.50588" lon="6.24385">
        <ele>1028.4000244141</ele>
        <time>2023-08-08T08:51:53.000Z</time>
      </trkpt>
      <trkpt lat="45.50586" lon="6.2438">
        <ele>1027.1999511719</ele>
        <time>2023-08-08T08:51:58.000Z</time>
      </trkpt>
      <trkpt lat="45.50585" lon="6.24379">
        <ele>1026.8000488281</ele>
        <time>2023-08-08T08:52:00.000Z</time>
      </trkpt>
      <trkpt lat="45.50583" lon="6.24375">
        <ele>1026.1999511719</ele>
        <time>2023-08-08T08:52:03.000Z</time>
      </trkpt>
      <trkpt lat="45.50578" lon="6.24369">
        <ele>1024.8000488281</ele>
        <time>2023-08-08T08:52:10.000Z</time>
      </trkpt>
      <trkpt lat="45.50578" lon="6.24367">
        <ele>1024.1999511719</ele>
        <time>2023-08-08T08:52:13.000Z</time>
      </trkpt>
      <trkpt lat="45.50578" lon="6.24363">
        <ele>1023</ele>
        <time>2023-08-08T08:52:18.000Z</time>
      </trkpt>
      <trkpt lat="45.50579" lon="6.24362">
        <ele>1022.799987793</ele>
        <time>2023-08-08T08:52:19.000Z</time>
      </trkpt>
      <trkpt lat="45.50577" lon="6.24358">
        <ele>1022</ele>
        <time>2023-08-08T08:52:23.000Z</time>
      </trkpt>
      <trkpt lat="45.50575" lon="6.24357">
        <ele>1021.200012207</ele>
        <time>2023-08-08T08:52:26.000Z</time>
      </trkpt>
      <trkpt lat="45.50573" lon="6.24355">
        <ele>1020.799987793</ele>
        <time>2023-08-08T08:52:27.000Z</time>
      </trkpt>
      <trkpt lat="45.5057" lon="6.2435">
        <ele>1019.799987793</ele>
        <time>2023-08-08T08:52:31.000Z</time>
      </trkpt>
      <trkpt lat="45.50569" lon="6.24347">
        <ele>1019.200012207</ele>
        <time>2023-08-08T08:52:33.000Z</time>
      </trkpt>
      <trkpt lat="45.50567" lon="6.24344">
        <ele>1018.799987793</ele>
        <time>2023-08-08T08:52:35.000Z</time>
      </trkpt>
      <trkpt lat="45.50547" lon="6.24328">
        <ele>1012.5999755859</ele>
        <time>2023-08-08T08:52:58.000Z</time>
      </trkpt>
      <trkpt lat="45.50546" lon="6.24326">
        <ele>1012.4000244141</ele>
        <time>2023-08-08T08:52:59.000Z</time>
      </trkpt>
      <trkpt lat="45.50546" lon="6.24321">
        <ele>1011.5999755859</ele>
        <time>2023-08-08T08:53:02.000Z</time>
      </trkpt>
      <trkpt lat="45.50545" lon="6.24316">
        <ele>1010.799987793</ele>
        <time>2023-08-08T08:53:05.000Z</time>
      </trkpt>
      <trkpt lat="45.50545" lon="6.24313">
        <ele>1010.5999755859</ele>
        <time>2023-08-08T08:53:06.000Z</time>
      </trkpt>
      <trkpt lat="45.50544" lon="6.243">
        <ele>1009.4000244141</ele>
        <time>2023-08-08T08:53:12.000Z</time>
      </trkpt>
      <trkpt lat="45.50544" lon="6.24299">
        <ele>1009.200012207</ele>
        <time>2023-08-08T08:53:13.000Z</time>
      </trkpt>
      <trkpt lat="45.50545" lon="6.24295">
        <ele>1008.4000244141</ele>
        <time>2023-08-08T08:53:18.000Z</time>
      </trkpt>
      <trkpt lat="45.50546" lon="6.2429">
        <ele>1008</ele>
        <time>2023-08-08T08:53:22.000Z</time>
      </trkpt>
      <trkpt lat="45.5055" lon="6.24278">
        <ele>1007.4000244141</ele>
        <time>2023-08-08T08:53:29.000Z</time>
      </trkpt>
      <trkpt lat="45.5055" lon="6.24277">
        <ele>1007.4000244141</ele>
        <time>2023-08-08T08:53:30.000Z</time>
      </trkpt>
      <trkpt lat="45.50562" lon="6.24263">
        <ele>1006.4000244141</ele>
        <time>2023-08-08T08:53:39.000Z</time>
      </trkpt>
      <trkpt lat="45.50563" lon="6.24259">
        <ele>1006.4000244141</ele>
        <time>2023-08-08T08:53:43.000Z</time>
      </trkpt>
      <trkpt lat="45.50562" lon="6.24251">
        <ele>1005</ele>
        <time>2023-08-08T08:53:50.000Z</time>
      </trkpt>
      <trkpt lat="45.50555" lon="6.24238">
        <ele>1004</ele>
        <time>2023-08-08T08:53:55.000Z</time>
      </trkpt>
      <trkpt lat="45.50555" lon="6.24232">
        <ele>1003.5999755859</ele>
        <time>2023-08-08T08:53:57.000Z</time>
      </trkpt>
      <trkpt lat="45.50551" lon="6.24225">
        <ele>1002.799987793</ele>
        <time>2023-08-08T08:54:01.000Z</time>
      </trkpt>
      <trkpt lat="45.50549" lon="6.24218">
        <ele>1002</ele>
        <time>2023-08-08T08:54:06.000Z</time>
      </trkpt>
      <trkpt lat="45.50548" lon="6.24216">
        <ele>1001.5999755859</ele>
        <time>2023-08-08T08:54:07.000Z</time>
      </trkpt>
      <trkpt lat="45.50544" lon="6.24204">
        <ele>1000.5999755859</ele>
        <time>2023-08-08T08:54:13.000Z</time>
      </trkpt>
      <trkpt lat="45.50547" lon="6.24198">
        <ele>999.40002441406</ele>
        <time>2023-08-08T08:54:18.000Z</time>
      </trkpt>
      <trkpt lat="45.50546" lon="6.24194">
        <ele>999.20001220703</ele>
        <time>2023-08-08T08:54:20.000Z</time>
      </trkpt>
      <trkpt lat="45.50544" lon="6.24169">
        <ele>996.20001220703</ele>
        <time>2023-08-08T08:54:34.000Z</time>
      </trkpt>
      <trkpt lat="45.50545" lon="6.24162">
        <ele>995.40002441406</ele>
        <time>2023-08-08T08:54:37.000Z</time>
      </trkpt>
      <trkpt lat="45.50537" lon="6.24152">
        <ele>994</ele>
        <time>2023-08-08T08:54:42.000Z</time>
      </trkpt>
      <trkpt lat="45.50534" lon="6.24146">
        <ele>993.59997558594</ele>
        <time>2023-08-08T08:54:45.000Z</time>
      </trkpt>
      <trkpt lat="45.5053" lon="6.2414">
        <ele>992.79998779297</ele>
        <time>2023-08-08T08:54:49.000Z</time>
      </trkpt>
      <trkpt lat="45.50527" lon="6.24136">
        <ele>992.20001220703</ele>
        <time>2023-08-08T08:54:52.000Z</time>
      </trkpt>
      <trkpt lat="45.5052" lon="6.24121">
        <ele>990.20001220703</ele>
        <time>2023-08-08T08:55:02.000Z</time>
      </trkpt>
      <trkpt lat="45.50518" lon="6.2412">
        <ele>989.79998779297</ele>
        <time>2023-08-08T08:55:04.000Z</time>
      </trkpt>
      <trkpt lat="45.50516" lon="6.24118">
        <ele>989.59997558594</ele>
        <time>2023-08-08T08:55:05.000Z</time>
      </trkpt>
      <trkpt lat="45.50513" lon="6.24114">
        <ele>989.40002441406</ele>
        <time>2023-08-08T08:55:08.000Z</time>
      </trkpt>
      <trkpt lat="45.50499" lon="6.24103">
        <ele>988.40002441406</ele>
        <time>2023-08-08T08:55:14.000Z</time>
      </trkpt>
      <trkpt lat="45.50491" lon="6.24094">
        <ele>987.59997558594</ele>
        <time>2023-08-08T08:55:19.000Z</time>
      </trkpt>
      <trkpt lat="45.50478" lon="6.24079">
        <ele>985.40002441406</ele>
        <time>2023-08-08T08:55:31.000Z</time>
      </trkpt>
      <trkpt lat="45.50471" lon="6.24068">
        <ele>984.40002441406</ele>
        <time>2023-08-08T08:55:37.000Z</time>
      </trkpt>
      <trkpt lat="45.50465" lon="6.24062">
        <ele>983.59997558594</ele>
        <time>2023-08-08T08:55:40.000Z</time>
      </trkpt>
      <trkpt lat="45.50462" lon="6.24058">
        <ele>983.20001220703</ele>
        <time>2023-08-08T08:55:42.000Z</time>
      </trkpt>
      <trkpt lat="45.50457" lon="6.2405">
        <ele>982.40002441406</ele>
        <time>2023-08-08T08:55:46.000Z</time>
      </trkpt>
      <trkpt lat="45.50455" lon="6.24046">
        <ele>982.20001220703</ele>
        <time>2023-08-08T08:55:48.000Z</time>
      </trkpt>
      <trkpt lat="45.50454" lon="6.24038">
        <ele>981.59997558594</ele>
        <time>2023-08-08T08:55:53.000Z</time>
      </trkpt>
      <trkpt lat="45.50456" lon="6.24033">
        <ele>981.20001220703</ele>
        <time>2023-08-08T08:55:58.000Z</time>
      </trkpt>
      <trkpt lat="45.50456" lon="6.24027">
        <ele>981</ele>
        <time>2023-08-08T08:56:00.000Z</time>
      </trkpt>
      <trkpt lat="45.50453" lon="6.2401">
        <ele>980.40002441406</ele>
        <time>2023-08-08T08:56:08.000Z</time>
      </trkpt>
      <trkpt lat="45.5045" lon="6.24009">
        <ele>980.20001220703</ele>
        <time>2023-08-08T08:56:10.000Z</time>
      </trkpt>
      <trkpt lat="45.50437" lon="6.24013">
        <ele>978.79998779297</ele>
        <time>2023-08-08T08:56:20.000Z</time>
      </trkpt>
      <trkpt lat="45.50438" lon="6.24015">
        <ele>978.59997558594</ele>
        <time>2023-08-08T08:56:21.000Z</time>
      </trkpt>
      <trkpt lat="45.50442" lon="6.24029">
        <ele>977.79998779297</ele>
        <time>2023-08-08T08:56:29.000Z</time>
      </trkpt>
      <trkpt lat="45.50446" lon="6.24044">
        <ele>977.20001220703</ele>
        <time>2023-08-08T08:56:37.000Z</time>
      </trkpt>
      <trkpt lat="45.50446" lon="6.24059">
        <ele>976.59997558594</ele>
        <time>2023-08-08T08:56:43.000Z</time>
      </trkpt>
      <trkpt lat="45.50446" lon="6.24061">
        <ele>976.59997558594</ele>
        <time>2023-08-08T08:56:44.000Z</time>
      </trkpt>
      <trkpt lat="45.50445" lon="6.24071">
        <ele>975.59997558594</ele>
        <time>2023-08-08T08:56:49.000Z</time>
      </trkpt>
      <trkpt lat="45.50444" lon="6.24082">
        <ele>974.59997558594</ele>
        <time>2023-08-08T08:56:55.000Z</time>
      </trkpt>
      <trkpt lat="45.5044" lon="6.24094">
        <ele>973.40002441406</ele>
        <time>2023-08-08T08:57:01.000Z</time>
      </trkpt>
      <trkpt lat="45.50437" lon="6.241">
        <ele>972.79998779297</ele>
        <time>2023-08-08T08:57:04.000Z</time>
      </trkpt>
      <trkpt lat="45.50436" lon="6.24105">
        <ele>972.40002441406</ele>
        <time>2023-08-08T08:57:06.000Z</time>
      </trkpt>
      <trkpt lat="45.50433" lon="6.24117">
        <ele>971.20001220703</ele>
        <time>2023-08-08T08:57:11.000Z</time>
      </trkpt>
      <trkpt lat="45.50433" lon="6.24119">
        <ele>971</ele>
        <time>2023-08-08T08:57:12.000Z</time>
      </trkpt>
      <trkpt lat="45.5043" lon="6.24128">
        <ele>970</ele>
        <time>2023-08-08T08:57:17.000Z</time>
      </trkpt>
      <trkpt lat="45.50428" lon="6.24131">
        <ele>969.59997558594</ele>
        <time>2023-08-08T08:57:20.000Z</time>
      </trkpt>
      <trkpt lat="45.50425" lon="6.24135">
        <ele>969</ele>
        <time>2023-08-08T08:57:23.000Z</time>
      </trkpt>
      <trkpt lat="45.50418" lon="6.24142">
        <ele>968</ele>
        <time>2023-08-08T08:57:28.000Z</time>
      </trkpt>
      <trkpt lat="45.50412" lon="6.24149">
        <ele>966.79998779297</ele>
        <time>2023-08-08T08:57:33.000Z</time>
      </trkpt>
      <trkpt lat="45.5041" lon="6.24152">
        <ele>966.59997558594</ele>
        <time>2023-08-08T08:57:35.000Z</time>
      </trkpt>
      <trkpt lat="45.50405" lon="6.24157">
        <ele>965.79998779297</ele>
        <time>2023-08-08T08:57:39.000Z</time>
      </trkpt>
      <trkpt lat="45.50399" lon="6.2416">
        <ele>965</ele>
        <time>2023-08-08T08:57:43.000Z</time>
      </trkpt>
      <trkpt lat="45.50397" lon="6.24162">
        <ele>964.59997558594</ele>
        <time>2023-08-08T08:57:45.000Z</time>
      </trkpt>
      <trkpt lat="45.5039" lon="6.24167">
        <ele>963.59997558594</ele>
        <time>2023-08-08T08:57:50.000Z</time>
      </trkpt>
      <trkpt lat="45.50389" lon="6.24169">
        <ele>963.40002441406</ele>
        <time>2023-08-08T08:57:51.000Z</time>
      </trkpt>
      <trkpt lat="45.50384" lon="6.24172">
        <ele>962.40002441406</ele>
        <time>2023-08-08T08:57:56.000Z</time>
      </trkpt>
      <trkpt lat="45.50381" lon="6.24175">
        <ele>961.79998779297</ele>
        <time>2023-08-08T08:57:59.000Z</time>
      </trkpt>
      <trkpt lat="45.50378" lon="6.2418">
        <ele>961.20001220703</ele>
        <time>2023-08-08T08:58:02.000Z</time>
      </trkpt>
      <trkpt lat="45.50372" lon="6.24187">
        <ele>960.20001220703</ele>
        <time>2023-08-08T08:58:07.000Z</time>
      </trkpt>
      <trkpt lat="45.50371" lon="6.24189">
        <ele>960</ele>
        <time>2023-08-08T08:58:08.000Z</time>
      </trkpt>
      <trkpt lat="45.50367" lon="6.24194">
        <ele>959</ele>
        <time>2023-08-08T08:58:12.000Z</time>
      </trkpt>
      <trkpt lat="45.50365" lon="6.24196">
        <ele>958.79998779297</ele>
        <time>2023-08-08T08:58:13.000Z</time>
      </trkpt>
      <trkpt lat="45.50359" lon="6.24205">
        <ele>957.79998779297</ele>
        <time>2023-08-08T08:58:18.000Z</time>
      </trkpt>
      <trkpt lat="45.50357" lon="6.24208">
        <ele>957.20001220703</ele>
        <time>2023-08-08T08:58:21.000Z</time>
      </trkpt>
      <trkpt lat="45.50356" lon="6.24212">
        <ele>956.59997558594</ele>
        <time>2023-08-08T08:58:23.000Z</time>
      </trkpt>
      <trkpt lat="45.50354" lon="6.24223">
        <ele>955.79998779297</ele>
        <time>2023-08-08T08:58:28.000Z</time>
      </trkpt>
      <trkpt lat="45.50353" lon="6.24226">
        <ele>955.59997558594</ele>
        <time>2023-08-08T08:58:29.000Z</time>
      </trkpt>
      <trkpt lat="45.50352" lon="6.24239">
        <ele>955</ele>
        <time>2023-08-08T08:58:35.000Z</time>
      </trkpt>
      <trkpt lat="45.50353" lon="6.24251">
        <ele>954.59997558594</ele>
        <time>2023-08-08T08:58:43.000Z</time>
      </trkpt>
      <trkpt lat="45.50353" lon="6.24252">
        <ele>954.59997558594</ele>
        <time>2023-08-08T08:58:44.000Z</time>
      </trkpt>
      <trkpt lat="45.50347" lon="6.24256">
        <ele>953.59997558594</ele>
        <time>2023-08-08T08:58:50.000Z</time>
      </trkpt>
      <trkpt lat="45.50346" lon="6.24256">
        <ele>953.40002441406</ele>
        <time>2023-08-08T08:58:51.000Z</time>
      </trkpt>
      <trkpt lat="45.50346" lon="6.24252">
        <ele>952.59997558594</ele>
        <time>2023-08-08T08:58:55.000Z</time>
      </trkpt>
      <trkpt lat="45.50347" lon="6.24251">
        <ele>952.40002441406</ele>
        <time>2023-08-08T08:58:56.000Z</time>
      </trkpt>
      <trkpt lat="45.50348" lon="6.24246">
        <ele>952.20001220703</ele>
        <time>2023-08-08T08:58:58.000Z</time>
      </trkpt>
      <trkpt lat="45.50348" lon="6.24237">
        <ele>951.40002441406</ele>
        <time>2023-08-08T08:59:05.000Z</time>
      </trkpt>
      <trkpt lat="45.50348" lon="6.24234">
        <ele>951.20001220703</ele>
        <time>2023-08-08T08:59:06.000Z</time>
      </trkpt>
      <trkpt lat="45.50349" lon="6.24224">
        <ele>950.20001220703</ele>
        <time>2023-08-08T08:59:13.000Z</time>
      </trkpt>
      <trkpt lat="45.5035" lon="6.24222">
        <ele>950</ele>
        <time>2023-08-08T08:59:14.000Z</time>
      </trkpt>
      <trkpt lat="45.50349" lon="6.24208">
        <ele>949</ele>
        <time>2023-08-08T08:59:22.000Z</time>
      </trkpt>
      <trkpt lat="45.50347" lon="6.24188">
        <ele>948</ele>
        <time>2023-08-08T08:59:29.000Z</time>
      </trkpt>
      <trkpt lat="45.50347" lon="6.24188">
        <ele>948</ele>
        <time>2023-08-08T08:59:30.000Z</time>
      </trkpt>
      <trkpt lat="45.50345" lon="6.24184">
        <ele>947.59997558594</ele>
        <time>2023-08-08T08:59:36.000Z</time>
      </trkpt>
      <trkpt lat="45.50343" lon="6.24184">
        <ele>947.59997558594</ele>
        <time>2023-08-08T08:59:39.000Z</time>
      </trkpt>
      <trkpt lat="45.50338" lon="6.24183">
        <ele>947.40002441406</ele>
        <time>2023-08-08T08:59:42.000Z</time>
      </trkpt>
      <trkpt lat="45.50336" lon="6.24181">
        <ele>947.40002441406</ele>
        <time>2023-08-08T08:59:50.000Z</time>
      </trkpt>
      <trkpt lat="45.50337" lon="6.24186">
        <ele>947.20001220703</ele>
        <time>2023-08-08T08:59:54.000Z</time>
      </trkpt>
      <trkpt lat="45.50335" lon="6.2419">
        <ele>947.20001220703</ele>
        <time>2023-08-08T09:00:01.000Z</time>
      </trkpt>
      <trkpt lat="45.5034" lon="6.24173">
        <ele>946.79998779297</ele>
        <time>2023-08-08T09:00:20.000Z</time>
      </trkpt>
      <trkpt lat="45.5034" lon="6.24161">
        <ele>945.79998779297</ele>
        <time>2023-08-08T09:00:26.000Z</time>
      </trkpt>
      <trkpt lat="45.5034" lon="6.24158">
        <ele>945.59997558594</ele>
        <time>2023-08-08T09:00:27.000Z</time>
      </trkpt>
      <trkpt lat="45.50341" lon="6.24149">
        <ele>944.79998779297</ele>
        <time>2023-08-08T09:00:33.000Z</time>
      </trkpt>
      <trkpt lat="45.50342" lon="6.24147">
        <ele>944.40002441406</ele>
        <time>2023-08-08T09:00:35.000Z</time>
      </trkpt>
      <trkpt lat="45.50341" lon="6.24141">
        <ele>943.59997558594</ele>
        <time>2023-08-08T09:00:39.000Z</time>
      </trkpt>
      <trkpt lat="45.50339" lon="6.24127">
        <ele>942.40002441406</ele>
        <time>2023-08-08T09:00:44.000Z</time>
      </trkpt>
      <trkpt lat="45.50335" lon="6.2412">
        <ele>941.40002441406</ele>
        <time>2023-08-08T09:00:48.000Z</time>
      </trkpt>
      <trkpt lat="45.50332" lon="6.2411">
        <ele>940.40002441406</ele>
        <time>2023-08-08T09:00:52.000Z</time>
      </trkpt>
      <trkpt lat="45.50332" lon="6.24108">
        <ele>940.20001220703</ele>
        <time>2023-08-08T09:00:54.000Z</time>
      </trkpt>
      <trkpt lat="45.50328" lon="6.24097">
        <ele>939.40002441406</ele>
        <time>2023-08-08T09:00:58.000Z</time>
      </trkpt>
      <trkpt lat="45.50327" lon="6.24093">
        <ele>939</ele>
        <time>2023-08-08T09:01:00.000Z</time>
      </trkpt>
      <trkpt lat="45.50326" lon="6.24083">
        <ele>937.79998779297</ele>
        <time>2023-08-08T09:01:05.000Z</time>
      </trkpt>
      <trkpt lat="45.50325" lon="6.24073">
        <ele>936.59997558594</ele>
        <time>2023-08-08T09:01:11.000Z</time>
      </trkpt>
      <trkpt lat="45.50326" lon="6.24068">
        <ele>936.40002441406</ele>
        <time>2023-08-08T09:01:13.000Z</time>
      </trkpt>
      <trkpt lat="45.50327" lon="6.24063">
        <ele>935.59997558594</ele>
        <time>2023-08-08T09:01:17.000Z</time>
      </trkpt>
      <trkpt lat="45.50327" lon="6.24058">
        <ele>934.79998779297</ele>
        <time>2023-08-08T09:01:20.000Z</time>
      </trkpt>
      <trkpt lat="45.50327" lon="6.24056">
        <ele>934.40002441406</ele>
        <time>2023-08-08T09:01:22.000Z</time>
      </trkpt>
      <trkpt lat="45.50329" lon="6.24045">
        <ele>933.59997558594</ele>
        <time>2023-08-08T09:01:28.000Z</time>
      </trkpt>
      <trkpt lat="45.50329" lon="6.24044">
        <ele>933.40002441406</ele>
        <time>2023-08-08T09:01:29.000Z</time>
      </trkpt>
      <trkpt lat="45.50331" lon="6.24039">
        <ele>932.79998779297</ele>
        <time>2023-08-08T09:01:34.000Z</time>
      </trkpt>
      <trkpt lat="45.50332" lon="6.24037">
        <ele>932.40002441406</ele>
        <time>2023-08-08T09:01:36.000Z</time>
      </trkpt>
      <trkpt lat="45.50332" lon="6.24031">
        <ele>931.40002441406</ele>
        <time>2023-08-08T09:01:41.000Z</time>
      </trkpt>
      <trkpt lat="45.50332" lon="6.2403">
        <ele>931.20001220703</ele>
        <time>2023-08-08T09:01:42.000Z</time>
      </trkpt>
      <trkpt lat="45.50324" lon="6.2402">
        <ele>930</ele>
        <time>2023-08-08T09:01:47.000Z</time>
      </trkpt>
      <trkpt lat="45.50323" lon="6.24017">
        <ele>929.79998779297</ele>
        <time>2023-08-08T09:01:48.000Z</time>
      </trkpt>
      <trkpt lat="45.50318" lon="6.24011">
        <ele>929</ele>
        <time>2023-08-08T09:01:51.000Z</time>
      </trkpt>
      <trkpt lat="45.50313" lon="6.24006">
        <ele>928</ele>
        <time>2023-08-08T09:01:54.000Z</time>
      </trkpt>
      <trkpt lat="45.50312" lon="6.24005">
        <ele>927.79998779297</ele>
        <time>2023-08-08T09:01:55.000Z</time>
      </trkpt>
      <trkpt lat="45.50292" lon="6.23987">
        <ele>925.59997558594</ele>
        <time>2023-08-08T09:02:05.000Z</time>
      </trkpt>
      <trkpt lat="45.50291" lon="6.23986">
        <ele>925.40002441406</ele>
        <time>2023-08-08T09:02:06.000Z</time>
      </trkpt>
      <trkpt lat="45.5028" lon="6.23974">
        <ele>923.59997558594</ele>
        <time>2023-08-08T09:02:15.000Z</time>
      </trkpt>
      <trkpt lat="45.50279" lon="6.23973">
        <ele>923.20001220703</ele>
        <time>2023-08-08T09:02:17.000Z</time>
      </trkpt>
      <trkpt lat="45.50278" lon="6.23968">
        <ele>922.20001220703</ele>
        <time>2023-08-08T09:02:21.000Z</time>
      </trkpt>
      <trkpt lat="45.50276" lon="6.23964">
        <ele>921.40002441406</ele>
        <time>2023-08-08T09:02:24.000Z</time>
      </trkpt>
      <trkpt lat="45.50276" lon="6.23961">
        <ele>921</ele>
        <time>2023-08-08T09:02:26.000Z</time>
      </trkpt>
      <trkpt lat="45.50273" lon="6.23953">
        <ele>920.20001220703</ele>
        <time>2023-08-08T09:02:31.000Z</time>
      </trkpt>
      <trkpt lat="45.50273" lon="6.23953">
        <ele>920</ele>
        <time>2023-08-08T09:02:32.000Z</time>
      </trkpt>
      <trkpt lat="45.50273" lon="6.23945">
        <ele>919.59997558594</ele>
        <time>2023-08-08T09:02:39.000Z</time>
      </trkpt>
      <trkpt lat="45.50271" lon="6.23938">
        <ele>919</ele>
        <time>2023-08-08T09:02:42.000Z</time>
      </trkpt>
      <trkpt lat="45.50269" lon="6.23932">
        <ele>918.20001220703</ele>
        <time>2023-08-08T09:02:45.000Z</time>
      </trkpt>
      <trkpt lat="45.50267" lon="6.23927">
        <ele>917.79998779297</ele>
        <time>2023-08-08T09:02:47.000Z</time>
      </trkpt>
      <trkpt lat="45.50263" lon="6.23914">
        <ele>916.59997558594</ele>
        <time>2023-08-08T09:02:52.000Z</time>
      </trkpt>
      <trkpt lat="45.50262" lon="6.2391">
        <ele>916.20001220703</ele>
        <time>2023-08-08T09:02:54.000Z</time>
      </trkpt>
      <trkpt lat="45.5026" lon="6.23905">
        <ele>915.59997558594</ele>
        <time>2023-08-08T09:02:57.000Z</time>
      </trkpt>
      <trkpt lat="45.50259" lon="6.23898">
        <ele>914.59997558594</ele>
        <time>2023-08-08T09:03:02.000Z</time>
      </trkpt>
      <trkpt lat="45.50259" lon="6.2389">
        <ele>913.40002441406</ele>
        <time>2023-08-08T09:03:07.000Z</time>
      </trkpt>
      <trkpt lat="45.50258" lon="6.23883">
        <ele>912.59997558594</ele>
        <time>2023-08-08T09:03:11.000Z</time>
      </trkpt>
      <trkpt lat="45.50256" lon="6.23879">
        <ele>912.40002441406</ele>
        <time>2023-08-08T09:03:13.000Z</time>
      </trkpt>
      <trkpt lat="45.50254" lon="6.2387">
        <ele>911.40002441406</ele>
        <time>2023-08-08T09:03:18.000Z</time>
      </trkpt>
      <trkpt lat="45.50253" lon="6.23869">
        <ele>911.20001220703</ele>
        <time>2023-08-08T09:03:19.000Z</time>
      </trkpt>
      <trkpt lat="45.5025" lon="6.23858">
        <ele>910.20001220703</ele>
        <time>2023-08-08T09:03:25.000Z</time>
      </trkpt>
      <trkpt lat="45.50245" lon="6.2385">
        <ele>909.59997558594</ele>
        <time>2023-08-08T09:03:29.000Z</time>
      </trkpt>
      <trkpt lat="45.50242" lon="6.23842">
        <ele>909.20001220703</ele>
        <time>2023-08-08T09:03:32.000Z</time>
      </trkpt>
      <trkpt lat="45.50238" lon="6.2383">
        <ele>908.40002441406</ele>
        <time>2023-08-08T09:03:38.000Z</time>
      </trkpt>
      <trkpt lat="45.50237" lon="6.23827">
        <ele>908</ele>
        <time>2023-08-08T09:03:41.000Z</time>
      </trkpt>
      <trkpt lat="45.50235" lon="6.23826">
        <ele>907.79998779297</ele>
        <time>2023-08-08T09:03:44.000Z</time>
      </trkpt>
      <trkpt lat="45.50233" lon="6.23818">
        <ele>907</ele>
        <time>2023-08-08T09:03:50.000Z</time>
      </trkpt>
      <trkpt lat="45.50226" lon="6.23804">
        <ele>905.79998779297</ele>
        <time>2023-08-08T09:03:56.000Z</time>
      </trkpt>
      <trkpt lat="45.50225" lon="6.23802">
        <ele>905.59997558594</ele>
        <time>2023-08-08T09:03:57.000Z</time>
      </trkpt>
      <trkpt lat="45.50217" lon="6.23791">
        <ele>904.59997558594</ele>
        <time>2023-08-08T09:04:03.000Z</time>
      </trkpt>
      <trkpt lat="45.50216" lon="6.2379">
        <ele>904.40002441406</ele>
        <time>2023-08-08T09:04:04.000Z</time>
      </trkpt>
      <trkpt lat="45.50208" lon="6.23784">
        <ele>902.40002441406</ele>
        <time>2023-08-08T09:04:19.000Z</time>
      </trkpt>
      <trkpt lat="45.50208" lon="6.23785">
        <ele>902.40002441406</ele>
        <time>2023-08-08T09:04:21.000Z</time>
      </trkpt>
      <trkpt lat="45.50208" lon="6.23785">
        <ele>902.40002441406</ele>
        <time>2023-08-08T09:04:22.000Z</time>
      </trkpt>
      <trkpt lat="45.50189" lon="6.23773">
        <ele>900</ele>
        <time>2023-08-08T09:04:38.000Z</time>
      </trkpt>
      <trkpt lat="45.50183" lon="6.23765">
        <ele>899.20001220703</ele>
        <time>2023-08-08T09:04:44.000Z</time>
      </trkpt>
      <trkpt lat="45.50178" lon="6.23758">
        <ele>898.79998779297</ele>
        <time>2023-08-08T09:04:48.000Z</time>
      </trkpt>
      <trkpt lat="45.50172" lon="6.2375">
        <ele>898</ele>
        <time>2023-08-08T09:04:53.000Z</time>
      </trkpt>
      <trkpt lat="45.50168" lon="6.23747">
        <ele>897.79998779297</ele>
        <time>2023-08-08T09:04:55.000Z</time>
      </trkpt>
      <trkpt lat="45.50144" lon="6.23747">
        <ele>894.79998779297</ele>
        <time>2023-08-08T09:05:15.000Z</time>
      </trkpt>
      <trkpt lat="45.50142" lon="6.23747">
        <ele>894.79998779297</ele>
        <time>2023-08-08T09:05:16.000Z</time>
      </trkpt>
      <trkpt lat="45.5014" lon="6.23747">
        <ele>894.59997558594</ele>
        <time>2023-08-08T09:05:17.000Z</time>
      </trkpt>
      <trkpt lat="45.50107" lon="6.2375">
        <ele>893</ele>
        <time>2023-08-08T09:06:03.000Z</time>
      </trkpt>
      <trkpt lat="45.50107" lon="6.23751">
        <ele>893</ele>
        <time>2023-08-08T09:06:05.000Z</time>
      </trkpt>
      <trkpt lat="45.50108" lon="6.23751">
        <ele>893</ele>
        <time>2023-08-08T09:06:12.000Z</time>
      </trkpt>
      <trkpt lat="45.501" lon="6.23748">
        <ele>892.20001220703</ele>
        <time>2023-08-08T09:06:26.000Z</time>
      </trkpt>
      <trkpt lat="45.5009" lon="6.23745">
        <ele>891.40002441406</ele>
        <time>2023-08-08T09:06:33.000Z</time>
      </trkpt>
      <trkpt lat="45.50089" lon="6.23745">
        <ele>891.40002441406</ele>
        <time>2023-08-08T09:06:34.000Z</time>
      </trkpt>
      <trkpt lat="45.50079" lon="6.23737">
        <ele>890.59997558594</ele>
        <time>2023-08-08T09:06:42.000Z</time>
      </trkpt>
      <trkpt lat="45.50078" lon="6.23737">
        <ele>890.40002441406</ele>
        <time>2023-08-08T09:06:43.000Z</time>
      </trkpt>
      <trkpt lat="45.50073" lon="6.23733">
        <ele>889.79998779297</ele>
        <time>2023-08-08T09:06:49.000Z</time>
      </trkpt>
      <trkpt lat="45.50072" lon="6.23732">
        <ele>889.40002441406</ele>
        <time>2023-08-08T09:06:53.000Z</time>
      </trkpt>
      <trkpt lat="45.50072" lon="6.23732">
        <ele>889.40002441406</ele>
        <time>2023-08-08T09:06:57.000Z</time>
      </trkpt>
      <trkpt lat="45.50068" lon="6.23729">
        <ele>889.20001220703</ele>
        <time>2023-08-08T09:07:05.000Z</time>
      </trkpt>
      <trkpt lat="45.50067" lon="6.23728">
        <ele>888.59997558594</ele>
        <time>2023-08-08T09:07:11.000Z</time>
      </trkpt>
      <trkpt lat="45.50064" lon="6.23726">
        <ele>888.40002441406</ele>
        <time>2023-08-08T09:07:19.000Z</time>
      </trkpt>
      <trkpt lat="45.50056" lon="6.23714">
        <ele>887.59997558594</ele>
        <time>2023-08-08T09:07:28.000Z</time>
      </trkpt>
      <trkpt lat="45.50054" lon="6.23706">
        <ele>887.40002441406</ele>
        <time>2023-08-08T09:07:32.000Z</time>
      </trkpt>
      <trkpt lat="45.50053" lon="6.237">
        <ele>886.79998779297</ele>
        <time>2023-08-08T09:07:35.000Z</time>
      </trkpt>
      <trkpt lat="45.50049" lon="6.23687">
        <ele>886.40002441406</ele>
        <time>2023-08-08T09:07:42.000Z</time>
      </trkpt>
      <trkpt lat="45.50048" lon="6.23685">
        <ele>886.20001220703</ele>
        <time>2023-08-08T09:07:44.000Z</time>
      </trkpt>
      <trkpt lat="45.50043" lon="6.23673">
        <ele>885.20001220703</ele>
        <time>2023-08-08T09:07:51.000Z</time>
      </trkpt>
      <trkpt lat="45.50042" lon="6.23672">
        <ele>885</ele>
        <time>2023-08-08T09:07:52.000Z</time>
      </trkpt>
      <trkpt lat="45.50043" lon="6.23671">
        <ele>884.59997558594</ele>
        <time>2023-08-08T09:07:56.000Z</time>
      </trkpt>
      <trkpt lat="45.50043" lon="6.23671">
        <ele>884.40002441406</ele>
        <time>2023-08-08T09:07:58.000Z</time>
      </trkpt>
      <trkpt lat="45.50039" lon="6.23662">
        <ele>884.40002441406</ele>
        <time>2023-08-08T09:08:06.000Z</time>
      </trkpt>
      <trkpt lat="45.50039" lon="6.23655">
        <ele>884.20001220703</ele>
        <time>2023-08-08T09:08:09.000Z</time>
      </trkpt>
      <trkpt lat="45.50037" lon="6.23644">
        <ele>883.79998779297</ele>
        <time>2023-08-08T09:08:14.000Z</time>
      </trkpt>
      <trkpt lat="45.50035" lon="6.23633">
        <ele>883.20001220703</ele>
        <time>2023-08-08T09:08:20.000Z</time>
      </trkpt>
      <trkpt lat="45.50034" lon="6.23625">
        <ele>882.79998779297</ele>
        <time>2023-08-08T09:08:24.000Z</time>
      </trkpt>
      <trkpt lat="45.50031" lon="6.2361">
        <ele>882.20001220703</ele>
        <time>2023-08-08T09:08:32.000Z</time>
      </trkpt>
      <trkpt lat="45.50029" lon="6.23604">
        <ele>881.79998779297</ele>
        <time>2023-08-08T09:08:35.000Z</time>
      </trkpt>
      <trkpt lat="45.50026" lon="6.23587">
        <ele>881</ele>
        <time>2023-08-08T09:08:43.000Z</time>
      </trkpt>
      <trkpt lat="45.50025" lon="6.23585">
        <ele>881</ele>
        <time>2023-08-08T09:08:44.000Z</time>
      </trkpt>
      <trkpt lat="45.50021" lon="6.23564">
        <ele>880</ele>
        <time>2023-08-08T09:08:54.000Z</time>
      </trkpt>
      <trkpt lat="45.50017" lon="6.23545">
        <ele>879.20001220703</ele>
        <time>2023-08-08T09:09:03.000Z</time>
      </trkpt>
      <trkpt lat="45.50016" lon="6.23537">
        <ele>879</ele>
        <time>2023-08-08T09:09:07.000Z</time>
      </trkpt>
      <trkpt lat="45.50013" lon="6.23523">
        <ele>878.40002441406</ele>
        <time>2023-08-08T09:09:13.000Z</time>
      </trkpt>
      <trkpt lat="45.50011" lon="6.23513">
        <ele>877.79998779297</ele>
        <time>2023-08-08T09:09:18.000Z</time>
      </trkpt>
      <trkpt lat="45.5001" lon="6.23507">
        <ele>877.79998779297</ele>
        <time>2023-08-08T09:09:21.000Z</time>
      </trkpt>
      <trkpt lat="45.50006" lon="6.23494">
        <ele>877.20001220703</ele>
        <time>2023-08-08T09:09:28.000Z</time>
      </trkpt>
      <trkpt lat="45.50005" lon="6.23484">
        <ele>876.79998779297</ele>
        <time>2023-08-08T09:09:33.000Z</time>
      </trkpt>
      <trkpt lat="45.50006" lon="6.23482">
        <ele>876.59997558594</ele>
        <time>2023-08-08T09:09:35.000Z</time>
      </trkpt>
      <trkpt lat="45.50007" lon="6.23481">
        <ele>876.59997558594</ele>
        <time>2023-08-08T09:09:36.000Z</time>
      </trkpt>
      <trkpt lat="45.50009" lon="6.23482">
        <ele>876.40002441406</ele>
        <time>2023-08-08T09:09:41.000Z</time>
      </trkpt>
      <trkpt lat="45.50008" lon="6.23482">
        <ele>876.40002441406</ele>
        <time>2023-08-08T09:09:43.000Z</time>
      </trkpt>
      <trkpt lat="45.50008" lon="6.23482">
        <ele>876.40002441406</ele>
        <time>2023-08-08T09:09:44.000Z</time>
      </trkpt>
      <trkpt lat="45.50004" lon="6.23477">
        <ele>876.40002441406</ele>
        <time>2023-08-08T09:09:48.000Z</time>
      </trkpt>
      <trkpt lat="45.5" lon="6.2346">
        <ele>876</ele>
        <time>2023-08-08T09:09:55.000Z</time>
      </trkpt>
      <trkpt lat="45.49998" lon="6.23454">
        <ele>875.79998779297</ele>
        <time>2023-08-08T09:09:59.000Z</time>
      </trkpt>
      <trkpt lat="45.49997" lon="6.23447">
        <ele>875.59997558594</ele>
        <time>2023-08-08T09:10:02.000Z</time>
      </trkpt>
      <trkpt lat="45.49994" lon="6.23432">
        <ele>875.20001220703</ele>
        <time>2023-08-08T09:10:09.000Z</time>
      </trkpt>
      <trkpt lat="45.49992" lon="6.23416">
        <ele>874.79998779297</ele>
        <time>2023-08-08T09:10:16.000Z</time>
      </trkpt>
      <trkpt lat="45.49992" lon="6.23413">
        <ele>874.59997558594</ele>
        <time>2023-08-08T09:10:17.000Z</time>
      </trkpt>
      <trkpt lat="45.49988" lon="6.23394">
        <ele>874.40002441406</ele>
        <time>2023-08-08T09:10:26.000Z</time>
      </trkpt>
      <trkpt lat="45.49986" lon="6.23379">
        <ele>874.20001220703</ele>
        <time>2023-08-08T09:10:33.000Z</time>
      </trkpt>
      <trkpt lat="45.49984" lon="6.2336">
        <ele>873.79998779297</ele>
        <time>2023-08-08T09:10:43.000Z</time>
      </trkpt>
      <trkpt lat="45.49981" lon="6.23338">
        <ele>873.40002441406</ele>
        <time>2023-08-08T09:10:52.000Z</time>
      </trkpt>
      <trkpt lat="45.4998" lon="6.2332">
        <ele>873.20001220703</ele>
        <time>2023-08-08T09:11:01.000Z</time>
      </trkpt>
      <trkpt lat="45.49978" lon="6.23299">
        <ele>873</ele>
        <time>2023-08-08T09:11:11.000Z</time>
      </trkpt>
      <trkpt lat="45.49976" lon="6.23279">
        <ele>872.79998779297</ele>
        <time>2023-08-08T09:11:20.000Z</time>
      </trkpt>
      <trkpt lat="45.49975" lon="6.23259">
        <ele>872.79998779297</ele>
        <time>2023-08-08T09:11:30.000Z</time>
      </trkpt>
      <trkpt lat="45.49975" lon="6.23238">
        <ele>872.79998779297</ele>
        <time>2023-08-08T09:11:41.000Z</time>
      </trkpt>
      <trkpt lat="45.49975" lon="6.23216">
        <ele>873</ele>
        <time>2023-08-08T09:11:50.000Z</time>
      </trkpt>
      <trkpt lat="45.49973" lon="6.23195">
        <ele>873.20001220703</ele>
        <time>2023-08-08T09:11:59.000Z</time>
      </trkpt>
      <trkpt lat="45.49968" lon="6.2318">
        <ele>873.40002441406</ele>
        <time>2023-08-08T09:12:07.000Z</time>
      </trkpt>
      <trkpt lat="45.49959" lon="6.23161">
        <ele>873.59997558594</ele>
        <time>2023-08-08T09:12:16.000Z</time>
      </trkpt>
      <trkpt lat="45.49951" lon="6.2315">
        <ele>873.79998779297</ele>
        <time>2023-08-08T09:12:25.000Z</time>
      </trkpt>
      <trkpt lat="45.49934" lon="6.23137">
        <ele>874.20001220703</ele>
        <time>2023-08-08T09:12:36.000Z</time>
      </trkpt>
      <trkpt lat="45.49923" lon="6.23127">
        <ele>874.59997558594</ele>
        <time>2023-08-08T09:12:45.000Z</time>
      </trkpt>
      <trkpt lat="45.4992" lon="6.23124">
        <ele>874.79998779297</ele>
        <time>2023-08-08T09:12:48.000Z</time>
      </trkpt>
      <trkpt lat="45.49913" lon="6.23116">
        <ele>875.20001220703</ele>
        <time>2023-08-08T09:12:54.000Z</time>
      </trkpt>
      <trkpt lat="45.49907" lon="6.2311">
        <ele>875.79998779297</ele>
        <time>2023-08-08T09:12:59.000Z</time>
      </trkpt>
      <trkpt lat="45.49904" lon="6.23106">
        <ele>876.40002441406</ele>
        <time>2023-08-08T09:13:02.000Z</time>
      </trkpt>
      <trkpt lat="45.49896" lon="6.23104">
        <ele>877</ele>
        <time>2023-08-08T09:13:07.000Z</time>
      </trkpt>
      <trkpt lat="45.49893" lon="6.23101">
        <ele>877.40002441406</ele>
        <time>2023-08-08T09:13:09.000Z</time>
      </trkpt>
      <trkpt lat="45.49894" lon="6.23098">
        <ele>877.59997558594</ele>
        <time>2023-08-08T09:13:14.000Z</time>
      </trkpt>
      <trkpt lat="45.49892" lon="6.2309">
        <ele>877.79998779297</ele>
        <time>2023-08-08T09:13:19.000Z</time>
      </trkpt>
      <trkpt lat="45.49894" lon="6.23089">
        <ele>877.59997558594</ele>
        <time>2023-08-08T09:13:25.000Z</time>
      </trkpt>
      <trkpt lat="45.49892" lon="6.23086">
        <ele>877.59997558594</ele>
        <time>2023-08-08T09:13:33.000Z</time>
      </trkpt>
      <trkpt lat="45.4989" lon="6.23081">
        <ele>877.59997558594</ele>
        <time>2023-08-08T09:13:41.000Z</time>
      </trkpt>
      <trkpt lat="45.49891" lon="6.23079">
        <ele>878</ele>
        <time>2023-08-08T09:13:47.000Z</time>
      </trkpt>
      <trkpt lat="45.4989" lon="6.2308">
        <ele>878</ele>
        <time>2023-08-08T09:13:52.000Z</time>
      </trkpt>
      <trkpt lat="45.49888" lon="6.23083">
        <ele>878.20001220703</ele>
        <time>2023-08-08T09:13:56.000Z</time>
      </trkpt>
      <trkpt lat="45.49886" lon="6.2308">
        <ele>878.20001220703</ele>
        <time>2023-08-08T09:14:02.000Z</time>
      </trkpt>
      <trkpt lat="45.49888" lon="6.2308">
        <ele>878</ele>
        <time>2023-08-08T09:14:09.000Z</time>
      </trkpt>
      <trkpt lat="45.4989" lon="6.23077">
        <ele>878</ele>
        <time>2023-08-08T09:14:16.000Z</time>
      </trkpt>
      <trkpt lat="45.49888" lon="6.23076">
        <ele>878</ele>
        <time>2023-08-08T09:14:23.000Z</time>
      </trkpt>
      <trkpt lat="45.49887" lon="6.23079">
        <ele>878</ele>
        <time>2023-08-08T09:14:32.000Z</time>
      </trkpt>
      <trkpt lat="45.4989" lon="6.23077">
        <ele>878</ele>
        <time>2023-08-08T09:14:41.000Z</time>
      </trkpt>
      <trkpt lat="45.4989" lon="6.23074">
        <ele>877.79998779297</ele>
        <time>2023-08-08T09:14:49.000Z</time>
      </trkpt>
      <trkpt lat="45.4989" lon="6.23074">
        <ele>877.79998779297</ele>
        <time>2023-08-08T09:14:56.000Z</time>
      </trkpt>
      <trkpt lat="45.49888" lon="6.23074">
        <ele>877.79998779297</ele>
        <time>2023-08-08T09:15:06.000Z</time>
      </trkpt>
      <trkpt lat="45.49887" lon="6.23075">
        <ele>877.79998779297</ele>
        <time>2023-08-08T09:15:14.000Z</time>
      </trkpt>
      <trkpt lat="45.49886" lon="6.23077">
        <ele>877.59997558594</ele>
        <time>2023-08-08T09:15:21.000Z</time>
      </trkpt>
      <trkpt lat="45.49886" lon="6.23075">
        <ele>877.59997558594</ele>
        <time>2023-08-08T09:15:31.000Z</time>
      </trkpt>
      <trkpt lat="45.49886" lon="6.23078">
        <ele>877</ele>
        <time>2023-08-08T09:15:40.000Z</time>
      </trkpt>
      <trkpt lat="45.49886" lon="6.23078">
        <ele>877</ele>
        <time>2023-08-08T09:15:41.000Z</time>
      </trkpt>
      <trkpt lat="45.49885" lon="6.2308">
        <ele>877.20001220703</ele>
        <time>2023-08-08T09:15:49.000Z</time>
      </trkpt>
      <trkpt lat="45.49887" lon="6.23078">
        <ele>877.20001220703</ele>
        <time>2023-08-08T09:15:57.000Z</time>
      </trkpt>
      <trkpt lat="45.49889" lon="6.23078">
        <ele>877.20001220703</ele>
        <time>2023-08-08T09:16:05.000Z</time>
      </trkpt>
      <trkpt lat="45.4989" lon="6.23077">
        <ele>877.20001220703</ele>
        <time>2023-08-08T09:16:13.000Z</time>
      </trkpt>
      <trkpt lat="45.49893" lon="6.23074">
        <ele>877</ele>
        <time>2023-08-08T09:16:20.000Z</time>
      </trkpt>
      <trkpt lat="45.49894" lon="6.23071">
        <ele>877</ele>
        <time>2023-08-08T09:16:26.000Z</time>
      </trkpt>
      <trkpt lat="45.49892" lon="6.23069">
        <ele>877.20001220703</ele>
        <time>2023-08-08T09:16:35.000Z</time>
      </trkpt>
      <trkpt lat="45.49893" lon="6.23072">
        <ele>877.20001220703</ele>
        <time>2023-08-08T09:16:43.000Z</time>
      </trkpt>
      <trkpt lat="45.4989" lon="6.23077">
        <ele>877</ele>
        <time>2023-08-08T09:16:53.000Z</time>
      </trkpt>
      <trkpt lat="45.49889" lon="6.23079">
        <ele>877</ele>
        <time>2023-08-08T09:17:01.000Z</time>
      </trkpt>
      <trkpt lat="45.49891" lon="6.23076">
        <ele>877</ele>
        <time>2023-08-08T09:17:09.000Z</time>
      </trkpt>
      <trkpt lat="45.49891" lon="6.23077">
        <ele>877</ele>
        <time>2023-08-08T09:17:16.000Z</time>
      </trkpt>
      <trkpt lat="45.49891" lon="6.23077">
        <ele>877.20001220703</ele>
        <time>2023-08-08T09:17:22.000Z</time>
      </trkpt>
      <trkpt lat="45.49889" lon="6.2307">
        <ele>877.20001220703</ele>
        <time>2023-08-08T09:17:29.000Z</time>
      </trkpt>
      <trkpt lat="45.4989" lon="6.23072">
        <ele>877.20001220703</ele>
        <time>2023-08-08T09:17:35.000Z</time>
      </trkpt>
      <trkpt lat="45.49895" lon="6.23073">
        <ele>877.20001220703</ele>
        <time>2023-08-08T09:17:43.000Z</time>
      </trkpt>
      <trkpt lat="45.4989" lon="6.23067">
        <ele>877.20001220703</ele>
        <time>2023-08-08T09:17:51.000Z</time>
      </trkpt>
      <trkpt lat="45.49891" lon="6.23063">
        <ele>877.20001220703</ele>
        <time>2023-08-08T09:18:00.000Z</time>
      </trkpt>
      <trkpt lat="45.49892" lon="6.23068">
        <ele>877.20001220703</ele>
        <time>2023-08-08T09:18:09.000Z</time>
      </trkpt>
      <trkpt lat="45.49891" lon="6.23071">
        <ele>877.20001220703</ele>
        <time>2023-08-08T09:18:15.000Z</time>
      </trkpt>
      <trkpt lat="45.49887" lon="6.23074">
        <ele>877.20001220703</ele>
        <time>2023-08-08T09:18:22.000Z</time>
      </trkpt>
      <trkpt lat="45.49884" lon="6.2308">
        <ele>877.20001220703</ele>
        <time>2023-08-08T09:18:32.000Z</time>
      </trkpt>
      <trkpt lat="45.49889" lon="6.2307">
        <ele>877.20001220703</ele>
        <time>2023-08-08T09:18:43.000Z</time>
      </trkpt>
      <trkpt lat="45.4989" lon="6.2307">
        <ele>877.20001220703</ele>
        <time>2023-08-08T09:18:51.000Z</time>
      </trkpt>
      <trkpt lat="45.49888" lon="6.23072">
        <ele>877</ele>
        <time>2023-08-08T09:18:58.000Z</time>
      </trkpt>
      <trkpt lat="45.49887" lon="6.23076">
        <ele>876.79998779297</ele>
        <time>2023-08-08T09:19:05.000Z</time>
      </trkpt>
      <trkpt lat="45.4989" lon="6.23075">
        <ele>877</ele>
        <time>2023-08-08T09:19:13.000Z</time>
      </trkpt>
      <trkpt lat="45.49892" lon="6.23077">
        <ele>876.59997558594</ele>
        <time>2023-08-08T09:19:20.000Z</time>
      </trkpt>
      <trkpt lat="45.49888" lon="6.23076">
        <ele>876.59997558594</ele>
        <time>2023-08-08T09:19:28.000Z</time>
      </trkpt>
      <trkpt lat="45.49892" lon="6.23072">
        <ele>876.59997558594</ele>
        <time>2023-08-08T09:19:34.000Z</time>
      </trkpt>
      <trkpt lat="45.49891" lon="6.23075">
        <ele>876.79998779297</ele>
        <time>2023-08-08T09:19:41.000Z</time>
      </trkpt>
      <trkpt lat="45.49891" lon="6.23078">
        <ele>876.79998779297</ele>
        <time>2023-08-08T09:19:52.000Z</time>
      </trkpt>
      <trkpt lat="45.4989" lon="6.23079">
        <ele>876.59997558594</ele>
        <time>2023-08-08T09:20:03.000Z</time>
      </trkpt>
      <trkpt lat="45.49889" lon="6.23079">
        <ele>876.59997558594</ele>
        <time>2023-08-08T09:20:11.000Z</time>
      </trkpt>
      <trkpt lat="45.49887" lon="6.23078">
        <ele>876.40002441406</ele>
        <time>2023-08-08T09:20:21.000Z</time>
      </trkpt>
      <trkpt lat="45.49886" lon="6.23075">
        <ele>876.40002441406</ele>
        <time>2023-08-08T09:20:29.000Z</time>
      </trkpt>
      <trkpt lat="45.49887" lon="6.23072">
        <ele>876.59997558594</ele>
        <time>2023-08-08T09:20:42.000Z</time>
      </trkpt>
      <trkpt lat="45.49888" lon="6.23073">
        <ele>876.59997558594</ele>
        <time>2023-08-08T09:20:50.000Z</time>
      </trkpt>
      <trkpt lat="45.49887" lon="6.2308">
        <ele>876.59997558594</ele>
        <time>2023-08-08T09:20:59.000Z</time>
      </trkpt>
      <trkpt lat="45.49885" lon="6.23083">
        <ele>876.59997558594</ele>
        <time>2023-08-08T09:21:09.000Z</time>
      </trkpt>
      <trkpt lat="45.49885" lon="6.23085">
        <ele>876.59997558594</ele>
        <time>2023-08-08T09:21:18.000Z</time>
      </trkpt>
      <trkpt lat="45.49888" lon="6.23082">
        <ele>876.59997558594</ele>
        <time>2023-08-08T09:21:28.000Z</time>
      </trkpt>
      <trkpt lat="45.49887" lon="6.23082">
        <ele>876.40002441406</ele>
        <time>2023-08-08T09:21:36.000Z</time>
      </trkpt>
      <trkpt lat="45.49889" lon="6.23081">
        <ele>876.59997558594</ele>
        <time>2023-08-08T09:21:43.000Z</time>
      </trkpt>
      <trkpt lat="45.4989" lon="6.23078">
        <ele>876.59997558594</ele>
        <time>2023-08-08T09:21:51.000Z</time>
      </trkpt>
      <trkpt lat="45.49889" lon="6.23078">
        <ele>876.59997558594</ele>
        <time>2023-08-08T09:21:59.000Z</time>
      </trkpt>
      <trkpt lat="45.4989" lon="6.23077">
        <ele>876.59997558594</ele>
        <time>2023-08-08T09:22:07.000Z</time>
      </trkpt>
      <trkpt lat="45.4989" lon="6.23078">
        <ele>876.40002441406</ele>
        <time>2023-08-08T09:22:15.000Z</time>
      </trkpt>
      <trkpt lat="45.49891" lon="6.23079">
        <ele>876.40002441406</ele>
        <time>2023-08-08T09:22:22.000Z</time>
      </trkpt>
      <trkpt lat="45.4989" lon="6.23078">
        <ele>876.40002441406</ele>
        <time>2023-08-08T09:22:29.000Z</time>
      </trkpt>
      <trkpt lat="45.4989" lon="6.23076">
        <ele>876.40002441406</ele>
        <time>2023-08-08T09:22:38.000Z</time>
      </trkpt>
      <trkpt lat="45.4989" lon="6.23076">
        <ele>876.59997558594</ele>
        <time>2023-08-08T09:22:46.000Z</time>
      </trkpt>
      <trkpt lat="45.49889" lon="6.23077">
        <ele>876.59997558594</ele>
        <time>2023-08-08T09:22:59.000Z</time>
      </trkpt>
      <trkpt lat="45.49889" lon="6.23079">
        <ele>876.59997558594</ele>
        <time>2023-08-08T09:23:09.000Z</time>
      </trkpt>
      <trkpt lat="45.49888" lon="6.23076">
        <ele>876.40002441406</ele>
        <time>2023-08-08T09:23:19.000Z</time>
      </trkpt>
      <trkpt lat="45.49888" lon="6.23076">
        <ele>876.40002441406</ele>
        <time>2023-08-08T09:23:30.000Z</time>
      </trkpt>
      <trkpt lat="45.4989" lon="6.23076">
        <ele>876.20001220703</ele>
        <time>2023-08-08T09:23:39.000Z</time>
      </trkpt>
      <trkpt lat="45.49891" lon="6.23077">
        <ele>876.20001220703</ele>
        <time>2023-08-08T09:23:48.000Z</time>
      </trkpt>
      <trkpt lat="45.49889" lon="6.23078">
        <ele>876.20001220703</ele>
        <time>2023-08-08T09:23:55.000Z</time>
      </trkpt>
      <trkpt lat="45.49888" lon="6.23075">
        <ele>876.20001220703</ele>
        <time>2023-08-08T09:24:04.000Z</time>
      </trkpt>
      <trkpt lat="45.49887" lon="6.23074">
        <ele>876.20001220703</ele>
        <time>2023-08-08T09:24:11.000Z</time>
      </trkpt>
      <trkpt lat="45.49888" lon="6.23075">
        <ele>876</ele>
        <time>2023-08-08T09:24:12.000Z</time>
      </trkpt>
      <trkpt lat="45.49889" lon="6.23081">
        <ele>876</ele>
        <time>2023-08-08T09:24:18.000Z</time>
      </trkpt>
      <trkpt lat="45.49888" lon="6.23079">
        <ele>876</ele>
        <time>2023-08-08T09:24:25.000Z</time>
      </trkpt>
      <trkpt lat="45.49891" lon="6.23077">
        <ele>876</ele>
        <time>2023-08-08T09:24:33.000Z</time>
      </trkpt>
      <trkpt lat="45.49889" lon="6.23077">
        <ele>875.79998779297</ele>
        <time>2023-08-08T09:24:40.000Z</time>
      </trkpt>
      <trkpt lat="45.49881" lon="6.23076">
        <ele>875.79998779297</ele>
        <time>2023-08-08T09:24:46.000Z</time>
      </trkpt>
      <trkpt lat="45.49875" lon="6.23074">
        <ele>875</ele>
        <time>2023-08-08T09:24:51.000Z</time>
      </trkpt>
      <trkpt lat="45.49873" lon="6.23074">
        <ele>874.59997558594</ele>
        <time>2023-08-08T09:24:53.000Z</time>
      </trkpt>
      <trkpt lat="45.49868" lon="6.23074">
        <ele>874</ele>
        <time>2023-08-08T09:24:57.000Z</time>
      </trkpt>
      <trkpt lat="45.49863" lon="6.23074">
        <ele>873.79998779297</ele>
        <time>2023-08-08T09:25:01.000Z</time>
      </trkpt>
      <trkpt lat="45.49852" lon="6.23066">
        <ele>873</ele>
        <time>2023-08-08T09:25:09.000Z</time>
      </trkpt>
      <trkpt lat="45.49844" lon="6.23054">
        <ele>872</ele>
        <time>2023-08-08T09:25:18.000Z</time>
      </trkpt>
      <trkpt lat="45.49842" lon="6.23053">
        <ele>871.79998779297</ele>
        <time>2023-08-08T09:25:21.000Z</time>
      </trkpt>
      <trkpt lat="45.49837" lon="6.2305">
        <ele>871.40002441406</ele>
        <time>2023-08-08T09:25:25.000Z</time>
      </trkpt>
      <trkpt lat="45.49827" lon="6.23049">
        <ele>871</ele>
        <time>2023-08-08T09:25:33.000Z</time>
      </trkpt>
      <trkpt lat="45.49825" lon="6.23049">
        <ele>870.79998779297</ele>
        <time>2023-08-08T09:25:34.000Z</time>
      </trkpt>
      <trkpt lat="45.49814" lon="6.23049">
        <ele>870.40002441406</ele>
        <time>2023-08-08T09:25:43.000Z</time>
      </trkpt>
      <trkpt lat="45.49804" lon="6.23051">
        <ele>869.59997558594</ele>
        <time>2023-08-08T09:25:50.000Z</time>
      </trkpt>
      <trkpt lat="45.49793" lon="6.23052">
        <ele>869.20001220703</ele>
        <time>2023-08-08T09:25:59.000Z</time>
      </trkpt>
      <trkpt lat="45.4978" lon="6.23047">
        <ele>868.79998779297</ele>
        <time>2023-08-08T09:26:05.000Z</time>
      </trkpt>
      <trkpt lat="45.49773" lon="6.23044">
        <ele>868.59997558594</ele>
        <time>2023-08-08T09:26:10.000Z</time>
      </trkpt>
      <trkpt lat="45.49769" lon="6.23041">
        <ele>868.40002441406</ele>
        <time>2023-08-08T09:26:13.000Z</time>
      </trkpt>
      <trkpt lat="45.49759" lon="6.23034">
        <ele>867.59997558594</ele>
        <time>2023-08-08T09:26:21.000Z</time>
      </trkpt>
      <trkpt lat="45.49755" lon="6.23033">
        <ele>867.40002441406</ele>
        <time>2023-08-08T09:26:24.000Z</time>
      </trkpt>
      <trkpt lat="45.49752" lon="6.23032">
        <ele>867.20001220703</ele>
        <time>2023-08-08T09:26:28.000Z</time>
      </trkpt>
      <trkpt lat="45.49752" lon="6.23031">
        <ele>867.20001220703</ele>
        <time>2023-08-08T09:26:31.000Z</time>
      </trkpt>
      <trkpt lat="45.49752" lon="6.2303">
        <ele>867.20001220703</ele>
        <time>2023-08-08T09:26:33.000Z</time>
      </trkpt>
      <trkpt lat="45.49753" lon="6.23029">
        <ele>867</ele>
        <time>2023-08-08T09:26:36.000Z</time>
      </trkpt>
      <trkpt lat="45.49752" lon="6.2303">
        <ele>867</ele>
        <time>2023-08-08T09:26:39.000Z</time>
      </trkpt>
      <trkpt lat="45.49749" lon="6.2303">
        <ele>867</ele>
        <time>2023-08-08T09:26:42.000Z</time>
      </trkpt>
      <trkpt lat="45.49736" lon="6.23023">
        <ele>866.79998779297</ele>
        <time>2023-08-08T09:26:50.000Z</time>
      </trkpt>
      <trkpt lat="45.49729" lon="6.2302">
        <ele>866.79998779297</ele>
        <time>2023-08-08T09:26:56.000Z</time>
      </trkpt>
      <trkpt lat="45.49722" lon="6.23013">
        <ele>866.40002441406</ele>
        <time>2023-08-08T09:27:02.000Z</time>
      </trkpt>
      <trkpt lat="45.49719" lon="6.2301">
        <ele>866.40002441406</ele>
        <time>2023-08-08T09:27:04.000Z</time>
      </trkpt>
      <trkpt lat="45.49708" lon="6.23001">
        <ele>865.79998779297</ele>
        <time>2023-08-08T09:27:12.000Z</time>
      </trkpt>
      <trkpt lat="45.497" lon="6.22993">
        <ele>865.59997558594</ele>
        <time>2023-08-08T09:27:19.000Z</time>
      </trkpt>
      <trkpt lat="45.49692" lon="6.22984">
        <ele>865.40002441406</ele>
        <time>2023-08-08T09:27:27.000Z</time>
      </trkpt>
      <trkpt lat="45.49683" lon="6.22977">
        <ele>865.20001220703</ele>
        <time>2023-08-08T09:27:34.000Z</time>
      </trkpt>
      <trkpt lat="45.49672" lon="6.2297">
        <ele>865</ele>
        <time>2023-08-08T09:27:42.000Z</time>
      </trkpt>
      <trkpt lat="45.49662" lon="6.22967">
        <ele>864.79998779297</ele>
        <time>2023-08-08T09:27:50.000Z</time>
      </trkpt>
      <trkpt lat="45.49653" lon="6.22965">
        <ele>864.59997558594</ele>
        <time>2023-08-08T09:27:57.000Z</time>
      </trkpt>
      <trkpt lat="45.4964" lon="6.22964">
        <ele>864.59997558594</ele>
        <time>2023-08-08T09:28:06.000Z</time>
      </trkpt>
      <trkpt lat="45.49625" lon="6.2296">
        <ele>864.59997558594</ele>
        <time>2023-08-08T09:28:15.000Z</time>
      </trkpt>
      <trkpt lat="45.49614" lon="6.22956">
        <ele>864.59997558594</ele>
        <time>2023-08-08T09:28:23.000Z</time>
      </trkpt>
      <trkpt lat="45.49604" lon="6.22956">
        <ele>864.20001220703</ele>
        <time>2023-08-08T09:28:30.000Z</time>
      </trkpt>
      <trkpt lat="45.49602" lon="6.22956">
        <ele>864.20001220703</ele>
        <time>2023-08-08T09:28:31.000Z</time>
      </trkpt>
      <trkpt lat="45.49589" lon="6.22952">
        <ele>864</ele>
        <time>2023-08-08T09:28:40.000Z</time>
      </trkpt>
      <trkpt lat="45.49579" lon="6.22946">
        <ele>863.59997558594</ele>
        <time>2023-08-08T09:28:48.000Z</time>
      </trkpt>
      <trkpt lat="45.49571" lon="6.22941">
        <ele>863.20001220703</ele>
        <time>2023-08-08T09:28:54.000Z</time>
      </trkpt>
      <trkpt lat="45.49566" lon="6.22939">
        <ele>863.20001220703</ele>
        <time>2023-08-08T09:28:57.000Z</time>
      </trkpt>
      <trkpt lat="45.49554" lon="6.22934">
        <ele>863</ele>
        <time>2023-08-08T09:29:06.000Z</time>
      </trkpt>
      <trkpt lat="45.4954" lon="6.22931">
        <ele>863</ele>
        <time>2023-08-08T09:29:14.000Z</time>
      </trkpt>
      <trkpt lat="45.49527" lon="6.22929">
        <ele>862.79998779297</ele>
        <time>2023-08-08T09:29:23.000Z</time>
      </trkpt>
      <trkpt lat="45.49515" lon="6.22925">
        <ele>862.59997558594</ele>
        <time>2023-08-08T09:29:32.000Z</time>
      </trkpt>
      <trkpt lat="45.49503" lon="6.22921">
        <ele>862.59997558594</ele>
        <time>2023-08-08T09:29:41.000Z</time>
      </trkpt>
      <trkpt lat="45.49494" lon="6.22919">
        <ele>862.79998779297</ele>
        <time>2023-08-08T09:29:47.000Z</time>
      </trkpt>
      <trkpt lat="45.49482" lon="6.22916">
        <ele>863</ele>
        <time>2023-08-08T09:29:55.000Z</time>
      </trkpt>
      <trkpt lat="45.49469" lon="6.22914">
        <ele>863</ele>
        <time>2023-08-08T09:30:03.000Z</time>
      </trkpt>
      <trkpt lat="45.49466" lon="6.22914">
        <ele>863</ele>
        <time>2023-08-08T09:30:08.000Z</time>
      </trkpt>
      <trkpt lat="45.49463" lon="6.22915">
        <ele>862.79998779297</ele>
        <time>2023-08-08T09:30:18.000Z</time>
      </trkpt>
      <trkpt lat="45.49463" lon="6.22916">
        <ele>863</ele>
        <time>2023-08-08T09:30:26.000Z</time>
      </trkpt>
      <trkpt lat="45.49454" lon="6.22915">
        <ele>863.20001220703</ele>
        <time>2023-08-08T09:30:32.000Z</time>
      </trkpt>
      <trkpt lat="45.49442" lon="6.22911">
        <ele>863.59997558594</ele>
        <time>2023-08-08T09:30:40.000Z</time>
      </trkpt>
      <trkpt lat="45.49432" lon="6.22908">
        <ele>864</ele>
        <time>2023-08-08T09:30:47.000Z</time>
      </trkpt>
      <trkpt lat="45.49429" lon="6.22906">
        <ele>864.20001220703</ele>
        <time>2023-08-08T09:30:50.000Z</time>
      </trkpt>
      <trkpt lat="45.49423" lon="6.22904">
        <ele>864.79998779297</ele>
        <time>2023-08-08T09:30:54.000Z</time>
      </trkpt>
      <trkpt lat="45.49416" lon="6.22902">
        <ele>865.40002441406</ele>
        <time>2023-08-08T09:30:59.000Z</time>
      </trkpt>
      <trkpt lat="45.49414" lon="6.22902">
        <ele>865.59997558594</ele>
        <time>2023-08-08T09:31:02.000Z</time>
      </trkpt>
      <trkpt lat="45.49403" lon="6.22904">
        <ele>866.40002441406</ele>
        <time>2023-08-08T09:31:10.000Z</time>
      </trkpt>
      <trkpt lat="45.49402" lon="6.22904">
        <ele>866.59997558594</ele>
        <time>2023-08-08T09:31:11.000Z</time>
      </trkpt>
      <trkpt lat="45.49391" lon="6.22904">
        <ele>867.20001220703</ele>
        <time>2023-08-08T09:31:20.000Z</time>
      </trkpt>
      <trkpt lat="45.49389" lon="6.22903">
        <ele>867.40002441406</ele>
        <time>2023-08-08T09:31:21.000Z</time>
      </trkpt>
      <trkpt lat="45.49375" lon="6.22901">
        <ele>868.40002441406</ele>
        <time>2023-08-08T09:31:29.000Z</time>
      </trkpt>
      <trkpt lat="45.49371" lon="6.22901">
        <ele>868.40002441406</ele>
        <time>2023-08-08T09:31:31.000Z</time>
      </trkpt>
      <trkpt lat="45.49361" lon="6.22902">
        <ele>869</ele>
        <time>2023-08-08T09:31:39.000Z</time>
      </trkpt>
      <trkpt lat="45.49351" lon="6.22903">
        <ele>869.20001220703</ele>
        <time>2023-08-08T09:31:46.000Z</time>
      </trkpt>
      <trkpt lat="45.49348" lon="6.22903">
        <ele>869.40002441406</ele>
        <time>2023-08-08T09:31:51.000Z</time>
      </trkpt>
      <trkpt lat="45.49349" lon="6.22904">
        <ele>869.40002441406</ele>
        <time>2023-08-08T09:31:53.000Z</time>
      </trkpt>
      <trkpt lat="45.49347" lon="6.22902">
        <ele>869.40002441406</ele>
        <time>2023-08-08T09:31:56.000Z</time>
      </trkpt>
      <trkpt lat="45.49345" lon="6.22901">
        <ele>869.40002441406</ele>
        <time>2023-08-08T09:31:58.000Z</time>
      </trkpt>
      <trkpt lat="45.49335" lon="6.229">
        <ele>869.40002441406</ele>
        <time>2023-08-08T09:32:06.000Z</time>
      </trkpt>
      <trkpt lat="45.49325" lon="6.22892">
        <ele>869.40002441406</ele>
        <time>2023-08-08T09:32:14.000Z</time>
      </trkpt>
      <trkpt lat="45.49318" lon="6.2288">
        <ele>869.20001220703</ele>
        <time>2023-08-08T09:32:22.000Z</time>
      </trkpt>
      <trkpt lat="45.49307" lon="6.22861">
        <ele>869.20001220703</ele>
        <time>2023-08-08T09:32:33.000Z</time>
      </trkpt>
      <trkpt lat="45.49301" lon="6.22851">
        <ele>869.40002441406</ele>
        <time>2023-08-08T09:32:41.000Z</time>
      </trkpt>
      <trkpt lat="45.49293" lon="6.22839">
        <ele>869.40002441406</ele>
        <time>2023-08-08T09:32:49.000Z</time>
      </trkpt>
      <trkpt lat="45.49286" lon="6.22827">
        <ele>869.40002441406</ele>
        <time>2023-08-08T09:32:57.000Z</time>
      </trkpt>
      <trkpt lat="45.49285" lon="6.22825">
        <ele>869.20001220703</ele>
        <time>2023-08-08T09:33:03.000Z</time>
      </trkpt>
      <trkpt lat="45.49287" lon="6.22825">
        <ele>869.20001220703</ele>
        <time>2023-08-08T09:33:05.000Z</time>
      </trkpt>
      <trkpt lat="45.49287" lon="6.22828">
        <ele>869</ele>
        <time>2023-08-08T09:33:10.000Z</time>
      </trkpt>
      <trkpt lat="45.49287" lon="6.22829">
        <ele>869</ele>
        <time>2023-08-08T09:33:12.000Z</time>
      </trkpt>
      <trkpt lat="45.49288" lon="6.22829">
        <ele>869</ele>
        <time>2023-08-08T09:33:13.000Z</time>
      </trkpt>
      <trkpt lat="45.49289" lon="6.22836">
        <ele>868.59997558594</ele>
        <time>2023-08-08T09:33:20.000Z</time>
      </trkpt>
      <trkpt lat="45.49287" lon="6.2284">
        <ele>867.79998779297</ele>
        <time>2023-08-08T09:33:27.000Z</time>
      </trkpt>
      <trkpt lat="45.49283" lon="6.22837">
        <ele>867.79998779297</ele>
        <time>2023-08-08T09:33:33.000Z</time>
      </trkpt>
      <trkpt lat="45.49283" lon="6.22837">
        <ele>867.79998779297</ele>
        <time>2023-08-08T09:33:34.000Z</time>
      </trkpt>
      <trkpt lat="45.49283" lon="6.22846">
        <ele>867.59997558594</ele>
        <time>2023-08-08T09:33:42.000Z</time>
      </trkpt>
      <trkpt lat="45.49283" lon="6.22847">
        <ele>867.40002441406</ele>
        <time>2023-08-08T09:33:43.000Z</time>
      </trkpt>
      <trkpt lat="45.49286" lon="6.22859">
        <ele>866.59997558594</ele>
        <time>2023-08-08T09:33:50.000Z</time>
      </trkpt>
      <trkpt lat="45.49286" lon="6.22861">
        <ele>866.40002441406</ele>
        <time>2023-08-08T09:33:51.000Z</time>
      </trkpt>
      <trkpt lat="45.49285" lon="6.22872">
        <ele>865.40002441406</ele>
        <time>2023-08-08T09:33:58.000Z</time>
      </trkpt>
      <trkpt lat="45.49286" lon="6.22873">
        <ele>865.20001220703</ele>
        <time>2023-08-08T09:33:59.000Z</time>
      </trkpt>
      <trkpt lat="45.49289" lon="6.22884">
        <ele>864.20001220703</ele>
        <time>2023-08-08T09:34:05.000Z</time>
      </trkpt>
      <trkpt lat="45.49289" lon="6.22886">
        <ele>864</ele>
        <time>2023-08-08T09:34:06.000Z</time>
      </trkpt>
      <trkpt lat="45.49288" lon="6.22892">
        <ele>863</ele>
        <time>2023-08-08T09:34:14.000Z</time>
      </trkpt>
      <trkpt lat="45.49288" lon="6.22892">
        <ele>863</ele>
        <time>2023-08-08T09:34:15.000Z</time>
      </trkpt>
      <trkpt lat="45.49287" lon="6.22895">
        <ele>862.79998779297</ele>
        <time>2023-08-08T09:34:23.000Z</time>
      </trkpt>
      <trkpt lat="45.49287" lon="6.22893">
        <ele>862.59997558594</ele>
        <time>2023-08-08T09:34:32.000Z</time>
      </trkpt>
      <trkpt lat="45.49286" lon="6.22892">
        <ele>862.40002441406</ele>
        <time>2023-08-08T09:34:42.000Z</time>
      </trkpt>
      <trkpt lat="45.49285" lon="6.22898">
        <ele>862.59997558594</ele>
        <time>2023-08-08T09:34:50.000Z</time>
      </trkpt>
      <trkpt lat="45.49279" lon="6.22898">
        <ele>862.59997558594</ele>
        <time>2023-08-08T09:34:57.000Z</time>
      </trkpt>
      <trkpt lat="45.49279" lon="6.22893">
        <ele>862.59997558594</ele>
        <time>2023-08-08T09:35:06.000Z</time>
      </trkpt>
      <trkpt lat="45.49276" lon="6.22881">
        <ele>862</ele>
        <time>2023-08-08T09:35:14.000Z</time>
      </trkpt>
      <trkpt lat="45.49273" lon="6.22874">
        <ele>860.79998779297</ele>
        <time>2023-08-08T09:35:19.000Z</time>
      </trkpt>
      <trkpt lat="45.49272" lon="6.2287">
        <ele>860.59997558594</ele>
        <time>2023-08-08T09:35:21.000Z</time>
      </trkpt>
      <trkpt lat="45.49268" lon="6.22863">
        <ele>859.79998779297</ele>
        <time>2023-08-08T09:35:26.000Z</time>
      </trkpt>
      <trkpt lat="45.49267" lon="6.22861">
        <ele>859.40002441406</ele>
        <time>2023-08-08T09:35:28.000Z</time>
      </trkpt>
      <trkpt lat="45.49265" lon="6.22856">
        <ele>858.79998779297</ele>
        <time>2023-08-08T09:35:32.000Z</time>
      </trkpt>
      <trkpt lat="45.49264" lon="6.22852">
        <ele>858</ele>
        <time>2023-08-08T09:35:36.000Z</time>
      </trkpt>
      <trkpt lat="45.49264" lon="6.2285">
        <ele>858</ele>
        <time>2023-08-08T09:35:39.000Z</time>
      </trkpt>
      <trkpt lat="45.49262" lon="6.22851">
        <ele>858</ele>
        <time>2023-08-08T09:35:43.000Z</time>
      </trkpt>
      <trkpt lat="45.49261" lon="6.22851">
        <ele>858</ele>
        <time>2023-08-08T09:35:44.000Z</time>
      </trkpt>
      <trkpt lat="45.49257" lon="6.22855">
        <ele>857.79998779297</ele>
        <time>2023-08-08T09:35:51.000Z</time>
      </trkpt>
      <trkpt lat="45.49254" lon="6.22861">
        <ele>858</ele>
        <time>2023-08-08T09:36:01.000Z</time>
      </trkpt>
      <trkpt lat="45.49255" lon="6.22857">
        <ele>858.20001220703</ele>
        <time>2023-08-08T09:36:10.000Z</time>
      </trkpt>
      <trkpt lat="45.49257" lon="6.22856">
        <ele>858.20001220703</ele>
        <time>2023-08-08T09:36:16.000Z</time>
      </trkpt>
      <trkpt lat="45.49263" lon="6.22851">
        <ele>858.40002441406</ele>
        <time>2023-08-08T09:36:24.000Z</time>
      </trkpt>
      <trkpt lat="45.49264" lon="6.22853">
        <ele>858.40002441406</ele>
        <time>2023-08-08T09:36:29.000Z</time>
      </trkpt>
      <trkpt lat="45.49263" lon="6.22855">
        <ele>858.40002441406</ele>
        <time>2023-08-08T09:36:37.000Z</time>
      </trkpt>
      <trkpt lat="45.49261" lon="6.22853">
        <ele>858.59997558594</ele>
        <time>2023-08-08T09:36:41.000Z</time>
      </trkpt>
      <trkpt lat="45.49259" lon="6.22853">
        <ele>859</ele>
        <time>2023-08-08T09:36:43.000Z</time>
      </trkpt>
      <trkpt lat="45.49256" lon="6.22851">
        <ele>859.20001220703</ele>
        <time>2023-08-08T09:36:50.000Z</time>
      </trkpt>
      <trkpt lat="45.49256" lon="6.22852">
        <ele>859.20001220703</ele>
        <time>2023-08-08T09:37:02.000Z</time>
      </trkpt>
      <trkpt lat="45.49255" lon="6.22851">
        <ele>859.20001220703</ele>
        <time>2023-08-08T09:37:10.000Z</time>
      </trkpt>
      <trkpt lat="45.49255" lon="6.22853">
        <ele>859.40002441406</ele>
        <time>2023-08-08T09:37:17.000Z</time>
      </trkpt>
      <trkpt lat="45.49251" lon="6.22858">
        <ele>859.59997558594</ele>
        <time>2023-08-08T09:37:28.000Z</time>
      </trkpt>
      <trkpt lat="45.49254" lon="6.22858">
        <ele>859.79998779297</ele>
        <time>2023-08-08T09:37:40.000Z</time>
      </trkpt>
      <trkpt lat="45.49254" lon="6.22858">
        <ele>859.79998779297</ele>
        <time>2023-08-08T09:37:43.000Z</time>
      </trkpt>
      <trkpt lat="45.49251" lon="6.22847">
        <ele>859.59997558594</ele>
        <time>2023-08-08T09:37:50.000Z</time>
      </trkpt>
      <trkpt lat="45.49249" lon="6.22836">
        <ele>859</ele>
        <time>2023-08-08T09:37:56.000Z</time>
      </trkpt>
      <trkpt lat="45.49248" lon="6.22832">
        <ele>858.79998779297</ele>
        <time>2023-08-08T09:37:59.000Z</time>
      </trkpt>
      <trkpt lat="45.49243" lon="6.22826">
        <ele>857.79998779297</ele>
        <time>2023-08-08T09:38:05.000Z</time>
      </trkpt>
      <trkpt lat="45.49241" lon="6.22823">
        <ele>857.59997558594</ele>
        <time>2023-08-08T09:38:07.000Z</time>
      </trkpt>
      <trkpt lat="45.49236" lon="6.22817">
        <ele>857.20001220703</ele>
        <time>2023-08-08T09:38:12.000Z</time>
      </trkpt>
      <trkpt lat="45.49232" lon="6.22812">
        <ele>856.59997558594</ele>
        <time>2023-08-08T09:38:15.000Z</time>
      </trkpt>
      <trkpt lat="45.49227" lon="6.22805">
        <ele>856</ele>
        <time>2023-08-08T09:38:20.000Z</time>
      </trkpt>
      <trkpt lat="45.49219" lon="6.22799">
        <ele>856.59997558594</ele>
        <time>2023-08-08T09:38:29.000Z</time>
      </trkpt>
      <trkpt lat="45.49214" lon="6.22793">
        <ele>856.79998779297</ele>
        <time>2023-08-08T09:38:35.000Z</time>
      </trkpt>
      <trkpt lat="45.49212" lon="6.22789">
        <ele>857.59997558594</ele>
        <time>2023-08-08T09:38:41.000Z</time>
      </trkpt>
      <trkpt lat="45.49209" lon="6.22787">
        <ele>858.59997558594</ele>
        <time>2023-08-08T09:38:45.000Z</time>
      </trkpt>
      <trkpt lat="45.49208" lon="6.22787">
        <ele>859.20001220703</ele>
        <time>2023-08-08T09:38:47.000Z</time>
      </trkpt>
      <trkpt lat="45.49207" lon="6.22787">
        <ele>859.79998779297</ele>
        <time>2023-08-08T09:38:50.000Z</time>
      </trkpt>
      <trkpt lat="45.49204" lon="6.22787">
        <ele>861</ele>
        <time>2023-08-08T09:38:54.000Z</time>
      </trkpt>
      <trkpt lat="45.49201" lon="6.22786">
        <ele>861.40002441406</ele>
        <time>2023-08-08T09:38:57.000Z</time>
      </trkpt>
      <trkpt lat="45.49195" lon="6.22781">
        <ele>862.20001220703</ele>
        <time>2023-08-08T09:39:01.000Z</time>
      </trkpt>
      <trkpt lat="45.49192" lon="6.2278">
        <ele>863</ele>
        <time>2023-08-08T09:39:05.000Z</time>
      </trkpt>
      <trkpt lat="45.4919" lon="6.22779">
        <ele>863.20001220703</ele>
        <time>2023-08-08T09:39:07.000Z</time>
      </trkpt>
      <trkpt lat="45.49186" lon="6.22778">
        <ele>864.20001220703</ele>
        <time>2023-08-08T09:39:13.000Z</time>
      </trkpt>
      <trkpt lat="45.49185" lon="6.22778">
        <ele>864.40002441406</ele>
        <time>2023-08-08T09:39:14.000Z</time>
      </trkpt>
      <trkpt lat="45.49182" lon="6.22776">
        <ele>865.40002441406</ele>
        <time>2023-08-08T09:39:20.000Z</time>
      </trkpt>
      <trkpt lat="45.49177" lon="6.22774">
        <ele>866.40002441406</ele>
        <time>2023-08-08T09:39:27.000Z</time>
      </trkpt>
      <trkpt lat="45.49173" lon="6.22773">
        <ele>867</ele>
        <time>2023-08-08T09:39:30.000Z</time>
      </trkpt>
      <trkpt lat="45.49173" lon="6.22771">
        <ele>867.40002441406</ele>
        <time>2023-08-08T09:39:33.000Z</time>
      </trkpt>
      <trkpt lat="45.49169" lon="6.22767">
        <ele>868.40002441406</ele>
        <time>2023-08-08T09:39:38.000Z</time>
      </trkpt>
      <trkpt lat="45.49169" lon="6.22767">
        <ele>868.40002441406</ele>
        <time>2023-08-08T09:39:39.000Z</time>
      </trkpt>
      <trkpt lat="45.49166" lon="6.22758">
        <ele>869</ele>
        <time>2023-08-08T09:39:47.000Z</time>
      </trkpt>
      <trkpt lat="45.49163" lon="6.22749">
        <ele>869.59997558594</ele>
        <time>2023-08-08T09:39:55.000Z</time>
      </trkpt>
      <trkpt lat="45.49156" lon="6.22739">
        <ele>870.59997558594</ele>
        <time>2023-08-08T09:40:03.000Z</time>
      </trkpt>
      <trkpt lat="45.49155" lon="6.22739">
        <ele>870.59997558594</ele>
        <time>2023-08-08T09:40:04.000Z</time>
      </trkpt>
      <trkpt lat="45.49152" lon="6.22736">
        <ele>871.59997558594</ele>
        <time>2023-08-08T09:40:10.000Z</time>
      </trkpt>
      <trkpt lat="45.49151" lon="6.22736">
        <ele>872</ele>
        <time>2023-08-08T09:40:12.000Z</time>
      </trkpt>
      <trkpt lat="45.49141" lon="6.2273">
        <ele>872.79998779297</ele>
        <time>2023-08-08T09:40:17.000Z</time>
      </trkpt>
      <trkpt lat="45.4914" lon="6.2273">
        <ele>873</ele>
        <time>2023-08-08T09:40:19.000Z</time>
      </trkpt>
      <trkpt lat="45.49136" lon="6.22729">
        <ele>874</ele>
        <time>2023-08-08T09:40:23.000Z</time>
      </trkpt>
      <trkpt lat="45.49132" lon="6.22724">
        <ele>874.79998779297</ele>
        <time>2023-08-08T09:40:29.000Z</time>
      </trkpt>
      <trkpt lat="45.49131" lon="6.22723">
        <ele>875</ele>
        <time>2023-08-08T09:40:30.000Z</time>
      </trkpt>
      <trkpt lat="45.49125" lon="6.22716">
        <ele>875.40002441406</ele>
        <time>2023-08-08T09:40:36.000Z</time>
      </trkpt>
      <trkpt lat="45.49117" lon="6.22707">
        <ele>874.79998779297</ele>
        <time>2023-08-08T09:40:44.000Z</time>
      </trkpt>
      <trkpt lat="45.49112" lon="6.22698">
        <ele>874.40002441406</ele>
        <time>2023-08-08T09:40:52.000Z</time>
      </trkpt>
      <trkpt lat="45.49108" lon="6.22691">
        <ele>874.20001220703</ele>
        <time>2023-08-08T09:40:59.000Z</time>
      </trkpt>
      <trkpt lat="45.49105" lon="6.2269">
        <ele>874.20001220703</ele>
        <time>2023-08-08T09:41:02.000Z</time>
      </trkpt>
      <trkpt lat="45.49104" lon="6.22688">
        <ele>874.20001220703</ele>
        <time>2023-08-08T09:41:05.000Z</time>
      </trkpt>
      <trkpt lat="45.49099" lon="6.22682">
        <ele>874.20001220703</ele>
        <time>2023-08-08T09:41:13.000Z</time>
      </trkpt>
      <trkpt lat="45.49093" lon="6.22677">
        <ele>875</ele>
        <time>2023-08-08T09:41:22.000Z</time>
      </trkpt>
      <trkpt lat="45.49083" lon="6.22666">
        <ele>875</ele>
        <time>2023-08-08T09:41:31.000Z</time>
      </trkpt>
      <trkpt lat="45.49083" lon="6.22664">
        <ele>879</ele>
        <time>2023-08-08T09:48:57.000Z</time>
      </trkpt>
      <trkpt lat="45.49061" lon="6.22628">
        <ele>879.40002441406</ele>
        <time>2023-08-08T09:49:34.000Z</time>
      </trkpt>
      <trkpt lat="45.49059" lon="6.22628">
        <ele>880.40002441406</ele>
        <time>2023-08-08T09:49:38.000Z</time>
      </trkpt>
      <trkpt lat="45.49057" lon="6.22627">
        <ele>880.59997558594</ele>
        <time>2023-08-08T09:49:40.000Z</time>
      </trkpt>
      <trkpt lat="45.49056" lon="6.22627">
        <ele>881</ele>
        <time>2023-08-08T09:49:41.000Z</time>
      </trkpt>
      <trkpt lat="45.49056" lon="6.22627">
        <ele>881.40002441406</ele>
        <time>2023-08-08T09:49:43.000Z</time>
      </trkpt>
      <trkpt lat="45.49054" lon="6.22626">
        <ele>881.79998779297</ele>
        <time>2023-08-08T09:49:45.000Z</time>
      </trkpt>
      <trkpt lat="45.49055" lon="6.22627">
        <ele>882</ele>
        <time>2023-08-08T09:49:46.000Z</time>
      </trkpt>
      <trkpt lat="45.49054" lon="6.22628">
        <ele>883</ele>
        <time>2023-08-08T09:49:50.000Z</time>
      </trkpt>
      <trkpt lat="45.49053" lon="6.2263">
        <ele>883.40002441406</ele>
        <time>2023-08-08T09:49:52.000Z</time>
      </trkpt>
      <trkpt lat="45.49049" lon="6.22639">
        <ele>884</ele>
        <time>2023-08-08T09:49:58.000Z</time>
      </trkpt>
      <trkpt lat="45.49049" lon="6.22641">
        <ele>884</ele>
        <time>2023-08-08T09:49:59.000Z</time>
      </trkpt>
      <trkpt lat="45.49044" lon="6.22647">
        <ele>885.20001220703</ele>
        <time>2023-08-08T09:50:05.000Z</time>
      </trkpt>
      <trkpt lat="45.49044" lon="6.22647">
        <ele>885.40002441406</ele>
        <time>2023-08-08T09:50:06.000Z</time>
      </trkpt>
      <trkpt lat="45.49035" lon="6.22646">
        <ele>886.40002441406</ele>
        <time>2023-08-08T09:50:11.000Z</time>
      </trkpt>
      <trkpt lat="45.49033" lon="6.22644">
        <ele>886.79998779297</ele>
        <time>2023-08-08T09:50:13.000Z</time>
      </trkpt>
      <trkpt lat="45.49026" lon="6.22641">
        <ele>887.40002441406</ele>
        <time>2023-08-08T09:50:18.000Z</time>
      </trkpt>
      <trkpt lat="45.49023" lon="6.22637">
        <ele>887.59997558594</ele>
        <time>2023-08-08T09:50:21.000Z</time>
      </trkpt>
      <trkpt lat="45.49013" lon="6.2263">
        <ele>888.20001220703</ele>
        <time>2023-08-08T09:50:32.000Z</time>
      </trkpt>
      <trkpt lat="45.49011" lon="6.22629">
        <ele>888.40002441406</ele>
        <time>2023-08-08T09:50:35.000Z</time>
      </trkpt>
      <trkpt lat="45.49007" lon="6.22625">
        <ele>888.20001220703</ele>
        <time>2023-08-08T09:50:41.000Z</time>
      </trkpt>
      <trkpt lat="45.49001" lon="6.22619">
        <ele>888.20001220703</ele>
        <time>2023-08-08T09:50:50.000Z</time>
      </trkpt>
      <trkpt lat="45.48985" lon="6.22609">
        <ele>888.59997558594</ele>
        <time>2023-08-08T09:51:05.000Z</time>
      </trkpt>
      <trkpt lat="45.48978" lon="6.22601">
        <ele>889.20001220703</ele>
        <time>2023-08-08T09:51:14.000Z</time>
      </trkpt>
      <trkpt lat="45.48973" lon="6.22596">
        <ele>889.59997558594</ele>
        <time>2023-08-08T09:51:17.000Z</time>
      </trkpt>
      <trkpt lat="45.48969" lon="6.22593">
        <ele>889.79998779297</ele>
        <time>2023-08-08T09:51:21.000Z</time>
      </trkpt>
      <trkpt lat="45.48963" lon="6.22584">
        <ele>890.20001220703</ele>
        <time>2023-08-08T09:51:30.000Z</time>
      </trkpt>
      <trkpt lat="45.48958" lon="6.2257">
        <ele>889</ele>
        <time>2023-08-08T09:51:39.000Z</time>
      </trkpt>
      <trkpt lat="45.48955" lon="6.22562">
        <ele>888.40002441406</ele>
        <time>2023-08-08T09:51:44.000Z</time>
      </trkpt>
      <trkpt lat="45.48953" lon="6.22557">
        <ele>888.20001220703</ele>
        <time>2023-08-08T09:51:48.000Z</time>
      </trkpt>
      <trkpt lat="45.48948" lon="6.22545">
        <ele>887.59997558594</ele>
        <time>2023-08-08T09:51:57.000Z</time>
      </trkpt>
      <trkpt lat="45.48945" lon="6.22533">
        <ele>888.59997558594</ele>
        <time>2023-08-08T09:52:05.000Z</time>
      </trkpt>
      <trkpt lat="45.48939" lon="6.22517">
        <ele>888.59997558594</ele>
        <time>2023-08-08T09:52:15.000Z</time>
      </trkpt>
      <trkpt lat="45.48936" lon="6.225">
        <ele>888.59997558594</ele>
        <time>2023-08-08T09:52:22.000Z</time>
      </trkpt>
      <trkpt lat="45.48938" lon="6.22491">
        <ele>887.40002441406</ele>
        <time>2023-08-08T09:52:28.000Z</time>
      </trkpt>
      <trkpt lat="45.48939" lon="6.22491">
        <ele>887.20001220703</ele>
        <time>2023-08-08T09:52:30.000Z</time>
      </trkpt>
      <trkpt lat="45.48943" lon="6.22487">
        <ele>886.20001220703</ele>
        <time>2023-08-08T09:52:34.000Z</time>
      </trkpt>
      <trkpt lat="45.48947" lon="6.22482">
        <ele>885</ele>
        <time>2023-08-08T09:52:39.000Z</time>
      </trkpt>
      <trkpt lat="45.48952" lon="6.22475">
        <ele>884</ele>
        <time>2023-08-08T09:52:45.000Z</time>
      </trkpt>
      <trkpt lat="45.48953" lon="6.22474">
        <ele>883.59997558594</ele>
        <time>2023-08-08T09:52:47.000Z</time>
      </trkpt>
      <trkpt lat="45.48955" lon="6.22472">
        <ele>883</ele>
        <time>2023-08-08T09:52:49.000Z</time>
      </trkpt>
      <trkpt lat="45.48957" lon="6.2247">
        <ele>882</ele>
        <time>2023-08-08T09:52:53.000Z</time>
      </trkpt>
      <trkpt lat="45.48957" lon="6.22468">
        <ele>881.59997558594</ele>
        <time>2023-08-08T09:52:55.000Z</time>
      </trkpt>
      <trkpt lat="45.48954" lon="6.22461">
        <ele>881.20001220703</ele>
        <time>2023-08-08T09:53:03.000Z</time>
      </trkpt>
      <trkpt lat="45.48953" lon="6.22462">
        <ele>881.59997558594</ele>
        <time>2023-08-08T09:53:05.000Z</time>
      </trkpt>
      <trkpt lat="45.48951" lon="6.22455">
        <ele>881.79998779297</ele>
        <time>2023-08-08T09:53:09.000Z</time>
      </trkpt>
      <trkpt lat="45.48947" lon="6.22446">
        <ele>881.79998779297</ele>
        <time>2023-08-08T09:53:17.000Z</time>
      </trkpt>
      <trkpt lat="45.48942" lon="6.22437">
        <ele>880.79998779297</ele>
        <time>2023-08-08T09:53:24.000Z</time>
      </trkpt>
      <trkpt lat="45.48941" lon="6.22435">
        <ele>880.79998779297</ele>
        <time>2023-08-08T09:53:25.000Z</time>
      </trkpt>
      <trkpt lat="45.48934" lon="6.22422">
        <ele>879.59997558594</ele>
        <time>2023-08-08T09:53:32.000Z</time>
      </trkpt>
      <trkpt lat="45.48932" lon="6.22418">
        <ele>879.20001220703</ele>
        <time>2023-08-08T09:53:35.000Z</time>
      </trkpt>
      <trkpt lat="45.4893" lon="6.22414">
        <ele>878.59997558594</ele>
        <time>2023-08-08T09:53:38.000Z</time>
      </trkpt>
      <trkpt lat="45.48926" lon="6.22409">
        <ele>878.59997558594</ele>
        <time>2023-08-08T09:53:44.000Z</time>
      </trkpt>
      <trkpt lat="45.48922" lon="6.22406">
        <ele>879.79998779297</ele>
        <time>2023-08-08T09:53:51.000Z</time>
      </trkpt>
      <trkpt lat="45.4892" lon="6.22404">
        <ele>880</ele>
        <time>2023-08-08T09:53:53.000Z</time>
      </trkpt>
      <trkpt lat="45.48916" lon="6.224">
        <ele>880.79998779297</ele>
        <time>2023-08-08T09:53:57.000Z</time>
      </trkpt>
      <trkpt lat="45.48914" lon="6.22396">
        <ele>881.40002441406</ele>
        <time>2023-08-08T09:54:01.000Z</time>
      </trkpt>
      <trkpt lat="45.48908" lon="6.22386">
        <ele>881.20001220703</ele>
        <time>2023-08-08T09:54:09.000Z</time>
      </trkpt>
      <trkpt lat="45.48901" lon="6.2238">
        <ele>880.79998779297</ele>
        <time>2023-08-08T09:54:16.000Z</time>
      </trkpt>
      <trkpt lat="45.48891" lon="6.2237">
        <ele>880</ele>
        <time>2023-08-08T09:54:26.000Z</time>
      </trkpt>
      <trkpt lat="45.48889" lon="6.22366">
        <ele>879.79998779297</ele>
        <time>2023-08-08T09:54:29.000Z</time>
      </trkpt>
      <trkpt lat="45.48884" lon="6.2236">
        <ele>879.40002441406</ele>
        <time>2023-08-08T09:54:34.000Z</time>
      </trkpt>
      <trkpt lat="45.4888" lon="6.22356">
        <ele>878.79998779297</ele>
        <time>2023-08-08T09:54:41.000Z</time>
      </trkpt>
      <trkpt lat="45.48876" lon="6.2235">
        <ele>878.79998779297</ele>
        <time>2023-08-08T09:54:47.000Z</time>
      </trkpt>
      <trkpt lat="45.48875" lon="6.22349">
        <ele>878.40002441406</ele>
        <time>2023-08-08T09:54:48.000Z</time>
      </trkpt>
      <trkpt lat="45.48871" lon="6.22344">
        <ele>877.59997558594</ele>
        <time>2023-08-08T09:54:53.000Z</time>
      </trkpt>
      <trkpt lat="45.4887" lon="6.2234">
        <ele>877.40002441406</ele>
        <time>2023-08-08T09:54:56.000Z</time>
      </trkpt>
      <trkpt lat="45.4887" lon="6.22338">
        <ele>877.40002441406</ele>
        <time>2023-08-08T09:54:57.000Z</time>
      </trkpt>
      <trkpt lat="45.48869" lon="6.22335">
        <ele>877.20001220703</ele>
        <time>2023-08-08T09:55:03.000Z</time>
      </trkpt>
      <trkpt lat="45.48868" lon="6.22338">
        <ele>877.40002441406</ele>
        <time>2023-08-08T09:55:09.000Z</time>
      </trkpt>
      <trkpt lat="45.48865" lon="6.22339">
        <ele>877.40002441406</ele>
        <time>2023-08-08T09:55:22.000Z</time>
      </trkpt>
      <trkpt lat="45.48865" lon="6.22335">
        <ele>877.20001220703</ele>
        <time>2023-08-08T09:55:29.000Z</time>
      </trkpt>
      <trkpt lat="45.48863" lon="6.22335">
        <ele>877</ele>
        <time>2023-08-08T09:55:38.000Z</time>
      </trkpt>
      <trkpt lat="45.48852" lon="6.22333">
        <ele>876.79998779297</ele>
        <time>2023-08-08T09:55:53.000Z</time>
      </trkpt>
      <trkpt lat="45.48847" lon="6.22326">
        <ele>877</ele>
        <time>2023-08-08T09:56:01.000Z</time>
      </trkpt>
      <trkpt lat="45.48843" lon="6.22316">
        <ele>877.59997558594</ele>
        <time>2023-08-08T09:56:11.000Z</time>
      </trkpt>
      <trkpt lat="45.48839" lon="6.22308">
        <ele>877.59997558594</ele>
        <time>2023-08-08T09:56:18.000Z</time>
      </trkpt>
      <trkpt lat="45.48831" lon="6.22303">
        <ele>877.59997558594</ele>
        <time>2023-08-08T09:56:27.000Z</time>
      </trkpt>
      <trkpt lat="45.48825" lon="6.22309">
        <ele>878</ele>
        <time>2023-08-08T09:56:35.000Z</time>
      </trkpt>
      <trkpt lat="45.48823" lon="6.22309">
        <ele>878.40002441406</ele>
        <time>2023-08-08T09:56:38.000Z</time>
      </trkpt>
      <trkpt lat="45.48808" lon="6.22308">
        <ele>877.79998779297</ele>
        <time>2023-08-08T09:57:06.000Z</time>
      </trkpt>
      <trkpt lat="45.48808" lon="6.22307">
        <ele>877.40002441406</ele>
        <time>2023-08-08T09:57:07.000Z</time>
      </trkpt>
      <trkpt lat="45.48807" lon="6.22305">
        <ele>876.79998779297</ele>
        <time>2023-08-08T09:57:11.000Z</time>
      </trkpt>
      <trkpt lat="45.48807" lon="6.22304">
        <ele>876.59997558594</ele>
        <time>2023-08-08T09:57:12.000Z</time>
      </trkpt>
      <trkpt lat="45.48805" lon="6.22302">
        <ele>876</ele>
        <time>2023-08-08T09:57:17.000Z</time>
      </trkpt>
      <trkpt lat="45.48803" lon="6.22302">
        <ele>875.40002441406</ele>
        <time>2023-08-08T09:57:21.000Z</time>
      </trkpt>
      <trkpt lat="45.48801" lon="6.223">
        <ele>874.40002441406</ele>
        <time>2023-08-08T09:57:26.000Z</time>
      </trkpt>
      <trkpt lat="45.48801" lon="6.22296">
        <ele>873.20001220703</ele>
        <time>2023-08-08T09:57:30.000Z</time>
      </trkpt>
      <trkpt lat="45.48801" lon="6.22294">
        <ele>873.20001220703</ele>
        <time>2023-08-08T09:57:31.000Z</time>
      </trkpt>
      <trkpt lat="45.48802" lon="6.22289">
        <ele>872.20001220703</ele>
        <time>2023-08-08T09:57:35.000Z</time>
      </trkpt>
      <trkpt lat="45.48803" lon="6.22285">
        <ele>871.59997558594</ele>
        <time>2023-08-08T09:57:38.000Z</time>
      </trkpt>
      <trkpt lat="45.48793" lon="6.22251">
        <ele>870.20001220703</ele>
        <time>2023-08-08T09:58:14.000Z</time>
      </trkpt>
      <trkpt lat="45.48801" lon="6.22245">
        <ele>870</ele>
        <time>2023-08-08T09:58:30.000Z</time>
      </trkpt>
      <trkpt lat="45.48801" lon="6.22246">
        <ele>870</ele>
        <time>2023-08-08T09:58:32.000Z</time>
      </trkpt>
      <trkpt lat="45.488" lon="6.22248">
        <ele>869.20001220703</ele>
        <time>2023-08-08T09:58:47.000Z</time>
      </trkpt>
      <trkpt lat="45.4881" lon="6.22245">
        <ele>869.40002441406</ele>
        <time>2023-08-08T09:59:00.000Z</time>
      </trkpt>
      <trkpt lat="45.48809" lon="6.22244">
        <ele>869</ele>
        <time>2023-08-08T09:59:09.000Z</time>
      </trkpt>
      <trkpt lat="45.48805" lon="6.22245">
        <ele>869.40002441406</ele>
        <time>2023-08-08T09:59:15.000Z</time>
      </trkpt>
      <trkpt lat="45.48805" lon="6.22254">
        <ele>869.59997558594</ele>
        <time>2023-08-08T09:59:22.000Z</time>
      </trkpt>
      <trkpt lat="45.48794" lon="6.22242">
        <ele>869.59997558594</ele>
        <time>2023-08-08T09:59:44.000Z</time>
      </trkpt>
      <trkpt lat="45.48796" lon="6.22246">
        <ele>869.40002441406</ele>
        <time>2023-08-08T09:59:50.000Z</time>
      </trkpt>
      <trkpt lat="45.48798" lon="6.22254">
        <ele>869.59997558594</ele>
        <time>2023-08-08T09:59:57.000Z</time>
      </trkpt>
      <trkpt lat="45.48796" lon="6.22251">
        <ele>869.40002441406</ele>
        <time>2023-08-08T10:00:03.000Z</time>
      </trkpt>
      <trkpt lat="45.48795" lon="6.22249">
        <ele>869.59997558594</ele>
        <time>2023-08-08T10:00:09.000Z</time>
      </trkpt>
      <trkpt lat="45.48792" lon="6.22245">
        <ele>870.40002441406</ele>
        <time>2023-08-08T10:00:16.000Z</time>
      </trkpt>
      <trkpt lat="45.48792" lon="6.22246">
        <ele>870.59997558594</ele>
        <time>2023-08-08T10:00:17.000Z</time>
      </trkpt>
      <trkpt lat="45.48791" lon="6.22244">
        <ele>871</ele>
        <time>2023-08-08T10:00:19.000Z</time>
      </trkpt>
      <trkpt lat="45.48791" lon="6.22243">
        <ele>871.20001220703</ele>
        <time>2023-08-08T10:00:20.000Z</time>
      </trkpt>
      <trkpt lat="45.48788" lon="6.22239">
        <ele>872</ele>
        <time>2023-08-08T10:00:23.000Z</time>
      </trkpt>
      <trkpt lat="45.48787" lon="6.22237">
        <ele>872.40002441406</ele>
        <time>2023-08-08T10:00:25.000Z</time>
      </trkpt>
      <trkpt lat="45.48785" lon="6.22232">
        <ele>873.59997558594</ele>
        <time>2023-08-08T10:00:31.000Z</time>
      </trkpt>
      <trkpt lat="45.48784" lon="6.22232">
        <ele>873.79998779297</ele>
        <time>2023-08-08T10:00:32.000Z</time>
      </trkpt>
      <trkpt lat="45.48784" lon="6.22229">
        <ele>874.59997558594</ele>
        <time>2023-08-08T10:00:37.000Z</time>
      </trkpt>
      <trkpt lat="45.48783" lon="6.22223">
        <ele>875</ele>
        <time>2023-08-08T10:00:40.000Z</time>
      </trkpt>
      <trkpt lat="45.48782" lon="6.22215">
        <ele>875</ele>
        <time>2023-08-08T10:00:47.000Z</time>
      </trkpt>
      <trkpt lat="45.48778" lon="6.22216">
        <ele>875.59997558594</ele>
        <time>2023-08-08T10:00:55.000Z</time>
      </trkpt>
      <trkpt lat="45.48778" lon="6.22216">
        <ele>875.59997558594</ele>
        <time>2023-08-08T10:00:56.000Z</time>
      </trkpt>
      <trkpt lat="45.48773" lon="6.2221">
        <ele>875.79998779297</ele>
        <time>2023-08-08T10:01:03.000Z</time>
      </trkpt>
      <trkpt lat="45.48765" lon="6.22209">
        <ele>876.79998779297</ele>
        <time>2023-08-08T10:01:12.000Z</time>
      </trkpt>
      <trkpt lat="45.48763" lon="6.22209">
        <ele>876.79998779297</ele>
        <time>2023-08-08T10:01:13.000Z</time>
      </trkpt>
      <trkpt lat="45.4876" lon="6.22207">
        <ele>878</ele>
        <time>2023-08-08T10:01:18.000Z</time>
      </trkpt>
      <trkpt lat="45.48757" lon="6.22208">
        <ele>878.79998779297</ele>
        <time>2023-08-08T10:01:22.000Z</time>
      </trkpt>
      <trkpt lat="45.48747" lon="6.22206">
        <ele>881.20001220703</ele>
        <time>2023-08-08T10:01:36.000Z</time>
      </trkpt>
      <trkpt lat="45.48749" lon="6.22205">
        <ele>882.40002441406</ele>
        <time>2023-08-08T10:01:42.000Z</time>
      </trkpt>
      <trkpt lat="45.48756" lon="6.22206">
        <ele>882.79998779297</ele>
        <time>2023-08-08T10:01:52.000Z</time>
      </trkpt>
      <trkpt lat="45.48757" lon="6.22207">
        <ele>883.40002441406</ele>
        <time>2023-08-08T10:01:55.000Z</time>
      </trkpt>
      <trkpt lat="45.48757" lon="6.22209">
        <ele>884.59997558594</ele>
        <time>2023-08-08T10:02:01.000Z</time>
      </trkpt>
      <trkpt lat="45.48756" lon="6.22209">
        <ele>885.20001220703</ele>
        <time>2023-08-08T10:02:03.000Z</time>
      </trkpt>
      <trkpt lat="45.48753" lon="6.22209">
        <ele>885.79998779297</ele>
        <time>2023-08-08T10:02:07.000Z</time>
      </trkpt>
      <trkpt lat="45.48742" lon="6.22204">
        <ele>887.20001220703</ele>
        <time>2023-08-08T10:02:16.000Z</time>
      </trkpt>
      <trkpt lat="45.48739" lon="6.22198">
        <ele>887.79998779297</ele>
        <time>2023-08-08T10:02:21.000Z</time>
      </trkpt>
      <trkpt lat="45.48736" lon="6.22193">
        <ele>888.59997558594</ele>
        <time>2023-08-08T10:02:25.000Z</time>
      </trkpt>
      <trkpt lat="45.48734" lon="6.22188">
        <ele>889</ele>
        <time>2023-08-08T10:02:28.000Z</time>
      </trkpt>
      <trkpt lat="45.48733" lon="6.22185">
        <ele>889.59997558594</ele>
        <time>2023-08-08T10:02:32.000Z</time>
      </trkpt>
      <trkpt lat="45.4873" lon="6.22186">
        <ele>890</ele>
        <time>2023-08-08T10:02:40.000Z</time>
      </trkpt>
      <trkpt lat="45.48723" lon="6.22176">
        <ele>889.59997558594</ele>
        <time>2023-08-08T10:02:49.000Z</time>
      </trkpt>
      <trkpt lat="45.48724" lon="6.22168">
        <ele>889.40002441406</ele>
        <time>2023-08-08T10:02:57.000Z</time>
      </trkpt>
      <trkpt lat="45.48728" lon="6.22168">
        <ele>889.40002441406</ele>
        <time>2023-08-08T10:03:12.000Z</time>
      </trkpt>
      <trkpt lat="45.48726" lon="6.22161">
        <ele>889.20001220703</ele>
        <time>2023-08-08T10:03:21.000Z</time>
      </trkpt>
      <trkpt lat="45.48721" lon="6.22148">
        <ele>889.79998779297</ele>
        <time>2023-08-08T10:03:29.000Z</time>
      </trkpt>
      <trkpt lat="45.48714" lon="6.22139">
        <ele>890.20001220703</ele>
        <time>2023-08-08T10:03:36.000Z</time>
      </trkpt>
      <trkpt lat="45.4871" lon="6.22129">
        <ele>891</ele>
        <time>2023-08-08T10:03:43.000Z</time>
      </trkpt>
      <trkpt lat="45.48709" lon="6.22127">
        <ele>891.20001220703</ele>
        <time>2023-08-08T10:03:44.000Z</time>
      </trkpt>
      <trkpt lat="45.48708" lon="6.2212">
        <ele>892.20001220703</ele>
        <time>2023-08-08T10:03:50.000Z</time>
      </trkpt>
      <trkpt lat="45.48709" lon="6.22117">
        <ele>892.40002441406</ele>
        <time>2023-08-08T10:03:51.000Z</time>
      </trkpt>
      <trkpt lat="45.48708" lon="6.2211">
        <ele>893.40002441406</ele>
        <time>2023-08-08T10:03:57.000Z</time>
      </trkpt>
      <trkpt lat="45.48707" lon="6.22109">
        <ele>893.59997558594</ele>
        <time>2023-08-08T10:03:58.000Z</time>
      </trkpt>
      <trkpt lat="45.48703" lon="6.22103">
        <ele>894.40002441406</ele>
        <time>2023-08-08T10:04:03.000Z</time>
      </trkpt>
      <trkpt lat="45.487" lon="6.221">
        <ele>895</ele>
        <time>2023-08-08T10:04:07.000Z</time>
      </trkpt>
      <trkpt lat="45.48698" lon="6.22099">
        <ele>895.40002441406</ele>
        <time>2023-08-08T10:04:10.000Z</time>
      </trkpt>
      <trkpt lat="45.48696" lon="6.22097">
        <ele>896.40002441406</ele>
        <time>2023-08-08T10:04:17.000Z</time>
      </trkpt>
      <trkpt lat="45.48695" lon="6.22096">
        <ele>896.59997558594</ele>
        <time>2023-08-08T10:04:18.000Z</time>
      </trkpt>
      <trkpt lat="45.48694" lon="6.22091">
        <ele>897.59997558594</ele>
        <time>2023-08-08T10:04:24.000Z</time>
      </trkpt>
      <trkpt lat="45.48693" lon="6.22091">
        <ele>898</ele>
        <time>2023-08-08T10:04:26.000Z</time>
      </trkpt>
      <trkpt lat="45.48692" lon="6.2209">
        <ele>898.59997558594</ele>
        <time>2023-08-08T10:04:30.000Z</time>
      </trkpt>
      <trkpt lat="45.48686" lon="6.22086">
        <ele>899.59997558594</ele>
        <time>2023-08-08T10:04:37.000Z</time>
      </trkpt>
      <trkpt lat="45.48686" lon="6.22086">
        <ele>899.79998779297</ele>
        <time>2023-08-08T10:04:38.000Z</time>
      </trkpt>
      <trkpt lat="45.48681" lon="6.22083">
        <ele>900.79998779297</ele>
        <time>2023-08-08T10:04:45.000Z</time>
      </trkpt>
      <trkpt lat="45.48679" lon="6.22082">
        <ele>901.20001220703</ele>
        <time>2023-08-08T10:04:48.000Z</time>
      </trkpt>
      <trkpt lat="45.48671" lon="6.22078">
        <ele>901.79998779297</ele>
        <time>2023-08-08T10:04:53.000Z</time>
      </trkpt>
      <trkpt lat="45.48667" lon="6.22077">
        <ele>902.20001220703</ele>
        <time>2023-08-08T10:04:57.000Z</time>
      </trkpt>
      <trkpt lat="45.4866" lon="6.22074">
        <ele>902.40002441406</ele>
        <time>2023-08-08T10:05:06.000Z</time>
      </trkpt>
      <trkpt lat="45.48653" lon="6.22063">
        <ele>902.40002441406</ele>
        <time>2023-08-08T10:05:13.000Z</time>
      </trkpt>
      <trkpt lat="45.48651" lon="6.22057">
        <ele>902</ele>
        <time>2023-08-08T10:05:20.000Z</time>
      </trkpt>
      <trkpt lat="45.48645" lon="6.22041">
        <ele>901.20001220703</ele>
        <time>2023-08-08T10:05:27.000Z</time>
      </trkpt>
      <trkpt lat="45.48642" lon="6.22027">
        <ele>900.79998779297</ele>
        <time>2023-08-08T10:05:34.000Z</time>
      </trkpt>
      <trkpt lat="45.48641" lon="6.22024">
        <ele>900.79998779297</ele>
        <time>2023-08-08T10:05:35.000Z</time>
      </trkpt>
      <trkpt lat="45.48636" lon="6.22007">
        <ele>900.59997558594</ele>
        <time>2023-08-08T10:05:43.000Z</time>
      </trkpt>
      <trkpt lat="45.48631" lon="6.21996">
        <ele>901.40002441406</ele>
        <time>2023-08-08T10:05:50.000Z</time>
      </trkpt>
      <trkpt lat="45.48623" lon="6.21986">
        <ele>901.40002441406</ele>
        <time>2023-08-08T10:05:59.000Z</time>
      </trkpt>
      <trkpt lat="45.48616" lon="6.2198">
        <ele>900.20001220703</ele>
        <time>2023-08-08T10:06:07.000Z</time>
      </trkpt>
      <trkpt lat="45.48608" lon="6.21973">
        <ele>900.59997558594</ele>
        <time>2023-08-08T10:06:15.000Z</time>
      </trkpt>
      <trkpt lat="45.486" lon="6.21966">
        <ele>901.40002441406</ele>
        <time>2023-08-08T10:06:25.000Z</time>
      </trkpt>
      <trkpt lat="45.48596" lon="6.21959">
        <ele>902</ele>
        <time>2023-08-08T10:06:29.000Z</time>
      </trkpt>
      <trkpt lat="45.48592" lon="6.21952">
        <ele>902.79998779297</ele>
        <time>2023-08-08T10:06:34.000Z</time>
      </trkpt>
      <trkpt lat="45.48591" lon="6.2195">
        <ele>903.20001220703</ele>
        <time>2023-08-08T10:06:36.000Z</time>
      </trkpt>
      <trkpt lat="45.48585" lon="6.21939">
        <ele>904.20001220703</ele>
        <time>2023-08-08T10:06:44.000Z</time>
      </trkpt>
      <trkpt lat="45.48584" lon="6.21938">
        <ele>904.20001220703</ele>
        <time>2023-08-08T10:06:45.000Z</time>
      </trkpt>
      <trkpt lat="45.48575" lon="6.21928">
        <ele>905.20001220703</ele>
        <time>2023-08-08T10:06:54.000Z</time>
      </trkpt>
      <trkpt lat="45.48574" lon="6.21928">
        <ele>905.40002441406</ele>
        <time>2023-08-08T10:06:55.000Z</time>
      </trkpt>
      <trkpt lat="45.4857" lon="6.21925">
        <ele>906.20001220703</ele>
        <time>2023-08-08T10:07:01.000Z</time>
      </trkpt>
      <trkpt lat="45.48558" lon="6.21921">
        <ele>907.59997558594</ele>
        <time>2023-08-08T10:07:10.000Z</time>
      </trkpt>
      <trkpt lat="45.48558" lon="6.21919">
        <ele>908</ele>
        <time>2023-08-08T10:07:12.000Z</time>
      </trkpt>
      <trkpt lat="45.48555" lon="6.21915">
        <ele>908.40002441406</ele>
        <time>2023-08-08T10:07:15.000Z</time>
      </trkpt>
      <trkpt lat="45.4855" lon="6.21906">
        <ele>909.40002441406</ele>
        <time>2023-08-08T10:07:22.000Z</time>
      </trkpt>
      <trkpt lat="45.48547" lon="6.21897">
        <ele>910.40002441406</ele>
        <time>2023-08-08T10:07:29.000Z</time>
      </trkpt>
      <trkpt lat="45.48546" lon="6.21895">
        <ele>911</ele>
        <time>2023-08-08T10:07:32.000Z</time>
      </trkpt>
      <trkpt lat="45.48543" lon="6.21893">
        <ele>911.40002441406</ele>
        <time>2023-08-08T10:07:35.000Z</time>
      </trkpt>
      <trkpt lat="45.48536" lon="6.21887">
        <ele>912.59997558594</ele>
        <time>2023-08-08T10:07:42.000Z</time>
      </trkpt>
      <trkpt lat="45.48524" lon="6.21879">
        <ele>913.79998779297</ele>
        <time>2023-08-08T10:07:54.000Z</time>
      </trkpt>
      <trkpt lat="45.48519" lon="6.2187">
        <ele>914.59997558594</ele>
        <time>2023-08-08T10:08:02.000Z</time>
      </trkpt>
      <trkpt lat="45.48518" lon="6.2187">
        <ele>914.79998779297</ele>
        <time>2023-08-08T10:08:03.000Z</time>
      </trkpt>
      <trkpt lat="45.48514" lon="6.21866">
        <ele>915.59997558594</ele>
        <time>2023-08-08T10:08:09.000Z</time>
      </trkpt>
      <trkpt lat="45.48514" lon="6.21866">
        <ele>915.79998779297</ele>
        <time>2023-08-08T10:08:10.000Z</time>
      </trkpt>
      <trkpt lat="45.48505" lon="6.2186">
        <ele>916.79998779297</ele>
        <time>2023-08-08T10:08:18.000Z</time>
      </trkpt>
      <trkpt lat="45.48502" lon="6.21857">
        <ele>917.40002441406</ele>
        <time>2023-08-08T10:08:22.000Z</time>
      </trkpt>
      <trkpt lat="45.48499" lon="6.21853">
        <ele>918</ele>
        <time>2023-08-08T10:08:25.000Z</time>
      </trkpt>
      <trkpt lat="45.48491" lon="6.21846">
        <ele>919</ele>
        <time>2023-08-08T10:08:32.000Z</time>
      </trkpt>
      <trkpt lat="45.48489" lon="6.21844">
        <ele>919.40002441406</ele>
        <time>2023-08-08T10:08:34.000Z</time>
      </trkpt>
      <trkpt lat="45.48485" lon="6.2184">
        <ele>920.20001220703</ele>
        <time>2023-08-08T10:08:39.000Z</time>
      </trkpt>
      <trkpt lat="45.4848" lon="6.21836">
        <ele>920.59997558594</ele>
        <time>2023-08-08T10:08:44.000Z</time>
      </trkpt>
      <trkpt lat="45.48477" lon="6.21834">
        <ele>921.20001220703</ele>
        <time>2023-08-08T10:08:47.000Z</time>
      </trkpt>
      <trkpt lat="45.48474" lon="6.2183">
        <ele>922.20001220703</ele>
        <time>2023-08-08T10:08:53.000Z</time>
      </trkpt>
      <trkpt lat="45.48475" lon="6.21829">
        <ele>922.40002441406</ele>
        <time>2023-08-08T10:08:54.000Z</time>
      </trkpt>
      <trkpt lat="45.48471" lon="6.21822">
        <ele>923.40002441406</ele>
        <time>2023-08-08T10:09:00.000Z</time>
      </trkpt>
      <trkpt lat="45.48471" lon="6.21818">
        <ele>924.20001220703</ele>
        <time>2023-08-08T10:09:05.000Z</time>
      </trkpt>
      <trkpt lat="45.4847" lon="6.21816">
        <ele>924.59997558594</ele>
        <time>2023-08-08T10:09:07.000Z</time>
      </trkpt>
      <trkpt lat="45.48465" lon="6.21808">
        <ele>925.59997558594</ele>
        <time>2023-08-08T10:09:15.000Z</time>
      </trkpt>
      <trkpt lat="45.48464" lon="6.21807">
        <ele>925.79998779297</ele>
        <time>2023-08-08T10:09:16.000Z</time>
      </trkpt>
      <trkpt lat="45.48458" lon="6.21801">
        <ele>926.59997558594</ele>
        <time>2023-08-08T10:09:24.000Z</time>
      </trkpt>
      <trkpt lat="45.48456" lon="6.218">
        <ele>927</ele>
        <time>2023-08-08T10:09:27.000Z</time>
      </trkpt>
      <trkpt lat="45.48453" lon="6.21796">
        <ele>927.59997558594</ele>
        <time>2023-08-08T10:09:31.000Z</time>
      </trkpt>
      <trkpt lat="45.4845" lon="6.21793">
        <ele>928.20001220703</ele>
        <time>2023-08-08T10:09:34.000Z</time>
      </trkpt>
      <trkpt lat="45.48448" lon="6.2179">
        <ele>928.79998779297</ele>
        <time>2023-08-08T10:09:39.000Z</time>
      </trkpt>
      <trkpt lat="45.48447" lon="6.21788">
        <ele>929.40002441406</ele>
        <time>2023-08-08T10:09:42.000Z</time>
      </trkpt>
      <trkpt lat="45.48443" lon="6.21784">
        <ele>930</ele>
        <time>2023-08-08T10:09:47.000Z</time>
      </trkpt>
      <trkpt lat="45.48441" lon="6.21781">
        <ele>930.40002441406</ele>
        <time>2023-08-08T10:09:49.000Z</time>
      </trkpt>
      <trkpt lat="45.48439" lon="6.21776">
        <ele>931.20001220703</ele>
        <time>2023-08-08T10:09:54.000Z</time>
      </trkpt>
      <trkpt lat="45.48438" lon="6.21774">
        <ele>931.79998779297</ele>
        <time>2023-08-08T10:09:57.000Z</time>
      </trkpt>
      <trkpt lat="45.48437" lon="6.21772">
        <ele>932.20001220703</ele>
        <time>2023-08-08T10:10:00.000Z</time>
      </trkpt>
      <trkpt lat="45.48431" lon="6.21767">
        <ele>933.40002441406</ele>
        <time>2023-08-08T10:10:07.000Z</time>
      </trkpt>
      <trkpt lat="45.48427" lon="6.2176">
        <ele>934.40002441406</ele>
        <time>2023-08-08T10:10:14.000Z</time>
      </trkpt>
      <trkpt lat="45.48427" lon="6.21757">
        <ele>934.59997558594</ele>
        <time>2023-08-08T10:10:16.000Z</time>
      </trkpt>
      <trkpt lat="45.48423" lon="6.21749">
        <ele>935.40002441406</ele>
        <time>2023-08-08T10:10:23.000Z</time>
      </trkpt>
      <trkpt lat="45.48422" lon="6.21749">
        <ele>935.59997558594</ele>
        <time>2023-08-08T10:10:24.000Z</time>
      </trkpt>
      <trkpt lat="45.48413" lon="6.21739">
        <ele>936.20001220703</ele>
        <time>2023-08-08T10:10:34.000Z</time>
      </trkpt>
      <trkpt lat="45.48406" lon="6.2173">
        <ele>936.40002441406</ele>
        <time>2023-08-08T10:10:43.000Z</time>
      </trkpt>
      <trkpt lat="45.48401" lon="6.21723">
        <ele>936.59997558594</ele>
        <time>2023-08-08T10:10:50.000Z</time>
      </trkpt>
      <trkpt lat="45.48398" lon="6.2172">
        <ele>936.59997558594</ele>
        <time>2023-08-08T10:10:52.000Z</time>
      </trkpt>
      <trkpt lat="45.48395" lon="6.21714">
        <ele>937</ele>
        <time>2023-08-08T10:10:57.000Z</time>
      </trkpt>
      <trkpt lat="45.48395" lon="6.21712">
        <ele>937.20001220703</ele>
        <time>2023-08-08T10:10:59.000Z</time>
      </trkpt>
      <trkpt lat="45.484" lon="6.2171">
        <ele>937.20001220703</ele>
        <time>2023-08-08T10:11:08.000Z</time>
      </trkpt>
      <trkpt lat="45.48402" lon="6.21709">
        <ele>937</ele>
        <time>2023-08-08T10:11:15.000Z</time>
      </trkpt>
      <trkpt lat="45.484" lon="6.21709">
        <ele>937.40002441406</ele>
        <time>2023-08-08T10:11:20.000Z</time>
      </trkpt>
      <trkpt lat="45.48397" lon="6.21708">
        <ele>937.59997558594</ele>
        <time>2023-08-08T10:11:22.000Z</time>
      </trkpt>
      <trkpt lat="45.4839" lon="6.21703">
        <ele>938.40002441406</ele>
        <time>2023-08-08T10:11:29.000Z</time>
      </trkpt>
      <trkpt lat="45.48387" lon="6.21702">
        <ele>938.59997558594</ele>
        <time>2023-08-08T10:11:31.000Z</time>
      </trkpt>
      <trkpt lat="45.48378" lon="6.21697">
        <ele>939.40002441406</ele>
        <time>2023-08-08T10:11:37.000Z</time>
      </trkpt>
      <trkpt lat="45.48373" lon="6.21695">
        <ele>939.79998779297</ele>
        <time>2023-08-08T10:11:40.000Z</time>
      </trkpt>
      <trkpt lat="45.48366" lon="6.21693">
        <ele>940.79998779297</ele>
        <time>2023-08-08T10:11:47.000Z</time>
      </trkpt>
      <trkpt lat="45.48365" lon="6.21693">
        <ele>940.79998779297</ele>
        <time>2023-08-08T10:11:48.000Z</time>
      </trkpt>
      <trkpt lat="45.48355" lon="6.21688">
        <ele>941.79998779297</ele>
        <time>2023-08-08T10:11:56.000Z</time>
      </trkpt>
      <trkpt lat="45.48351" lon="6.21682">
        <ele>942.59997558594</ele>
        <time>2023-08-08T10:12:02.000Z</time>
      </trkpt>
      <trkpt lat="45.4835" lon="6.21677">
        <ele>943</ele>
        <time>2023-08-08T10:12:05.000Z</time>
      </trkpt>
      <trkpt lat="45.48349" lon="6.21671">
        <ele>943.59997558594</ele>
        <time>2023-08-08T10:12:09.000Z</time>
      </trkpt>
      <trkpt lat="45.48349" lon="6.21667">
        <ele>944.20001220703</ele>
        <time>2023-08-08T10:12:12.000Z</time>
      </trkpt>
      <trkpt lat="45.48348" lon="6.21662">
        <ele>944.59997558594</ele>
        <time>2023-08-08T10:12:16.000Z</time>
      </trkpt>
      <trkpt lat="45.48345" lon="6.21655">
        <ele>945.20001220703</ele>
        <time>2023-08-08T10:12:21.000Z</time>
      </trkpt>
      <trkpt lat="45.48343" lon="6.2165">
        <ele>945.40002441406</ele>
        <time>2023-08-08T10:12:24.000Z</time>
      </trkpt>
      <trkpt lat="45.48341" lon="6.21645">
        <ele>946.20001220703</ele>
        <time>2023-08-08T10:12:28.000Z</time>
      </trkpt>
      <trkpt lat="45.48339" lon="6.21641">
        <ele>947.20001220703</ele>
        <time>2023-08-08T10:12:34.000Z</time>
      </trkpt>
      <trkpt lat="45.48338" lon="6.2164">
        <ele>947.40002441406</ele>
        <time>2023-08-08T10:12:35.000Z</time>
      </trkpt>
      <trkpt lat="45.48335" lon="6.21637">
        <ele>948.40002441406</ele>
        <time>2023-08-08T10:12:41.000Z</time>
      </trkpt>
      <trkpt lat="45.48333" lon="6.21635">
        <ele>948.59997558594</ele>
        <time>2023-08-08T10:12:43.000Z</time>
      </trkpt>
      <trkpt lat="45.48329" lon="6.21631">
        <ele>949.40002441406</ele>
        <time>2023-08-08T10:12:48.000Z</time>
      </trkpt>
      <trkpt lat="45.48327" lon="6.2163">
        <ele>950</ele>
        <time>2023-08-08T10:12:51.000Z</time>
      </trkpt>
      <trkpt lat="45.48324" lon="6.21629">
        <ele>950.59997558594</ele>
        <time>2023-08-08T10:12:55.000Z</time>
      </trkpt>
      <trkpt lat="45.48321" lon="6.21628">
        <ele>951.20001220703</ele>
        <time>2023-08-08T10:12:59.000Z</time>
      </trkpt>
      <trkpt lat="45.48315" lon="6.21627">
        <ele>951.59997558594</ele>
        <time>2023-08-08T10:13:05.000Z</time>
      </trkpt>
      <trkpt lat="45.48313" lon="6.21626">
        <ele>951.79998779297</ele>
        <time>2023-08-08T10:13:07.000Z</time>
      </trkpt>
      <trkpt lat="45.48308" lon="6.21624">
        <ele>952.79998779297</ele>
        <time>2023-08-08T10:13:14.000Z</time>
      </trkpt>
      <trkpt lat="45.48305" lon="6.21624">
        <ele>953</ele>
        <time>2023-08-08T10:13:17.000Z</time>
      </trkpt>
      <trkpt lat="45.483" lon="6.21621">
        <ele>953.79998779297</ele>
        <time>2023-08-08T10:13:22.000Z</time>
      </trkpt>
      <trkpt lat="45.48297" lon="6.21619">
        <ele>954.20001220703</ele>
        <time>2023-08-08T10:13:25.000Z</time>
      </trkpt>
      <trkpt lat="45.48293" lon="6.21616">
        <ele>954.79998779297</ele>
        <time>2023-08-08T10:13:29.000Z</time>
      </trkpt>
      <trkpt lat="45.4829" lon="6.21612">
        <ele>955.40002441406</ele>
        <time>2023-08-08T10:13:33.000Z</time>
      </trkpt>
      <trkpt lat="45.48287" lon="6.21607">
        <ele>955.79998779297</ele>
        <time>2023-08-08T10:13:36.000Z</time>
      </trkpt>
      <trkpt lat="45.48285" lon="6.21602">
        <ele>956.59997558594</ele>
        <time>2023-08-08T10:13:41.000Z</time>
      </trkpt>
      <trkpt lat="45.48283" lon="6.21599">
        <ele>956.79998779297</ele>
        <time>2023-08-08T10:13:44.000Z</time>
      </trkpt>
      <trkpt lat="45.48277" lon="6.21593">
        <ele>957.40002441406</ele>
        <time>2023-08-08T10:13:50.000Z</time>
      </trkpt>
      <trkpt lat="45.48273" lon="6.21592">
        <ele>957.79998779297</ele>
        <time>2023-08-08T10:13:53.000Z</time>
      </trkpt>
      <trkpt lat="45.48267" lon="6.21591">
        <ele>958.40002441406</ele>
        <time>2023-08-08T10:13:58.000Z</time>
      </trkpt>
      <trkpt lat="45.48261" lon="6.21592">
        <ele>959</ele>
        <time>2023-08-08T10:14:02.000Z</time>
      </trkpt>
      <trkpt lat="45.48256" lon="6.2159">
        <ele>959.40002441406</ele>
        <time>2023-08-08T10:14:06.000Z</time>
      </trkpt>
      <trkpt lat="45.48244" lon="6.21586">
        <ele>959.79998779297</ele>
        <time>2023-08-08T10:14:15.000Z</time>
      </trkpt>
      <trkpt lat="45.48236" lon="6.2158">
        <ele>960</ele>
        <time>2023-08-08T10:14:24.000Z</time>
      </trkpt>
      <trkpt lat="45.48233" lon="6.21578">
        <ele>960</ele>
        <time>2023-08-08T10:14:28.000Z</time>
      </trkpt>
      <trkpt lat="45.4823" lon="6.21574">
        <ele>960.40002441406</ele>
        <time>2023-08-08T10:14:33.000Z</time>
      </trkpt>
      <trkpt lat="45.48226" lon="6.21572">
        <ele>960.40002441406</ele>
        <time>2023-08-08T10:14:37.000Z</time>
      </trkpt>
      <trkpt lat="45.48225" lon="6.21571">
        <ele>960.40002441406</ele>
        <time>2023-08-08T10:14:40.000Z</time>
      </trkpt>
      <trkpt lat="45.48225" lon="6.21571">
        <ele>960.40002441406</ele>
        <time>2023-08-08T10:14:42.000Z</time>
      </trkpt>
      <trkpt lat="45.48234" lon="6.21578">
        <ele>961.20001220703</ele>
        <time>2023-08-08T10:14:49.000Z</time>
      </trkpt>
      <trkpt lat="45.48241" lon="6.21589">
        <ele>962.20001220703</ele>
        <time>2023-08-08T10:14:56.000Z</time>
      </trkpt>
      <trkpt lat="45.48243" lon="6.21593">
        <ele>962.59997558594</ele>
        <time>2023-08-08T10:14:59.000Z</time>
      </trkpt>
      <trkpt lat="45.48244" lon="6.21595">
        <ele>963.20001220703</ele>
        <time>2023-08-08T10:15:02.000Z</time>
      </trkpt>
      <trkpt lat="45.48248" lon="6.21597">
        <ele>963.79998779297</ele>
        <time>2023-08-08T10:15:07.000Z</time>
      </trkpt>
      <trkpt lat="45.48252" lon="6.216">
        <ele>964.20001220703</ele>
        <time>2023-08-08T10:15:10.000Z</time>
      </trkpt>
      <trkpt lat="45.48256" lon="6.21603">
        <ele>965</ele>
        <time>2023-08-08T10:15:15.000Z</time>
      </trkpt>
      <trkpt lat="45.48257" lon="6.21606">
        <ele>965.40002441406</ele>
        <time>2023-08-08T10:15:18.000Z</time>
      </trkpt>
      <trkpt lat="45.48263" lon="6.21617">
        <ele>966</ele>
        <time>2023-08-08T10:15:24.000Z</time>
      </trkpt>
      <trkpt lat="45.48261" lon="6.21622">
        <ele>966.40002441406</ele>
        <time>2023-08-08T10:15:27.000Z</time>
      </trkpt>
      <trkpt lat="45.48259" lon="6.21625">
        <ele>966.59997558594</ele>
        <time>2023-08-08T10:15:29.000Z</time>
      </trkpt>
      <trkpt lat="45.48255" lon="6.21626">
        <ele>966.59997558594</ele>
        <time>2023-08-08T10:15:31.000Z</time>
      </trkpt>
      <trkpt lat="45.48244" lon="6.21637">
        <ele>966.59997558594</ele>
        <time>2023-08-08T10:15:39.000Z</time>
      </trkpt>
      <trkpt lat="45.48243" lon="6.21638">
        <ele>966.59997558594</ele>
        <time>2023-08-08T10:15:41.000Z</time>
      </trkpt>
      <trkpt lat="45.48245" lon="6.21638">
        <ele>966.59997558594</ele>
        <time>2023-08-08T10:15:48.000Z</time>
      </trkpt>
      <trkpt lat="45.48246" lon="6.21635">
        <ele>966.59997558594</ele>
        <time>2023-08-08T10:15:54.000Z</time>
      </trkpt>
      <trkpt lat="45.48252" lon="6.2164">
        <ele>966.59997558594</ele>
        <time>2023-08-08T10:16:00.000Z</time>
      </trkpt>
      <trkpt lat="45.48253" lon="6.21639">
        <ele>967.40002441406</ele>
        <time>2023-08-08T10:16:08.000Z</time>
      </trkpt>
      <trkpt lat="45.48252" lon="6.21639">
        <ele>967.40002441406</ele>
        <time>2023-08-08T10:16:09.000Z</time>
      </trkpt>
      <trkpt lat="45.48246" lon="6.21635">
        <ele>968</ele>
        <time>2023-08-08T10:16:17.000Z</time>
      </trkpt>
      <trkpt lat="45.48242" lon="6.21632">
        <ele>968.40002441406</ele>
        <time>2023-08-08T10:16:22.000Z</time>
      </trkpt>
      <trkpt lat="45.48239" lon="6.21631">
        <ele>968.59997558594</ele>
        <time>2023-08-08T10:16:25.000Z</time>
      </trkpt>
      <trkpt lat="45.48234" lon="6.21623">
        <ele>969.40002441406</ele>
        <time>2023-08-08T10:16:34.000Z</time>
      </trkpt>
      <trkpt lat="45.48233" lon="6.21622">
        <ele>969.59997558594</ele>
        <time>2023-08-08T10:16:35.000Z</time>
      </trkpt>
      <trkpt lat="45.48221" lon="6.21614">
        <ele>971</ele>
        <time>2023-08-08T10:16:47.000Z</time>
      </trkpt>
      <trkpt lat="45.48219" lon="6.21611">
        <ele>971</ele>
        <time>2023-08-08T10:16:50.000Z</time>
      </trkpt>
      <trkpt lat="45.48218" lon="6.2161">
        <ele>971.20001220703</ele>
        <time>2023-08-08T10:16:53.000Z</time>
      </trkpt>
      <trkpt lat="45.48217" lon="6.21609">
        <ele>971</ele>
        <time>2023-08-08T10:16:56.000Z</time>
      </trkpt>
      <trkpt lat="45.48217" lon="6.21619">
        <ele>971</ele>
        <time>2023-08-08T10:17:05.000Z</time>
      </trkpt>
      <trkpt lat="45.48214" lon="6.21623">
        <ele>971</ele>
        <time>2023-08-08T10:17:11.000Z</time>
      </trkpt>
      <trkpt lat="45.48209" lon="6.21616">
        <ele>971.79998779297</ele>
        <time>2023-08-08T10:17:18.000Z</time>
      </trkpt>
      <trkpt lat="45.48207" lon="6.21615">
        <ele>972.20001220703</ele>
        <time>2023-08-08T10:17:21.000Z</time>
      </trkpt>
      <trkpt lat="45.48203" lon="6.21611">
        <ele>972.79998779297</ele>
        <time>2023-08-08T10:17:26.000Z</time>
      </trkpt>
      <trkpt lat="45.48197" lon="6.2161">
        <ele>973.40002441406</ele>
        <time>2023-08-08T10:17:30.000Z</time>
      </trkpt>
      <trkpt lat="45.48193" lon="6.21608">
        <ele>974</ele>
        <time>2023-08-08T10:17:35.000Z</time>
      </trkpt>
      <trkpt lat="45.48188" lon="6.21608">
        <ele>974.59997558594</ele>
        <time>2023-08-08T10:17:39.000Z</time>
      </trkpt>
      <trkpt lat="45.48163" lon="6.216">
        <ele>976.79998779297</ele>
        <time>2023-08-08T10:17:52.000Z</time>
      </trkpt>
      <trkpt lat="45.48161" lon="6.21597">
        <ele>977.20001220703</ele>
        <time>2023-08-08T10:17:56.000Z</time>
      </trkpt>
      <trkpt lat="45.4816" lon="6.21595">
        <ele>977.40002441406</ele>
        <time>2023-08-08T10:17:59.000Z</time>
      </trkpt>
      <trkpt lat="45.48158" lon="6.21591">
        <ele>978.20001220703</ele>
        <time>2023-08-08T10:18:04.000Z</time>
      </trkpt>
      <trkpt lat="45.48152" lon="6.21585">
        <ele>979.20001220703</ele>
        <time>2023-08-08T10:18:11.000Z</time>
      </trkpt>
      <trkpt lat="45.48151" lon="6.21582">
        <ele>979.59997558594</ele>
        <time>2023-08-08T10:18:13.000Z</time>
      </trkpt>
      <trkpt lat="45.48144" lon="6.21573">
        <ele>980.40002441406</ele>
        <time>2023-08-08T10:18:19.000Z</time>
      </trkpt>
      <trkpt lat="45.48141" lon="6.2157">
        <ele>980.79998779297</ele>
        <time>2023-08-08T10:18:22.000Z</time>
      </trkpt>
      <trkpt lat="45.48134" lon="6.21566">
        <ele>981.40002441406</ele>
        <time>2023-08-08T10:18:27.000Z</time>
      </trkpt>
      <trkpt lat="45.48131" lon="6.21564">
        <ele>981.79998779297</ele>
        <time>2023-08-08T10:18:30.000Z</time>
      </trkpt>
      <trkpt lat="45.48125" lon="6.21561">
        <ele>982.40002441406</ele>
        <time>2023-08-08T10:18:35.000Z</time>
      </trkpt>
      <trkpt lat="45.48115" lon="6.21568">
        <ele>983.20001220703</ele>
        <time>2023-08-08T10:18:46.000Z</time>
      </trkpt>
      <trkpt lat="45.48113" lon="6.21564">
        <ele>983.59997558594</ele>
        <time>2023-08-08T10:18:49.000Z</time>
      </trkpt>
      <trkpt lat="45.4811" lon="6.21563">
        <ele>983.79998779297</ele>
        <time>2023-08-08T10:18:58.000Z</time>
      </trkpt>
      <trkpt lat="45.48105" lon="6.21559">
        <ele>983.79998779297</ele>
        <time>2023-08-08T10:19:03.000Z</time>
      </trkpt>
      <trkpt lat="45.48099" lon="6.21555">
        <ele>984.59997558594</ele>
        <time>2023-08-08T10:19:11.000Z</time>
      </trkpt>
      <trkpt lat="45.48098" lon="6.21555">
        <ele>984.59997558594</ele>
        <time>2023-08-08T10:19:12.000Z</time>
      </trkpt>
      <trkpt lat="45.48091" lon="6.21555">
        <ele>985.79998779297</ele>
        <time>2023-08-08T10:19:20.000Z</time>
      </trkpt>
      <trkpt lat="45.48082" lon="6.21556">
        <ele>986.59997558594</ele>
        <time>2023-08-08T10:19:27.000Z</time>
      </trkpt>
      <trkpt lat="45.48078" lon="6.21556">
        <ele>987</ele>
        <time>2023-08-08T10:19:30.000Z</time>
      </trkpt>
      <trkpt lat="45.48071" lon="6.21556">
        <ele>987.59997558594</ele>
        <time>2023-08-08T10:19:36.000Z</time>
      </trkpt>
      <trkpt lat="45.4807" lon="6.21556">
        <ele>988</ele>
        <time>2023-08-08T10:19:38.000Z</time>
      </trkpt>
      <trkpt lat="45.48061" lon="6.21562">
        <ele>988.79998779297</ele>
        <time>2023-08-08T10:19:45.000Z</time>
      </trkpt>
      <trkpt lat="45.48059" lon="6.21565">
        <ele>989</ele>
        <time>2023-08-08T10:19:47.000Z</time>
      </trkpt>
      <trkpt lat="45.4805" lon="6.21569">
        <ele>990.20001220703</ele>
        <time>2023-08-08T10:19:55.000Z</time>
      </trkpt>
      <trkpt lat="45.48041" lon="6.21566">
        <ele>991.59997558594</ele>
        <time>2023-08-08T10:20:06.000Z</time>
      </trkpt>
      <trkpt lat="45.48041" lon="6.21566">
        <ele>991.79998779297</ele>
        <time>2023-08-08T10:20:07.000Z</time>
      </trkpt>
      <trkpt lat="45.4804" lon="6.21566">
        <ele>992</ele>
        <time>2023-08-08T10:20:09.000Z</time>
      </trkpt>
      <trkpt lat="45.48038" lon="6.21565">
        <ele>992.20001220703</ele>
        <time>2023-08-08T10:20:12.000Z</time>
      </trkpt>
      <trkpt lat="45.48037" lon="6.21564">
        <ele>992.40002441406</ele>
        <time>2023-08-08T10:20:14.000Z</time>
      </trkpt>
      <trkpt lat="45.48033" lon="6.21559">
        <ele>993.40002441406</ele>
        <time>2023-08-08T10:20:20.000Z</time>
      </trkpt>
      <trkpt lat="45.48029" lon="6.21553">
        <ele>994.40002441406</ele>
        <time>2023-08-08T10:20:26.000Z</time>
      </trkpt>
      <trkpt lat="45.48028" lon="6.21552">
        <ele>994.79998779297</ele>
        <time>2023-08-08T10:20:28.000Z</time>
      </trkpt>
      <trkpt lat="45.48022" lon="6.21548">
        <ele>995.40002441406</ele>
        <time>2023-08-08T10:20:33.000Z</time>
      </trkpt>
      <trkpt lat="45.48022" lon="6.21545">
        <ele>995.79998779297</ele>
        <time>2023-08-08T10:20:35.000Z</time>
      </trkpt>
      <trkpt lat="45.48018" lon="6.2154">
        <ele>996.40002441406</ele>
        <time>2023-08-08T10:20:40.000Z</time>
      </trkpt>
      <trkpt lat="45.48014" lon="6.21536">
        <ele>997</ele>
        <time>2023-08-08T10:20:44.000Z</time>
      </trkpt>
      <trkpt lat="45.48013" lon="6.21533">
        <ele>997.40002441406</ele>
        <time>2023-08-08T10:20:47.000Z</time>
      </trkpt>
      <trkpt lat="45.48012" lon="6.21526">
        <ele>998.40002441406</ele>
        <time>2023-08-08T10:20:53.000Z</time>
      </trkpt>
      <trkpt lat="45.48012" lon="6.21525">
        <ele>998.40002441406</ele>
        <time>2023-08-08T10:20:54.000Z</time>
      </trkpt>
      <trkpt lat="45.48006" lon="6.21515">
        <ele>999.59997558594</ele>
        <time>2023-08-08T10:21:02.000Z</time>
      </trkpt>
      <trkpt lat="45.48003" lon="6.21508">
        <ele>1000.5999755859</ele>
        <time>2023-08-08T10:21:10.000Z</time>
      </trkpt>
      <trkpt lat="45.48003" lon="6.21507">
        <ele>1000.799987793</ele>
        <time>2023-08-08T10:21:11.000Z</time>
      </trkpt>
      <trkpt lat="45.47996" lon="6.21501">
        <ele>1001.5999755859</ele>
        <time>2023-08-08T10:21:18.000Z</time>
      </trkpt>
      <trkpt lat="45.47994" lon="6.21498">
        <ele>1001.799987793</ele>
        <time>2023-08-08T10:21:20.000Z</time>
      </trkpt>
      <trkpt lat="45.47988" lon="6.21493">
        <ele>1002.4000244141</ele>
        <time>2023-08-08T10:21:26.000Z</time>
      </trkpt>
      <trkpt lat="45.47985" lon="6.2149">
        <ele>1002.799987793</ele>
        <time>2023-08-08T10:21:28.000Z</time>
      </trkpt>
      <trkpt lat="45.47979" lon="6.21482">
        <ele>1003.799987793</ele>
        <time>2023-08-08T10:21:35.000Z</time>
      </trkpt>
      <trkpt lat="45.47975" lon="6.21474">
        <ele>1005</ele>
        <time>2023-08-08T10:21:42.000Z</time>
      </trkpt>
      <trkpt lat="45.47974" lon="6.21473">
        <ele>1005.200012207</ele>
        <time>2023-08-08T10:21:43.000Z</time>
      </trkpt>
      <trkpt lat="45.47969" lon="6.21458">
        <ele>1006</ele>
        <time>2023-08-08T10:21:51.000Z</time>
      </trkpt>
      <trkpt lat="45.47966" lon="6.21447">
        <ele>1006.799987793</ele>
        <time>2023-08-08T10:21:59.000Z</time>
      </trkpt>
      <trkpt lat="45.47965" lon="6.21447">
        <ele>1007</ele>
        <time>2023-08-08T10:22:00.000Z</time>
      </trkpt>
      <trkpt lat="45.47959" lon="6.2144">
        <ele>1008</ele>
        <time>2023-08-08T10:22:08.000Z</time>
      </trkpt>
      <trkpt lat="45.47959" lon="6.21438">
        <ele>1008.200012207</ele>
        <time>2023-08-08T10:22:09.000Z</time>
      </trkpt>
      <trkpt lat="45.47954" lon="6.21427">
        <ele>1009.200012207</ele>
        <time>2023-08-08T10:22:17.000Z</time>
      </trkpt>
      <trkpt lat="45.47954" lon="6.21426">
        <ele>1009.200012207</ele>
        <time>2023-08-08T10:22:18.000Z</time>
      </trkpt>
      <trkpt lat="45.47948" lon="6.21414">
        <ele>1010.200012207</ele>
        <time>2023-08-08T10:22:25.000Z</time>
      </trkpt>
      <trkpt lat="45.47948" lon="6.21413">
        <ele>1010.4000244141</ele>
        <time>2023-08-08T10:22:26.000Z</time>
      </trkpt>
      <trkpt lat="45.47944" lon="6.21409">
        <ele>1011</ele>
        <time>2023-08-08T10:22:32.000Z</time>
      </trkpt>
      <trkpt lat="45.47942" lon="6.21407">
        <ele>1011.4000244141</ele>
        <time>2023-08-08T10:22:34.000Z</time>
      </trkpt>
      <trkpt lat="45.47936" lon="6.214">
        <ele>1012.4000244141</ele>
        <time>2023-08-08T10:22:41.000Z</time>
      </trkpt>
      <trkpt lat="45.47935" lon="6.21399">
        <ele>1012.4000244141</ele>
        <time>2023-08-08T10:22:42.000Z</time>
      </trkpt>
      <trkpt lat="45.4793" lon="6.21389">
        <ele>1013.4000244141</ele>
        <time>2023-08-08T10:22:49.000Z</time>
      </trkpt>
      <trkpt lat="45.4793" lon="6.21388">
        <ele>1013.5999755859</ele>
        <time>2023-08-08T10:22:50.000Z</time>
      </trkpt>
      <trkpt lat="45.47926" lon="6.21377">
        <ele>1014.5999755859</ele>
        <time>2023-08-08T10:22:57.000Z</time>
      </trkpt>
      <trkpt lat="45.47925" lon="6.21373">
        <ele>1015.200012207</ele>
        <time>2023-08-08T10:23:00.000Z</time>
      </trkpt>
      <trkpt lat="45.47922" lon="6.2137">
        <ele>1015.5999755859</ele>
        <time>2023-08-08T10:23:03.000Z</time>
      </trkpt>
      <trkpt lat="45.47915" lon="6.21362">
        <ele>1016.5999755859</ele>
        <time>2023-08-08T10:23:10.000Z</time>
      </trkpt>
      <trkpt lat="45.47913" lon="6.2136">
        <ele>1016.5999755859</ele>
        <time>2023-08-08T10:23:12.000Z</time>
      </trkpt>
      <trkpt lat="45.47909" lon="6.21353">
        <ele>1017.799987793</ele>
        <time>2023-08-08T10:23:19.000Z</time>
      </trkpt>
      <trkpt lat="45.47907" lon="6.21351">
        <ele>1018</ele>
        <time>2023-08-08T10:23:21.000Z</time>
      </trkpt>
      <trkpt lat="45.47904" lon="6.21345">
        <ele>1018.799987793</ele>
        <time>2023-08-08T10:23:26.000Z</time>
      </trkpt>
      <trkpt lat="45.47902" lon="6.21342">
        <ele>1019.200012207</ele>
        <time>2023-08-08T10:23:28.000Z</time>
      </trkpt>
      <trkpt lat="45.47899" lon="6.21336">
        <ele>1019.799987793</ele>
        <time>2023-08-08T10:23:35.000Z</time>
      </trkpt>
      <trkpt lat="45.47899" lon="6.21334">
        <ele>1020</ele>
        <time>2023-08-08T10:23:36.000Z</time>
      </trkpt>
      <trkpt lat="45.47897" lon="6.21328">
        <ele>1021</ele>
        <time>2023-08-08T10:23:43.000Z</time>
      </trkpt>
      <trkpt lat="45.47896" lon="6.21327">
        <ele>1021.200012207</ele>
        <time>2023-08-08T10:23:44.000Z</time>
      </trkpt>
      <trkpt lat="45.47889" lon="6.21311">
        <ele>1022</ele>
        <time>2023-08-08T10:23:54.000Z</time>
      </trkpt>
      <trkpt lat="45.47881" lon="6.21297">
        <ele>1023</ele>
        <time>2023-08-08T10:24:03.000Z</time>
      </trkpt>
      <trkpt lat="45.47881" lon="6.21296">
        <ele>1023.200012207</ele>
        <time>2023-08-08T10:24:04.000Z</time>
      </trkpt>
      <trkpt lat="45.47875" lon="6.21289">
        <ele>1023.799987793</ele>
        <time>2023-08-08T10:24:10.000Z</time>
      </trkpt>
      <trkpt lat="45.47872" lon="6.21284">
        <ele>1024.1999511719</ele>
        <time>2023-08-08T10:24:13.000Z</time>
      </trkpt>
      <trkpt lat="45.47866" lon="6.21277">
        <ele>1025</ele>
        <time>2023-08-08T10:24:20.000Z</time>
      </trkpt>
      <trkpt lat="45.47866" lon="6.21277">
        <ele>1025.1999511719</ele>
        <time>2023-08-08T10:24:21.000Z</time>
      </trkpt>
      <trkpt lat="45.47864" lon="6.21271">
        <ele>1026.1999511719</ele>
        <time>2023-08-08T10:24:28.000Z</time>
      </trkpt>
      <trkpt lat="45.47863" lon="6.2127">
        <ele>1026.4000244141</ele>
        <time>2023-08-08T10:24:29.000Z</time>
      </trkpt>
      <trkpt lat="45.47863" lon="6.21262">
        <ele>1027.1999511719</ele>
        <time>2023-08-08T10:24:36.000Z</time>
      </trkpt>
      <trkpt lat="45.47862" lon="6.2126">
        <ele>1027.4000244141</ele>
        <time>2023-08-08T10:24:37.000Z</time>
      </trkpt>
      <trkpt lat="45.47859" lon="6.21249">
        <ele>1028.1999511719</ele>
        <time>2023-08-08T10:24:44.000Z</time>
      </trkpt>
      <trkpt lat="45.47856" lon="6.21243">
        <ele>1028.4000244141</ele>
        <time>2023-08-08T10:24:47.000Z</time>
      </trkpt>
      <trkpt lat="45.47854" lon="6.21236">
        <ele>1028.8000488281</ele>
        <time>2023-08-08T10:24:51.000Z</time>
      </trkpt>
      <trkpt lat="45.47849" lon="6.21225">
        <ele>1029.5999755859</ele>
        <time>2023-08-08T10:24:59.000Z</time>
      </trkpt>
      <trkpt lat="45.47844" lon="6.21215">
        <ele>1030.1999511719</ele>
        <time>2023-08-08T10:25:06.000Z</time>
      </trkpt>
      <trkpt lat="45.4784" lon="6.21211">
        <ele>1030.5999755859</ele>
        <time>2023-08-08T10:25:10.000Z</time>
      </trkpt>
      <trkpt lat="45.47839" lon="6.21208">
        <ele>1031</ele>
        <time>2023-08-08T10:25:13.000Z</time>
      </trkpt>
      <trkpt lat="45.47836" lon="6.21202">
        <ele>1031.5999755859</ele>
        <time>2023-08-08T10:25:18.000Z</time>
      </trkpt>
      <trkpt lat="45.47834" lon="6.212">
        <ele>1032</ele>
        <time>2023-08-08T10:25:22.000Z</time>
      </trkpt>
      <trkpt lat="45.47831" lon="6.21195">
        <ele>1032.8000488281</ele>
        <time>2023-08-08T10:25:26.000Z</time>
      </trkpt>
      <trkpt lat="45.47826" lon="6.21187">
        <ele>1033.5999755859</ele>
        <time>2023-08-08T10:25:31.000Z</time>
      </trkpt>
      <trkpt lat="45.47825" lon="6.21185">
        <ele>1033.8000488281</ele>
        <time>2023-08-08T10:25:33.000Z</time>
      </trkpt>
      <trkpt lat="45.4782" lon="6.21179">
        <ele>1034.5999755859</ele>
        <time>2023-08-08T10:25:39.000Z</time>
      </trkpt>
      <trkpt lat="45.47818" lon="6.21176">
        <ele>1035</ele>
        <time>2023-08-08T10:25:41.000Z</time>
      </trkpt>
      <trkpt lat="45.47811" lon="6.21169">
        <ele>1035.8000488281</ele>
        <time>2023-08-08T10:25:49.000Z</time>
      </trkpt>
      <trkpt lat="45.47809" lon="6.21168">
        <ele>1036</ele>
        <time>2023-08-08T10:25:51.000Z</time>
      </trkpt>
      <trkpt lat="45.47806" lon="6.21161">
        <ele>1036.8000488281</ele>
        <time>2023-08-08T10:25:57.000Z</time>
      </trkpt>
      <trkpt lat="45.47806" lon="6.21159">
        <ele>1037</ele>
        <time>2023-08-08T10:25:59.000Z</time>
      </trkpt>
      <trkpt lat="45.47807" lon="6.21154">
        <ele>1037.5999755859</ele>
        <time>2023-08-08T10:26:04.000Z</time>
      </trkpt>
      <trkpt lat="45.47806" lon="6.2115">
        <ele>1038</ele>
        <time>2023-08-08T10:26:07.000Z</time>
      </trkpt>
      <trkpt lat="45.47804" lon="6.21141">
        <ele>1038.8000488281</ele>
        <time>2023-08-08T10:26:12.000Z</time>
      </trkpt>
      <trkpt lat="45.47802" lon="6.21136">
        <ele>1039.1999511719</ele>
        <time>2023-08-08T10:26:15.000Z</time>
      </trkpt>
      <trkpt lat="45.47799" lon="6.2113">
        <ele>1039.8000488281</ele>
        <time>2023-08-08T10:26:20.000Z</time>
      </trkpt>
      <trkpt lat="45.47797" lon="6.21125">
        <ele>1040.1999511719</ele>
        <time>2023-08-08T10:26:24.000Z</time>
      </trkpt>
      <trkpt lat="45.4779" lon="6.21125">
        <ele>1040.8000488281</ele>
        <time>2023-08-08T10:26:29.000Z</time>
      </trkpt>
      <trkpt lat="45.47782" lon="6.21126">
        <ele>1041.1999511719</ele>
        <time>2023-08-08T10:26:35.000Z</time>
      </trkpt>
      <trkpt lat="45.47779" lon="6.21127">
        <ele>1041.5999755859</ele>
        <time>2023-08-08T10:26:38.000Z</time>
      </trkpt>
      <trkpt lat="45.47766" lon="6.21122">
        <ele>1042.8000488281</ele>
        <time>2023-08-08T10:26:50.000Z</time>
      </trkpt>
      <trkpt lat="45.47761" lon="6.21118">
        <ele>1043.4000244141</ele>
        <time>2023-08-08T10:26:56.000Z</time>
      </trkpt>
      <trkpt lat="45.4776" lon="6.21117">
        <ele>1043.4000244141</ele>
        <time>2023-08-08T10:26:57.000Z</time>
      </trkpt>
      <trkpt lat="45.47753" lon="6.21109">
        <ele>1044.4000244141</ele>
        <time>2023-08-08T10:27:05.000Z</time>
      </trkpt>
      <trkpt lat="45.47751" lon="6.21106">
        <ele>1044.5999755859</ele>
        <time>2023-08-08T10:27:07.000Z</time>
      </trkpt>
      <trkpt lat="45.47746" lon="6.21101">
        <ele>1045.4000244141</ele>
        <time>2023-08-08T10:27:14.000Z</time>
      </trkpt>
      <trkpt lat="45.47747" lon="6.21102">
        <ele>1045.5999755859</ele>
        <time>2023-08-08T10:27:15.000Z</time>
      </trkpt>
      <trkpt lat="45.47753" lon="6.21098">
        <ele>1045.8000488281</ele>
        <time>2023-08-08T10:27:18.000Z</time>
      </trkpt>
      <trkpt lat="45.47758" lon="6.21096">
        <ele>1045.8000488281</ele>
        <time>2023-08-08T10:27:21.000Z</time>
      </trkpt>
      <trkpt lat="45.47763" lon="6.21092">
        <ele>1045.8000488281</ele>
        <time>2023-08-08T10:27:26.000Z</time>
      </trkpt>
      <trkpt lat="45.47764" lon="6.2109">
        <ele>1045.8000488281</ele>
        <time>2023-08-08T10:27:28.000Z</time>
      </trkpt>
      <trkpt lat="45.47762" lon="6.21091">
        <ele>1045.8000488281</ele>
        <time>2023-08-08T10:27:31.000Z</time>
      </trkpt>
      <trkpt lat="45.47755" lon="6.21096">
        <ele>1045.5999755859</ele>
        <time>2023-08-08T10:27:37.000Z</time>
      </trkpt>
      <trkpt lat="45.47754" lon="6.21098">
        <ele>1045.5999755859</ele>
        <time>2023-08-08T10:27:39.000Z</time>
      </trkpt>
      <trkpt lat="45.47751" lon="6.21105">
        <ele>1046.1999511719</ele>
        <time>2023-08-08T10:27:47.000Z</time>
      </trkpt>
      <trkpt lat="45.47747" lon="6.21115">
        <ele>1046.8000488281</ele>
        <time>2023-08-08T10:27:55.000Z</time>
      </trkpt>
      <trkpt lat="45.47748" lon="6.21123">
        <ele>1047.8000488281</ele>
        <time>2023-08-08T10:28:01.000Z</time>
      </trkpt>
      <trkpt lat="45.47748" lon="6.21127">
        <ele>1048.1999511719</ele>
        <time>2023-08-08T10:28:03.000Z</time>
      </trkpt>
      <trkpt lat="45.47749" lon="6.21132">
        <ele>1048.8000488281</ele>
        <time>2023-08-08T10:28:07.000Z</time>
      </trkpt>
      <trkpt lat="45.47749" lon="6.21135">
        <ele>1049.4000244141</ele>
        <time>2023-08-08T10:28:11.000Z</time>
      </trkpt>
      <trkpt lat="45.47751" lon="6.21138">
        <ele>1050</ele>
        <time>2023-08-08T10:28:14.000Z</time>
      </trkpt>
      <trkpt lat="45.47752" lon="6.21145">
        <ele>1050.8000488281</ele>
        <time>2023-08-08T10:28:19.000Z</time>
      </trkpt>
      <trkpt lat="45.47753" lon="6.21146">
        <ele>1051</ele>
        <time>2023-08-08T10:28:20.000Z</time>
      </trkpt>
      <trkpt lat="45.47753" lon="6.2115">
        <ele>1052</ele>
        <time>2023-08-08T10:28:26.000Z</time>
      </trkpt>
      <trkpt lat="45.47754" lon="6.21152">
        <ele>1052.4000244141</ele>
        <time>2023-08-08T10:28:28.000Z</time>
      </trkpt>
      <trkpt lat="45.47756" lon="6.21159">
        <ele>1053.1999511719</ele>
        <time>2023-08-08T10:28:33.000Z</time>
      </trkpt>
      <trkpt lat="45.47757" lon="6.21164">
        <ele>1053.8000488281</ele>
        <time>2023-08-08T10:28:37.000Z</time>
      </trkpt>
      <trkpt lat="45.47758" lon="6.21174">
        <ele>1054.1999511719</ele>
        <time>2023-08-08T10:28:45.000Z</time>
      </trkpt>
      <trkpt lat="45.47758" lon="6.21175">
        <ele>1054.4000244141</ele>
        <time>2023-08-08T10:28:46.000Z</time>
      </trkpt>
      <trkpt lat="45.4776" lon="6.21182">
        <ele>1055.4000244141</ele>
        <time>2023-08-08T10:28:52.000Z</time>
      </trkpt>
      <trkpt lat="45.4776" lon="6.21183">
        <ele>1055.5999755859</ele>
        <time>2023-08-08T10:28:53.000Z</time>
      </trkpt>
      <trkpt lat="45.47759" lon="6.21188">
        <ele>1056.4000244141</ele>
        <time>2023-08-08T10:28:59.000Z</time>
      </trkpt>
      <trkpt lat="45.47758" lon="6.21191">
        <ele>1057</ele>
        <time>2023-08-08T10:29:02.000Z</time>
      </trkpt>
      <trkpt lat="45.47757" lon="6.21193">
        <ele>1057.5999755859</ele>
        <time>2023-08-08T10:29:06.000Z</time>
      </trkpt>
      <trkpt lat="45.47755" lon="6.21199">
        <ele>1058.4000244141</ele>
        <time>2023-08-08T10:29:12.000Z</time>
      </trkpt>
      <trkpt lat="45.47754" lon="6.21201">
        <ele>1058.5999755859</ele>
        <time>2023-08-08T10:29:13.000Z</time>
      </trkpt>
      <trkpt lat="45.47754" lon="6.21206">
        <ele>1059.4000244141</ele>
        <time>2023-08-08T10:29:18.000Z</time>
      </trkpt>
      <trkpt lat="45.47754" lon="6.21209">
        <ele>1059.5999755859</ele>
        <time>2023-08-08T10:29:20.000Z</time>
      </trkpt>
      <trkpt lat="45.47755" lon="6.21213">
        <ele>1060.5999755859</ele>
        <time>2023-08-08T10:29:27.000Z</time>
      </trkpt>
      <trkpt lat="45.47753" lon="6.21216">
        <ele>1060.5999755859</ele>
        <time>2023-08-08T10:29:31.000Z</time>
      </trkpt>
      <trkpt lat="45.47753" lon="6.21213">
        <ele>1060.5999755859</ele>
        <time>2023-08-08T10:29:35.000Z</time>
      </trkpt>
      <trkpt lat="45.47754" lon="6.21214">
        <ele>1060.5999755859</ele>
        <time>2023-08-08T10:29:49.000Z</time>
      </trkpt>
      <trkpt lat="45.47757" lon="6.21223">
        <ele>1061.8000488281</ele>
        <time>2023-08-08T10:29:58.000Z</time>
      </trkpt>
      <trkpt lat="45.4776" lon="6.21228">
        <ele>1063</ele>
        <time>2023-08-08T10:30:05.000Z</time>
      </trkpt>
      <trkpt lat="45.4776" lon="6.21229">
        <ele>1063.1999511719</ele>
        <time>2023-08-08T10:30:06.000Z</time>
      </trkpt>
      <trkpt lat="45.47762" lon="6.21232">
        <ele>1064</ele>
        <time>2023-08-08T10:30:11.000Z</time>
      </trkpt>
      <trkpt lat="45.47763" lon="6.21235">
        <ele>1065</ele>
        <time>2023-08-08T10:30:16.000Z</time>
      </trkpt>
      <trkpt lat="45.47763" lon="6.21237">
        <ele>1065.1999511719</ele>
        <time>2023-08-08T10:30:17.000Z</time>
      </trkpt>
      <trkpt lat="45.47764" lon="6.21245">
        <ele>1066.1999511719</ele>
        <time>2023-08-08T10:30:24.000Z</time>
      </trkpt>
      <trkpt lat="45.47764" lon="6.21248">
        <ele>1066.4000244141</ele>
        <time>2023-08-08T10:30:26.000Z</time>
      </trkpt>
      <trkpt lat="45.47765" lon="6.21251">
        <ele>1067.1999511719</ele>
        <time>2023-08-08T10:30:30.000Z</time>
      </trkpt>
      <trkpt lat="45.47766" lon="6.21257">
        <ele>1068.1999511719</ele>
        <time>2023-08-08T10:30:36.000Z</time>
      </trkpt>
      <trkpt lat="45.47766" lon="6.21259">
        <ele>1068.1999511719</ele>
        <time>2023-08-08T10:30:37.000Z</time>
      </trkpt>
      <trkpt lat="45.47768" lon="6.2127">
        <ele>1069.4000244141</ele>
        <time>2023-08-08T10:30:45.000Z</time>
      </trkpt>
      <trkpt lat="45.47771" lon="6.21283">
        <ele>1070.4000244141</ele>
        <time>2023-08-08T10:30:52.000Z</time>
      </trkpt>
      <trkpt lat="45.47772" lon="6.21286">
        <ele>1070.5999755859</ele>
        <time>2023-08-08T10:30:55.000Z</time>
      </trkpt>
      <trkpt lat="45.47772" lon="6.21299">
        <ele>1071.5999755859</ele>
        <time>2023-08-08T10:31:04.000Z</time>
      </trkpt>
      <trkpt lat="45.47772" lon="6.21307">
        <ele>1072.4000244141</ele>
        <time>2023-08-08T10:31:11.000Z</time>
      </trkpt>
      <trkpt lat="45.47772" lon="6.2131">
        <ele>1072.5999755859</ele>
        <time>2023-08-08T10:31:13.000Z</time>
      </trkpt>
      <trkpt lat="45.47774" lon="6.21315">
        <ele>1073.1999511719</ele>
        <time>2023-08-08T10:31:17.000Z</time>
      </trkpt>
      <trkpt lat="45.47775" lon="6.21317">
        <ele>1073.8000488281</ele>
        <time>2023-08-08T10:31:20.000Z</time>
      </trkpt>
      <trkpt lat="45.47776" lon="6.21321">
        <ele>1074.5999755859</ele>
        <time>2023-08-08T10:31:25.000Z</time>
      </trkpt>
      <trkpt lat="45.47775" lon="6.21323">
        <ele>1075</ele>
        <time>2023-08-08T10:31:27.000Z</time>
      </trkpt>
      <trkpt lat="45.47775" lon="6.2133">
        <ele>1076</ele>
        <time>2023-08-08T10:31:34.000Z</time>
      </trkpt>
      <trkpt lat="45.47775" lon="6.21336">
        <ele>1077</ele>
        <time>2023-08-08T10:31:41.000Z</time>
      </trkpt>
      <trkpt lat="45.47775" lon="6.21337">
        <ele>1077.1999511719</ele>
        <time>2023-08-08T10:31:42.000Z</time>
      </trkpt>
      <trkpt lat="45.47776" lon="6.21342">
        <ele>1078.1999511719</ele>
        <time>2023-08-08T10:31:48.000Z</time>
      </trkpt>
      <trkpt lat="45.47776" lon="6.21343">
        <ele>1078.4000244141</ele>
        <time>2023-08-08T10:31:49.000Z</time>
      </trkpt>
      <trkpt lat="45.47777" lon="6.21349">
        <ele>1079.1999511719</ele>
        <time>2023-08-08T10:31:55.000Z</time>
      </trkpt>
      <trkpt lat="45.47778" lon="6.21351">
        <ele>1079.5999755859</ele>
        <time>2023-08-08T10:31:57.000Z</time>
      </trkpt>
      <trkpt lat="45.4778" lon="6.21355">
        <ele>1080.4000244141</ele>
        <time>2023-08-08T10:32:03.000Z</time>
      </trkpt>
      <trkpt lat="45.4778" lon="6.21356">
        <ele>1080.5999755859</ele>
        <time>2023-08-08T10:32:04.000Z</time>
      </trkpt>
      <trkpt lat="45.47781" lon="6.2136">
        <ele>1081.5999755859</ele>
        <time>2023-08-08T10:32:10.000Z</time>
      </trkpt>
      <trkpt lat="45.47781" lon="6.21362">
        <ele>1082</ele>
        <time>2023-08-08T10:32:12.000Z</time>
      </trkpt>
      <trkpt lat="45.4778" lon="6.21367">
        <ele>1082.8000488281</ele>
        <time>2023-08-08T10:32:17.000Z</time>
      </trkpt>
      <trkpt lat="45.47781" lon="6.2137">
        <ele>1083.5999755859</ele>
        <time>2023-08-08T10:32:22.000Z</time>
      </trkpt>
      <trkpt lat="45.47781" lon="6.21371">
        <ele>1084</ele>
        <time>2023-08-08T10:32:24.000Z</time>
      </trkpt>
      <trkpt lat="45.47786" lon="6.21376">
        <ele>1085</ele>
        <time>2023-08-08T10:32:31.000Z</time>
      </trkpt>
      <trkpt lat="45.47789" lon="6.21379">
        <ele>1086</ele>
        <time>2023-08-08T10:32:38.000Z</time>
      </trkpt>
      <trkpt lat="45.47789" lon="6.2138">
        <ele>1086.1999511719</ele>
        <time>2023-08-08T10:32:39.000Z</time>
      </trkpt>
      <trkpt lat="45.4779" lon="6.21385">
        <ele>1087.1999511719</ele>
        <time>2023-08-08T10:32:44.000Z</time>
      </trkpt>
      <trkpt lat="45.47792" lon="6.21393">
        <ele>1088</ele>
        <time>2023-08-08T10:32:50.000Z</time>
      </trkpt>
      <trkpt lat="45.47792" lon="6.21394">
        <ele>1088.1999511719</ele>
        <time>2023-08-08T10:32:51.000Z</time>
      </trkpt>
      <trkpt lat="45.47794" lon="6.21397">
        <ele>1089.1999511719</ele>
        <time>2023-08-08T10:32:57.000Z</time>
      </trkpt>
      <trkpt lat="45.47794" lon="6.21399">
        <ele>1089.4000244141</ele>
        <time>2023-08-08T10:32:59.000Z</time>
      </trkpt>
      <trkpt lat="45.47796" lon="6.21406">
        <ele>1090.1999511719</ele>
        <time>2023-08-08T10:33:05.000Z</time>
      </trkpt>
      <trkpt lat="45.47797" lon="6.21408">
        <ele>1090.5999755859</ele>
        <time>2023-08-08T10:33:07.000Z</time>
      </trkpt>
      <trkpt lat="45.47797" lon="6.21412">
        <ele>1091.4000244141</ele>
        <time>2023-08-08T10:33:11.000Z</time>
      </trkpt>
      <trkpt lat="45.47797" lon="6.21414">
        <ele>1092</ele>
        <time>2023-08-08T10:33:15.000Z</time>
      </trkpt>
      <trkpt lat="45.47796" lon="6.21417">
        <ele>1092.4000244141</ele>
        <time>2023-08-08T10:33:17.000Z</time>
      </trkpt>
      <trkpt lat="45.47795" lon="6.21422">
        <ele>1093.4000244141</ele>
        <time>2023-08-08T10:33:23.000Z</time>
      </trkpt>
      <trkpt lat="45.47795" lon="6.21423">
        <ele>1093.5999755859</ele>
        <time>2023-08-08T10:33:24.000Z</time>
      </trkpt>
      <trkpt lat="45.47794" lon="6.21429">
        <ele>1094.5999755859</ele>
        <time>2023-08-08T10:33:30.000Z</time>
      </trkpt>
      <trkpt lat="45.47794" lon="6.21433">
        <ele>1095.4000244141</ele>
        <time>2023-08-08T10:33:35.000Z</time>
      </trkpt>
      <trkpt lat="45.47794" lon="6.21434">
        <ele>1095.5999755859</ele>
        <time>2023-08-08T10:33:36.000Z</time>
      </trkpt>
      <trkpt lat="45.47794" lon="6.21441">
        <ele>1096.5999755859</ele>
        <time>2023-08-08T10:33:42.000Z</time>
      </trkpt>
      <trkpt lat="45.47795" lon="6.21444">
        <ele>1097</ele>
        <time>2023-08-08T10:33:44.000Z</time>
      </trkpt>
      <trkpt lat="45.47795" lon="6.21449">
        <ele>1097.8000488281</ele>
        <time>2023-08-08T10:33:50.000Z</time>
      </trkpt>
      <trkpt lat="45.47795" lon="6.21451">
        <ele>1098</ele>
        <time>2023-08-08T10:33:52.000Z</time>
      </trkpt>
      <trkpt lat="45.47795" lon="6.21453">
        <ele>1098.8000488281</ele>
        <time>2023-08-08T10:33:56.000Z</time>
      </trkpt>
      <trkpt lat="45.47796" lon="6.21458">
        <ele>1099.5999755859</ele>
        <time>2023-08-08T10:34:02.000Z</time>
      </trkpt>
      <trkpt lat="45.47796" lon="6.21459">
        <ele>1099.8000488281</ele>
        <time>2023-08-08T10:34:03.000Z</time>
      </trkpt>
      <trkpt lat="45.47797" lon="6.21463">
        <ele>1101</ele>
        <time>2023-08-08T10:34:10.000Z</time>
      </trkpt>
      <trkpt lat="45.47797" lon="6.21467">
        <ele>1102</ele>
        <time>2023-08-08T10:34:17.000Z</time>
      </trkpt>
      <trkpt lat="45.47797" lon="6.21471">
        <ele>1102.8000488281</ele>
        <time>2023-08-08T10:34:21.000Z</time>
      </trkpt>
      <trkpt lat="45.47798" lon="6.21473">
        <ele>1103.1999511719</ele>
        <time>2023-08-08T10:34:23.000Z</time>
      </trkpt>
      <trkpt lat="45.478" lon="6.21479">
        <ele>1104.4000244141</ele>
        <time>2023-08-08T10:34:30.000Z</time>
      </trkpt>
      <trkpt lat="45.47801" lon="6.21485">
        <ele>1105.4000244141</ele>
        <time>2023-08-08T10:34:36.000Z</time>
      </trkpt>
      <trkpt lat="45.47803" lon="6.21491">
        <ele>1106</ele>
        <time>2023-08-08T10:34:40.000Z</time>
      </trkpt>
      <trkpt lat="45.47804" lon="6.21495">
        <ele>1106.5999755859</ele>
        <time>2023-08-08T10:34:44.000Z</time>
      </trkpt>
      <trkpt lat="45.47805" lon="6.21499">
        <ele>1107.5999755859</ele>
        <time>2023-08-08T10:34:50.000Z</time>
      </trkpt>
      <trkpt lat="45.47805" lon="6.21499">
        <ele>1107.8000488281</ele>
        <time>2023-08-08T10:34:51.000Z</time>
      </trkpt>
      <trkpt lat="45.47806" lon="6.21504">
        <ele>1108.8000488281</ele>
        <time>2023-08-08T10:34:57.000Z</time>
      </trkpt>
      <trkpt lat="45.47807" lon="6.21507">
        <ele>1109.1999511719</ele>
        <time>2023-08-08T10:34:59.000Z</time>
      </trkpt>
      <trkpt lat="45.47808" lon="6.21511">
        <ele>1109.8000488281</ele>
        <time>2023-08-08T10:35:03.000Z</time>
      </trkpt>
      <trkpt lat="45.4781" lon="6.21515">
        <ele>1110.5999755859</ele>
        <time>2023-08-08T10:35:08.000Z</time>
      </trkpt>
      <trkpt lat="45.4781" lon="6.21515">
        <ele>1110.8000488281</ele>
        <time>2023-08-08T10:35:09.000Z</time>
      </trkpt>
      <trkpt lat="45.47813" lon="6.2152">
        <ele>1112</ele>
        <time>2023-08-08T10:35:15.000Z</time>
      </trkpt>
      <trkpt lat="45.47814" lon="6.21521">
        <ele>1112.1999511719</ele>
        <time>2023-08-08T10:35:17.000Z</time>
      </trkpt>
      <trkpt lat="45.47815" lon="6.21524">
        <ele>1113</ele>
        <time>2023-08-08T10:35:22.000Z</time>
      </trkpt>
      <trkpt lat="45.47816" lon="6.21528">
        <ele>1113.5999755859</ele>
        <time>2023-08-08T10:35:27.000Z</time>
      </trkpt>
      <trkpt lat="45.47816" lon="6.21531">
        <ele>1114</ele>
        <time>2023-08-08T10:35:29.000Z</time>
      </trkpt>
      <trkpt lat="45.47817" lon="6.21535">
        <ele>1115</ele>
        <time>2023-08-08T10:35:35.000Z</time>
      </trkpt>
      <trkpt lat="45.47817" lon="6.21536">
        <ele>1115</ele>
        <time>2023-08-08T10:35:36.000Z</time>
      </trkpt>
      <trkpt lat="45.47816" lon="6.21544">
        <ele>1116.1999511719</ele>
        <time>2023-08-08T10:35:43.000Z</time>
      </trkpt>
      <trkpt lat="45.47815" lon="6.21545">
        <ele>1116.4000244141</ele>
        <time>2023-08-08T10:35:44.000Z</time>
      </trkpt>
      <trkpt lat="45.47815" lon="6.21551">
        <ele>1117.4000244141</ele>
        <time>2023-08-08T10:35:50.000Z</time>
      </trkpt>
      <trkpt lat="45.47815" lon="6.21556">
        <ele>1117.8000488281</ele>
        <time>2023-08-08T10:35:54.000Z</time>
      </trkpt>
      <trkpt lat="45.47816" lon="6.21559">
        <ele>1118.4000244141</ele>
        <time>2023-08-08T10:35:57.000Z</time>
      </trkpt>
      <trkpt lat="45.47818" lon="6.21564">
        <ele>1119.4000244141</ele>
        <time>2023-08-08T10:36:03.000Z</time>
      </trkpt>
      <trkpt lat="45.4782" lon="6.21569">
        <ele>1120.4000244141</ele>
        <time>2023-08-08T10:36:09.000Z</time>
      </trkpt>
      <trkpt lat="45.47821" lon="6.21573">
        <ele>1120.8000488281</ele>
        <time>2023-08-08T10:36:12.000Z</time>
      </trkpt>
      <trkpt lat="45.47822" lon="6.21578">
        <ele>1121.4000244141</ele>
        <time>2023-08-08T10:36:16.000Z</time>
      </trkpt>
      <trkpt lat="45.47824" lon="6.21579">
        <ele>1121.8000488281</ele>
        <time>2023-08-08T10:36:19.000Z</time>
      </trkpt>
      <trkpt lat="45.47826" lon="6.21585">
        <ele>1122.4000244141</ele>
        <time>2023-08-08T10:36:24.000Z</time>
      </trkpt>
      <trkpt lat="45.47827" lon="6.21587">
        <ele>1123</ele>
        <time>2023-08-08T10:36:27.000Z</time>
      </trkpt>
      <trkpt lat="45.47831" lon="6.21585">
        <ele>1123.5999755859</ele>
        <time>2023-08-08T10:36:31.000Z</time>
      </trkpt>
      <trkpt lat="45.47833" lon="6.21589">
        <ele>1124.5999755859</ele>
        <time>2023-08-08T10:36:37.000Z</time>
      </trkpt>
      <trkpt lat="45.47834" lon="6.21589">
        <ele>1124.8000488281</ele>
        <time>2023-08-08T10:36:38.000Z</time>
      </trkpt>
      <trkpt lat="45.47839" lon="6.21589">
        <ele>1124.8000488281</ele>
        <time>2023-08-08T10:36:45.000Z</time>
      </trkpt>
      <trkpt lat="45.47837" lon="6.21589">
        <ele>1124.5999755859</ele>
        <time>2023-08-08T10:36:53.000Z</time>
      </trkpt>
      <trkpt lat="45.47832" lon="6.2159">
        <ele>1124.4000244141</ele>
        <time>2023-08-08T10:37:06.000Z</time>
      </trkpt>
      <trkpt lat="45.47829" lon="6.21598">
        <ele>1124.4000244141</ele>
        <time>2023-08-08T10:37:14.000Z</time>
      </trkpt>
      <trkpt lat="45.47832" lon="6.21604">
        <ele>1124.8000488281</ele>
        <time>2023-08-08T10:37:22.000Z</time>
      </trkpt>
      <trkpt lat="45.47833" lon="6.21609">
        <ele>1125.8000488281</ele>
        <time>2023-08-08T10:37:27.000Z</time>
      </trkpt>
      <trkpt lat="45.47834" lon="6.21611">
        <ele>1126.1999511719</ele>
        <time>2023-08-08T10:37:29.000Z</time>
      </trkpt>
      <trkpt lat="45.47834" lon="6.21617">
        <ele>1127</ele>
        <time>2023-08-08T10:37:34.000Z</time>
      </trkpt>
      <trkpt lat="45.47835" lon="6.2162">
        <ele>1127.4000244141</ele>
        <time>2023-08-08T10:37:37.000Z</time>
      </trkpt>
      <trkpt lat="45.47835" lon="6.21626">
        <ele>1128</ele>
        <time>2023-08-08T10:37:41.000Z</time>
      </trkpt>
      <trkpt lat="45.47835" lon="6.21632">
        <ele>1129</ele>
        <time>2023-08-08T10:37:46.000Z</time>
      </trkpt>
      <trkpt lat="45.47836" lon="6.21633">
        <ele>1129.1999511719</ele>
        <time>2023-08-08T10:37:47.000Z</time>
      </trkpt>
      <trkpt lat="45.47836" lon="6.21641">
        <ele>1130.1999511719</ele>
        <time>2023-08-08T10:37:53.000Z</time>
      </trkpt>
      <trkpt lat="45.47837" lon="6.21642">
        <ele>1130.4000244141</ele>
        <time>2023-08-08T10:37:54.000Z</time>
      </trkpt>
      <trkpt lat="45.47837" lon="6.21648">
        <ele>1131.4000244141</ele>
        <time>2023-08-08T10:37:59.000Z</time>
      </trkpt>
      <trkpt lat="45.47837" lon="6.21649">
        <ele>1132.1999511719</ele>
        <time>2023-08-08T10:38:03.000Z</time>
      </trkpt>
      <trkpt lat="45.47837" lon="6.21651">
        <ele>1132.5999755859</ele>
        <time>2023-08-08T10:38:05.000Z</time>
      </trkpt>
      <trkpt lat="45.47837" lon="6.21656">
        <ele>1133.1999511719</ele>
        <time>2023-08-08T10:38:10.000Z</time>
      </trkpt>
      <trkpt lat="45.47837" lon="6.21658">
        <ele>1133.5999755859</ele>
        <time>2023-08-08T10:38:12.000Z</time>
      </trkpt>
      <trkpt lat="45.47835" lon="6.21664">
        <ele>1134.4000244141</ele>
        <time>2023-08-08T10:38:17.000Z</time>
      </trkpt>
      <trkpt lat="45.47835" lon="6.21666">
        <ele>1134.8000488281</ele>
        <time>2023-08-08T10:38:19.000Z</time>
      </trkpt>
      <trkpt lat="45.47835" lon="6.2167">
        <ele>1135.8000488281</ele>
        <time>2023-08-08T10:38:25.000Z</time>
      </trkpt>
      <trkpt lat="45.47835" lon="6.21674">
        <ele>1136.1999511719</ele>
        <time>2023-08-08T10:38:29.000Z</time>
      </trkpt>
      <trkpt lat="45.47835" lon="6.21678">
        <ele>1136.8000488281</ele>
        <time>2023-08-08T10:38:33.000Z</time>
      </trkpt>
      <trkpt lat="45.47837" lon="6.21682">
        <ele>1137.8000488281</ele>
        <time>2023-08-08T10:38:39.000Z</time>
      </trkpt>
      <trkpt lat="45.47837" lon="6.21682">
        <ele>1138</ele>
        <time>2023-08-08T10:38:40.000Z</time>
      </trkpt>
      <trkpt lat="45.47839" lon="6.21689">
        <ele>1139.1999511719</ele>
        <time>2023-08-08T10:38:48.000Z</time>
      </trkpt>
      <trkpt lat="45.47837" lon="6.21694">
        <ele>1140.4000244141</ele>
        <time>2023-08-08T10:38:56.000Z</time>
      </trkpt>
      <trkpt lat="45.47837" lon="6.21697">
        <ele>1140.8000488281</ele>
        <time>2023-08-08T10:38:59.000Z</time>
      </trkpt>
      <trkpt lat="45.47837" lon="6.21701">
        <ele>1141.4000244141</ele>
        <time>2023-08-08T10:39:03.000Z</time>
      </trkpt>
      <trkpt lat="45.47837" lon="6.21706">
        <ele>1142.4000244141</ele>
        <time>2023-08-08T10:39:09.000Z</time>
      </trkpt>
      <trkpt lat="45.47837" lon="6.21706">
        <ele>1142.5999755859</ele>
        <time>2023-08-08T10:39:10.000Z</time>
      </trkpt>
      <trkpt lat="45.47835" lon="6.2171">
        <ele>1143.8000488281</ele>
        <time>2023-08-08T10:39:17.000Z</time>
      </trkpt>
      <trkpt lat="45.47835" lon="6.21711">
        <ele>1144</ele>
        <time>2023-08-08T10:39:18.000Z</time>
      </trkpt>
      <trkpt lat="45.47831" lon="6.21717">
        <ele>1144.8000488281</ele>
        <time>2023-08-08T10:39:24.000Z</time>
      </trkpt>
      <trkpt lat="45.47829" lon="6.2172">
        <ele>1145.4000244141</ele>
        <time>2023-08-08T10:39:28.000Z</time>
      </trkpt>
      <trkpt lat="45.47829" lon="6.21721">
        <ele>1145.8000488281</ele>
        <time>2023-08-08T10:39:31.000Z</time>
      </trkpt>
      <trkpt lat="45.47828" lon="6.21726">
        <ele>1146.8000488281</ele>
        <time>2023-08-08T10:39:36.000Z</time>
      </trkpt>
      <trkpt lat="45.47827" lon="6.21727">
        <ele>1147</ele>
        <time>2023-08-08T10:39:37.000Z</time>
      </trkpt>
      <trkpt lat="45.47822" lon="6.21728">
        <ele>1148.4000244141</ele>
        <time>2023-08-08T10:39:46.000Z</time>
      </trkpt>
      <trkpt lat="45.4781" lon="6.21722">
        <ele>1151.4000244141</ele>
        <time>2023-08-08T10:40:03.000Z</time>
      </trkpt>
      <trkpt lat="45.47807" lon="6.21718">
        <ele>1151.8000488281</ele>
        <time>2023-08-08T10:40:06.000Z</time>
      </trkpt>
      <trkpt lat="45.47807" lon="6.21712">
        <ele>1152.4000244141</ele>
        <time>2023-08-08T10:40:09.000Z</time>
      </trkpt>
      <trkpt lat="45.47806" lon="6.21709">
        <ele>1152.5999755859</ele>
        <time>2023-08-08T10:40:12.000Z</time>
      </trkpt>
      <trkpt lat="45.47804" lon="6.21703">
        <ele>1153.4000244141</ele>
        <time>2023-08-08T10:40:17.000Z</time>
      </trkpt>
      <trkpt lat="45.47803" lon="6.21701">
        <ele>1153.4000244141</ele>
        <time>2023-08-08T10:40:19.000Z</time>
      </trkpt>
      <trkpt lat="45.478" lon="6.21697">
        <ele>1154.1999511719</ele>
        <time>2023-08-08T10:40:25.000Z</time>
      </trkpt>
      <trkpt lat="45.47796" lon="6.21693">
        <ele>1154.5999755859</ele>
        <time>2023-08-08T10:40:29.000Z</time>
      </trkpt>
      <trkpt lat="45.47792" lon="6.21689">
        <ele>1154.8000488281</ele>
        <time>2023-08-08T10:40:33.000Z</time>
      </trkpt>
      <trkpt lat="45.47787" lon="6.21687">
        <ele>1155.1999511719</ele>
        <time>2023-08-08T10:40:39.000Z</time>
      </trkpt>
      <trkpt lat="45.47786" lon="6.21688">
        <ele>1155.5999755859</ele>
        <time>2023-08-08T10:40:43.000Z</time>
      </trkpt>
      <trkpt lat="45.47784" lon="6.21689">
        <ele>1155.5999755859</ele>
        <time>2023-08-08T10:40:51.000Z</time>
      </trkpt>
      <trkpt lat="45.47782" lon="6.21689">
        <ele>1155.4000244141</ele>
        <time>2023-08-08T10:41:03.000Z</time>
      </trkpt>
      <trkpt lat="45.4778" lon="6.21688">
        <ele>1156.5999755859</ele>
        <time>2023-08-08T10:41:08.000Z</time>
      </trkpt>
      <trkpt lat="45.47777" lon="6.21685">
        <ele>1157.5999755859</ele>
        <time>2023-08-08T10:41:13.000Z</time>
      </trkpt>
      <trkpt lat="45.47775" lon="6.21682">
        <ele>1158.8000488281</ele>
        <time>2023-08-08T10:41:20.000Z</time>
      </trkpt>
      <trkpt lat="45.47774" lon="6.21678">
        <ele>1159.8000488281</ele>
        <time>2023-08-08T10:41:26.000Z</time>
      </trkpt>
      <trkpt lat="45.47774" lon="6.21676">
        <ele>1160.4000244141</ele>
        <time>2023-08-08T10:41:28.000Z</time>
      </trkpt>
      <trkpt lat="45.47773" lon="6.21674">
        <ele>1160.8000488281</ele>
        <time>2023-08-08T10:41:32.000Z</time>
      </trkpt>
      <trkpt lat="45.47772" lon="6.21674">
        <ele>1161</ele>
        <time>2023-08-08T10:41:34.000Z</time>
      </trkpt>
      <trkpt lat="45.47772" lon="6.21671">
        <ele>1162</ele>
        <time>2023-08-08T10:41:40.000Z</time>
      </trkpt>
      <trkpt lat="45.47769" lon="6.2167">
        <ele>1162.5999755859</ele>
        <time>2023-08-08T10:41:44.000Z</time>
      </trkpt>
      <trkpt lat="45.47768" lon="6.21668">
        <ele>1163</ele>
        <time>2023-08-08T10:41:47.000Z</time>
      </trkpt>
      <trkpt lat="45.47766" lon="6.21663">
        <ele>1163.5999755859</ele>
        <time>2023-08-08T10:41:52.000Z</time>
      </trkpt>
      <trkpt lat="45.47765" lon="6.21659">
        <ele>1164</ele>
        <time>2023-08-08T10:41:55.000Z</time>
      </trkpt>
      <trkpt lat="45.47761" lon="6.21656">
        <ele>1164.4000244141</ele>
        <time>2023-08-08T10:41:59.000Z</time>
      </trkpt>
      <trkpt lat="45.47761" lon="6.21651">
        <ele>1165.1999511719</ele>
        <time>2023-08-08T10:42:04.000Z</time>
      </trkpt>
      <trkpt lat="45.47758" lon="6.21652">
        <ele>1165.8000488281</ele>
        <time>2023-08-08T10:42:08.000Z</time>
      </trkpt>
      <trkpt lat="45.47756" lon="6.2165">
        <ele>1166.1999511719</ele>
        <time>2023-08-08T10:42:11.000Z</time>
      </trkpt>
      <trkpt lat="45.47755" lon="6.21647">
        <ele>1166.8000488281</ele>
        <time>2023-08-08T10:42:16.000Z</time>
      </trkpt>
      <trkpt lat="45.47755" lon="6.21646">
        <ele>1167.1999511719</ele>
        <time>2023-08-08T10:42:19.000Z</time>
      </trkpt>
      <trkpt lat="45.47752" lon="6.21648">
        <ele>1168</ele>
        <time>2023-08-08T10:42:24.000Z</time>
      </trkpt>
      <trkpt lat="45.47751" lon="6.21651">
        <ele>1168.4000244141</ele>
        <time>2023-08-08T10:42:27.000Z</time>
      </trkpt>
      <trkpt lat="45.47751" lon="6.21651">
        <ele>1169</ele>
        <time>2023-08-08T10:42:30.000Z</time>
      </trkpt>
      <trkpt lat="45.47751" lon="6.21652">
        <ele>1169.4000244141</ele>
        <time>2023-08-08T10:42:33.000Z</time>
      </trkpt>
      <trkpt lat="45.47752" lon="6.21654">
        <ele>1170</ele>
        <time>2023-08-08T10:42:36.000Z</time>
      </trkpt>
      <trkpt lat="45.47751" lon="6.21657">
        <ele>1170.4000244141</ele>
        <time>2023-08-08T10:42:39.000Z</time>
      </trkpt>
      <trkpt lat="45.47751" lon="6.2166">
        <ele>1171.1999511719</ele>
        <time>2023-08-08T10:42:44.000Z</time>
      </trkpt>
      <trkpt lat="45.47751" lon="6.21661">
        <ele>1171.5999755859</ele>
        <time>2023-08-08T10:42:47.000Z</time>
      </trkpt>
      <trkpt lat="45.47752" lon="6.21664">
        <ele>1172</ele>
        <time>2023-08-08T10:42:50.000Z</time>
      </trkpt>
      <trkpt lat="45.47753" lon="6.21671">
        <ele>1172.5999755859</ele>
        <time>2023-08-08T10:42:56.000Z</time>
      </trkpt>
      <trkpt lat="45.47753" lon="6.21672">
        <ele>1172.8000488281</ele>
        <time>2023-08-08T10:42:57.000Z</time>
      </trkpt>
      <trkpt lat="45.47755" lon="6.21676">
        <ele>1173.5999755859</ele>
        <time>2023-08-08T10:43:03.000Z</time>
      </trkpt>
      <trkpt lat="45.47755" lon="6.21678">
        <ele>1173.8000488281</ele>
        <time>2023-08-08T10:43:05.000Z</time>
      </trkpt>
      <trkpt lat="45.47755" lon="6.21684">
        <ele>1174.5999755859</ele>
        <time>2023-08-08T10:43:11.000Z</time>
      </trkpt>
      <trkpt lat="45.47755" lon="6.21689">
        <ele>1175</ele>
        <time>2023-08-08T10:43:15.000Z</time>
      </trkpt>
      <trkpt lat="45.47755" lon="6.21691">
        <ele>1175</ele>
        <time>2023-08-08T10:43:16.000Z</time>
      </trkpt>
      <trkpt lat="45.47757" lon="6.21695">
        <ele>1176</ele>
        <time>2023-08-08T10:43:24.000Z</time>
      </trkpt>
      <trkpt lat="45.47759" lon="6.21698">
        <ele>1177</ele>
        <time>2023-08-08T10:43:31.000Z</time>
      </trkpt>
      <trkpt lat="45.4776" lon="6.21704">
        <ele>1177.4000244141</ele>
        <time>2023-08-08T10:43:37.000Z</time>
      </trkpt>
      <trkpt lat="45.47762" lon="6.2171">
        <ele>1177.8000488281</ele>
        <time>2023-08-08T10:43:42.000Z</time>
      </trkpt>
      <trkpt lat="45.47762" lon="6.21711">
        <ele>1178</ele>
        <time>2023-08-08T10:43:44.000Z</time>
      </trkpt>
      <trkpt lat="45.47763" lon="6.21717">
        <ele>1178.5999755859</ele>
        <time>2023-08-08T10:43:50.000Z</time>
      </trkpt>
      <trkpt lat="45.47763" lon="6.21718">
        <ele>1179</ele>
        <time>2023-08-08T10:43:53.000Z</time>
      </trkpt>
      <trkpt lat="45.47764" lon="6.2172">
        <ele>1179.8000488281</ele>
        <time>2023-08-08T10:43:57.000Z</time>
      </trkpt>
      <trkpt lat="45.47765" lon="6.21722">
        <ele>1180.1999511719</ele>
        <time>2023-08-08T10:43:59.000Z</time>
      </trkpt>
      <trkpt lat="45.47766" lon="6.21725">
        <ele>1181</ele>
        <time>2023-08-08T10:44:04.000Z</time>
      </trkpt>
      <trkpt lat="45.47767" lon="6.2173">
        <ele>1181.1999511719</ele>
        <time>2023-08-08T10:44:07.000Z</time>
      </trkpt>
      <trkpt lat="45.47768" lon="6.21731">
        <ele>1181.5999755859</ele>
        <time>2023-08-08T10:44:09.000Z</time>
      </trkpt>
      <trkpt lat="45.47768" lon="6.21736">
        <ele>1182.4000244141</ele>
        <time>2023-08-08T10:44:14.000Z</time>
      </trkpt>
      <trkpt lat="45.47769" lon="6.21739">
        <ele>1182.5999755859</ele>
        <time>2023-08-08T10:44:17.000Z</time>
      </trkpt>
      <trkpt lat="45.4777" lon="6.21746">
        <ele>1183.4000244141</ele>
        <time>2023-08-08T10:44:24.000Z</time>
      </trkpt>
      <trkpt lat="45.47769" lon="6.21755">
        <ele>1184.1999511719</ele>
        <time>2023-08-08T10:44:32.000Z</time>
      </trkpt>
      <trkpt lat="45.47769" lon="6.21755">
        <ele>1184.4000244141</ele>
        <time>2023-08-08T10:44:34.000Z</time>
      </trkpt>
      <trkpt lat="45.47764" lon="6.21759">
        <ele>1185.4000244141</ele>
        <time>2023-08-08T10:44:42.000Z</time>
      </trkpt>
      <trkpt lat="45.47764" lon="6.2176">
        <ele>1185.4000244141</ele>
        <time>2023-08-08T10:44:43.000Z</time>
      </trkpt>
      <trkpt lat="45.4776" lon="6.21767">
        <ele>1186.4000244141</ele>
        <time>2023-08-08T10:44:52.000Z</time>
      </trkpt>
      <trkpt lat="45.47752" lon="6.21772">
        <ele>1188</ele>
        <time>2023-08-08T10:45:14.000Z</time>
      </trkpt>
      <trkpt lat="45.4775" lon="6.21772">
        <ele>1187.8000488281</ele>
        <time>2023-08-08T10:45:19.000Z</time>
      </trkpt>
      <trkpt lat="45.47747" lon="6.21778">
        <ele>1188.1999511719</ele>
        <time>2023-08-08T10:45:57.000Z</time>
      </trkpt>
      <trkpt lat="45.47741" lon="6.2178">
        <ele>1190</ele>
        <time>2023-08-08T10:46:09.000Z</time>
      </trkpt>
      <trkpt lat="45.47738" lon="6.21781">
        <ele>1191.1999511719</ele>
        <time>2023-08-08T10:46:15.000Z</time>
      </trkpt>
      <trkpt lat="45.4773" lon="6.21786">
        <ele>1194</ele>
        <time>2023-08-08T10:46:31.000Z</time>
      </trkpt>
      <trkpt lat="45.47731" lon="6.21788">
        <ele>1195.5999755859</ele>
        <time>2023-08-08T10:46:38.000Z</time>
      </trkpt>
      <trkpt lat="45.47728" lon="6.21784">
        <ele>1199</ele>
        <time>2023-08-08T10:46:56.000Z</time>
      </trkpt>
      <trkpt lat="45.47728" lon="6.21782">
        <ele>1199.1999511719</ele>
        <time>2023-08-08T10:46:58.000Z</time>
      </trkpt>
      <trkpt lat="45.47728" lon="6.2178">
        <ele>1200.1999511719</ele>
        <time>2023-08-08T10:47:02.000Z</time>
      </trkpt>
      <trkpt lat="45.47729" lon="6.21778">
        <ele>1200.8000488281</ele>
        <time>2023-08-08T10:47:06.000Z</time>
      </trkpt>
      <trkpt lat="45.47728" lon="6.21778">
        <ele>1201.1999511719</ele>
        <time>2023-08-08T10:47:08.000Z</time>
      </trkpt>
      <trkpt lat="45.47726" lon="6.21775">
        <ele>1202.4000244141</ele>
        <time>2023-08-08T10:47:14.000Z</time>
      </trkpt>
      <trkpt lat="45.47726" lon="6.21771">
        <ele>1203.5999755859</ele>
        <time>2023-08-08T10:47:20.000Z</time>
      </trkpt>
      <trkpt lat="45.47726" lon="6.2177">
        <ele>1203.8000488281</ele>
        <time>2023-08-08T10:47:21.000Z</time>
      </trkpt>
      <trkpt lat="45.47725" lon="6.21764">
        <ele>1204.5999755859</ele>
        <time>2023-08-08T10:47:28.000Z</time>
      </trkpt>
      <trkpt lat="45.47725" lon="6.21763">
        <ele>1204.8000488281</ele>
        <time>2023-08-08T10:47:29.000Z</time>
      </trkpt>
      <trkpt lat="45.47723" lon="6.2176">
        <ele>1205.5999755859</ele>
        <time>2023-08-08T10:47:36.000Z</time>
      </trkpt>
      <trkpt lat="45.47719" lon="6.21756">
        <ele>1206.8000488281</ele>
        <time>2023-08-08T10:47:42.000Z</time>
      </trkpt>
      <trkpt lat="45.47717" lon="6.21753">
        <ele>1207</ele>
        <time>2023-08-08T10:47:46.000Z</time>
      </trkpt>
      <trkpt lat="45.47717" lon="6.21745">
        <ele>1207.8000488281</ele>
        <time>2023-08-08T10:47:52.000Z</time>
      </trkpt>
      <trkpt lat="45.47715" lon="6.21744">
        <ele>1208</ele>
        <time>2023-08-08T10:47:54.000Z</time>
      </trkpt>
      <trkpt lat="45.4771" lon="6.21739">
        <ele>1208.8000488281</ele>
        <time>2023-08-08T10:48:02.000Z</time>
      </trkpt>
      <trkpt lat="45.4771" lon="6.21738">
        <ele>1208.8000488281</ele>
        <time>2023-08-08T10:48:03.000Z</time>
      </trkpt>
      <trkpt lat="45.47706" lon="6.21733">
        <ele>1209.5999755859</ele>
        <time>2023-08-08T10:48:10.000Z</time>
      </trkpt>
      <trkpt lat="45.47705" lon="6.21731">
        <ele>1210</ele>
        <time>2023-08-08T10:48:13.000Z</time>
      </trkpt>
      <trkpt lat="45.47702" lon="6.21729">
        <ele>1210.5999755859</ele>
        <time>2023-08-08T10:48:18.000Z</time>
      </trkpt>
      <trkpt lat="45.47702" lon="6.21728">
        <ele>1211</ele>
        <time>2023-08-08T10:48:20.000Z</time>
      </trkpt>
      <trkpt lat="45.47698" lon="6.21727">
        <ele>1212</ele>
        <time>2023-08-08T10:48:26.000Z</time>
      </trkpt>
      <trkpt lat="45.47695" lon="6.21723">
        <ele>1213</ele>
        <time>2023-08-08T10:48:33.000Z</time>
      </trkpt>
      <trkpt lat="45.47694" lon="6.21721">
        <ele>1213.4000244141</ele>
        <time>2023-08-08T10:48:35.000Z</time>
      </trkpt>
      <trkpt lat="45.47694" lon="6.21717">
        <ele>1214</ele>
        <time>2023-08-08T10:48:40.000Z</time>
      </trkpt>
      <trkpt lat="45.47693" lon="6.21716">
        <ele>1215</ele>
        <time>2023-08-08T10:48:46.000Z</time>
      </trkpt>
      <trkpt lat="45.47693" lon="6.21716">
        <ele>1215.1999511719</ele>
        <time>2023-08-08T10:48:47.000Z</time>
      </trkpt>
      <trkpt lat="45.4769" lon="6.21716">
        <ele>1216.1999511719</ele>
        <time>2023-08-08T10:48:54.000Z</time>
      </trkpt>
      <trkpt lat="45.47681" lon="6.21716">
        <ele>1217.4000244141</ele>
        <time>2023-08-08T10:49:01.000Z</time>
      </trkpt>
      <trkpt lat="45.47678" lon="6.21712">
        <ele>1218.5999755859</ele>
        <time>2023-08-08T10:49:09.000Z</time>
      </trkpt>
      <trkpt lat="45.47676" lon="6.2171">
        <ele>1219.5999755859</ele>
        <time>2023-08-08T10:49:15.000Z</time>
      </trkpt>
      <trkpt lat="45.47674" lon="6.21711">
        <ele>1220</ele>
        <time>2023-08-08T10:49:16.000Z</time>
      </trkpt>
      <trkpt lat="45.47672" lon="6.2171">
        <ele>1220.5999755859</ele>
        <time>2023-08-08T10:49:22.000Z</time>
      </trkpt>
      <trkpt lat="45.47671" lon="6.21709">
        <ele>1220.8000488281</ele>
        <time>2023-08-08T10:49:23.000Z</time>
      </trkpt>
      <trkpt lat="45.47669" lon="6.21706">
        <ele>1221.4000244141</ele>
        <time>2023-08-08T10:49:28.000Z</time>
      </trkpt>
      <trkpt lat="45.47669" lon="6.21704">
        <ele>1221.8000488281</ele>
        <time>2023-08-08T10:49:30.000Z</time>
      </trkpt>
      <trkpt lat="45.47668" lon="6.21702">
        <ele>1222.8000488281</ele>
        <time>2023-08-08T10:49:36.000Z</time>
      </trkpt>
      <trkpt lat="45.47668" lon="6.21702">
        <ele>1223</ele>
        <time>2023-08-08T10:49:37.000Z</time>
      </trkpt>
      <trkpt lat="45.47666" lon="6.21698">
        <ele>1224</ele>
        <time>2023-08-08T10:49:44.000Z</time>
      </trkpt>
      <trkpt lat="45.47666" lon="6.21697">
        <ele>1224.4000244141</ele>
        <time>2023-08-08T10:49:46.000Z</time>
      </trkpt>
      <trkpt lat="45.47663" lon="6.21696">
        <ele>1225.1999511719</ele>
        <time>2023-08-08T10:49:51.000Z</time>
      </trkpt>
      <trkpt lat="45.47661" lon="6.21695">
        <ele>1225.5999755859</ele>
        <time>2023-08-08T10:49:54.000Z</time>
      </trkpt>
      <trkpt lat="45.47659" lon="6.21692">
        <ele>1226.1999511719</ele>
        <time>2023-08-08T10:49:58.000Z</time>
      </trkpt>
      <trkpt lat="45.47656" lon="6.21689">
        <ele>1226.8000488281</ele>
        <time>2023-08-08T10:50:02.000Z</time>
      </trkpt>
      <trkpt lat="45.47655" lon="6.21685">
        <ele>1227.1999511719</ele>
        <time>2023-08-08T10:50:05.000Z</time>
      </trkpt>
      <trkpt lat="45.47654" lon="6.21682">
        <ele>1227.5999755859</ele>
        <time>2023-08-08T10:50:09.000Z</time>
      </trkpt>
      <trkpt lat="45.47653" lon="6.2168">
        <ele>1228.4000244141</ele>
        <time>2023-08-08T10:50:13.000Z</time>
      </trkpt>
      <trkpt lat="45.47651" lon="6.2168">
        <ele>1228.8000488281</ele>
        <time>2023-08-08T10:50:16.000Z</time>
      </trkpt>
      <trkpt lat="45.47649" lon="6.21678">
        <ele>1229.4000244141</ele>
        <time>2023-08-08T10:50:20.000Z</time>
      </trkpt>
      <trkpt lat="45.47648" lon="6.21676">
        <ele>1230.5999755859</ele>
        <time>2023-08-08T10:50:27.000Z</time>
      </trkpt>
      <trkpt lat="45.47644" lon="6.2168">
        <ele>1231.5999755859</ele>
        <time>2023-08-08T10:50:34.000Z</time>
      </trkpt>
      <trkpt lat="45.47642" lon="6.21683">
        <ele>1232.8000488281</ele>
        <time>2023-08-08T10:50:41.000Z</time>
      </trkpt>
      <trkpt lat="45.47642" lon="6.21686">
        <ele>1233.8000488281</ele>
        <time>2023-08-08T10:50:47.000Z</time>
      </trkpt>
      <trkpt lat="45.47643" lon="6.21687">
        <ele>1234.1999511719</ele>
        <time>2023-08-08T10:50:49.000Z</time>
      </trkpt>
      <trkpt lat="45.47643" lon="6.21688">
        <ele>1234.8000488281</ele>
        <time>2023-08-08T10:50:52.000Z</time>
      </trkpt>
      <trkpt lat="45.47643" lon="6.21691">
        <ele>1235.4000244141</ele>
        <time>2023-08-08T10:50:56.000Z</time>
      </trkpt>
      <trkpt lat="45.47643" lon="6.21694">
        <ele>1236</ele>
        <time>2023-08-08T10:51:00.000Z</time>
      </trkpt>
      <trkpt lat="45.47643" lon="6.21699">
        <ele>1237</ele>
        <time>2023-08-08T10:51:06.000Z</time>
      </trkpt>
      <trkpt lat="45.47643" lon="6.217">
        <ele>1237.1999511719</ele>
        <time>2023-08-08T10:51:07.000Z</time>
      </trkpt>
      <trkpt lat="45.47643" lon="6.21706">
        <ele>1238.1999511719</ele>
        <time>2023-08-08T10:51:14.000Z</time>
      </trkpt>
      <trkpt lat="45.47644" lon="6.21711">
        <ele>1239.1999511719</ele>
        <time>2023-08-08T10:51:21.000Z</time>
      </trkpt>
      <trkpt lat="45.47645" lon="6.21712">
        <ele>1239.4000244141</ele>
        <time>2023-08-08T10:51:23.000Z</time>
      </trkpt>
      <trkpt lat="45.47645" lon="6.21716">
        <ele>1240.1999511719</ele>
        <time>2023-08-08T10:51:29.000Z</time>
      </trkpt>
      <trkpt lat="45.47645" lon="6.21716">
        <ele>1240.5999755859</ele>
        <time>2023-08-08T10:51:30.000Z</time>
      </trkpt>
      <trkpt lat="45.47645" lon="6.21719">
        <ele>1241.4000244141</ele>
        <time>2023-08-08T10:51:35.000Z</time>
      </trkpt>
      <trkpt lat="45.47645" lon="6.21721">
        <ele>1241.8000488281</ele>
        <time>2023-08-08T10:51:38.000Z</time>
      </trkpt>
      <trkpt lat="45.47644" lon="6.21724">
        <ele>1242.4000244141</ele>
        <time>2023-08-08T10:51:43.000Z</time>
      </trkpt>
      <trkpt lat="45.47643" lon="6.21729">
        <ele>1243.1999511719</ele>
        <time>2023-08-08T10:51:49.000Z</time>
      </trkpt>
      <trkpt lat="45.47643" lon="6.21729">
        <ele>1243.4000244141</ele>
        <time>2023-08-08T10:51:50.000Z</time>
      </trkpt>
      <trkpt lat="45.47644" lon="6.21737">
        <ele>1244.4000244141</ele>
        <time>2023-08-08T10:51:58.000Z</time>
      </trkpt>
      <trkpt lat="45.47644" lon="6.21738">
        <ele>1244.5999755859</ele>
        <time>2023-08-08T10:51:59.000Z</time>
      </trkpt>
      <trkpt lat="45.47645" lon="6.21743">
        <ele>1245.4000244141</ele>
        <time>2023-08-08T10:52:05.000Z</time>
      </trkpt>
      <trkpt lat="45.47645" lon="6.21745">
        <ele>1245.5999755859</ele>
        <time>2023-08-08T10:52:06.000Z</time>
      </trkpt>
      <trkpt lat="45.47644" lon="6.21747">
        <ele>1246.5999755859</ele>
        <time>2023-08-08T10:52:12.000Z</time>
      </trkpt>
      <trkpt lat="45.47643" lon="6.21752">
        <ele>1247.5999755859</ele>
        <time>2023-08-08T10:52:19.000Z</time>
      </trkpt>
      <trkpt lat="45.47642" lon="6.21756">
        <ele>1248.5999755859</ele>
        <time>2023-08-08T10:52:25.000Z</time>
      </trkpt>
      <trkpt lat="45.47641" lon="6.21758">
        <ele>1249</ele>
        <time>2023-08-08T10:52:28.000Z</time>
      </trkpt>
      <trkpt lat="45.47641" lon="6.21761">
        <ele>1249.5999755859</ele>
        <time>2023-08-08T10:52:32.000Z</time>
      </trkpt>
      <trkpt lat="45.4764" lon="6.21763">
        <ele>1250.5999755859</ele>
        <time>2023-08-08T10:52:37.000Z</time>
      </trkpt>
      <trkpt lat="45.4764" lon="6.21763">
        <ele>1250.8000488281</ele>
        <time>2023-08-08T10:52:38.000Z</time>
      </trkpt>
      <trkpt lat="45.4764" lon="6.21766">
        <ele>1251.8000488281</ele>
        <time>2023-08-08T10:52:44.000Z</time>
      </trkpt>
      <trkpt lat="45.47641" lon="6.21767">
        <ele>1251.8000488281</ele>
        <time>2023-08-08T10:52:45.000Z</time>
      </trkpt>
      <trkpt lat="45.4764" lon="6.21772">
        <ele>1253</ele>
        <time>2023-08-08T10:52:51.000Z</time>
      </trkpt>
      <trkpt lat="45.4764" lon="6.21774">
        <ele>1253.1999511719</ele>
        <time>2023-08-08T10:52:52.000Z</time>
      </trkpt>
      <trkpt lat="45.4764" lon="6.21777">
        <ele>1254.1999511719</ele>
        <time>2023-08-08T10:52:58.000Z</time>
      </trkpt>
      <trkpt lat="45.4764" lon="6.21779">
        <ele>1254.8000488281</ele>
        <time>2023-08-08T10:53:01.000Z</time>
      </trkpt>
      <trkpt lat="45.4764" lon="6.21783">
        <ele>1255.1999511719</ele>
        <time>2023-08-08T10:53:04.000Z</time>
      </trkpt>
      <trkpt lat="45.47638" lon="6.21789">
        <ele>1256</ele>
        <time>2023-08-08T10:53:09.000Z</time>
      </trkpt>
      <trkpt lat="45.47638" lon="6.2179">
        <ele>1256.1999511719</ele>
        <time>2023-08-08T10:53:11.000Z</time>
      </trkpt>
      <trkpt lat="45.47638" lon="6.21792">
        <ele>1256.8000488281</ele>
        <time>2023-08-08T10:53:15.000Z</time>
      </trkpt>
      <trkpt lat="45.47637" lon="6.21793">
        <ele>1257.4000244141</ele>
        <time>2023-08-08T10:53:19.000Z</time>
      </trkpt>
      <trkpt lat="45.47635" lon="6.21796">
        <ele>1258</ele>
        <time>2023-08-08T10:53:25.000Z</time>
      </trkpt>
      <trkpt lat="45.47634" lon="6.21797">
        <ele>1258.4000244141</ele>
        <time>2023-08-08T10:53:27.000Z</time>
      </trkpt>
      <trkpt lat="45.47635" lon="6.21799">
        <ele>1259</ele>
        <time>2023-08-08T10:53:33.000Z</time>
      </trkpt>
      <trkpt lat="45.47635" lon="6.21801">
        <ele>1259.5999755859</ele>
        <time>2023-08-08T10:53:36.000Z</time>
      </trkpt>
      <trkpt lat="45.47634" lon="6.21804">
        <ele>1260.1999511719</ele>
        <time>2023-08-08T10:53:39.000Z</time>
      </trkpt>
      <trkpt lat="45.47634" lon="6.21806">
        <ele>1260.8000488281</ele>
        <time>2023-08-08T10:53:43.000Z</time>
      </trkpt>
      <trkpt lat="45.47634" lon="6.21807">
        <ele>1261</ele>
        <time>2023-08-08T10:53:45.000Z</time>
      </trkpt>
      <trkpt lat="45.47633" lon="6.21811">
        <ele>1261.8000488281</ele>
        <time>2023-08-08T10:53:50.000Z</time>
      </trkpt>
      <trkpt lat="45.47633" lon="6.21811">
        <ele>1262.1999511719</ele>
        <time>2023-08-08T10:53:52.000Z</time>
      </trkpt>
      <trkpt lat="45.47632" lon="6.21813">
        <ele>1262.8000488281</ele>
        <time>2023-08-08T10:53:56.000Z</time>
      </trkpt>
      <trkpt lat="45.47632" lon="6.21816">
        <ele>1263.5999755859</ele>
        <time>2023-08-08T10:54:01.000Z</time>
      </trkpt>
      <trkpt lat="45.47632" lon="6.21817">
        <ele>1264</ele>
        <time>2023-08-08T10:54:03.000Z</time>
      </trkpt>
      <trkpt lat="45.47632" lon="6.21819">
        <ele>1264.5999755859</ele>
        <time>2023-08-08T10:54:07.000Z</time>
      </trkpt>
      <trkpt lat="45.47632" lon="6.21821">
        <ele>1265</ele>
        <time>2023-08-08T10:54:09.000Z</time>
      </trkpt>
      <trkpt lat="45.47633" lon="6.21822">
        <ele>1265.8000488281</ele>
        <time>2023-08-08T10:54:14.000Z</time>
      </trkpt>
      <trkpt lat="45.47633" lon="6.21823">
        <ele>1266</ele>
        <time>2023-08-08T10:54:15.000Z</time>
      </trkpt>
      <trkpt lat="45.47631" lon="6.21827">
        <ele>1267.1999511719</ele>
        <time>2023-08-08T10:54:22.000Z</time>
      </trkpt>
      <trkpt lat="45.4763" lon="6.21831">
        <ele>1267.5999755859</ele>
        <time>2023-08-08T10:54:25.000Z</time>
      </trkpt>
      <trkpt lat="45.47629" lon="6.21833">
        <ele>1268.1999511719</ele>
        <time>2023-08-08T10:54:29.000Z</time>
      </trkpt>
      <trkpt lat="45.47627" lon="6.21835">
        <ele>1268.8000488281</ele>
        <time>2023-08-08T10:54:34.000Z</time>
      </trkpt>
      <trkpt lat="45.47625" lon="6.21837">
        <ele>1269.1999511719</ele>
        <time>2023-08-08T10:54:37.000Z</time>
      </trkpt>
      <trkpt lat="45.47623" lon="6.21836">
        <ele>1269.5999755859</ele>
        <time>2023-08-08T10:54:41.000Z</time>
      </trkpt>
      <trkpt lat="45.47623" lon="6.21839">
        <ele>1270.1999511719</ele>
        <time>2023-08-08T10:54:45.000Z</time>
      </trkpt>
      <trkpt lat="45.47623" lon="6.2184">
        <ele>1270.4000244141</ele>
        <time>2023-08-08T10:54:46.000Z</time>
      </trkpt>
      <trkpt lat="45.47619" lon="6.21841">
        <ele>1271</ele>
        <time>2023-08-08T10:54:52.000Z</time>
      </trkpt>
      <trkpt lat="45.47619" lon="6.21841">
        <ele>1271.4000244141</ele>
        <time>2023-08-08T10:54:54.000Z</time>
      </trkpt>
      <trkpt lat="45.47618" lon="6.2184">
        <ele>1272.1999511719</ele>
        <time>2023-08-08T10:54:59.000Z</time>
      </trkpt>
      <trkpt lat="45.47618" lon="6.21842">
        <ele>1272.4000244141</ele>
        <time>2023-08-08T10:55:00.000Z</time>
      </trkpt>
      <trkpt lat="45.47614" lon="6.21847">
        <ele>1273.4000244141</ele>
        <time>2023-08-08T10:55:06.000Z</time>
      </trkpt>
      <trkpt lat="45.47614" lon="6.21849">
        <ele>1273.5999755859</ele>
        <time>2023-08-08T10:55:09.000Z</time>
      </trkpt>
      <trkpt lat="45.47606" lon="6.21854">
        <ele>1275.1999511719</ele>
        <time>2023-08-08T10:55:17.000Z</time>
      </trkpt>
      <trkpt lat="45.47605" lon="6.21853">
        <ele>1275.8000488281</ele>
        <time>2023-08-08T10:55:21.000Z</time>
      </trkpt>
      <trkpt lat="45.47607" lon="6.21852">
        <ele>1276</ele>
        <time>2023-08-08T10:55:24.000Z</time>
      </trkpt>
      <trkpt lat="45.47604" lon="6.21858">
        <ele>1276</ele>
        <time>2023-08-08T10:55:56.000Z</time>
      </trkpt>
      <trkpt lat="45.47602" lon="6.21859">
        <ele>1277</ele>
        <time>2023-08-08T10:56:08.000Z</time>
      </trkpt>
      <trkpt lat="45.47601" lon="6.21859">
        <ele>1277.1999511719</ele>
        <time>2023-08-08T10:56:10.000Z</time>
      </trkpt>
      <trkpt lat="45.47601" lon="6.21847">
        <ele>1278.8000488281</ele>
        <time>2023-08-08T10:56:19.000Z</time>
      </trkpt>
      <trkpt lat="45.476" lon="6.21842">
        <ele>1280</ele>
        <time>2023-08-08T10:56:26.000Z</time>
      </trkpt>
      <trkpt lat="45.476" lon="6.21841">
        <ele>1280.4000244141</ele>
        <time>2023-08-08T10:56:28.000Z</time>
      </trkpt>
      <trkpt lat="45.47594" lon="6.2184">
        <ele>1281.4000244141</ele>
        <time>2023-08-08T10:56:39.000Z</time>
      </trkpt>
      <trkpt lat="45.47591" lon="6.21838">
        <ele>1281.8000488281</ele>
        <time>2023-08-08T10:56:44.000Z</time>
      </trkpt>
      <trkpt lat="45.47587" lon="6.21834">
        <ele>1281.8000488281</ele>
        <time>2023-08-08T10:56:53.000Z</time>
      </trkpt>
      <trkpt lat="45.47594" lon="6.21836">
        <ele>1282.8000488281</ele>
        <time>2023-08-08T10:57:30.000Z</time>
      </trkpt>
      <trkpt lat="45.47595" lon="6.21835">
        <ele>1283.4000244141</ele>
        <time>2023-08-08T10:57:32.000Z</time>
      </trkpt>
      <trkpt lat="45.47599" lon="6.21837">
        <ele>1283.4000244141</ele>
        <time>2023-08-08T10:58:03.000Z</time>
      </trkpt>
      <trkpt lat="45.47594" lon="6.21841">
        <ele>1283</ele>
        <time>2023-08-08T10:58:13.000Z</time>
      </trkpt>
      <trkpt lat="45.47598" lon="6.21839">
        <ele>1281</ele>
        <time>2023-08-08T10:58:22.000Z</time>
      </trkpt>
      <trkpt lat="45.47602" lon="6.21831">
        <ele>1280.1999511719</ele>
        <time>2023-08-08T10:58:36.000Z</time>
      </trkpt>
      <trkpt lat="45.47605" lon="6.21827">
        <ele>1280.1999511719</ele>
        <time>2023-08-08T10:58:42.000Z</time>
      </trkpt>
      <trkpt lat="45.47607" lon="6.21826">
        <ele>1280.4000244141</ele>
        <time>2023-08-08T10:58:48.000Z</time>
      </trkpt>
      <trkpt lat="45.47599" lon="6.21832">
        <ele>1281</ele>
        <time>2023-08-08T10:58:55.000Z</time>
      </trkpt>
      <trkpt lat="45.47596" lon="6.21831">
        <ele>1282.1999511719</ele>
        <time>2023-08-08T10:59:01.000Z</time>
      </trkpt>
      <trkpt lat="45.47593" lon="6.21832">
        <ele>1283</ele>
        <time>2023-08-08T10:59:10.000Z</time>
      </trkpt>
      <trkpt lat="45.47595" lon="6.21829">
        <ele>1283</ele>
        <time>2023-08-08T10:59:22.000Z</time>
      </trkpt>
      <trkpt lat="45.47575" lon="6.21845">
        <ele>1284.4000244141</ele>
        <time>2023-08-08T11:08:57.000Z</time>
      </trkpt>
      <trkpt lat="45.47578" lon="6.21845">
        <ele>1285</ele>
        <time>2023-08-08T11:09:01.000Z</time>
      </trkpt>
      <trkpt lat="45.47578" lon="6.21834">
        <ele>1285.4000244141</ele>
        <time>2023-08-08T11:09:03.000Z</time>
      </trkpt>
      <trkpt lat="45.47581" lon="6.21833">
        <ele>1286.4000244141</ele>
        <time>2023-08-08T11:09:09.000Z</time>
      </trkpt>
      <trkpt lat="45.47579" lon="6.21837">
        <ele>1287.4000244141</ele>
        <time>2023-08-08T11:09:16.000Z</time>
      </trkpt>
      <trkpt lat="45.47572" lon="6.21834">
        <ele>1289.4000244141</ele>
        <time>2023-08-08T11:09:28.000Z</time>
      </trkpt>
      <trkpt lat="45.47574" lon="6.21835">
        <ele>1289.5999755859</ele>
        <time>2023-08-08T11:09:29.000Z</time>
      </trkpt>
      <trkpt lat="45.47567" lon="6.21827">
        <ele>1290.4000244141</ele>
        <time>2023-08-08T11:09:35.000Z</time>
      </trkpt>
      <trkpt lat="45.47566" lon="6.21829">
        <ele>1290.8000488281</ele>
        <time>2023-08-08T11:09:37.000Z</time>
      </trkpt>
      <trkpt lat="45.47568" lon="6.21828">
        <ele>1292.5999755859</ele>
        <time>2023-08-08T11:09:48.000Z</time>
      </trkpt>
      <trkpt lat="45.47568" lon="6.21828">
        <ele>1293</ele>
        <time>2023-08-08T11:09:51.000Z</time>
      </trkpt>
      <trkpt lat="45.47558" lon="6.21826">
        <ele>1295.5999755859</ele>
        <time>2023-08-08T11:10:08.000Z</time>
      </trkpt>
      <trkpt lat="45.4756" lon="6.21821">
        <ele>1296</ele>
        <time>2023-08-08T11:10:11.000Z</time>
      </trkpt>
      <trkpt lat="45.47561" lon="6.21817">
        <ele>1296.4000244141</ele>
        <time>2023-08-08T11:10:14.000Z</time>
      </trkpt>
      <trkpt lat="45.4756" lon="6.2181">
        <ele>1297.1999511719</ele>
        <time>2023-08-08T11:10:20.000Z</time>
      </trkpt>
      <trkpt lat="45.4756" lon="6.21809">
        <ele>1297.4000244141</ele>
        <time>2023-08-08T11:10:21.000Z</time>
      </trkpt>
      <trkpt lat="45.47558" lon="6.21805">
        <ele>1298.1999511719</ele>
        <time>2023-08-08T11:10:28.000Z</time>
      </trkpt>
      <trkpt lat="45.47557" lon="6.21802">
        <ele>1298.5999755859</ele>
        <time>2023-08-08T11:10:32.000Z</time>
      </trkpt>
      <trkpt lat="45.4755" lon="6.21799">
        <ele>1299.8000488281</ele>
        <time>2023-08-08T11:10:41.000Z</time>
      </trkpt>
      <trkpt lat="45.47548" lon="6.21798">
        <ele>1300.5999755859</ele>
        <time>2023-08-08T11:10:45.000Z</time>
      </trkpt>
      <trkpt lat="45.47547" lon="6.21798">
        <ele>1301.4000244141</ele>
        <time>2023-08-08T11:10:50.000Z</time>
      </trkpt>
      <trkpt lat="45.47546" lon="6.21797">
        <ele>1301.5999755859</ele>
        <time>2023-08-08T11:10:51.000Z</time>
      </trkpt>
      <trkpt lat="45.47542" lon="6.21796">
        <ele>1302.5999755859</ele>
        <time>2023-08-08T11:10:56.000Z</time>
      </trkpt>
      <trkpt lat="45.47541" lon="6.21795">
        <ele>1302.8000488281</ele>
        <time>2023-08-08T11:10:57.000Z</time>
      </trkpt>
      <trkpt lat="45.47538" lon="6.21792">
        <ele>1303.8000488281</ele>
        <time>2023-08-08T11:11:04.000Z</time>
      </trkpt>
      <trkpt lat="45.47536" lon="6.2179">
        <ele>1304.1999511719</ele>
        <time>2023-08-08T11:11:07.000Z</time>
      </trkpt>
      <trkpt lat="45.47534" lon="6.21787">
        <ele>1304.8000488281</ele>
        <time>2023-08-08T11:11:11.000Z</time>
      </trkpt>
      <trkpt lat="45.4753" lon="6.21784">
        <ele>1305.8000488281</ele>
        <time>2023-08-08T11:11:18.000Z</time>
      </trkpt>
      <trkpt lat="45.47529" lon="6.21783">
        <ele>1306</ele>
        <time>2023-08-08T11:11:19.000Z</time>
      </trkpt>
      <trkpt lat="45.47525" lon="6.21779">
        <ele>1307</ele>
        <time>2023-08-08T11:11:26.000Z</time>
      </trkpt>
      <trkpt lat="45.47523" lon="6.21775">
        <ele>1308.1999511719</ele>
        <time>2023-08-08T11:11:33.000Z</time>
      </trkpt>
      <trkpt lat="45.47523" lon="6.21774">
        <ele>1308.4000244141</ele>
        <time>2023-08-08T11:11:34.000Z</time>
      </trkpt>
      <trkpt lat="45.47521" lon="6.21771">
        <ele>1309.1999511719</ele>
        <time>2023-08-08T11:11:39.000Z</time>
      </trkpt>
      <trkpt lat="45.4752" lon="6.2177">
        <ele>1309.8000488281</ele>
        <time>2023-08-08T11:11:42.000Z</time>
      </trkpt>
      <trkpt lat="45.47519" lon="6.2177">
        <ele>1310.4000244141</ele>
        <time>2023-08-08T11:11:45.000Z</time>
      </trkpt>
      <trkpt lat="45.47517" lon="6.21768">
        <ele>1311.4000244141</ele>
        <time>2023-08-08T11:11:51.000Z</time>
      </trkpt>
      <trkpt lat="45.47514" lon="6.21765">
        <ele>1312.5999755859</ele>
        <time>2023-08-08T11:11:57.000Z</time>
      </trkpt>
      <trkpt lat="45.47512" lon="6.21763">
        <ele>1313.1999511719</ele>
        <time>2023-08-08T11:12:00.000Z</time>
      </trkpt>
      <trkpt lat="45.47511" lon="6.21761">
        <ele>1313.8000488281</ele>
        <time>2023-08-08T11:12:03.000Z</time>
      </trkpt>
      <trkpt lat="45.47511" lon="6.2176">
        <ele>1314.5999755859</ele>
        <time>2023-08-08T11:12:10.000Z</time>
      </trkpt>
      <trkpt lat="45.47511" lon="6.2176">
        <ele>1314.8000488281</ele>
        <time>2023-08-08T11:12:11.000Z</time>
      </trkpt>
      <trkpt lat="45.47511" lon="6.21755">
        <ele>1315.8000488281</ele>
        <time>2023-08-08T11:12:18.000Z</time>
      </trkpt>
      <trkpt lat="45.4751" lon="6.21753">
        <ele>1316.4000244141</ele>
        <time>2023-08-08T11:12:21.000Z</time>
      </trkpt>
      <trkpt lat="45.47509" lon="6.21751">
        <ele>1317</ele>
        <time>2023-08-08T11:12:25.000Z</time>
      </trkpt>
      <trkpt lat="45.47507" lon="6.2175">
        <ele>1317.5999755859</ele>
        <time>2023-08-08T11:12:29.000Z</time>
      </trkpt>
      <trkpt lat="45.47506" lon="6.2175">
        <ele>1318</ele>
        <time>2023-08-08T11:12:31.000Z</time>
      </trkpt>
      <trkpt lat="45.47499" lon="6.2175">
        <ele>1319</ele>
        <time>2023-08-08T11:12:38.000Z</time>
      </trkpt>
      <trkpt lat="45.47498" lon="6.2175">
        <ele>1319.1999511719</ele>
        <time>2023-08-08T11:12:39.000Z</time>
      </trkpt>
      <trkpt lat="45.47494" lon="6.21747">
        <ele>1320</ele>
        <time>2023-08-08T11:12:44.000Z</time>
      </trkpt>
      <trkpt lat="45.47493" lon="6.21746">
        <ele>1320.5999755859</ele>
        <time>2023-08-08T11:12:47.000Z</time>
      </trkpt>
      <trkpt lat="45.47491" lon="6.21745">
        <ele>1321.1999511719</ele>
        <time>2023-08-08T11:12:50.000Z</time>
      </trkpt>
      <trkpt lat="45.47488" lon="6.21745">
        <ele>1322.1999511719</ele>
        <time>2023-08-08T11:12:55.000Z</time>
      </trkpt>
      <trkpt lat="45.47488" lon="6.21745">
        <ele>1322.4000244141</ele>
        <time>2023-08-08T11:12:56.000Z</time>
      </trkpt>
      <trkpt lat="45.47486" lon="6.21745">
        <ele>1323.1999511719</ele>
        <time>2023-08-08T11:13:01.000Z</time>
      </trkpt>
      <trkpt lat="45.47482" lon="6.21739">
        <ele>1324.1999511719</ele>
        <time>2023-08-08T11:13:07.000Z</time>
      </trkpt>
      <trkpt lat="45.47481" lon="6.21736">
        <ele>1325.4000244141</ele>
        <time>2023-08-08T11:13:13.000Z</time>
      </trkpt>
      <trkpt lat="45.4748" lon="6.21737">
        <ele>1326.1999511719</ele>
        <time>2023-08-08T11:13:17.000Z</time>
      </trkpt>
      <trkpt lat="45.47481" lon="6.21737">
        <ele>1326.4000244141</ele>
        <time>2023-08-08T11:13:19.000Z</time>
      </trkpt>
      <trkpt lat="45.4748" lon="6.21732">
        <ele>1327.5999755859</ele>
        <time>2023-08-08T11:13:26.000Z</time>
      </trkpt>
      <trkpt lat="45.47477" lon="6.21729">
        <ele>1328.8000488281</ele>
        <time>2023-08-08T11:13:34.000Z</time>
      </trkpt>
      <trkpt lat="45.47476" lon="6.21729">
        <ele>1328.8000488281</ele>
        <time>2023-08-08T11:13:36.000Z</time>
      </trkpt>
      <trkpt lat="45.47463" lon="6.21722">
        <ele>1332</ele>
        <time>2023-08-08T11:13:54.000Z</time>
      </trkpt>
      <trkpt lat="45.4746" lon="6.21719">
        <ele>1333.1999511719</ele>
        <time>2023-08-08T11:14:00.000Z</time>
      </trkpt>
      <trkpt lat="45.47459" lon="6.21715">
        <ele>1334.1999511719</ele>
        <time>2023-08-08T11:14:10.000Z</time>
      </trkpt>
      <trkpt lat="45.47459" lon="6.21715">
        <ele>1334.5999755859</ele>
        <time>2023-08-08T11:14:13.000Z</time>
      </trkpt>
      <trkpt lat="45.47459" lon="6.21712">
        <ele>1335.1999511719</ele>
        <time>2023-08-08T11:14:18.000Z</time>
      </trkpt>
      <trkpt lat="45.47457" lon="6.21714">
        <ele>1335.8000488281</ele>
        <time>2023-08-08T11:14:21.000Z</time>
      </trkpt>
      <trkpt lat="45.47456" lon="6.21716">
        <ele>1336.4000244141</ele>
        <time>2023-08-08T11:14:25.000Z</time>
      </trkpt>
      <trkpt lat="45.47452" lon="6.21717">
        <ele>1337.1999511719</ele>
        <time>2023-08-08T11:14:31.000Z</time>
      </trkpt>
      <trkpt lat="45.47452" lon="6.21716">
        <ele>1337.4000244141</ele>
        <time>2023-08-08T11:14:32.000Z</time>
      </trkpt>
      <trkpt lat="45.47448" lon="6.21712">
        <ele>1337.5999755859</ele>
        <time>2023-08-08T11:14:38.000Z</time>
      </trkpt>
      <trkpt lat="45.47446" lon="6.21712">
        <ele>1337.5999755859</ele>
        <time>2023-08-08T11:14:46.000Z</time>
      </trkpt>
      <trkpt lat="45.47443" lon="6.2171">
        <ele>1337.5999755859</ele>
        <time>2023-08-08T11:14:58.000Z</time>
      </trkpt>
      <trkpt lat="45.47442" lon="6.21709">
        <ele>1337.5999755859</ele>
        <time>2023-08-08T11:15:07.000Z</time>
      </trkpt>
      <trkpt lat="45.47442" lon="6.21705">
        <ele>1337.5999755859</ele>
        <time>2023-08-08T11:15:14.000Z</time>
      </trkpt>
      <trkpt lat="45.47446" lon="6.21709">
        <ele>1338.1999511719</ele>
        <time>2023-08-08T11:15:21.000Z</time>
      </trkpt>
      <trkpt lat="45.47447" lon="6.21713">
        <ele>1338.4000244141</ele>
        <time>2023-08-08T11:15:27.000Z</time>
      </trkpt>
      <trkpt lat="45.47447" lon="6.21713">
        <ele>1338.5999755859</ele>
        <time>2023-08-08T11:15:30.000Z</time>
      </trkpt>
      <trkpt lat="45.47449" lon="6.21714">
        <ele>1338.8000488281</ele>
        <time>2023-08-08T11:15:35.000Z</time>
      </trkpt>
      <trkpt lat="45.47451" lon="6.21713">
        <ele>1338.8000488281</ele>
        <time>2023-08-08T11:15:43.000Z</time>
      </trkpt>
      <trkpt lat="45.47446" lon="6.21714">
        <ele>1339.1999511719</ele>
        <time>2023-08-08T11:15:57.000Z</time>
      </trkpt>
      <trkpt lat="45.47448" lon="6.21718">
        <ele>1339.5999755859</ele>
        <time>2023-08-08T11:16:01.000Z</time>
      </trkpt>
      <trkpt lat="45.47448" lon="6.21721">
        <ele>1340.1999511719</ele>
        <time>2023-08-08T11:16:05.000Z</time>
      </trkpt>
      <trkpt lat="45.47448" lon="6.21725">
        <ele>1340.8000488281</ele>
        <time>2023-08-08T11:16:08.000Z</time>
      </trkpt>
      <trkpt lat="45.47448" lon="6.21728">
        <ele>1341.5999755859</ele>
        <time>2023-08-08T11:16:14.000Z</time>
      </trkpt>
      <trkpt lat="45.47449" lon="6.2173">
        <ele>1342</ele>
        <time>2023-08-08T11:16:16.000Z</time>
      </trkpt>
      <trkpt lat="45.47451" lon="6.2173">
        <ele>1343</ele>
        <time>2023-08-08T11:16:23.000Z</time>
      </trkpt>
      <trkpt lat="45.47451" lon="6.21728">
        <ele>1343</ele>
        <time>2023-08-08T11:16:25.000Z</time>
      </trkpt>
      <trkpt lat="45.47456" lon="6.21726">
        <ele>1343</ele>
        <time>2023-08-08T11:16:33.000Z</time>
      </trkpt>
      <trkpt lat="45.47457" lon="6.21723">
        <ele>1342.8000488281</ele>
        <time>2023-08-08T11:16:44.000Z</time>
      </trkpt>
      <trkpt lat="45.47462" lon="6.21732">
        <ele>1342.5999755859</ele>
        <time>2023-08-08T11:16:51.000Z</time>
      </trkpt>
      <trkpt lat="45.47463" lon="6.21747">
        <ele>1343.5999755859</ele>
        <time>2023-08-08T11:17:00.000Z</time>
      </trkpt>
      <trkpt lat="45.47463" lon="6.2175">
        <ele>1344.1999511719</ele>
        <time>2023-08-08T11:17:03.000Z</time>
      </trkpt>
      <trkpt lat="45.47461" lon="6.21753">
        <ele>1345.4000244141</ele>
        <time>2023-08-08T11:17:09.000Z</time>
      </trkpt>
      <trkpt lat="45.47459" lon="6.21757">
        <ele>1346.4000244141</ele>
        <time>2023-08-08T11:17:16.000Z</time>
      </trkpt>
      <trkpt lat="45.47459" lon="6.21757">
        <ele>1346.5999755859</ele>
        <time>2023-08-08T11:17:17.000Z</time>
      </trkpt>
      <trkpt lat="45.47458" lon="6.21761">
        <ele>1347.4000244141</ele>
        <time>2023-08-08T11:17:26.000Z</time>
      </trkpt>
      <trkpt lat="45.47454" lon="6.21756">
        <ele>1348</ele>
        <time>2023-08-08T11:17:36.000Z</time>
      </trkpt>
      <trkpt lat="45.47452" lon="6.21753">
        <ele>1347.8000488281</ele>
        <time>2023-08-08T11:17:44.000Z</time>
      </trkpt>
      <trkpt lat="45.47453" lon="6.21757">
        <ele>1347.8000488281</ele>
        <time>2023-08-08T11:17:52.000Z</time>
      </trkpt>
      <trkpt lat="45.47455" lon="6.21761">
        <ele>1347.8000488281</ele>
        <time>2023-08-08T11:18:01.000Z</time>
      </trkpt>
      <trkpt lat="45.47459" lon="6.21765">
        <ele>1347.5999755859</ele>
        <time>2023-08-08T11:18:10.000Z</time>
      </trkpt>
      <trkpt lat="45.47459" lon="6.21769">
        <ele>1347.5999755859</ele>
        <time>2023-08-08T11:18:20.000Z</time>
      </trkpt>
      <trkpt lat="45.47457" lon="6.21769">
        <ele>1348.5999755859</ele>
        <time>2023-08-08T11:18:26.000Z</time>
      </trkpt>
      <trkpt lat="45.47457" lon="6.2177">
        <ele>1348.5999755859</ele>
        <time>2023-08-08T11:18:27.000Z</time>
      </trkpt>
      <trkpt lat="45.47457" lon="6.21774">
        <ele>1349.5999755859</ele>
        <time>2023-08-08T11:18:32.000Z</time>
      </trkpt>
      <trkpt lat="45.47456" lon="6.21777">
        <ele>1350.4000244141</ele>
        <time>2023-08-08T11:18:36.000Z</time>
      </trkpt>
      <trkpt lat="45.47456" lon="6.21778">
        <ele>1350.5999755859</ele>
        <time>2023-08-08T11:18:38.000Z</time>
      </trkpt>
      <trkpt lat="45.47456" lon="6.21781">
        <ele>1351.4000244141</ele>
        <time>2023-08-08T11:18:42.000Z</time>
      </trkpt>
      <trkpt lat="45.47456" lon="6.21783">
        <ele>1351.8000488281</ele>
        <time>2023-08-08T11:18:44.000Z</time>
      </trkpt>
      <trkpt lat="45.47456" lon="6.21787">
        <ele>1352.8000488281</ele>
        <time>2023-08-08T11:18:50.000Z</time>
      </trkpt>
      <trkpt lat="45.47455" lon="6.21787">
        <ele>1354</ele>
        <time>2023-08-08T11:18:55.000Z</time>
      </trkpt>
      <trkpt lat="45.47455" lon="6.21788">
        <ele>1354.1999511719</ele>
        <time>2023-08-08T11:18:56.000Z</time>
      </trkpt>
      <trkpt lat="45.47455" lon="6.2179">
        <ele>1355</ele>
        <time>2023-08-08T11:19:01.000Z</time>
      </trkpt>
      <trkpt lat="45.47454" lon="6.2179">
        <ele>1355.5999755859</ele>
        <time>2023-08-08T11:19:03.000Z</time>
      </trkpt>
      <trkpt lat="45.47453" lon="6.21788">
        <ele>1356.1999511719</ele>
        <time>2023-08-08T11:19:07.000Z</time>
      </trkpt>
      <trkpt lat="45.4745" lon="6.21784">
        <ele>1356.1999511719</ele>
        <time>2023-08-08T11:19:10.000Z</time>
      </trkpt>
      <trkpt lat="45.47449" lon="6.21784">
        <ele>1356.4000244141</ele>
        <time>2023-08-08T11:19:11.000Z</time>
      </trkpt>
      <trkpt lat="45.47446" lon="6.21781">
        <ele>1356.8000488281</ele>
        <time>2023-08-08T11:19:16.000Z</time>
      </trkpt>
      <trkpt lat="45.47435" lon="6.21774">
        <ele>1359.1999511719</ele>
        <time>2023-08-08T11:19:30.000Z</time>
      </trkpt>
      <trkpt lat="45.47434" lon="6.21774">
        <ele>1359.4000244141</ele>
        <time>2023-08-08T11:19:31.000Z</time>
      </trkpt>
      <trkpt lat="45.47433" lon="6.21772">
        <ele>1360.4000244141</ele>
        <time>2023-08-08T11:19:38.000Z</time>
      </trkpt>
      <trkpt lat="45.47432" lon="6.2177">
        <ele>1362.4000244141</ele>
        <time>2023-08-08T11:19:50.000Z</time>
      </trkpt>
      <trkpt lat="45.47431" lon="6.21769">
        <ele>1362.5999755859</ele>
        <time>2023-08-08T11:19:52.000Z</time>
      </trkpt>
      <trkpt lat="45.47429" lon="6.21767">
        <ele>1363.5999755859</ele>
        <time>2023-08-08T11:19:58.000Z</time>
      </trkpt>
      <trkpt lat="45.47429" lon="6.21767">
        <ele>1363.8000488281</ele>
        <time>2023-08-08T11:19:59.000Z</time>
      </trkpt>
      <trkpt lat="45.47425" lon="6.21767">
        <ele>1364.5999755859</ele>
        <time>2023-08-08T11:20:05.000Z</time>
      </trkpt>
      <trkpt lat="45.47423" lon="6.21766">
        <ele>1365</ele>
        <time>2023-08-08T11:20:07.000Z</time>
      </trkpt>
      <trkpt lat="45.47421" lon="6.21768">
        <ele>1366</ele>
        <time>2023-08-08T11:20:14.000Z</time>
      </trkpt>
      <trkpt lat="45.47423" lon="6.21771">
        <ele>1367</ele>
        <time>2023-08-08T11:20:21.000Z</time>
      </trkpt>
      <trkpt lat="45.47422" lon="6.21771">
        <ele>1367.1999511719</ele>
        <time>2023-08-08T11:20:22.000Z</time>
      </trkpt>
      <trkpt lat="45.47423" lon="6.21775">
        <ele>1367.8000488281</ele>
        <time>2023-08-08T11:20:26.000Z</time>
      </trkpt>
      <trkpt lat="45.47424" lon="6.21777">
        <ele>1368</ele>
        <time>2023-08-08T11:20:28.000Z</time>
      </trkpt>
      <trkpt lat="45.47425" lon="6.21782">
        <ele>1368.5999755859</ele>
        <time>2023-08-08T11:20:32.000Z</time>
      </trkpt>
      <trkpt lat="45.47425" lon="6.21785">
        <ele>1369.1999511719</ele>
        <time>2023-08-08T11:20:35.000Z</time>
      </trkpt>
      <trkpt lat="45.47424" lon="6.21787">
        <ele>1369.5999755859</ele>
        <time>2023-08-08T11:20:38.000Z</time>
      </trkpt>
      <trkpt lat="45.47424" lon="6.21791">
        <ele>1370.1999511719</ele>
        <time>2023-08-08T11:20:43.000Z</time>
      </trkpt>
      <trkpt lat="45.47424" lon="6.21791">
        <ele>1370.4000244141</ele>
        <time>2023-08-08T11:20:44.000Z</time>
      </trkpt>
      <trkpt lat="45.47425" lon="6.21793">
        <ele>1371.1999511719</ele>
        <time>2023-08-08T11:20:49.000Z</time>
      </trkpt>
      <trkpt lat="45.47425" lon="6.21793">
        <ele>1371.4000244141</ele>
        <time>2023-08-08T11:20:50.000Z</time>
      </trkpt>
      <trkpt lat="45.47427" lon="6.21796">
        <ele>1372.4000244141</ele>
        <time>2023-08-08T11:20:56.000Z</time>
      </trkpt>
      <trkpt lat="45.47427" lon="6.21803">
        <ele>1373.4000244141</ele>
        <time>2023-08-08T11:21:03.000Z</time>
      </trkpt>
      <trkpt lat="45.47427" lon="6.21804">
        <ele>1373.8000488281</ele>
        <time>2023-08-08T11:21:05.000Z</time>
      </trkpt>
      <trkpt lat="45.47427" lon="6.21808">
        <ele>1374.5999755859</ele>
        <time>2023-08-08T11:21:10.000Z</time>
      </trkpt>
      <trkpt lat="45.47427" lon="6.21809">
        <ele>1374.8000488281</ele>
        <time>2023-08-08T11:21:12.000Z</time>
      </trkpt>
      <trkpt lat="45.47428" lon="6.21812">
        <ele>1375.5999755859</ele>
        <time>2023-08-08T11:21:18.000Z</time>
      </trkpt>
      <trkpt lat="45.47428" lon="6.21813">
        <ele>1375.8000488281</ele>
        <time>2023-08-08T11:21:20.000Z</time>
      </trkpt>
      <trkpt lat="45.47429" lon="6.21817">
        <ele>1376.5999755859</ele>
        <time>2023-08-08T11:21:26.000Z</time>
      </trkpt>
      <trkpt lat="45.4743" lon="6.21818">
        <ele>1377</ele>
        <time>2023-08-08T11:21:28.000Z</time>
      </trkpt>
      <trkpt lat="45.4743" lon="6.21821">
        <ele>1377.8000488281</ele>
        <time>2023-08-08T11:21:33.000Z</time>
      </trkpt>
      <trkpt lat="45.47429" lon="6.21822">
        <ele>1378.1999511719</ele>
        <time>2023-08-08T11:21:35.000Z</time>
      </trkpt>
      <trkpt lat="45.47428" lon="6.21825">
        <ele>1378.8000488281</ele>
        <time>2023-08-08T11:21:41.000Z</time>
      </trkpt>
      <trkpt lat="45.47426" lon="6.21827">
        <ele>1378.5999755859</ele>
        <time>2023-08-08T11:21:48.000Z</time>
      </trkpt>
      <trkpt lat="45.47426" lon="6.21825">
        <ele>1378.4000244141</ele>
        <time>2023-08-08T11:21:58.000Z</time>
      </trkpt>
      <trkpt lat="45.47426" lon="6.21822">
        <ele>1378.1999511719</ele>
        <time>2023-08-08T11:22:06.000Z</time>
      </trkpt>
      <trkpt lat="45.47422" lon="6.21823">
        <ele>1378</ele>
        <time>2023-08-08T11:22:16.000Z</time>
      </trkpt>
      <trkpt lat="45.47419" lon="6.21816">
        <ele>1378.1999511719</ele>
        <time>2023-08-08T11:22:24.000Z</time>
      </trkpt>
      <trkpt lat="45.47418" lon="6.21812">
        <ele>1379</ele>
        <time>2023-08-08T11:22:30.000Z</time>
      </trkpt>
      <trkpt lat="45.47417" lon="6.2181">
        <ele>1379.1999511719</ele>
        <time>2023-08-08T11:22:32.000Z</time>
      </trkpt>
      <trkpt lat="45.47413" lon="6.21804">
        <ele>1379.8000488281</ele>
        <time>2023-08-08T11:22:38.000Z</time>
      </trkpt>
      <trkpt lat="45.47413" lon="6.21803">
        <ele>1380</ele>
        <time>2023-08-08T11:22:39.000Z</time>
      </trkpt>
      <trkpt lat="45.4741" lon="6.21795">
        <ele>1381</ele>
        <time>2023-08-08T11:22:46.000Z</time>
      </trkpt>
      <trkpt lat="45.4741" lon="6.21794">
        <ele>1381.1999511719</ele>
        <time>2023-08-08T11:22:47.000Z</time>
      </trkpt>
      <trkpt lat="45.47405" lon="6.21788">
        <ele>1382</ele>
        <time>2023-08-08T11:22:54.000Z</time>
      </trkpt>
      <trkpt lat="45.47405" lon="6.21788">
        <ele>1382.1999511719</ele>
        <time>2023-08-08T11:22:55.000Z</time>
      </trkpt>
      <trkpt lat="45.47399" lon="6.21783">
        <ele>1382.5999755859</ele>
        <time>2023-08-08T11:23:01.000Z</time>
      </trkpt>
      <trkpt lat="45.47398" lon="6.21782">
        <ele>1383</ele>
        <time>2023-08-08T11:23:04.000Z</time>
      </trkpt>
      <trkpt lat="45.47398" lon="6.21782">
        <ele>1383.1999511719</ele>
        <time>2023-08-08T11:23:05.000Z</time>
      </trkpt>
      <trkpt lat="45.47398" lon="6.21783">
        <ele>1383.1999511719</ele>
        <time>2023-08-08T11:23:07.000Z</time>
      </trkpt>
      <trkpt lat="45.47398" lon="6.21779">
        <ele>1383.1999511719</ele>
        <time>2023-08-08T11:23:18.000Z</time>
      </trkpt>
      <trkpt lat="45.47398" lon="6.2178">
        <ele>1383</ele>
        <time>2023-08-08T11:23:28.000Z</time>
      </trkpt>
      <trkpt lat="45.47399" lon="6.2178">
        <ele>1383</ele>
        <time>2023-08-08T11:23:36.000Z</time>
      </trkpt>
      <trkpt lat="45.47397" lon="6.21781">
        <ele>1383</ele>
        <time>2023-08-08T11:23:40.000Z</time>
      </trkpt>
      <trkpt lat="45.47398" lon="6.21787">
        <ele>1384.1999511719</ele>
        <time>2023-08-08T11:23:47.000Z</time>
      </trkpt>
      <trkpt lat="45.47398" lon="6.21788">
        <ele>1384.1999511719</ele>
        <time>2023-08-08T11:23:48.000Z</time>
      </trkpt>
      <trkpt lat="45.47398" lon="6.2179">
        <ele>1385.1999511719</ele>
        <time>2023-08-08T11:23:54.000Z</time>
      </trkpt>
      <trkpt lat="45.47398" lon="6.21791">
        <ele>1385.5999755859</ele>
        <time>2023-08-08T11:23:55.000Z</time>
      </trkpt>
      <trkpt lat="45.47399" lon="6.21798">
        <ele>1386.4000244141</ele>
        <time>2023-08-08T11:24:01.000Z</time>
      </trkpt>
      <trkpt lat="45.474" lon="6.21799">
        <ele>1386.5999755859</ele>
        <time>2023-08-08T11:24:03.000Z</time>
      </trkpt>
      <trkpt lat="45.47401" lon="6.21803">
        <ele>1387.4000244141</ele>
        <time>2023-08-08T11:24:08.000Z</time>
      </trkpt>
      <trkpt lat="45.47401" lon="6.21805">
        <ele>1387.5999755859</ele>
        <time>2023-08-08T11:24:10.000Z</time>
      </trkpt>
      <trkpt lat="45.47403" lon="6.21811">
        <ele>1388.4000244141</ele>
        <time>2023-08-08T11:24:15.000Z</time>
      </trkpt>
      <trkpt lat="45.47404" lon="6.21814">
        <ele>1388.5999755859</ele>
        <time>2023-08-08T11:24:17.000Z</time>
      </trkpt>
      <trkpt lat="45.47404" lon="6.21818">
        <ele>1389.4000244141</ele>
        <time>2023-08-08T11:24:22.000Z</time>
      </trkpt>
      <trkpt lat="45.47405" lon="6.21824">
        <ele>1390.5999755859</ele>
        <time>2023-08-08T11:24:29.000Z</time>
      </trkpt>
      <trkpt lat="45.47405" lon="6.21826">
        <ele>1390.8000488281</ele>
        <time>2023-08-08T11:24:32.000Z</time>
      </trkpt>
      <trkpt lat="45.47406" lon="6.21829">
        <ele>1391.5999755859</ele>
        <time>2023-08-08T11:24:36.000Z</time>
      </trkpt>
      <trkpt lat="45.47407" lon="6.2183">
        <ele>1392.4000244141</ele>
        <time>2023-08-08T11:24:41.000Z</time>
      </trkpt>
      <trkpt lat="45.47407" lon="6.21831">
        <ele>1392.8000488281</ele>
        <time>2023-08-08T11:24:43.000Z</time>
      </trkpt>
      <trkpt lat="45.47407" lon="6.21834">
        <ele>1393.8000488281</ele>
        <time>2023-08-08T11:24:50.000Z</time>
      </trkpt>
      <trkpt lat="45.47407" lon="6.21835">
        <ele>1394</ele>
        <time>2023-08-08T11:24:51.000Z</time>
      </trkpt>
      <trkpt lat="45.47406" lon="6.21841">
        <ele>1394.8000488281</ele>
        <time>2023-08-08T11:24:58.000Z</time>
      </trkpt>
      <trkpt lat="45.47405" lon="6.21843">
        <ele>1395.1999511719</ele>
        <time>2023-08-08T11:25:01.000Z</time>
      </trkpt>
      <trkpt lat="45.47403" lon="6.21847">
        <ele>1395.8000488281</ele>
        <time>2023-08-08T11:25:05.000Z</time>
      </trkpt>
      <trkpt lat="45.47402" lon="6.21847">
        <ele>1396.4000244141</ele>
        <time>2023-08-08T11:25:09.000Z</time>
      </trkpt>
      <trkpt lat="45.47401" lon="6.21846">
        <ele>1397</ele>
        <time>2023-08-08T11:25:12.000Z</time>
      </trkpt>
      <trkpt lat="45.47398" lon="6.21844">
        <ele>1397.5999755859</ele>
        <time>2023-08-08T11:25:17.000Z</time>
      </trkpt>
      <trkpt lat="45.47396" lon="6.21842">
        <ele>1398</ele>
        <time>2023-08-08T11:25:22.000Z</time>
      </trkpt>
      <trkpt lat="45.47396" lon="6.21842">
        <ele>1398.1999511719</ele>
        <time>2023-08-08T11:25:23.000Z</time>
      </trkpt>
      <trkpt lat="45.4739" lon="6.2184">
        <ele>1399.1999511719</ele>
        <time>2023-08-08T11:25:30.000Z</time>
      </trkpt>
      <trkpt lat="45.4739" lon="6.21837">
        <ele>1400.1999511719</ele>
        <time>2023-08-08T11:25:37.000Z</time>
      </trkpt>
      <trkpt lat="45.47382" lon="6.21827">
        <ele>1401.4000244141</ele>
        <time>2023-08-08T11:25:45.000Z</time>
      </trkpt>
      <trkpt lat="45.47377" lon="6.21823">
        <ele>1402.4000244141</ele>
        <time>2023-08-08T11:25:51.000Z</time>
      </trkpt>
      <trkpt lat="45.47377" lon="6.21822">
        <ele>1402.5999755859</ele>
        <time>2023-08-08T11:25:52.000Z</time>
      </trkpt>
      <trkpt lat="45.47373" lon="6.21819">
        <ele>1404</ele>
        <time>2023-08-08T11:26:01.000Z</time>
      </trkpt>
      <trkpt lat="45.47371" lon="6.21819">
        <ele>1404.5999755859</ele>
        <time>2023-08-08T11:26:07.000Z</time>
      </trkpt>
      <trkpt lat="45.47371" lon="6.21819">
        <ele>1404.5999755859</ele>
        <time>2023-08-08T11:26:08.000Z</time>
      </trkpt>
      <trkpt lat="45.47369" lon="6.21818">
        <ele>1405.5999755859</ele>
        <time>2023-08-08T11:26:14.000Z</time>
      </trkpt>
      <trkpt lat="45.47368" lon="6.21818">
        <ele>1406</ele>
        <time>2023-08-08T11:26:16.000Z</time>
      </trkpt>
      <trkpt lat="45.47366" lon="6.21818">
        <ele>1406.8000488281</ele>
        <time>2023-08-08T11:26:20.000Z</time>
      </trkpt>
      <trkpt lat="45.47364" lon="6.21819">
        <ele>1407.8000488281</ele>
        <time>2023-08-08T11:26:25.000Z</time>
      </trkpt>
      <trkpt lat="45.47363" lon="6.21819">
        <ele>1407.8000488281</ele>
        <time>2023-08-08T11:26:26.000Z</time>
      </trkpt>
      <trkpt lat="45.47357" lon="6.21816">
        <ele>1408.8000488281</ele>
        <time>2023-08-08T11:26:31.000Z</time>
      </trkpt>
      <trkpt lat="45.47357" lon="6.21816">
        <ele>1409</ele>
        <time>2023-08-08T11:26:32.000Z</time>
      </trkpt>
      <trkpt lat="45.47354" lon="6.21811">
        <ele>1410</ele>
        <time>2023-08-08T11:26:38.000Z</time>
      </trkpt>
      <trkpt lat="45.47353" lon="6.2181">
        <ele>1410</ele>
        <time>2023-08-08T11:26:39.000Z</time>
      </trkpt>
      <trkpt lat="45.47352" lon="6.21806">
        <ele>1411</ele>
        <time>2023-08-08T11:26:44.000Z</time>
      </trkpt>
      <trkpt lat="45.47348" lon="6.21803">
        <ele>1412</ele>
        <time>2023-08-08T11:26:52.000Z</time>
      </trkpt>
      <trkpt lat="45.47348" lon="6.21804">
        <ele>1413.1999511719</ele>
        <time>2023-08-08T11:26:59.000Z</time>
      </trkpt>
      <trkpt lat="45.47348" lon="6.21804">
        <ele>1413.1999511719</ele>
        <time>2023-08-08T11:27:00.000Z</time>
      </trkpt>
      <trkpt lat="45.47347" lon="6.21809">
        <ele>1414.1999511719</ele>
        <time>2023-08-08T11:27:05.000Z</time>
      </trkpt>
      <trkpt lat="45.47345" lon="6.2181">
        <ele>1415.1999511719</ele>
        <time>2023-08-08T11:27:11.000Z</time>
      </trkpt>
      <trkpt lat="45.47342" lon="6.21808">
        <ele>1416.1999511719</ele>
        <time>2023-08-08T11:27:19.000Z</time>
      </trkpt>
      <trkpt lat="45.47339" lon="6.21809">
        <ele>1417.4000244141</ele>
        <time>2023-08-08T11:27:27.000Z</time>
      </trkpt>
      <trkpt lat="45.47338" lon="6.2181">
        <ele>1417.5999755859</ele>
        <time>2023-08-08T11:27:28.000Z</time>
      </trkpt>
      <trkpt lat="45.47334" lon="6.21812">
        <ele>1418.4000244141</ele>
        <time>2023-08-08T11:27:34.000Z</time>
      </trkpt>
      <trkpt lat="45.47332" lon="6.21812">
        <ele>1418.8000488281</ele>
        <time>2023-08-08T11:27:36.000Z</time>
      </trkpt>
      <trkpt lat="45.4733" lon="6.21811">
        <ele>1419.5999755859</ele>
        <time>2023-08-08T11:27:42.000Z</time>
      </trkpt>
      <trkpt lat="45.47329" lon="6.21811">
        <ele>1419.8000488281</ele>
        <time>2023-08-08T11:27:43.000Z</time>
      </trkpt>
      <trkpt lat="45.47325" lon="6.21809">
        <ele>1420.8000488281</ele>
        <time>2023-08-08T11:27:49.000Z</time>
      </trkpt>
      <trkpt lat="45.47322" lon="6.21808">
        <ele>1421.4000244141</ele>
        <time>2023-08-08T11:27:53.000Z</time>
      </trkpt>
      <trkpt lat="45.4732" lon="6.21808">
        <ele>1421.8000488281</ele>
        <time>2023-08-08T11:27:56.000Z</time>
      </trkpt>
      <trkpt lat="45.47315" lon="6.21807">
        <ele>1422.5999755859</ele>
        <time>2023-08-08T11:28:02.000Z</time>
      </trkpt>
      <trkpt lat="45.47315" lon="6.21806">
        <ele>1423</ele>
        <time>2023-08-08T11:28:03.000Z</time>
      </trkpt>
      <trkpt lat="45.47311" lon="6.21804">
        <ele>1424</ele>
        <time>2023-08-08T11:28:09.000Z</time>
      </trkpt>
      <trkpt lat="45.47309" lon="6.21803">
        <ele>1424.1999511719</ele>
        <time>2023-08-08T11:28:11.000Z</time>
      </trkpt>
      <trkpt lat="45.47308" lon="6.21803">
        <ele>1425</ele>
        <time>2023-08-08T11:28:16.000Z</time>
      </trkpt>
      <trkpt lat="45.47306" lon="6.21801">
        <ele>1425.5999755859</ele>
        <time>2023-08-08T11:28:21.000Z</time>
      </trkpt>
      <trkpt lat="45.47305" lon="6.218">
        <ele>1426</ele>
        <time>2023-08-08T11:28:23.000Z</time>
      </trkpt>
      <trkpt lat="45.47304" lon="6.21799">
        <ele>1426.5999755859</ele>
        <time>2023-08-08T11:28:28.000Z</time>
      </trkpt>
      <trkpt lat="45.47304" lon="6.21799">
        <ele>1427</ele>
        <time>2023-08-08T11:28:30.000Z</time>
      </trkpt>
      <trkpt lat="45.473" lon="6.21798">
        <ele>1428.1999511719</ele>
        <time>2023-08-08T11:28:38.000Z</time>
      </trkpt>
      <trkpt lat="45.47299" lon="6.21797">
        <ele>1428.1999511719</ele>
        <time>2023-08-08T11:28:39.000Z</time>
      </trkpt>
      <trkpt lat="45.47295" lon="6.21795">
        <ele>1429.1999511719</ele>
        <time>2023-08-08T11:28:45.000Z</time>
      </trkpt>
      <trkpt lat="45.47293" lon="6.21794">
        <ele>1429.5999755859</ele>
        <time>2023-08-08T11:28:48.000Z</time>
      </trkpt>
      <trkpt lat="45.47291" lon="6.21794">
        <ele>1430.1999511719</ele>
        <time>2023-08-08T11:28:53.000Z</time>
      </trkpt>
      <trkpt lat="45.47289" lon="6.21794">
        <ele>1431.4000244141</ele>
        <time>2023-08-08T11:28:59.000Z</time>
      </trkpt>
      <trkpt lat="45.47289" lon="6.21794">
        <ele>1432.4000244141</ele>
        <time>2023-08-08T11:29:06.000Z</time>
      </trkpt>
      <trkpt lat="45.47283" lon="6.21791">
        <ele>1433.1999511719</ele>
        <time>2023-08-08T11:29:13.000Z</time>
      </trkpt>
      <trkpt lat="45.47281" lon="6.21789">
        <ele>1433.8000488281</ele>
        <time>2023-08-08T11:29:16.000Z</time>
      </trkpt>
      <trkpt lat="45.47279" lon="6.21788">
        <ele>1434.4000244141</ele>
        <time>2023-08-08T11:29:21.000Z</time>
      </trkpt>
      <trkpt lat="45.47278" lon="6.21788">
        <ele>1434.8000488281</ele>
        <time>2023-08-08T11:29:23.000Z</time>
      </trkpt>
      <trkpt lat="45.47273" lon="6.21785">
        <ele>1435.5999755859</ele>
        <time>2023-08-08T11:29:30.000Z</time>
      </trkpt>
      <trkpt lat="45.47272" lon="6.21784">
        <ele>1435.8000488281</ele>
        <time>2023-08-08T11:29:31.000Z</time>
      </trkpt>
      <trkpt lat="45.4727" lon="6.21787">
        <ele>1436.8000488281</ele>
        <time>2023-08-08T11:29:39.000Z</time>
      </trkpt>
      <trkpt lat="45.47269" lon="6.21791">
        <ele>1438</ele>
        <time>2023-08-08T11:29:47.000Z</time>
      </trkpt>
      <trkpt lat="45.4727" lon="6.21792">
        <ele>1438.1999511719</ele>
        <time>2023-08-08T11:29:49.000Z</time>
      </trkpt>
      <trkpt lat="45.4727" lon="6.21799">
        <ele>1439</ele>
        <time>2023-08-08T11:29:56.000Z</time>
      </trkpt>
      <trkpt lat="45.47271" lon="6.21802">
        <ele>1439.5999755859</ele>
        <time>2023-08-08T11:29:58.000Z</time>
      </trkpt>
      <trkpt lat="45.47273" lon="6.21807">
        <ele>1440.1999511719</ele>
        <time>2023-08-08T11:30:01.000Z</time>
      </trkpt>
      <trkpt lat="45.47276" lon="6.2181">
        <ele>1440.4000244141</ele>
        <time>2023-08-08T11:30:06.000Z</time>
      </trkpt>
      <trkpt lat="45.47281" lon="6.21808">
        <ele>1440.1999511719</ele>
        <time>2023-08-08T11:30:17.000Z</time>
      </trkpt>
      <trkpt lat="45.47279" lon="6.21809">
        <ele>1440</ele>
        <time>2023-08-08T11:30:25.000Z</time>
      </trkpt>
      <trkpt lat="45.47278" lon="6.21809">
        <ele>1440</ele>
        <time>2023-08-08T11:30:34.000Z</time>
      </trkpt>
      <trkpt lat="45.47276" lon="6.21808">
        <ele>1439.8000488281</ele>
        <time>2023-08-08T11:30:45.000Z</time>
      </trkpt>
      <trkpt lat="45.47272" lon="6.21814">
        <ele>1439.8000488281</ele>
        <time>2023-08-08T11:30:56.000Z</time>
      </trkpt>
      <trkpt lat="45.47272" lon="6.21823">
        <ele>1439.5999755859</ele>
        <time>2023-08-08T11:31:02.000Z</time>
      </trkpt>
      <trkpt lat="45.47273" lon="6.21822">
        <ele>1440.4000244141</ele>
        <time>2023-08-08T11:31:09.000Z</time>
      </trkpt>
      <trkpt lat="45.47273" lon="6.21822">
        <ele>1441.1999511719</ele>
        <time>2023-08-08T11:31:12.000Z</time>
      </trkpt>
      <trkpt lat="45.47272" lon="6.21822">
        <ele>1441.8000488281</ele>
        <time>2023-08-08T11:31:15.000Z</time>
      </trkpt>
      <trkpt lat="45.4727" lon="6.21822">
        <ele>1442.1999511719</ele>
        <time>2023-08-08T11:31:18.000Z</time>
      </trkpt>
      <trkpt lat="45.47266" lon="6.21822">
        <ele>1443.1999511719</ele>
        <time>2023-08-08T11:31:24.000Z</time>
      </trkpt>
      <trkpt lat="45.47263" lon="6.21823">
        <ele>1444.4000244141</ele>
        <time>2023-08-08T11:31:31.000Z</time>
      </trkpt>
      <trkpt lat="45.47262" lon="6.21822">
        <ele>1444.8000488281</ele>
        <time>2023-08-08T11:31:33.000Z</time>
      </trkpt>
      <trkpt lat="45.4726" lon="6.21823">
        <ele>1445.4000244141</ele>
        <time>2023-08-08T11:31:37.000Z</time>
      </trkpt>
      <trkpt lat="45.47255" lon="6.21821">
        <ele>1446.4000244141</ele>
        <time>2023-08-08T11:31:42.000Z</time>
      </trkpt>
      <trkpt lat="45.47254" lon="6.21821">
        <ele>1446.4000244141</ele>
        <time>2023-08-08T11:31:44.000Z</time>
      </trkpt>
      <trkpt lat="45.4725" lon="6.2182">
        <ele>1447.8000488281</ele>
        <time>2023-08-08T11:31:51.000Z</time>
      </trkpt>
      <trkpt lat="45.4725" lon="6.2182">
        <ele>1448</ele>
        <time>2023-08-08T11:31:52.000Z</time>
      </trkpt>
      <trkpt lat="45.47249" lon="6.2182">
        <ele>1448.8000488281</ele>
        <time>2023-08-08T11:31:57.000Z</time>
      </trkpt>
      <trkpt lat="45.47248" lon="6.2182">
        <ele>1449.1999511719</ele>
        <time>2023-08-08T11:32:00.000Z</time>
      </trkpt>
      <trkpt lat="45.47242" lon="6.21818">
        <ele>1449.5999755859</ele>
        <time>2023-08-08T11:32:10.000Z</time>
      </trkpt>
      <trkpt lat="45.47242" lon="6.21816">
        <ele>1450</ele>
        <time>2023-08-08T11:32:12.000Z</time>
      </trkpt>
      <trkpt lat="45.47241" lon="6.21814">
        <ele>1451.1999511719</ele>
        <time>2023-08-08T11:32:19.000Z</time>
      </trkpt>
      <trkpt lat="45.4724" lon="6.21813">
        <ele>1451.4000244141</ele>
        <time>2023-08-08T11:32:20.000Z</time>
      </trkpt>
      <trkpt lat="45.47236" lon="6.21811">
        <ele>1452.4000244141</ele>
        <time>2023-08-08T11:32:27.000Z</time>
      </trkpt>
      <trkpt lat="45.47236" lon="6.21812">
        <ele>1452.5999755859</ele>
        <time>2023-08-08T11:32:29.000Z</time>
      </trkpt>
      <trkpt lat="45.47234" lon="6.21812">
        <ele>1453.4000244141</ele>
        <time>2023-08-08T11:32:33.000Z</time>
      </trkpt>
      <trkpt lat="45.4723" lon="6.21813">
        <ele>1454</ele>
        <time>2023-08-08T11:32:39.000Z</time>
      </trkpt>
      <trkpt lat="45.47226" lon="6.21812">
        <ele>1454.4000244141</ele>
        <time>2023-08-08T11:32:42.000Z</time>
      </trkpt>
      <trkpt lat="45.47218" lon="6.21811">
        <ele>1455</ele>
        <time>2023-08-08T11:32:48.000Z</time>
      </trkpt>
      <trkpt lat="45.47215" lon="6.2181">
        <ele>1455.5999755859</ele>
        <time>2023-08-08T11:32:51.000Z</time>
      </trkpt>
      <trkpt lat="45.4721" lon="6.21807">
        <ele>1456.1999511719</ele>
        <time>2023-08-08T11:32:56.000Z</time>
      </trkpt>
      <trkpt lat="45.47206" lon="6.21805">
        <ele>1456.5999755859</ele>
        <time>2023-08-08T11:33:00.000Z</time>
      </trkpt>
      <trkpt lat="45.472" lon="6.21805">
        <ele>1457.1999511719</ele>
        <time>2023-08-08T11:33:05.000Z</time>
      </trkpt>
      <trkpt lat="45.47196" lon="6.21805">
        <ele>1457.8000488281</ele>
        <time>2023-08-08T11:33:09.000Z</time>
      </trkpt>
      <trkpt lat="45.47195" lon="6.21805">
        <ele>1458.1999511719</ele>
        <time>2023-08-08T11:33:13.000Z</time>
      </trkpt>
      <trkpt lat="45.47191" lon="6.21808">
        <ele>1458.8000488281</ele>
        <time>2023-08-08T11:33:18.000Z</time>
      </trkpt>
      <trkpt lat="45.47191" lon="6.21811">
        <ele>1459.4000244141</ele>
        <time>2023-08-08T11:33:22.000Z</time>
      </trkpt>
      <trkpt lat="45.47192" lon="6.21814">
        <ele>1459.8000488281</ele>
        <time>2023-08-08T11:33:25.000Z</time>
      </trkpt>
      <trkpt lat="45.47193" lon="6.21815">
        <ele>1460.5999755859</ele>
        <time>2023-08-08T11:33:29.000Z</time>
      </trkpt>
      <trkpt lat="45.47193" lon="6.21816">
        <ele>1461</ele>
        <time>2023-08-08T11:33:31.000Z</time>
      </trkpt>
      <trkpt lat="45.47197" lon="6.21821">
        <ele>1461.8000488281</ele>
        <time>2023-08-08T11:33:38.000Z</time>
      </trkpt>
      <trkpt lat="45.47197" lon="6.21821">
        <ele>1462</ele>
        <time>2023-08-08T11:33:39.000Z</time>
      </trkpt>
      <trkpt lat="45.47203" lon="6.21831">
        <ele>1463</ele>
        <time>2023-08-08T11:33:47.000Z</time>
      </trkpt>
      <trkpt lat="45.47206" lon="6.21841">
        <ele>1464.1999511719</ele>
        <time>2023-08-08T11:33:54.000Z</time>
      </trkpt>
      <trkpt lat="45.47207" lon="6.21844">
        <ele>1464.8000488281</ele>
        <time>2023-08-08T11:33:57.000Z</time>
      </trkpt>
      <trkpt lat="45.47208" lon="6.21846">
        <ele>1465.1999511719</ele>
        <time>2023-08-08T11:34:00.000Z</time>
      </trkpt>
      <trkpt lat="45.47209" lon="6.2185">
        <ele>1466</ele>
        <time>2023-08-08T11:34:05.000Z</time>
      </trkpt>
      <trkpt lat="45.47209" lon="6.21853">
        <ele>1466.4000244141</ele>
        <time>2023-08-08T11:34:07.000Z</time>
      </trkpt>
      <trkpt lat="45.47209" lon="6.21857">
        <ele>1467</ele>
        <time>2023-08-08T11:34:12.000Z</time>
      </trkpt>
      <trkpt lat="45.47209" lon="6.21859">
        <ele>1467.4000244141</ele>
        <time>2023-08-08T11:34:15.000Z</time>
      </trkpt>
      <trkpt lat="45.47207" lon="6.21862">
        <ele>1468.4000244141</ele>
        <time>2023-08-08T11:34:22.000Z</time>
      </trkpt>
      <trkpt lat="45.47207" lon="6.2187">
        <ele>1469.5999755859</ele>
        <time>2023-08-08T11:34:31.000Z</time>
      </trkpt>
      <trkpt lat="45.47207" lon="6.21871">
        <ele>1469.8000488281</ele>
        <time>2023-08-08T11:34:33.000Z</time>
      </trkpt>
      <trkpt lat="45.47208" lon="6.21878">
        <ele>1470.5999755859</ele>
        <time>2023-08-08T11:34:39.000Z</time>
      </trkpt>
      <trkpt lat="45.47207" lon="6.21885">
        <ele>1470.8000488281</ele>
        <time>2023-08-08T11:34:43.000Z</time>
      </trkpt>
      <trkpt lat="45.47203" lon="6.21892">
        <ele>1471.5999755859</ele>
        <time>2023-08-08T11:34:50.000Z</time>
      </trkpt>
      <trkpt lat="45.47202" lon="6.21893">
        <ele>1471.5999755859</ele>
        <time>2023-08-08T11:34:51.000Z</time>
      </trkpt>
      <trkpt lat="45.47197" lon="6.21898">
        <ele>1472.1999511719</ele>
        <time>2023-08-08T11:34:58.000Z</time>
      </trkpt>
      <trkpt lat="45.47194" lon="6.219">
        <ele>1472.5999755859</ele>
        <time>2023-08-08T11:35:02.000Z</time>
      </trkpt>
      <trkpt lat="45.47189" lon="6.21902">
        <ele>1473.1999511719</ele>
        <time>2023-08-08T11:35:09.000Z</time>
      </trkpt>
      <trkpt lat="45.47185" lon="6.21903">
        <ele>1473.8000488281</ele>
        <time>2023-08-08T11:35:15.000Z</time>
      </trkpt>
      <trkpt lat="45.47184" lon="6.21904">
        <ele>1473.8000488281</ele>
        <time>2023-08-08T11:35:16.000Z</time>
      </trkpt>
      <trkpt lat="45.4718" lon="6.21906">
        <ele>1474.4000244141</ele>
        <time>2023-08-08T11:35:23.000Z</time>
      </trkpt>
      <trkpt lat="45.47178" lon="6.21909">
        <ele>1474.8000488281</ele>
        <time>2023-08-08T11:35:27.000Z</time>
      </trkpt>
      <trkpt lat="45.47175" lon="6.21914">
        <ele>1475.1999511719</ele>
        <time>2023-08-08T11:35:31.000Z</time>
      </trkpt>
      <trkpt lat="45.47171" lon="6.21916">
        <ele>1475.8000488281</ele>
        <time>2023-08-08T11:35:38.000Z</time>
      </trkpt>
      <trkpt lat="45.47171" lon="6.21916">
        <ele>1475.5999755859</ele>
        <time>2023-08-08T11:35:47.000Z</time>
      </trkpt>
      <trkpt lat="45.47173" lon="6.21926">
        <ele>1475.5999755859</ele>
        <time>2023-08-08T11:35:59.000Z</time>
      </trkpt>
      <trkpt lat="45.4717" lon="6.21923">
        <ele>1475.5999755859</ele>
        <time>2023-08-08T11:36:06.000Z</time>
      </trkpt>
      <trkpt lat="45.47168" lon="6.21927">
        <ele>1475.5999755859</ele>
        <time>2023-08-08T11:36:14.000Z</time>
      </trkpt>
      <trkpt lat="45.47167" lon="6.21931">
        <ele>1475.8000488281</ele>
        <time>2023-08-08T11:36:18.000Z</time>
      </trkpt>
      <trkpt lat="45.47166" lon="6.21934">
        <ele>1476.4000244141</ele>
        <time>2023-08-08T11:36:23.000Z</time>
      </trkpt>
      <trkpt lat="45.4716" lon="6.21939">
        <ele>1476.8000488281</ele>
        <time>2023-08-08T11:36:32.000Z</time>
      </trkpt>
      <trkpt lat="45.47156" lon="6.2194">
        <ele>1477</ele>
        <time>2023-08-08T11:36:34.000Z</time>
      </trkpt>
      <trkpt lat="45.47149" lon="6.2194">
        <ele>1477.5999755859</ele>
        <time>2023-08-08T11:36:40.000Z</time>
      </trkpt>
      <trkpt lat="45.47141" lon="6.21938">
        <ele>1478</ele>
        <time>2023-08-08T11:36:47.000Z</time>
      </trkpt>
      <trkpt lat="45.4714" lon="6.21936">
        <ele>1478.1999511719</ele>
        <time>2023-08-08T11:36:49.000Z</time>
      </trkpt>
      <trkpt lat="45.47137" lon="6.21933">
        <ele>1479.1999511719</ele>
        <time>2023-08-08T11:36:53.000Z</time>
      </trkpt>
      <trkpt lat="45.47134" lon="6.21929">
        <ele>1480</ele>
        <time>2023-08-08T11:36:57.000Z</time>
      </trkpt>
      <trkpt lat="45.47134" lon="6.21928">
        <ele>1480.1999511719</ele>
        <time>2023-08-08T11:36:58.000Z</time>
      </trkpt>
      <trkpt lat="45.47133" lon="6.21926">
        <ele>1481.4000244141</ele>
        <time>2023-08-08T11:37:04.000Z</time>
      </trkpt>
      <trkpt lat="45.47132" lon="6.21924">
        <ele>1482</ele>
        <time>2023-08-08T11:37:08.000Z</time>
      </trkpt>
      <trkpt lat="45.4713" lon="6.21921">
        <ele>1482.4000244141</ele>
        <time>2023-08-08T11:37:11.000Z</time>
      </trkpt>
      <trkpt lat="45.47128" lon="6.21917">
        <ele>1483</ele>
        <time>2023-08-08T11:37:15.000Z</time>
      </trkpt>
      <trkpt lat="45.47125" lon="6.21916">
        <ele>1483.4000244141</ele>
        <time>2023-08-08T11:37:18.000Z</time>
      </trkpt>
      <trkpt lat="45.47117" lon="6.21914">
        <ele>1484.5999755859</ele>
        <time>2023-08-08T11:37:25.000Z</time>
      </trkpt>
      <trkpt lat="45.47113" lon="6.21913">
        <ele>1485.5999755859</ele>
        <time>2023-08-08T11:37:30.000Z</time>
      </trkpt>
      <trkpt lat="45.47109" lon="6.21913">
        <ele>1486.1999511719</ele>
        <time>2023-08-08T11:37:35.000Z</time>
      </trkpt>
      <trkpt lat="45.47107" lon="6.21912">
        <ele>1486.8000488281</ele>
        <time>2023-08-08T11:37:39.000Z</time>
      </trkpt>
      <trkpt lat="45.47101" lon="6.21908">
        <ele>1487.4000244141</ele>
        <time>2023-08-08T11:37:45.000Z</time>
      </trkpt>
      <trkpt lat="45.47101" lon="6.21907">
        <ele>1487.8000488281</ele>
        <time>2023-08-08T11:37:46.000Z</time>
      </trkpt>
      <trkpt lat="45.47098" lon="6.21905">
        <ele>1488.1999511719</ele>
        <time>2023-08-08T11:37:53.000Z</time>
      </trkpt>
      <trkpt lat="45.47094" lon="6.21903">
        <ele>1488.8000488281</ele>
        <time>2023-08-08T11:37:58.000Z</time>
      </trkpt>
      <trkpt lat="45.47089" lon="6.21898">
        <ele>1489.4000244141</ele>
        <time>2023-08-08T11:38:03.000Z</time>
      </trkpt>
      <trkpt lat="45.47083" lon="6.21895">
        <ele>1489.8000488281</ele>
        <time>2023-08-08T11:38:06.000Z</time>
      </trkpt>
      <trkpt lat="45.4708" lon="6.21894">
        <ele>1490.4000244141</ele>
        <time>2023-08-08T11:38:10.000Z</time>
      </trkpt>
      <trkpt lat="45.47079" lon="6.21892">
        <ele>1491</ele>
        <time>2023-08-08T11:38:13.000Z</time>
      </trkpt>
      <trkpt lat="45.47078" lon="6.2189">
        <ele>1491.1999511719</ele>
        <time>2023-08-08T11:38:16.000Z</time>
      </trkpt>
      <trkpt lat="45.47075" lon="6.21887">
        <ele>1492</ele>
        <time>2023-08-08T11:38:22.000Z</time>
      </trkpt>
      <trkpt lat="45.47073" lon="6.21886">
        <ele>1492.4000244141</ele>
        <time>2023-08-08T11:38:25.000Z</time>
      </trkpt>
      <trkpt lat="45.4707" lon="6.21885">
        <ele>1493</ele>
        <time>2023-08-08T11:38:29.000Z</time>
      </trkpt>
      <trkpt lat="45.47067" lon="6.21882">
        <ele>1493.5999755859</ele>
        <time>2023-08-08T11:38:34.000Z</time>
      </trkpt>
      <trkpt lat="45.47065" lon="6.21879">
        <ele>1494</ele>
        <time>2023-08-08T11:38:38.000Z</time>
      </trkpt>
      <trkpt lat="45.4706" lon="6.21875">
        <ele>1495</ele>
        <time>2023-08-08T11:38:44.000Z</time>
      </trkpt>
      <trkpt lat="45.47058" lon="6.21873">
        <ele>1495.4000244141</ele>
        <time>2023-08-08T11:38:46.000Z</time>
      </trkpt>
      <trkpt lat="45.47052" lon="6.21865">
        <ele>1496.4000244141</ele>
        <time>2023-08-08T11:38:53.000Z</time>
      </trkpt>
      <trkpt lat="45.47045" lon="6.21859">
        <ele>1497.4000244141</ele>
        <time>2023-08-08T11:39:00.000Z</time>
      </trkpt>
      <trkpt lat="45.47043" lon="6.21858">
        <ele>1497.5999755859</ele>
        <time>2023-08-08T11:39:02.000Z</time>
      </trkpt>
      <trkpt lat="45.4704" lon="6.21856">
        <ele>1498.4000244141</ele>
        <time>2023-08-08T11:39:07.000Z</time>
      </trkpt>
      <trkpt lat="45.47036" lon="6.21853">
        <ele>1498.8000488281</ele>
        <time>2023-08-08T11:39:10.000Z</time>
      </trkpt>
      <trkpt lat="45.47032" lon="6.21848">
        <ele>1499.5999755859</ele>
        <time>2023-08-08T11:39:14.000Z</time>
      </trkpt>
      <trkpt lat="45.47031" lon="6.21844">
        <ele>1500.1999511719</ele>
        <time>2023-08-08T11:39:19.000Z</time>
      </trkpt>
      <trkpt lat="45.47029" lon="6.21842">
        <ele>1500.5999755859</ele>
        <time>2023-08-08T11:39:22.000Z</time>
      </trkpt>
      <trkpt lat="45.47025" lon="6.2184">
        <ele>1501.1999511719</ele>
        <time>2023-08-08T11:39:25.000Z</time>
      </trkpt>
      <trkpt lat="45.47022" lon="6.21839">
        <ele>1501.4000244141</ele>
        <time>2023-08-08T11:39:27.000Z</time>
      </trkpt>
      <trkpt lat="45.4702" lon="6.21838">
        <ele>1501.8000488281</ele>
        <time>2023-08-08T11:39:29.000Z</time>
      </trkpt>
      <trkpt lat="45.47013" lon="6.21836">
        <ele>1502.8000488281</ele>
        <time>2023-08-08T11:39:37.000Z</time>
      </trkpt>
      <trkpt lat="45.47012" lon="6.21834">
        <ele>1503.4000244141</ele>
        <time>2023-08-08T11:39:42.000Z</time>
      </trkpt>
      <trkpt lat="45.47009" lon="6.21832">
        <ele>1503.8000488281</ele>
        <time>2023-08-08T11:39:46.000Z</time>
      </trkpt>
      <trkpt lat="45.47007" lon="6.21832">
        <ele>1504</ele>
        <time>2023-08-08T11:39:48.000Z</time>
      </trkpt>
      <trkpt lat="45.47002" lon="6.21828">
        <ele>1505</ele>
        <time>2023-08-08T11:39:56.000Z</time>
      </trkpt>
      <trkpt lat="45.46991" lon="6.2182">
        <ele>1506</ele>
        <time>2023-08-08T11:40:07.000Z</time>
      </trkpt>
      <trkpt lat="45.46989" lon="6.2182">
        <ele>1506</ele>
        <time>2023-08-08T11:40:09.000Z</time>
      </trkpt>
      <trkpt lat="45.46985" lon="6.2182">
        <ele>1506.5999755859</ele>
        <time>2023-08-08T11:40:15.000Z</time>
      </trkpt>
      <trkpt lat="45.46984" lon="6.2182">
        <ele>1506.5999755859</ele>
        <time>2023-08-08T11:40:16.000Z</time>
      </trkpt>
      <trkpt lat="45.46977" lon="6.21815">
        <ele>1507.1999511719</ele>
        <time>2023-08-08T11:40:22.000Z</time>
      </trkpt>
      <trkpt lat="45.46975" lon="6.21814">
        <ele>1507.1999511719</ele>
        <time>2023-08-08T11:40:24.000Z</time>
      </trkpt>
      <trkpt lat="45.46964" lon="6.21808">
        <ele>1508.1999511719</ele>
        <time>2023-08-08T11:40:32.000Z</time>
      </trkpt>
      <trkpt lat="45.46957" lon="6.21802">
        <ele>1509</ele>
        <time>2023-08-08T11:40:41.000Z</time>
      </trkpt>
      <trkpt lat="45.46955" lon="6.218">
        <ele>1509.4000244141</ele>
        <time>2023-08-08T11:40:44.000Z</time>
      </trkpt>
      <trkpt lat="45.46952" lon="6.21799">
        <ele>1509.8000488281</ele>
        <time>2023-08-08T11:40:48.000Z</time>
      </trkpt>
      <trkpt lat="45.46945" lon="6.21797">
        <ele>1510.4000244141</ele>
        <time>2023-08-08T11:40:55.000Z</time>
      </trkpt>
      <trkpt lat="45.46941" lon="6.21795">
        <ele>1510.8000488281</ele>
        <time>2023-08-08T11:40:58.000Z</time>
      </trkpt>
      <trkpt lat="45.46932" lon="6.21792">
        <ele>1511.5999755859</ele>
        <time>2023-08-08T11:41:06.000Z</time>
      </trkpt>
      <trkpt lat="45.4692" lon="6.21787">
        <ele>1512.5999755859</ele>
        <time>2023-08-08T11:41:16.000Z</time>
      </trkpt>
      <trkpt lat="45.46919" lon="6.21786">
        <ele>1512.5999755859</ele>
        <time>2023-08-08T11:41:17.000Z</time>
      </trkpt>
      <trkpt lat="45.46915" lon="6.21787">
        <ele>1513.4000244141</ele>
        <time>2023-08-08T11:41:24.000Z</time>
      </trkpt>
      <trkpt lat="45.46913" lon="6.21788">
        <ele>1513.5999755859</ele>
        <time>2023-08-08T11:41:27.000Z</time>
      </trkpt>
      <trkpt lat="45.46908" lon="6.21789">
        <ele>1514.1999511719</ele>
        <time>2023-08-08T11:41:33.000Z</time>
      </trkpt>
      <trkpt lat="45.46903" lon="6.21788">
        <ele>1514.8000488281</ele>
        <time>2023-08-08T11:41:38.000Z</time>
      </trkpt>
      <trkpt lat="45.46899" lon="6.21785">
        <ele>1515</ele>
        <time>2023-08-08T11:41:41.000Z</time>
      </trkpt>
      <trkpt lat="45.46891" lon="6.21779">
        <ele>1515.8000488281</ele>
        <time>2023-08-08T11:41:47.000Z</time>
      </trkpt>
      <trkpt lat="45.46888" lon="6.21779">
        <ele>1516.4000244141</ele>
        <time>2023-08-08T11:41:50.000Z</time>
      </trkpt>
      <trkpt lat="45.4688" lon="6.21781">
        <ele>1517.5999755859</ele>
        <time>2023-08-08T11:42:01.000Z</time>
      </trkpt>
      <trkpt lat="45.46879" lon="6.21783">
        <ele>1518</ele>
        <time>2023-08-08T11:42:04.000Z</time>
      </trkpt>
      <trkpt lat="45.46875" lon="6.21789">
        <ele>1519.1999511719</ele>
        <time>2023-08-08T11:42:14.000Z</time>
      </trkpt>
      <trkpt lat="45.4687" lon="6.21791">
        <ele>1520</ele>
        <time>2023-08-08T11:42:20.000Z</time>
      </trkpt>
      <trkpt lat="45.4687" lon="6.21791">
        <ele>1520.4000244141</ele>
        <time>2023-08-08T11:42:22.000Z</time>
      </trkpt>
      <trkpt lat="45.46855" lon="6.21788">
        <ele>1522.1999511719</ele>
        <time>2023-08-08T11:42:32.000Z</time>
      </trkpt>
      <trkpt lat="45.46855" lon="6.21789">
        <ele>1522.4000244141</ele>
        <time>2023-08-08T11:42:33.000Z</time>
      </trkpt>
      <trkpt lat="45.46853" lon="6.21793">
        <ele>1523.1999511719</ele>
        <time>2023-08-08T11:42:37.000Z</time>
      </trkpt>
      <trkpt lat="45.46849" lon="6.21793">
        <ele>1523.5999755859</ele>
        <time>2023-08-08T11:42:42.000Z</time>
      </trkpt>
      <trkpt lat="45.46842" lon="6.21795">
        <ele>1524.1999511719</ele>
        <time>2023-08-08T11:42:50.000Z</time>
      </trkpt>
      <trkpt lat="45.46844" lon="6.21792">
        <ele>1524.1999511719</ele>
        <time>2023-08-08T11:42:51.000Z</time>
      </trkpt>
      <trkpt lat="45.46839" lon="6.21801">
        <ele>1524.5999755859</ele>
        <time>2023-08-08T11:42:57.000Z</time>
      </trkpt>
      <trkpt lat="45.46844" lon="6.2181">
        <ele>1524.5999755859</ele>
        <time>2023-08-08T11:43:11.000Z</time>
      </trkpt>
      <trkpt lat="45.46846" lon="6.21807">
        <ele>1524.5999755859</ele>
        <time>2023-08-08T11:43:22.000Z</time>
      </trkpt>
      <trkpt lat="45.46845" lon="6.21799">
        <ele>1524.5999755859</ele>
        <time>2023-08-08T11:43:29.000Z</time>
      </trkpt>
      <trkpt lat="45.46836" lon="6.21794">
        <ele>1525.1999511719</ele>
        <time>2023-08-08T11:43:40.000Z</time>
      </trkpt>
      <trkpt lat="45.46828" lon="6.21794">
        <ele>1526.4000244141</ele>
        <time>2023-08-08T11:43:48.000Z</time>
      </trkpt>
      <trkpt lat="45.46825" lon="6.21793">
        <ele>1526.4000244141</ele>
        <time>2023-08-08T11:43:50.000Z</time>
      </trkpt>
      <trkpt lat="45.46821" lon="6.21792">
        <ele>1527.4000244141</ele>
        <time>2023-08-08T11:43:57.000Z</time>
      </trkpt>
      <trkpt lat="45.46821" lon="6.21796">
        <ele>1528</ele>
        <time>2023-08-08T11:44:06.000Z</time>
      </trkpt>
      <trkpt lat="45.46821" lon="6.21797">
        <ele>1528.4000244141</ele>
        <time>2023-08-08T11:44:09.000Z</time>
      </trkpt>
      <trkpt lat="45.46826" lon="6.21807">
        <ele>1530.1999511719</ele>
        <time>2023-08-08T11:44:19.000Z</time>
      </trkpt>
      <trkpt lat="45.46826" lon="6.21808">
        <ele>1530.4000244141</ele>
        <time>2023-08-08T11:44:20.000Z</time>
      </trkpt>
      <trkpt lat="45.46829" lon="6.2181">
        <ele>1533</ele>
        <time>2023-08-08T11:44:38.000Z</time>
      </trkpt>
      <trkpt lat="45.46842" lon="6.21837">
        <ele>1535.5999755859</ele>
        <time>2023-08-08T11:44:57.000Z</time>
      </trkpt>
      <trkpt lat="45.46842" lon="6.21838">
        <ele>1535.8000488281</ele>
        <time>2023-08-08T11:44:58.000Z</time>
      </trkpt>
      <trkpt lat="45.46843" lon="6.21841">
        <ele>1536</ele>
        <time>2023-08-08T11:45:00.000Z</time>
      </trkpt>
      <trkpt lat="45.46844" lon="6.21841">
        <ele>1536.1999511719</ele>
        <time>2023-08-08T11:45:02.000Z</time>
      </trkpt>
      <trkpt lat="45.46844" lon="6.21841">
        <ele>1536.4000244141</ele>
        <time>2023-08-08T11:45:04.000Z</time>
      </trkpt>
      <trkpt lat="45.46858" lon="6.21859">
        <ele>1539.1999511719</ele>
        <time>2023-08-08T11:45:25.000Z</time>
      </trkpt>
      <trkpt lat="45.4686" lon="6.21862">
        <ele>1539.1999511719</ele>
        <time>2023-08-08T11:45:27.000Z</time>
      </trkpt>
      <trkpt lat="45.46861" lon="6.21868">
        <ele>1540</ele>
        <time>2023-08-08T11:45:33.000Z</time>
      </trkpt>
      <trkpt lat="45.46862" lon="6.21872">
        <ele>1540.1999511719</ele>
        <time>2023-08-08T11:45:34.000Z</time>
      </trkpt>
      <trkpt lat="45.46865" lon="6.21882">
        <ele>1540.8000488281</ele>
        <time>2023-08-08T11:45:40.000Z</time>
      </trkpt>
      <trkpt lat="45.46867" lon="6.21883">
        <ele>1541.1999511719</ele>
        <time>2023-08-08T11:45:42.000Z</time>
      </trkpt>
      <trkpt lat="45.46871" lon="6.21891">
        <ele>1542.1999511719</ele>
        <time>2023-08-08T11:45:48.000Z</time>
      </trkpt>
      <trkpt lat="45.46871" lon="6.21893">
        <ele>1542.4000244141</ele>
        <time>2023-08-08T11:45:49.000Z</time>
      </trkpt>
      <trkpt lat="45.46873" lon="6.21897">
        <ele>1543.4000244141</ele>
        <time>2023-08-08T11:45:56.000Z</time>
      </trkpt>
      <trkpt lat="45.46877" lon="6.219">
        <ele>1544.4000244141</ele>
        <time>2023-08-08T11:46:04.000Z</time>
      </trkpt>
      <trkpt lat="45.46878" lon="6.21898">
        <ele>1545.5999755859</ele>
        <time>2023-08-08T11:46:13.000Z</time>
      </trkpt>
      <trkpt lat="45.46877" lon="6.219">
        <ele>1546.4000244141</ele>
        <time>2023-08-08T11:46:19.000Z</time>
      </trkpt>
      <trkpt lat="45.46878" lon="6.219">
        <ele>1546.5999755859</ele>
        <time>2023-08-08T11:46:20.000Z</time>
      </trkpt>
      <trkpt lat="45.46876" lon="6.21898">
        <ele>1546.8000488281</ele>
        <time>2023-08-08T11:46:21.000Z</time>
      </trkpt>
      <trkpt lat="45.46879" lon="6.21915">
        <ele>1548.5999755859</ele>
        <time>2023-08-08T11:46:35.000Z</time>
      </trkpt>
      <trkpt lat="45.46871" lon="6.21917">
        <ele>1550</ele>
        <time>2023-08-08T11:46:45.000Z</time>
      </trkpt>
      <trkpt lat="45.46868" lon="6.21917">
        <ele>1550.5999755859</ele>
        <time>2023-08-08T11:46:48.000Z</time>
      </trkpt>
      <trkpt lat="45.46867" lon="6.21917">
        <ele>1551</ele>
        <time>2023-08-08T11:46:51.000Z</time>
      </trkpt>
      <trkpt lat="45.46865" lon="6.21917">
        <ele>1552</ele>
        <time>2023-08-08T11:46:56.000Z</time>
      </trkpt>
      <trkpt lat="45.46864" lon="6.21917">
        <ele>1552.1999511719</ele>
        <time>2023-08-08T11:46:58.000Z</time>
      </trkpt>
      <trkpt lat="45.46859" lon="6.21916">
        <ele>1553.1999511719</ele>
        <time>2023-08-08T11:47:04.000Z</time>
      </trkpt>
      <trkpt lat="45.46854" lon="6.21916">
        <ele>1553.8000488281</ele>
        <time>2023-08-08T11:47:07.000Z</time>
      </trkpt>
      <trkpt lat="45.46847" lon="6.21916">
        <ele>1555.5999755859</ele>
        <time>2023-08-08T11:47:21.000Z</time>
      </trkpt>
      <trkpt lat="45.46843" lon="6.21915">
        <ele>1556.1999511719</ele>
        <time>2023-08-08T11:47:24.000Z</time>
      </trkpt>
      <trkpt lat="45.4684" lon="6.21914">
        <ele>1556.5999755859</ele>
        <time>2023-08-08T11:47:27.000Z</time>
      </trkpt>
      <trkpt lat="45.46835" lon="6.21912">
        <ele>1557.5999755859</ele>
        <time>2023-08-08T11:47:32.000Z</time>
      </trkpt>
      <trkpt lat="45.46835" lon="6.21912">
        <ele>1557.8000488281</ele>
        <time>2023-08-08T11:47:33.000Z</time>
      </trkpt>
      <trkpt lat="45.46833" lon="6.21911">
        <ele>1558.4000244141</ele>
        <time>2023-08-08T11:47:37.000Z</time>
      </trkpt>
      <trkpt lat="45.46822" lon="6.21905">
        <ele>1561.8000488281</ele>
        <time>2023-08-08T11:48:00.000Z</time>
      </trkpt>
      <trkpt lat="45.4682" lon="6.21904">
        <ele>1562</ele>
        <time>2023-08-08T11:48:02.000Z</time>
      </trkpt>
      <trkpt lat="45.46817" lon="6.21902">
        <ele>1562.5999755859</ele>
        <time>2023-08-08T11:48:07.000Z</time>
      </trkpt>
      <trkpt lat="45.46798" lon="6.2188">
        <ele>1566</ele>
        <time>2023-08-08T11:48:30.000Z</time>
      </trkpt>
      <trkpt lat="45.46798" lon="6.2188">
        <ele>1566.1999511719</ele>
        <time>2023-08-08T11:48:31.000Z</time>
      </trkpt>
      <trkpt lat="45.46791" lon="6.21879">
        <ele>1568.4000244141</ele>
        <time>2023-08-08T11:48:44.000Z</time>
      </trkpt>
      <trkpt lat="45.46789" lon="6.21879">
        <ele>1569.4000244141</ele>
        <time>2023-08-08T11:48:51.000Z</time>
      </trkpt>
      <trkpt lat="45.46789" lon="6.21879">
        <ele>1569.5999755859</ele>
        <time>2023-08-08T11:48:52.000Z</time>
      </trkpt>
      <trkpt lat="45.46776" lon="6.21877">
        <ele>1572.5999755859</ele>
        <time>2023-08-08T11:49:12.000Z</time>
      </trkpt>
      <trkpt lat="45.46776" lon="6.21876">
        <ele>1573.1999511719</ele>
        <time>2023-08-08T11:49:16.000Z</time>
      </trkpt>
      <trkpt lat="45.46775" lon="6.21875">
        <ele>1573.8000488281</ele>
        <time>2023-08-08T11:49:19.000Z</time>
      </trkpt>
      <trkpt lat="45.46775" lon="6.21877">
        <ele>1574.8000488281</ele>
        <time>2023-08-08T11:49:25.000Z</time>
      </trkpt>
      <trkpt lat="45.46776" lon="6.21877">
        <ele>1575</ele>
        <time>2023-08-08T11:49:26.000Z</time>
      </trkpt>
      <trkpt lat="45.46774" lon="6.21881">
        <ele>1575.8000488281</ele>
        <time>2023-08-08T11:49:31.000Z</time>
      </trkpt>
      <trkpt lat="45.46772" lon="6.21886">
        <ele>1576.5999755859</ele>
        <time>2023-08-08T11:49:36.000Z</time>
      </trkpt>
      <trkpt lat="45.46771" lon="6.21886">
        <ele>1577</ele>
        <time>2023-08-08T11:49:38.000Z</time>
      </trkpt>
      <trkpt lat="45.46768" lon="6.21884">
        <ele>1577.8000488281</ele>
        <time>2023-08-08T11:49:44.000Z</time>
      </trkpt>
      <trkpt lat="45.46767" lon="6.21884">
        <ele>1578</ele>
        <time>2023-08-08T11:49:45.000Z</time>
      </trkpt>
      <trkpt lat="45.46763" lon="6.2188">
        <ele>1579</ele>
        <time>2023-08-08T11:49:51.000Z</time>
      </trkpt>
      <trkpt lat="45.46761" lon="6.21879">
        <ele>1579.4000244141</ele>
        <time>2023-08-08T11:49:53.000Z</time>
      </trkpt>
      <trkpt lat="45.46758" lon="6.21876">
        <ele>1580.1999511719</ele>
        <time>2023-08-08T11:49:58.000Z</time>
      </trkpt>
      <trkpt lat="45.46756" lon="6.21877">
        <ele>1580.8000488281</ele>
        <time>2023-08-08T11:50:02.000Z</time>
      </trkpt>
      <trkpt lat="45.46755" lon="6.21877">
        <ele>1581.1999511719</ele>
        <time>2023-08-08T11:50:05.000Z</time>
      </trkpt>
      <trkpt lat="45.4675" lon="6.21872">
        <ele>1582.1999511719</ele>
        <time>2023-08-08T11:50:11.000Z</time>
      </trkpt>
      <trkpt lat="45.46745" lon="6.2187">
        <ele>1583.1999511719</ele>
        <time>2023-08-08T11:50:17.000Z</time>
      </trkpt>
      <trkpt lat="45.46746" lon="6.21869">
        <ele>1583.4000244141</ele>
        <time>2023-08-08T11:50:18.000Z</time>
      </trkpt>
      <trkpt lat="45.46736" lon="6.21871">
        <ele>1585.1999511719</ele>
        <time>2023-08-08T11:50:29.000Z</time>
      </trkpt>
      <trkpt lat="45.46735" lon="6.21871">
        <ele>1585.4000244141</ele>
        <time>2023-08-08T11:50:31.000Z</time>
      </trkpt>
      <trkpt lat="45.46732" lon="6.21873">
        <ele>1586.4000244141</ele>
        <time>2023-08-08T11:50:38.000Z</time>
      </trkpt>
      <trkpt lat="45.4673" lon="6.21875">
        <ele>1586.8000488281</ele>
        <time>2023-08-08T11:50:43.000Z</time>
      </trkpt>
      <trkpt lat="45.46721" lon="6.21869">
        <ele>1587</ele>
        <time>2023-08-08T11:50:53.000Z</time>
      </trkpt>
      <trkpt lat="45.46713" lon="6.21866">
        <ele>1586.4000244141</ele>
        <time>2023-08-08T11:51:03.000Z</time>
      </trkpt>
      <trkpt lat="45.467" lon="6.21855">
        <ele>1586.5999755859</ele>
        <time>2023-08-08T11:51:19.000Z</time>
      </trkpt>
      <trkpt lat="45.46668" lon="6.21832">
        <ele>1586.1999511719</ele>
        <time>2023-08-08T11:51:49.000Z</time>
      </trkpt>
      <trkpt lat="45.46653" lon="6.21823">
        <ele>1587</ele>
        <time>2023-08-08T11:52:00.000Z</time>
      </trkpt>
      <trkpt lat="45.46651" lon="6.21821">
        <ele>1587.5999755859</ele>
        <time>2023-08-08T11:52:03.000Z</time>
      </trkpt>
      <trkpt lat="45.46647" lon="6.21818">
        <ele>1588.5999755859</ele>
        <time>2023-08-08T11:52:10.000Z</time>
      </trkpt>
      <trkpt lat="45.46644" lon="6.21816">
        <ele>1589.5999755859</ele>
        <time>2023-08-08T11:52:17.000Z</time>
      </trkpt>
      <trkpt lat="45.46641" lon="6.21815">
        <ele>1590</ele>
        <time>2023-08-08T11:52:20.000Z</time>
      </trkpt>
      <trkpt lat="45.46637" lon="6.21814">
        <ele>1590.8000488281</ele>
        <time>2023-08-08T11:52:26.000Z</time>
      </trkpt>
      <trkpt lat="45.46632" lon="6.21814">
        <ele>1592</ele>
        <time>2023-08-08T11:52:33.000Z</time>
      </trkpt>
      <trkpt lat="45.46631" lon="6.21813">
        <ele>1592.1999511719</ele>
        <time>2023-08-08T11:52:34.000Z</time>
      </trkpt>
      <trkpt lat="45.46624" lon="6.21811">
        <ele>1593.1999511719</ele>
        <time>2023-08-08T11:52:40.000Z</time>
      </trkpt>
      <trkpt lat="45.4662" lon="6.21808">
        <ele>1594.1999511719</ele>
        <time>2023-08-08T11:52:47.000Z</time>
      </trkpt>
      <trkpt lat="45.46616" lon="6.21806">
        <ele>1595.1999511719</ele>
        <time>2023-08-08T11:52:54.000Z</time>
      </trkpt>
      <trkpt lat="45.46615" lon="6.21804">
        <ele>1595.5999755859</ele>
        <time>2023-08-08T11:52:57.000Z</time>
      </trkpt>
      <trkpt lat="45.4661" lon="6.21802">
        <ele>1596.4000244141</ele>
        <time>2023-08-08T11:53:02.000Z</time>
      </trkpt>
      <trkpt lat="45.46603" lon="6.21799">
        <ele>1597.4000244141</ele>
        <time>2023-08-08T11:53:10.000Z</time>
      </trkpt>
      <trkpt lat="45.466" lon="6.21799">
        <ele>1597.5999755859</ele>
        <time>2023-08-08T11:53:16.000Z</time>
      </trkpt>
      <trkpt lat="45.466" lon="6.21801">
        <ele>1598</ele>
        <time>2023-08-08T11:53:26.000Z</time>
      </trkpt>
      <trkpt lat="45.46597" lon="6.21799">
        <ele>1597.8000488281</ele>
        <time>2023-08-08T11:53:33.000Z</time>
      </trkpt>
      <trkpt lat="45.46592" lon="6.21804">
        <ele>1597.8000488281</ele>
        <time>2023-08-08T11:53:45.000Z</time>
      </trkpt>
      <trkpt lat="45.46584" lon="6.21804">
        <ele>1598.4000244141</ele>
        <time>2023-08-08T11:53:55.000Z</time>
      </trkpt>
      <trkpt lat="45.46584" lon="6.21804">
        <ele>1598.5999755859</ele>
        <time>2023-08-08T11:53:56.000Z</time>
      </trkpt>
      <trkpt lat="45.46581" lon="6.21808">
        <ele>1599.5999755859</ele>
        <time>2023-08-08T11:54:04.000Z</time>
      </trkpt>
      <trkpt lat="45.46582" lon="6.2181">
        <ele>1600.4000244141</ele>
        <time>2023-08-08T11:54:08.000Z</time>
      </trkpt>
      <trkpt lat="45.46583" lon="6.2181">
        <ele>1600.5999755859</ele>
        <time>2023-08-08T11:54:09.000Z</time>
      </trkpt>
      <trkpt lat="45.46582" lon="6.21815">
        <ele>1601.5999755859</ele>
        <time>2023-08-08T11:54:16.000Z</time>
      </trkpt>
      <trkpt lat="45.46582" lon="6.21816">
        <ele>1602</ele>
        <time>2023-08-08T11:54:17.000Z</time>
      </trkpt>
      <trkpt lat="45.46582" lon="6.21818">
        <ele>1602.8000488281</ele>
        <time>2023-08-08T11:54:21.000Z</time>
      </trkpt>
      <trkpt lat="45.46582" lon="6.2182">
        <ele>1603.1999511719</ele>
        <time>2023-08-08T11:54:25.000Z</time>
      </trkpt>
      <trkpt lat="45.46582" lon="6.21821">
        <ele>1603.8000488281</ele>
        <time>2023-08-08T11:54:28.000Z</time>
      </trkpt>
      <trkpt lat="45.46583" lon="6.21824">
        <ele>1605</ele>
        <time>2023-08-08T11:54:33.000Z</time>
      </trkpt>
      <trkpt lat="45.46582" lon="6.21825">
        <ele>1605.1999511719</ele>
        <time>2023-08-08T11:54:34.000Z</time>
      </trkpt>
      <trkpt lat="45.46582" lon="6.21829">
        <ele>1606</ele>
        <time>2023-08-08T11:54:42.000Z</time>
      </trkpt>
      <trkpt lat="45.46583" lon="6.21831">
        <ele>1607.1999511719</ele>
        <time>2023-08-08T11:54:50.000Z</time>
      </trkpt>
      <trkpt lat="45.46584" lon="6.21836">
        <ele>1608</ele>
        <time>2023-08-08T11:54:56.000Z</time>
      </trkpt>
      <trkpt lat="45.46584" lon="6.21837">
        <ele>1608.1999511719</ele>
        <time>2023-08-08T11:54:57.000Z</time>
      </trkpt>
      <trkpt lat="45.46583" lon="6.21841">
        <ele>1609.4000244141</ele>
        <time>2023-08-08T11:55:05.000Z</time>
      </trkpt>
      <trkpt lat="45.46582" lon="6.21841">
        <ele>1609.8000488281</ele>
        <time>2023-08-08T11:55:07.000Z</time>
      </trkpt>
      <trkpt lat="45.46581" lon="6.21842">
        <ele>1610.4000244141</ele>
        <time>2023-08-08T11:55:11.000Z</time>
      </trkpt>
      <trkpt lat="45.46582" lon="6.21842">
        <ele>1610.8000488281</ele>
        <time>2023-08-08T11:55:16.000Z</time>
      </trkpt>
      <trkpt lat="45.46583" lon="6.21843">
        <ele>1611.8000488281</ele>
        <time>2023-08-08T11:55:23.000Z</time>
      </trkpt>
      <trkpt lat="45.46586" lon="6.2185">
        <ele>1613.5999755859</ele>
        <time>2023-08-08T11:55:37.000Z</time>
      </trkpt>
      <trkpt lat="45.46585" lon="6.21851">
        <ele>1613.8000488281</ele>
        <time>2023-08-08T11:55:39.000Z</time>
      </trkpt>
      <trkpt lat="45.46589" lon="6.21854">
        <ele>1614.4000244141</ele>
        <time>2023-08-08T11:55:44.000Z</time>
      </trkpt>
      <trkpt lat="45.46591" lon="6.21855">
        <ele>1614.8000488281</ele>
        <time>2023-08-08T11:55:46.000Z</time>
      </trkpt>
      <trkpt lat="45.46594" lon="6.21858">
        <ele>1616</ele>
        <time>2023-08-08T11:55:53.000Z</time>
      </trkpt>
      <trkpt lat="45.46596" lon="6.21859">
        <ele>1616.5999755859</ele>
        <time>2023-08-08T11:55:55.000Z</time>
      </trkpt>
      <trkpt lat="45.46596" lon="6.21858">
        <ele>1617</ele>
        <time>2023-08-08T11:55:58.000Z</time>
      </trkpt>
      <trkpt lat="45.46596" lon="6.2186">
        <ele>1617.4000244141</ele>
        <time>2023-08-08T11:56:00.000Z</time>
      </trkpt>
      <trkpt lat="45.46594" lon="6.21864">
        <ele>1618.1999511719</ele>
        <time>2023-08-08T11:56:06.000Z</time>
      </trkpt>
      <trkpt lat="45.46594" lon="6.21865">
        <ele>1618.1999511719</ele>
        <time>2023-08-08T11:56:07.000Z</time>
      </trkpt>
      <trkpt lat="45.46596" lon="6.21867">
        <ele>1619.1999511719</ele>
        <time>2023-08-08T11:56:13.000Z</time>
      </trkpt>
      <trkpt lat="45.46601" lon="6.21866">
        <ele>1620</ele>
        <time>2023-08-08T11:56:20.000Z</time>
      </trkpt>
      <trkpt lat="45.46601" lon="6.21865">
        <ele>1620.1999511719</ele>
        <time>2023-08-08T11:56:21.000Z</time>
      </trkpt>
      <trkpt lat="45.46606" lon="6.2186">
        <ele>1620.4000244141</ele>
        <time>2023-08-08T11:56:26.000Z</time>
      </trkpt>
      <trkpt lat="45.46606" lon="6.2186">
        <ele>1620.4000244141</ele>
        <time>2023-08-08T11:56:27.000Z</time>
      </trkpt>
      <trkpt lat="45.46607" lon="6.21861">
        <ele>1620.4000244141</ele>
        <time>2023-08-08T11:56:28.000Z</time>
      </trkpt>
      <trkpt lat="45.46612" lon="6.21863">
        <ele>1621</ele>
        <time>2023-08-08T11:56:32.000Z</time>
      </trkpt>
      <trkpt lat="45.46615" lon="6.21866">
        <ele>1621.1999511719</ele>
        <time>2023-08-08T11:56:36.000Z</time>
      </trkpt>
      <trkpt lat="45.46615" lon="6.21869">
        <ele>1621.5999755859</ele>
        <time>2023-08-08T11:56:41.000Z</time>
      </trkpt>
      <trkpt lat="45.46615" lon="6.21871">
        <ele>1622</ele>
        <time>2023-08-08T11:56:43.000Z</time>
      </trkpt>
      <trkpt lat="45.46616" lon="6.21875">
        <ele>1622.1999511719</ele>
        <time>2023-08-08T11:56:46.000Z</time>
      </trkpt>
      <trkpt lat="45.46616" lon="6.21878">
        <ele>1622.4000244141</ele>
        <time>2023-08-08T11:56:47.000Z</time>
      </trkpt>
      <trkpt lat="45.46616" lon="6.21882">
        <ele>1622.8000488281</ele>
        <time>2023-08-08T11:56:50.000Z</time>
      </trkpt>
      <trkpt lat="45.46615" lon="6.21885">
        <ele>1623.4000244141</ele>
        <time>2023-08-08T11:56:56.000Z</time>
      </trkpt>
      <trkpt lat="45.46615" lon="6.21885">
        <ele>1623.5999755859</ele>
        <time>2023-08-08T11:56:57.000Z</time>
      </trkpt>
      <trkpt lat="45.46614" lon="6.21894">
        <ele>1624.1999511719</ele>
        <time>2023-08-08T11:57:05.000Z</time>
      </trkpt>
      <trkpt lat="45.46613" lon="6.21897">
        <ele>1624.4000244141</ele>
        <time>2023-08-08T11:57:07.000Z</time>
      </trkpt>
      <trkpt lat="45.46611" lon="6.21903">
        <ele>1624.8000488281</ele>
        <time>2023-08-08T11:57:11.000Z</time>
      </trkpt>
      <trkpt lat="45.46608" lon="6.21909">
        <ele>1625.5999755859</ele>
        <time>2023-08-08T11:57:16.000Z</time>
      </trkpt>
      <trkpt lat="45.46605" lon="6.21909">
        <ele>1625.5999755859</ele>
        <time>2023-08-08T11:57:18.000Z</time>
      </trkpt>
      <trkpt lat="45.46598" lon="6.21909">
        <ele>1626.4000244141</ele>
        <time>2023-08-08T11:57:25.000Z</time>
      </trkpt>
      <trkpt lat="45.46594" lon="6.21912">
        <ele>1626.5999755859</ele>
        <time>2023-08-08T11:57:30.000Z</time>
      </trkpt>
      <trkpt lat="45.46588" lon="6.21913">
        <ele>1627.5999755859</ele>
        <time>2023-08-08T11:57:38.000Z</time>
      </trkpt>
      <trkpt lat="45.46587" lon="6.21913">
        <ele>1627.5999755859</ele>
        <time>2023-08-08T11:57:39.000Z</time>
      </trkpt>
      <trkpt lat="45.46581" lon="6.21912">
        <ele>1628.4000244141</ele>
        <time>2023-08-08T11:57:45.000Z</time>
      </trkpt>
      <trkpt lat="45.46579" lon="6.21912">
        <ele>1628.8000488281</ele>
        <time>2023-08-08T11:57:49.000Z</time>
      </trkpt>
      <trkpt lat="45.46575" lon="6.21917">
        <ele>1630.1999511719</ele>
        <time>2023-08-08T11:58:03.000Z</time>
      </trkpt>
      <trkpt lat="45.46557" lon="6.21911">
        <ele>1631.8000488281</ele>
        <time>2023-08-08T11:58:19.000Z</time>
      </trkpt>
      <trkpt lat="45.46558" lon="6.21908">
        <ele>1632</ele>
        <time>2023-08-08T11:58:20.000Z</time>
      </trkpt>
      <trkpt lat="45.46547" lon="6.21912">
        <ele>1633.1999511719</ele>
        <time>2023-08-08T11:58:28.000Z</time>
      </trkpt>
      <trkpt lat="45.46546" lon="6.21911">
        <ele>1633.4000244141</ele>
        <time>2023-08-08T11:58:30.000Z</time>
      </trkpt>
      <trkpt lat="45.46541" lon="6.21911">
        <ele>1634.1999511719</ele>
        <time>2023-08-08T11:58:36.000Z</time>
      </trkpt>
      <trkpt lat="45.46534" lon="6.21908">
        <ele>1635.4000244141</ele>
        <time>2023-08-08T11:58:43.000Z</time>
      </trkpt>
      <trkpt lat="45.46533" lon="6.21908">
        <ele>1635.5999755859</ele>
        <time>2023-08-08T11:58:44.000Z</time>
      </trkpt>
      <trkpt lat="45.46523" lon="6.21905">
        <ele>1636.5999755859</ele>
        <time>2023-08-08T11:58:51.000Z</time>
      </trkpt>
      <trkpt lat="45.46521" lon="6.21905">
        <ele>1637</ele>
        <time>2023-08-08T11:58:53.000Z</time>
      </trkpt>
      <trkpt lat="45.46504" lon="6.21908">
        <ele>1639.1999511719</ele>
        <time>2023-08-08T11:59:11.000Z</time>
      </trkpt>
      <trkpt lat="45.46495" lon="6.21911">
        <ele>1640.8000488281</ele>
        <time>2023-08-08T11:59:22.000Z</time>
      </trkpt>
      <trkpt lat="45.46494" lon="6.2191">
        <ele>1641</ele>
        <time>2023-08-08T11:59:23.000Z</time>
      </trkpt>
      <trkpt lat="45.46488" lon="6.21912">
        <ele>1642.4000244141</ele>
        <time>2023-08-08T11:59:35.000Z</time>
      </trkpt>
      <trkpt lat="45.46483" lon="6.21916">
        <ele>1644</ele>
        <time>2023-08-08T11:59:44.000Z</time>
      </trkpt>
      <trkpt lat="45.46481" lon="6.21916">
        <ele>1644.1999511719</ele>
        <time>2023-08-08T11:59:46.000Z</time>
      </trkpt>
      <trkpt lat="45.46478" lon="6.21916">
        <ele>1645</ele>
        <time>2023-08-08T11:59:51.000Z</time>
      </trkpt>
      <trkpt lat="45.46476" lon="6.21915">
        <ele>1645.4000244141</ele>
        <time>2023-08-08T11:59:53.000Z</time>
      </trkpt>
      <trkpt lat="45.46472" lon="6.21914">
        <ele>1646.1999511719</ele>
        <time>2023-08-08T11:59:59.000Z</time>
      </trkpt>
      <trkpt lat="45.4647" lon="6.21915">
        <ele>1647</ele>
        <time>2023-08-08T12:00:03.000Z</time>
      </trkpt>
      <trkpt lat="45.46469" lon="6.21918">
        <ele>1647.4000244141</ele>
        <time>2023-08-08T12:00:06.000Z</time>
      </trkpt>
      <trkpt lat="45.46466" lon="6.21925">
        <ele>1648.4000244141</ele>
        <time>2023-08-08T12:00:12.000Z</time>
      </trkpt>
      <trkpt lat="45.46466" lon="6.21927">
        <ele>1648.5999755859</ele>
        <time>2023-08-08T12:00:13.000Z</time>
      </trkpt>
      <trkpt lat="45.46463" lon="6.21926">
        <ele>1649.1999511719</ele>
        <time>2023-08-08T12:00:18.000Z</time>
      </trkpt>
      <trkpt lat="45.46461" lon="6.21927">
        <ele>1649.5999755859</ele>
        <time>2023-08-08T12:00:20.000Z</time>
      </trkpt>
      <trkpt lat="45.46458" lon="6.21927">
        <ele>1650.1999511719</ele>
        <time>2023-08-08T12:00:25.000Z</time>
      </trkpt>
      <trkpt lat="45.46457" lon="6.21928">
        <ele>1650.8000488281</ele>
        <time>2023-08-08T12:00:28.000Z</time>
      </trkpt>
      <trkpt lat="45.46456" lon="6.2193">
        <ele>1651.4000244141</ele>
        <time>2023-08-08T12:00:33.000Z</time>
      </trkpt>
      <trkpt lat="45.46454" lon="6.21932">
        <ele>1651.8000488281</ele>
        <time>2023-08-08T12:00:36.000Z</time>
      </trkpt>
      <trkpt lat="45.46451" lon="6.21935">
        <ele>1652.8000488281</ele>
        <time>2023-08-08T12:00:43.000Z</time>
      </trkpt>
      <trkpt lat="45.46451" lon="6.21935">
        <ele>1652.8000488281</ele>
        <time>2023-08-08T12:00:44.000Z</time>
      </trkpt>
      <trkpt lat="45.46448" lon="6.21938">
        <ele>1653.5999755859</ele>
        <time>2023-08-08T12:00:52.000Z</time>
      </trkpt>
      <trkpt lat="45.46448" lon="6.21938">
        <ele>1653.8000488281</ele>
        <time>2023-08-08T12:00:53.000Z</time>
      </trkpt>
      <trkpt lat="45.46443" lon="6.2194">
        <ele>1654.8000488281</ele>
        <time>2023-08-08T12:00:59.000Z</time>
      </trkpt>
      <trkpt lat="45.46442" lon="6.21942">
        <ele>1655.1999511719</ele>
        <time>2023-08-08T12:01:01.000Z</time>
      </trkpt>
      <trkpt lat="45.46438" lon="6.21948">
        <ele>1656</ele>
        <time>2023-08-08T12:01:09.000Z</time>
      </trkpt>
      <trkpt lat="45.46436" lon="6.21952">
        <ele>1656.4000244141</ele>
        <time>2023-08-08T12:01:12.000Z</time>
      </trkpt>
      <trkpt lat="45.46434" lon="6.21955">
        <ele>1657</ele>
        <time>2023-08-08T12:01:17.000Z</time>
      </trkpt>
      <trkpt lat="45.46435" lon="6.21955">
        <ele>1657.4000244141</ele>
        <time>2023-08-08T12:01:19.000Z</time>
      </trkpt>
      <trkpt lat="45.46435" lon="6.21956">
        <ele>1658</ele>
        <time>2023-08-08T12:01:23.000Z</time>
      </trkpt>
      <trkpt lat="45.46436" lon="6.21958">
        <ele>1658.8000488281</ele>
        <time>2023-08-08T12:01:27.000Z</time>
      </trkpt>
      <trkpt lat="45.46436" lon="6.21959">
        <ele>1659.1999511719</ele>
        <time>2023-08-08T12:01:29.000Z</time>
      </trkpt>
      <trkpt lat="45.46436" lon="6.2197">
        <ele>1660</ele>
        <time>2023-08-08T12:01:36.000Z</time>
      </trkpt>
      <trkpt lat="45.46435" lon="6.21971">
        <ele>1660.1999511719</ele>
        <time>2023-08-08T12:01:37.000Z</time>
      </trkpt>
      <trkpt lat="45.46433" lon="6.21972">
        <ele>1661.4000244141</ele>
        <time>2023-08-08T12:01:44.000Z</time>
      </trkpt>
      <trkpt lat="45.46432" lon="6.21973">
        <ele>1661.4000244141</ele>
        <time>2023-08-08T12:01:45.000Z</time>
      </trkpt>
      <trkpt lat="45.46429" lon="6.21974">
        <ele>1662.4000244141</ele>
        <time>2023-08-08T12:01:51.000Z</time>
      </trkpt>
      <trkpt lat="45.46425" lon="6.21975">
        <ele>1663</ele>
        <time>2023-08-08T12:01:55.000Z</time>
      </trkpt>
      <trkpt lat="45.46421" lon="6.21974">
        <ele>1663.4000244141</ele>
        <time>2023-08-08T12:01:59.000Z</time>
      </trkpt>
      <trkpt lat="45.4642" lon="6.21974">
        <ele>1663.8000488281</ele>
        <time>2023-08-08T12:02:02.000Z</time>
      </trkpt>
      <trkpt lat="45.46415" lon="6.21973">
        <ele>1664.5999755859</ele>
        <time>2023-08-08T12:02:08.000Z</time>
      </trkpt>
      <trkpt lat="45.46415" lon="6.21972">
        <ele>1664.8000488281</ele>
        <time>2023-08-08T12:02:09.000Z</time>
      </trkpt>
      <trkpt lat="45.46411" lon="6.21972">
        <ele>1665.5999755859</ele>
        <time>2023-08-08T12:02:15.000Z</time>
      </trkpt>
      <trkpt lat="45.46411" lon="6.21973">
        <ele>1665.8000488281</ele>
        <time>2023-08-08T12:02:17.000Z</time>
      </trkpt>
      <trkpt lat="45.46408" lon="6.21973">
        <ele>1666.8000488281</ele>
        <time>2023-08-08T12:02:24.000Z</time>
      </trkpt>
      <trkpt lat="45.46402" lon="6.21974">
        <ele>1667.4000244141</ele>
        <time>2023-08-08T12:02:31.000Z</time>
      </trkpt>
      <trkpt lat="45.464" lon="6.21974">
        <ele>1667.8000488281</ele>
        <time>2023-08-08T12:02:34.000Z</time>
      </trkpt>
      <trkpt lat="45.46398" lon="6.21974">
        <ele>1668.1999511719</ele>
        <time>2023-08-08T12:02:37.000Z</time>
      </trkpt>
      <trkpt lat="45.46395" lon="6.21973">
        <ele>1668.8000488281</ele>
        <time>2023-08-08T12:02:42.000Z</time>
      </trkpt>
      <trkpt lat="45.46393" lon="6.21974">
        <ele>1669.5999755859</ele>
        <time>2023-08-08T12:02:46.000Z</time>
      </trkpt>
      <trkpt lat="45.46391" lon="6.21973">
        <ele>1670</ele>
        <time>2023-08-08T12:02:49.000Z</time>
      </trkpt>
      <trkpt lat="45.46387" lon="6.21972">
        <ele>1670.5999755859</ele>
        <time>2023-08-08T12:02:53.000Z</time>
      </trkpt>
      <trkpt lat="45.46385" lon="6.21972">
        <ele>1671</ele>
        <time>2023-08-08T12:02:56.000Z</time>
      </trkpt>
      <trkpt lat="45.46379" lon="6.21974">
        <ele>1672.1999511719</ele>
        <time>2023-08-08T12:03:03.000Z</time>
      </trkpt>
      <trkpt lat="45.46375" lon="6.21978">
        <ele>1673.1999511719</ele>
        <time>2023-08-08T12:03:10.000Z</time>
      </trkpt>
      <trkpt lat="45.46375" lon="6.21979">
        <ele>1674</ele>
        <time>2023-08-08T12:03:14.000Z</time>
      </trkpt>
      <trkpt lat="45.46374" lon="6.21979">
        <ele>1674.1999511719</ele>
        <time>2023-08-08T12:03:16.000Z</time>
      </trkpt>
      <trkpt lat="45.46369" lon="6.21981">
        <ele>1674.8000488281</ele>
        <time>2023-08-08T12:03:23.000Z</time>
      </trkpt>
      <trkpt lat="45.46366" lon="6.21984">
        <ele>1675.1999511719</ele>
        <time>2023-08-08T12:03:28.000Z</time>
      </trkpt>
      <trkpt lat="45.46361" lon="6.21991">
        <ele>1676.1999511719</ele>
        <time>2023-08-08T12:03:34.000Z</time>
      </trkpt>
      <trkpt lat="45.46359" lon="6.21992">
        <ele>1677.1999511719</ele>
        <time>2023-08-08T12:03:41.000Z</time>
      </trkpt>
      <trkpt lat="45.46358" lon="6.21991">
        <ele>1677.5999755859</ele>
        <time>2023-08-08T12:03:44.000Z</time>
      </trkpt>
      <trkpt lat="45.46356" lon="6.21989">
        <ele>1678.4000244141</ele>
        <time>2023-08-08T12:03:48.000Z</time>
      </trkpt>
      <trkpt lat="45.46354" lon="6.21988">
        <ele>1678.8000488281</ele>
        <time>2023-08-08T12:03:51.000Z</time>
      </trkpt>
      <trkpt lat="45.46351" lon="6.21986">
        <ele>1679.4000244141</ele>
        <time>2023-08-08T12:03:55.000Z</time>
      </trkpt>
      <trkpt lat="45.46347" lon="6.21985">
        <ele>1679.8000488281</ele>
        <time>2023-08-08T12:03:59.000Z</time>
      </trkpt>
      <trkpt lat="45.46346" lon="6.21982">
        <ele>1680.4000244141</ele>
        <time>2023-08-08T12:04:03.000Z</time>
      </trkpt>
      <trkpt lat="45.46345" lon="6.2198">
        <ele>1680.8000488281</ele>
        <time>2023-08-08T12:04:07.000Z</time>
      </trkpt>
      <trkpt lat="45.46344" lon="6.21978">
        <ele>1681.4000244141</ele>
        <time>2023-08-08T12:04:10.000Z</time>
      </trkpt>
      <trkpt lat="45.46342" lon="6.21978">
        <ele>1681.8000488281</ele>
        <time>2023-08-08T12:04:13.000Z</time>
      </trkpt>
      <trkpt lat="45.46342" lon="6.21979">
        <ele>1682.5999755859</ele>
        <time>2023-08-08T12:04:18.000Z</time>
      </trkpt>
      <trkpt lat="45.46341" lon="6.21981">
        <ele>1682.8000488281</ele>
        <time>2023-08-08T12:04:20.000Z</time>
      </trkpt>
      <trkpt lat="45.46338" lon="6.21983">
        <ele>1683.5999755859</ele>
        <time>2023-08-08T12:04:26.000Z</time>
      </trkpt>
      <trkpt lat="45.46337" lon="6.21984">
        <ele>1683.8000488281</ele>
        <time>2023-08-08T12:04:27.000Z</time>
      </trkpt>
      <trkpt lat="45.46334" lon="6.21986">
        <ele>1684.5999755859</ele>
        <time>2023-08-08T12:04:32.000Z</time>
      </trkpt>
      <trkpt lat="45.46333" lon="6.21987">
        <ele>1684.8000488281</ele>
        <time>2023-08-08T12:04:33.000Z</time>
      </trkpt>
      <trkpt lat="45.46332" lon="6.21987">
        <ele>1685.8000488281</ele>
        <time>2023-08-08T12:04:40.000Z</time>
      </trkpt>
      <trkpt lat="45.46332" lon="6.21987">
        <ele>1685.8000488281</ele>
        <time>2023-08-08T12:04:41.000Z</time>
      </trkpt>
      <trkpt lat="45.46328" lon="6.21987">
        <ele>1686.8000488281</ele>
        <time>2023-08-08T12:04:48.000Z</time>
      </trkpt>
      <trkpt lat="45.46322" lon="6.21986">
        <ele>1687.8000488281</ele>
        <time>2023-08-08T12:04:55.000Z</time>
      </trkpt>
      <trkpt lat="45.46321" lon="6.21986">
        <ele>1688</ele>
        <time>2023-08-08T12:04:56.000Z</time>
      </trkpt>
      <trkpt lat="45.4632" lon="6.21982">
        <ele>1689</ele>
        <time>2023-08-08T12:05:02.000Z</time>
      </trkpt>
      <trkpt lat="45.46318" lon="6.21981">
        <ele>1689.5999755859</ele>
        <time>2023-08-08T12:05:05.000Z</time>
      </trkpt>
      <trkpt lat="45.46317" lon="6.21981">
        <ele>1690</ele>
        <time>2023-08-08T12:05:09.000Z</time>
      </trkpt>
      <trkpt lat="45.46313" lon="6.21978">
        <ele>1690.5999755859</ele>
        <time>2023-08-08T12:05:15.000Z</time>
      </trkpt>
      <trkpt lat="45.46312" lon="6.21975">
        <ele>1691.1999511719</ele>
        <time>2023-08-08T12:05:18.000Z</time>
      </trkpt>
      <trkpt lat="45.46312" lon="6.21973">
        <ele>1691.5999755859</ele>
        <time>2023-08-08T12:05:21.000Z</time>
      </trkpt>
      <trkpt lat="45.46309" lon="6.21969">
        <ele>1692.4000244141</ele>
        <time>2023-08-08T12:05:28.000Z</time>
      </trkpt>
      <trkpt lat="45.46306" lon="6.21968">
        <ele>1692.8000488281</ele>
        <time>2023-08-08T12:05:31.000Z</time>
      </trkpt>
      <trkpt lat="45.463" lon="6.21974">
        <ele>1694.4000244141</ele>
        <time>2023-08-08T12:05:41.000Z</time>
      </trkpt>
      <trkpt lat="45.463" lon="6.21975">
        <ele>1694.5999755859</ele>
        <time>2023-08-08T12:05:43.000Z</time>
      </trkpt>
      <trkpt lat="45.46297" lon="6.21975">
        <ele>1695.4000244141</ele>
        <time>2023-08-08T12:05:50.000Z</time>
      </trkpt>
      <trkpt lat="45.46296" lon="6.21975">
        <ele>1695.5999755859</ele>
        <time>2023-08-08T12:05:51.000Z</time>
      </trkpt>
      <trkpt lat="45.46289" lon="6.21971">
        <ele>1696.1999511719</ele>
        <time>2023-08-08T12:05:57.000Z</time>
      </trkpt>
      <trkpt lat="45.46286" lon="6.21972">
        <ele>1696.8000488281</ele>
        <time>2023-08-08T12:06:01.000Z</time>
      </trkpt>
      <trkpt lat="45.46282" lon="6.21972">
        <ele>1697.4000244141</ele>
        <time>2023-08-08T12:06:05.000Z</time>
      </trkpt>
      <trkpt lat="45.4628" lon="6.21972">
        <ele>1698</ele>
        <time>2023-08-08T12:06:08.000Z</time>
      </trkpt>
      <trkpt lat="45.46277" lon="6.2197">
        <ele>1698.8000488281</ele>
        <time>2023-08-08T12:06:14.000Z</time>
      </trkpt>
      <trkpt lat="45.46276" lon="6.21969">
        <ele>1699</ele>
        <time>2023-08-08T12:06:15.000Z</time>
      </trkpt>
      <trkpt lat="45.46269" lon="6.21959">
        <ele>1699.8000488281</ele>
        <time>2023-08-08T12:06:22.000Z</time>
      </trkpt>
      <trkpt lat="45.46269" lon="6.21957">
        <ele>1700</ele>
        <time>2023-08-08T12:06:24.000Z</time>
      </trkpt>
      <trkpt lat="45.46267" lon="6.21957">
        <ele>1701</ele>
        <time>2023-08-08T12:06:30.000Z</time>
      </trkpt>
      <trkpt lat="45.46266" lon="6.21956">
        <ele>1701.1999511719</ele>
        <time>2023-08-08T12:06:31.000Z</time>
      </trkpt>
      <trkpt lat="45.46262" lon="6.21953">
        <ele>1701.8000488281</ele>
        <time>2023-08-08T12:06:36.000Z</time>
      </trkpt>
      <trkpt lat="45.46258" lon="6.2195">
        <ele>1702.1999511719</ele>
        <time>2023-08-08T12:06:41.000Z</time>
      </trkpt>
      <trkpt lat="45.46256" lon="6.21949">
        <ele>1702.5999755859</ele>
        <time>2023-08-08T12:06:44.000Z</time>
      </trkpt>
      <trkpt lat="45.4625" lon="6.21947">
        <ele>1703.1999511719</ele>
        <time>2023-08-08T12:06:52.000Z</time>
      </trkpt>
      <trkpt lat="45.46242" lon="6.21946">
        <ele>1703.8000488281</ele>
        <time>2023-08-08T12:07:00.000Z</time>
      </trkpt>
      <trkpt lat="45.46237" lon="6.21941">
        <ele>1704.4000244141</ele>
        <time>2023-08-08T12:07:06.000Z</time>
      </trkpt>
      <trkpt lat="45.46234" lon="6.21939">
        <ele>1704.5999755859</ele>
        <time>2023-08-08T12:07:09.000Z</time>
      </trkpt>
      <trkpt lat="45.46228" lon="6.2194">
        <ele>1706</ele>
        <time>2023-08-08T12:07:21.000Z</time>
      </trkpt>
      <trkpt lat="45.46224" lon="6.21939">
        <ele>1706.4000244141</ele>
        <time>2023-08-08T12:07:26.000Z</time>
      </trkpt>
      <trkpt lat="45.46222" lon="6.21939">
        <ele>1706.8000488281</ele>
        <time>2023-08-08T12:07:28.000Z</time>
      </trkpt>
      <trkpt lat="45.4622" lon="6.2194">
        <ele>1707.5999755859</ele>
        <time>2023-08-08T12:07:34.000Z</time>
      </trkpt>
      <trkpt lat="45.46219" lon="6.2194">
        <ele>1707.8000488281</ele>
        <time>2023-08-08T12:07:36.000Z</time>
      </trkpt>
      <trkpt lat="45.46211" lon="6.21943">
        <ele>1708.5999755859</ele>
        <time>2023-08-08T12:07:45.000Z</time>
      </trkpt>
      <trkpt lat="45.46203" lon="6.21947">
        <ele>1709.4000244141</ele>
        <time>2023-08-08T12:07:53.000Z</time>
      </trkpt>
      <trkpt lat="45.46201" lon="6.21947">
        <ele>1709.5999755859</ele>
        <time>2023-08-08T12:07:54.000Z</time>
      </trkpt>
      <trkpt lat="45.46196" lon="6.21946">
        <ele>1710</ele>
        <time>2023-08-08T12:08:02.000Z</time>
      </trkpt>
      <trkpt lat="45.46193" lon="6.21946">
        <ele>1710.5999755859</ele>
        <time>2023-08-08T12:08:06.000Z</time>
      </trkpt>
      <trkpt lat="45.4619" lon="6.21948">
        <ele>1711.1999511719</ele>
        <time>2023-08-08T12:08:10.000Z</time>
      </trkpt>
      <trkpt lat="45.46188" lon="6.2195">
        <ele>1711.8000488281</ele>
        <time>2023-08-08T12:08:15.000Z</time>
      </trkpt>
      <trkpt lat="45.46185" lon="6.21953">
        <ele>1712.5999755859</ele>
        <time>2023-08-08T12:08:21.000Z</time>
      </trkpt>
      <trkpt lat="45.46185" lon="6.21953">
        <ele>1712.8000488281</ele>
        <time>2023-08-08T12:08:22.000Z</time>
      </trkpt>
      <trkpt lat="45.46183" lon="6.21955">
        <ele>1713.8000488281</ele>
        <time>2023-08-08T12:08:28.000Z</time>
      </trkpt>
      <trkpt lat="45.46183" lon="6.21955">
        <ele>1713.8000488281</ele>
        <time>2023-08-08T12:08:29.000Z</time>
      </trkpt>
      <trkpt lat="45.46175" lon="6.21959">
        <ele>1715</ele>
        <time>2023-08-08T12:08:38.000Z</time>
      </trkpt>
      <trkpt lat="45.46175" lon="6.21959">
        <ele>1715.1999511719</ele>
        <time>2023-08-08T12:08:39.000Z</time>
      </trkpt>
      <trkpt lat="45.46171" lon="6.21961">
        <ele>1716</ele>
        <time>2023-08-08T12:08:44.000Z</time>
      </trkpt>
      <trkpt lat="45.46169" lon="6.21961">
        <ele>1716.4000244141</ele>
        <time>2023-08-08T12:08:47.000Z</time>
      </trkpt>
      <trkpt lat="45.46167" lon="6.21962">
        <ele>1717.1999511719</ele>
        <time>2023-08-08T12:08:52.000Z</time>
      </trkpt>
      <trkpt lat="45.46163" lon="6.21964">
        <ele>1720</ele>
        <time>2023-08-08T12:09:09.000Z</time>
      </trkpt>
      <trkpt lat="45.46162" lon="6.21967">
        <ele>1720.5999755859</ele>
        <time>2023-08-08T12:09:12.000Z</time>
      </trkpt>
      <trkpt lat="45.46161" lon="6.21972">
        <ele>1721.4000244141</ele>
        <time>2023-08-08T12:09:17.000Z</time>
      </trkpt>
      <trkpt lat="45.4616" lon="6.21974">
        <ele>1721.5999755859</ele>
        <time>2023-08-08T12:09:19.000Z</time>
      </trkpt>
      <trkpt lat="45.46158" lon="6.21977">
        <ele>1722.4000244141</ele>
        <time>2023-08-08T12:09:24.000Z</time>
      </trkpt>
      <trkpt lat="45.46157" lon="6.21978">
        <ele>1722.5999755859</ele>
        <time>2023-08-08T12:09:25.000Z</time>
      </trkpt>
      <trkpt lat="45.46156" lon="6.21981">
        <ele>1723.8000488281</ele>
        <time>2023-08-08T12:09:32.000Z</time>
      </trkpt>
      <trkpt lat="45.46155" lon="6.21982">
        <ele>1724</ele>
        <time>2023-08-08T12:09:33.000Z</time>
      </trkpt>
      <trkpt lat="45.46154" lon="6.21983">
        <ele>1724.8000488281</ele>
        <time>2023-08-08T12:09:37.000Z</time>
      </trkpt>
      <trkpt lat="45.46153" lon="6.21984">
        <ele>1725.1999511719</ele>
        <time>2023-08-08T12:09:39.000Z</time>
      </trkpt>
      <trkpt lat="45.46152" lon="6.21987">
        <ele>1725.8000488281</ele>
        <time>2023-08-08T12:09:43.000Z</time>
      </trkpt>
      <trkpt lat="45.46151" lon="6.21988">
        <ele>1726.5999755859</ele>
        <time>2023-08-08T12:09:48.000Z</time>
      </trkpt>
      <trkpt lat="45.4615" lon="6.21989">
        <ele>1727</ele>
        <time>2023-08-08T12:09:50.000Z</time>
      </trkpt>
      <trkpt lat="45.46149" lon="6.21994">
        <ele>1728</ele>
        <time>2023-08-08T12:09:57.000Z</time>
      </trkpt>
      <trkpt lat="45.46149" lon="6.21995">
        <ele>1728.4000244141</ele>
        <time>2023-08-08T12:09:58.000Z</time>
      </trkpt>
      <trkpt lat="45.46148" lon="6.22001">
        <ele>1729.1999511719</ele>
        <time>2023-08-08T12:10:03.000Z</time>
      </trkpt>
      <trkpt lat="45.46148" lon="6.22003">
        <ele>1729.1999511719</ele>
        <time>2023-08-08T12:10:04.000Z</time>
      </trkpt>
      <trkpt lat="45.46146" lon="6.22009">
        <ele>1730</ele>
        <time>2023-08-08T12:10:09.000Z</time>
      </trkpt>
      <trkpt lat="45.46145" lon="6.22011">
        <ele>1730.1999511719</ele>
        <time>2023-08-08T12:10:10.000Z</time>
      </trkpt>
      <trkpt lat="45.46141" lon="6.22016">
        <ele>1730.8000488281</ele>
        <time>2023-08-08T12:10:16.000Z</time>
      </trkpt>
      <trkpt lat="45.46139" lon="6.22018">
        <ele>1731.1999511719</ele>
        <time>2023-08-08T12:10:20.000Z</time>
      </trkpt>
      <trkpt lat="45.46137" lon="6.22018">
        <ele>1731.4000244141</ele>
        <time>2023-08-08T12:10:22.000Z</time>
      </trkpt>
      <trkpt lat="45.46138" lon="6.22017">
        <ele>1731.5999755859</ele>
        <time>2023-08-08T12:10:29.000Z</time>
      </trkpt>
      <trkpt lat="45.46138" lon="6.22018">
        <ele>1731.8000488281</ele>
        <time>2023-08-08T12:10:36.000Z</time>
      </trkpt>
      <trkpt lat="45.46136" lon="6.22018">
        <ele>1731.5999755859</ele>
        <time>2023-08-08T12:10:44.000Z</time>
      </trkpt>
      <trkpt lat="45.46138" lon="6.22017">
        <ele>1731.4000244141</ele>
        <time>2023-08-08T12:10:53.000Z</time>
      </trkpt>
      <trkpt lat="45.46138" lon="6.22014">
        <ele>1731.5999755859</ele>
        <time>2023-08-08T12:11:00.000Z</time>
      </trkpt>
      <trkpt lat="45.46139" lon="6.22014">
        <ele>1731.4000244141</ele>
        <time>2023-08-08T12:11:11.000Z</time>
      </trkpt>
      <trkpt lat="45.46137" lon="6.22016">
        <ele>1731.1999511719</ele>
        <time>2023-08-08T12:11:24.000Z</time>
      </trkpt>
      <trkpt lat="45.46138" lon="6.22016">
        <ele>1731.1999511719</ele>
        <time>2023-08-08T12:11:33.000Z</time>
      </trkpt>
      <trkpt lat="45.4614" lon="6.2202">
        <ele>1731.1999511719</ele>
        <time>2023-08-08T12:11:39.000Z</time>
      </trkpt>
      <trkpt lat="45.46139" lon="6.22029">
        <ele>1731.1999511719</ele>
        <time>2023-08-08T12:11:45.000Z</time>
      </trkpt>
      <trkpt lat="45.46138" lon="6.22037">
        <ele>1731.4000244141</ele>
        <time>2023-08-08T12:11:50.000Z</time>
      </trkpt>
      <trkpt lat="45.46138" lon="6.22042">
        <ele>1731.4000244141</ele>
        <time>2023-08-08T12:11:55.000Z</time>
      </trkpt>
      <trkpt lat="45.4614" lon="6.22045">
        <ele>1731.1999511719</ele>
        <time>2023-08-08T12:12:02.000Z</time>
      </trkpt>
      <trkpt lat="45.46143" lon="6.22046">
        <ele>1731</ele>
        <time>2023-08-08T12:12:11.000Z</time>
      </trkpt>
      <trkpt lat="45.46139" lon="6.22042">
        <ele>1731.1999511719</ele>
        <time>2023-08-08T12:12:17.000Z</time>
      </trkpt>
      <trkpt lat="45.4614" lon="6.22041">
        <ele>1731.4000244141</ele>
        <time>2023-08-08T12:12:24.000Z</time>
      </trkpt>
      <trkpt lat="45.46139" lon="6.22041">
        <ele>1731.1999511719</ele>
        <time>2023-08-08T12:12:29.000Z</time>
      </trkpt>
      <trkpt lat="45.46141" lon="6.22044">
        <ele>1730.8000488281</ele>
        <time>2023-08-08T12:12:36.000Z</time>
      </trkpt>
      <trkpt lat="45.46141" lon="6.22044">
        <ele>1730.4000244141</ele>
        <time>2023-08-08T12:12:42.000Z</time>
      </trkpt>
      <trkpt lat="45.46144" lon="6.22043">
        <ele>1730.4000244141</ele>
        <time>2023-08-08T12:12:50.000Z</time>
      </trkpt>
      <trkpt lat="45.46144" lon="6.22043">
        <ele>1730.4000244141</ele>
        <time>2023-08-08T12:12:59.000Z</time>
      </trkpt>
      <trkpt lat="45.46141" lon="6.22042">
        <ele>1730.1999511719</ele>
        <time>2023-08-08T12:13:03.000Z</time>
      </trkpt>
      <trkpt lat="45.4614" lon="6.22044">
        <ele>1730</ele>
        <time>2023-08-08T12:13:08.000Z</time>
      </trkpt>
      <trkpt lat="45.4614" lon="6.22042">
        <ele>1730</ele>
        <time>2023-08-08T12:13:18.000Z</time>
      </trkpt>
      <trkpt lat="45.46141" lon="6.22043">
        <ele>1729.8000488281</ele>
        <time>2023-08-08T12:13:27.000Z</time>
      </trkpt>
      <trkpt lat="45.46138" lon="6.2204">
        <ele>1729.5999755859</ele>
        <time>2023-08-08T12:13:39.000Z</time>
      </trkpt>
      <trkpt lat="45.46137" lon="6.22036">
        <ele>1729.4000244141</ele>
        <time>2023-08-08T12:13:46.000Z</time>
      </trkpt>
      <trkpt lat="45.46138" lon="6.22039">
        <ele>1729.4000244141</ele>
        <time>2023-08-08T12:13:56.000Z</time>
      </trkpt>
      <trkpt lat="45.4614" lon="6.22041">
        <ele>1729.1999511719</ele>
        <time>2023-08-08T12:14:01.000Z</time>
      </trkpt>
      <trkpt lat="45.46139" lon="6.22043">
        <ele>1729.1999511719</ele>
        <time>2023-08-08T12:14:05.000Z</time>
      </trkpt>
      <trkpt lat="45.46138" lon="6.22045">
        <ele>1729</ele>
        <time>2023-08-08T12:14:17.000Z</time>
      </trkpt>
      <trkpt lat="45.46138" lon="6.22044">
        <ele>1728.8000488281</ele>
        <time>2023-08-08T12:14:40.000Z</time>
      </trkpt>
      <trkpt lat="45.46138" lon="6.22041">
        <ele>1728.8000488281</ele>
        <time>2023-08-08T12:14:55.000Z</time>
      </trkpt>
      <trkpt lat="45.46136" lon="6.22039">
        <ele>1728.5999755859</ele>
        <time>2023-08-08T12:15:01.000Z</time>
      </trkpt>
      <trkpt lat="45.46138" lon="6.22041">
        <ele>1728.4000244141</ele>
        <time>2023-08-08T12:15:10.000Z</time>
      </trkpt>
      <trkpt lat="45.46138" lon="6.22041">
        <ele>1728.1999511719</ele>
        <time>2023-08-08T12:15:13.000Z</time>
      </trkpt>
      <trkpt lat="45.46134" lon="6.22044">
        <ele>1728</ele>
        <time>2023-08-08T12:15:22.000Z</time>
      </trkpt>
      <trkpt lat="45.46135" lon="6.22041">
        <ele>1728</ele>
        <time>2023-08-08T12:15:31.000Z</time>
      </trkpt>
      <trkpt lat="45.46136" lon="6.2204">
        <ele>1728</ele>
        <time>2023-08-08T12:15:42.000Z</time>
      </trkpt>
      <trkpt lat="45.46137" lon="6.22039">
        <ele>1728</ele>
        <time>2023-08-08T12:15:50.000Z</time>
      </trkpt>
      <trkpt lat="45.46138" lon="6.22039">
        <ele>1727.8000488281</ele>
        <time>2023-08-08T12:16:02.000Z</time>
      </trkpt>
      <trkpt lat="45.46138" lon="6.22041">
        <ele>1727.8000488281</ele>
        <time>2023-08-08T12:16:15.000Z</time>
      </trkpt>
      <trkpt lat="45.4614" lon="6.2204">
        <ele>1727.5999755859</ele>
        <time>2023-08-08T12:16:24.000Z</time>
      </trkpt>
      <trkpt lat="45.46141" lon="6.22038">
        <ele>1727.5999755859</ele>
        <time>2023-08-08T12:16:35.000Z</time>
      </trkpt>
      <trkpt lat="45.4614" lon="6.22038">
        <ele>1727.5999755859</ele>
        <time>2023-08-08T12:16:43.000Z</time>
      </trkpt>
      <trkpt lat="45.4614" lon="6.22039">
        <ele>1727.5999755859</ele>
        <time>2023-08-08T12:16:52.000Z</time>
      </trkpt>
      <trkpt lat="45.46137" lon="6.22042">
        <ele>1728</ele>
        <time>2023-08-08T12:17:14.000Z</time>
      </trkpt>
      <trkpt lat="45.46137" lon="6.22041">
        <ele>1727.8000488281</ele>
        <time>2023-08-08T12:17:22.000Z</time>
      </trkpt>
      <trkpt lat="45.46138" lon="6.22041">
        <ele>1728</ele>
        <time>2023-08-08T12:17:31.000Z</time>
      </trkpt>
      <trkpt lat="45.46135" lon="6.22042">
        <ele>1727.8000488281</ele>
        <time>2023-08-08T12:17:37.000Z</time>
      </trkpt>
      <trkpt lat="45.46136" lon="6.22041">
        <ele>1727.8000488281</ele>
        <time>2023-08-08T12:17:44.000Z</time>
      </trkpt>
      <trkpt lat="45.4614" lon="6.2204">
        <ele>1727.8000488281</ele>
        <time>2023-08-08T12:17:51.000Z</time>
      </trkpt>
      <trkpt lat="45.4614" lon="6.22039">
        <ele>1727.8000488281</ele>
        <time>2023-08-08T12:18:00.000Z</time>
      </trkpt>
      <trkpt lat="45.46139" lon="6.2204">
        <ele>1727.5999755859</ele>
        <time>2023-08-08T12:18:07.000Z</time>
      </trkpt>
      <trkpt lat="45.46139" lon="6.22041">
        <ele>1727.4000244141</ele>
        <time>2023-08-08T12:18:16.000Z</time>
      </trkpt>
      <trkpt lat="45.46137" lon="6.2204">
        <ele>1727.4000244141</ele>
        <time>2023-08-08T12:18:24.000Z</time>
      </trkpt>
      <trkpt lat="45.46138" lon="6.22041">
        <ele>1727.1999511719</ele>
        <time>2023-08-08T12:18:35.000Z</time>
      </trkpt>
      <trkpt lat="45.46139" lon="6.22042">
        <ele>1727.1999511719</ele>
        <time>2023-08-08T12:18:44.000Z</time>
      </trkpt>
      <trkpt lat="45.4614" lon="6.22041">
        <ele>1727.1999511719</ele>
        <time>2023-08-08T12:18:51.000Z</time>
      </trkpt>
      <trkpt lat="45.46139" lon="6.22041">
        <ele>1727.1999511719</ele>
        <time>2023-08-08T12:18:52.000Z</time>
      </trkpt>
      <trkpt lat="45.46139" lon="6.22039">
        <ele>1727.4000244141</ele>
        <time>2023-08-08T12:19:02.000Z</time>
      </trkpt>
      <trkpt lat="45.4614" lon="6.22041">
        <ele>1727.1999511719</ele>
        <time>2023-08-08T12:19:11.000Z</time>
      </trkpt>
      <trkpt lat="45.4614" lon="6.22042">
        <ele>1727.1999511719</ele>
        <time>2023-08-08T12:19:18.000Z</time>
      </trkpt>
      <trkpt lat="45.46139" lon="6.2204">
        <ele>1727.1999511719</ele>
        <time>2023-08-08T12:19:24.000Z</time>
      </trkpt>
      <trkpt lat="45.46139" lon="6.22041">
        <ele>1727.1999511719</ele>
        <time>2023-08-08T12:19:31.000Z</time>
      </trkpt>
      <trkpt lat="45.46138" lon="6.22038">
        <ele>1727.1999511719</ele>
        <time>2023-08-08T12:19:43.000Z</time>
      </trkpt>
      <trkpt lat="45.46138" lon="6.22038">
        <ele>1727.4000244141</ele>
        <time>2023-08-08T12:19:51.000Z</time>
      </trkpt>
      <trkpt lat="45.46137" lon="6.22039">
        <ele>1727.1999511719</ele>
        <time>2023-08-08T12:20:02.000Z</time>
      </trkpt>
      <trkpt lat="45.46138" lon="6.22039">
        <ele>1727.1999511719</ele>
        <time>2023-08-08T12:20:09.000Z</time>
      </trkpt>
      <trkpt lat="45.46137" lon="6.2204">
        <ele>1727.1999511719</ele>
        <time>2023-08-08T12:20:19.000Z</time>
      </trkpt>
      <trkpt lat="45.46138" lon="6.2204">
        <ele>1727.1999511719</ele>
        <time>2023-08-08T12:20:29.000Z</time>
      </trkpt>
      <trkpt lat="45.46138" lon="6.2204">
        <ele>1727.1999511719</ele>
        <time>2023-08-08T12:20:38.000Z</time>
      </trkpt>
      <trkpt lat="45.46139" lon="6.2204">
        <ele>1727.4000244141</ele>
        <time>2023-08-08T12:20:47.000Z</time>
      </trkpt>
      <trkpt lat="45.46138" lon="6.2204">
        <ele>1727.4000244141</ele>
        <time>2023-08-08T12:20:51.000Z</time>
      </trkpt>
      <trkpt lat="45.46138" lon="6.2204">
        <ele>1727.4000244141</ele>
        <time>2023-08-08T12:20:56.000Z</time>
      </trkpt>
      <trkpt lat="45.46138" lon="6.22042">
        <ele>1727.4000244141</ele>
        <time>2023-08-08T12:21:07.000Z</time>
      </trkpt>
      <trkpt lat="45.46141" lon="6.22041">
        <ele>1727.4000244141</ele>
        <time>2023-08-08T12:21:14.000Z</time>
      </trkpt>
      <trkpt lat="45.46139" lon="6.2204">
        <ele>1727.4000244141</ele>
        <time>2023-08-08T12:21:23.000Z</time>
      </trkpt>
      <trkpt lat="45.46139" lon="6.22041">
        <ele>1727.4000244141</ele>
        <time>2023-08-08T12:21:33.000Z</time>
      </trkpt>
      <trkpt lat="45.46139" lon="6.22041">
        <ele>1727.4000244141</ele>
        <time>2023-08-08T12:21:40.000Z</time>
      </trkpt>
      <trkpt lat="45.46139" lon="6.22041">
        <ele>1727.4000244141</ele>
        <time>2023-08-08T12:21:48.000Z</time>
      </trkpt>
      <trkpt lat="45.46139" lon="6.22042">
        <ele>1727.4000244141</ele>
        <time>2023-08-08T12:21:56.000Z</time>
      </trkpt>
      <trkpt lat="45.46138" lon="6.22045">
        <ele>1727.1999511719</ele>
        <time>2023-08-08T12:22:05.000Z</time>
      </trkpt>
      <trkpt lat="45.46137" lon="6.22042">
        <ele>1727.1999511719</ele>
        <time>2023-08-08T12:22:15.000Z</time>
      </trkpt>
      <trkpt lat="45.46137" lon="6.22043">
        <ele>1727.4000244141</ele>
        <time>2023-08-08T12:22:24.000Z</time>
      </trkpt>
      <trkpt lat="45.46139" lon="6.22041">
        <ele>1727.1999511719</ele>
        <time>2023-08-08T12:22:31.000Z</time>
      </trkpt>
      <trkpt lat="45.46137" lon="6.22042">
        <ele>1727.4000244141</ele>
        <time>2023-08-08T12:22:42.000Z</time>
      </trkpt>
      <trkpt lat="45.46136" lon="6.22042">
        <ele>1727.4000244141</ele>
        <time>2023-08-08T12:22:53.000Z</time>
      </trkpt>
      <trkpt lat="45.46139" lon="6.22044">
        <ele>1727.4000244141</ele>
        <time>2023-08-08T12:23:07.000Z</time>
      </trkpt>
      <trkpt lat="45.46139" lon="6.22045">
        <ele>1727.4000244141</ele>
        <time>2023-08-08T12:23:10.000Z</time>
      </trkpt>
      <trkpt lat="45.46138" lon="6.22042">
        <ele>1727.1999511719</ele>
        <time>2023-08-08T12:23:19.000Z</time>
      </trkpt>
      <trkpt lat="45.46138" lon="6.22042">
        <ele>1727.5999755859</ele>
        <time>2023-08-08T12:23:25.000Z</time>
      </trkpt>
      <trkpt lat="45.46138" lon="6.22041">
        <ele>1727.4000244141</ele>
        <time>2023-08-08T12:23:33.000Z</time>
      </trkpt>
      <trkpt lat="45.46136" lon="6.22039">
        <ele>1727.1999511719</ele>
        <time>2023-08-08T12:23:40.000Z</time>
      </trkpt>
      <trkpt lat="45.46136" lon="6.22039">
        <ele>1727.4000244141</ele>
        <time>2023-08-08T12:23:49.000Z</time>
      </trkpt>
      <trkpt lat="45.46135" lon="6.22038">
        <ele>1727.4000244141</ele>
        <time>2023-08-08T12:23:55.000Z</time>
      </trkpt>
      <trkpt lat="45.46134" lon="6.22036">
        <ele>1727.4000244141</ele>
        <time>2023-08-08T12:24:03.000Z</time>
      </trkpt>
      <trkpt lat="45.46136" lon="6.22038">
        <ele>1727.1999511719</ele>
        <time>2023-08-08T12:24:11.000Z</time>
      </trkpt>
      <trkpt lat="45.46139" lon="6.22036">
        <ele>1727.1999511719</ele>
        <time>2023-08-08T12:24:18.000Z</time>
      </trkpt>
      <trkpt lat="45.46139" lon="6.22039">
        <ele>1727</ele>
        <time>2023-08-08T12:24:28.000Z</time>
      </trkpt>
      <trkpt lat="45.46138" lon="6.22042">
        <ele>1727</ele>
        <time>2023-08-08T12:24:38.000Z</time>
      </trkpt>
      <trkpt lat="45.46136" lon="6.22039">
        <ele>1726.8000488281</ele>
        <time>2023-08-08T12:24:46.000Z</time>
      </trkpt>
      <trkpt lat="45.46139" lon="6.22038">
        <ele>1726.8000488281</ele>
        <time>2023-08-08T12:24:53.000Z</time>
      </trkpt>
      <trkpt lat="45.46138" lon="6.22039">
        <ele>1726.8000488281</ele>
        <time>2023-08-08T12:25:02.000Z</time>
      </trkpt>
      <trkpt lat="45.46135" lon="6.22035">
        <ele>1726.8000488281</ele>
        <time>2023-08-08T12:25:13.000Z</time>
      </trkpt>
      <trkpt lat="45.46134" lon="6.22037">
        <ele>1727</ele>
        <time>2023-08-08T12:25:22.000Z</time>
      </trkpt>
      <trkpt lat="45.46135" lon="6.22036">
        <ele>1727</ele>
        <time>2023-08-08T12:25:30.000Z</time>
      </trkpt>
      <trkpt lat="45.46139" lon="6.22039">
        <ele>1727</ele>
        <time>2023-08-08T12:25:40.000Z</time>
      </trkpt>
      <trkpt lat="45.46141" lon="6.22044">
        <ele>1727.1999511719</ele>
        <time>2023-08-08T12:25:50.000Z</time>
      </trkpt>
      <trkpt lat="45.46141" lon="6.22044">
        <ele>1727.1999511719</ele>
        <time>2023-08-08T12:26:01.000Z</time>
      </trkpt>
      <trkpt lat="45.46137" lon="6.22043">
        <ele>1727</ele>
        <time>2023-08-08T12:26:10.000Z</time>
      </trkpt>
      <trkpt lat="45.46137" lon="6.22043">
        <ele>1727</ele>
        <time>2023-08-08T12:26:20.000Z</time>
      </trkpt>
      <trkpt lat="45.46137" lon="6.22043">
        <ele>1726.8000488281</ele>
        <time>2023-08-08T12:26:40.000Z</time>
      </trkpt>
      <trkpt lat="45.46137" lon="6.22044">
        <ele>1727</ele>
        <time>2023-08-08T12:26:58.000Z</time>
      </trkpt>
      <trkpt lat="45.46139" lon="6.22041">
        <ele>1727</ele>
        <time>2023-08-08T12:27:09.000Z</time>
      </trkpt>
      <trkpt lat="45.46138" lon="6.22041">
        <ele>1726.5999755859</ele>
        <time>2023-08-08T12:27:18.000Z</time>
      </trkpt>
      <trkpt lat="45.46136" lon="6.22039">
        <ele>1726.5999755859</ele>
        <time>2023-08-08T12:27:29.000Z</time>
      </trkpt>
      <trkpt lat="45.46137" lon="6.2204">
        <ele>1726.8000488281</ele>
        <time>2023-08-08T12:27:38.000Z</time>
      </trkpt>
      <trkpt lat="45.46137" lon="6.2204">
        <ele>1726.5999755859</ele>
        <time>2023-08-08T12:27:51.000Z</time>
      </trkpt>
      <trkpt lat="45.46138" lon="6.22041">
        <ele>1726.5999755859</ele>
        <time>2023-08-08T12:27:59.000Z</time>
      </trkpt>
      <trkpt lat="45.46138" lon="6.2204">
        <ele>1726.5999755859</ele>
        <time>2023-08-08T12:28:06.000Z</time>
      </trkpt>
      <trkpt lat="45.46138" lon="6.22041">
        <ele>1726.5999755859</ele>
        <time>2023-08-08T12:28:16.000Z</time>
      </trkpt>
      <trkpt lat="45.46138" lon="6.22042">
        <ele>1726.4000244141</ele>
        <time>2023-08-08T12:28:20.000Z</time>
      </trkpt>
      <trkpt lat="45.4614" lon="6.22042">
        <ele>1726.4000244141</ele>
        <time>2023-08-08T12:28:24.000Z</time>
      </trkpt>
      <trkpt lat="45.4614" lon="6.22043">
        <ele>1726.4000244141</ele>
        <time>2023-08-08T12:28:34.000Z</time>
      </trkpt>
      <trkpt lat="45.4614" lon="6.22042">
        <ele>1726.4000244141</ele>
        <time>2023-08-08T12:28:44.000Z</time>
      </trkpt>
      <trkpt lat="45.46139" lon="6.22041">
        <ele>1726.4000244141</ele>
        <time>2023-08-08T12:28:52.000Z</time>
      </trkpt>
      <trkpt lat="45.4614" lon="6.22041">
        <ele>1726.4000244141</ele>
        <time>2023-08-08T12:29:02.000Z</time>
      </trkpt>
      <trkpt lat="45.4614" lon="6.22043">
        <ele>1726.5999755859</ele>
        <time>2023-08-08T12:29:11.000Z</time>
      </trkpt>
      <trkpt lat="45.46138" lon="6.22041">
        <ele>1726.5999755859</ele>
        <time>2023-08-08T12:29:26.000Z</time>
      </trkpt>
      <trkpt lat="45.46139" lon="6.22041">
        <ele>1726.5999755859</ele>
        <time>2023-08-08T12:29:36.000Z</time>
      </trkpt>
      <trkpt lat="45.46138" lon="6.2204">
        <ele>1726.5999755859</ele>
        <time>2023-08-08T12:29:50.000Z</time>
      </trkpt>
      <trkpt lat="45.46139" lon="6.22042">
        <ele>1726.5999755859</ele>
        <time>2023-08-08T12:29:59.000Z</time>
      </trkpt>
      <trkpt lat="45.4614" lon="6.22043">
        <ele>1726.4000244141</ele>
        <time>2023-08-08T12:30:08.000Z</time>
      </trkpt>
      <trkpt lat="45.4614" lon="6.22042">
        <ele>1726.4000244141</ele>
        <time>2023-08-08T12:30:21.000Z</time>
      </trkpt>
      <trkpt lat="45.4614" lon="6.22043">
        <ele>1726.4000244141</ele>
        <time>2023-08-08T12:30:27.000Z</time>
      </trkpt>
      <trkpt lat="45.46142" lon="6.22045">
        <ele>1726.4000244141</ele>
        <time>2023-08-08T12:30:37.000Z</time>
      </trkpt>
      <trkpt lat="45.46139" lon="6.22043">
        <ele>1726.4000244141</ele>
        <time>2023-08-08T12:30:47.000Z</time>
      </trkpt>
      <trkpt lat="45.4614" lon="6.22043">
        <ele>1726.4000244141</ele>
        <time>2023-08-08T12:30:56.000Z</time>
      </trkpt>
      <trkpt lat="45.46141" lon="6.22043">
        <ele>1726.1999511719</ele>
        <time>2023-08-08T12:31:06.000Z</time>
      </trkpt>
      <trkpt lat="45.46139" lon="6.22044">
        <ele>1726.1999511719</ele>
        <time>2023-08-08T12:31:17.000Z</time>
      </trkpt>
      <trkpt lat="45.46139" lon="6.22043">
        <ele>1726.1999511719</ele>
        <time>2023-08-08T12:31:28.000Z</time>
      </trkpt>
      <trkpt lat="45.46138" lon="6.22042">
        <ele>1726.1999511719</ele>
        <time>2023-08-08T12:31:38.000Z</time>
      </trkpt>
      <trkpt lat="45.46139" lon="6.22041">
        <ele>1726.1999511719</ele>
        <time>2023-08-08T12:31:47.000Z</time>
      </trkpt>
      <trkpt lat="45.46136" lon="6.22038">
        <ele>1726</ele>
        <time>2023-08-08T12:31:55.000Z</time>
      </trkpt>
      <trkpt lat="45.46136" lon="6.2204">
        <ele>1726.4000244141</ele>
        <time>2023-08-08T12:32:04.000Z</time>
      </trkpt>
      <trkpt lat="45.46137" lon="6.22041">
        <ele>1726.4000244141</ele>
        <time>2023-08-08T12:32:13.000Z</time>
      </trkpt>
      <trkpt lat="45.46136" lon="6.22037">
        <ele>1726.1999511719</ele>
        <time>2023-08-08T12:32:24.000Z</time>
      </trkpt>
      <trkpt lat="45.46137" lon="6.22039">
        <ele>1726.4000244141</ele>
        <time>2023-08-08T12:32:34.000Z</time>
      </trkpt>
      <trkpt lat="45.46138" lon="6.2204">
        <ele>1726.4000244141</ele>
        <time>2023-08-08T12:32:42.000Z</time>
      </trkpt>
      <trkpt lat="45.46139" lon="6.22041">
        <ele>1726.1999511719</ele>
        <time>2023-08-08T12:32:52.000Z</time>
      </trkpt>
      <trkpt lat="45.4614" lon="6.22041">
        <ele>1726</ele>
        <time>2023-08-08T12:33:01.000Z</time>
      </trkpt>
      <trkpt lat="45.46138" lon="6.22042">
        <ele>1726</ele>
        <time>2023-08-08T12:33:09.000Z</time>
      </trkpt>
      <trkpt lat="45.46137" lon="6.2204">
        <ele>1726</ele>
        <time>2023-08-08T12:33:18.000Z</time>
      </trkpt>
      <trkpt lat="45.46137" lon="6.22042">
        <ele>1725.8000488281</ele>
        <time>2023-08-08T12:33:28.000Z</time>
      </trkpt>
      <trkpt lat="45.46138" lon="6.22042">
        <ele>1726</ele>
        <time>2023-08-08T12:33:36.000Z</time>
      </trkpt>
      <trkpt lat="45.46139" lon="6.22042">
        <ele>1726.1999511719</ele>
        <time>2023-08-08T12:33:45.000Z</time>
      </trkpt>
      <trkpt lat="45.46139" lon="6.22042">
        <ele>1726.1999511719</ele>
        <time>2023-08-08T12:33:52.000Z</time>
      </trkpt>
      <trkpt lat="45.46141" lon="6.22041">
        <ele>1726</ele>
        <time>2023-08-08T12:34:00.000Z</time>
      </trkpt>
      <trkpt lat="45.4614" lon="6.22044">
        <ele>1726</ele>
        <time>2023-08-08T12:34:07.000Z</time>
      </trkpt>
      <trkpt lat="45.46139" lon="6.22042">
        <ele>1725.8000488281</ele>
        <time>2023-08-08T12:34:17.000Z</time>
      </trkpt>
      <trkpt lat="45.46139" lon="6.2204">
        <ele>1725.8000488281</ele>
        <time>2023-08-08T12:34:25.000Z</time>
      </trkpt>
      <trkpt lat="45.4614" lon="6.22041">
        <ele>1725.8000488281</ele>
        <time>2023-08-08T12:34:35.000Z</time>
      </trkpt>
      <trkpt lat="45.46138" lon="6.22039">
        <ele>1726</ele>
        <time>2023-08-08T12:34:50.000Z</time>
      </trkpt>
      <trkpt lat="45.4614" lon="6.22042">
        <ele>1726.1999511719</ele>
        <time>2023-08-08T12:34:56.000Z</time>
      </trkpt>
      <trkpt lat="45.4614" lon="6.22043">
        <ele>1726</ele>
        <time>2023-08-08T12:35:07.000Z</time>
      </trkpt>
      <trkpt lat="45.46138" lon="6.22043">
        <ele>1725.8000488281</ele>
        <time>2023-08-08T12:35:17.000Z</time>
      </trkpt>
      <trkpt lat="45.46139" lon="6.22041">
        <ele>1725.5999755859</ele>
        <time>2023-08-08T12:35:26.000Z</time>
      </trkpt>
      <trkpt lat="45.4614" lon="6.22042">
        <ele>1726</ele>
        <time>2023-08-08T12:35:31.000Z</time>
      </trkpt>
      <trkpt lat="45.46136" lon="6.2204">
        <ele>1726.5999755859</ele>
        <time>2023-08-08T12:35:39.000Z</time>
      </trkpt>
      <trkpt lat="45.46137" lon="6.22042">
        <ele>1726.5999755859</ele>
        <time>2023-08-08T12:35:47.000Z</time>
      </trkpt>
      <trkpt lat="45.46138" lon="6.22042">
        <ele>1726.8000488281</ele>
        <time>2023-08-08T12:35:52.000Z</time>
      </trkpt>
      <trkpt lat="45.46139" lon="6.22041">
        <ele>1726</ele>
        <time>2023-08-08T12:36:00.000Z</time>
      </trkpt>
      <trkpt lat="45.46138" lon="6.22038">
        <ele>1725.8000488281</ele>
        <time>2023-08-08T12:36:06.000Z</time>
      </trkpt>
      <trkpt lat="45.46137" lon="6.22036">
        <ele>1725.8000488281</ele>
        <time>2023-08-08T12:36:14.000Z</time>
      </trkpt>
      <trkpt lat="45.46137" lon="6.22038">
        <ele>1726.1999511719</ele>
        <time>2023-08-08T12:36:24.000Z</time>
      </trkpt>
      <trkpt lat="45.4614" lon="6.22042">
        <ele>1727.1999511719</ele>
        <time>2023-08-08T12:36:30.000Z</time>
      </trkpt>
      <trkpt lat="45.46141" lon="6.22042">
        <ele>1727.5999755859</ele>
        <time>2023-08-08T12:36:32.000Z</time>
      </trkpt>
      <trkpt lat="45.46142" lon="6.22045">
        <ele>1728.4000244141</ele>
        <time>2023-08-08T12:36:36.000Z</time>
      </trkpt>
      <trkpt lat="45.46143" lon="6.22047">
        <ele>1728.5999755859</ele>
        <time>2023-08-08T12:36:38.000Z</time>
      </trkpt>
      <trkpt lat="45.46146" lon="6.2205">
        <ele>1728.8000488281</ele>
        <time>2023-08-08T12:36:42.000Z</time>
      </trkpt>
      <trkpt lat="45.46151" lon="6.22051">
        <ele>1729.5999755859</ele>
        <time>2023-08-08T12:36:48.000Z</time>
      </trkpt>
      <trkpt lat="45.46155" lon="6.22051">
        <ele>1729.8000488281</ele>
        <time>2023-08-08T12:36:50.000Z</time>
      </trkpt>
      <trkpt lat="45.46156" lon="6.22051">
        <ele>1730.4000244141</ele>
        <time>2023-08-08T12:36:53.000Z</time>
      </trkpt>
      <trkpt lat="45.46157" lon="6.22053">
        <ele>1730.8000488281</ele>
        <time>2023-08-08T12:36:55.000Z</time>
      </trkpt>
      <trkpt lat="45.46162" lon="6.22054">
        <ele>1732</ele>
        <time>2023-08-08T12:37:01.000Z</time>
      </trkpt>
      <trkpt lat="45.46163" lon="6.22057">
        <ele>1732.1999511719</ele>
        <time>2023-08-08T12:37:03.000Z</time>
      </trkpt>
      <trkpt lat="45.46161" lon="6.22064">
        <ele>1732.5999755859</ele>
        <time>2023-08-08T12:37:11.000Z</time>
      </trkpt>
      <trkpt lat="45.46161" lon="6.22063">
        <ele>1733</ele>
        <time>2023-08-08T12:37:17.000Z</time>
      </trkpt>
      <trkpt lat="45.46162" lon="6.22064">
        <ele>1733</ele>
        <time>2023-08-08T12:37:19.000Z</time>
      </trkpt>
      <trkpt lat="45.46162" lon="6.22067">
        <ele>1734</ele>
        <time>2023-08-08T12:37:27.000Z</time>
      </trkpt>
      <trkpt lat="45.46162" lon="6.22069">
        <ele>1734.1999511719</ele>
        <time>2023-08-08T12:37:28.000Z</time>
      </trkpt>
      <trkpt lat="45.46165" lon="6.22071">
        <ele>1733.8000488281</ele>
        <time>2023-08-08T12:37:35.000Z</time>
      </trkpt>
      <trkpt lat="45.46165" lon="6.22071">
        <ele>1733.5999755859</ele>
        <time>2023-08-08T12:37:44.000Z</time>
      </trkpt>
      <trkpt lat="45.46161" lon="6.22066">
        <ele>1734</ele>
        <time>2023-08-08T12:37:54.000Z</time>
      </trkpt>
      <trkpt lat="45.46159" lon="6.22063">
        <ele>1734</ele>
        <time>2023-08-08T12:38:02.000Z</time>
      </trkpt>
      <trkpt lat="45.46158" lon="6.2206">
        <ele>1733.1999511719</ele>
        <time>2023-08-08T12:38:08.000Z</time>
      </trkpt>
      <trkpt lat="45.46157" lon="6.22058">
        <ele>1733</ele>
        <time>2023-08-08T12:38:09.000Z</time>
      </trkpt>
      <trkpt lat="45.46156" lon="6.22054">
        <ele>1732.5999755859</ele>
        <time>2023-08-08T12:38:15.000Z</time>
      </trkpt>
      <trkpt lat="45.46155" lon="6.22054">
        <ele>1731.8000488281</ele>
        <time>2023-08-08T12:38:19.000Z</time>
      </trkpt>
      <trkpt lat="45.46153" lon="6.22053">
        <ele>1731.1999511719</ele>
        <time>2023-08-08T12:38:21.000Z</time>
      </trkpt>
      <trkpt lat="45.4615" lon="6.22052">
        <ele>1730.5999755859</ele>
        <time>2023-08-08T12:38:24.000Z</time>
      </trkpt>
      <trkpt lat="45.46148" lon="6.22052">
        <ele>1730</ele>
        <time>2023-08-08T12:38:27.000Z</time>
      </trkpt>
      <trkpt lat="45.46143" lon="6.22049">
        <ele>1729.4000244141</ele>
        <time>2023-08-08T12:38:32.000Z</time>
      </trkpt>
      <trkpt lat="45.46139" lon="6.22045">
        <ele>1728.4000244141</ele>
        <time>2023-08-08T12:38:38.000Z</time>
      </trkpt>
      <trkpt lat="45.46137" lon="6.22043">
        <ele>1728</ele>
        <time>2023-08-08T12:38:40.000Z</time>
      </trkpt>
      <trkpt lat="45.46137" lon="6.2204">
        <ele>1727.1999511719</ele>
        <time>2023-08-08T12:38:43.000Z</time>
      </trkpt>
      <trkpt lat="45.46138" lon="6.2204">
        <ele>1726.5999755859</ele>
        <time>2023-08-08T12:38:45.000Z</time>
      </trkpt>
      <trkpt lat="45.46139" lon="6.22043">
        <ele>1726.5999755859</ele>
        <time>2023-08-08T12:38:54.000Z</time>
      </trkpt>
      <trkpt lat="45.46139" lon="6.22042">
        <ele>1726.4000244141</ele>
        <time>2023-08-08T12:39:02.000Z</time>
      </trkpt>
      <trkpt lat="45.4614" lon="6.22038">
        <ele>1726.4000244141</ele>
        <time>2023-08-08T12:39:10.000Z</time>
      </trkpt>
      <trkpt lat="45.46139" lon="6.22038">
        <ele>1726.1999511719</ele>
        <time>2023-08-08T12:39:12.000Z</time>
      </trkpt>
      <trkpt lat="45.46138" lon="6.22036">
        <ele>1726.1999511719</ele>
        <time>2023-08-08T12:39:17.000Z</time>
      </trkpt>
      <trkpt lat="45.46138" lon="6.22038">
        <ele>1726</ele>
        <time>2023-08-08T12:39:27.000Z</time>
      </trkpt>
      <trkpt lat="45.46138" lon="6.2204">
        <ele>1726.1999511719</ele>
        <time>2023-08-08T12:39:36.000Z</time>
      </trkpt>
      <trkpt lat="45.46138" lon="6.2204">
        <ele>1726.5999755859</ele>
        <time>2023-08-08T12:39:44.000Z</time>
      </trkpt>
      <trkpt lat="45.46137" lon="6.22042">
        <ele>1726.5999755859</ele>
        <time>2023-08-08T12:39:51.000Z</time>
      </trkpt>
      <trkpt lat="45.4614" lon="6.2204">
        <ele>1726.8000488281</ele>
        <time>2023-08-08T12:40:00.000Z</time>
      </trkpt>
      <trkpt lat="45.46138" lon="6.22042">
        <ele>1726.4000244141</ele>
        <time>2023-08-08T12:40:06.000Z</time>
      </trkpt>
      <trkpt lat="45.46136" lon="6.22043">
        <ele>1726.4000244141</ele>
        <time>2023-08-08T12:40:13.000Z</time>
      </trkpt>
      <trkpt lat="45.46137" lon="6.22044">
        <ele>1726.4000244141</ele>
        <time>2023-08-08T12:40:21.000Z</time>
      </trkpt>
      <trkpt lat="45.46139" lon="6.22042">
        <ele>1726.4000244141</ele>
        <time>2023-08-08T12:40:29.000Z</time>
      </trkpt>
      <trkpt lat="45.4614" lon="6.22041">
        <ele>1726.4000244141</ele>
        <time>2023-08-08T12:40:34.000Z</time>
      </trkpt>
      <trkpt lat="45.46136" lon="6.22044">
        <ele>1726.4000244141</ele>
        <time>2023-08-08T12:40:41.000Z</time>
      </trkpt>
      <trkpt lat="45.46128" lon="6.22044">
        <ele>1726.5999755859</ele>
        <time>2023-08-08T12:40:48.000Z</time>
      </trkpt>
      <trkpt lat="45.46125" lon="6.22042">
        <ele>1727.1999511719</ele>
        <time>2023-08-08T12:40:52.000Z</time>
      </trkpt>
      <trkpt lat="45.46123" lon="6.22041">
        <ele>1727.5999755859</ele>
        <time>2023-08-08T12:40:54.000Z</time>
      </trkpt>
      <trkpt lat="45.46124" lon="6.22041">
        <ele>1728.4000244141</ele>
        <time>2023-08-08T12:40:59.000Z</time>
      </trkpt>
      <trkpt lat="45.46124" lon="6.2204">
        <ele>1728.4000244141</ele>
        <time>2023-08-08T12:41:01.000Z</time>
      </trkpt>
      <trkpt lat="45.46121" lon="6.22037">
        <ele>1729.1999511719</ele>
        <time>2023-08-08T12:41:08.000Z</time>
      </trkpt>
      <trkpt lat="45.4612" lon="6.22037">
        <ele>1729.5999755859</ele>
        <time>2023-08-08T12:41:09.000Z</time>
      </trkpt>
      <trkpt lat="45.46115" lon="6.22036">
        <ele>1730.1999511719</ele>
        <time>2023-08-08T12:41:15.000Z</time>
      </trkpt>
      <trkpt lat="45.46114" lon="6.22036">
        <ele>1730.5999755859</ele>
        <time>2023-08-08T12:41:18.000Z</time>
      </trkpt>
      <trkpt lat="45.46111" lon="6.22032">
        <ele>1731.5999755859</ele>
        <time>2023-08-08T12:41:23.000Z</time>
      </trkpt>
      <trkpt lat="45.4611" lon="6.22032">
        <ele>1732</ele>
        <time>2023-08-08T12:41:24.000Z</time>
      </trkpt>
      <trkpt lat="45.46107" lon="6.2203">
        <ele>1732.8000488281</ele>
        <time>2023-08-08T12:41:29.000Z</time>
      </trkpt>
      <trkpt lat="45.46105" lon="6.22028">
        <ele>1733.4000244141</ele>
        <time>2023-08-08T12:41:31.000Z</time>
      </trkpt>
      <trkpt lat="45.46102" lon="6.22026">
        <ele>1734.4000244141</ele>
        <time>2023-08-08T12:41:35.000Z</time>
      </trkpt>
      <trkpt lat="45.46099" lon="6.22023">
        <ele>1735.5999755859</ele>
        <time>2023-08-08T12:41:42.000Z</time>
      </trkpt>
      <trkpt lat="45.46099" lon="6.22023">
        <ele>1735.5999755859</ele>
        <time>2023-08-08T12:41:43.000Z</time>
      </trkpt>
      <trkpt lat="45.46098" lon="6.22019">
        <ele>1735.4000244141</ele>
        <time>2023-08-08T12:41:49.000Z</time>
      </trkpt>
      <trkpt lat="45.461" lon="6.22015">
        <ele>1734.5999755859</ele>
        <time>2023-08-08T12:41:59.000Z</time>
      </trkpt>
      <trkpt lat="45.461" lon="6.22015">
        <ele>1734.5999755859</ele>
        <time>2023-08-08T12:42:00.000Z</time>
      </trkpt>
      <trkpt lat="45.461" lon="6.22022">
        <ele>1734.4000244141</ele>
        <time>2023-08-08T12:42:07.000Z</time>
      </trkpt>
      <trkpt lat="45.46098" lon="6.22023">
        <ele>1735.5999755859</ele>
        <time>2023-08-08T12:42:11.000Z</time>
      </trkpt>
      <trkpt lat="45.46097" lon="6.22022">
        <ele>1736</ele>
        <time>2023-08-08T12:42:13.000Z</time>
      </trkpt>
      <trkpt lat="45.46094" lon="6.2202">
        <ele>1736.8000488281</ele>
        <time>2023-08-08T12:42:18.000Z</time>
      </trkpt>
      <trkpt lat="45.46093" lon="6.22018">
        <ele>1737.1999511719</ele>
        <time>2023-08-08T12:42:20.000Z</time>
      </trkpt>
      <trkpt lat="45.4609" lon="6.22015">
        <ele>1738</ele>
        <time>2023-08-08T12:42:25.000Z</time>
      </trkpt>
      <trkpt lat="45.46089" lon="6.22012">
        <ele>1738.5999755859</ele>
        <time>2023-08-08T12:42:30.000Z</time>
      </trkpt>
      <trkpt lat="45.46087" lon="6.2201">
        <ele>1739</ele>
        <time>2023-08-08T12:42:33.000Z</time>
      </trkpt>
      <trkpt lat="45.46084" lon="6.22008">
        <ele>1739.5999755859</ele>
        <time>2023-08-08T12:42:39.000Z</time>
      </trkpt>
      <trkpt lat="45.46082" lon="6.22007">
        <ele>1740.1999511719</ele>
        <time>2023-08-08T12:42:42.000Z</time>
      </trkpt>
      <trkpt lat="45.4608" lon="6.22004">
        <ele>1741.1999511719</ele>
        <time>2023-08-08T12:42:49.000Z</time>
      </trkpt>
      <trkpt lat="45.46079" lon="6.22003">
        <ele>1741.4000244141</ele>
        <time>2023-08-08T12:42:50.000Z</time>
      </trkpt>
      <trkpt lat="45.46076" lon="6.22">
        <ele>1742.4000244141</ele>
        <time>2023-08-08T12:42:56.000Z</time>
      </trkpt>
      <trkpt lat="45.46075" lon="6.21998">
        <ele>1743.1999511719</ele>
        <time>2023-08-08T12:43:00.000Z</time>
      </trkpt>
      <trkpt lat="45.46073" lon="6.21997">
        <ele>1743.5999755859</ele>
        <time>2023-08-08T12:43:03.000Z</time>
      </trkpt>
      <trkpt lat="45.46069" lon="6.21996">
        <ele>1744.1999511719</ele>
        <time>2023-08-08T12:43:07.000Z</time>
      </trkpt>
      <trkpt lat="45.46069" lon="6.21996">
        <ele>1744.5999755859</ele>
        <time>2023-08-08T12:43:10.000Z</time>
      </trkpt>
      <trkpt lat="45.46067" lon="6.21995">
        <ele>1745.1999511719</ele>
        <time>2023-08-08T12:43:14.000Z</time>
      </trkpt>
      <trkpt lat="45.46064" lon="6.21995">
        <ele>1745.5999755859</ele>
        <time>2023-08-08T12:43:19.000Z</time>
      </trkpt>
      <trkpt lat="45.46062" lon="6.21994">
        <ele>1746.1999511719</ele>
        <time>2023-08-08T12:43:24.000Z</time>
      </trkpt>
      <trkpt lat="45.46061" lon="6.21994">
        <ele>1746.8000488281</ele>
        <time>2023-08-08T12:43:27.000Z</time>
      </trkpt>
      <trkpt lat="45.46058" lon="6.21992">
        <ele>1748</ele>
        <time>2023-08-08T12:43:33.000Z</time>
      </trkpt>
      <trkpt lat="45.46056" lon="6.21989">
        <ele>1749</ele>
        <time>2023-08-08T12:43:41.000Z</time>
      </trkpt>
      <trkpt lat="45.46056" lon="6.21989">
        <ele>1749.4000244141</ele>
        <time>2023-08-08T12:43:42.000Z</time>
      </trkpt>
      <trkpt lat="45.46054" lon="6.21989">
        <ele>1750.1999511719</ele>
        <time>2023-08-08T12:43:48.000Z</time>
      </trkpt>
      <trkpt lat="45.46052" lon="6.21988">
        <ele>1750.5999755859</ele>
        <time>2023-08-08T12:43:51.000Z</time>
      </trkpt>
      <trkpt lat="45.46052" lon="6.21987">
        <ele>1751.1999511719</ele>
        <time>2023-08-08T12:43:54.000Z</time>
      </trkpt>
      <trkpt lat="45.46051" lon="6.21987">
        <ele>1751.8000488281</ele>
        <time>2023-08-08T12:43:59.000Z</time>
      </trkpt>
      <trkpt lat="45.4605" lon="6.21987">
        <ele>1752.4000244141</ele>
        <time>2023-08-08T12:44:02.000Z</time>
      </trkpt>
      <trkpt lat="45.4605" lon="6.21986">
        <ele>1753.1999511719</ele>
        <time>2023-08-08T12:44:08.000Z</time>
      </trkpt>
      <trkpt lat="45.4605" lon="6.21984">
        <ele>1753.4000244141</ele>
        <time>2023-08-08T12:44:10.000Z</time>
      </trkpt>
      <trkpt lat="45.46048" lon="6.21981">
        <ele>1754.1999511719</ele>
        <time>2023-08-08T12:44:16.000Z</time>
      </trkpt>
      <trkpt lat="45.46046" lon="6.2198">
        <ele>1754.4000244141</ele>
        <time>2023-08-08T12:44:18.000Z</time>
      </trkpt>
      <trkpt lat="45.46044" lon="6.21979">
        <ele>1755.1999511719</ele>
        <time>2023-08-08T12:44:24.000Z</time>
      </trkpt>
      <trkpt lat="45.46044" lon="6.21978">
        <ele>1755.5999755859</ele>
        <time>2023-08-08T12:44:27.000Z</time>
      </trkpt>
      <trkpt lat="45.46043" lon="6.21975">
        <ele>1756.5999755859</ele>
        <time>2023-08-08T12:44:34.000Z</time>
      </trkpt>
      <trkpt lat="45.46043" lon="6.21975">
        <ele>1756.5999755859</ele>
        <time>2023-08-08T12:44:35.000Z</time>
      </trkpt>
      <trkpt lat="45.46039" lon="6.21972">
        <ele>1757.5999755859</ele>
        <time>2023-08-08T12:44:42.000Z</time>
      </trkpt>
      <trkpt lat="45.46038" lon="6.21971">
        <ele>1757.5999755859</ele>
        <time>2023-08-08T12:44:43.000Z</time>
      </trkpt>
      <trkpt lat="45.46034" lon="6.21969">
        <ele>1758.5999755859</ele>
        <time>2023-08-08T12:44:50.000Z</time>
      </trkpt>
      <trkpt lat="45.46034" lon="6.21969">
        <ele>1758.5999755859</ele>
        <time>2023-08-08T12:44:51.000Z</time>
      </trkpt>
      <trkpt lat="45.46033" lon="6.21968">
        <ele>1759.8000488281</ele>
        <time>2023-08-08T12:44:58.000Z</time>
      </trkpt>
      <trkpt lat="45.46033" lon="6.21968">
        <ele>1759.8000488281</ele>
        <time>2023-08-08T12:44:59.000Z</time>
      </trkpt>
      <trkpt lat="45.46031" lon="6.21967">
        <ele>1760.8000488281</ele>
        <time>2023-08-08T12:45:05.000Z</time>
      </trkpt>
      <trkpt lat="45.46031" lon="6.21963">
        <ele>1761.8000488281</ele>
        <time>2023-08-08T12:45:10.000Z</time>
      </trkpt>
      <trkpt lat="45.46031" lon="6.21965">
        <ele>1762.1999511719</ele>
        <time>2023-08-08T12:45:13.000Z</time>
      </trkpt>
      <trkpt lat="45.46031" lon="6.21965">
        <ele>1762.4000244141</ele>
        <time>2023-08-08T12:45:15.000Z</time>
      </trkpt>
      <trkpt lat="45.4603" lon="6.21966">
        <ele>1762.8000488281</ele>
        <time>2023-08-08T12:45:17.000Z</time>
      </trkpt>
      <trkpt lat="45.46028" lon="6.21972">
        <ele>1763.8000488281</ele>
        <time>2023-08-08T12:45:23.000Z</time>
      </trkpt>
      <trkpt lat="45.46027" lon="6.21973">
        <ele>1764</ele>
        <time>2023-08-08T12:45:24.000Z</time>
      </trkpt>
      <trkpt lat="45.46027" lon="6.21975">
        <ele>1765</ele>
        <time>2023-08-08T12:45:30.000Z</time>
      </trkpt>
      <trkpt lat="45.46025" lon="6.2198">
        <ele>1766.1999511719</ele>
        <time>2023-08-08T12:45:37.000Z</time>
      </trkpt>
      <trkpt lat="45.46025" lon="6.21981">
        <ele>1766.4000244141</ele>
        <time>2023-08-08T12:45:38.000Z</time>
      </trkpt>
      <trkpt lat="45.46025" lon="6.21984">
        <ele>1767.1999511719</ele>
        <time>2023-08-08T12:45:44.000Z</time>
      </trkpt>
      <trkpt lat="45.46025" lon="6.21982">
        <ele>1767.4000244141</ele>
        <time>2023-08-08T12:45:46.000Z</time>
      </trkpt>
      <trkpt lat="45.46024" lon="6.21978">
        <ele>1768.4000244141</ele>
        <time>2023-08-08T12:45:50.000Z</time>
      </trkpt>
      <trkpt lat="45.46023" lon="6.21978">
        <ele>1768.5999755859</ele>
        <time>2023-08-08T12:45:52.000Z</time>
      </trkpt>
      <trkpt lat="45.46023" lon="6.2198">
        <ele>1769.5999755859</ele>
        <time>2023-08-08T12:45:58.000Z</time>
      </trkpt>
      <trkpt lat="45.46022" lon="6.21981">
        <ele>1770</ele>
        <time>2023-08-08T12:46:01.000Z</time>
      </trkpt>
      <trkpt lat="45.46021" lon="6.21984">
        <ele>1770.5999755859</ele>
        <time>2023-08-08T12:46:05.000Z</time>
      </trkpt>
      <trkpt lat="45.46019" lon="6.21983">
        <ele>1771.4000244141</ele>
        <time>2023-08-08T12:46:09.000Z</time>
      </trkpt>
      <trkpt lat="45.46019" lon="6.21982">
        <ele>1771.5999755859</ele>
        <time>2023-08-08T12:46:10.000Z</time>
      </trkpt>
      <trkpt lat="45.46016" lon="6.21982">
        <ele>1772</ele>
        <time>2023-08-08T12:46:16.000Z</time>
      </trkpt>
      <trkpt lat="45.46013" lon="6.21977">
        <ele>1772</ele>
        <time>2023-08-08T12:46:26.000Z</time>
      </trkpt>
      <trkpt lat="45.46009" lon="6.21971">
        <ele>1772</ele>
        <time>2023-08-08T12:46:33.000Z</time>
      </trkpt>
      <trkpt lat="45.46008" lon="6.21969">
        <ele>1772.5999755859</ele>
        <time>2023-08-08T12:46:38.000Z</time>
      </trkpt>
      <trkpt lat="45.46007" lon="6.21967">
        <ele>1773</ele>
        <time>2023-08-08T12:46:41.000Z</time>
      </trkpt>
      <trkpt lat="45.46007" lon="6.21963">
        <ele>1773.8000488281</ele>
        <time>2023-08-08T12:46:47.000Z</time>
      </trkpt>
      <trkpt lat="45.46006" lon="6.21961">
        <ele>1774.1999511719</ele>
        <time>2023-08-08T12:46:49.000Z</time>
      </trkpt>
      <trkpt lat="45.46007" lon="6.2196">
        <ele>1775</ele>
        <time>2023-08-08T12:46:54.000Z</time>
      </trkpt>
      <trkpt lat="45.46005" lon="6.2196">
        <ele>1775.8000488281</ele>
        <time>2023-08-08T12:46:59.000Z</time>
      </trkpt>
      <trkpt lat="45.46004" lon="6.21959">
        <ele>1776</ele>
        <time>2023-08-08T12:47:01.000Z</time>
      </trkpt>
      <trkpt lat="45.45999" lon="6.21956">
        <ele>1777.1999511719</ele>
        <time>2023-08-08T12:47:08.000Z</time>
      </trkpt>
      <trkpt lat="45.45999" lon="6.21956">
        <ele>1777.1999511719</ele>
        <time>2023-08-08T12:47:09.000Z</time>
      </trkpt>
      <trkpt lat="45.45999" lon="6.21955">
        <ele>1778.1999511719</ele>
        <time>2023-08-08T12:47:14.000Z</time>
      </trkpt>
      <trkpt lat="45.45998" lon="6.21956">
        <ele>1778.8000488281</ele>
        <time>2023-08-08T12:47:18.000Z</time>
      </trkpt>
      <trkpt lat="45.45998" lon="6.21954">
        <ele>1779.1999511719</ele>
        <time>2023-08-08T12:47:21.000Z</time>
      </trkpt>
      <trkpt lat="45.45997" lon="6.21953">
        <ele>1779.8000488281</ele>
        <time>2023-08-08T12:47:24.000Z</time>
      </trkpt>
      <trkpt lat="45.45997" lon="6.21951">
        <ele>1780.4000244141</ele>
        <time>2023-08-08T12:47:28.000Z</time>
      </trkpt>
      <trkpt lat="45.45996" lon="6.21947">
        <ele>1781.4000244141</ele>
        <time>2023-08-08T12:47:34.000Z</time>
      </trkpt>
      <trkpt lat="45.45997" lon="6.21946">
        <ele>1781.5999755859</ele>
        <time>2023-08-08T12:47:35.000Z</time>
      </trkpt>
      <trkpt lat="45.45995" lon="6.21944">
        <ele>1782.5999755859</ele>
        <time>2023-08-08T12:47:40.000Z</time>
      </trkpt>
      <trkpt lat="45.45995" lon="6.21943">
        <ele>1783.1999511719</ele>
        <time>2023-08-08T12:47:42.000Z</time>
      </trkpt>
      <trkpt lat="45.45994" lon="6.21943">
        <ele>1784</ele>
        <time>2023-08-08T12:47:46.000Z</time>
      </trkpt>
      <trkpt lat="45.45991" lon="6.21944">
        <ele>1785</ele>
        <time>2023-08-08T12:47:51.000Z</time>
      </trkpt>
      <trkpt lat="45.45991" lon="6.21944">
        <ele>1785</ele>
        <time>2023-08-08T12:47:52.000Z</time>
      </trkpt>
      <trkpt lat="45.45988" lon="6.21942">
        <ele>1786</ele>
        <time>2023-08-08T12:47:58.000Z</time>
      </trkpt>
      <trkpt lat="45.45988" lon="6.21942">
        <ele>1786.4000244141</ele>
        <time>2023-08-08T12:48:00.000Z</time>
      </trkpt>
      <trkpt lat="45.45987" lon="6.2194">
        <ele>1787</ele>
        <time>2023-08-08T12:48:03.000Z</time>
      </trkpt>
      <trkpt lat="45.45986" lon="6.21937">
        <ele>1788</ele>
        <time>2023-08-08T12:48:08.000Z</time>
      </trkpt>
      <trkpt lat="45.45986" lon="6.21935">
        <ele>1788.1999511719</ele>
        <time>2023-08-08T12:48:10.000Z</time>
      </trkpt>
      <trkpt lat="45.45983" lon="6.21936">
        <ele>1789.4000244141</ele>
        <time>2023-08-08T12:48:17.000Z</time>
      </trkpt>
      <trkpt lat="45.45978" lon="6.21942">
        <ele>1790.4000244141</ele>
        <time>2023-08-08T12:48:24.000Z</time>
      </trkpt>
      <trkpt lat="45.45974" lon="6.21943">
        <ele>1791.5999755859</ele>
        <time>2023-08-08T12:48:32.000Z</time>
      </trkpt>
      <trkpt lat="45.45976" lon="6.21938">
        <ele>1792.5999755859</ele>
        <time>2023-08-08T12:48:38.000Z</time>
      </trkpt>
      <trkpt lat="45.45976" lon="6.21937">
        <ele>1793</ele>
        <time>2023-08-08T12:48:39.000Z</time>
      </trkpt>
      <trkpt lat="45.4598" lon="6.2193">
        <ele>1793.8000488281</ele>
        <time>2023-08-08T12:48:48.000Z</time>
      </trkpt>
      <trkpt lat="45.45983" lon="6.21926">
        <ele>1794.8000488281</ele>
        <time>2023-08-08T12:48:55.000Z</time>
      </trkpt>
      <trkpt lat="45.45983" lon="6.21924">
        <ele>1795</ele>
        <time>2023-08-08T12:48:57.000Z</time>
      </trkpt>
      <trkpt lat="45.45985" lon="6.21922">
        <ele>1796</ele>
        <time>2023-08-08T12:49:03.000Z</time>
      </trkpt>
      <trkpt lat="45.45985" lon="6.2192">
        <ele>1796.1999511719</ele>
        <time>2023-08-08T12:49:05.000Z</time>
      </trkpt>
      <trkpt lat="45.45984" lon="6.2192">
        <ele>1797</ele>
        <time>2023-08-08T12:49:09.000Z</time>
      </trkpt>
      <trkpt lat="45.45985" lon="6.21918">
        <ele>1797.5999755859</ele>
        <time>2023-08-08T12:49:12.000Z</time>
      </trkpt>
      <trkpt lat="45.45985" lon="6.21919">
        <ele>1798.1999511719</ele>
        <time>2023-08-08T12:49:15.000Z</time>
      </trkpt>
      <trkpt lat="45.45982" lon="6.21918">
        <ele>1798.4000244141</ele>
        <time>2023-08-08T12:49:20.000Z</time>
      </trkpt>
      <trkpt lat="45.45978" lon="6.21917">
        <ele>1799</ele>
        <time>2023-08-08T12:49:28.000Z</time>
      </trkpt>
      <trkpt lat="45.45977" lon="6.21916">
        <ele>1799.4000244141</ele>
        <time>2023-08-08T12:49:30.000Z</time>
      </trkpt>
      <trkpt lat="45.45979" lon="6.21914">
        <ele>1800</ele>
        <time>2023-08-08T12:49:35.000Z</time>
      </trkpt>
      <trkpt lat="45.45978" lon="6.21913">
        <ele>1800.4000244141</ele>
        <time>2023-08-08T12:49:37.000Z</time>
      </trkpt>
      <trkpt lat="45.45975" lon="6.2191">
        <ele>1801.1999511719</ele>
        <time>2023-08-08T12:49:43.000Z</time>
      </trkpt>
      <trkpt lat="45.45974" lon="6.2191">
        <ele>1801.4000244141</ele>
        <time>2023-08-08T12:49:44.000Z</time>
      </trkpt>
      <trkpt lat="45.4597" lon="6.21909">
        <ele>1802.4000244141</ele>
        <time>2023-08-08T12:49:51.000Z</time>
      </trkpt>
      <trkpt lat="45.45969" lon="6.21909">
        <ele>1802.8000488281</ele>
        <time>2023-08-08T12:49:53.000Z</time>
      </trkpt>
      <trkpt lat="45.45966" lon="6.21909">
        <ele>1803.5999755859</ele>
        <time>2023-08-08T12:49:58.000Z</time>
      </trkpt>
      <trkpt lat="45.45966" lon="6.21909">
        <ele>1803.8000488281</ele>
        <time>2023-08-08T12:50:00.000Z</time>
      </trkpt>
      <trkpt lat="45.45963" lon="6.21907">
        <ele>1804.5999755859</ele>
        <time>2023-08-08T12:50:06.000Z</time>
      </trkpt>
      <trkpt lat="45.45962" lon="6.21906">
        <ele>1804.8000488281</ele>
        <time>2023-08-08T12:50:07.000Z</time>
      </trkpt>
      <trkpt lat="45.4596" lon="6.21905">
        <ele>1805.5999755859</ele>
        <time>2023-08-08T12:50:12.000Z</time>
      </trkpt>
      <trkpt lat="45.45958" lon="6.21904">
        <ele>1806.1999511719</ele>
        <time>2023-08-08T12:50:15.000Z</time>
      </trkpt>
      <trkpt lat="45.45956" lon="6.21904">
        <ele>1806.8000488281</ele>
        <time>2023-08-08T12:50:18.000Z</time>
      </trkpt>
      <trkpt lat="45.45954" lon="6.21901">
        <ele>1807.5999755859</ele>
        <time>2023-08-08T12:50:23.000Z</time>
      </trkpt>
      <trkpt lat="45.45953" lon="6.21899">
        <ele>1807.8000488281</ele>
        <time>2023-08-08T12:50:27.000Z</time>
      </trkpt>
      <trkpt lat="45.45953" lon="6.21899">
        <ele>1808.5999755859</ele>
        <time>2023-08-08T12:50:31.000Z</time>
      </trkpt>
      <trkpt lat="45.45953" lon="6.21898">
        <ele>1808.8000488281</ele>
        <time>2023-08-08T12:50:33.000Z</time>
      </trkpt>
      <trkpt lat="45.45952" lon="6.21895">
        <ele>1809.8000488281</ele>
        <time>2023-08-08T12:50:38.000Z</time>
      </trkpt>
      <trkpt lat="45.45952" lon="6.21894">
        <ele>1810</ele>
        <time>2023-08-08T12:50:39.000Z</time>
      </trkpt>
      <trkpt lat="45.4595" lon="6.21891">
        <ele>1811</ele>
        <time>2023-08-08T12:50:46.000Z</time>
      </trkpt>
      <trkpt lat="45.45949" lon="6.2189">
        <ele>1811.4000244141</ele>
        <time>2023-08-08T12:50:47.000Z</time>
      </trkpt>
      <trkpt lat="45.45947" lon="6.21889">
        <ele>1812.1999511719</ele>
        <time>2023-08-08T12:50:52.000Z</time>
      </trkpt>
      <trkpt lat="45.45947" lon="6.21889">
        <ele>1812.5999755859</ele>
        <time>2023-08-08T12:50:54.000Z</time>
      </trkpt>
      <trkpt lat="45.45944" lon="6.21887">
        <ele>1813.1999511719</ele>
        <time>2023-08-08T12:50:58.000Z</time>
      </trkpt>
      <trkpt lat="45.45941" lon="6.21886">
        <ele>1813.8000488281</ele>
        <time>2023-08-08T12:51:03.000Z</time>
      </trkpt>
      <trkpt lat="45.4594" lon="6.21886">
        <ele>1814.1999511719</ele>
        <time>2023-08-08T12:51:08.000Z</time>
      </trkpt>
      <trkpt lat="45.4594" lon="6.21885">
        <ele>1814.4000244141</ele>
        <time>2023-08-08T12:51:10.000Z</time>
      </trkpt>
      <trkpt lat="45.45938" lon="6.21882">
        <ele>1815</ele>
        <time>2023-08-08T12:51:15.000Z</time>
      </trkpt>
      <trkpt lat="45.45935" lon="6.2188">
        <ele>1815.1999511719</ele>
        <time>2023-08-08T12:51:19.000Z</time>
      </trkpt>
      <trkpt lat="45.45933" lon="6.21879">
        <ele>1815.8000488281</ele>
        <time>2023-08-08T12:51:22.000Z</time>
      </trkpt>
      <trkpt lat="45.45931" lon="6.21877">
        <ele>1816.4000244141</ele>
        <time>2023-08-08T12:51:27.000Z</time>
      </trkpt>
      <trkpt lat="45.45929" lon="6.21876">
        <ele>1816.5999755859</ele>
        <time>2023-08-08T12:51:30.000Z</time>
      </trkpt>
      <trkpt lat="45.4593" lon="6.21877">
        <ele>1817</ele>
        <time>2023-08-08T12:51:37.000Z</time>
      </trkpt>
      <trkpt lat="45.45931" lon="6.21872">
        <ele>1817.4000244141</ele>
        <time>2023-08-08T12:51:42.000Z</time>
      </trkpt>
      <trkpt lat="45.45931" lon="6.21871">
        <ele>1818</ele>
        <time>2023-08-08T12:51:44.000Z</time>
      </trkpt>
      <trkpt lat="45.45931" lon="6.2187">
        <ele>1818.5999755859</ele>
        <time>2023-08-08T12:51:46.000Z</time>
      </trkpt>
      <trkpt lat="45.45928" lon="6.21868">
        <ele>1819.5999755859</ele>
        <time>2023-08-08T12:51:51.000Z</time>
      </trkpt>
      <trkpt lat="45.45927" lon="6.21863">
        <ele>1820.5999755859</ele>
        <time>2023-08-08T12:51:58.000Z</time>
      </trkpt>
      <trkpt lat="45.45927" lon="6.21863">
        <ele>1820.5999755859</ele>
        <time>2023-08-08T12:51:59.000Z</time>
      </trkpt>
      <trkpt lat="45.45925" lon="6.2186">
        <ele>1821.5999755859</ele>
        <time>2023-08-08T12:52:04.000Z</time>
      </trkpt>
      <trkpt lat="45.45924" lon="6.21859">
        <ele>1822</ele>
        <time>2023-08-08T12:52:06.000Z</time>
      </trkpt>
      <trkpt lat="45.45924" lon="6.21858">
        <ele>1822.8000488281</ele>
        <time>2023-08-08T12:52:10.000Z</time>
      </trkpt>
      <trkpt lat="45.45924" lon="6.21857">
        <ele>1823.8000488281</ele>
        <time>2023-08-08T12:52:15.000Z</time>
      </trkpt>
      <trkpt lat="45.45924" lon="6.21855">
        <ele>1824</ele>
        <time>2023-08-08T12:52:16.000Z</time>
      </trkpt>
      <trkpt lat="45.45923" lon="6.21854">
        <ele>1824.8000488281</ele>
        <time>2023-08-08T12:52:20.000Z</time>
      </trkpt>
      <trkpt lat="45.45923" lon="6.21851">
        <ele>1825.5999755859</ele>
        <time>2023-08-08T12:52:24.000Z</time>
      </trkpt>
      <trkpt lat="45.45923" lon="6.21849">
        <ele>1825.8000488281</ele>
        <time>2023-08-08T12:52:27.000Z</time>
      </trkpt>
      <trkpt lat="45.45923" lon="6.21847">
        <ele>1826.8000488281</ele>
        <time>2023-08-08T12:52:34.000Z</time>
      </trkpt>
      <trkpt lat="45.45923" lon="6.21847">
        <ele>1827</ele>
        <time>2023-08-08T12:52:35.000Z</time>
      </trkpt>
      <trkpt lat="45.4592" lon="6.21844">
        <ele>1826.8000488281</ele>
        <time>2023-08-08T12:52:44.000Z</time>
      </trkpt>
      <trkpt lat="45.45918" lon="6.21844">
        <ele>1826.5999755859</ele>
        <time>2023-08-08T12:52:51.000Z</time>
      </trkpt>
      <trkpt lat="45.45916" lon="6.21844">
        <ele>1827.4000244141</ele>
        <time>2023-08-08T12:52:59.000Z</time>
      </trkpt>
      <trkpt lat="45.45915" lon="6.21841">
        <ele>1828</ele>
        <time>2023-08-08T12:53:02.000Z</time>
      </trkpt>
      <trkpt lat="45.45913" lon="6.21839">
        <ele>1829</ele>
        <time>2023-08-08T12:53:09.000Z</time>
      </trkpt>
      <trkpt lat="45.45911" lon="6.21837">
        <ele>1830.1999511719</ele>
        <time>2023-08-08T12:53:16.000Z</time>
      </trkpt>
      <trkpt lat="45.4591" lon="6.21836">
        <ele>1830.4000244141</ele>
        <time>2023-08-08T12:53:17.000Z</time>
      </trkpt>
      <trkpt lat="45.45908" lon="6.21834">
        <ele>1831.1999511719</ele>
        <time>2023-08-08T12:53:21.000Z</time>
      </trkpt>
      <trkpt lat="45.45905" lon="6.21833">
        <ele>1832.1999511719</ele>
        <time>2023-08-08T12:53:25.000Z</time>
      </trkpt>
      <trkpt lat="45.45905" lon="6.21833">
        <ele>1832.4000244141</ele>
        <time>2023-08-08T12:53:26.000Z</time>
      </trkpt>
      <trkpt lat="45.45901" lon="6.21829">
        <ele>1833.1999511719</ele>
        <time>2023-08-08T12:53:32.000Z</time>
      </trkpt>
      <trkpt lat="45.459" lon="6.21828">
        <ele>1833.4000244141</ele>
        <time>2023-08-08T12:53:34.000Z</time>
      </trkpt>
      <trkpt lat="45.45897" lon="6.21826">
        <ele>1833.4000244141</ele>
        <time>2023-08-08T12:53:38.000Z</time>
      </trkpt>
      <trkpt lat="45.45892" lon="6.21825">
        <ele>1834.5999755859</ele>
        <time>2023-08-08T12:53:45.000Z</time>
      </trkpt>
      <trkpt lat="45.45892" lon="6.21825">
        <ele>1834.5999755859</ele>
        <time>2023-08-08T12:53:46.000Z</time>
      </trkpt>
      <trkpt lat="45.45886" lon="6.21821">
        <ele>1835.1999511719</ele>
        <time>2023-08-08T12:53:53.000Z</time>
      </trkpt>
      <trkpt lat="45.45885" lon="6.21815">
        <ele>1835.5999755859</ele>
        <time>2023-08-08T12:53:58.000Z</time>
      </trkpt>
      <trkpt lat="45.45884" lon="6.21814">
        <ele>1835.8000488281</ele>
        <time>2023-08-08T12:54:00.000Z</time>
      </trkpt>
      <trkpt lat="45.45882" lon="6.2181">
        <ele>1836.5999755859</ele>
        <time>2023-08-08T12:54:07.000Z</time>
      </trkpt>
      <trkpt lat="45.45881" lon="6.21802">
        <ele>1837.5999755859</ele>
        <time>2023-08-08T12:54:15.000Z</time>
      </trkpt>
      <trkpt lat="45.4588" lon="6.21794">
        <ele>1838.8000488281</ele>
        <time>2023-08-08T12:54:23.000Z</time>
      </trkpt>
      <trkpt lat="45.45876" lon="6.21787">
        <ele>1839.8000488281</ele>
        <time>2023-08-08T12:54:31.000Z</time>
      </trkpt>
      <trkpt lat="45.45875" lon="6.21785">
        <ele>1840</ele>
        <time>2023-08-08T12:54:32.000Z</time>
      </trkpt>
      <trkpt lat="45.4587" lon="6.2178">
        <ele>1840.5999755859</ele>
        <time>2023-08-08T12:54:38.000Z</time>
      </trkpt>
      <trkpt lat="45.45868" lon="6.21773">
        <ele>1840.8000488281</ele>
        <time>2023-08-08T12:54:45.000Z</time>
      </trkpt>
      <trkpt lat="45.45868" lon="6.21771">
        <ele>1841</ele>
        <time>2023-08-08T12:54:47.000Z</time>
      </trkpt>
      <trkpt lat="45.45866" lon="6.21766">
        <ele>1841.8000488281</ele>
        <time>2023-08-08T12:54:53.000Z</time>
      </trkpt>
      <trkpt lat="45.45866" lon="6.21765">
        <ele>1842</ele>
        <time>2023-08-08T12:54:54.000Z</time>
      </trkpt>
      <trkpt lat="45.45863" lon="6.21756">
        <ele>1843</ele>
        <time>2023-08-08T12:55:01.000Z</time>
      </trkpt>
      <trkpt lat="45.45862" lon="6.21755">
        <ele>1843</ele>
        <time>2023-08-08T12:55:02.000Z</time>
      </trkpt>
      <trkpt lat="45.45859" lon="6.21751">
        <ele>1844</ele>
        <time>2023-08-08T12:55:08.000Z</time>
      </trkpt>
      <trkpt lat="45.45858" lon="6.21751">
        <ele>1844.1999511719</ele>
        <time>2023-08-08T12:55:09.000Z</time>
      </trkpt>
      <trkpt lat="45.45855" lon="6.21747">
        <ele>1844.5999755859</ele>
        <time>2023-08-08T12:55:14.000Z</time>
      </trkpt>
      <trkpt lat="45.45851" lon="6.21744">
        <ele>1845.1999511719</ele>
        <time>2023-08-08T12:55:18.000Z</time>
      </trkpt>
      <trkpt lat="45.45847" lon="6.21741">
        <ele>1845.8000488281</ele>
        <time>2023-08-08T12:55:23.000Z</time>
      </trkpt>
      <trkpt lat="45.45844" lon="6.21739">
        <ele>1846.4000244141</ele>
        <time>2023-08-08T12:55:27.000Z</time>
      </trkpt>
      <trkpt lat="45.45842" lon="6.21737">
        <ele>1847</ele>
        <time>2023-08-08T12:55:32.000Z</time>
      </trkpt>
      <trkpt lat="45.45842" lon="6.21737">
        <ele>1847.4000244141</ele>
        <time>2023-08-08T12:55:35.000Z</time>
      </trkpt>
      <trkpt lat="45.45839" lon="6.21736">
        <ele>1847.8000488281</ele>
        <time>2023-08-08T12:55:40.000Z</time>
      </trkpt>
      <trkpt lat="45.45837" lon="6.21735">
        <ele>1848.1999511719</ele>
        <time>2023-08-08T12:55:48.000Z</time>
      </trkpt>
      <trkpt lat="45.45837" lon="6.21734">
        <ele>1848</ele>
        <time>2023-08-08T12:55:57.000Z</time>
      </trkpt>
      <trkpt lat="45.45838" lon="6.21732">
        <ele>1848</ele>
        <time>2023-08-08T12:56:04.000Z</time>
      </trkpt>
      <trkpt lat="45.45837" lon="6.21733">
        <ele>1848</ele>
        <time>2023-08-08T12:56:13.000Z</time>
      </trkpt>
      <trkpt lat="45.45838" lon="6.21733">
        <ele>1848</ele>
        <time>2023-08-08T12:56:23.000Z</time>
      </trkpt>
      <trkpt lat="45.45838" lon="6.21731">
        <ele>1848</ele>
        <time>2023-08-08T12:56:33.000Z</time>
      </trkpt>
      <trkpt lat="45.45839" lon="6.21732">
        <ele>1848</ele>
        <time>2023-08-08T12:56:42.000Z</time>
      </trkpt>
      <trkpt lat="45.45839" lon="6.21733">
        <ele>1848</ele>
        <time>2023-08-08T12:56:49.000Z</time>
      </trkpt>
      <trkpt lat="45.45837" lon="6.21735">
        <ele>1847.8000488281</ele>
        <time>2023-08-08T12:57:01.000Z</time>
      </trkpt>
      <trkpt lat="45.45838" lon="6.21735">
        <ele>1847.8000488281</ele>
        <time>2023-08-08T12:57:10.000Z</time>
      </trkpt>
      <trkpt lat="45.45837" lon="6.21734">
        <ele>1847.8000488281</ele>
        <time>2023-08-08T12:57:19.000Z</time>
      </trkpt>
      <trkpt lat="45.45836" lon="6.21734">
        <ele>1847.5999755859</ele>
        <time>2023-08-08T12:57:27.000Z</time>
      </trkpt>
      <trkpt lat="45.45836" lon="6.21735">
        <ele>1847.4000244141</ele>
        <time>2023-08-08T12:57:36.000Z</time>
      </trkpt>
      <trkpt lat="45.45835" lon="6.21733">
        <ele>1847.4000244141</ele>
        <time>2023-08-08T12:57:44.000Z</time>
      </trkpt>
      <trkpt lat="45.45838" lon="6.21734">
        <ele>1847.4000244141</ele>
        <time>2023-08-08T12:57:54.000Z</time>
      </trkpt>
      <trkpt lat="45.45838" lon="6.21733">
        <ele>1847.4000244141</ele>
        <time>2023-08-08T12:58:01.000Z</time>
      </trkpt>
      <trkpt lat="45.45838" lon="6.21733">
        <ele>1847.1999511719</ele>
        <time>2023-08-08T12:58:09.000Z</time>
      </trkpt>
      <trkpt lat="45.45839" lon="6.21733">
        <ele>1847.4000244141</ele>
        <time>2023-08-08T12:58:18.000Z</time>
      </trkpt>
      <trkpt lat="45.45839" lon="6.21733">
        <ele>1847.4000244141</ele>
        <time>2023-08-08T12:58:25.000Z</time>
      </trkpt>
      <trkpt lat="45.45838" lon="6.21735">
        <ele>1847.1999511719</ele>
        <time>2023-08-08T12:58:31.000Z</time>
      </trkpt>
      <trkpt lat="45.45837" lon="6.21737">
        <ele>1847</ele>
        <time>2023-08-08T12:58:38.000Z</time>
      </trkpt>
      <trkpt lat="45.45838" lon="6.21737">
        <ele>1847</ele>
        <time>2023-08-08T12:58:46.000Z</time>
      </trkpt>
      <trkpt lat="45.45837" lon="6.21735">
        <ele>1846.8000488281</ele>
        <time>2023-08-08T12:58:52.000Z</time>
      </trkpt>
      <trkpt lat="45.45837" lon="6.21738">
        <ele>1846.5999755859</ele>
        <time>2023-08-08T12:59:02.000Z</time>
      </trkpt>
      <trkpt lat="45.45836" lon="6.21734">
        <ele>1846.5999755859</ele>
        <time>2023-08-08T12:59:10.000Z</time>
      </trkpt>
      <trkpt lat="45.45835" lon="6.21733">
        <ele>1846.4000244141</ele>
        <time>2023-08-08T12:59:20.000Z</time>
      </trkpt>
      <trkpt lat="45.45831" lon="6.21729">
        <ele>1846.8000488281</ele>
        <time>2023-08-08T12:59:25.000Z</time>
      </trkpt>
      <trkpt lat="45.45825" lon="6.21719">
        <ele>1847</ele>
        <time>2023-08-08T12:59:32.000Z</time>
      </trkpt>
      <trkpt lat="45.45819" lon="6.21713">
        <ele>1846.8000488281</ele>
        <time>2023-08-08T12:59:38.000Z</time>
      </trkpt>
      <trkpt lat="45.45813" lon="6.21708">
        <ele>1846.1999511719</ele>
        <time>2023-08-08T12:59:43.000Z</time>
      </trkpt>
      <trkpt lat="45.45812" lon="6.21707">
        <ele>1846.1999511719</ele>
        <time>2023-08-08T12:59:45.000Z</time>
      </trkpt>
      <trkpt lat="45.45809" lon="6.21698">
        <ele>1846</ele>
        <time>2023-08-08T12:59:51.000Z</time>
      </trkpt>
      <trkpt lat="45.45805" lon="6.21692">
        <ele>1846.8000488281</ele>
        <time>2023-08-08T12:59:58.000Z</time>
      </trkpt>
      <trkpt lat="45.45802" lon="6.2169">
        <ele>1847.4000244141</ele>
        <time>2023-08-08T13:00:01.000Z</time>
      </trkpt>
      <trkpt lat="45.458" lon="6.21687">
        <ele>1848.5999755859</ele>
        <time>2023-08-08T13:00:07.000Z</time>
      </trkpt>
      <trkpt lat="45.45797" lon="6.21685">
        <ele>1849.5999755859</ele>
        <time>2023-08-08T13:00:13.000Z</time>
      </trkpt>
      <trkpt lat="45.45796" lon="6.21683">
        <ele>1850</ele>
        <time>2023-08-08T13:00:15.000Z</time>
      </trkpt>
      <trkpt lat="45.45795" lon="6.2168">
        <ele>1850.8000488281</ele>
        <time>2023-08-08T13:00:20.000Z</time>
      </trkpt>
      <trkpt lat="45.45794" lon="6.21679">
        <ele>1851.5999755859</ele>
        <time>2023-08-08T13:00:24.000Z</time>
      </trkpt>
      <trkpt lat="45.45794" lon="6.21679">
        <ele>1852</ele>
        <time>2023-08-08T13:00:25.000Z</time>
      </trkpt>
      <trkpt lat="45.45792" lon="6.21675">
        <ele>1853</ele>
        <time>2023-08-08T13:00:31.000Z</time>
      </trkpt>
      <trkpt lat="45.4579" lon="6.21673">
        <ele>1854.1999511719</ele>
        <time>2023-08-08T13:00:37.000Z</time>
      </trkpt>
      <trkpt lat="45.45789" lon="6.21673">
        <ele>1854.4000244141</ele>
        <time>2023-08-08T13:00:38.000Z</time>
      </trkpt>
      <trkpt lat="45.45788" lon="6.21671">
        <ele>1855.4000244141</ele>
        <time>2023-08-08T13:00:42.000Z</time>
      </trkpt>
      <trkpt lat="45.45786" lon="6.21668">
        <ele>1855.8000488281</ele>
        <time>2023-08-08T13:00:45.000Z</time>
      </trkpt>
      <trkpt lat="45.45782" lon="6.21665">
        <ele>1856.4000244141</ele>
        <time>2023-08-08T13:00:50.000Z</time>
      </trkpt>
      <trkpt lat="45.4578" lon="6.21664">
        <ele>1857</ele>
        <time>2023-08-08T13:00:54.000Z</time>
      </trkpt>
      <trkpt lat="45.4578" lon="6.21663">
        <ele>1857.5999755859</ele>
        <time>2023-08-08T13:00:56.000Z</time>
      </trkpt>
      <trkpt lat="45.45778" lon="6.21661">
        <ele>1858.4000244141</ele>
        <time>2023-08-08T13:01:01.000Z</time>
      </trkpt>
      <trkpt lat="45.45778" lon="6.2166">
        <ele>1858.5999755859</ele>
        <time>2023-08-08T13:01:02.000Z</time>
      </trkpt>
      <trkpt lat="45.45775" lon="6.21656">
        <ele>1859.5999755859</ele>
        <time>2023-08-08T13:01:08.000Z</time>
      </trkpt>
      <trkpt lat="45.45775" lon="6.21655">
        <ele>1859.8000488281</ele>
        <time>2023-08-08T13:01:09.000Z</time>
      </trkpt>
      <trkpt lat="45.45773" lon="6.21653">
        <ele>1860.8000488281</ele>
        <time>2023-08-08T13:01:15.000Z</time>
      </trkpt>
      <trkpt lat="45.45772" lon="6.21653">
        <ele>1861</ele>
        <time>2023-08-08T13:01:16.000Z</time>
      </trkpt>
      <trkpt lat="45.45768" lon="6.2165">
        <ele>1862</ele>
        <time>2023-08-08T13:01:23.000Z</time>
      </trkpt>
      <trkpt lat="45.45765" lon="6.21646">
        <ele>1863.1999511719</ele>
        <time>2023-08-08T13:01:30.000Z</time>
      </trkpt>
      <trkpt lat="45.45763" lon="6.21645">
        <ele>1863.4000244141</ele>
        <time>2023-08-08T13:01:32.000Z</time>
      </trkpt>
      <trkpt lat="45.4576" lon="6.21643">
        <ele>1864.1999511719</ele>
        <time>2023-08-08T13:01:38.000Z</time>
      </trkpt>
      <trkpt lat="45.45758" lon="6.21642">
        <ele>1864.8000488281</ele>
        <time>2023-08-08T13:01:41.000Z</time>
      </trkpt>
      <trkpt lat="45.45756" lon="6.21639">
        <ele>1865.4000244141</ele>
        <time>2023-08-08T13:01:45.000Z</time>
      </trkpt>
      <trkpt lat="45.45755" lon="6.21639">
        <ele>1865.5999755859</ele>
        <time>2023-08-08T13:01:47.000Z</time>
      </trkpt>
      <trkpt lat="45.4575" lon="6.21637">
        <ele>1866.5999755859</ele>
        <time>2023-08-08T13:01:54.000Z</time>
      </trkpt>
      <trkpt lat="45.45746" lon="6.21627">
        <ele>1866.8000488281</ele>
        <time>2023-08-08T13:02:03.000Z</time>
      </trkpt>
      <trkpt lat="45.45745" lon="6.2162">
        <ele>1867.5999755859</ele>
        <time>2023-08-08T13:02:10.000Z</time>
      </trkpt>
      <trkpt lat="45.45745" lon="6.2162">
        <ele>1868</ele>
        <time>2023-08-08T13:02:11.000Z</time>
      </trkpt>
      <trkpt lat="45.45743" lon="6.21616">
        <ele>1868.5999755859</ele>
        <time>2023-08-08T13:02:15.000Z</time>
      </trkpt>
      <trkpt lat="45.45739" lon="6.21608">
        <ele>1869.4000244141</ele>
        <time>2023-08-08T13:02:21.000Z</time>
      </trkpt>
      <trkpt lat="45.45734" lon="6.21596">
        <ele>1868.1999511719</ele>
        <time>2023-08-08T13:02:29.000Z</time>
      </trkpt>
      <trkpt lat="45.45729" lon="6.2159">
        <ele>1869</ele>
        <time>2023-08-08T13:02:38.000Z</time>
      </trkpt>
      <trkpt lat="45.45727" lon="6.21587">
        <ele>1869.8000488281</ele>
        <time>2023-08-08T13:02:43.000Z</time>
      </trkpt>
      <trkpt lat="45.45725" lon="6.21585">
        <ele>1870.1999511719</ele>
        <time>2023-08-08T13:02:46.000Z</time>
      </trkpt>
      <trkpt lat="45.45722" lon="6.21582">
        <ele>1870.8000488281</ele>
        <time>2023-08-08T13:02:51.000Z</time>
      </trkpt>
      <trkpt lat="45.4572" lon="6.21579">
        <ele>1871.1999511719</ele>
        <time>2023-08-08T13:02:54.000Z</time>
      </trkpt>
      <trkpt lat="45.45718" lon="6.21575">
        <ele>1871.8000488281</ele>
        <time>2023-08-08T13:02:58.000Z</time>
      </trkpt>
      <trkpt lat="45.45712" lon="6.21568">
        <ele>1872.8000488281</ele>
        <time>2023-08-08T13:03:05.000Z</time>
      </trkpt>
      <trkpt lat="45.45711" lon="6.21567">
        <ele>1872.8000488281</ele>
        <time>2023-08-08T13:03:06.000Z</time>
      </trkpt>
      <trkpt lat="45.45705" lon="6.21559">
        <ele>1872.8000488281</ele>
        <time>2023-08-08T13:03:13.000Z</time>
      </trkpt>
      <trkpt lat="45.45707" lon="6.2156">
        <ele>1872.8000488281</ele>
        <time>2023-08-08T13:03:17.000Z</time>
      </trkpt>
      <trkpt lat="45.45708" lon="6.21562">
        <ele>1872.5999755859</ele>
        <time>2023-08-08T13:03:20.000Z</time>
      </trkpt>
      <trkpt lat="45.45707" lon="6.2156">
        <ele>1872.4000244141</ele>
        <time>2023-08-08T13:03:31.000Z</time>
      </trkpt>
      <trkpt lat="45.45698" lon="6.21548">
        <ele>1872.4000244141</ele>
        <time>2023-08-08T13:03:40.000Z</time>
      </trkpt>
      <trkpt lat="45.45689" lon="6.21541">
        <ele>1873.5999755859</ele>
        <time>2023-08-08T13:03:49.000Z</time>
      </trkpt>
      <trkpt lat="45.45687" lon="6.21538">
        <ele>1874</ele>
        <time>2023-08-08T13:03:52.000Z</time>
      </trkpt>
      <trkpt lat="45.45684" lon="6.21536">
        <ele>1874.1999511719</ele>
        <time>2023-08-08T13:03:56.000Z</time>
      </trkpt>
      <trkpt lat="45.45679" lon="6.21533">
        <ele>1875</ele>
        <time>2023-08-08T13:04:00.000Z</time>
      </trkpt>
      <trkpt lat="45.45675" lon="6.21531">
        <ele>1875.4000244141</ele>
        <time>2023-08-08T13:04:04.000Z</time>
      </trkpt>
      <trkpt lat="45.45669" lon="6.21525">
        <ele>1876</ele>
        <time>2023-08-08T13:04:10.000Z</time>
      </trkpt>
      <trkpt lat="45.45669" lon="6.21524">
        <ele>1876.1999511719</ele>
        <time>2023-08-08T13:04:12.000Z</time>
      </trkpt>
      <trkpt lat="45.4567" lon="6.21524">
        <ele>1876.4000244141</ele>
        <time>2023-08-08T13:04:14.000Z</time>
      </trkpt>
      <trkpt lat="45.4567" lon="6.2152">
        <ele>1876.4000244141</ele>
        <time>2023-08-08T13:04:16.000Z</time>
      </trkpt>
      <trkpt lat="45.4567" lon="6.21518">
        <ele>1876.4000244141</ele>
        <time>2023-08-08T13:04:18.000Z</time>
      </trkpt>
      <trkpt lat="45.4567" lon="6.21522">
        <ele>1876.1999511719</ele>
        <time>2023-08-08T13:04:26.000Z</time>
      </trkpt>
      <trkpt lat="45.4567" lon="6.21524">
        <ele>1876.1999511719</ele>
        <time>2023-08-08T13:04:36.000Z</time>
      </trkpt>
      <trkpt lat="45.45662" lon="6.21516">
        <ele>1876</ele>
        <time>2023-08-08T13:04:43.000Z</time>
      </trkpt>
      <trkpt lat="45.45655" lon="6.21509">
        <ele>1877.1999511719</ele>
        <time>2023-08-08T13:04:50.000Z</time>
      </trkpt>
      <trkpt lat="45.45652" lon="6.21506">
        <ele>1877.5999755859</ele>
        <time>2023-08-08T13:04:53.000Z</time>
      </trkpt>
      <trkpt lat="45.45644" lon="6.21498">
        <ele>1877.8000488281</ele>
        <time>2023-08-08T13:05:01.000Z</time>
      </trkpt>
      <trkpt lat="45.45642" lon="6.21496">
        <ele>1878.1999511719</ele>
        <time>2023-08-08T13:05:04.000Z</time>
      </trkpt>
      <trkpt lat="45.45639" lon="6.21493">
        <ele>1878.5999755859</ele>
        <time>2023-08-08T13:05:08.000Z</time>
      </trkpt>
      <trkpt lat="45.45635" lon="6.2149">
        <ele>1879.1999511719</ele>
        <time>2023-08-08T13:05:13.000Z</time>
      </trkpt>
      <trkpt lat="45.45632" lon="6.21487">
        <ele>1880.1999511719</ele>
        <time>2023-08-08T13:05:16.000Z</time>
      </trkpt>
      <trkpt lat="45.4563" lon="6.21486">
        <ele>1880.4000244141</ele>
        <time>2023-08-08T13:05:17.000Z</time>
      </trkpt>
      <trkpt lat="45.45623" lon="6.21478">
        <ele>1881.1999511719</ele>
        <time>2023-08-08T13:05:25.000Z</time>
      </trkpt>
      <trkpt lat="45.45622" lon="6.21478">
        <ele>1881.4000244141</ele>
        <time>2023-08-08T13:05:26.000Z</time>
      </trkpt>
      <trkpt lat="45.45618" lon="6.21474">
        <ele>1882.4000244141</ele>
        <time>2023-08-08T13:05:34.000Z</time>
      </trkpt>
      <trkpt lat="45.45611" lon="6.21467">
        <ele>1883.5999755859</ele>
        <time>2023-08-08T13:05:43.000Z</time>
      </trkpt>
      <trkpt lat="45.45606" lon="6.21462">
        <ele>1884</ele>
        <time>2023-08-08T13:05:49.000Z</time>
      </trkpt>
      <trkpt lat="45.45598" lon="6.21455">
        <ele>1884.1999511719</ele>
        <time>2023-08-08T13:05:57.000Z</time>
      </trkpt>
      <trkpt lat="45.4559" lon="6.2145">
        <ele>1884.5999755859</ele>
        <time>2023-08-08T13:06:04.000Z</time>
      </trkpt>
      <trkpt lat="45.45588" lon="6.21448">
        <ele>1884.5999755859</ele>
        <time>2023-08-08T13:06:06.000Z</time>
      </trkpt>
      <trkpt lat="45.45582" lon="6.21444">
        <ele>1885.1999511719</ele>
        <time>2023-08-08T13:06:12.000Z</time>
      </trkpt>
      <trkpt lat="45.45578" lon="6.2144">
        <ele>1885.5999755859</ele>
        <time>2023-08-08T13:06:18.000Z</time>
      </trkpt>
      <trkpt lat="45.45577" lon="6.21439">
        <ele>1885.8000488281</ele>
        <time>2023-08-08T13:06:19.000Z</time>
      </trkpt>
      <trkpt lat="45.45569" lon="6.21429">
        <ele>1886</ele>
        <time>2023-08-08T13:06:28.000Z</time>
      </trkpt>
      <trkpt lat="45.45562" lon="6.21423">
        <ele>1884.5999755859</ele>
        <time>2023-08-08T13:06:35.000Z</time>
      </trkpt>
      <trkpt lat="45.45561" lon="6.21423">
        <ele>1884.1999511719</ele>
        <time>2023-08-08T13:06:37.000Z</time>
      </trkpt>
      <trkpt lat="45.45556" lon="6.2142">
        <ele>1883.4000244141</ele>
        <time>2023-08-08T13:06:41.000Z</time>
      </trkpt>
      <trkpt lat="45.45553" lon="6.21418">
        <ele>1882.1999511719</ele>
        <time>2023-08-08T13:06:44.000Z</time>
      </trkpt>
      <trkpt lat="45.45552" lon="6.21417">
        <ele>1882</ele>
        <time>2023-08-08T13:06:45.000Z</time>
      </trkpt>
      <trkpt lat="45.45541" lon="6.2141">
        <ele>1882.1999511719</ele>
        <time>2023-08-08T13:06:54.000Z</time>
      </trkpt>
      <trkpt lat="45.45531" lon="6.21404">
        <ele>1882.8000488281</ele>
        <time>2023-08-08T13:07:03.000Z</time>
      </trkpt>
      <trkpt lat="45.45527" lon="6.21402">
        <ele>1883.1999511719</ele>
        <time>2023-08-08T13:07:07.000Z</time>
      </trkpt>
      <trkpt lat="45.45522" lon="6.214">
        <ele>1884.1999511719</ele>
        <time>2023-08-08T13:07:12.000Z</time>
      </trkpt>
      <trkpt lat="45.4552" lon="6.21399">
        <ele>1884.4000244141</ele>
        <time>2023-08-08T13:07:14.000Z</time>
      </trkpt>
      <trkpt lat="45.45516" lon="6.21398">
        <ele>1885</ele>
        <time>2023-08-08T13:07:17.000Z</time>
      </trkpt>
      <trkpt lat="45.45512" lon="6.21397">
        <ele>1885.5999755859</ele>
        <time>2023-08-08T13:07:21.000Z</time>
      </trkpt>
      <trkpt lat="45.45505" lon="6.21395">
        <ele>1886.5999755859</ele>
        <time>2023-08-08T13:07:27.000Z</time>
      </trkpt>
      <trkpt lat="45.45504" lon="6.21395">
        <ele>1886.5999755859</ele>
        <time>2023-08-08T13:07:28.000Z</time>
      </trkpt>
      <trkpt lat="45.45495" lon="6.21393">
        <ele>1886.8000488281</ele>
        <time>2023-08-08T13:07:36.000Z</time>
      </trkpt>
      <trkpt lat="45.45485" lon="6.21392">
        <ele>1886.8000488281</ele>
        <time>2023-08-08T13:07:45.000Z</time>
      </trkpt>
      <trkpt lat="45.45474" lon="6.21389">
        <ele>1886</ele>
        <time>2023-08-08T13:07:53.000Z</time>
      </trkpt>
      <trkpt lat="45.45463" lon="6.21385">
        <ele>1886.1999511719</ele>
        <time>2023-08-08T13:08:03.000Z</time>
      </trkpt>
      <trkpt lat="45.45451" lon="6.21381">
        <ele>1887.5999755859</ele>
        <time>2023-08-08T13:08:14.000Z</time>
      </trkpt>
      <trkpt lat="45.4545" lon="6.2138">
        <ele>1887.8000488281</ele>
        <time>2023-08-08T13:08:15.000Z</time>
      </trkpt>
      <trkpt lat="45.45447" lon="6.21379">
        <ele>1888.8000488281</ele>
        <time>2023-08-08T13:08:21.000Z</time>
      </trkpt>
      <trkpt lat="45.45443" lon="6.21377">
        <ele>1889.8000488281</ele>
        <time>2023-08-08T13:08:26.000Z</time>
      </trkpt>
      <trkpt lat="45.4544" lon="6.21377">
        <ele>1890.4000244141</ele>
        <time>2023-08-08T13:08:30.000Z</time>
      </trkpt>
      <trkpt lat="45.45438" lon="6.21377">
        <ele>1891</ele>
        <time>2023-08-08T13:08:33.000Z</time>
      </trkpt>
      <trkpt lat="45.45434" lon="6.21377">
        <ele>1891.5999755859</ele>
        <time>2023-08-08T13:08:37.000Z</time>
      </trkpt>
      <trkpt lat="45.45433" lon="6.21377">
        <ele>1892</ele>
        <time>2023-08-08T13:08:39.000Z</time>
      </trkpt>
      <trkpt lat="45.45429" lon="6.21378">
        <ele>1893.4000244141</ele>
        <time>2023-08-08T13:08:45.000Z</time>
      </trkpt>
      <trkpt lat="45.45424" lon="6.21377">
        <ele>1894.4000244141</ele>
        <time>2023-08-08T13:08:53.000Z</time>
      </trkpt>
      <trkpt lat="45.45421" lon="6.21378">
        <ele>1895.4000244141</ele>
        <time>2023-08-08T13:08:59.000Z</time>
      </trkpt>
      <trkpt lat="45.4542" lon="6.21378">
        <ele>1895.5999755859</ele>
        <time>2023-08-08T13:09:00.000Z</time>
      </trkpt>
      <trkpt lat="45.45415" lon="6.21378">
        <ele>1896.4000244141</ele>
        <time>2023-08-08T13:09:07.000Z</time>
      </trkpt>
      <trkpt lat="45.45412" lon="6.21376">
        <ele>1897.5999755859</ele>
        <time>2023-08-08T13:09:13.000Z</time>
      </trkpt>
      <trkpt lat="45.45411" lon="6.21375">
        <ele>1897.8000488281</ele>
        <time>2023-08-08T13:09:15.000Z</time>
      </trkpt>
      <trkpt lat="45.45408" lon="6.21373">
        <ele>1898.5999755859</ele>
        <time>2023-08-08T13:09:20.000Z</time>
      </trkpt>
      <trkpt lat="45.45404" lon="6.21373">
        <ele>1899.5999755859</ele>
        <time>2023-08-08T13:09:25.000Z</time>
      </trkpt>
      <trkpt lat="45.45403" lon="6.21372">
        <ele>1899.8000488281</ele>
        <time>2023-08-08T13:09:27.000Z</time>
      </trkpt>
      <trkpt lat="45.454" lon="6.2137">
        <ele>1900.8000488281</ele>
        <time>2023-08-08T13:09:32.000Z</time>
      </trkpt>
      <trkpt lat="45.45398" lon="6.21369">
        <ele>1901.1999511719</ele>
        <time>2023-08-08T13:09:35.000Z</time>
      </trkpt>
      <trkpt lat="45.45396" lon="6.21368">
        <ele>1902.1999511719</ele>
        <time>2023-08-08T13:09:38.000Z</time>
      </trkpt>
      <trkpt lat="45.45393" lon="6.21365">
        <ele>1902.8000488281</ele>
        <time>2023-08-08T13:09:45.000Z</time>
      </trkpt>
      <trkpt lat="45.4539" lon="6.21363">
        <ele>1903.1999511719</ele>
        <time>2023-08-08T13:09:48.000Z</time>
      </trkpt>
      <trkpt lat="45.45389" lon="6.21363">
        <ele>1904.1999511719</ele>
        <time>2023-08-08T13:09:53.000Z</time>
      </trkpt>
      <trkpt lat="45.45388" lon="6.21363">
        <ele>1904.1999511719</ele>
        <time>2023-08-08T13:09:54.000Z</time>
      </trkpt>
      <trkpt lat="45.45385" lon="6.21362">
        <ele>1905.1999511719</ele>
        <time>2023-08-08T13:09:59.000Z</time>
      </trkpt>
      <trkpt lat="45.45384" lon="6.21362">
        <ele>1905.4000244141</ele>
        <time>2023-08-08T13:10:00.000Z</time>
      </trkpt>
      <trkpt lat="45.45381" lon="6.21361">
        <ele>1906.1999511719</ele>
        <time>2023-08-08T13:10:07.000Z</time>
      </trkpt>
      <trkpt lat="45.4538" lon="6.21361">
        <ele>1906.5999755859</ele>
        <time>2023-08-08T13:10:08.000Z</time>
      </trkpt>
      <trkpt lat="45.45377" lon="6.21358">
        <ele>1907.8000488281</ele>
        <time>2023-08-08T13:10:15.000Z</time>
      </trkpt>
      <trkpt lat="45.45376" lon="6.21358">
        <ele>1907.8000488281</ele>
        <time>2023-08-08T13:10:16.000Z</time>
      </trkpt>
      <trkpt lat="45.45373" lon="6.21356">
        <ele>1909</ele>
        <time>2023-08-08T13:10:22.000Z</time>
      </trkpt>
      <trkpt lat="45.45372" lon="6.21356">
        <ele>1909.4000244141</ele>
        <time>2023-08-08T13:10:24.000Z</time>
      </trkpt>
      <trkpt lat="45.45371" lon="6.21355">
        <ele>1910</ele>
        <time>2023-08-08T13:10:26.000Z</time>
      </trkpt>
      <trkpt lat="45.45369" lon="6.21353">
        <ele>1910.5999755859</ele>
        <time>2023-08-08T13:10:31.000Z</time>
      </trkpt>
      <trkpt lat="45.45367" lon="6.21353">
        <ele>1911.1999511719</ele>
        <time>2023-08-08T13:10:34.000Z</time>
      </trkpt>
      <trkpt lat="45.45364" lon="6.21351">
        <ele>1912.1999511719</ele>
        <time>2023-08-08T13:10:40.000Z</time>
      </trkpt>
      <trkpt lat="45.45363" lon="6.21351">
        <ele>1912.4000244141</ele>
        <time>2023-08-08T13:10:41.000Z</time>
      </trkpt>
      <trkpt lat="45.45359" lon="6.21351">
        <ele>1913.4000244141</ele>
        <time>2023-08-08T13:10:48.000Z</time>
      </trkpt>
      <trkpt lat="45.45358" lon="6.21351">
        <ele>1913.8000488281</ele>
        <time>2023-08-08T13:10:50.000Z</time>
      </trkpt>
      <trkpt lat="45.45355" lon="6.21349">
        <ele>1914.4000244141</ele>
        <time>2023-08-08T13:10:55.000Z</time>
      </trkpt>
      <trkpt lat="45.45354" lon="6.21348">
        <ele>1915.1999511719</ele>
        <time>2023-08-08T13:10:58.000Z</time>
      </trkpt>
      <trkpt lat="45.45353" lon="6.21348">
        <ele>1915.5999755859</ele>
        <time>2023-08-08T13:11:00.000Z</time>
      </trkpt>
      <trkpt lat="45.4535" lon="6.21345">
        <ele>1916.5999755859</ele>
        <time>2023-08-08T13:11:06.000Z</time>
      </trkpt>
      <trkpt lat="45.45348" lon="6.21343">
        <ele>1917.8000488281</ele>
        <time>2023-08-08T13:11:12.000Z</time>
      </trkpt>
      <trkpt lat="45.45347" lon="6.21342">
        <ele>1918</ele>
        <time>2023-08-08T13:11:14.000Z</time>
      </trkpt>
      <trkpt lat="45.45344" lon="6.2134">
        <ele>1919</ele>
        <time>2023-08-08T13:11:19.000Z</time>
      </trkpt>
      <trkpt lat="45.45343" lon="6.21339">
        <ele>1919.4000244141</ele>
        <time>2023-08-08T13:11:21.000Z</time>
      </trkpt>
      <trkpt lat="45.45343" lon="6.21338">
        <ele>1920</ele>
        <time>2023-08-08T13:11:24.000Z</time>
      </trkpt>
      <trkpt lat="45.45341" lon="6.21336">
        <ele>1920.8000488281</ele>
        <time>2023-08-08T13:11:29.000Z</time>
      </trkpt>
      <trkpt lat="45.45341" lon="6.21335">
        <ele>1921.1999511719</ele>
        <time>2023-08-08T13:11:31.000Z</time>
      </trkpt>
      <trkpt lat="45.45337" lon="6.21333">
        <ele>1922.1999511719</ele>
        <time>2023-08-08T13:11:38.000Z</time>
      </trkpt>
      <trkpt lat="45.45336" lon="6.21334">
        <ele>1922.5999755859</ele>
        <time>2023-08-08T13:11:39.000Z</time>
      </trkpt>
      <trkpt lat="45.45334" lon="6.21335">
        <ele>1923.4000244141</ele>
        <time>2023-08-08T13:11:45.000Z</time>
      </trkpt>
      <trkpt lat="45.45332" lon="6.21335">
        <ele>1924</ele>
        <time>2023-08-08T13:11:48.000Z</time>
      </trkpt>
      <trkpt lat="45.45331" lon="6.21334">
        <ele>1924.4000244141</ele>
        <time>2023-08-08T13:11:50.000Z</time>
      </trkpt>
      <trkpt lat="45.45326" lon="6.21333">
        <ele>1925.4000244141</ele>
        <time>2023-08-08T13:11:57.000Z</time>
      </trkpt>
      <trkpt lat="45.45326" lon="6.21332">
        <ele>1925.5999755859</ele>
        <time>2023-08-08T13:11:58.000Z</time>
      </trkpt>
      <trkpt lat="45.45322" lon="6.21326">
        <ele>1926.8000488281</ele>
        <time>2023-08-08T13:12:06.000Z</time>
      </trkpt>
      <trkpt lat="45.45322" lon="6.21325">
        <ele>1927</ele>
        <time>2023-08-08T13:12:07.000Z</time>
      </trkpt>
      <trkpt lat="45.45321" lon="6.21321">
        <ele>1928</ele>
        <time>2023-08-08T13:12:12.000Z</time>
      </trkpt>
      <trkpt lat="45.45321" lon="6.21319">
        <ele>1928.1999511719</ele>
        <time>2023-08-08T13:12:14.000Z</time>
      </trkpt>
      <trkpt lat="45.45319" lon="6.2132">
        <ele>1929</ele>
        <time>2023-08-08T13:12:19.000Z</time>
      </trkpt>
      <trkpt lat="45.45317" lon="6.21323">
        <ele>1929.5999755859</ele>
        <time>2023-08-08T13:12:22.000Z</time>
      </trkpt>
      <trkpt lat="45.45314" lon="6.21328">
        <ele>1930.1999511719</ele>
        <time>2023-08-08T13:12:28.000Z</time>
      </trkpt>
      <trkpt lat="45.45314" lon="6.21329">
        <ele>1931</ele>
        <time>2023-08-08T13:12:32.000Z</time>
      </trkpt>
      <trkpt lat="45.45313" lon="6.2133">
        <ele>1931.4000244141</ele>
        <time>2023-08-08T13:12:34.000Z</time>
      </trkpt>
      <trkpt lat="45.45312" lon="6.21334">
        <ele>1932.4000244141</ele>
        <time>2023-08-08T13:12:40.000Z</time>
      </trkpt>
      <trkpt lat="45.45311" lon="6.21334">
        <ele>1932.5999755859</ele>
        <time>2023-08-08T13:12:41.000Z</time>
      </trkpt>
      <trkpt lat="45.45311" lon="6.21339">
        <ele>1933.5999755859</ele>
        <time>2023-08-08T13:12:47.000Z</time>
      </trkpt>
      <trkpt lat="45.45311" lon="6.2134">
        <ele>1933.8000488281</ele>
        <time>2023-08-08T13:12:48.000Z</time>
      </trkpt>
      <trkpt lat="45.45312" lon="6.21343">
        <ele>1934.8000488281</ele>
        <time>2023-08-08T13:12:53.000Z</time>
      </trkpt>
      <trkpt lat="45.45311" lon="6.21345">
        <ele>1935.1999511719</ele>
        <time>2023-08-08T13:12:55.000Z</time>
      </trkpt>
      <trkpt lat="45.4531" lon="6.21346">
        <ele>1936</ele>
        <time>2023-08-08T13:13:00.000Z</time>
      </trkpt>
      <trkpt lat="45.45308" lon="6.21347">
        <ele>1936.4000244141</ele>
        <time>2023-08-08T13:13:02.000Z</time>
      </trkpt>
      <trkpt lat="45.45304" lon="6.2135">
        <ele>1937</ele>
        <time>2023-08-08T13:13:06.000Z</time>
      </trkpt>
      <trkpt lat="45.45303" lon="6.2135">
        <ele>1937.5999755859</ele>
        <time>2023-08-08T13:13:09.000Z</time>
      </trkpt>
      <trkpt lat="45.45302" lon="6.2135">
        <ele>1938.1999511719</ele>
        <time>2023-08-08T13:13:11.000Z</time>
      </trkpt>
      <trkpt lat="45.453" lon="6.21346">
        <ele>1939.4000244141</ele>
        <time>2023-08-08T13:13:17.000Z</time>
      </trkpt>
      <trkpt lat="45.453" lon="6.21346">
        <ele>1939.4000244141</ele>
        <time>2023-08-08T13:13:18.000Z</time>
      </trkpt>
      <trkpt lat="45.45294" lon="6.21343">
        <ele>1940.8000488281</ele>
        <time>2023-08-08T13:13:27.000Z</time>
      </trkpt>
      <trkpt lat="45.45293" lon="6.21342">
        <ele>1940.8000488281</ele>
        <time>2023-08-08T13:13:28.000Z</time>
      </trkpt>
      <trkpt lat="45.4529" lon="6.21341">
        <ele>1941.8000488281</ele>
        <time>2023-08-08T13:13:36.000Z</time>
      </trkpt>
      <trkpt lat="45.45289" lon="6.21339">
        <ele>1943</ele>
        <time>2023-08-08T13:13:43.000Z</time>
      </trkpt>
      <trkpt lat="45.45285" lon="6.21337">
        <ele>1944</ele>
        <time>2023-08-08T13:13:50.000Z</time>
      </trkpt>
      <trkpt lat="45.45283" lon="6.21334">
        <ele>1944.5999755859</ele>
        <time>2023-08-08T13:13:54.000Z</time>
      </trkpt>
      <trkpt lat="45.45283" lon="6.21333">
        <ele>1945.1999511719</ele>
        <time>2023-08-08T13:13:58.000Z</time>
      </trkpt>
      <trkpt lat="45.45281" lon="6.2133">
        <ele>1946</ele>
        <time>2023-08-08T13:14:01.000Z</time>
      </trkpt>
      <trkpt lat="45.45281" lon="6.2133">
        <ele>1946.4000244141</ele>
        <time>2023-08-08T13:14:02.000Z</time>
      </trkpt>
      <trkpt lat="45.45276" lon="6.21327">
        <ele>1946.8000488281</ele>
        <time>2023-08-08T13:14:09.000Z</time>
      </trkpt>
      <trkpt lat="45.45274" lon="6.21327">
        <ele>1947.5999755859</ele>
        <time>2023-08-08T13:14:13.000Z</time>
      </trkpt>
      <trkpt lat="45.45271" lon="6.21324">
        <ele>1948</ele>
        <time>2023-08-08T13:14:18.000Z</time>
      </trkpt>
      <trkpt lat="45.45271" lon="6.21323">
        <ele>1948.5999755859</ele>
        <time>2023-08-08T13:14:21.000Z</time>
      </trkpt>
      <trkpt lat="45.45268" lon="6.21321">
        <ele>1949.5999755859</ele>
        <time>2023-08-08T13:14:27.000Z</time>
      </trkpt>
      <trkpt lat="45.45267" lon="6.21321">
        <ele>1949.5999755859</ele>
        <time>2023-08-08T13:14:29.000Z</time>
      </trkpt>
      <trkpt lat="45.45264" lon="6.21322">
        <ele>1950.4000244141</ele>
        <time>2023-08-08T13:14:34.000Z</time>
      </trkpt>
      <trkpt lat="45.45263" lon="6.21322">
        <ele>1950.8000488281</ele>
        <time>2023-08-08T13:14:36.000Z</time>
      </trkpt>
      <trkpt lat="45.45262" lon="6.21321">
        <ele>1952</ele>
        <time>2023-08-08T13:14:41.000Z</time>
      </trkpt>
      <trkpt lat="45.45261" lon="6.21321">
        <ele>1952</ele>
        <time>2023-08-08T13:14:43.000Z</time>
      </trkpt>
      <trkpt lat="45.45258" lon="6.21324">
        <ele>1953</ele>
        <time>2023-08-08T13:14:51.000Z</time>
      </trkpt>
      <trkpt lat="45.45257" lon="6.21323">
        <ele>1953.4000244141</ele>
        <time>2023-08-08T13:14:53.000Z</time>
      </trkpt>
      <trkpt lat="45.45256" lon="6.21323">
        <ele>1954.1999511719</ele>
        <time>2023-08-08T13:14:56.000Z</time>
      </trkpt>
      <trkpt lat="45.45254" lon="6.21322">
        <ele>1955</ele>
        <time>2023-08-08T13:15:01.000Z</time>
      </trkpt>
      <trkpt lat="45.45254" lon="6.21322">
        <ele>1955.1999511719</ele>
        <time>2023-08-08T13:15:02.000Z</time>
      </trkpt>
      <trkpt lat="45.4525" lon="6.21319">
        <ele>1956.1999511719</ele>
        <time>2023-08-08T13:15:08.000Z</time>
      </trkpt>
      <trkpt lat="45.45249" lon="6.21318">
        <ele>1956.4000244141</ele>
        <time>2023-08-08T13:15:09.000Z</time>
      </trkpt>
      <trkpt lat="45.45246" lon="6.21317">
        <ele>1956.8000488281</ele>
        <time>2023-08-08T13:15:13.000Z</time>
      </trkpt>
      <trkpt lat="45.45243" lon="6.21316">
        <ele>1957.5999755859</ele>
        <time>2023-08-08T13:15:16.000Z</time>
      </trkpt>
      <trkpt lat="45.45241" lon="6.21316">
        <ele>1958.4000244141</ele>
        <time>2023-08-08T13:15:19.000Z</time>
      </trkpt>
      <trkpt lat="45.45237" lon="6.21316">
        <ele>1958.8000488281</ele>
        <time>2023-08-08T13:15:23.000Z</time>
      </trkpt>
      <trkpt lat="45.45235" lon="6.21315">
        <ele>1959.4000244141</ele>
        <time>2023-08-08T13:15:26.000Z</time>
      </trkpt>
      <trkpt lat="45.45234" lon="6.21314">
        <ele>1959.8000488281</ele>
        <time>2023-08-08T13:15:28.000Z</time>
      </trkpt>
      <trkpt lat="45.45232" lon="6.2131">
        <ele>1960.4000244141</ele>
        <time>2023-08-08T13:15:33.000Z</time>
      </trkpt>
      <trkpt lat="45.4523" lon="6.21308">
        <ele>1961</ele>
        <time>2023-08-08T13:15:36.000Z</time>
      </trkpt>
      <trkpt lat="45.45228" lon="6.21307">
        <ele>1961.5999755859</ele>
        <time>2023-08-08T13:15:39.000Z</time>
      </trkpt>
      <trkpt lat="45.45227" lon="6.21305">
        <ele>1962.1999511719</ele>
        <time>2023-08-08T13:15:42.000Z</time>
      </trkpt>
      <trkpt lat="45.45224" lon="6.21303">
        <ele>1962.8000488281</ele>
        <time>2023-08-08T13:15:46.000Z</time>
      </trkpt>
      <trkpt lat="45.45221" lon="6.21301">
        <ele>1963.1999511719</ele>
        <time>2023-08-08T13:15:50.000Z</time>
      </trkpt>
      <trkpt lat="45.45218" lon="6.213">
        <ele>1963.5999755859</ele>
        <time>2023-08-08T13:15:53.000Z</time>
      </trkpt>
      <trkpt lat="45.45215" lon="6.21297">
        <ele>1964.1999511719</ele>
        <time>2023-08-08T13:15:57.000Z</time>
      </trkpt>
      <trkpt lat="45.45214" lon="6.21297">
        <ele>1964.5999755859</ele>
        <time>2023-08-08T13:15:59.000Z</time>
      </trkpt>
      <trkpt lat="45.45211" lon="6.21295">
        <ele>1965.1999511719</ele>
        <time>2023-08-08T13:16:03.000Z</time>
      </trkpt>
      <trkpt lat="45.45209" lon="6.21295">
        <ele>1965.1999511719</ele>
        <time>2023-08-08T13:16:06.000Z</time>
      </trkpt>
      <trkpt lat="45.45202" lon="6.2129">
        <ele>1966</ele>
        <time>2023-08-08T13:16:15.000Z</time>
      </trkpt>
      <trkpt lat="45.452" lon="6.21289">
        <ele>1966.4000244141</ele>
        <time>2023-08-08T13:16:18.000Z</time>
      </trkpt>
      <trkpt lat="45.45199" lon="6.21288">
        <ele>1966.5999755859</ele>
        <time>2023-08-08T13:16:20.000Z</time>
      </trkpt>
      <trkpt lat="45.45197" lon="6.2129">
        <ele>1967</ele>
        <time>2023-08-08T13:16:28.000Z</time>
      </trkpt>
      <trkpt lat="45.45196" lon="6.21291">
        <ele>1967.1999511719</ele>
        <time>2023-08-08T13:16:30.000Z</time>
      </trkpt>
      <trkpt lat="45.45197" lon="6.21286">
        <ele>1967.1999511719</ele>
        <time>2023-08-08T13:16:37.000Z</time>
      </trkpt>
      <trkpt lat="45.45199" lon="6.21287">
        <ele>1967.1999511719</ele>
        <time>2023-08-08T13:16:44.000Z</time>
      </trkpt>
      <trkpt lat="45.45197" lon="6.21288">
        <ele>1966.8000488281</ele>
        <time>2023-08-08T13:16:54.000Z</time>
      </trkpt>
      <trkpt lat="45.45194" lon="6.21287">
        <ele>1966.8000488281</ele>
        <time>2023-08-08T13:17:02.000Z</time>
      </trkpt>
      <trkpt lat="45.45193" lon="6.21286">
        <ele>1966.8000488281</ele>
        <time>2023-08-08T13:17:09.000Z</time>
      </trkpt>
      <trkpt lat="45.45193" lon="6.21288">
        <ele>1966.8000488281</ele>
        <time>2023-08-08T13:17:18.000Z</time>
      </trkpt>
      <trkpt lat="45.45195" lon="6.2129">
        <ele>1966.5999755859</ele>
        <time>2023-08-08T13:17:26.000Z</time>
      </trkpt>
      <trkpt lat="45.45192" lon="6.21291">
        <ele>1966.1999511719</ele>
        <time>2023-08-08T13:17:34.000Z</time>
      </trkpt>
      <trkpt lat="45.45183" lon="6.21292">
        <ele>1967</ele>
        <time>2023-08-08T13:17:43.000Z</time>
      </trkpt>
      <trkpt lat="45.45176" lon="6.21295">
        <ele>1967.1999511719</ele>
        <time>2023-08-08T13:17:51.000Z</time>
      </trkpt>
      <trkpt lat="45.45172" lon="6.21296">
        <ele>1967</ele>
        <time>2023-08-08T13:17:58.000Z</time>
      </trkpt>
      <trkpt lat="45.45171" lon="6.21297">
        <ele>1966.8000488281</ele>
        <time>2023-08-08T13:18:00.000Z</time>
      </trkpt>
      <trkpt lat="45.4517" lon="6.21297">
        <ele>1966.8000488281</ele>
        <time>2023-08-08T13:18:06.000Z</time>
      </trkpt>
      <trkpt lat="45.4517" lon="6.21298">
        <ele>1966.8000488281</ele>
        <time>2023-08-08T13:18:15.000Z</time>
      </trkpt>
      <trkpt lat="45.45171" lon="6.21298">
        <ele>1966.5999755859</ele>
        <time>2023-08-08T13:18:23.000Z</time>
      </trkpt>
      <trkpt lat="45.45162" lon="6.21304">
        <ele>1965.8000488281</ele>
        <time>2023-08-08T13:18:32.000Z</time>
      </trkpt>
      <trkpt lat="45.45157" lon="6.21305">
        <ele>1965.4000244141</ele>
        <time>2023-08-08T13:18:36.000Z</time>
      </trkpt>
      <trkpt lat="45.45154" lon="6.21307">
        <ele>1965.1999511719</ele>
        <time>2023-08-08T13:18:39.000Z</time>
      </trkpt>
      <trkpt lat="45.45148" lon="6.2131">
        <ele>1964.4000244141</ele>
        <time>2023-08-08T13:18:44.000Z</time>
      </trkpt>
      <trkpt lat="45.45144" lon="6.21311">
        <ele>1964.1999511719</ele>
        <time>2023-08-08T13:18:47.000Z</time>
      </trkpt>
      <trkpt lat="45.45135" lon="6.21316">
        <ele>1964.5999755859</ele>
        <time>2023-08-08T13:18:55.000Z</time>
      </trkpt>
      <trkpt lat="45.45125" lon="6.21319">
        <ele>1963.1999511719</ele>
        <time>2023-08-08T13:19:03.000Z</time>
      </trkpt>
      <trkpt lat="45.45116" lon="6.21323">
        <ele>1962.1999511719</ele>
        <time>2023-08-08T13:19:09.000Z</time>
      </trkpt>
      <trkpt lat="45.45114" lon="6.21323">
        <ele>1962</ele>
        <time>2023-08-08T13:19:11.000Z</time>
      </trkpt>
      <trkpt lat="45.45104" lon="6.21325">
        <ele>1961.8000488281</ele>
        <time>2023-08-08T13:19:19.000Z</time>
      </trkpt>
      <trkpt lat="45.45096" lon="6.21327">
        <ele>1961.4000244141</ele>
        <time>2023-08-08T13:19:26.000Z</time>
      </trkpt>
      <trkpt lat="45.45091" lon="6.21329">
        <ele>1961.1999511719</ele>
        <time>2023-08-08T13:19:30.000Z</time>
      </trkpt>
      <trkpt lat="45.45085" lon="6.21331">
        <ele>1960.5999755859</ele>
        <time>2023-08-08T13:19:34.000Z</time>
      </trkpt>
      <trkpt lat="45.45076" lon="6.21334">
        <ele>1961</ele>
        <time>2023-08-08T13:19:43.000Z</time>
      </trkpt>
      <trkpt lat="45.45067" lon="6.21339">
        <ele>1961</ele>
        <time>2023-08-08T13:19:50.000Z</time>
      </trkpt>
      <trkpt lat="45.45058" lon="6.21344">
        <ele>1961.8000488281</ele>
        <time>2023-08-08T13:19:58.000Z</time>
      </trkpt>
      <trkpt lat="45.45055" lon="6.21346">
        <ele>1962.1999511719</ele>
        <time>2023-08-08T13:20:00.000Z</time>
      </trkpt>
      <trkpt lat="45.45049" lon="6.21349">
        <ele>1962.4000244141</ele>
        <time>2023-08-08T13:20:07.000Z</time>
      </trkpt>
      <trkpt lat="45.45043" lon="6.21351">
        <ele>1963.4000244141</ele>
        <time>2023-08-08T13:20:13.000Z</time>
      </trkpt>
      <trkpt lat="45.45041" lon="6.21352">
        <ele>1963.5999755859</ele>
        <time>2023-08-08T13:20:15.000Z</time>
      </trkpt>
      <trkpt lat="45.45035" lon="6.21355">
        <ele>1964.4000244141</ele>
        <time>2023-08-08T13:20:21.000Z</time>
      </trkpt>
      <trkpt lat="45.45031" lon="6.21356">
        <ele>1965.1999511719</ele>
        <time>2023-08-08T13:20:25.000Z</time>
      </trkpt>
      <trkpt lat="45.45022" lon="6.21356">
        <ele>1964.5999755859</ele>
        <time>2023-08-08T13:20:33.000Z</time>
      </trkpt>
      <trkpt lat="45.45012" lon="6.21356">
        <ele>1964.5999755859</ele>
        <time>2023-08-08T13:20:41.000Z</time>
      </trkpt>
      <trkpt lat="45.45006" lon="6.21361">
        <ele>1965</ele>
        <time>2023-08-08T13:20:48.000Z</time>
      </trkpt>
      <trkpt lat="45.45" lon="6.21365">
        <ele>1965.5999755859</ele>
        <time>2023-08-08T13:20:54.000Z</time>
      </trkpt>
      <trkpt lat="45.44996" lon="6.21368">
        <ele>1966.4000244141</ele>
        <time>2023-08-08T13:20:57.000Z</time>
      </trkpt>
      <trkpt lat="45.44995" lon="6.21369">
        <ele>1966.5999755859</ele>
        <time>2023-08-08T13:20:58.000Z</time>
      </trkpt>
      <trkpt lat="45.44987" lon="6.21377">
        <ele>1966.5999755859</ele>
        <time>2023-08-08T13:21:06.000Z</time>
      </trkpt>
      <trkpt lat="45.4498" lon="6.21382">
        <ele>1965.5999755859</ele>
        <time>2023-08-08T13:21:11.000Z</time>
      </trkpt>
      <trkpt lat="45.44978" lon="6.21384">
        <ele>1965.4000244141</ele>
        <time>2023-08-08T13:21:13.000Z</time>
      </trkpt>
      <trkpt lat="45.44971" lon="6.21386">
        <ele>1964.5999755859</ele>
        <time>2023-08-08T13:21:19.000Z</time>
      </trkpt>
      <trkpt lat="45.4497" lon="6.21387">
        <ele>1964.4000244141</ele>
        <time>2023-08-08T13:21:20.000Z</time>
      </trkpt>
      <trkpt lat="45.44964" lon="6.21393">
        <ele>1963.4000244141</ele>
        <time>2023-08-08T13:21:27.000Z</time>
      </trkpt>
      <trkpt lat="45.44962" lon="6.21395">
        <ele>1962.4000244141</ele>
        <time>2023-08-08T13:21:29.000Z</time>
      </trkpt>
      <trkpt lat="45.44959" lon="6.21399">
        <ele>1961.1999511719</ele>
        <time>2023-08-08T13:21:32.000Z</time>
      </trkpt>
      <trkpt lat="45.44956" lon="6.21404">
        <ele>1960</ele>
        <time>2023-08-08T13:21:36.000Z</time>
      </trkpt>
      <trkpt lat="45.44954" lon="6.21407">
        <ele>1959.5999755859</ele>
        <time>2023-08-08T13:21:38.000Z</time>
      </trkpt>
      <trkpt lat="45.44947" lon="6.21412">
        <ele>1960.4000244141</ele>
        <time>2023-08-08T13:21:45.000Z</time>
      </trkpt>
      <trkpt lat="45.44945" lon="6.21413">
        <ele>1961.4000244141</ele>
        <time>2023-08-08T13:21:47.000Z</time>
      </trkpt>
      <trkpt lat="45.44938" lon="6.21415">
        <ele>1962.4000244141</ele>
        <time>2023-08-08T13:21:53.000Z</time>
      </trkpt>
      <trkpt lat="45.44937" lon="6.21416">
        <ele>1962.4000244141</ele>
        <time>2023-08-08T13:21:54.000Z</time>
      </trkpt>
      <trkpt lat="45.44933" lon="6.21419">
        <ele>1963.8000488281</ele>
        <time>2023-08-08T13:21:59.000Z</time>
      </trkpt>
      <trkpt lat="45.44928" lon="6.2142">
        <ele>1964.1999511719</ele>
        <time>2023-08-08T13:22:03.000Z</time>
      </trkpt>
      <trkpt lat="45.44919" lon="6.21423">
        <ele>1964.5999755859</ele>
        <time>2023-08-08T13:22:10.000Z</time>
      </trkpt>
      <trkpt lat="45.44911" lon="6.21426">
        <ele>1964.4000244141</ele>
        <time>2023-08-08T13:22:18.000Z</time>
      </trkpt>
      <trkpt lat="45.44906" lon="6.21427">
        <ele>1965.1999511719</ele>
        <time>2023-08-08T13:22:22.000Z</time>
      </trkpt>
      <trkpt lat="45.44902" lon="6.21427">
        <ele>1965.5999755859</ele>
        <time>2023-08-08T13:22:25.000Z</time>
      </trkpt>
      <trkpt lat="45.449" lon="6.21427">
        <ele>1966.1999511719</ele>
        <time>2023-08-08T13:22:28.000Z</time>
      </trkpt>
      <trkpt lat="45.44895" lon="6.21429">
        <ele>1967.1999511719</ele>
        <time>2023-08-08T13:22:32.000Z</time>
      </trkpt>
      <trkpt lat="45.44894" lon="6.2143">
        <ele>1967.4000244141</ele>
        <time>2023-08-08T13:22:33.000Z</time>
      </trkpt>
      <trkpt lat="45.44889" lon="6.21431">
        <ele>1968.4000244141</ele>
        <time>2023-08-08T13:22:39.000Z</time>
      </trkpt>
      <trkpt lat="45.44886" lon="6.2143">
        <ele>1969</ele>
        <time>2023-08-08T13:22:42.000Z</time>
      </trkpt>
      <trkpt lat="45.44881" lon="6.2143">
        <ele>1969.8000488281</ele>
        <time>2023-08-08T13:22:47.000Z</time>
      </trkpt>
      <trkpt lat="45.44879" lon="6.21433">
        <ele>1970.4000244141</ele>
        <time>2023-08-08T13:22:52.000Z</time>
      </trkpt>
      <trkpt lat="45.44874" lon="6.21438">
        <ele>1971</ele>
        <time>2023-08-08T13:23:00.000Z</time>
      </trkpt>
      <trkpt lat="45.44872" lon="6.21439">
        <ele>1971.1999511719</ele>
        <time>2023-08-08T13:23:02.000Z</time>
      </trkpt>
      <trkpt lat="45.4487" lon="6.21442">
        <ele>1972.4000244141</ele>
        <time>2023-08-08T13:23:09.000Z</time>
      </trkpt>
      <trkpt lat="45.44868" lon="6.21443">
        <ele>1972.4000244141</ele>
        <time>2023-08-08T13:23:12.000Z</time>
      </trkpt>
      <trkpt lat="45.44863" lon="6.21447">
        <ele>1972.8000488281</ele>
        <time>2023-08-08T13:23:20.000Z</time>
      </trkpt>
      <trkpt lat="45.44861" lon="6.21448">
        <ele>1973.8000488281</ele>
        <time>2023-08-08T13:23:23.000Z</time>
      </trkpt>
      <trkpt lat="45.44858" lon="6.21449">
        <ele>1974.4000244141</ele>
        <time>2023-08-08T13:23:26.000Z</time>
      </trkpt>
      <trkpt lat="45.44854" lon="6.21451">
        <ele>1974.8000488281</ele>
        <time>2023-08-08T13:23:30.000Z</time>
      </trkpt>
      <trkpt lat="45.44849" lon="6.21452">
        <ele>1975.4000244141</ele>
        <time>2023-08-08T13:23:34.000Z</time>
      </trkpt>
      <trkpt lat="45.44842" lon="6.21453">
        <ele>1975.8000488281</ele>
        <time>2023-08-08T13:23:41.000Z</time>
      </trkpt>
      <trkpt lat="45.44841" lon="6.21454">
        <ele>1976</ele>
        <time>2023-08-08T13:23:42.000Z</time>
      </trkpt>
      <trkpt lat="45.44832" lon="6.21457">
        <ele>1976</ele>
        <time>2023-08-08T13:23:51.000Z</time>
      </trkpt>
      <trkpt lat="45.4482" lon="6.21463">
        <ele>1975.8000488281</ele>
        <time>2023-08-08T13:24:00.000Z</time>
      </trkpt>
      <trkpt lat="45.44811" lon="6.21468">
        <ele>1976.1999511719</ele>
        <time>2023-08-08T13:24:09.000Z</time>
      </trkpt>
      <trkpt lat="45.44801" lon="6.21474">
        <ele>1976.8000488281</ele>
        <time>2023-08-08T13:24:17.000Z</time>
      </trkpt>
      <trkpt lat="45.44794" lon="6.21476">
        <ele>1977</ele>
        <time>2023-08-08T13:24:23.000Z</time>
      </trkpt>
      <trkpt lat="45.4479" lon="6.21475">
        <ele>1977.1999511719</ele>
        <time>2023-08-08T13:24:26.000Z</time>
      </trkpt>
      <trkpt lat="45.4478" lon="6.21477">
        <ele>1977.8000488281</ele>
        <time>2023-08-08T13:24:35.000Z</time>
      </trkpt>
      <trkpt lat="45.44771" lon="6.21476">
        <ele>1977</ele>
        <time>2023-08-08T13:24:42.000Z</time>
      </trkpt>
      <trkpt lat="45.44759" lon="6.21475">
        <ele>1976.8000488281</ele>
        <time>2023-08-08T13:24:51.000Z</time>
      </trkpt>
      <trkpt lat="45.44746" lon="6.21476">
        <ele>1977.1999511719</ele>
        <time>2023-08-08T13:25:02.000Z</time>
      </trkpt>
      <trkpt lat="45.44734" lon="6.21474">
        <ele>1976.1999511719</ele>
        <time>2023-08-08T13:25:12.000Z</time>
      </trkpt>
      <trkpt lat="45.44731" lon="6.21471">
        <ele>1976</ele>
        <time>2023-08-08T13:25:14.000Z</time>
      </trkpt>
      <trkpt lat="45.44724" lon="6.21465">
        <ele>1974.8000488281</ele>
        <time>2023-08-08T13:25:19.000Z</time>
      </trkpt>
      <trkpt lat="45.44718" lon="6.21465">
        <ele>1973.8000488281</ele>
        <time>2023-08-08T13:25:25.000Z</time>
      </trkpt>
      <trkpt lat="45.44716" lon="6.21464">
        <ele>1973.5999755859</ele>
        <time>2023-08-08T13:25:27.000Z</time>
      </trkpt>
      <trkpt lat="45.44707" lon="6.21462">
        <ele>1973.8000488281</ele>
        <time>2023-08-08T13:25:36.000Z</time>
      </trkpt>
      <trkpt lat="45.44699" lon="6.21462">
        <ele>1975</ele>
        <time>2023-08-08T13:25:44.000Z</time>
      </trkpt>
      <trkpt lat="45.44696" lon="6.21461">
        <ele>1975.5999755859</ele>
        <time>2023-08-08T13:25:52.000Z</time>
      </trkpt>
      <trkpt lat="45.44696" lon="6.21461">
        <ele>1976</ele>
        <time>2023-08-08T13:25:55.000Z</time>
      </trkpt>
      <trkpt lat="45.44693" lon="6.21462">
        <ele>1976.8000488281</ele>
        <time>2023-08-08T13:25:59.000Z</time>
      </trkpt>
      <trkpt lat="45.44691" lon="6.21463">
        <ele>1977</ele>
        <time>2023-08-08T13:26:01.000Z</time>
      </trkpt>
      <trkpt lat="45.44686" lon="6.21464">
        <ele>1978.1999511719</ele>
        <time>2023-08-08T13:26:05.000Z</time>
      </trkpt>
      <trkpt lat="45.44685" lon="6.21464">
        <ele>1978.1999511719</ele>
        <time>2023-08-08T13:26:06.000Z</time>
      </trkpt>
      <trkpt lat="45.44675" lon="6.21465">
        <ele>1978.4000244141</ele>
        <time>2023-08-08T13:26:15.000Z</time>
      </trkpt>
      <trkpt lat="45.44666" lon="6.21466">
        <ele>1979.1999511719</ele>
        <time>2023-08-08T13:26:23.000Z</time>
      </trkpt>
      <trkpt lat="45.44661" lon="6.21464">
        <ele>1980.4000244141</ele>
        <time>2023-08-08T13:26:28.000Z</time>
      </trkpt>
      <trkpt lat="45.44658" lon="6.21463">
        <ele>1981</ele>
        <time>2023-08-08T13:26:31.000Z</time>
      </trkpt>
      <trkpt lat="45.44654" lon="6.21464">
        <ele>1981.8000488281</ele>
        <time>2023-08-08T13:26:34.000Z</time>
      </trkpt>
      <trkpt lat="45.44649" lon="6.21465">
        <ele>1982.1999511719</ele>
        <time>2023-08-08T13:26:38.000Z</time>
      </trkpt>
      <trkpt lat="45.44645" lon="6.21466">
        <ele>1983</ele>
        <time>2023-08-08T13:26:42.000Z</time>
      </trkpt>
      <trkpt lat="45.44642" lon="6.21466">
        <ele>1983.5999755859</ele>
        <time>2023-08-08T13:26:46.000Z</time>
      </trkpt>
      <trkpt lat="45.44637" lon="6.21467">
        <ele>1983.4000244141</ele>
        <time>2023-08-08T13:26:56.000Z</time>
      </trkpt>
      <trkpt lat="45.44637" lon="6.21467">
        <ele>1983</ele>
        <time>2023-08-08T13:27:05.000Z</time>
      </trkpt>
      <trkpt lat="45.44635" lon="6.21464">
        <ele>1983.1999511719</ele>
        <time>2023-08-08T13:27:11.000Z</time>
      </trkpt>
      <trkpt lat="45.44633" lon="6.21465">
        <ele>1983.5999755859</ele>
        <time>2023-08-08T13:27:20.000Z</time>
      </trkpt>
      <trkpt lat="45.44634" lon="6.21466">
        <ele>1984</ele>
        <time>2023-08-08T13:27:31.000Z</time>
      </trkpt>
      <trkpt lat="45.44635" lon="6.21464">
        <ele>1983.8000488281</ele>
        <time>2023-08-08T13:27:38.000Z</time>
      </trkpt>
      <trkpt lat="45.44636" lon="6.21465">
        <ele>1983.1999511719</ele>
        <time>2023-08-08T13:27:45.000Z</time>
      </trkpt>
      <trkpt lat="45.44634" lon="6.21464">
        <ele>1984</ele>
        <time>2023-08-08T13:27:52.000Z</time>
      </trkpt>
      <trkpt lat="45.44633" lon="6.21465">
        <ele>1984</ele>
        <time>2023-08-08T13:27:58.000Z</time>
      </trkpt>
      <trkpt lat="45.44633" lon="6.21466">
        <ele>1984.1999511719</ele>
        <time>2023-08-08T13:28:01.000Z</time>
      </trkpt>
      <trkpt lat="45.44633" lon="6.21466">
        <ele>1983.8000488281</ele>
        <time>2023-08-08T13:28:09.000Z</time>
      </trkpt>
      <trkpt lat="45.44632" lon="6.21466">
        <ele>1984</ele>
        <time>2023-08-08T13:28:17.000Z</time>
      </trkpt>
      <trkpt lat="45.4463" lon="6.2147">
        <ele>1983</ele>
        <time>2023-08-08T13:28:24.000Z</time>
      </trkpt>
      <trkpt lat="45.44629" lon="6.2147">
        <ele>1983</ele>
        <time>2023-08-08T13:28:25.000Z</time>
      </trkpt>
      <trkpt lat="45.44623" lon="6.21472">
        <ele>1982.4000244141</ele>
        <time>2023-08-08T13:28:32.000Z</time>
      </trkpt>
      <trkpt lat="45.44622" lon="6.21473">
        <ele>1982</ele>
        <time>2023-08-08T13:28:34.000Z</time>
      </trkpt>
      <trkpt lat="45.44615" lon="6.21481">
        <ele>1980.8000488281</ele>
        <time>2023-08-08T13:28:42.000Z</time>
      </trkpt>
      <trkpt lat="45.44614" lon="6.21482">
        <ele>1980.4000244141</ele>
        <time>2023-08-08T13:28:43.000Z</time>
      </trkpt>
      <trkpt lat="45.44612" lon="6.21484">
        <ele>1979.5999755859</ele>
        <time>2023-08-08T13:28:47.000Z</time>
      </trkpt>
      <trkpt lat="45.44611" lon="6.21485">
        <ele>1979.4000244141</ele>
        <time>2023-08-08T13:28:50.000Z</time>
      </trkpt>
      <trkpt lat="45.44606" lon="6.21489">
        <ele>1977.1999511719</ele>
        <time>2023-08-08T13:29:07.000Z</time>
      </trkpt>
      <trkpt lat="45.44606" lon="6.2149">
        <ele>1977.1999511719</ele>
        <time>2023-08-08T13:29:10.000Z</time>
      </trkpt>
      <trkpt lat="45.44607" lon="6.21488">
        <ele>1977.1999511719</ele>
        <time>2023-08-08T13:29:12.000Z</time>
      </trkpt>
      <trkpt lat="45.44605" lon="6.21487">
        <ele>1977.1999511719</ele>
        <time>2023-08-08T13:29:20.000Z</time>
      </trkpt>
      <trkpt lat="45.44603" lon="6.21491">
        <ele>1976.8000488281</ele>
        <time>2023-08-08T13:29:29.000Z</time>
      </trkpt>
      <trkpt lat="45.446" lon="6.21496">
        <ele>1976.4000244141</ele>
        <time>2023-08-08T13:29:32.000Z</time>
      </trkpt>
      <trkpt lat="45.44598" lon="6.21499">
        <ele>1975.4000244141</ele>
        <time>2023-08-08T13:29:35.000Z</time>
      </trkpt>
      <trkpt lat="45.44598" lon="6.21499">
        <ele>1975.1999511719</ele>
        <time>2023-08-08T13:29:36.000Z</time>
      </trkpt>
      <trkpt lat="45.44595" lon="6.21501">
        <ele>1974</ele>
        <time>2023-08-08T13:29:40.000Z</time>
      </trkpt>
      <trkpt lat="45.44583" lon="6.21512">
        <ele>1971.5999755859</ele>
        <time>2023-08-08T13:29:52.000Z</time>
      </trkpt>
      <trkpt lat="45.44583" lon="6.21511">
        <ele>1971.4000244141</ele>
        <time>2023-08-08T13:29:53.000Z</time>
      </trkpt>
      <trkpt lat="45.44579" lon="6.21518">
        <ele>1970.5999755859</ele>
        <time>2023-08-08T13:29:56.000Z</time>
      </trkpt>
      <trkpt lat="45.44576" lon="6.21523">
        <ele>1969.5999755859</ele>
        <time>2023-08-08T13:30:01.000Z</time>
      </trkpt>
      <trkpt lat="45.44575" lon="6.21524">
        <ele>1969.1999511719</ele>
        <time>2023-08-08T13:30:02.000Z</time>
      </trkpt>
      <trkpt lat="45.44573" lon="6.21526">
        <ele>1968.1999511719</ele>
        <time>2023-08-08T13:30:06.000Z</time>
      </trkpt>
      <trkpt lat="45.4457" lon="6.2153">
        <ele>1967.4000244141</ele>
        <time>2023-08-08T13:30:10.000Z</time>
      </trkpt>
      <trkpt lat="45.44569" lon="6.21531">
        <ele>1967.1999511719</ele>
        <time>2023-08-08T13:30:11.000Z</time>
      </trkpt>
      <trkpt lat="45.44569" lon="6.21533">
        <ele>1966</ele>
        <time>2023-08-08T13:30:15.000Z</time>
      </trkpt>
      <trkpt lat="45.44568" lon="6.21534">
        <ele>1965.4000244141</ele>
        <time>2023-08-08T13:30:18.000Z</time>
      </trkpt>
      <trkpt lat="45.44566" lon="6.21534">
        <ele>1964.8000488281</ele>
        <time>2023-08-08T13:30:21.000Z</time>
      </trkpt>
      <trkpt lat="45.44565" lon="6.21534">
        <ele>1964.5999755859</ele>
        <time>2023-08-08T13:30:22.000Z</time>
      </trkpt>
      <trkpt lat="45.44563" lon="6.21539">
        <ele>1963</ele>
        <time>2023-08-08T13:30:27.000Z</time>
      </trkpt>
      <trkpt lat="45.44561" lon="6.21541">
        <ele>1962.4000244141</ele>
        <time>2023-08-08T13:30:29.000Z</time>
      </trkpt>
      <trkpt lat="45.44556" lon="6.21546">
        <ele>1961.1999511719</ele>
        <time>2023-08-08T13:30:34.000Z</time>
      </trkpt>
      <trkpt lat="45.44551" lon="6.2155">
        <ele>1960</ele>
        <time>2023-08-08T13:30:40.000Z</time>
      </trkpt>
      <trkpt lat="45.4455" lon="6.21554">
        <ele>1959</ele>
        <time>2023-08-08T13:30:44.000Z</time>
      </trkpt>
      <trkpt lat="45.44548" lon="6.21555">
        <ele>1958</ele>
        <time>2023-08-08T13:30:47.000Z</time>
      </trkpt>
      <trkpt lat="45.44547" lon="6.21556">
        <ele>1957.5999755859</ele>
        <time>2023-08-08T13:30:48.000Z</time>
      </trkpt>
      <trkpt lat="45.44539" lon="6.21562">
        <ele>1955.1999511719</ele>
        <time>2023-08-08T13:30:57.000Z</time>
      </trkpt>
      <trkpt lat="45.44539" lon="6.21564">
        <ele>1954</ele>
        <time>2023-08-08T13:31:01.000Z</time>
      </trkpt>
      <trkpt lat="45.44534" lon="6.21568">
        <ele>1953</ele>
        <time>2023-08-08T13:31:06.000Z</time>
      </trkpt>
      <trkpt lat="45.44522" lon="6.21579">
        <ele>1949.4000244141</ele>
        <time>2023-08-08T13:31:21.000Z</time>
      </trkpt>
      <trkpt lat="45.44517" lon="6.21586">
        <ele>1946.1999511719</ele>
        <time>2023-08-08T13:31:34.000Z</time>
      </trkpt>
      <trkpt lat="45.44514" lon="6.21588">
        <ele>1945.1999511719</ele>
        <time>2023-08-08T13:31:38.000Z</time>
      </trkpt>
      <trkpt lat="45.44512" lon="6.2159">
        <ele>1944</ele>
        <time>2023-08-08T13:31:41.000Z</time>
      </trkpt>
      <trkpt lat="45.44499" lon="6.216">
        <ele>1940.8000488281</ele>
        <time>2023-08-08T13:31:55.000Z</time>
      </trkpt>
      <trkpt lat="45.44497" lon="6.21602">
        <ele>1940.4000244141</ele>
        <time>2023-08-08T13:31:56.000Z</time>
      </trkpt>
      <trkpt lat="45.4448" lon="6.21618">
        <ele>1934.5999755859</ele>
        <time>2023-08-08T13:32:23.000Z</time>
      </trkpt>
      <trkpt lat="45.44479" lon="6.21615">
        <ele>1932.8000488281</ele>
        <time>2023-08-08T13:32:31.000Z</time>
      </trkpt>
      <trkpt lat="45.44479" lon="6.21615">
        <ele>1932.4000244141</ele>
        <time>2023-08-08T13:32:33.000Z</time>
      </trkpt>
      <trkpt lat="45.44478" lon="6.21615">
        <ele>1932.1999511719</ele>
        <time>2023-08-08T13:32:34.000Z</time>
      </trkpt>
      <trkpt lat="45.44478" lon="6.21614">
        <ele>1931.4000244141</ele>
        <time>2023-08-08T13:32:37.000Z</time>
      </trkpt>
      <trkpt lat="45.44468" lon="6.21623">
        <ele>1927.5999755859</ele>
        <time>2023-08-08T13:32:51.000Z</time>
      </trkpt>
      <trkpt lat="45.44467" lon="6.21624">
        <ele>1927.4000244141</ele>
        <time>2023-08-08T13:32:52.000Z</time>
      </trkpt>
      <trkpt lat="45.44461" lon="6.21629">
        <ele>1926.5999755859</ele>
        <time>2023-08-08T13:32:57.000Z</time>
      </trkpt>
      <trkpt lat="45.44444" lon="6.21643">
        <ele>1922.8000488281</ele>
        <time>2023-08-08T13:33:17.000Z</time>
      </trkpt>
      <trkpt lat="45.44443" lon="6.21645">
        <ele>1922.1999511719</ele>
        <time>2023-08-08T13:33:19.000Z</time>
      </trkpt>
      <trkpt lat="45.44438" lon="6.2165">
        <ele>1921.1999511719</ele>
        <time>2023-08-08T13:33:25.000Z</time>
      </trkpt>
      <trkpt lat="45.44389" lon="6.21669">
        <ele>1913</ele>
        <time>2023-08-08T13:34:13.000Z</time>
      </trkpt>
      <trkpt lat="45.44249" lon="6.217">
        <ele>1908.1999511719</ele>
        <time>2023-08-08T13:36:26.000Z</time>
      </trkpt>
      <trkpt lat="45.44247" lon="6.21699">
        <ele>1908.1999511719</ele>
        <time>2023-08-08T13:36:27.000Z</time>
      </trkpt>
      <trkpt lat="45.44244" lon="6.21698">
        <ele>1907.8000488281</ele>
        <time>2023-08-08T13:36:30.000Z</time>
      </trkpt>
      <trkpt lat="45.44208" lon="6.21696">
        <ele>1905.8000488281</ele>
        <time>2023-08-08T13:37:07.000Z</time>
      </trkpt>
      <trkpt lat="45.44199" lon="6.21694">
        <ele>1904.4000244141</ele>
        <time>2023-08-08T13:37:17.000Z</time>
      </trkpt>
      <trkpt lat="45.44159" lon="6.21699">
        <ele>1902.8000488281</ele>
        <time>2023-08-08T13:37:49.000Z</time>
      </trkpt>
      <trkpt lat="45.44159" lon="6.21698">
        <ele>1903</ele>
        <time>2023-08-08T13:37:50.000Z</time>
      </trkpt>
      <trkpt lat="45.44153" lon="6.21695">
        <ele>1903.1999511719</ele>
        <time>2023-08-08T13:37:58.000Z</time>
      </trkpt>
      <trkpt lat="45.4408" lon="6.21722">
        <ele>1889</ele>
        <time>2023-08-08T13:39:13.000Z</time>
      </trkpt>
      <trkpt lat="45.44076" lon="6.21728">
        <ele>1888.5999755859</ele>
        <time>2023-08-08T13:39:16.000Z</time>
      </trkpt>
      <trkpt lat="45.44073" lon="6.21733">
        <ele>1887.8000488281</ele>
        <time>2023-08-08T13:39:21.000Z</time>
      </trkpt>
      <trkpt lat="45.44071" lon="6.21736">
        <ele>1887.5999755859</ele>
        <time>2023-08-08T13:39:24.000Z</time>
      </trkpt>
      <trkpt lat="45.44068" lon="6.2174">
        <ele>1886.8000488281</ele>
        <time>2023-08-08T13:39:28.000Z</time>
      </trkpt>
      <trkpt lat="45.44066" lon="6.21742">
        <ele>1886.4000244141</ele>
        <time>2023-08-08T13:39:31.000Z</time>
      </trkpt>
      <trkpt lat="45.44056" lon="6.21758">
        <ele>1884.4000244141</ele>
        <time>2023-08-08T13:39:46.000Z</time>
      </trkpt>
      <trkpt lat="45.44055" lon="6.2176">
        <ele>1884.1999511719</ele>
        <time>2023-08-08T13:39:47.000Z</time>
      </trkpt>
      <trkpt lat="45.44051" lon="6.21764">
        <ele>1883</ele>
        <time>2023-08-08T13:39:57.000Z</time>
      </trkpt>
      <trkpt lat="45.44047" lon="6.21767">
        <ele>1883.1999511719</ele>
        <time>2023-08-08T13:40:06.000Z</time>
      </trkpt>
      <trkpt lat="45.44044" lon="6.21769">
        <ele>1883.8000488281</ele>
        <time>2023-08-08T13:40:15.000Z</time>
      </trkpt>
      <trkpt lat="45.44038" lon="6.21767">
        <ele>1883.1999511719</ele>
        <time>2023-08-08T13:40:24.000Z</time>
      </trkpt>
      <trkpt lat="45.44031" lon="6.21764">
        <ele>1882</ele>
        <time>2023-08-08T13:40:31.000Z</time>
      </trkpt>
      <trkpt lat="45.44029" lon="6.21764">
        <ele>1881.5999755859</ele>
        <time>2023-08-08T13:40:33.000Z</time>
      </trkpt>
      <trkpt lat="45.44027" lon="6.21763">
        <ele>1881</ele>
        <time>2023-08-08T13:40:35.000Z</time>
      </trkpt>
      <trkpt lat="45.44025" lon="6.21763">
        <ele>1879.8000488281</ele>
        <time>2023-08-08T13:40:39.000Z</time>
      </trkpt>
      <trkpt lat="45.44023" lon="6.21763">
        <ele>1878.5999755859</ele>
        <time>2023-08-08T13:40:42.000Z</time>
      </trkpt>
      <trkpt lat="45.43981" lon="6.21758">
        <ele>1868</ele>
        <time>2023-08-08T13:41:36.000Z</time>
      </trkpt>
      <trkpt lat="45.4396" lon="6.21759">
        <ele>1864.5999755859</ele>
        <time>2023-08-08T13:41:50.000Z</time>
      </trkpt>
      <trkpt lat="45.43954" lon="6.21755">
        <ele>1863.8000488281</ele>
        <time>2023-08-08T13:41:56.000Z</time>
      </trkpt>
      <trkpt lat="45.43955" lon="6.21754">
        <ele>1862.8000488281</ele>
        <time>2023-08-08T13:42:00.000Z</time>
      </trkpt>
      <trkpt lat="45.43955" lon="6.21754">
        <ele>1862.5999755859</ele>
        <time>2023-08-08T13:42:02.000Z</time>
      </trkpt>
      <trkpt lat="45.43953" lon="6.21751">
        <ele>1862.1999511719</ele>
        <time>2023-08-08T13:42:13.000Z</time>
      </trkpt>
      <trkpt lat="45.43951" lon="6.2175">
        <ele>1861.8000488281</ele>
        <time>2023-08-08T13:42:15.000Z</time>
      </trkpt>
      <trkpt lat="45.43947" lon="6.21748">
        <ele>1861.4000244141</ele>
        <time>2023-08-08T13:42:18.000Z</time>
      </trkpt>
      <trkpt lat="45.43945" lon="6.21747">
        <ele>1860.4000244141</ele>
        <time>2023-08-08T13:42:20.000Z</time>
      </trkpt>
      <trkpt lat="45.43944" lon="6.21746">
        <ele>1859</ele>
        <time>2023-08-08T13:42:21.000Z</time>
      </trkpt>
      <trkpt lat="45.43943" lon="6.21745">
        <ele>1858</ele>
        <time>2023-08-08T13:42:22.000Z</time>
      </trkpt>
      <trkpt lat="45.43945" lon="6.21746">
        <ele>1857.5999755859</ele>
        <time>2023-08-08T13:42:27.000Z</time>
      </trkpt>
      <trkpt lat="45.43942" lon="6.21745">
        <ele>1858.8000488281</ele>
        <time>2023-08-08T13:42:41.000Z</time>
      </trkpt>
      <trkpt lat="45.43941" lon="6.21738">
        <ele>1859.4000244141</ele>
        <time>2023-08-08T13:42:46.000Z</time>
      </trkpt>
      <trkpt lat="45.43939" lon="6.21736">
        <ele>1859.5999755859</ele>
        <time>2023-08-08T13:42:48.000Z</time>
      </trkpt>
      <trkpt lat="45.43932" lon="6.21727">
        <ele>1858</ele>
        <time>2023-08-08T13:42:56.000Z</time>
      </trkpt>
      <trkpt lat="45.43928" lon="6.2172">
        <ele>1857</ele>
        <time>2023-08-08T13:43:03.000Z</time>
      </trkpt>
      <trkpt lat="45.43927" lon="6.21718">
        <ele>1856.8000488281</ele>
        <time>2023-08-08T13:43:04.000Z</time>
      </trkpt>
      <trkpt lat="45.43919" lon="6.21712">
        <ele>1856</ele>
        <time>2023-08-08T13:43:10.000Z</time>
      </trkpt>
      <trkpt lat="45.43917" lon="6.21712">
        <ele>1855.8000488281</ele>
        <time>2023-08-08T13:43:12.000Z</time>
      </trkpt>
      <trkpt lat="45.43916" lon="6.21711">
        <ele>1855.4000244141</ele>
        <time>2023-08-08T13:43:13.000Z</time>
      </trkpt>
      <trkpt lat="45.43873" lon="6.21715">
        <ele>1856.8000488281</ele>
        <time>2023-08-08T13:43:47.000Z</time>
      </trkpt>
      <trkpt lat="45.43857" lon="6.21712">
        <ele>1856</ele>
        <time>2023-08-08T13:44:03.000Z</time>
      </trkpt>
      <trkpt lat="45.43828" lon="6.21723">
        <ele>1851.5999755859</ele>
        <time>2023-08-08T13:44:47.000Z</time>
      </trkpt>
      <trkpt lat="45.43777" lon="6.21733">
        <ele>1855.5999755859</ele>
        <time>2023-08-08T13:45:37.000Z</time>
      </trkpt>
      <trkpt lat="45.43775" lon="6.21732">
        <ele>1856</ele>
        <time>2023-08-08T13:45:39.000Z</time>
      </trkpt>
      <trkpt lat="45.43773" lon="6.21732">
        <ele>1856.8000488281</ele>
        <time>2023-08-08T13:45:44.000Z</time>
      </trkpt>
      <trkpt lat="45.43772" lon="6.21733">
        <ele>1857</ele>
        <time>2023-08-08T13:45:46.000Z</time>
      </trkpt>
      <trkpt lat="45.43763" lon="6.2174">
        <ele>1859</ele>
        <time>2023-08-08T13:45:58.000Z</time>
      </trkpt>
      <trkpt lat="45.43759" lon="6.21745">
        <ele>1859.4000244141</ele>
        <time>2023-08-08T13:46:03.000Z</time>
      </trkpt>
      <trkpt lat="45.43755" lon="6.21742">
        <ele>1859.8000488281</ele>
        <time>2023-08-08T13:46:09.000Z</time>
      </trkpt>
      <trkpt lat="45.43754" lon="6.21741">
        <ele>1860</ele>
        <time>2023-08-08T13:46:11.000Z</time>
      </trkpt>
      <trkpt lat="45.43749" lon="6.21738">
        <ele>1861.1999511719</ele>
        <time>2023-08-08T13:46:18.000Z</time>
      </trkpt>
      <trkpt lat="45.43749" lon="6.21738">
        <ele>1861.4000244141</ele>
        <time>2023-08-08T13:46:20.000Z</time>
      </trkpt>
      <trkpt lat="45.43747" lon="6.21736">
        <ele>1862.1999511719</ele>
        <time>2023-08-08T13:46:25.000Z</time>
      </trkpt>
      <trkpt lat="45.43746" lon="6.21734">
        <ele>1862.5999755859</ele>
        <time>2023-08-08T13:46:27.000Z</time>
      </trkpt>
      <trkpt lat="45.43746" lon="6.21729">
        <ele>1863.4000244141</ele>
        <time>2023-08-08T13:46:33.000Z</time>
      </trkpt>
      <trkpt lat="45.43746" lon="6.21727">
        <ele>1863.8000488281</ele>
        <time>2023-08-08T13:46:35.000Z</time>
      </trkpt>
      <trkpt lat="45.43745" lon="6.21725">
        <ele>1864.4000244141</ele>
        <time>2023-08-08T13:46:39.000Z</time>
      </trkpt>
      <trkpt lat="45.43745" lon="6.21723">
        <ele>1865</ele>
        <time>2023-08-08T13:46:42.000Z</time>
      </trkpt>
      <trkpt lat="45.43745" lon="6.21722">
        <ele>1865.5999755859</ele>
        <time>2023-08-08T13:46:45.000Z</time>
      </trkpt>
      <trkpt lat="45.43743" lon="6.21718">
        <ele>1866.1999511719</ele>
        <time>2023-08-08T13:46:50.000Z</time>
      </trkpt>
      <trkpt lat="45.43742" lon="6.21717">
        <ele>1866.5999755859</ele>
        <time>2023-08-08T13:46:52.000Z</time>
      </trkpt>
      <trkpt lat="45.43739" lon="6.21713">
        <ele>1867.5999755859</ele>
        <time>2023-08-08T13:46:59.000Z</time>
      </trkpt>
      <trkpt lat="45.43738" lon="6.21711">
        <ele>1868.8000488281</ele>
        <time>2023-08-08T13:47:05.000Z</time>
      </trkpt>
      <trkpt lat="45.43738" lon="6.21711">
        <ele>1868.8000488281</ele>
        <time>2023-08-08T13:47:06.000Z</time>
      </trkpt>
      <trkpt lat="45.43735" lon="6.21708">
        <ele>1869.8000488281</ele>
        <time>2023-08-08T13:47:11.000Z</time>
      </trkpt>
      <trkpt lat="45.43733" lon="6.21704">
        <ele>1870.4000244141</ele>
        <time>2023-08-08T13:47:15.000Z</time>
      </trkpt>
      <trkpt lat="45.43734" lon="6.21702">
        <ele>1871</ele>
        <time>2023-08-08T13:47:18.000Z</time>
      </trkpt>
      <trkpt lat="45.43732" lon="6.21699">
        <ele>1871.5999755859</ele>
        <time>2023-08-08T13:47:23.000Z</time>
      </trkpt>
      <trkpt lat="45.43732" lon="6.21699">
        <ele>1872.1999511719</ele>
        <time>2023-08-08T13:47:26.000Z</time>
      </trkpt>
      <trkpt lat="45.4373" lon="6.21696">
        <ele>1873</ele>
        <time>2023-08-08T13:47:30.000Z</time>
      </trkpt>
      <trkpt lat="45.43729" lon="6.21695">
        <ele>1873.4000244141</ele>
        <time>2023-08-08T13:47:32.000Z</time>
      </trkpt>
      <trkpt lat="45.43727" lon="6.2169">
        <ele>1873.4000244141</ele>
        <time>2023-08-08T13:47:36.000Z</time>
      </trkpt>
      <trkpt lat="45.43725" lon="6.21683">
        <ele>1873.8000488281</ele>
        <time>2023-08-08T13:47:42.000Z</time>
      </trkpt>
      <trkpt lat="45.43722" lon="6.21676">
        <ele>1874.4000244141</ele>
        <time>2023-08-08T13:47:48.000Z</time>
      </trkpt>
      <trkpt lat="45.43719" lon="6.21674">
        <ele>1874.5999755859</ele>
        <time>2023-08-08T13:47:50.000Z</time>
      </trkpt>
      <trkpt lat="45.4371" lon="6.21668">
        <ele>1875.1999511719</ele>
        <time>2023-08-08T13:47:58.000Z</time>
      </trkpt>
      <trkpt lat="45.43707" lon="6.21667">
        <ele>1875.5999755859</ele>
        <time>2023-08-08T13:48:00.000Z</time>
      </trkpt>
      <trkpt lat="45.43703" lon="6.21665">
        <ele>1876.1999511719</ele>
        <time>2023-08-08T13:48:05.000Z</time>
      </trkpt>
      <trkpt lat="45.43699" lon="6.21661">
        <ele>1876.5999755859</ele>
        <time>2023-08-08T13:48:09.000Z</time>
      </trkpt>
      <trkpt lat="45.43696" lon="6.21658">
        <ele>1876.8000488281</ele>
        <time>2023-08-08T13:48:13.000Z</time>
      </trkpt>
      <trkpt lat="45.4369" lon="6.21647">
        <ele>1876.5999755859</ele>
        <time>2023-08-08T13:48:20.000Z</time>
      </trkpt>
      <trkpt lat="45.43686" lon="6.21637">
        <ele>1876.4000244141</ele>
        <time>2023-08-08T13:48:27.000Z</time>
      </trkpt>
      <trkpt lat="45.4368" lon="6.21631">
        <ele>1876.5999755859</ele>
        <time>2023-08-08T13:48:34.000Z</time>
      </trkpt>
      <trkpt lat="45.43674" lon="6.21624">
        <ele>1876.5999755859</ele>
        <time>2023-08-08T13:48:41.000Z</time>
      </trkpt>
      <trkpt lat="45.43668" lon="6.21614">
        <ele>1877.5999755859</ele>
        <time>2023-08-08T13:48:49.000Z</time>
      </trkpt>
      <trkpt lat="45.43667" lon="6.21613">
        <ele>1877.8000488281</ele>
        <time>2023-08-08T13:48:50.000Z</time>
      </trkpt>
      <trkpt lat="45.43663" lon="6.21607">
        <ele>1878.5999755859</ele>
        <time>2023-08-08T13:48:57.000Z</time>
      </trkpt>
      <trkpt lat="45.43662" lon="6.21606">
        <ele>1878.8000488281</ele>
        <time>2023-08-08T13:48:58.000Z</time>
      </trkpt>
      <trkpt lat="45.43655" lon="6.216">
        <ele>1878.8000488281</ele>
        <time>2023-08-08T13:49:05.000Z</time>
      </trkpt>
      <trkpt lat="45.43647" lon="6.21595">
        <ele>1877.8000488281</ele>
        <time>2023-08-08T13:49:12.000Z</time>
      </trkpt>
      <trkpt lat="45.43642" lon="6.2159">
        <ele>1877.1999511719</ele>
        <time>2023-08-08T13:49:15.000Z</time>
      </trkpt>
      <trkpt lat="45.43638" lon="6.21587">
        <ele>1877.1999511719</ele>
        <time>2023-08-08T13:49:20.000Z</time>
      </trkpt>
      <trkpt lat="45.43632" lon="6.21585">
        <ele>1877.4000244141</ele>
        <time>2023-08-08T13:49:29.000Z</time>
      </trkpt>
      <trkpt lat="45.43624" lon="6.21582">
        <ele>1878.1999511719</ele>
        <time>2023-08-08T13:49:36.000Z</time>
      </trkpt>
      <trkpt lat="45.43617" lon="6.21578">
        <ele>1878.5999755859</ele>
        <time>2023-08-08T13:49:44.000Z</time>
      </trkpt>
      <trkpt lat="45.43617" lon="6.21578">
        <ele>1878.8000488281</ele>
        <time>2023-08-08T13:49:45.000Z</time>
      </trkpt>
      <trkpt lat="45.43615" lon="6.21578">
        <ele>1879.4000244141</ele>
        <time>2023-08-08T13:49:50.000Z</time>
      </trkpt>
      <trkpt lat="45.43614" lon="6.21578">
        <ele>1880</ele>
        <time>2023-08-08T13:49:52.000Z</time>
      </trkpt>
      <trkpt lat="45.43614" lon="6.21578">
        <ele>1881</ele>
        <time>2023-08-08T13:49:57.000Z</time>
      </trkpt>
      <trkpt lat="45.43604" lon="6.21578">
        <ele>1882</ele>
        <time>2023-08-08T13:50:08.000Z</time>
      </trkpt>
      <trkpt lat="45.43606" lon="6.21582">
        <ele>1881.8000488281</ele>
        <time>2023-08-08T13:50:22.000Z</time>
      </trkpt>
      <trkpt lat="45.43604" lon="6.21576">
        <ele>1881.4000244141</ele>
        <time>2023-08-08T13:50:43.000Z</time>
      </trkpt>
      <trkpt lat="45.43599" lon="6.21572">
        <ele>1880.8000488281</ele>
        <time>2023-08-08T13:50:49.000Z</time>
      </trkpt>
      <trkpt lat="45.43597" lon="6.21572">
        <ele>1880.8000488281</ele>
        <time>2023-08-08T13:50:55.000Z</time>
      </trkpt>
      <trkpt lat="45.43596" lon="6.2157">
        <ele>1880.5999755859</ele>
        <time>2023-08-08T13:51:06.000Z</time>
      </trkpt>
      <trkpt lat="45.43595" lon="6.21569">
        <ele>1880.8000488281</ele>
        <time>2023-08-08T13:51:15.000Z</time>
      </trkpt>
      <trkpt lat="45.43593" lon="6.21572">
        <ele>1881</ele>
        <time>2023-08-08T13:51:30.000Z</time>
      </trkpt>
      <trkpt lat="45.43588" lon="6.21572">
        <ele>1880.8000488281</ele>
        <time>2023-08-08T13:51:40.000Z</time>
      </trkpt>
      <trkpt lat="45.43583" lon="6.21567">
        <ele>1880.4000244141</ele>
        <time>2023-08-08T13:51:47.000Z</time>
      </trkpt>
      <trkpt lat="45.43582" lon="6.21564">
        <ele>1879.8000488281</ele>
        <time>2023-08-08T13:51:49.000Z</time>
      </trkpt>
      <trkpt lat="45.43574" lon="6.21554">
        <ele>1879.4000244141</ele>
        <time>2023-08-08T13:51:55.000Z</time>
      </trkpt>
      <trkpt lat="45.4357" lon="6.21549">
        <ele>1879</ele>
        <time>2023-08-08T13:52:02.000Z</time>
      </trkpt>
      <trkpt lat="45.43565" lon="6.2154">
        <ele>1879.4000244141</ele>
        <time>2023-08-08T13:52:09.000Z</time>
      </trkpt>
      <trkpt lat="45.43563" lon="6.21538">
        <ele>1878.8000488281</ele>
        <time>2023-08-08T13:52:11.000Z</time>
      </trkpt>
      <trkpt lat="45.43556" lon="6.21534">
        <ele>1878.4000244141</ele>
        <time>2023-08-08T13:52:17.000Z</time>
      </trkpt>
      <trkpt lat="45.43549" lon="6.2153">
        <ele>1878.4000244141</ele>
        <time>2023-08-08T13:52:23.000Z</time>
      </trkpt>
      <trkpt lat="45.43545" lon="6.21527">
        <ele>1877.8000488281</ele>
        <time>2023-08-08T13:52:27.000Z</time>
      </trkpt>
      <trkpt lat="45.43537" lon="6.21522">
        <ele>1877.5999755859</ele>
        <time>2023-08-08T13:52:32.000Z</time>
      </trkpt>
      <trkpt lat="45.4353" lon="6.2152">
        <ele>1878</ele>
        <time>2023-08-08T13:52:39.000Z</time>
      </trkpt>
      <trkpt lat="45.43524" lon="6.21516">
        <ele>1877.8000488281</ele>
        <time>2023-08-08T13:52:46.000Z</time>
      </trkpt>
      <trkpt lat="45.43518" lon="6.21512">
        <ele>1878.1999511719</ele>
        <time>2023-08-08T13:52:53.000Z</time>
      </trkpt>
      <trkpt lat="45.43512" lon="6.21509">
        <ele>1878.8000488281</ele>
        <time>2023-08-08T13:53:00.000Z</time>
      </trkpt>
      <trkpt lat="45.43511" lon="6.21508">
        <ele>1879</ele>
        <time>2023-08-08T13:53:05.000Z</time>
      </trkpt>
      <trkpt lat="45.43511" lon="6.21508">
        <ele>1879</ele>
        <time>2023-08-08T13:53:06.000Z</time>
      </trkpt>
      <trkpt lat="45.43505" lon="6.21505">
        <ele>1879</ele>
        <time>2023-08-08T13:53:19.000Z</time>
      </trkpt>
      <trkpt lat="45.43502" lon="6.21501">
        <ele>1879.8000488281</ele>
        <time>2023-08-08T13:53:25.000Z</time>
      </trkpt>
      <trkpt lat="45.43494" lon="6.21501">
        <ele>1879</ele>
        <time>2023-08-08T13:53:33.000Z</time>
      </trkpt>
      <trkpt lat="45.43486" lon="6.215">
        <ele>1878.1999511719</ele>
        <time>2023-08-08T13:53:41.000Z</time>
      </trkpt>
      <trkpt lat="45.43482" lon="6.215">
        <ele>1877.5999755859</ele>
        <time>2023-08-08T13:53:44.000Z</time>
      </trkpt>
      <trkpt lat="45.43463" lon="6.21501">
        <ele>1876.5999755859</ele>
        <time>2023-08-08T13:54:00.000Z</time>
      </trkpt>
      <trkpt lat="45.43459" lon="6.21502">
        <ele>1876</ele>
        <time>2023-08-08T13:54:06.000Z</time>
      </trkpt>
      <trkpt lat="45.43456" lon="6.21504">
        <ele>1876</ele>
        <time>2023-08-08T13:54:12.000Z</time>
      </trkpt>
      <trkpt lat="45.43454" lon="6.215">
        <ele>1876</ele>
        <time>2023-08-08T13:54:20.000Z</time>
      </trkpt>
      <trkpt lat="45.43451" lon="6.21493">
        <ele>1876.4000244141</ele>
        <time>2023-08-08T13:54:26.000Z</time>
      </trkpt>
      <trkpt lat="45.43453" lon="6.21492">
        <ele>1876.8000488281</ele>
        <time>2023-08-08T13:54:32.000Z</time>
      </trkpt>
      <trkpt lat="45.43456" lon="6.21499">
        <ele>1876.5999755859</ele>
        <time>2023-08-08T13:54:40.000Z</time>
      </trkpt>
      <trkpt lat="45.43457" lon="6.21502">
        <ele>1876</ele>
        <time>2023-08-08T13:54:48.000Z</time>
      </trkpt>
      <trkpt lat="45.43454" lon="6.21499">
        <ele>1875.5999755859</ele>
        <time>2023-08-08T13:54:52.000Z</time>
      </trkpt>
      <trkpt lat="45.43453" lon="6.21499">
        <ele>1875.4000244141</ele>
        <time>2023-08-08T13:54:53.000Z</time>
      </trkpt>
      <trkpt lat="45.43447" lon="6.21507">
        <ele>1875.1999511719</ele>
        <time>2023-08-08T13:55:08.000Z</time>
      </trkpt>
      <trkpt lat="45.4345" lon="6.21504">
        <ele>1875.4000244141</ele>
        <time>2023-08-08T13:55:22.000Z</time>
      </trkpt>
      <trkpt lat="45.43448" lon="6.21508">
        <ele>1875.4000244141</ele>
        <time>2023-08-08T13:55:30.000Z</time>
      </trkpt>
      <trkpt lat="45.4345" lon="6.21507">
        <ele>1875.1999511719</ele>
        <time>2023-08-08T13:55:42.000Z</time>
      </trkpt>
      <trkpt lat="45.43449" lon="6.21508">
        <ele>1875.4000244141</ele>
        <time>2023-08-08T13:55:50.000Z</time>
      </trkpt>
      <trkpt lat="45.43444" lon="6.21507">
        <ele>1875.1999511719</ele>
        <time>2023-08-08T13:56:11.000Z</time>
      </trkpt>
      <trkpt lat="45.43448" lon="6.21506">
        <ele>1875.4000244141</ele>
        <time>2023-08-08T13:56:20.000Z</time>
      </trkpt>
      <trkpt lat="45.43449" lon="6.21505">
        <ele>1875.4000244141</ele>
        <time>2023-08-08T13:56:29.000Z</time>
      </trkpt>
      <trkpt lat="45.4345" lon="6.21505">
        <ele>1875.5999755859</ele>
        <time>2023-08-08T13:56:38.000Z</time>
      </trkpt>
      <trkpt lat="45.43449" lon="6.21507">
        <ele>1875.8000488281</ele>
        <time>2023-08-08T13:56:46.000Z</time>
      </trkpt>
      <trkpt lat="45.43449" lon="6.21508">
        <ele>1875.8000488281</ele>
        <time>2023-08-08T13:56:52.000Z</time>
      </trkpt>
      <trkpt lat="45.43449" lon="6.21505">
        <ele>1876.1999511719</ele>
        <time>2023-08-08T13:56:59.000Z</time>
      </trkpt>
      <trkpt lat="45.43449" lon="6.21505">
        <ele>1875.8000488281</ele>
        <time>2023-08-08T13:57:05.000Z</time>
      </trkpt>
      <trkpt lat="45.43443" lon="6.21514">
        <ele>1875.4000244141</ele>
        <time>2023-08-08T13:57:22.000Z</time>
      </trkpt>
      <trkpt lat="45.43443" lon="6.21516">
        <ele>1874.4000244141</ele>
        <time>2023-08-08T13:57:30.000Z</time>
      </trkpt>
      <trkpt lat="45.43443" lon="6.21514">
        <ele>1873.5999755859</ele>
        <time>2023-08-08T13:57:41.000Z</time>
      </trkpt>
      <trkpt lat="45.43446" lon="6.2151">
        <ele>1873.5999755859</ele>
        <time>2023-08-08T13:58:00.000Z</time>
      </trkpt>
      <trkpt lat="45.43445" lon="6.21514">
        <ele>1873</ele>
        <time>2023-08-08T13:58:26.000Z</time>
      </trkpt>
      <trkpt lat="45.43445" lon="6.21513">
        <ele>1873.1999511719</ele>
        <time>2023-08-08T13:58:34.000Z</time>
      </trkpt>
      <trkpt lat="45.43443" lon="6.21514">
        <ele>1873.1999511719</ele>
        <time>2023-08-08T13:58:42.000Z</time>
      </trkpt>
      <trkpt lat="45.43447" lon="6.21512">
        <ele>1873.4000244141</ele>
        <time>2023-08-08T13:59:09.000Z</time>
      </trkpt>
      <trkpt lat="45.43447" lon="6.21513">
        <ele>1874</ele>
        <time>2023-08-08T13:59:16.000Z</time>
      </trkpt>
      <trkpt lat="45.43444" lon="6.21512">
        <ele>1874.1999511719</ele>
        <time>2023-08-08T13:59:25.000Z</time>
      </trkpt>
      <trkpt lat="45.43444" lon="6.21513">
        <ele>1874.4000244141</ele>
        <time>2023-08-08T13:59:31.000Z</time>
      </trkpt>
      <trkpt lat="45.43444" lon="6.21511">
        <ele>1875</ele>
        <time>2023-08-08T13:59:35.000Z</time>
      </trkpt>
      <trkpt lat="45.43447" lon="6.21507">
        <ele>1875.5999755859</ele>
        <time>2023-08-08T13:59:41.000Z</time>
      </trkpt>
      <trkpt lat="45.43448" lon="6.21507">
        <ele>1876</ele>
        <time>2023-08-08T13:59:43.000Z</time>
      </trkpt>
      <trkpt lat="45.4345" lon="6.21507">
        <ele>1876.1999511719</ele>
        <time>2023-08-08T13:59:53.000Z</time>
      </trkpt>
      <trkpt lat="45.43449" lon="6.21507">
        <ele>1876.5999755859</ele>
        <time>2023-08-08T14:00:00.000Z</time>
      </trkpt>
      <trkpt lat="45.43448" lon="6.21507">
        <ele>1876.5999755859</ele>
        <time>2023-08-08T14:00:07.000Z</time>
      </trkpt>
      <trkpt lat="45.43448" lon="6.21509">
        <ele>1876</ele>
        <time>2023-08-08T14:00:14.000Z</time>
      </trkpt>
      <trkpt lat="45.43449" lon="6.21511">
        <ele>1876</ele>
        <time>2023-08-08T14:00:24.000Z</time>
      </trkpt>
      <trkpt lat="45.4345" lon="6.21508">
        <ele>1875.8000488281</ele>
        <time>2023-08-08T14:00:31.000Z</time>
      </trkpt>
      <trkpt lat="45.43452" lon="6.21505">
        <ele>1875.8000488281</ele>
        <time>2023-08-08T14:00:37.000Z</time>
      </trkpt>
      <trkpt lat="45.43452" lon="6.21506">
        <ele>1875.8000488281</ele>
        <time>2023-08-08T14:00:44.000Z</time>
      </trkpt>
      <trkpt lat="45.43449" lon="6.21506">
        <ele>1875.8000488281</ele>
        <time>2023-08-08T14:00:54.000Z</time>
      </trkpt>
      <trkpt lat="45.43451" lon="6.21506">
        <ele>1875.8000488281</ele>
        <time>2023-08-08T14:01:12.000Z</time>
      </trkpt>
      <trkpt lat="45.4345" lon="6.21505">
        <ele>1876</ele>
        <time>2023-08-08T14:01:20.000Z</time>
      </trkpt>
      <trkpt lat="45.43451" lon="6.21506">
        <ele>1876</ele>
        <time>2023-08-08T14:01:28.000Z</time>
      </trkpt>
      <trkpt lat="45.43449" lon="6.21508">
        <ele>1875.8000488281</ele>
        <time>2023-08-08T14:01:42.000Z</time>
      </trkpt>
      <trkpt lat="45.4345" lon="6.21505">
        <ele>1875.8000488281</ele>
        <time>2023-08-08T14:01:50.000Z</time>
      </trkpt>
      <trkpt lat="45.43449" lon="6.21508">
        <ele>1876</ele>
        <time>2023-08-08T14:01:58.000Z</time>
      </trkpt>
      <trkpt lat="45.43449" lon="6.21508">
        <ele>1876</ele>
        <time>2023-08-08T14:02:06.000Z</time>
      </trkpt>
      <trkpt lat="45.4345" lon="6.21507">
        <ele>1875.8000488281</ele>
        <time>2023-08-08T14:02:22.000Z</time>
      </trkpt>
      <trkpt lat="45.43449" lon="6.21508">
        <ele>1876.1999511719</ele>
        <time>2023-08-08T14:02:33.000Z</time>
      </trkpt>
      <trkpt lat="45.4345" lon="6.21504">
        <ele>1876</ele>
        <time>2023-08-08T14:02:46.000Z</time>
      </trkpt>
      <trkpt lat="45.43448" lon="6.21507">
        <ele>1876</ele>
        <time>2023-08-08T14:02:58.000Z</time>
      </trkpt>
      <trkpt lat="45.4345" lon="6.21506">
        <ele>1876</ele>
        <time>2023-08-08T14:03:09.000Z</time>
      </trkpt>
      <trkpt lat="45.43449" lon="6.21506">
        <ele>1875.8000488281</ele>
        <time>2023-08-08T14:03:29.000Z</time>
      </trkpt>
      <trkpt lat="45.43449" lon="6.21506">
        <ele>1875.8000488281</ele>
        <time>2023-08-08T14:03:41.000Z</time>
      </trkpt>
      <trkpt lat="45.43448" lon="6.21507">
        <ele>1876</ele>
        <time>2023-08-08T14:04:00.000Z</time>
      </trkpt>
      <trkpt lat="45.43449" lon="6.21507">
        <ele>1876.1999511719</ele>
        <time>2023-08-08T14:04:22.000Z</time>
      </trkpt>
      <trkpt lat="45.4345" lon="6.21504">
        <ele>1876</ele>
        <time>2023-08-08T14:04:34.000Z</time>
      </trkpt>
      <trkpt lat="45.43449" lon="6.21506">
        <ele>1876.4000244141</ele>
        <time>2023-08-08T14:04:43.000Z</time>
      </trkpt>
      <trkpt lat="45.43448" lon="6.21505">
        <ele>1876.4000244141</ele>
        <time>2023-08-08T14:04:59.000Z</time>
      </trkpt>
      <trkpt lat="45.43449" lon="6.21507">
        <ele>1876.5999755859</ele>
        <time>2023-08-08T14:05:08.000Z</time>
      </trkpt>
      <trkpt lat="45.43449" lon="6.21505">
        <ele>1876.5999755859</ele>
        <time>2023-08-08T14:05:18.000Z</time>
      </trkpt>
      <trkpt lat="45.43447" lon="6.21506">
        <ele>1876.4000244141</ele>
        <time>2023-08-08T14:05:29.000Z</time>
      </trkpt>
      <trkpt lat="45.43446" lon="6.21509">
        <ele>1876.5999755859</ele>
        <time>2023-08-08T14:05:38.000Z</time>
      </trkpt>
      <trkpt lat="45.43449" lon="6.21507">
        <ele>1876.5999755859</ele>
        <time>2023-08-08T14:05:48.000Z</time>
      </trkpt>
      <trkpt lat="45.43452" lon="6.21504">
        <ele>1876.5999755859</ele>
        <time>2023-08-08T14:05:57.000Z</time>
      </trkpt>
      <trkpt lat="45.4345" lon="6.21503">
        <ele>1876.5999755859</ele>
        <time>2023-08-08T14:06:08.000Z</time>
      </trkpt>
      <trkpt lat="45.43449" lon="6.21504">
        <ele>1876.8000488281</ele>
        <time>2023-08-08T14:06:18.000Z</time>
      </trkpt>
      <trkpt lat="45.43449" lon="6.21506">
        <ele>1876.8000488281</ele>
        <time>2023-08-08T14:06:26.000Z</time>
      </trkpt>
      <trkpt lat="45.4345" lon="6.21504">
        <ele>1877</ele>
        <time>2023-08-08T14:06:35.000Z</time>
      </trkpt>
      <trkpt lat="45.43448" lon="6.21509">
        <ele>1877.1999511719</ele>
        <time>2023-08-08T14:06:45.000Z</time>
      </trkpt>
      <trkpt lat="45.43447" lon="6.21508">
        <ele>1877.1999511719</ele>
        <time>2023-08-08T14:06:55.000Z</time>
      </trkpt>
      <trkpt lat="45.43448" lon="6.21507">
        <ele>1877.4000244141</ele>
        <time>2023-08-08T14:07:05.000Z</time>
      </trkpt>
      <trkpt lat="45.43448" lon="6.21507">
        <ele>1877.4000244141</ele>
        <time>2023-08-08T14:07:14.000Z</time>
      </trkpt>
      <trkpt lat="45.43448" lon="6.21506">
        <ele>1877.5999755859</ele>
        <time>2023-08-08T14:07:25.000Z</time>
      </trkpt>
      <trkpt lat="45.4345" lon="6.21506">
        <ele>1877.5999755859</ele>
        <time>2023-08-08T14:07:33.000Z</time>
      </trkpt>
      <trkpt lat="45.43451" lon="6.21506">
        <ele>1877.5999755859</ele>
        <time>2023-08-08T14:07:35.000Z</time>
      </trkpt>
      <trkpt lat="45.43452" lon="6.21507">
        <ele>1877.8000488281</ele>
        <time>2023-08-08T14:07:42.000Z</time>
      </trkpt>
      <trkpt lat="45.43451" lon="6.21505">
        <ele>1877.8000488281</ele>
        <time>2023-08-08T14:07:51.000Z</time>
      </trkpt>
      <trkpt lat="45.4345" lon="6.21505">
        <ele>1878.5999755859</ele>
        <time>2023-08-08T14:07:58.000Z</time>
      </trkpt>
      <trkpt lat="45.4345" lon="6.21504">
        <ele>1878.4000244141</ele>
        <time>2023-08-08T14:08:06.000Z</time>
      </trkpt>
      <trkpt lat="45.43452" lon="6.21504">
        <ele>1878.4000244141</ele>
        <time>2023-08-08T14:08:14.000Z</time>
      </trkpt>
      <trkpt lat="45.43449" lon="6.21504">
        <ele>1878.4000244141</ele>
        <time>2023-08-08T14:08:24.000Z</time>
      </trkpt>
      <trkpt lat="45.43448" lon="6.21504">
        <ele>1878.5999755859</ele>
        <time>2023-08-08T14:08:33.000Z</time>
      </trkpt>
      <trkpt lat="45.43449" lon="6.21505">
        <ele>1878.4000244141</ele>
        <time>2023-08-08T14:08:45.000Z</time>
      </trkpt>
      <trkpt lat="45.43449" lon="6.21504">
        <ele>1878.5999755859</ele>
        <time>2023-08-08T14:09:00.000Z</time>
      </trkpt>
      <trkpt lat="45.4345" lon="6.21504">
        <ele>1878.8000488281</ele>
        <time>2023-08-08T14:09:19.000Z</time>
      </trkpt>
      <trkpt lat="45.43452" lon="6.21504">
        <ele>1878.8000488281</ele>
        <time>2023-08-08T14:09:34.000Z</time>
      </trkpt>
      <trkpt lat="45.43452" lon="6.21503">
        <ele>1878.8000488281</ele>
        <time>2023-08-08T14:09:42.000Z</time>
      </trkpt>
      <trkpt lat="45.43453" lon="6.21502">
        <ele>1879</ele>
        <time>2023-08-08T14:09:54.000Z</time>
      </trkpt>
      <trkpt lat="45.4345" lon="6.21505">
        <ele>1879</ele>
        <time>2023-08-08T14:10:06.000Z</time>
      </trkpt>
      <trkpt lat="45.43451" lon="6.21502">
        <ele>1879</ele>
        <time>2023-08-08T14:10:13.000Z</time>
      </trkpt>
      <trkpt lat="45.43445" lon="6.21509">
        <ele>1878.8000488281</ele>
        <time>2023-08-08T14:10:21.000Z</time>
      </trkpt>
      <trkpt lat="45.4345" lon="6.21506">
        <ele>1879</ele>
        <time>2023-08-08T14:10:40.000Z</time>
      </trkpt>
      <trkpt lat="45.4345" lon="6.21505">
        <ele>1878.8000488281</ele>
        <time>2023-08-08T14:11:12.000Z</time>
      </trkpt>
      <trkpt lat="45.43448" lon="6.21506">
        <ele>1879</ele>
        <time>2023-08-08T14:11:23.000Z</time>
      </trkpt>
      <trkpt lat="45.43449" lon="6.21507">
        <ele>1879</ele>
        <time>2023-08-08T14:11:29.000Z</time>
      </trkpt>
      <trkpt lat="45.43451" lon="6.21504">
        <ele>1879.4000244141</ele>
        <time>2023-08-08T14:11:36.000Z</time>
      </trkpt>
      <trkpt lat="45.43451" lon="6.21502">
        <ele>1879.5999755859</ele>
        <time>2023-08-08T14:11:45.000Z</time>
      </trkpt>
      <trkpt lat="45.43451" lon="6.21505">
        <ele>1879.4000244141</ele>
        <time>2023-08-08T14:11:56.000Z</time>
      </trkpt>
      <trkpt lat="45.43451" lon="6.21504">
        <ele>1879.8000488281</ele>
        <time>2023-08-08T14:12:02.000Z</time>
      </trkpt>
      <trkpt lat="45.43451" lon="6.21504">
        <ele>1880</ele>
        <time>2023-08-08T14:12:03.000Z</time>
      </trkpt>
      <trkpt lat="45.43452" lon="6.21501">
        <ele>1880.4000244141</ele>
        <time>2023-08-08T14:12:13.000Z</time>
      </trkpt>
      <trkpt lat="45.43449" lon="6.21494">
        <ele>1880.8000488281</ele>
        <time>2023-08-08T14:12:20.000Z</time>
      </trkpt>
      <trkpt lat="45.43445" lon="6.21485">
        <ele>1881.8000488281</ele>
        <time>2023-08-08T14:12:27.000Z</time>
      </trkpt>
      <trkpt lat="45.43443" lon="6.21482">
        <ele>1882</ele>
        <time>2023-08-08T14:12:30.000Z</time>
      </trkpt>
      <trkpt lat="45.43438" lon="6.21477">
        <ele>1882.4000244141</ele>
        <time>2023-08-08T14:12:36.000Z</time>
      </trkpt>
      <trkpt lat="45.43436" lon="6.21474">
        <ele>1883</ele>
        <time>2023-08-08T14:12:39.000Z</time>
      </trkpt>
      <trkpt lat="45.43434" lon="6.21468">
        <ele>1884.1999511719</ele>
        <time>2023-08-08T14:12:45.000Z</time>
      </trkpt>
      <trkpt lat="45.43434" lon="6.21461">
        <ele>1885</ele>
        <time>2023-08-08T14:12:52.000Z</time>
      </trkpt>
      <trkpt lat="45.43434" lon="6.2146">
        <ele>1885.1999511719</ele>
        <time>2023-08-08T14:12:53.000Z</time>
      </trkpt>
      <trkpt lat="45.43432" lon="6.21455">
        <ele>1886</ele>
        <time>2023-08-08T14:12:59.000Z</time>
      </trkpt>
      <trkpt lat="45.43432" lon="6.21454">
        <ele>1886.1999511719</ele>
        <time>2023-08-08T14:13:00.000Z</time>
      </trkpt>
      <trkpt lat="45.43431" lon="6.21448">
        <ele>1886.8000488281</ele>
        <time>2023-08-08T14:13:06.000Z</time>
      </trkpt>
      <trkpt lat="45.4343" lon="6.21446">
        <ele>1887.4000244141</ele>
        <time>2023-08-08T14:13:09.000Z</time>
      </trkpt>
      <trkpt lat="45.43429" lon="6.21442">
        <ele>1888.1999511719</ele>
        <time>2023-08-08T14:13:15.000Z</time>
      </trkpt>
      <trkpt lat="45.43428" lon="6.21441">
        <ele>1888.4000244141</ele>
        <time>2023-08-08T14:13:18.000Z</time>
      </trkpt>
      <trkpt lat="45.43424" lon="6.21435">
        <ele>1889</ele>
        <time>2023-08-08T14:13:24.000Z</time>
      </trkpt>
      <trkpt lat="45.4342" lon="6.21431">
        <ele>1889.4000244141</ele>
        <time>2023-08-08T14:13:27.000Z</time>
      </trkpt>
      <trkpt lat="45.43418" lon="6.21432">
        <ele>1890.4000244141</ele>
        <time>2023-08-08T14:13:32.000Z</time>
      </trkpt>
      <trkpt lat="45.43418" lon="6.21432">
        <ele>1890.5999755859</ele>
        <time>2023-08-08T14:13:33.000Z</time>
      </trkpt>
      <trkpt lat="45.43417" lon="6.21432">
        <ele>1890.8000488281</ele>
        <time>2023-08-08T14:13:34.000Z</time>
      </trkpt>
      <trkpt lat="45.4341" lon="6.2143">
        <ele>1891.5999755859</ele>
        <time>2023-08-08T14:13:41.000Z</time>
      </trkpt>
      <trkpt lat="45.4341" lon="6.2143">
        <ele>1891.5999755859</ele>
        <time>2023-08-08T14:13:42.000Z</time>
      </trkpt>
      <trkpt lat="45.43406" lon="6.2142">
        <ele>1892.5999755859</ele>
        <time>2023-08-08T14:13:50.000Z</time>
      </trkpt>
      <trkpt lat="45.43406" lon="6.2142">
        <ele>1892.8000488281</ele>
        <time>2023-08-08T14:13:51.000Z</time>
      </trkpt>
      <trkpt lat="45.43404" lon="6.21417">
        <ele>1894</ele>
        <time>2023-08-08T14:13:58.000Z</time>
      </trkpt>
      <trkpt lat="45.43401" lon="6.21413">
        <ele>1895</ele>
        <time>2023-08-08T14:14:06.000Z</time>
      </trkpt>
      <trkpt lat="45.434" lon="6.21412">
        <ele>1895.1999511719</ele>
        <time>2023-08-08T14:14:07.000Z</time>
      </trkpt>
      <trkpt lat="45.43397" lon="6.21412">
        <ele>1896.1999511719</ele>
        <time>2023-08-08T14:14:14.000Z</time>
      </trkpt>
      <trkpt lat="45.43395" lon="6.21411">
        <ele>1896.5999755859</ele>
        <time>2023-08-08T14:14:17.000Z</time>
      </trkpt>
      <trkpt lat="45.43392" lon="6.21408">
        <ele>1898.4000244141</ele>
        <time>2023-08-08T14:14:28.000Z</time>
      </trkpt>
      <trkpt lat="45.43389" lon="6.21404">
        <ele>1899.4000244141</ele>
        <time>2023-08-08T14:14:36.000Z</time>
      </trkpt>
      <trkpt lat="45.43387" lon="6.21405">
        <ele>1899.5999755859</ele>
        <time>2023-08-08T14:14:44.000Z</time>
      </trkpt>
      <trkpt lat="45.43387" lon="6.21405">
        <ele>1899.5999755859</ele>
        <time>2023-08-08T14:14:52.000Z</time>
      </trkpt>
      <trkpt lat="45.43385" lon="6.21408">
        <ele>1899.5999755859</ele>
        <time>2023-08-08T14:15:02.000Z</time>
      </trkpt>
      <trkpt lat="45.43384" lon="6.21407">
        <ele>1899.5999755859</ele>
        <time>2023-08-08T14:15:18.000Z</time>
      </trkpt>
      <trkpt lat="45.43381" lon="6.21403">
        <ele>1900.5999755859</ele>
        <time>2023-08-08T14:15:26.000Z</time>
      </trkpt>
      <trkpt lat="45.43381" lon="6.21403">
        <ele>1900.8000488281</ele>
        <time>2023-08-08T14:15:27.000Z</time>
      </trkpt>
      <trkpt lat="45.4338" lon="6.21403">
        <ele>1900.8000488281</ele>
        <time>2023-08-08T14:15:35.000Z</time>
      </trkpt>
      <trkpt lat="45.43377" lon="6.21402">
        <ele>1901.5999755859</ele>
        <time>2023-08-08T14:15:43.000Z</time>
      </trkpt>
      <trkpt lat="45.43373" lon="6.21398">
        <ele>1902.5999755859</ele>
        <time>2023-08-08T14:15:51.000Z</time>
      </trkpt>
      <trkpt lat="45.43371" lon="6.21398">
        <ele>1902.8000488281</ele>
        <time>2023-08-08T14:15:52.000Z</time>
      </trkpt>
      <trkpt lat="45.43365" lon="6.21399">
        <ele>1903.8000488281</ele>
        <time>2023-08-08T14:15:57.000Z</time>
      </trkpt>
      <trkpt lat="45.43363" lon="6.21399">
        <ele>1904</ele>
        <time>2023-08-08T14:15:59.000Z</time>
      </trkpt>
      <trkpt lat="45.43356" lon="6.21398">
        <ele>1905.1999511719</ele>
        <time>2023-08-08T14:16:09.000Z</time>
      </trkpt>
      <trkpt lat="45.43355" lon="6.21395">
        <ele>1905.5999755859</ele>
        <time>2023-08-08T14:16:11.000Z</time>
      </trkpt>
      <trkpt lat="45.43354" lon="6.21392">
        <ele>1906</ele>
        <time>2023-08-08T14:16:14.000Z</time>
      </trkpt>
      <trkpt lat="45.43353" lon="6.21389">
        <ele>1906.8000488281</ele>
        <time>2023-08-08T14:16:19.000Z</time>
      </trkpt>
      <trkpt lat="45.43353" lon="6.21388">
        <ele>1907.1999511719</ele>
        <time>2023-08-08T14:16:21.000Z</time>
      </trkpt>
      <trkpt lat="45.43352" lon="6.21386">
        <ele>1908</ele>
        <time>2023-08-08T14:16:26.000Z</time>
      </trkpt>
      <trkpt lat="45.43351" lon="6.21384">
        <ele>1908.1999511719</ele>
        <time>2023-08-08T14:16:28.000Z</time>
      </trkpt>
      <trkpt lat="45.43347" lon="6.21381">
        <ele>1909</ele>
        <time>2023-08-08T14:16:34.000Z</time>
      </trkpt>
      <trkpt lat="45.43345" lon="6.21379">
        <ele>1909.1999511719</ele>
        <time>2023-08-08T14:16:37.000Z</time>
      </trkpt>
      <trkpt lat="45.43341" lon="6.21377">
        <ele>1909.1999511719</ele>
        <time>2023-08-08T14:16:41.000Z</time>
      </trkpt>
      <trkpt lat="45.43338" lon="6.21374">
        <ele>1909.1999511719</ele>
        <time>2023-08-08T14:16:47.000Z</time>
      </trkpt>
      <trkpt lat="45.43331" lon="6.21369">
        <ele>1910.1999511719</ele>
        <time>2023-08-08T14:16:55.000Z</time>
      </trkpt>
      <trkpt lat="45.4333" lon="6.21369">
        <ele>1910.4000244141</ele>
        <time>2023-08-08T14:16:56.000Z</time>
      </trkpt>
      <trkpt lat="45.43317" lon="6.21378">
        <ele>1913.5999755859</ele>
        <time>2023-08-08T14:17:17.000Z</time>
      </trkpt>
      <trkpt lat="45.43316" lon="6.21377">
        <ele>1914</ele>
        <time>2023-08-08T14:17:21.000Z</time>
      </trkpt>
      <trkpt lat="45.43314" lon="6.21374">
        <ele>1914.4000244141</ele>
        <time>2023-08-08T14:17:33.000Z</time>
      </trkpt>
      <trkpt lat="45.4332" lon="6.21379">
        <ele>1914.4000244141</ele>
        <time>2023-08-08T14:17:47.000Z</time>
      </trkpt>
      <trkpt lat="45.43317" lon="6.21375">
        <ele>1914.1999511719</ele>
        <time>2023-08-08T14:18:05.000Z</time>
      </trkpt>
      <trkpt lat="45.43297" lon="6.2138">
        <ele>1918.1999511719</ele>
        <time>2023-08-08T14:18:32.000Z</time>
      </trkpt>
      <trkpt lat="45.43297" lon="6.2138">
        <ele>1918.1999511719</ele>
        <time>2023-08-08T14:18:33.000Z</time>
      </trkpt>
      <trkpt lat="45.43296" lon="6.21381">
        <ele>1919.4000244141</ele>
        <time>2023-08-08T14:18:38.000Z</time>
      </trkpt>
      <trkpt lat="45.43292" lon="6.2138">
        <ele>1920</ele>
        <time>2023-08-08T14:18:43.000Z</time>
      </trkpt>
      <trkpt lat="45.43289" lon="6.21379">
        <ele>1920.4000244141</ele>
        <time>2023-08-08T14:18:46.000Z</time>
      </trkpt>
      <trkpt lat="45.43289" lon="6.21377">
        <ele>1920.8000488281</ele>
        <time>2023-08-08T14:18:49.000Z</time>
      </trkpt>
      <trkpt lat="45.43289" lon="6.21376">
        <ele>1921.5999755859</ele>
        <time>2023-08-08T14:18:52.000Z</time>
      </trkpt>
      <trkpt lat="45.43286" lon="6.21373">
        <ele>1922.8000488281</ele>
        <time>2023-08-08T14:18:58.000Z</time>
      </trkpt>
      <trkpt lat="45.43286" lon="6.21373">
        <ele>1923</ele>
        <time>2023-08-08T14:18:59.000Z</time>
      </trkpt>
      <trkpt lat="45.43281" lon="6.21371">
        <ele>1923.8000488281</ele>
        <time>2023-08-08T14:19:06.000Z</time>
      </trkpt>
      <trkpt lat="45.43281" lon="6.21371">
        <ele>1924</ele>
        <time>2023-08-08T14:19:07.000Z</time>
      </trkpt>
      <trkpt lat="45.43278" lon="6.21367">
        <ele>1925</ele>
        <time>2023-08-08T14:19:21.000Z</time>
      </trkpt>
      <trkpt lat="45.43275" lon="6.21361">
        <ele>1926</ele>
        <time>2023-08-08T14:19:28.000Z</time>
      </trkpt>
      <trkpt lat="45.43272" lon="6.21355">
        <ele>1926.5999755859</ele>
        <time>2023-08-08T14:19:36.000Z</time>
      </trkpt>
      <trkpt lat="45.43271" lon="6.21351">
        <ele>1927.1999511719</ele>
        <time>2023-08-08T14:19:40.000Z</time>
      </trkpt>
      <trkpt lat="45.43269" lon="6.21346">
        <ele>1928.4000244141</ele>
        <time>2023-08-08T14:19:45.000Z</time>
      </trkpt>
      <trkpt lat="45.43267" lon="6.21339">
        <ele>1929</ele>
        <time>2023-08-08T14:19:52.000Z</time>
      </trkpt>
      <trkpt lat="45.43267" lon="6.21336">
        <ele>1929.4000244141</ele>
        <time>2023-08-08T14:19:56.000Z</time>
      </trkpt>
      <trkpt lat="45.43266" lon="6.21331">
        <ele>1930</ele>
        <time>2023-08-08T14:20:00.000Z</time>
      </trkpt>
      <trkpt lat="45.43265" lon="6.21328">
        <ele>1930.5999755859</ele>
        <time>2023-08-08T14:20:05.000Z</time>
      </trkpt>
      <trkpt lat="45.43262" lon="6.21323">
        <ele>1931.4000244141</ele>
        <time>2023-08-08T14:20:11.000Z</time>
      </trkpt>
      <trkpt lat="45.43261" lon="6.21317">
        <ele>1931.8000488281</ele>
        <time>2023-08-08T14:20:15.000Z</time>
      </trkpt>
      <trkpt lat="45.4326" lon="6.21314">
        <ele>1932.4000244141</ele>
        <time>2023-08-08T14:20:20.000Z</time>
      </trkpt>
      <trkpt lat="45.43254" lon="6.21312">
        <ele>1932.4000244141</ele>
        <time>2023-08-08T14:20:25.000Z</time>
      </trkpt>
      <trkpt lat="45.43254" lon="6.21311">
        <ele>1932.4000244141</ele>
        <time>2023-08-08T14:20:27.000Z</time>
      </trkpt>
      <trkpt lat="45.43251" lon="6.21307">
        <ele>1932.1999511719</ele>
        <time>2023-08-08T14:20:35.000Z</time>
      </trkpt>
      <trkpt lat="45.43251" lon="6.21304">
        <ele>1932</ele>
        <time>2023-08-08T14:20:42.000Z</time>
      </trkpt>
      <trkpt lat="45.43247" lon="6.21305">
        <ele>1932.5999755859</ele>
        <time>2023-08-08T14:20:50.000Z</time>
      </trkpt>
      <trkpt lat="45.43245" lon="6.21305">
        <ele>1932.8000488281</ele>
        <time>2023-08-08T14:20:52.000Z</time>
      </trkpt>
      <trkpt lat="45.43237" lon="6.21304">
        <ele>1933.5999755859</ele>
        <time>2023-08-08T14:20:59.000Z</time>
      </trkpt>
      <trkpt lat="45.43237" lon="6.21303">
        <ele>1934</ele>
        <time>2023-08-08T14:21:01.000Z</time>
      </trkpt>
      <trkpt lat="45.43234" lon="6.21304">
        <ele>1934.8000488281</ele>
        <time>2023-08-08T14:21:06.000Z</time>
      </trkpt>
      <trkpt lat="45.43232" lon="6.21304">
        <ele>1935.1999511719</ele>
        <time>2023-08-08T14:21:08.000Z</time>
      </trkpt>
      <trkpt lat="45.43222" lon="6.21304">
        <ele>1935.5999755859</ele>
        <time>2023-08-08T14:21:16.000Z</time>
      </trkpt>
      <trkpt lat="45.43218" lon="6.21304">
        <ele>1936.1999511719</ele>
        <time>2023-08-08T14:21:20.000Z</time>
      </trkpt>
      <trkpt lat="45.43214" lon="6.21304">
        <ele>1936.5999755859</ele>
        <time>2023-08-08T14:21:25.000Z</time>
      </trkpt>
      <trkpt lat="45.43207" lon="6.21305">
        <ele>1937.1999511719</ele>
        <time>2023-08-08T14:21:34.000Z</time>
      </trkpt>
      <trkpt lat="45.43206" lon="6.21305">
        <ele>1937.4000244141</ele>
        <time>2023-08-08T14:21:36.000Z</time>
      </trkpt>
      <trkpt lat="45.432" lon="6.21309">
        <ele>1938.4000244141</ele>
        <time>2023-08-08T14:21:44.000Z</time>
      </trkpt>
      <trkpt lat="45.43199" lon="6.21311">
        <ele>1938.5999755859</ele>
        <time>2023-08-08T14:21:45.000Z</time>
      </trkpt>
      <trkpt lat="45.43198" lon="6.21314">
        <ele>1939</ele>
        <time>2023-08-08T14:21:48.000Z</time>
      </trkpt>
      <trkpt lat="45.43193" lon="6.21316">
        <ele>1939.4000244141</ele>
        <time>2023-08-08T14:21:55.000Z</time>
      </trkpt>
      <trkpt lat="45.43186" lon="6.21313">
        <ele>1939.8000488281</ele>
        <time>2023-08-08T14:22:01.000Z</time>
      </trkpt>
      <trkpt lat="45.43184" lon="6.21312">
        <ele>1940</ele>
        <time>2023-08-08T14:22:04.000Z</time>
      </trkpt>
      <trkpt lat="45.43181" lon="6.2131">
        <ele>1940.8000488281</ele>
        <time>2023-08-08T14:22:10.000Z</time>
      </trkpt>
      <trkpt lat="45.43174" lon="6.21304">
        <ele>1941.8000488281</ele>
        <time>2023-08-08T14:22:19.000Z</time>
      </trkpt>
      <trkpt lat="45.43171" lon="6.21299">
        <ele>1942</ele>
        <time>2023-08-08T14:22:22.000Z</time>
      </trkpt>
      <trkpt lat="45.43169" lon="6.21297">
        <ele>1942.1999511719</ele>
        <time>2023-08-08T14:22:25.000Z</time>
      </trkpt>
      <trkpt lat="45.43165" lon="6.21294">
        <ele>1943</ele>
        <time>2023-08-08T14:22:30.000Z</time>
      </trkpt>
      <trkpt lat="45.43165" lon="6.21293">
        <ele>1943.4000244141</ele>
        <time>2023-08-08T14:22:33.000Z</time>
      </trkpt>
      <trkpt lat="45.43164" lon="6.21293">
        <ele>1944.1999511719</ele>
        <time>2023-08-08T14:22:38.000Z</time>
      </trkpt>
      <trkpt lat="45.43159" lon="6.21293">
        <ele>1944.5999755859</ele>
        <time>2023-08-08T14:22:42.000Z</time>
      </trkpt>
      <trkpt lat="45.43149" lon="6.21294">
        <ele>1945</ele>
        <time>2023-08-08T14:22:52.000Z</time>
      </trkpt>
      <trkpt lat="45.43141" lon="6.21295">
        <ele>1946</ele>
        <time>2023-08-08T14:23:05.000Z</time>
      </trkpt>
      <trkpt lat="45.4314" lon="6.21297">
        <ele>1946.4000244141</ele>
        <time>2023-08-08T14:23:09.000Z</time>
      </trkpt>
      <trkpt lat="45.43135" lon="6.21302">
        <ele>1947.1999511719</ele>
        <time>2023-08-08T14:23:14.000Z</time>
      </trkpt>
      <trkpt lat="45.43133" lon="6.21303">
        <ele>1947.5999755859</ele>
        <time>2023-08-08T14:23:17.000Z</time>
      </trkpt>
      <trkpt lat="45.4313" lon="6.21303">
        <ele>1948.1999511719</ele>
        <time>2023-08-08T14:23:21.000Z</time>
      </trkpt>
      <trkpt lat="45.43122" lon="6.21306">
        <ele>1948.1999511719</ele>
        <time>2023-08-08T14:23:27.000Z</time>
      </trkpt>
      <trkpt lat="45.43117" lon="6.21307">
        <ele>1948.8000488281</ele>
        <time>2023-08-08T14:23:32.000Z</time>
      </trkpt>
      <trkpt lat="45.43115" lon="6.21307">
        <ele>1949.1999511719</ele>
        <time>2023-08-08T14:23:34.000Z</time>
      </trkpt>
      <trkpt lat="45.4311" lon="6.21307">
        <ele>1949.8000488281</ele>
        <time>2023-08-08T14:23:39.000Z</time>
      </trkpt>
      <trkpt lat="45.43109" lon="6.21307">
        <ele>1950</ele>
        <time>2023-08-08T14:23:41.000Z</time>
      </trkpt>
      <trkpt lat="45.43101" lon="6.21305">
        <ele>1950.4000244141</ele>
        <time>2023-08-08T14:23:51.000Z</time>
      </trkpt>
      <trkpt lat="45.4309" lon="6.21307">
        <ele>1950.8000488281</ele>
        <time>2023-08-08T14:23:58.000Z</time>
      </trkpt>
      <trkpt lat="45.43087" lon="6.21307">
        <ele>1950.8000488281</ele>
        <time>2023-08-08T14:24:00.000Z</time>
      </trkpt>
      <trkpt lat="45.43078" lon="6.2131">
        <ele>1951.8000488281</ele>
        <time>2023-08-08T14:24:11.000Z</time>
      </trkpt>
      <trkpt lat="45.43072" lon="6.21311">
        <ele>1952.8000488281</ele>
        <time>2023-08-08T14:24:17.000Z</time>
      </trkpt>
      <trkpt lat="45.43071" lon="6.21311">
        <ele>1953</ele>
        <time>2023-08-08T14:24:18.000Z</time>
      </trkpt>
      <trkpt lat="45.43068" lon="6.21309">
        <ele>1953.8000488281</ele>
        <time>2023-08-08T14:24:24.000Z</time>
      </trkpt>
      <trkpt lat="45.43067" lon="6.21309">
        <ele>1954</ele>
        <time>2023-08-08T14:24:25.000Z</time>
      </trkpt>
      <trkpt lat="45.43061" lon="6.21308">
        <ele>1954.5999755859</ele>
        <time>2023-08-08T14:24:32.000Z</time>
      </trkpt>
      <trkpt lat="45.43049" lon="6.213">
        <ele>1956.4000244141</ele>
        <time>2023-08-08T14:24:47.000Z</time>
      </trkpt>
      <trkpt lat="45.43049" lon="6.213">
        <ele>1957.1999511719</ele>
        <time>2023-08-08T14:24:52.000Z</time>
      </trkpt>
      <trkpt lat="45.43049" lon="6.213">
        <ele>1957.4000244141</ele>
        <time>2023-08-08T14:24:53.000Z</time>
      </trkpt>
      <trkpt lat="45.43042" lon="6.21296">
        <ele>1958.4000244141</ele>
        <time>2023-08-08T14:25:02.000Z</time>
      </trkpt>
      <trkpt lat="45.43018" lon="6.2128">
        <ele>1960.4000244141</ele>
        <time>2023-08-08T14:25:29.000Z</time>
      </trkpt>
      <trkpt lat="45.43016" lon="6.21278">
        <ele>1960.5999755859</ele>
        <time>2023-08-08T14:25:31.000Z</time>
      </trkpt>
      <trkpt lat="45.43014" lon="6.21277">
        <ele>1960.8000488281</ele>
        <time>2023-08-08T14:25:34.000Z</time>
      </trkpt>
      <trkpt lat="45.43008" lon="6.21269">
        <ele>1960.5999755859</ele>
        <time>2023-08-08T14:25:49.000Z</time>
      </trkpt>
      <trkpt lat="45.43007" lon="6.21269">
        <ele>1960.5999755859</ele>
        <time>2023-08-08T14:25:52.000Z</time>
      </trkpt>
      <trkpt lat="45.43002" lon="6.21265">
        <ele>1961.5999755859</ele>
        <time>2023-08-08T14:25:59.000Z</time>
      </trkpt>
      <trkpt lat="45.43002" lon="6.21264">
        <ele>1962</ele>
        <time>2023-08-08T14:26:00.000Z</time>
      </trkpt>
      <trkpt lat="45.42997" lon="6.2126">
        <ele>1962.8000488281</ele>
        <time>2023-08-08T14:26:08.000Z</time>
      </trkpt>
      <trkpt lat="45.42971" lon="6.21251">
        <ele>1963</ele>
        <time>2023-08-08T14:26:41.000Z</time>
      </trkpt>
      <trkpt lat="45.42971" lon="6.21251">
        <ele>1963</ele>
        <time>2023-08-08T14:26:42.000Z</time>
      </trkpt>
      <trkpt lat="45.42949" lon="6.21237">
        <ele>1967</ele>
        <time>2023-08-08T14:27:22.000Z</time>
      </trkpt>
      <trkpt lat="45.42912" lon="6.2122">
        <ele>1971</ele>
        <time>2023-08-08T14:27:56.000Z</time>
      </trkpt>
      <trkpt lat="45.42906" lon="6.21216">
        <ele>1971.5999755859</ele>
        <time>2023-08-08T14:28:01.000Z</time>
      </trkpt>
      <trkpt lat="45.42905" lon="6.21217">
        <ele>1971.8000488281</ele>
        <time>2023-08-08T14:28:02.000Z</time>
      </trkpt>
      <trkpt lat="45.42896" lon="6.21205">
        <ele>1973</ele>
        <time>2023-08-08T14:28:20.000Z</time>
      </trkpt>
      <trkpt lat="45.4289" lon="6.21203">
        <ele>1973.8000488281</ele>
        <time>2023-08-08T14:28:26.000Z</time>
      </trkpt>
      <trkpt lat="45.42879" lon="6.21198">
        <ele>1974.8000488281</ele>
        <time>2023-08-08T14:28:35.000Z</time>
      </trkpt>
      <trkpt lat="45.42867" lon="6.21187">
        <ele>1977</ele>
        <time>2023-08-08T14:28:49.000Z</time>
      </trkpt>
      <trkpt lat="45.42859" lon="6.21185">
        <ele>1977.1999511719</ele>
        <time>2023-08-08T14:28:54.000Z</time>
      </trkpt>
      <trkpt lat="45.42805" lon="6.21159">
        <ele>1982.5999755859</ele>
        <time>2023-08-08T14:29:46.000Z</time>
      </trkpt>
      <trkpt lat="45.42805" lon="6.21159">
        <ele>1983</ele>
        <time>2023-08-08T14:29:48.000Z</time>
      </trkpt>
      <trkpt lat="45.42801" lon="6.21158">
        <ele>1983.5999755859</ele>
        <time>2023-08-08T14:29:53.000Z</time>
      </trkpt>
      <trkpt lat="45.42795" lon="6.21157">
        <ele>1984.4000244141</ele>
        <time>2023-08-08T14:29:59.000Z</time>
      </trkpt>
      <trkpt lat="45.42794" lon="6.21156">
        <ele>1984.5999755859</ele>
        <time>2023-08-08T14:30:02.000Z</time>
      </trkpt>
      <trkpt lat="45.42793" lon="6.21154">
        <ele>1985.5999755859</ele>
        <time>2023-08-08T14:30:06.000Z</time>
      </trkpt>
      <trkpt lat="45.42795" lon="6.21153">
        <ele>1985.8000488281</ele>
        <time>2023-08-08T14:30:07.000Z</time>
      </trkpt>
      <trkpt lat="45.42799" lon="6.21147">
        <ele>1986.1999511719</ele>
        <time>2023-08-08T14:30:13.000Z</time>
      </trkpt>
      <trkpt lat="45.42803" lon="6.21148">
        <ele>1986.8000488281</ele>
        <time>2023-08-08T14:30:18.000Z</time>
      </trkpt>
      <trkpt lat="45.42803" lon="6.21148">
        <ele>1986.8000488281</ele>
        <time>2023-08-08T14:30:19.000Z</time>
      </trkpt>
      <trkpt lat="45.42804" lon="6.21147">
        <ele>1985.8000488281</ele>
        <time>2023-08-08T14:30:28.000Z</time>
      </trkpt>
      <trkpt lat="45.42803" lon="6.21147">
        <ele>1986</ele>
        <time>2023-08-08T14:30:35.000Z</time>
      </trkpt>
      <trkpt lat="45.42801" lon="6.21145">
        <ele>1985.1999511719</ele>
        <time>2023-08-08T14:30:44.000Z</time>
      </trkpt>
      <trkpt lat="45.42804" lon="6.21144">
        <ele>1986</ele>
        <time>2023-08-08T14:30:55.000Z</time>
      </trkpt>
      <trkpt lat="45.42806" lon="6.21149">
        <ele>1986.1999511719</ele>
        <time>2023-08-08T14:31:05.000Z</time>
      </trkpt>
      <trkpt lat="45.42805" lon="6.21146">
        <ele>1986.4000244141</ele>
        <time>2023-08-08T14:31:13.000Z</time>
      </trkpt>
      <trkpt lat="45.42804" lon="6.21142">
        <ele>1986.1999511719</ele>
        <time>2023-08-08T14:31:18.000Z</time>
      </trkpt>
      <trkpt lat="45.42801" lon="6.21137">
        <ele>1987.1999511719</ele>
        <time>2023-08-08T14:31:25.000Z</time>
      </trkpt>
      <trkpt lat="45.42801" lon="6.21137">
        <ele>1988.5999755859</ele>
        <time>2023-08-08T14:31:27.000Z</time>
      </trkpt>
      <trkpt lat="45.428" lon="6.21139">
        <ele>1988.4000244141</ele>
        <time>2023-08-08T14:31:34.000Z</time>
      </trkpt>
      <trkpt lat="45.42803" lon="6.21138">
        <ele>1987.5999755859</ele>
        <time>2023-08-08T14:31:40.000Z</time>
      </trkpt>
      <trkpt lat="45.42799" lon="6.21141">
        <ele>1987.5999755859</ele>
        <time>2023-08-08T14:31:47.000Z</time>
      </trkpt>
      <trkpt lat="45.42799" lon="6.21141">
        <ele>1987.4000244141</ele>
        <time>2023-08-08T14:31:49.000Z</time>
      </trkpt>
      <trkpt lat="45.42797" lon="6.2114">
        <ele>1987.4000244141</ele>
        <time>2023-08-08T14:31:57.000Z</time>
      </trkpt>
      <trkpt lat="45.42799" lon="6.2114">
        <ele>1987.8000488281</ele>
        <time>2023-08-08T14:32:04.000Z</time>
      </trkpt>
      <trkpt lat="45.42798" lon="6.21139">
        <ele>1986.5999755859</ele>
        <time>2023-08-08T14:32:13.000Z</time>
      </trkpt>
      <trkpt lat="45.42798" lon="6.21139">
        <ele>1986.1999511719</ele>
        <time>2023-08-08T14:32:14.000Z</time>
      </trkpt>
      <trkpt lat="45.42799" lon="6.21139">
        <ele>1985</ele>
        <time>2023-08-08T14:32:19.000Z</time>
      </trkpt>
      <trkpt lat="45.42799" lon="6.21139">
        <ele>1983.5999755859</ele>
        <time>2023-08-08T14:32:21.000Z</time>
      </trkpt>
      <trkpt lat="45.42799" lon="6.21139">
        <ele>1983.5999755859</ele>
        <time>2023-08-08T14:32:22.000Z</time>
      </trkpt>
      <trkpt lat="45.42798" lon="6.2114">
        <ele>1983.5999755859</ele>
        <time>2023-08-08T14:32:31.000Z</time>
      </trkpt>
      <trkpt lat="45.42796" lon="6.21137">
        <ele>1983.8000488281</ele>
        <time>2023-08-08T14:32:39.000Z</time>
      </trkpt>
      <trkpt lat="45.42794" lon="6.21135">
        <ele>1984.5999755859</ele>
        <time>2023-08-08T14:32:42.000Z</time>
      </trkpt>
      <trkpt lat="45.42793" lon="6.21131">
        <ele>1983.4000244141</ele>
        <time>2023-08-08T14:32:46.000Z</time>
      </trkpt>
      <trkpt lat="45.42793" lon="6.2113">
        <ele>1982</ele>
        <time>2023-08-08T14:32:48.000Z</time>
      </trkpt>
      <trkpt lat="45.42793" lon="6.21126">
        <ele>1981</ele>
        <time>2023-08-08T14:32:53.000Z</time>
      </trkpt>
      <trkpt lat="45.42793" lon="6.21123">
        <ele>1981</ele>
        <time>2023-08-08T14:32:57.000Z</time>
      </trkpt>
      <trkpt lat="45.42792" lon="6.2112">
        <ele>1980.4000244141</ele>
        <time>2023-08-08T14:33:00.000Z</time>
      </trkpt>
      <trkpt lat="45.42791" lon="6.21119">
        <ele>1979.8000488281</ele>
        <time>2023-08-08T14:33:01.000Z</time>
      </trkpt>
      <trkpt lat="45.42789" lon="6.21118">
        <ele>1979.1999511719</ele>
        <time>2023-08-08T14:33:05.000Z</time>
      </trkpt>
      <trkpt lat="45.42787" lon="6.21119">
        <ele>1979.1999511719</ele>
        <time>2023-08-08T14:33:08.000Z</time>
      </trkpt>
      <trkpt lat="45.42786" lon="6.2112">
        <ele>1978.8000488281</ele>
        <time>2023-08-08T14:33:12.000Z</time>
      </trkpt>
      <trkpt lat="45.42787" lon="6.21119">
        <ele>1978.4000244141</ele>
        <time>2023-08-08T14:33:14.000Z</time>
      </trkpt>
      <trkpt lat="45.42788" lon="6.21117">
        <ele>1977.5999755859</ele>
        <time>2023-08-08T14:33:19.000Z</time>
      </trkpt>
      <trkpt lat="45.42789" lon="6.21117">
        <ele>1977.4000244141</ele>
        <time>2023-08-08T14:33:21.000Z</time>
      </trkpt>
      <trkpt lat="45.42786" lon="6.21119">
        <ele>1977.5999755859</ele>
        <time>2023-08-08T14:33:31.000Z</time>
      </trkpt>
      <trkpt lat="45.42782" lon="6.21115">
        <ele>1978</ele>
        <time>2023-08-08T14:33:39.000Z</time>
      </trkpt>
      <trkpt lat="45.42782" lon="6.21113">
        <ele>1976.1999511719</ele>
        <time>2023-08-08T14:33:44.000Z</time>
      </trkpt>
      <trkpt lat="45.42783" lon="6.21111">
        <ele>1975.5999755859</ele>
        <time>2023-08-08T14:33:47.000Z</time>
      </trkpt>
      <trkpt lat="45.42784" lon="6.21108">
        <ele>1975</ele>
        <time>2023-08-08T14:33:49.000Z</time>
      </trkpt>
      <trkpt lat="45.42786" lon="6.21105">
        <ele>1974</ele>
        <time>2023-08-08T14:33:53.000Z</time>
      </trkpt>
      <trkpt lat="45.42786" lon="6.21104">
        <ele>1973.5999755859</ele>
        <time>2023-08-08T14:33:54.000Z</time>
      </trkpt>
      <trkpt lat="45.42785" lon="6.21104">
        <ele>1973.5999755859</ele>
        <time>2023-08-08T14:33:56.000Z</time>
      </trkpt>
      <trkpt lat="45.42784" lon="6.21099">
        <ele>1972.5999755859</ele>
        <time>2023-08-08T14:34:01.000Z</time>
      </trkpt>
      <trkpt lat="45.42784" lon="6.21098">
        <ele>1972</ele>
        <time>2023-08-08T14:34:03.000Z</time>
      </trkpt>
      <trkpt lat="45.42783" lon="6.21098">
        <ele>1971.1999511719</ele>
        <time>2023-08-08T14:34:06.000Z</time>
      </trkpt>
      <trkpt lat="45.42783" lon="6.21097">
        <ele>1971.1999511719</ele>
        <time>2023-08-08T14:34:07.000Z</time>
      </trkpt>
      <trkpt lat="45.42783" lon="6.21097">
        <ele>1971</ele>
        <time>2023-08-08T14:34:09.000Z</time>
      </trkpt>
      <trkpt lat="45.42786" lon="6.21094">
        <ele>1970.4000244141</ele>
        <time>2023-08-08T14:34:15.000Z</time>
      </trkpt>
      <trkpt lat="45.42785" lon="6.21094">
        <ele>1970.1999511719</ele>
        <time>2023-08-08T14:34:16.000Z</time>
      </trkpt>
      <trkpt lat="45.42783" lon="6.2109">
        <ele>1969.1999511719</ele>
        <time>2023-08-08T14:34:21.000Z</time>
      </trkpt>
      <trkpt lat="45.42783" lon="6.21089">
        <ele>1968.8000488281</ele>
        <time>2023-08-08T14:34:22.000Z</time>
      </trkpt>
      <trkpt lat="45.42784" lon="6.21086">
        <ele>1967.1999511719</ele>
        <time>2023-08-08T14:34:27.000Z</time>
      </trkpt>
      <trkpt lat="45.42784" lon="6.21086">
        <ele>1966.5999755859</ele>
        <time>2023-08-08T14:34:28.000Z</time>
      </trkpt>
      <trkpt lat="45.42784" lon="6.21084">
        <ele>1966.1999511719</ele>
        <time>2023-08-08T14:34:30.000Z</time>
      </trkpt>
      <trkpt lat="45.42784" lon="6.21082">
        <ele>1965.1999511719</ele>
        <time>2023-08-08T14:34:35.000Z</time>
      </trkpt>
      <trkpt lat="45.42784" lon="6.21081">
        <ele>1965</ele>
        <time>2023-08-08T14:34:36.000Z</time>
      </trkpt>
      <trkpt lat="45.42785" lon="6.21076">
        <ele>1964</ele>
        <time>2023-08-08T14:34:41.000Z</time>
      </trkpt>
      <trkpt lat="45.42784" lon="6.21073">
        <ele>1963</ele>
        <time>2023-08-08T14:34:49.000Z</time>
      </trkpt>
      <trkpt lat="45.42784" lon="6.21072">
        <ele>1962.8000488281</ele>
        <time>2023-08-08T14:34:50.000Z</time>
      </trkpt>
      <trkpt lat="45.42785" lon="6.21067">
        <ele>1961.5999755859</ele>
        <time>2023-08-08T14:34:56.000Z</time>
      </trkpt>
      <trkpt lat="45.42784" lon="6.21065">
        <ele>1961.1999511719</ele>
        <time>2023-08-08T14:34:58.000Z</time>
      </trkpt>
      <trkpt lat="45.42782" lon="6.21062">
        <ele>1960.4000244141</ele>
        <time>2023-08-08T14:35:02.000Z</time>
      </trkpt>
      <trkpt lat="45.4278" lon="6.21062">
        <ele>1960</ele>
        <time>2023-08-08T14:35:06.000Z</time>
      </trkpt>
      <trkpt lat="45.42779" lon="6.21063">
        <ele>1959.4000244141</ele>
        <time>2023-08-08T14:35:09.000Z</time>
      </trkpt>
      <trkpt lat="45.42776" lon="6.21063">
        <ele>1958.8000488281</ele>
        <time>2023-08-08T14:35:13.000Z</time>
      </trkpt>
      <trkpt lat="45.42776" lon="6.21061">
        <ele>1958.1999511719</ele>
        <time>2023-08-08T14:35:15.000Z</time>
      </trkpt>
      <trkpt lat="45.42777" lon="6.21058">
        <ele>1957.1999511719</ele>
        <time>2023-08-08T14:35:22.000Z</time>
      </trkpt>
      <trkpt lat="45.42777" lon="6.21057">
        <ele>1957</ele>
        <time>2023-08-08T14:35:23.000Z</time>
      </trkpt>
      <trkpt lat="45.42775" lon="6.21056">
        <ele>1956.1999511719</ele>
        <time>2023-08-08T14:35:28.000Z</time>
      </trkpt>
      <trkpt lat="45.42773" lon="6.21056">
        <ele>1955.8000488281</ele>
        <time>2023-08-08T14:35:30.000Z</time>
      </trkpt>
      <trkpt lat="45.42769" lon="6.21059">
        <ele>1955.1999511719</ele>
        <time>2023-08-08T14:35:36.000Z</time>
      </trkpt>
      <trkpt lat="45.4277" lon="6.21056">
        <ele>1954.5999755859</ele>
        <time>2023-08-08T14:35:41.000Z</time>
      </trkpt>
      <trkpt lat="45.42771" lon="6.21053">
        <ele>1954.1999511719</ele>
        <time>2023-08-08T14:35:43.000Z</time>
      </trkpt>
      <trkpt lat="45.42773" lon="6.21048">
        <ele>1953.4000244141</ele>
        <time>2023-08-08T14:35:48.000Z</time>
      </trkpt>
      <trkpt lat="45.42773" lon="6.21047">
        <ele>1953</ele>
        <time>2023-08-08T14:35:50.000Z</time>
      </trkpt>
      <trkpt lat="45.42772" lon="6.21043">
        <ele>1952.1999511719</ele>
        <time>2023-08-08T14:35:54.000Z</time>
      </trkpt>
      <trkpt lat="45.42773" lon="6.21042">
        <ele>1951.4000244141</ele>
        <time>2023-08-08T14:35:59.000Z</time>
      </trkpt>
      <trkpt lat="45.42774" lon="6.21039">
        <ele>1951.4000244141</ele>
        <time>2023-08-08T14:36:07.000Z</time>
      </trkpt>
      <trkpt lat="45.42773" lon="6.21039">
        <ele>1951.5999755859</ele>
        <time>2023-08-08T14:36:14.000Z</time>
      </trkpt>
      <trkpt lat="45.42774" lon="6.21042">
        <ele>1951.5999755859</ele>
        <time>2023-08-08T14:36:19.000Z</time>
      </trkpt>
      <trkpt lat="45.42774" lon="6.2104">
        <ele>1951</ele>
        <time>2023-08-08T14:36:22.000Z</time>
      </trkpt>
      <trkpt lat="45.42776" lon="6.21038">
        <ele>1950.8000488281</ele>
        <time>2023-08-08T14:36:25.000Z</time>
      </trkpt>
      <trkpt lat="45.42775" lon="6.21037">
        <ele>1950</ele>
        <time>2023-08-08T14:36:32.000Z</time>
      </trkpt>
      <trkpt lat="45.42775" lon="6.21036">
        <ele>1949.5999755859</ele>
        <time>2023-08-08T14:36:33.000Z</time>
      </trkpt>
      <trkpt lat="45.42775" lon="6.21036">
        <ele>1949</ele>
        <time>2023-08-08T14:36:36.000Z</time>
      </trkpt>
      <trkpt lat="45.42775" lon="6.21032">
        <ele>1948.8000488281</ele>
        <time>2023-08-08T14:36:40.000Z</time>
      </trkpt>
      <trkpt lat="45.42775" lon="6.21029">
        <ele>1947.8000488281</ele>
        <time>2023-08-08T14:36:43.000Z</time>
      </trkpt>
      <trkpt lat="45.42774" lon="6.21028">
        <ele>1947.1999511719</ele>
        <time>2023-08-08T14:36:48.000Z</time>
      </trkpt>
      <trkpt lat="45.42773" lon="6.21026">
        <ele>1946.8000488281</ele>
        <time>2023-08-08T14:36:51.000Z</time>
      </trkpt>
      <trkpt lat="45.42772" lon="6.21021">
        <ele>1945.8000488281</ele>
        <time>2023-08-08T14:36:55.000Z</time>
      </trkpt>
      <trkpt lat="45.42771" lon="6.2102">
        <ele>1945.8000488281</ele>
        <time>2023-08-08T14:36:56.000Z</time>
      </trkpt>
      <trkpt lat="45.42769" lon="6.21014">
        <ele>1944.4000244141</ele>
        <time>2023-08-08T14:37:04.000Z</time>
      </trkpt>
      <trkpt lat="45.42768" lon="6.21012">
        <ele>1943.5999755859</ele>
        <time>2023-08-08T14:37:06.000Z</time>
      </trkpt>
      <trkpt lat="45.42768" lon="6.21011">
        <ele>1943.4000244141</ele>
        <time>2023-08-08T14:37:07.000Z</time>
      </trkpt>
      <trkpt lat="45.42767" lon="6.21006">
        <ele>1942.1999511719</ele>
        <time>2023-08-08T14:37:11.000Z</time>
      </trkpt>
      <trkpt lat="45.42767" lon="6.21004">
        <ele>1941.5999755859</ele>
        <time>2023-08-08T14:37:13.000Z</time>
      </trkpt>
      <trkpt lat="45.42767" lon="6.21003">
        <ele>1941.1999511719</ele>
        <time>2023-08-08T14:37:14.000Z</time>
      </trkpt>
      <trkpt lat="45.42766" lon="6.20999">
        <ele>1940</ele>
        <time>2023-08-08T14:37:19.000Z</time>
      </trkpt>
      <trkpt lat="45.42765" lon="6.20996">
        <ele>1939.4000244141</ele>
        <time>2023-08-08T14:37:22.000Z</time>
      </trkpt>
      <trkpt lat="45.42765" lon="6.20993">
        <ele>1938.8000488281</ele>
        <time>2023-08-08T14:37:25.000Z</time>
      </trkpt>
      <trkpt lat="45.42763" lon="6.20989">
        <ele>1938.4000244141</ele>
        <time>2023-08-08T14:37:28.000Z</time>
      </trkpt>
      <trkpt lat="45.42761" lon="6.20985">
        <ele>1937.5999755859</ele>
        <time>2023-08-08T14:37:32.000Z</time>
      </trkpt>
      <trkpt lat="45.42759" lon="6.20981">
        <ele>1936.5999755859</ele>
        <time>2023-08-08T14:37:36.000Z</time>
      </trkpt>
      <trkpt lat="45.42758" lon="6.20977">
        <ele>1936</ele>
        <time>2023-08-08T14:37:42.000Z</time>
      </trkpt>
      <trkpt lat="45.42758" lon="6.20972">
        <ele>1935.4000244141</ele>
        <time>2023-08-08T14:37:47.000Z</time>
      </trkpt>
      <trkpt lat="45.42758" lon="6.20967">
        <ele>1935.1999511719</ele>
        <time>2023-08-08T14:37:50.000Z</time>
      </trkpt>
      <trkpt lat="45.42757" lon="6.20965">
        <ele>1934.1999511719</ele>
        <time>2023-08-08T14:37:54.000Z</time>
      </trkpt>
      <trkpt lat="45.42756" lon="6.20964">
        <ele>1933.8000488281</ele>
        <time>2023-08-08T14:37:57.000Z</time>
      </trkpt>
      <trkpt lat="45.42755" lon="6.20964">
        <ele>1933.1999511719</ele>
        <time>2023-08-08T14:38:00.000Z</time>
      </trkpt>
      <trkpt lat="45.42753" lon="6.20962">
        <ele>1932.4000244141</ele>
        <time>2023-08-08T14:38:05.000Z</time>
      </trkpt>
      <trkpt lat="45.42752" lon="6.20961">
        <ele>1932</ele>
        <time>2023-08-08T14:38:06.000Z</time>
      </trkpt>
      <trkpt lat="45.4275" lon="6.20954">
        <ele>1931.1999511719</ele>
        <time>2023-08-08T14:38:14.000Z</time>
      </trkpt>
      <trkpt lat="45.4275" lon="6.20953">
        <ele>1931</ele>
        <time>2023-08-08T14:38:15.000Z</time>
      </trkpt>
      <trkpt lat="45.42749" lon="6.20946">
        <ele>1929.5999755859</ele>
        <time>2023-08-08T14:38:21.000Z</time>
      </trkpt>
      <trkpt lat="45.42749" lon="6.20945">
        <ele>1929</ele>
        <time>2023-08-08T14:38:23.000Z</time>
      </trkpt>
      <trkpt lat="45.42749" lon="6.20944">
        <ele>1928.5999755859</ele>
        <time>2023-08-08T14:38:25.000Z</time>
      </trkpt>
      <trkpt lat="45.4275" lon="6.20944">
        <ele>1928.4000244141</ele>
        <time>2023-08-08T14:38:32.000Z</time>
      </trkpt>
      <trkpt lat="45.42751" lon="6.20946">
        <ele>1928.4000244141</ele>
        <time>2023-08-08T14:38:39.000Z</time>
      </trkpt>
      <trkpt lat="45.42749" lon="6.20944">
        <ele>1928.5999755859</ele>
        <time>2023-08-08T14:38:47.000Z</time>
      </trkpt>
      <trkpt lat="45.42745" lon="6.20936">
        <ele>1928</ele>
        <time>2023-08-08T14:38:55.000Z</time>
      </trkpt>
      <trkpt lat="45.42745" lon="6.20933">
        <ele>1927.4000244141</ele>
        <time>2023-08-08T14:38:57.000Z</time>
      </trkpt>
      <trkpt lat="45.42743" lon="6.20926">
        <ele>1926.1999511719</ele>
        <time>2023-08-08T14:39:03.000Z</time>
      </trkpt>
      <trkpt lat="45.42738" lon="6.20914">
        <ele>1925.5999755859</ele>
        <time>2023-08-08T14:39:11.000Z</time>
      </trkpt>
      <trkpt lat="45.42737" lon="6.20911">
        <ele>1925.1999511719</ele>
        <time>2023-08-08T14:39:13.000Z</time>
      </trkpt>
      <trkpt lat="45.42734" lon="6.20905">
        <ele>1924.4000244141</ele>
        <time>2023-08-08T14:39:18.000Z</time>
      </trkpt>
      <trkpt lat="45.42733" lon="6.20904">
        <ele>1924.1999511719</ele>
        <time>2023-08-08T14:39:21.000Z</time>
      </trkpt>
      <trkpt lat="45.42731" lon="6.20904">
        <ele>1923</ele>
        <time>2023-08-08T14:39:27.000Z</time>
      </trkpt>
      <trkpt lat="45.42729" lon="6.20896">
        <ele>1922</ele>
        <time>2023-08-08T14:39:34.000Z</time>
      </trkpt>
      <trkpt lat="45.42728" lon="6.20894">
        <ele>1921.8000488281</ele>
        <time>2023-08-08T14:39:36.000Z</time>
      </trkpt>
      <trkpt lat="45.42727" lon="6.20888">
        <ele>1921</ele>
        <time>2023-08-08T14:39:40.000Z</time>
      </trkpt>
      <trkpt lat="45.42727" lon="6.20882">
        <ele>1920.1999511719</ele>
        <time>2023-08-08T14:39:45.000Z</time>
      </trkpt>
      <trkpt lat="45.42727" lon="6.20879">
        <ele>1919.5999755859</ele>
        <time>2023-08-08T14:39:47.000Z</time>
      </trkpt>
      <trkpt lat="45.42728" lon="6.20874">
        <ele>1918.5999755859</ele>
        <time>2023-08-08T14:39:51.000Z</time>
      </trkpt>
      <trkpt lat="45.42728" lon="6.2087">
        <ele>1918.4000244141</ele>
        <time>2023-08-08T14:39:53.000Z</time>
      </trkpt>
      <trkpt lat="45.42727" lon="6.20862">
        <ele>1917.4000244141</ele>
        <time>2023-08-08T14:40:00.000Z</time>
      </trkpt>
      <trkpt lat="45.42725" lon="6.20856">
        <ele>1916.4000244141</ele>
        <time>2023-08-08T14:40:06.000Z</time>
      </trkpt>
      <trkpt lat="45.42725" lon="6.20855">
        <ele>1916.1999511719</ele>
        <time>2023-08-08T14:40:07.000Z</time>
      </trkpt>
      <trkpt lat="45.42725" lon="6.20847">
        <ele>1915.1999511719</ele>
        <time>2023-08-08T14:40:13.000Z</time>
      </trkpt>
      <trkpt lat="45.42725" lon="6.20846">
        <ele>1915</ele>
        <time>2023-08-08T14:40:14.000Z</time>
      </trkpt>
      <trkpt lat="45.42725" lon="6.20838">
        <ele>1914.1999511719</ele>
        <time>2023-08-08T14:40:19.000Z</time>
      </trkpt>
      <trkpt lat="45.42724" lon="6.20832">
        <ele>1913.5999755859</ele>
        <time>2023-08-08T14:40:22.000Z</time>
      </trkpt>
      <trkpt lat="45.42723" lon="6.20822">
        <ele>1912.8000488281</ele>
        <time>2023-08-08T14:40:29.000Z</time>
      </trkpt>
      <trkpt lat="45.42722" lon="6.20821">
        <ele>1912.4000244141</ele>
        <time>2023-08-08T14:40:30.000Z</time>
      </trkpt>
      <trkpt lat="45.42718" lon="6.20808">
        <ele>1912.5999755859</ele>
        <time>2023-08-08T14:40:37.000Z</time>
      </trkpt>
      <trkpt lat="45.42714" lon="6.20799">
        <ele>1912.8000488281</ele>
        <time>2023-08-08T14:40:44.000Z</time>
      </trkpt>
      <trkpt lat="45.42706" lon="6.20791">
        <ele>1913.8000488281</ele>
        <time>2023-08-08T14:40:52.000Z</time>
      </trkpt>
      <trkpt lat="45.42704" lon="6.20789">
        <ele>1913.8000488281</ele>
        <time>2023-08-08T14:40:54.000Z</time>
      </trkpt>
      <trkpt lat="45.427" lon="6.20783">
        <ele>1914.1999511719</ele>
        <time>2023-08-08T14:40:59.000Z</time>
      </trkpt>
      <trkpt lat="45.42693" lon="6.20773">
        <ele>1914.5999755859</ele>
        <time>2023-08-08T14:41:07.000Z</time>
      </trkpt>
      <trkpt lat="45.42691" lon="6.20771">
        <ele>1915</ele>
        <time>2023-08-08T14:41:10.000Z</time>
      </trkpt>
      <trkpt lat="45.42688" lon="6.20768">
        <ele>1915.1999511719</ele>
        <time>2023-08-08T14:41:14.000Z</time>
      </trkpt>
      <trkpt lat="45.42685" lon="6.2076">
        <ele>1915.1999511719</ele>
        <time>2023-08-08T14:41:21.000Z</time>
      </trkpt>
      <trkpt lat="45.42681" lon="6.2075">
        <ele>1914.1999511719</ele>
        <time>2023-08-08T14:41:28.000Z</time>
      </trkpt>
      <trkpt lat="45.42679" lon="6.20746">
        <ele>1913.8000488281</ele>
        <time>2023-08-08T14:41:30.000Z</time>
      </trkpt>
      <trkpt lat="45.42676" lon="6.20742">
        <ele>1912.5999755859</ele>
        <time>2023-08-08T14:41:33.000Z</time>
      </trkpt>
      <trkpt lat="45.42675" lon="6.20741">
        <ele>1912</ele>
        <time>2023-08-08T14:41:35.000Z</time>
      </trkpt>
      <trkpt lat="45.42675" lon="6.20741">
        <ele>1911.5999755859</ele>
        <time>2023-08-08T14:41:37.000Z</time>
      </trkpt>
      <trkpt lat="45.42674" lon="6.20737">
        <ele>1911</ele>
        <time>2023-08-08T14:41:41.000Z</time>
      </trkpt>
      <trkpt lat="45.4267" lon="6.2073">
        <ele>1910.4000244141</ele>
        <time>2023-08-08T14:41:46.000Z</time>
      </trkpt>
      <trkpt lat="45.42668" lon="6.20728">
        <ele>1909.8000488281</ele>
        <time>2023-08-08T14:41:49.000Z</time>
      </trkpt>
      <trkpt lat="45.42667" lon="6.20727">
        <ele>1909.4000244141</ele>
        <time>2023-08-08T14:41:52.000Z</time>
      </trkpt>
      <trkpt lat="45.42664" lon="6.20722">
        <ele>1908.8000488281</ele>
        <time>2023-08-08T14:41:56.000Z</time>
      </trkpt>
      <trkpt lat="45.42662" lon="6.20718">
        <ele>1908</ele>
        <time>2023-08-08T14:41:59.000Z</time>
      </trkpt>
      <trkpt lat="45.4266" lon="6.20714">
        <ele>1906.5999755859</ele>
        <time>2023-08-08T14:42:02.000Z</time>
      </trkpt>
      <trkpt lat="45.42659" lon="6.20711">
        <ele>1906.1999511719</ele>
        <time>2023-08-08T14:42:04.000Z</time>
      </trkpt>
      <trkpt lat="45.42657" lon="6.20708">
        <ele>1905.1999511719</ele>
        <time>2023-08-08T14:42:07.000Z</time>
      </trkpt>
      <trkpt lat="45.42654" lon="6.20704">
        <ele>1904.1999511719</ele>
        <time>2023-08-08T14:42:11.000Z</time>
      </trkpt>
      <trkpt lat="45.42653" lon="6.20702">
        <ele>1903.8000488281</ele>
        <time>2023-08-08T14:42:12.000Z</time>
      </trkpt>
      <trkpt lat="45.42649" lon="6.20695">
        <ele>1903</ele>
        <time>2023-08-08T14:42:18.000Z</time>
      </trkpt>
      <trkpt lat="45.42648" lon="6.20693">
        <ele>1902.4000244141</ele>
        <time>2023-08-08T14:42:19.000Z</time>
      </trkpt>
      <trkpt lat="45.42645" lon="6.20688">
        <ele>1901.4000244141</ele>
        <time>2023-08-08T14:42:25.000Z</time>
      </trkpt>
      <trkpt lat="45.42645" lon="6.20687">
        <ele>1900.8000488281</ele>
        <time>2023-08-08T14:42:26.000Z</time>
      </trkpt>
      <trkpt lat="45.42643" lon="6.20684">
        <ele>1899.8000488281</ele>
        <time>2023-08-08T14:42:29.000Z</time>
      </trkpt>
      <trkpt lat="45.4264" lon="6.20678">
        <ele>1899.1999511719</ele>
        <time>2023-08-08T14:42:33.000Z</time>
      </trkpt>
      <trkpt lat="45.42639" lon="6.20674">
        <ele>1898.8000488281</ele>
        <time>2023-08-08T14:42:36.000Z</time>
      </trkpt>
      <trkpt lat="45.42637" lon="6.2067">
        <ele>1897.8000488281</ele>
        <time>2023-08-08T14:42:41.000Z</time>
      </trkpt>
      <trkpt lat="45.42637" lon="6.2067">
        <ele>1897.5999755859</ele>
        <time>2023-08-08T14:42:42.000Z</time>
      </trkpt>
      <trkpt lat="45.42632" lon="6.20664">
        <ele>1896.4000244141</ele>
        <time>2023-08-08T14:42:48.000Z</time>
      </trkpt>
      <trkpt lat="45.42628" lon="6.20658">
        <ele>1895.1999511719</ele>
        <time>2023-08-08T14:42:54.000Z</time>
      </trkpt>
      <trkpt lat="45.42627" lon="6.20654">
        <ele>1894</ele>
        <time>2023-08-08T14:42:58.000Z</time>
      </trkpt>
      <trkpt lat="45.42624" lon="6.20648">
        <ele>1892.8000488281</ele>
        <time>2023-08-08T14:43:03.000Z</time>
      </trkpt>
      <trkpt lat="45.42622" lon="6.20645">
        <ele>1892.1999511719</ele>
        <time>2023-08-08T14:43:06.000Z</time>
      </trkpt>
      <trkpt lat="45.42621" lon="6.20642">
        <ele>1891.5999755859</ele>
        <time>2023-08-08T14:43:08.000Z</time>
      </trkpt>
      <trkpt lat="45.42619" lon="6.20638">
        <ele>1890.5999755859</ele>
        <time>2023-08-08T14:43:13.000Z</time>
      </trkpt>
      <trkpt lat="45.42618" lon="6.20637">
        <ele>1890.4000244141</ele>
        <time>2023-08-08T14:43:14.000Z</time>
      </trkpt>
      <trkpt lat="45.42617" lon="6.20635">
        <ele>1890.1999511719</ele>
        <time>2023-08-08T14:43:22.000Z</time>
      </trkpt>
      <trkpt lat="45.42617" lon="6.20636">
        <ele>1890.1999511719</ele>
        <time>2023-08-08T14:43:30.000Z</time>
      </trkpt>
      <trkpt lat="45.42617" lon="6.20635">
        <ele>1889.5999755859</ele>
        <time>2023-08-08T14:43:35.000Z</time>
      </trkpt>
      <trkpt lat="45.42616" lon="6.20634">
        <ele>1889.5999755859</ele>
        <time>2023-08-08T14:43:36.000Z</time>
      </trkpt>
      <trkpt lat="45.42612" lon="6.20629">
        <ele>1888.4000244141</ele>
        <time>2023-08-08T14:43:45.000Z</time>
      </trkpt>
      <trkpt lat="45.4261" lon="6.20624">
        <ele>1887</ele>
        <time>2023-08-08T14:43:51.000Z</time>
      </trkpt>
      <trkpt lat="45.42609" lon="6.20623">
        <ele>1887</ele>
        <time>2023-08-08T14:43:52.000Z</time>
      </trkpt>
      <trkpt lat="45.42605" lon="6.20618">
        <ele>1885.8000488281</ele>
        <time>2023-08-08T14:43:58.000Z</time>
      </trkpt>
      <trkpt lat="45.42602" lon="6.20616">
        <ele>1884.8000488281</ele>
        <time>2023-08-08T14:44:03.000Z</time>
      </trkpt>
      <trkpt lat="45.42599" lon="6.20613">
        <ele>1883.5999755859</ele>
        <time>2023-08-08T14:44:07.000Z</time>
      </trkpt>
      <trkpt lat="45.42598" lon="6.20608">
        <ele>1882.5999755859</ele>
        <time>2023-08-08T14:44:12.000Z</time>
      </trkpt>
      <trkpt lat="45.42598" lon="6.20604">
        <ele>1881.4000244141</ele>
        <time>2023-08-08T14:44:17.000Z</time>
      </trkpt>
      <trkpt lat="45.426" lon="6.20605">
        <ele>1881</ele>
        <time>2023-08-08T14:44:26.000Z</time>
      </trkpt>
      <trkpt lat="45.42599" lon="6.20606">
        <ele>1881.1999511719</ele>
        <time>2023-08-08T14:44:32.000Z</time>
      </trkpt>
      <trkpt lat="45.42596" lon="6.20603">
        <ele>1881.1999511719</ele>
        <time>2023-08-08T14:44:38.000Z</time>
      </trkpt>
      <trkpt lat="45.42594" lon="6.20601">
        <ele>1880.1999511719</ele>
        <time>2023-08-08T14:44:44.000Z</time>
      </trkpt>
      <trkpt lat="45.42594" lon="6.20598">
        <ele>1879.8000488281</ele>
        <time>2023-08-08T14:44:47.000Z</time>
      </trkpt>
      <trkpt lat="45.42593" lon="6.20595">
        <ele>1879</ele>
        <time>2023-08-08T14:44:49.000Z</time>
      </trkpt>
      <trkpt lat="45.42592" lon="6.20591">
        <ele>1878</ele>
        <time>2023-08-08T14:44:53.000Z</time>
      </trkpt>
      <trkpt lat="45.42591" lon="6.2059">
        <ele>1877.5999755859</ele>
        <time>2023-08-08T14:44:54.000Z</time>
      </trkpt>
      <trkpt lat="45.4259" lon="6.20587">
        <ele>1876.8000488281</ele>
        <time>2023-08-08T14:44:59.000Z</time>
      </trkpt>
      <trkpt lat="45.4259" lon="6.20585">
        <ele>1876.4000244141</ele>
        <time>2023-08-08T14:45:01.000Z</time>
      </trkpt>
      <trkpt lat="45.42588" lon="6.2058">
        <ele>1875.5999755859</ele>
        <time>2023-08-08T14:45:06.000Z</time>
      </trkpt>
      <trkpt lat="45.42586" lon="6.20577">
        <ele>1874.8000488281</ele>
        <time>2023-08-08T14:45:10.000Z</time>
      </trkpt>
      <trkpt lat="45.42586" lon="6.20577">
        <ele>1874.4000244141</ele>
        <time>2023-08-08T14:45:11.000Z</time>
      </trkpt>
      <trkpt lat="45.42583" lon="6.20575">
        <ele>1873.4000244141</ele>
        <time>2023-08-08T14:45:17.000Z</time>
      </trkpt>
      <trkpt lat="45.42581" lon="6.20569">
        <ele>1872.1999511719</ele>
        <time>2023-08-08T14:45:22.000Z</time>
      </trkpt>
      <trkpt lat="45.4258" lon="6.20567">
        <ele>1871.1999511719</ele>
        <time>2023-08-08T14:45:25.000Z</time>
      </trkpt>
      <trkpt lat="45.42577" lon="6.20563">
        <ele>1869.8000488281</ele>
        <time>2023-08-08T14:45:31.000Z</time>
      </trkpt>
      <trkpt lat="45.42576" lon="6.20561">
        <ele>1869.1999511719</ele>
        <time>2023-08-08T14:45:34.000Z</time>
      </trkpt>
      <trkpt lat="45.42576" lon="6.2056">
        <ele>1868.8000488281</ele>
        <time>2023-08-08T14:45:35.000Z</time>
      </trkpt>
      <trkpt lat="45.42572" lon="6.20555">
        <ele>1867.5999755859</ele>
        <time>2023-08-08T14:45:39.000Z</time>
      </trkpt>
      <trkpt lat="45.42569" lon="6.20553">
        <ele>1867.1999511719</ele>
        <time>2023-08-08T14:45:42.000Z</time>
      </trkpt>
      <trkpt lat="45.42566" lon="6.20553">
        <ele>1866.4000244141</ele>
        <time>2023-08-08T14:45:45.000Z</time>
      </trkpt>
      <trkpt lat="45.42561" lon="6.2055">
        <ele>1865.5999755859</ele>
        <time>2023-08-08T14:45:49.000Z</time>
      </trkpt>
      <trkpt lat="45.4256" lon="6.20549">
        <ele>1865.4000244141</ele>
        <time>2023-08-08T14:45:50.000Z</time>
      </trkpt>
      <trkpt lat="45.42556" lon="6.20543">
        <ele>1864.1999511719</ele>
        <time>2023-08-08T14:45:56.000Z</time>
      </trkpt>
      <trkpt lat="45.42554" lon="6.20536">
        <ele>1863.1999511719</ele>
        <time>2023-08-08T14:46:01.000Z</time>
      </trkpt>
      <trkpt lat="45.42553" lon="6.20532">
        <ele>1862.8000488281</ele>
        <time>2023-08-08T14:46:04.000Z</time>
      </trkpt>
      <trkpt lat="45.42546" lon="6.20518">
        <ele>1862.8000488281</ele>
        <time>2023-08-08T14:46:12.000Z</time>
      </trkpt>
      <trkpt lat="45.42537" lon="6.20505">
        <ele>1862.5999755859</ele>
        <time>2023-08-08T14:46:21.000Z</time>
      </trkpt>
      <trkpt lat="45.42535" lon="6.20501">
        <ele>1862</ele>
        <time>2023-08-08T14:46:25.000Z</time>
      </trkpt>
      <trkpt lat="45.42532" lon="6.20496">
        <ele>1861.4000244141</ele>
        <time>2023-08-08T14:46:30.000Z</time>
      </trkpt>
      <trkpt lat="45.42531" lon="6.20494">
        <ele>1861</ele>
        <time>2023-08-08T14:46:33.000Z</time>
      </trkpt>
      <trkpt lat="45.42531" lon="6.20489">
        <ele>1860.4000244141</ele>
        <time>2023-08-08T14:46:38.000Z</time>
      </trkpt>
      <trkpt lat="45.4253" lon="6.20487">
        <ele>1859.8000488281</ele>
        <time>2023-08-08T14:46:40.000Z</time>
      </trkpt>
      <trkpt lat="45.42529" lon="6.20485">
        <ele>1858.8000488281</ele>
        <time>2023-08-08T14:46:44.000Z</time>
      </trkpt>
      <trkpt lat="45.42528" lon="6.20485">
        <ele>1858.4000244141</ele>
        <time>2023-08-08T14:46:46.000Z</time>
      </trkpt>
      <trkpt lat="45.42526" lon="6.20483">
        <ele>1857.8000488281</ele>
        <time>2023-08-08T14:46:49.000Z</time>
      </trkpt>
      <trkpt lat="45.42522" lon="6.20481">
        <ele>1856.5999755859</ele>
        <time>2023-08-08T14:46:54.000Z</time>
      </trkpt>
      <trkpt lat="45.4252" lon="6.20478">
        <ele>1855.5999755859</ele>
        <time>2023-08-08T14:46:58.000Z</time>
      </trkpt>
      <trkpt lat="45.42517" lon="6.20473">
        <ele>1854.5999755859</ele>
        <time>2023-08-08T14:47:03.000Z</time>
      </trkpt>
      <trkpt lat="45.42513" lon="6.20464">
        <ele>1853.5999755859</ele>
        <time>2023-08-08T14:47:11.000Z</time>
      </trkpt>
      <trkpt lat="45.42512" lon="6.20463">
        <ele>1853.5999755859</ele>
        <time>2023-08-08T14:47:12.000Z</time>
      </trkpt>
      <trkpt lat="45.42509" lon="6.20456">
        <ele>1852.4000244141</ele>
        <time>2023-08-08T14:47:18.000Z</time>
      </trkpt>
      <trkpt lat="45.42509" lon="6.20455">
        <ele>1852</ele>
        <time>2023-08-08T14:47:19.000Z</time>
      </trkpt>
      <trkpt lat="45.42508" lon="6.20447">
        <ele>1851.1999511719</ele>
        <time>2023-08-08T14:47:26.000Z</time>
      </trkpt>
      <trkpt lat="45.42508" lon="6.20446">
        <ele>1851</ele>
        <time>2023-08-08T14:47:27.000Z</time>
      </trkpt>
      <trkpt lat="45.42508" lon="6.20442">
        <ele>1850.1999511719</ele>
        <time>2023-08-08T14:47:32.000Z</time>
      </trkpt>
      <trkpt lat="45.42507" lon="6.20441">
        <ele>1849.8000488281</ele>
        <time>2023-08-08T14:47:34.000Z</time>
      </trkpt>
      <trkpt lat="45.42505" lon="6.20437">
        <ele>1849</ele>
        <time>2023-08-08T14:47:40.000Z</time>
      </trkpt>
      <trkpt lat="45.42504" lon="6.20435">
        <ele>1848</ele>
        <time>2023-08-08T14:47:44.000Z</time>
      </trkpt>
      <trkpt lat="45.42505" lon="6.20431">
        <ele>1847.5999755859</ele>
        <time>2023-08-08T14:47:47.000Z</time>
      </trkpt>
      <trkpt lat="45.42505" lon="6.20429">
        <ele>1846.8000488281</ele>
        <time>2023-08-08T14:47:50.000Z</time>
      </trkpt>
      <trkpt lat="45.42505" lon="6.20426">
        <ele>1846.4000244141</ele>
        <time>2023-08-08T14:47:54.000Z</time>
      </trkpt>
      <trkpt lat="45.42506" lon="6.20422">
        <ele>1845.8000488281</ele>
        <time>2023-08-08T14:47:57.000Z</time>
      </trkpt>
      <trkpt lat="45.42505" lon="6.20421">
        <ele>1845.1999511719</ele>
        <time>2023-08-08T14:48:00.000Z</time>
      </trkpt>
      <trkpt lat="45.42505" lon="6.2042">
        <ele>1845.1999511719</ele>
        <time>2023-08-08T14:48:01.000Z</time>
      </trkpt>
      <trkpt lat="45.42505" lon="6.2042">
        <ele>1844.8000488281</ele>
        <time>2023-08-08T14:48:03.000Z</time>
      </trkpt>
      <trkpt lat="45.42505" lon="6.20416">
        <ele>1843.5999755859</ele>
        <time>2023-08-08T14:48:09.000Z</time>
      </trkpt>
      <trkpt lat="45.42506" lon="6.20416">
        <ele>1843.1999511719</ele>
        <time>2023-08-08T14:48:10.000Z</time>
      </trkpt>
      <trkpt lat="45.42506" lon="6.20414">
        <ele>1842.4000244141</ele>
        <time>2023-08-08T14:48:12.000Z</time>
      </trkpt>
      <trkpt lat="45.42504" lon="6.20411">
        <ele>1841.5999755859</ele>
        <time>2023-08-08T14:48:19.000Z</time>
      </trkpt>
      <trkpt lat="45.42504" lon="6.2041">
        <ele>1841.4000244141</ele>
        <time>2023-08-08T14:48:20.000Z</time>
      </trkpt>
      <trkpt lat="45.42505" lon="6.20405">
        <ele>1840.1999511719</ele>
        <time>2023-08-08T14:48:25.000Z</time>
      </trkpt>
      <trkpt lat="45.42505" lon="6.20401">
        <ele>1839.4000244141</ele>
        <time>2023-08-08T14:48:28.000Z</time>
      </trkpt>
      <trkpt lat="45.42504" lon="6.20401">
        <ele>1839.1999511719</ele>
        <time>2023-08-08T14:48:29.000Z</time>
      </trkpt>
      <trkpt lat="45.42502" lon="6.20402">
        <ele>1838</ele>
        <time>2023-08-08T14:48:35.000Z</time>
      </trkpt>
      <trkpt lat="45.42502" lon="6.20402">
        <ele>1837.1999511719</ele>
        <time>2023-08-08T14:48:41.000Z</time>
      </trkpt>
      <trkpt lat="45.42502" lon="6.20401">
        <ele>1837</ele>
        <time>2023-08-08T14:48:42.000Z</time>
      </trkpt>
      <trkpt lat="45.42503" lon="6.204">
        <ele>1836.1999511719</ele>
        <time>2023-08-08T14:48:48.000Z</time>
      </trkpt>
      <trkpt lat="45.42502" lon="6.20401">
        <ele>1835.8000488281</ele>
        <time>2023-08-08T14:48:51.000Z</time>
      </trkpt>
      <trkpt lat="45.42502" lon="6.20398">
        <ele>1835</ele>
        <time>2023-08-08T14:48:57.000Z</time>
      </trkpt>
      <trkpt lat="45.42503" lon="6.20396">
        <ele>1834.8000488281</ele>
        <time>2023-08-08T14:48:58.000Z</time>
      </trkpt>
      <trkpt lat="45.42502" lon="6.20393">
        <ele>1833.8000488281</ele>
        <time>2023-08-08T14:49:04.000Z</time>
      </trkpt>
      <trkpt lat="45.42501" lon="6.20391">
        <ele>1833.4000244141</ele>
        <time>2023-08-08T14:49:06.000Z</time>
      </trkpt>
      <trkpt lat="45.425" lon="6.20391">
        <ele>1832.5999755859</ele>
        <time>2023-08-08T14:49:11.000Z</time>
      </trkpt>
      <trkpt lat="45.425" lon="6.2039">
        <ele>1832.1999511719</ele>
        <time>2023-08-08T14:49:14.000Z</time>
      </trkpt>
      <trkpt lat="45.42499" lon="6.20387">
        <ele>1831.5999755859</ele>
        <time>2023-08-08T14:49:18.000Z</time>
      </trkpt>
      <trkpt lat="45.42498" lon="6.20385">
        <ele>1830.5999755859</ele>
        <time>2023-08-08T14:49:25.000Z</time>
      </trkpt>
      <trkpt lat="45.42498" lon="6.20385">
        <ele>1830.4000244141</ele>
        <time>2023-08-08T14:49:26.000Z</time>
      </trkpt>
      <trkpt lat="45.42499" lon="6.20384">
        <ele>1829.4000244141</ele>
        <time>2023-08-08T14:49:32.000Z</time>
      </trkpt>
      <trkpt lat="45.42499" lon="6.20383">
        <ele>1828.8000488281</ele>
        <time>2023-08-08T14:49:34.000Z</time>
      </trkpt>
      <trkpt lat="45.425" lon="6.2038">
        <ele>1828.1999511719</ele>
        <time>2023-08-08T14:49:37.000Z</time>
      </trkpt>
      <trkpt lat="45.42501" lon="6.20379">
        <ele>1827.4000244141</ele>
        <time>2023-08-08T14:49:41.000Z</time>
      </trkpt>
      <trkpt lat="45.42501" lon="6.20378">
        <ele>1827.1999511719</ele>
        <time>2023-08-08T14:49:51.000Z</time>
      </trkpt>
      <trkpt lat="45.42502" lon="6.20377">
        <ele>1827</ele>
        <time>2023-08-08T14:49:57.000Z</time>
      </trkpt>
      <trkpt lat="45.42502" lon="6.20376">
        <ele>1826.5999755859</ele>
        <time>2023-08-08T14:49:59.000Z</time>
      </trkpt>
      <trkpt lat="45.42501" lon="6.20374">
        <ele>1825.8000488281</ele>
        <time>2023-08-08T14:50:02.000Z</time>
      </trkpt>
      <trkpt lat="45.425" lon="6.20369">
        <ele>1825</ele>
        <time>2023-08-08T14:50:06.000Z</time>
      </trkpt>
      <trkpt lat="45.425" lon="6.20366">
        <ele>1824.8000488281</ele>
        <time>2023-08-08T14:50:07.000Z</time>
      </trkpt>
      <trkpt lat="45.425" lon="6.20361">
        <ele>1823.5999755859</ele>
        <time>2023-08-08T14:50:12.000Z</time>
      </trkpt>
      <trkpt lat="45.425" lon="6.20359">
        <ele>1823.4000244141</ele>
        <time>2023-08-08T14:50:14.000Z</time>
      </trkpt>
      <trkpt lat="45.42499" lon="6.20357">
        <ele>1822.5999755859</ele>
        <time>2023-08-08T14:50:17.000Z</time>
      </trkpt>
      <trkpt lat="45.42496" lon="6.20355">
        <ele>1821.5999755859</ele>
        <time>2023-08-08T14:50:22.000Z</time>
      </trkpt>
      <trkpt lat="45.42496" lon="6.20355">
        <ele>1821</ele>
        <time>2023-08-08T14:50:24.000Z</time>
      </trkpt>
      <trkpt lat="45.42495" lon="6.20353">
        <ele>1820.1999511719</ele>
        <time>2023-08-08T14:50:27.000Z</time>
      </trkpt>
      <trkpt lat="45.42494" lon="6.20346">
        <ele>1819</ele>
        <time>2023-08-08T14:50:32.000Z</time>
      </trkpt>
      <trkpt lat="45.42493" lon="6.20338">
        <ele>1818</ele>
        <time>2023-08-08T14:50:38.000Z</time>
      </trkpt>
      <trkpt lat="45.42493" lon="6.20335">
        <ele>1817.5999755859</ele>
        <time>2023-08-08T14:50:40.000Z</time>
      </trkpt>
      <trkpt lat="45.42491" lon="6.20334">
        <ele>1817</ele>
        <time>2023-08-08T14:50:47.000Z</time>
      </trkpt>
      <trkpt lat="45.4249" lon="6.20335">
        <ele>1816.5999755859</ele>
        <time>2023-08-08T14:50:49.000Z</time>
      </trkpt>
      <trkpt lat="45.42483" lon="6.20334">
        <ele>1815.4000244141</ele>
        <time>2023-08-08T14:50:55.000Z</time>
      </trkpt>
      <trkpt lat="45.42481" lon="6.20335">
        <ele>1815.1999511719</ele>
        <time>2023-08-08T14:50:56.000Z</time>
      </trkpt>
      <trkpt lat="45.4248" lon="6.20336">
        <ele>1814.4000244141</ele>
        <time>2023-08-08T14:51:01.000Z</time>
      </trkpt>
      <trkpt lat="45.4248" lon="6.20337">
        <ele>1814.1999511719</ele>
        <time>2023-08-08T14:51:02.000Z</time>
      </trkpt>
      <trkpt lat="45.42477" lon="6.20339">
        <ele>1812.8000488281</ele>
        <time>2023-08-08T14:51:07.000Z</time>
      </trkpt>
      <trkpt lat="45.42477" lon="6.20338">
        <ele>1811.8000488281</ele>
        <time>2023-08-08T14:51:09.000Z</time>
      </trkpt>
      <trkpt lat="45.42477" lon="6.20336">
        <ele>1811.4000244141</ele>
        <time>2023-08-08T14:51:11.000Z</time>
      </trkpt>
      <trkpt lat="45.42474" lon="6.20333">
        <ele>1810.5999755859</ele>
        <time>2023-08-08T14:51:15.000Z</time>
      </trkpt>
      <trkpt lat="45.42472" lon="6.20332">
        <ele>1810</ele>
        <time>2023-08-08T14:51:18.000Z</time>
      </trkpt>
      <trkpt lat="45.42471" lon="6.20333">
        <ele>1809.4000244141</ele>
        <time>2023-08-08T14:51:20.000Z</time>
      </trkpt>
      <trkpt lat="45.4247" lon="6.20331">
        <ele>1808.4000244141</ele>
        <time>2023-08-08T14:51:24.000Z</time>
      </trkpt>
      <trkpt lat="45.42469" lon="6.20329">
        <ele>1807.5999755859</ele>
        <time>2023-08-08T14:51:27.000Z</time>
      </trkpt>
      <trkpt lat="45.42467" lon="6.20327">
        <ele>1807.4000244141</ele>
        <time>2023-08-08T14:51:29.000Z</time>
      </trkpt>
      <trkpt lat="45.42464" lon="6.20325">
        <ele>1806.4000244141</ele>
        <time>2023-08-08T14:51:33.000Z</time>
      </trkpt>
      <trkpt lat="45.42464" lon="6.20323">
        <ele>1805.8000488281</ele>
        <time>2023-08-08T14:51:36.000Z</time>
      </trkpt>
      <trkpt lat="45.42464" lon="6.20322">
        <ele>1805</ele>
        <time>2023-08-08T14:51:38.000Z</time>
      </trkpt>
      <trkpt lat="45.42464" lon="6.20319">
        <ele>1804</ele>
        <time>2023-08-08T14:51:42.000Z</time>
      </trkpt>
      <trkpt lat="45.42464" lon="6.20316">
        <ele>1803.4000244141</ele>
        <time>2023-08-08T14:51:44.000Z</time>
      </trkpt>
      <trkpt lat="45.42462" lon="6.20311">
        <ele>1802.8000488281</ele>
        <time>2023-08-08T14:51:47.000Z</time>
      </trkpt>
      <trkpt lat="45.42459" lon="6.20305">
        <ele>1802.1999511719</ele>
        <time>2023-08-08T14:51:52.000Z</time>
      </trkpt>
      <trkpt lat="45.42459" lon="6.20303">
        <ele>1801.8000488281</ele>
        <time>2023-08-08T14:51:55.000Z</time>
      </trkpt>
      <trkpt lat="45.42458" lon="6.20304">
        <ele>1800.4000244141</ele>
        <time>2023-08-08T14:52:00.000Z</time>
      </trkpt>
      <trkpt lat="45.42457" lon="6.20306">
        <ele>1799.8000488281</ele>
        <time>2023-08-08T14:52:02.000Z</time>
      </trkpt>
      <trkpt lat="45.42455" lon="6.20307">
        <ele>1799.1999511719</ele>
        <time>2023-08-08T14:52:04.000Z</time>
      </trkpt>
      <trkpt lat="45.42453" lon="6.20303">
        <ele>1798</ele>
        <time>2023-08-08T14:52:09.000Z</time>
      </trkpt>
      <trkpt lat="45.42452" lon="6.20303">
        <ele>1797.8000488281</ele>
        <time>2023-08-08T14:52:10.000Z</time>
      </trkpt>
      <trkpt lat="45.42453" lon="6.20301">
        <ele>1797</ele>
        <time>2023-08-08T14:52:13.000Z</time>
      </trkpt>
      <trkpt lat="45.4245" lon="6.20298">
        <ele>1796.1999511719</ele>
        <time>2023-08-08T14:52:18.000Z</time>
      </trkpt>
      <trkpt lat="45.4245" lon="6.20298">
        <ele>1795.8000488281</ele>
        <time>2023-08-08T14:52:20.000Z</time>
      </trkpt>
      <trkpt lat="45.4245" lon="6.20299">
        <ele>1794.8000488281</ele>
        <time>2023-08-08T14:52:27.000Z</time>
      </trkpt>
      <trkpt lat="45.4245" lon="6.20298">
        <ele>1794</ele>
        <time>2023-08-08T14:52:29.000Z</time>
      </trkpt>
      <trkpt lat="45.42449" lon="6.20297">
        <ele>1793.5999755859</ele>
        <time>2023-08-08T14:52:31.000Z</time>
      </trkpt>
      <trkpt lat="45.42448" lon="6.20293">
        <ele>1792.5999755859</ele>
        <time>2023-08-08T14:52:37.000Z</time>
      </trkpt>
      <trkpt lat="45.42447" lon="6.20293">
        <ele>1792.4000244141</ele>
        <time>2023-08-08T14:52:38.000Z</time>
      </trkpt>
      <trkpt lat="45.42447" lon="6.2029">
        <ele>1791.5999755859</ele>
        <time>2023-08-08T14:52:42.000Z</time>
      </trkpt>
      <trkpt lat="45.42446" lon="6.20288">
        <ele>1790.5999755859</ele>
        <time>2023-08-08T14:52:47.000Z</time>
      </trkpt>
      <trkpt lat="45.42445" lon="6.20285">
        <ele>1790.4000244141</ele>
        <time>2023-08-08T14:52:48.000Z</time>
      </trkpt>
      <trkpt lat="45.42445" lon="6.20284">
        <ele>1789.1999511719</ele>
        <time>2023-08-08T14:52:54.000Z</time>
      </trkpt>
      <trkpt lat="45.42444" lon="6.20284">
        <ele>1788.8000488281</ele>
        <time>2023-08-08T14:52:56.000Z</time>
      </trkpt>
      <trkpt lat="45.42444" lon="6.20284">
        <ele>1788</ele>
        <time>2023-08-08T14:53:00.000Z</time>
      </trkpt>
      <trkpt lat="45.42444" lon="6.20282">
        <ele>1787.8000488281</ele>
        <time>2023-08-08T14:53:02.000Z</time>
      </trkpt>
      <trkpt lat="45.42441" lon="6.20274">
        <ele>1786.5999755859</ele>
        <time>2023-08-08T14:53:07.000Z</time>
      </trkpt>
      <trkpt lat="45.4244" lon="6.20275">
        <ele>1785.8000488281</ele>
        <time>2023-08-08T14:53:11.000Z</time>
      </trkpt>
      <trkpt lat="45.42439" lon="6.20276">
        <ele>1785.5999755859</ele>
        <time>2023-08-08T14:53:12.000Z</time>
      </trkpt>
      <trkpt lat="45.42438" lon="6.20276">
        <ele>1784.5999755859</ele>
        <time>2023-08-08T14:53:18.000Z</time>
      </trkpt>
      <trkpt lat="45.42438" lon="6.20276">
        <ele>1784.4000244141</ele>
        <time>2023-08-08T14:53:19.000Z</time>
      </trkpt>
      <trkpt lat="45.42437" lon="6.20272">
        <ele>1783.4000244141</ele>
        <time>2023-08-08T14:53:25.000Z</time>
      </trkpt>
      <trkpt lat="45.42436" lon="6.20269">
        <ele>1782.8000488281</ele>
        <time>2023-08-08T14:53:29.000Z</time>
      </trkpt>
      <trkpt lat="45.42435" lon="6.20269">
        <ele>1782.4000244141</ele>
        <time>2023-08-08T14:53:31.000Z</time>
      </trkpt>
      <trkpt lat="45.42433" lon="6.20272">
        <ele>1781.1999511719</ele>
        <time>2023-08-08T14:53:38.000Z</time>
      </trkpt>
      <trkpt lat="45.42432" lon="6.20273">
        <ele>1780</ele>
        <time>2023-08-08T14:53:46.000Z</time>
      </trkpt>
      <trkpt lat="45.42431" lon="6.20269">
        <ele>1779</ele>
        <time>2023-08-08T14:53:50.000Z</time>
      </trkpt>
      <trkpt lat="45.42431" lon="6.20267">
        <ele>1778.1999511719</ele>
        <time>2023-08-08T14:53:53.000Z</time>
      </trkpt>
      <trkpt lat="45.42431" lon="6.20265">
        <ele>1777.8000488281</ele>
        <time>2023-08-08T14:53:56.000Z</time>
      </trkpt>
      <trkpt lat="45.42429" lon="6.20262">
        <ele>1776.8000488281</ele>
        <time>2023-08-08T14:54:01.000Z</time>
      </trkpt>
      <trkpt lat="45.42429" lon="6.20261">
        <ele>1776.5999755859</ele>
        <time>2023-08-08T14:54:02.000Z</time>
      </trkpt>
      <trkpt lat="45.42428" lon="6.20261">
        <ele>1775.8000488281</ele>
        <time>2023-08-08T14:54:07.000Z</time>
      </trkpt>
      <trkpt lat="45.42428" lon="6.20262">
        <ele>1775.4000244141</ele>
        <time>2023-08-08T14:54:09.000Z</time>
      </trkpt>
      <trkpt lat="45.42427" lon="6.2026">
        <ele>1774.4000244141</ele>
        <time>2023-08-08T14:54:13.000Z</time>
      </trkpt>
      <trkpt lat="45.42427" lon="6.20259">
        <ele>1774.1999511719</ele>
        <time>2023-08-08T14:54:14.000Z</time>
      </trkpt>
      <trkpt lat="45.42425" lon="6.20255">
        <ele>1773.4000244141</ele>
        <time>2023-08-08T14:54:18.000Z</time>
      </trkpt>
      <trkpt lat="45.42426" lon="6.20253">
        <ele>1772.5999755859</ele>
        <time>2023-08-08T14:54:21.000Z</time>
      </trkpt>
      <trkpt lat="45.42426" lon="6.2025">
        <ele>1772.1999511719</ele>
        <time>2023-08-08T14:54:24.000Z</time>
      </trkpt>
      <trkpt lat="45.42424" lon="6.20242">
        <ele>1771.1999511719</ele>
        <time>2023-08-08T14:54:30.000Z</time>
      </trkpt>
      <trkpt lat="45.42424" lon="6.20238">
        <ele>1770</ele>
        <time>2023-08-08T14:54:35.000Z</time>
      </trkpt>
      <trkpt lat="45.42425" lon="6.20235">
        <ele>1769.1999511719</ele>
        <time>2023-08-08T14:54:38.000Z</time>
      </trkpt>
      <trkpt lat="45.42426" lon="6.20235">
        <ele>1769</ele>
        <time>2023-08-08T14:54:40.000Z</time>
      </trkpt>
      <trkpt lat="45.42426" lon="6.20234">
        <ele>1768.8000488281</ele>
        <time>2023-08-08T14:54:41.000Z</time>
      </trkpt>
      <trkpt lat="45.42427" lon="6.20233">
        <ele>1768.1999511719</ele>
        <time>2023-08-08T14:54:44.000Z</time>
      </trkpt>
      <trkpt lat="45.42427" lon="6.20232">
        <ele>1768</ele>
        <time>2023-08-08T14:54:45.000Z</time>
      </trkpt>
      <trkpt lat="45.42427" lon="6.20224">
        <ele>1766.8000488281</ele>
        <time>2023-08-08T14:54:51.000Z</time>
      </trkpt>
      <trkpt lat="45.42423" lon="6.2022">
        <ele>1765.8000488281</ele>
        <time>2023-08-08T14:54:55.000Z</time>
      </trkpt>
      <trkpt lat="45.4242" lon="6.20218">
        <ele>1765.1999511719</ele>
        <time>2023-08-08T14:54:59.000Z</time>
      </trkpt>
      <trkpt lat="45.42421" lon="6.20216">
        <ele>1764.4000244141</ele>
        <time>2023-08-08T14:55:02.000Z</time>
      </trkpt>
      <trkpt lat="45.42426" lon="6.20217">
        <ele>1763.5999755859</ele>
        <time>2023-08-08T14:55:07.000Z</time>
      </trkpt>
      <trkpt lat="45.42427" lon="6.20218">
        <ele>1763.4000244141</ele>
        <time>2023-08-08T14:55:08.000Z</time>
      </trkpt>
      <trkpt lat="45.42429" lon="6.20216">
        <ele>1762.4000244141</ele>
        <time>2023-08-08T14:55:15.000Z</time>
      </trkpt>
      <trkpt lat="45.42429" lon="6.20216">
        <ele>1762.1999511719</ele>
        <time>2023-08-08T14:55:16.000Z</time>
      </trkpt>
      <trkpt lat="45.42431" lon="6.20216">
        <ele>1761.1999511719</ele>
        <time>2023-08-08T14:55:20.000Z</time>
      </trkpt>
      <trkpt lat="45.42435" lon="6.20218">
        <ele>1760.5999755859</ele>
        <time>2023-08-08T14:55:23.000Z</time>
      </trkpt>
      <trkpt lat="45.42438" lon="6.20219">
        <ele>1760</ele>
        <time>2023-08-08T14:55:26.000Z</time>
      </trkpt>
      <trkpt lat="45.42439" lon="6.20221">
        <ele>1759</ele>
        <time>2023-08-08T14:55:30.000Z</time>
      </trkpt>
      <trkpt lat="45.42439" lon="6.20221">
        <ele>1758.8000488281</ele>
        <time>2023-08-08T14:55:31.000Z</time>
      </trkpt>
      <trkpt lat="45.42439" lon="6.20225">
        <ele>1759</ele>
        <time>2023-08-08T14:55:39.000Z</time>
      </trkpt>
      <trkpt lat="45.42439" lon="6.20225">
        <ele>1759</ele>
        <time>2023-08-08T14:55:46.000Z</time>
      </trkpt>
      <trkpt lat="45.42439" lon="6.2022">
        <ele>1758.8000488281</ele>
        <time>2023-08-08T14:55:54.000Z</time>
      </trkpt>
      <trkpt lat="45.42442" lon="6.20207">
        <ele>1757.8000488281</ele>
        <time>2023-08-08T14:56:02.000Z</time>
      </trkpt>
      <trkpt lat="45.42444" lon="6.20199">
        <ele>1756.5999755859</ele>
        <time>2023-08-08T14:56:08.000Z</time>
      </trkpt>
      <trkpt lat="45.42445" lon="6.20196">
        <ele>1756</ele>
        <time>2023-08-08T14:56:10.000Z</time>
      </trkpt>
      <trkpt lat="45.42446" lon="6.20195">
        <ele>1755.4000244141</ele>
        <time>2023-08-08T14:56:12.000Z</time>
      </trkpt>
      <trkpt lat="45.42447" lon="6.20193">
        <ele>1754.1999511719</ele>
        <time>2023-08-08T14:56:15.000Z</time>
      </trkpt>
      <trkpt lat="45.42448" lon="6.2019">
        <ele>1753.5999755859</ele>
        <time>2023-08-08T14:56:18.000Z</time>
      </trkpt>
      <trkpt lat="45.42449" lon="6.2019">
        <ele>1753</ele>
        <time>2023-08-08T14:56:20.000Z</time>
      </trkpt>
      <trkpt lat="45.4245" lon="6.20187">
        <ele>1751.8000488281</ele>
        <time>2023-08-08T14:56:26.000Z</time>
      </trkpt>
      <trkpt lat="45.4245" lon="6.20186">
        <ele>1751.5999755859</ele>
        <time>2023-08-08T14:56:27.000Z</time>
      </trkpt>
      <trkpt lat="45.42451" lon="6.2018">
        <ele>1750.8000488281</ele>
        <time>2023-08-08T14:56:31.000Z</time>
      </trkpt>
      <trkpt lat="45.42451" lon="6.20177">
        <ele>1750.5999755859</ele>
        <time>2023-08-08T14:56:32.000Z</time>
      </trkpt>
      <trkpt lat="45.42449" lon="6.20174">
        <ele>1750</ele>
        <time>2023-08-08T14:56:34.000Z</time>
      </trkpt>
      <trkpt lat="45.42448" lon="6.20172">
        <ele>1749.5999755859</ele>
        <time>2023-08-08T14:56:35.000Z</time>
      </trkpt>
      <trkpt lat="45.42445" lon="6.20168">
        <ele>1748.1999511719</ele>
        <time>2023-08-08T14:56:39.000Z</time>
      </trkpt>
      <trkpt lat="45.42444" lon="6.20168">
        <ele>1748</ele>
        <time>2023-08-08T14:56:40.000Z</time>
      </trkpt>
      <trkpt lat="45.42443" lon="6.20167">
        <ele>1747.1999511719</ele>
        <time>2023-08-08T14:56:42.000Z</time>
      </trkpt>
      <trkpt lat="45.42444" lon="6.20161">
        <ele>1746.1999511719</ele>
        <time>2023-08-08T14:56:47.000Z</time>
      </trkpt>
      <trkpt lat="45.42445" lon="6.20156">
        <ele>1744.8000488281</ele>
        <time>2023-08-08T14:56:52.000Z</time>
      </trkpt>
      <trkpt lat="45.42445" lon="6.20154">
        <ele>1744.1999511719</ele>
        <time>2023-08-08T14:56:54.000Z</time>
      </trkpt>
      <trkpt lat="45.42445" lon="6.20152">
        <ele>1743.5999755859</ele>
        <time>2023-08-08T14:56:56.000Z</time>
      </trkpt>
      <trkpt lat="45.42445" lon="6.20148">
        <ele>1742.5999755859</ele>
        <time>2023-08-08T14:57:00.000Z</time>
      </trkpt>
      <trkpt lat="45.42445" lon="6.20147">
        <ele>1742.4000244141</ele>
        <time>2023-08-08T14:57:01.000Z</time>
      </trkpt>
      <trkpt lat="45.42446" lon="6.20144">
        <ele>1741.4000244141</ele>
        <time>2023-08-08T14:57:04.000Z</time>
      </trkpt>
      <trkpt lat="45.42447" lon="6.20141">
        <ele>1740.4000244141</ele>
        <time>2023-08-08T14:57:07.000Z</time>
      </trkpt>
      <trkpt lat="45.4245" lon="6.20141">
        <ele>1739.5999755859</ele>
        <time>2023-08-08T14:57:10.000Z</time>
      </trkpt>
      <trkpt lat="45.42453" lon="6.20143">
        <ele>1739</ele>
        <time>2023-08-08T14:57:12.000Z</time>
      </trkpt>
      <trkpt lat="45.42459" lon="6.2014">
        <ele>1738</ele>
        <time>2023-08-08T14:57:17.000Z</time>
      </trkpt>
      <trkpt lat="45.4246" lon="6.20139">
        <ele>1737.8000488281</ele>
        <time>2023-08-08T14:57:18.000Z</time>
      </trkpt>
      <trkpt lat="45.4246" lon="6.20134">
        <ele>1736.8000488281</ele>
        <time>2023-08-08T14:57:22.000Z</time>
      </trkpt>
      <trkpt lat="45.4246" lon="6.20133">
        <ele>1736.5999755859</ele>
        <time>2023-08-08T14:57:23.000Z</time>
      </trkpt>
      <trkpt lat="45.42461" lon="6.20129">
        <ele>1735.5999755859</ele>
        <time>2023-08-08T14:57:27.000Z</time>
      </trkpt>
      <trkpt lat="45.42461" lon="6.20127">
        <ele>1735.1999511719</ele>
        <time>2023-08-08T14:57:29.000Z</time>
      </trkpt>
      <trkpt lat="45.42464" lon="6.20122">
        <ele>1734.5999755859</ele>
        <time>2023-08-08T14:57:33.000Z</time>
      </trkpt>
      <trkpt lat="45.42464" lon="6.20119">
        <ele>1733.5999755859</ele>
        <time>2023-08-08T14:57:36.000Z</time>
      </trkpt>
      <trkpt lat="45.42464" lon="6.20118">
        <ele>1733.4000244141</ele>
        <time>2023-08-08T14:57:37.000Z</time>
      </trkpt>
      <trkpt lat="45.42464" lon="6.20112">
        <ele>1732.1999511719</ele>
        <time>2023-08-08T14:57:41.000Z</time>
      </trkpt>
      <trkpt lat="45.42462" lon="6.20107">
        <ele>1731.5999755859</ele>
        <time>2023-08-08T14:57:44.000Z</time>
      </trkpt>
      <trkpt lat="45.42461" lon="6.20106">
        <ele>1731</ele>
        <time>2023-08-08T14:57:47.000Z</time>
      </trkpt>
      <trkpt lat="45.42461" lon="6.20106">
        <ele>1730.4000244141</ele>
        <time>2023-08-08T14:57:51.000Z</time>
      </trkpt>
      <trkpt lat="45.42461" lon="6.20104">
        <ele>1729.8000488281</ele>
        <time>2023-08-08T14:57:54.000Z</time>
      </trkpt>
      <trkpt lat="45.42458" lon="6.20102">
        <ele>1729</ele>
        <time>2023-08-08T14:57:58.000Z</time>
      </trkpt>
      <trkpt lat="45.42458" lon="6.20102">
        <ele>1728.5999755859</ele>
        <time>2023-08-08T14:58:00.000Z</time>
      </trkpt>
      <trkpt lat="45.42459" lon="6.201">
        <ele>1727.4000244141</ele>
        <time>2023-08-08T14:58:04.000Z</time>
      </trkpt>
      <trkpt lat="45.4246" lon="6.20096">
        <ele>1727</ele>
        <time>2023-08-08T14:58:07.000Z</time>
      </trkpt>
      <trkpt lat="45.42461" lon="6.20089">
        <ele>1726.1999511719</ele>
        <time>2023-08-08T14:58:13.000Z</time>
      </trkpt>
      <trkpt lat="45.42462" lon="6.20084">
        <ele>1725.1999511719</ele>
        <time>2023-08-08T14:58:17.000Z</time>
      </trkpt>
      <trkpt lat="45.42464" lon="6.20078">
        <ele>1724.1999511719</ele>
        <time>2023-08-08T14:58:21.000Z</time>
      </trkpt>
      <trkpt lat="45.42464" lon="6.20076">
        <ele>1723.4000244141</ele>
        <time>2023-08-08T14:58:23.000Z</time>
      </trkpt>
      <trkpt lat="45.42464" lon="6.20076">
        <ele>1723</ele>
        <time>2023-08-08T14:58:24.000Z</time>
      </trkpt>
      <trkpt lat="45.42466" lon="6.20074">
        <ele>1721.8000488281</ele>
        <time>2023-08-08T14:58:29.000Z</time>
      </trkpt>
      <trkpt lat="45.42466" lon="6.20072">
        <ele>1721.5999755859</ele>
        <time>2023-08-08T14:58:30.000Z</time>
      </trkpt>
      <trkpt lat="45.42468" lon="6.20068">
        <ele>1720.5999755859</ele>
        <time>2023-08-08T14:58:34.000Z</time>
      </trkpt>
      <trkpt lat="45.42468" lon="6.20063">
        <ele>1719.8000488281</ele>
        <time>2023-08-08T14:58:37.000Z</time>
      </trkpt>
      <trkpt lat="45.42469" lon="6.20062">
        <ele>1719.5999755859</ele>
        <time>2023-08-08T14:58:38.000Z</time>
      </trkpt>
      <trkpt lat="45.42469" lon="6.20058">
        <ele>1718.5999755859</ele>
        <time>2023-08-08T14:58:41.000Z</time>
      </trkpt>
      <trkpt lat="45.4247" lon="6.20054">
        <ele>1718</ele>
        <time>2023-08-08T14:58:45.000Z</time>
      </trkpt>
      <trkpt lat="45.4247" lon="6.20053">
        <ele>1717.5999755859</ele>
        <time>2023-08-08T14:58:47.000Z</time>
      </trkpt>
      <trkpt lat="45.42472" lon="6.20047">
        <ele>1716.4000244141</ele>
        <time>2023-08-08T14:58:52.000Z</time>
      </trkpt>
      <trkpt lat="45.42473" lon="6.20042">
        <ele>1715.1999511719</ele>
        <time>2023-08-08T14:58:57.000Z</time>
      </trkpt>
      <trkpt lat="45.42474" lon="6.20039">
        <ele>1714.1999511719</ele>
        <time>2023-08-08T14:59:01.000Z</time>
      </trkpt>
      <trkpt lat="45.42474" lon="6.20039">
        <ele>1714</ele>
        <time>2023-08-08T14:59:02.000Z</time>
      </trkpt>
      <trkpt lat="45.42476" lon="6.20036">
        <ele>1712.8000488281</ele>
        <time>2023-08-08T14:59:07.000Z</time>
      </trkpt>
      <trkpt lat="45.42476" lon="6.20036">
        <ele>1712.5999755859</ele>
        <time>2023-08-08T14:59:08.000Z</time>
      </trkpt>
      <trkpt lat="45.42477" lon="6.20032">
        <ele>1711.8000488281</ele>
        <time>2023-08-08T14:59:11.000Z</time>
      </trkpt>
      <trkpt lat="45.42476" lon="6.20026">
        <ele>1710.8000488281</ele>
        <time>2023-08-08T14:59:15.000Z</time>
      </trkpt>
      <trkpt lat="45.42475" lon="6.20024">
        <ele>1710.5999755859</ele>
        <time>2023-08-08T14:59:16.000Z</time>
      </trkpt>
      <trkpt lat="45.42474" lon="6.20019">
        <ele>1709.5999755859</ele>
        <time>2023-08-08T14:59:20.000Z</time>
      </trkpt>
      <trkpt lat="45.42473" lon="6.20018">
        <ele>1709.4000244141</ele>
        <time>2023-08-08T14:59:21.000Z</time>
      </trkpt>
      <trkpt lat="45.42472" lon="6.20014">
        <ele>1708.5999755859</ele>
        <time>2023-08-08T14:59:24.000Z</time>
      </trkpt>
      <trkpt lat="45.4247" lon="6.20011">
        <ele>1707.4000244141</ele>
        <time>2023-08-08T14:59:29.000Z</time>
      </trkpt>
      <trkpt lat="45.42468" lon="6.20007">
        <ele>1706.4000244141</ele>
        <time>2023-08-08T14:59:33.000Z</time>
      </trkpt>
      <trkpt lat="45.42467" lon="6.20004">
        <ele>1705.4000244141</ele>
        <time>2023-08-08T14:59:37.000Z</time>
      </trkpt>
      <trkpt lat="45.42467" lon="6.20004">
        <ele>1705.1999511719</ele>
        <time>2023-08-08T14:59:38.000Z</time>
      </trkpt>
      <trkpt lat="45.42466" lon="6.20003">
        <ele>1704</ele>
        <time>2023-08-08T14:59:43.000Z</time>
      </trkpt>
      <trkpt lat="45.42465" lon="6.20003">
        <ele>1703.8000488281</ele>
        <time>2023-08-08T14:59:44.000Z</time>
      </trkpt>
      <trkpt lat="45.42464" lon="6.20005">
        <ele>1703.1999511719</ele>
        <time>2023-08-08T14:59:47.000Z</time>
      </trkpt>
      <trkpt lat="45.42464" lon="6.20007">
        <ele>1703</ele>
        <time>2023-08-08T14:59:49.000Z</time>
      </trkpt>
      <trkpt lat="45.42464" lon="6.20009">
        <ele>1703</ele>
        <time>2023-08-08T14:59:51.000Z</time>
      </trkpt>
      <trkpt lat="45.42464" lon="6.20008">
        <ele>1702.8000488281</ele>
        <time>2023-08-08T15:00:00.000Z</time>
      </trkpt>
      <trkpt lat="45.42464" lon="6.20007">
        <ele>1702.8000488281</ele>
        <time>2023-08-08T15:00:10.000Z</time>
      </trkpt>
      <trkpt lat="45.42463" lon="6.20008">
        <ele>1702.8000488281</ele>
        <time>2023-08-08T15:00:20.000Z</time>
      </trkpt>
      <trkpt lat="45.42462" lon="6.20006">
        <ele>1702.1999511719</ele>
        <time>2023-08-08T15:00:27.000Z</time>
      </trkpt>
      <trkpt lat="45.42462" lon="6.20005">
        <ele>1702</ele>
        <time>2023-08-08T15:00:29.000Z</time>
      </trkpt>
      <trkpt lat="45.42462" lon="6.20002">
        <ele>1701.5999755859</ele>
        <time>2023-08-08T15:00:33.000Z</time>
      </trkpt>
      <trkpt lat="45.42463" lon="6.20002">
        <ele>1700.8000488281</ele>
        <time>2023-08-08T15:00:37.000Z</time>
      </trkpt>
      <trkpt lat="45.42463" lon="6.20004">
        <ele>1700.4000244141</ele>
        <time>2023-08-08T15:00:41.000Z</time>
      </trkpt>
      <trkpt lat="45.42463" lon="6.20004">
        <ele>1699.5999755859</ele>
        <time>2023-08-08T15:00:47.000Z</time>
      </trkpt>
      <trkpt lat="45.42464" lon="6.20001">
        <ele>1698.5999755859</ele>
        <time>2023-08-08T15:00:52.000Z</time>
      </trkpt>
      <trkpt lat="45.42461" lon="6.19991">
        <ele>1696.4000244141</ele>
        <time>2023-08-08T15:01:07.000Z</time>
      </trkpt>
      <trkpt lat="45.42457" lon="6.19997">
        <ele>1694.5999755859</ele>
        <time>2023-08-08T15:01:19.000Z</time>
      </trkpt>
      <trkpt lat="45.42456" lon="6.19997">
        <ele>1694.1999511719</ele>
        <time>2023-08-08T15:01:21.000Z</time>
      </trkpt>
      <trkpt lat="45.42452" lon="6.2">
        <ele>1693.1999511719</ele>
        <time>2023-08-08T15:01:28.000Z</time>
      </trkpt>
      <trkpt lat="45.4245" lon="6.20001">
        <ele>1693.1999511719</ele>
        <time>2023-08-08T15:01:30.000Z</time>
      </trkpt>
      <trkpt lat="45.42447" lon="6.20002">
        <ele>1692.1999511719</ele>
        <time>2023-08-08T15:01:35.000Z</time>
      </trkpt>
      <trkpt lat="45.42446" lon="6.20001">
        <ele>1692</ele>
        <time>2023-08-08T15:01:36.000Z</time>
      </trkpt>
      <trkpt lat="45.42441" lon="6.2">
        <ele>1690.8000488281</ele>
        <time>2023-08-08T15:01:43.000Z</time>
      </trkpt>
      <trkpt lat="45.42441" lon="6.2">
        <ele>1690.5999755859</ele>
        <time>2023-08-08T15:01:44.000Z</time>
      </trkpt>
      <trkpt lat="45.42442" lon="6.19996">
        <ele>1689.8000488281</ele>
        <time>2023-08-08T15:01:49.000Z</time>
      </trkpt>
      <trkpt lat="45.42443" lon="6.19995">
        <ele>1689.5999755859</ele>
        <time>2023-08-08T15:01:50.000Z</time>
      </trkpt>
      <trkpt lat="45.42443" lon="6.19993">
        <ele>1688.8000488281</ele>
        <time>2023-08-08T15:01:54.000Z</time>
      </trkpt>
      <trkpt lat="45.42445" lon="6.1999">
        <ele>1687.8000488281</ele>
        <time>2023-08-08T15:01:57.000Z</time>
      </trkpt>
      <trkpt lat="45.42445" lon="6.19987">
        <ele>1687.5999755859</ele>
        <time>2023-08-08T15:02:00.000Z</time>
      </trkpt>
      <trkpt lat="45.42444" lon="6.19977">
        <ele>1686.8000488281</ele>
        <time>2023-08-08T15:02:05.000Z</time>
      </trkpt>
      <trkpt lat="45.42443" lon="6.19974">
        <ele>1686.5999755859</ele>
        <time>2023-08-08T15:02:08.000Z</time>
      </trkpt>
      <trkpt lat="45.42441" lon="6.19978">
        <ele>1685.4000244141</ele>
        <time>2023-08-08T15:02:12.000Z</time>
      </trkpt>
      <trkpt lat="45.4244" lon="6.1998">
        <ele>1685.1999511719</ele>
        <time>2023-08-08T15:02:13.000Z</time>
      </trkpt>
      <trkpt lat="45.42438" lon="6.19982">
        <ele>1684.1999511719</ele>
        <time>2023-08-08T15:02:16.000Z</time>
      </trkpt>
      <trkpt lat="45.42435" lon="6.19982">
        <ele>1683.1999511719</ele>
        <time>2023-08-08T15:02:20.000Z</time>
      </trkpt>
      <trkpt lat="45.42434" lon="6.19982">
        <ele>1682.8000488281</ele>
        <time>2023-08-08T15:02:21.000Z</time>
      </trkpt>
      <trkpt lat="45.42432" lon="6.1998">
        <ele>1682</ele>
        <time>2023-08-08T15:02:24.000Z</time>
      </trkpt>
      <trkpt lat="45.42431" lon="6.19979">
        <ele>1681.1999511719</ele>
        <time>2023-08-08T15:02:27.000Z</time>
      </trkpt>
      <trkpt lat="45.4243" lon="6.19977">
        <ele>1680.8000488281</ele>
        <time>2023-08-08T15:02:29.000Z</time>
      </trkpt>
      <trkpt lat="45.42431" lon="6.19975">
        <ele>1679.5999755859</ele>
        <time>2023-08-08T15:02:35.000Z</time>
      </trkpt>
      <trkpt lat="45.42432" lon="6.19971">
        <ele>1678.4000244141</ele>
        <time>2023-08-08T15:02:40.000Z</time>
      </trkpt>
      <trkpt lat="45.42433" lon="6.19969">
        <ele>1677.4000244141</ele>
        <time>2023-08-08T15:02:44.000Z</time>
      </trkpt>
      <trkpt lat="45.42434" lon="6.19963">
        <ele>1676.1999511719</ele>
        <time>2023-08-08T15:02:49.000Z</time>
      </trkpt>
      <trkpt lat="45.42434" lon="6.19958">
        <ele>1675.1999511719</ele>
        <time>2023-08-08T15:02:52.000Z</time>
      </trkpt>
      <trkpt lat="45.42434" lon="6.19957">
        <ele>1675</ele>
        <time>2023-08-08T15:02:53.000Z</time>
      </trkpt>
      <trkpt lat="45.42434" lon="6.19953">
        <ele>1674</ele>
        <time>2023-08-08T15:02:58.000Z</time>
      </trkpt>
      <trkpt lat="45.42434" lon="6.19949">
        <ele>1673.5999755859</ele>
        <time>2023-08-08T15:03:00.000Z</time>
      </trkpt>
      <trkpt lat="45.42436" lon="6.19943">
        <ele>1672.8000488281</ele>
        <time>2023-08-08T15:03:04.000Z</time>
      </trkpt>
      <trkpt lat="45.42437" lon="6.19938">
        <ele>1672.4000244141</ele>
        <time>2023-08-08T15:03:07.000Z</time>
      </trkpt>
      <trkpt lat="45.42437" lon="6.19936">
        <ele>1671.5999755859</ele>
        <time>2023-08-08T15:03:10.000Z</time>
      </trkpt>
      <trkpt lat="45.42439" lon="6.19931">
        <ele>1670.8000488281</ele>
        <time>2023-08-08T15:03:14.000Z</time>
      </trkpt>
      <trkpt lat="45.42439" lon="6.19929">
        <ele>1670.5999755859</ele>
        <time>2023-08-08T15:03:15.000Z</time>
      </trkpt>
      <trkpt lat="45.42441" lon="6.19923">
        <ele>1669.1999511719</ele>
        <time>2023-08-08T15:03:20.000Z</time>
      </trkpt>
      <trkpt lat="45.42441" lon="6.19922">
        <ele>1668.8000488281</ele>
        <time>2023-08-08T15:03:22.000Z</time>
      </trkpt>
      <trkpt lat="45.42441" lon="6.1992">
        <ele>1668</ele>
        <time>2023-08-08T15:03:24.000Z</time>
      </trkpt>
      <trkpt lat="45.42441" lon="6.19917">
        <ele>1666.8000488281</ele>
        <time>2023-08-08T15:03:29.000Z</time>
      </trkpt>
      <trkpt lat="45.42443" lon="6.19912">
        <ele>1665.5999755859</ele>
        <time>2023-08-08T15:03:33.000Z</time>
      </trkpt>
      <trkpt lat="45.42448" lon="6.19903">
        <ele>1664.5999755859</ele>
        <time>2023-08-08T15:03:38.000Z</time>
      </trkpt>
      <trkpt lat="45.42449" lon="6.19902">
        <ele>1664.4000244141</ele>
        <time>2023-08-08T15:03:39.000Z</time>
      </trkpt>
      <trkpt lat="45.4245" lon="6.19898">
        <ele>1663</ele>
        <time>2023-08-08T15:03:43.000Z</time>
      </trkpt>
      <trkpt lat="45.42447" lon="6.19893">
        <ele>1662</ele>
        <time>2023-08-08T15:03:48.000Z</time>
      </trkpt>
      <trkpt lat="45.42447" lon="6.19886">
        <ele>1660.8000488281</ele>
        <time>2023-08-08T15:03:52.000Z</time>
      </trkpt>
      <trkpt lat="45.42446" lon="6.19887">
        <ele>1660.1999511719</ele>
        <time>2023-08-08T15:03:54.000Z</time>
      </trkpt>
      <trkpt lat="45.42446" lon="6.19886">
        <ele>1659.5999755859</ele>
        <time>2023-08-08T15:03:57.000Z</time>
      </trkpt>
      <trkpt lat="45.42445" lon="6.19889">
        <ele>1658.8000488281</ele>
        <time>2023-08-08T15:04:02.000Z</time>
      </trkpt>
      <trkpt lat="45.42445" lon="6.1989">
        <ele>1658.4000244141</ele>
        <time>2023-08-08T15:04:04.000Z</time>
      </trkpt>
      <trkpt lat="45.42439" lon="6.19895">
        <ele>1657.4000244141</ele>
        <time>2023-08-08T15:04:09.000Z</time>
      </trkpt>
      <trkpt lat="45.42438" lon="6.19895">
        <ele>1657.1999511719</ele>
        <time>2023-08-08T15:04:10.000Z</time>
      </trkpt>
      <trkpt lat="45.42435" lon="6.19894">
        <ele>1656.5999755859</ele>
        <time>2023-08-08T15:04:17.000Z</time>
      </trkpt>
      <trkpt lat="45.42434" lon="6.19893">
        <ele>1656.1999511719</ele>
        <time>2023-08-08T15:04:19.000Z</time>
      </trkpt>
      <trkpt lat="45.42429" lon="6.19894">
        <ele>1655.1999511719</ele>
        <time>2023-08-08T15:04:23.000Z</time>
      </trkpt>
      <trkpt lat="45.42427" lon="6.19896">
        <ele>1654.5999755859</ele>
        <time>2023-08-08T15:04:25.000Z</time>
      </trkpt>
      <trkpt lat="45.42424" lon="6.19897">
        <ele>1654</ele>
        <time>2023-08-08T15:04:27.000Z</time>
      </trkpt>
      <trkpt lat="45.42419" lon="6.19899">
        <ele>1652.1999511719</ele>
        <time>2023-08-08T15:04:35.000Z</time>
      </trkpt>
      <trkpt lat="45.42418" lon="6.19899">
        <ele>1652</ele>
        <time>2023-08-08T15:04:36.000Z</time>
      </trkpt>
      <trkpt lat="45.42415" lon="6.19898">
        <ele>1651</ele>
        <time>2023-08-08T15:04:40.000Z</time>
      </trkpt>
      <trkpt lat="45.42411" lon="6.19897">
        <ele>1648.5999755859</ele>
        <time>2023-08-08T15:04:48.000Z</time>
      </trkpt>
      <trkpt lat="45.42409" lon="6.199">
        <ele>1647.4000244141</ele>
        <time>2023-08-08T15:04:52.000Z</time>
      </trkpt>
      <trkpt lat="45.42407" lon="6.19906">
        <ele>1646.5999755859</ele>
        <time>2023-08-08T15:04:56.000Z</time>
      </trkpt>
      <trkpt lat="45.42406" lon="6.19908">
        <ele>1646.4000244141</ele>
        <time>2023-08-08T15:04:57.000Z</time>
      </trkpt>
      <trkpt lat="45.42404" lon="6.19912">
        <ele>1645.1999511719</ele>
        <time>2023-08-08T15:05:01.000Z</time>
      </trkpt>
      <trkpt lat="45.42401" lon="6.19916">
        <ele>1644.1999511719</ele>
        <time>2023-08-08T15:05:05.000Z</time>
      </trkpt>
      <trkpt lat="45.42397" lon="6.19922">
        <ele>1643</ele>
        <time>2023-08-08T15:05:10.000Z</time>
      </trkpt>
      <trkpt lat="45.42395" lon="6.19923">
        <ele>1642.5999755859</ele>
        <time>2023-08-08T15:05:12.000Z</time>
      </trkpt>
      <trkpt lat="45.42392" lon="6.19925">
        <ele>1642</ele>
        <time>2023-08-08T15:05:15.000Z</time>
      </trkpt>
      <trkpt lat="45.42388" lon="6.19924">
        <ele>1640.8000488281</ele>
        <time>2023-08-08T15:05:20.000Z</time>
      </trkpt>
      <trkpt lat="45.42387" lon="6.1992">
        <ele>1640.1999511719</ele>
        <time>2023-08-08T15:05:23.000Z</time>
      </trkpt>
      <trkpt lat="45.42386" lon="6.19919">
        <ele>1639.8000488281</ele>
        <time>2023-08-08T15:05:25.000Z</time>
      </trkpt>
      <trkpt lat="45.42386" lon="6.19918">
        <ele>1639.1999511719</ele>
        <time>2023-08-08T15:05:26.000Z</time>
      </trkpt>
      <trkpt lat="45.42385" lon="6.19917">
        <ele>1638.8000488281</ele>
        <time>2023-08-08T15:05:28.000Z</time>
      </trkpt>
      <trkpt lat="45.42379" lon="6.19911">
        <ele>1637.5999755859</ele>
        <time>2023-08-08T15:05:34.000Z</time>
      </trkpt>
      <trkpt lat="45.42379" lon="6.19909">
        <ele>1637.4000244141</ele>
        <time>2023-08-08T15:05:36.000Z</time>
      </trkpt>
      <trkpt lat="45.4238" lon="6.19911">
        <ele>1636.5999755859</ele>
        <time>2023-08-08T15:05:39.000Z</time>
      </trkpt>
      <trkpt lat="45.42383" lon="6.19906">
        <ele>1635.5999755859</ele>
        <time>2023-08-08T15:05:44.000Z</time>
      </trkpt>
      <trkpt lat="45.42384" lon="6.19898">
        <ele>1634.4000244141</ele>
        <time>2023-08-08T15:05:50.000Z</time>
      </trkpt>
      <trkpt lat="45.42385" lon="6.19896">
        <ele>1634</ele>
        <time>2023-08-08T15:05:52.000Z</time>
      </trkpt>
      <trkpt lat="45.42387" lon="6.19891">
        <ele>1633.4000244141</ele>
        <time>2023-08-08T15:05:56.000Z</time>
      </trkpt>
      <trkpt lat="45.42388" lon="6.19888">
        <ele>1632.4000244141</ele>
        <time>2023-08-08T15:06:00.000Z</time>
      </trkpt>
      <trkpt lat="45.42389" lon="6.19887">
        <ele>1632.1999511719</ele>
        <time>2023-08-08T15:06:01.000Z</time>
      </trkpt>
      <trkpt lat="45.4239" lon="6.19882">
        <ele>1631.1999511719</ele>
        <time>2023-08-08T15:06:06.000Z</time>
      </trkpt>
      <trkpt lat="45.42393" lon="6.19874">
        <ele>1630.1999511719</ele>
        <time>2023-08-08T15:06:14.000Z</time>
      </trkpt>
      <trkpt lat="45.42393" lon="6.19874">
        <ele>1630</ele>
        <time>2023-08-08T15:06:15.000Z</time>
      </trkpt>
      <trkpt lat="45.42393" lon="6.19875">
        <ele>1630</ele>
        <time>2023-08-08T15:06:17.000Z</time>
      </trkpt>
      <trkpt lat="45.42394" lon="6.19872">
        <ele>1629.8000488281</ele>
        <time>2023-08-08T15:06:22.000Z</time>
      </trkpt>
      <trkpt lat="45.42392" lon="6.1987">
        <ele>1629.8000488281</ele>
        <time>2023-08-08T15:06:24.000Z</time>
      </trkpt>
      <trkpt lat="45.42389" lon="6.19868">
        <ele>1628.8000488281</ele>
        <time>2023-08-08T15:06:30.000Z</time>
      </trkpt>
      <trkpt lat="45.42381" lon="6.19873">
        <ele>1628.1999511719</ele>
        <time>2023-08-08T15:06:38.000Z</time>
      </trkpt>
      <trkpt lat="45.4238" lon="6.19875">
        <ele>1628.1999511719</ele>
        <time>2023-08-08T15:06:40.000Z</time>
      </trkpt>
      <trkpt lat="45.42378" lon="6.19876">
        <ele>1627.8000488281</ele>
        <time>2023-08-08T15:06:43.000Z</time>
      </trkpt>
      <trkpt lat="45.42371" lon="6.19878">
        <ele>1626.8000488281</ele>
        <time>2023-08-08T15:06:50.000Z</time>
      </trkpt>
      <trkpt lat="45.42363" lon="6.19882">
        <ele>1625.5999755859</ele>
        <time>2023-08-08T15:06:56.000Z</time>
      </trkpt>
      <trkpt lat="45.42362" lon="6.19883">
        <ele>1625.5999755859</ele>
        <time>2023-08-08T15:06:57.000Z</time>
      </trkpt>
      <trkpt lat="45.42362" lon="6.19881">
        <ele>1625.1999511719</ele>
        <time>2023-08-08T15:06:59.000Z</time>
      </trkpt>
      <trkpt lat="45.4236" lon="6.19877">
        <ele>1624.5999755859</ele>
        <time>2023-08-08T15:07:02.000Z</time>
      </trkpt>
      <trkpt lat="45.4236" lon="6.19875">
        <ele>1623.4000244141</ele>
        <time>2023-08-08T15:07:07.000Z</time>
      </trkpt>
      <trkpt lat="45.42361" lon="6.19873">
        <ele>1623.1999511719</ele>
        <time>2023-08-08T15:07:10.000Z</time>
      </trkpt>
      <trkpt lat="45.4236" lon="6.19873">
        <ele>1623.1999511719</ele>
        <time>2023-08-08T15:07:18.000Z</time>
      </trkpt>
      <trkpt lat="45.42358" lon="6.1987">
        <ele>1623.1999511719</ele>
        <time>2023-08-08T15:07:25.000Z</time>
      </trkpt>
      <trkpt lat="45.42358" lon="6.19867">
        <ele>1623.4000244141</ele>
        <time>2023-08-08T15:07:33.000Z</time>
      </trkpt>
      <trkpt lat="45.42361" lon="6.19869">
        <ele>1623</ele>
        <time>2023-08-08T15:07:40.000Z</time>
      </trkpt>
      <trkpt lat="45.42364" lon="6.19875">
        <ele>1622.5999755859</ele>
        <time>2023-08-08T15:07:49.000Z</time>
      </trkpt>
      <trkpt lat="45.42365" lon="6.19876">
        <ele>1622.4000244141</ele>
        <time>2023-08-08T15:07:50.000Z</time>
      </trkpt>
      <trkpt lat="45.42371" lon="6.19876">
        <ele>1623</ele>
        <time>2023-08-08T15:08:06.000Z</time>
      </trkpt>
      <trkpt lat="45.42371" lon="6.19877">
        <ele>1623</ele>
        <time>2023-08-08T15:08:15.000Z</time>
      </trkpt>
      <trkpt lat="45.42371" lon="6.19873">
        <ele>1623.1999511719</ele>
        <time>2023-08-08T15:08:24.000Z</time>
      </trkpt>
      <trkpt lat="45.42373" lon="6.19871">
        <ele>1623.4000244141</ele>
        <time>2023-08-08T15:08:32.000Z</time>
      </trkpt>
      <trkpt lat="45.42374" lon="6.19877">
        <ele>1623.4000244141</ele>
        <time>2023-08-08T15:08:44.000Z</time>
      </trkpt>
      <trkpt lat="45.42371" lon="6.19878">
        <ele>1623.1999511719</ele>
        <time>2023-08-08T15:08:52.000Z</time>
      </trkpt>
      <trkpt lat="45.42371" lon="6.19878">
        <ele>1623.4000244141</ele>
        <time>2023-08-08T15:09:01.000Z</time>
      </trkpt>
      <trkpt lat="45.42369" lon="6.19878">
        <ele>1623.8000488281</ele>
        <time>2023-08-08T15:09:13.000Z</time>
      </trkpt>
      <trkpt lat="45.42369" lon="6.1988">
        <ele>1623.5999755859</ele>
        <time>2023-08-08T15:09:22.000Z</time>
      </trkpt>
      <trkpt lat="45.4237" lon="6.19876">
        <ele>1624</ele>
        <time>2023-08-08T15:09:30.000Z</time>
      </trkpt>
      <trkpt lat="45.42373" lon="6.19876">
        <ele>1623.8000488281</ele>
        <time>2023-08-08T15:09:41.000Z</time>
      </trkpt>
      <trkpt lat="45.42373" lon="6.19873">
        <ele>1624.1999511719</ele>
        <time>2023-08-08T15:09:49.000Z</time>
      </trkpt>
      <trkpt lat="45.42369" lon="6.19875">
        <ele>1624.4000244141</ele>
        <time>2023-08-08T15:09:59.000Z</time>
      </trkpt>
      <trkpt lat="45.42366" lon="6.19872">
        <ele>1624.4000244141</ele>
        <time>2023-08-08T15:10:03.000Z</time>
      </trkpt>
      <trkpt lat="45.42364" lon="6.1987">
        <ele>1624.8000488281</ele>
        <time>2023-08-08T15:10:06.000Z</time>
      </trkpt>
      <trkpt lat="45.42363" lon="6.19866">
        <ele>1625</ele>
        <time>2023-08-08T15:10:14.000Z</time>
      </trkpt>
      <trkpt lat="45.42361" lon="6.19871">
        <ele>1625.1999511719</ele>
        <time>2023-08-08T15:10:22.000Z</time>
      </trkpt>
      <trkpt lat="45.42358" lon="6.19872">
        <ele>1625</ele>
        <time>2023-08-08T15:10:30.000Z</time>
      </trkpt>
      <trkpt lat="45.42359" lon="6.19868">
        <ele>1625</ele>
        <time>2023-08-08T15:10:38.000Z</time>
      </trkpt>
      <trkpt lat="45.42357" lon="6.19867">
        <ele>1624.8000488281</ele>
        <time>2023-08-08T15:10:46.000Z</time>
      </trkpt>
      <trkpt lat="45.42356" lon="6.19864">
        <ele>1625</ele>
        <time>2023-08-08T15:10:56.000Z</time>
      </trkpt>
      <trkpt lat="45.42356" lon="6.19862">
        <ele>1625.1999511719</ele>
        <time>2023-08-08T15:11:03.000Z</time>
      </trkpt>
      <trkpt lat="45.42356" lon="6.19859">
        <ele>1625.1999511719</ele>
        <time>2023-08-08T15:11:09.000Z</time>
      </trkpt>
      <trkpt lat="45.42357" lon="6.19863">
        <ele>1625.4000244141</ele>
        <time>2023-08-08T15:11:19.000Z</time>
      </trkpt>
      <trkpt lat="45.42354" lon="6.19868">
        <ele>1625</ele>
        <time>2023-08-08T15:11:27.000Z</time>
      </trkpt>
      <trkpt lat="45.42355" lon="6.19864">
        <ele>1625.1999511719</ele>
        <time>2023-08-08T15:11:34.000Z</time>
      </trkpt>
      <trkpt lat="45.42356" lon="6.19861">
        <ele>1625.5999755859</ele>
        <time>2023-08-08T15:11:38.000Z</time>
      </trkpt>
      <trkpt lat="45.42354" lon="6.19861">
        <ele>1625.5999755859</ele>
        <time>2023-08-08T15:11:45.000Z</time>
      </trkpt>
      <trkpt lat="45.42351" lon="6.19863">
        <ele>1625.5999755859</ele>
        <time>2023-08-08T15:11:54.000Z</time>
      </trkpt>
      <trkpt lat="45.42356" lon="6.19861">
        <ele>1626</ele>
        <time>2023-08-08T15:12:03.000Z</time>
      </trkpt>
      <trkpt lat="45.42352" lon="6.19864">
        <ele>1626</ele>
        <time>2023-08-08T15:12:16.000Z</time>
      </trkpt>
      <trkpt lat="45.42364" lon="6.19866">
        <ele>1625.8000488281</ele>
        <time>2023-08-08T15:12:45.000Z</time>
      </trkpt>
      <trkpt lat="45.4236" lon="6.19859">
        <ele>1625.8000488281</ele>
        <time>2023-08-08T15:12:53.000Z</time>
      </trkpt>
      <trkpt lat="45.42358" lon="6.19858">
        <ele>1625.8000488281</ele>
        <time>2023-08-08T15:13:00.000Z</time>
      </trkpt>
      <trkpt lat="45.42356" lon="6.1985">
        <ele>1626.5999755859</ele>
        <time>2023-08-08T15:13:08.000Z</time>
      </trkpt>
      <trkpt lat="45.42356" lon="6.19851">
        <ele>1626.8000488281</ele>
        <time>2023-08-08T15:13:18.000Z</time>
      </trkpt>
      <trkpt lat="45.42357" lon="6.1985">
        <ele>1627</ele>
        <time>2023-08-08T15:13:26.000Z</time>
      </trkpt>
      <trkpt lat="45.42361" lon="6.19848">
        <ele>1627</ele>
        <time>2023-08-08T15:13:35.000Z</time>
      </trkpt>
      <trkpt lat="45.42358" lon="6.19846">
        <ele>1626.8000488281</ele>
        <time>2023-08-08T15:13:45.000Z</time>
      </trkpt>
      <trkpt lat="45.42357" lon="6.19845">
        <ele>1627.5999755859</ele>
        <time>2023-08-08T15:13:53.000Z</time>
      </trkpt>
      <trkpt lat="45.42358" lon="6.19842">
        <ele>1627.8000488281</ele>
        <time>2023-08-08T15:13:55.000Z</time>
      </trkpt>
      <trkpt lat="45.42359" lon="6.1984">
        <ele>1628.4000244141</ele>
        <time>2023-08-08T15:14:02.000Z</time>
      </trkpt>
      <trkpt lat="45.42361" lon="6.19848">
        <ele>1628.4000244141</ele>
        <time>2023-08-08T15:14:12.000Z</time>
      </trkpt>
      <trkpt lat="45.42361" lon="6.19851">
        <ele>1628.1999511719</ele>
        <time>2023-08-08T15:14:18.000Z</time>
      </trkpt>
      <trkpt lat="45.42357" lon="6.19843">
        <ele>1628.1999511719</ele>
        <time>2023-08-08T15:14:27.000Z</time>
      </trkpt>
      <trkpt lat="45.42357" lon="6.1984">
        <ele>1628</ele>
        <time>2023-08-08T15:14:36.000Z</time>
      </trkpt>
      <trkpt lat="45.42358" lon="6.19841">
        <ele>1627.8000488281</ele>
        <time>2023-08-08T15:14:46.000Z</time>
      </trkpt>
      <trkpt lat="45.42356" lon="6.19838">
        <ele>1627.8000488281</ele>
        <time>2023-08-08T15:14:52.000Z</time>
      </trkpt>
      <trkpt lat="45.42353" lon="6.19841">
        <ele>1628.8000488281</ele>
        <time>2023-08-08T15:14:58.000Z</time>
      </trkpt>
      <trkpt lat="45.42352" lon="6.19843">
        <ele>1629</ele>
        <time>2023-08-08T15:15:00.000Z</time>
      </trkpt>
      <trkpt lat="45.4235" lon="6.19845">
        <ele>1629.8000488281</ele>
        <time>2023-08-08T15:15:05.000Z</time>
      </trkpt>
      <trkpt lat="45.42348" lon="6.19846">
        <ele>1630.1999511719</ele>
        <time>2023-08-08T15:15:08.000Z</time>
      </trkpt>
      <trkpt lat="45.42344" lon="6.19849">
        <ele>1630.8000488281</ele>
        <time>2023-08-08T15:15:14.000Z</time>
      </trkpt>
      <trkpt lat="45.42343" lon="6.1985">
        <ele>1631</ele>
        <time>2023-08-08T15:15:17.000Z</time>
      </trkpt>
      <trkpt lat="45.42342" lon="6.19851">
        <ele>1631.8000488281</ele>
        <time>2023-08-08T15:15:23.000Z</time>
      </trkpt>
      <trkpt lat="45.42342" lon="6.19851">
        <ele>1632</ele>
        <time>2023-08-08T15:15:24.000Z</time>
      </trkpt>
      <trkpt lat="45.42337" lon="6.1986">
        <ele>1632.5999755859</ele>
        <time>2023-08-08T15:15:31.000Z</time>
      </trkpt>
      <trkpt lat="45.42334" lon="6.19863">
        <ele>1632.8000488281</ele>
        <time>2023-08-08T15:15:34.000Z</time>
      </trkpt>
      <trkpt lat="45.42333" lon="6.19868">
        <ele>1633</ele>
        <time>2023-08-08T15:15:38.000Z</time>
      </trkpt>
      <trkpt lat="45.42335" lon="6.19869">
        <ele>1633.4000244141</ele>
        <time>2023-08-08T15:15:45.000Z</time>
      </trkpt>
      <trkpt lat="45.42338" lon="6.19869">
        <ele>1633.1999511719</ele>
        <time>2023-08-08T15:15:53.000Z</time>
      </trkpt>
      <trkpt lat="45.4234" lon="6.19869">
        <ele>1633.1999511719</ele>
        <time>2023-08-08T15:16:02.000Z</time>
      </trkpt>
      <trkpt lat="45.42338" lon="6.19868">
        <ele>1633.1999511719</ele>
        <time>2023-08-08T15:16:12.000Z</time>
      </trkpt>
      <trkpt lat="45.42338" lon="6.1987">
        <ele>1633.1999511719</ele>
        <time>2023-08-08T15:16:21.000Z</time>
      </trkpt>
      <trkpt lat="45.42337" lon="6.19873">
        <ele>1633</ele>
        <time>2023-08-08T15:16:27.000Z</time>
      </trkpt>
      <trkpt lat="45.42338" lon="6.19869">
        <ele>1633</ele>
        <time>2023-08-08T15:16:35.000Z</time>
      </trkpt>
      <trkpt lat="45.42343" lon="6.19868">
        <ele>1633</ele>
        <time>2023-08-08T15:16:43.000Z</time>
      </trkpt>
      <trkpt lat="45.42344" lon="6.19876">
        <ele>1633</ele>
        <time>2023-08-08T15:16:51.000Z</time>
      </trkpt>
      <trkpt lat="45.42343" lon="6.19873">
        <ele>1633</ele>
        <time>2023-08-08T15:16:59.000Z</time>
      </trkpt>
      <trkpt lat="45.42341" lon="6.19873">
        <ele>1633</ele>
        <time>2023-08-08T15:17:06.000Z</time>
      </trkpt>
      <trkpt lat="45.42337" lon="6.19875">
        <ele>1633</ele>
        <time>2023-08-08T15:17:15.000Z</time>
      </trkpt>
      <trkpt lat="45.4233" lon="6.19874">
        <ele>1633</ele>
        <time>2023-08-08T15:17:21.000Z</time>
      </trkpt>
      <trkpt lat="45.42328" lon="6.19878">
        <ele>1632.8000488281</ele>
        <time>2023-08-08T15:17:26.000Z</time>
      </trkpt>
      <trkpt lat="45.42328" lon="6.1988">
        <ele>1633.4000244141</ele>
        <time>2023-08-08T15:17:33.000Z</time>
      </trkpt>
      <trkpt lat="45.42324" lon="6.19886">
        <ele>1633.8000488281</ele>
        <time>2023-08-08T15:17:40.000Z</time>
      </trkpt>
      <trkpt lat="45.42323" lon="6.19888">
        <ele>1634.1999511719</ele>
        <time>2023-08-08T15:17:42.000Z</time>
      </trkpt>
      <trkpt lat="45.42322" lon="6.1989">
        <ele>1634.5999755859</ele>
        <time>2023-08-08T15:17:49.000Z</time>
      </trkpt>
      <trkpt lat="45.4232" lon="6.19888">
        <ele>1634.5999755859</ele>
        <time>2023-08-08T15:17:57.000Z</time>
      </trkpt>
      <trkpt lat="45.42318" lon="6.19884">
        <ele>1634.5999755859</ele>
        <time>2023-08-08T15:18:04.000Z</time>
      </trkpt>
      <trkpt lat="45.42321" lon="6.19884">
        <ele>1634.5999755859</ele>
        <time>2023-08-08T15:18:11.000Z</time>
      </trkpt>
      <trkpt lat="45.42323" lon="6.19886">
        <ele>1634.5999755859</ele>
        <time>2023-08-08T15:18:17.000Z</time>
      </trkpt>
      <trkpt lat="45.42323" lon="6.1989">
        <ele>1634.5999755859</ele>
        <time>2023-08-08T15:18:23.000Z</time>
      </trkpt>
      <trkpt lat="45.4232" lon="6.19889">
        <ele>1635.1999511719</ele>
        <time>2023-08-08T15:18:28.000Z</time>
      </trkpt>
      <trkpt lat="45.42318" lon="6.19888">
        <ele>1635.1999511719</ele>
        <time>2023-08-08T15:18:30.000Z</time>
      </trkpt>
      <trkpt lat="45.42314" lon="6.19888">
        <ele>1636.1999511719</ele>
        <time>2023-08-08T15:18:38.000Z</time>
      </trkpt>
      <trkpt lat="45.42313" lon="6.19888">
        <ele>1636.1999511719</ele>
        <time>2023-08-08T15:18:39.000Z</time>
      </trkpt>
      <trkpt lat="45.42311" lon="6.19894">
        <ele>1637</ele>
        <time>2023-08-08T15:18:45.000Z</time>
      </trkpt>
      <trkpt lat="45.42311" lon="6.19895">
        <ele>1637.4000244141</ele>
        <time>2023-08-08T15:18:47.000Z</time>
      </trkpt>
      <trkpt lat="45.42308" lon="6.19893">
        <ele>1638</ele>
        <time>2023-08-08T15:18:52.000Z</time>
      </trkpt>
      <trkpt lat="45.42307" lon="6.19889">
        <ele>1638.4000244141</ele>
        <time>2023-08-08T15:18:55.000Z</time>
      </trkpt>
      <trkpt lat="45.42305" lon="6.19889">
        <ele>1639</ele>
        <time>2023-08-08T15:18:59.000Z</time>
      </trkpt>
      <trkpt lat="45.42304" lon="6.19889">
        <ele>1639.5999755859</ele>
        <time>2023-08-08T15:19:02.000Z</time>
      </trkpt>
      <trkpt lat="45.42302" lon="6.1989">
        <ele>1640</ele>
        <time>2023-08-08T15:19:05.000Z</time>
      </trkpt>
      <trkpt lat="45.423" lon="6.19892">
        <ele>1640.5999755859</ele>
        <time>2023-08-08T15:19:10.000Z</time>
      </trkpt>
      <trkpt lat="45.42299" lon="6.19894">
        <ele>1641</ele>
        <time>2023-08-08T15:19:12.000Z</time>
      </trkpt>
      <trkpt lat="45.42297" lon="6.19897">
        <ele>1641.5999755859</ele>
        <time>2023-08-08T15:19:17.000Z</time>
      </trkpt>
      <trkpt lat="45.42296" lon="6.19896">
        <ele>1641.8000488281</ele>
        <time>2023-08-08T15:19:19.000Z</time>
      </trkpt>
      <trkpt lat="45.42294" lon="6.19901">
        <ele>1642.4000244141</ele>
        <time>2023-08-08T15:19:25.000Z</time>
      </trkpt>
      <trkpt lat="45.42294" lon="6.19901">
        <ele>1642.8000488281</ele>
        <time>2023-08-08T15:19:27.000Z</time>
      </trkpt>
      <trkpt lat="45.42294" lon="6.199">
        <ele>1643.1999511719</ele>
        <time>2023-08-08T15:19:31.000Z</time>
      </trkpt>
      <trkpt lat="45.42292" lon="6.199">
        <ele>1643.8000488281</ele>
        <time>2023-08-08T15:19:36.000Z</time>
      </trkpt>
      <trkpt lat="45.4229" lon="6.199">
        <ele>1644.1999511719</ele>
        <time>2023-08-08T15:19:39.000Z</time>
      </trkpt>
      <trkpt lat="45.42286" lon="6.19901">
        <ele>1644.8000488281</ele>
        <time>2023-08-08T15:19:43.000Z</time>
      </trkpt>
      <trkpt lat="45.42283" lon="6.19902">
        <ele>1645.4000244141</ele>
        <time>2023-08-08T15:19:48.000Z</time>
      </trkpt>
      <trkpt lat="45.42284" lon="6.19902">
        <ele>1646</ele>
        <time>2023-08-08T15:19:51.000Z</time>
      </trkpt>
      <trkpt lat="45.42282" lon="6.19902">
        <ele>1646.5999755859</ele>
        <time>2023-08-08T15:19:55.000Z</time>
      </trkpt>
      <trkpt lat="45.42278" lon="6.19903">
        <ele>1647</ele>
        <time>2023-08-08T15:20:01.000Z</time>
      </trkpt>
      <trkpt lat="45.42277" lon="6.19903">
        <ele>1647.1999511719</ele>
        <time>2023-08-08T15:20:03.000Z</time>
      </trkpt>
      <trkpt lat="45.42273" lon="6.19904">
        <ele>1648</ele>
        <time>2023-08-08T15:20:09.000Z</time>
      </trkpt>
      <trkpt lat="45.42273" lon="6.19904">
        <ele>1648.1999511719</ele>
        <time>2023-08-08T15:20:10.000Z</time>
      </trkpt>
      <trkpt lat="45.42274" lon="6.19908">
        <ele>1648.5999755859</ele>
        <time>2023-08-08T15:20:16.000Z</time>
      </trkpt>
      <trkpt lat="45.42276" lon="6.19914">
        <ele>1649</ele>
        <time>2023-08-08T15:20:21.000Z</time>
      </trkpt>
      <trkpt lat="45.42277" lon="6.19923">
        <ele>1649.5999755859</ele>
        <time>2023-08-08T15:20:26.000Z</time>
      </trkpt>
      <trkpt lat="45.42278" lon="6.19924">
        <ele>1649.8000488281</ele>
        <time>2023-08-08T15:20:29.000Z</time>
      </trkpt>
      <trkpt lat="45.42277" lon="6.19923">
        <ele>1650.1999511719</ele>
        <time>2023-08-08T15:20:31.000Z</time>
      </trkpt>
      <trkpt lat="45.42276" lon="6.19923">
        <ele>1650.5999755859</ele>
        <time>2023-08-08T15:20:34.000Z</time>
      </trkpt>
      <trkpt lat="45.42276" lon="6.19923">
        <ele>1650.8000488281</ele>
        <time>2023-08-08T15:20:36.000Z</time>
      </trkpt>
      <trkpt lat="45.42275" lon="6.19923">
        <ele>1651.1999511719</ele>
        <time>2023-08-08T15:20:40.000Z</time>
      </trkpt>
      <trkpt lat="45.42273" lon="6.19923">
        <ele>1651.8000488281</ele>
        <time>2023-08-08T15:20:44.000Z</time>
      </trkpt>
      <trkpt lat="45.42269" lon="6.19925">
        <ele>1652.1999511719</ele>
        <time>2023-08-08T15:20:48.000Z</time>
      </trkpt>
      <trkpt lat="45.42266" lon="6.19928">
        <ele>1652.4000244141</ele>
        <time>2023-08-08T15:20:53.000Z</time>
      </trkpt>
      <trkpt lat="45.42266" lon="6.19934">
        <ele>1652.5999755859</ele>
        <time>2023-08-08T15:20:59.000Z</time>
      </trkpt>
      <trkpt lat="45.42262" lon="6.19938">
        <ele>1652.5999755859</ele>
        <time>2023-08-08T15:21:07.000Z</time>
      </trkpt>
      <trkpt lat="45.42258" lon="6.19937">
        <ele>1652.4000244141</ele>
        <time>2023-08-08T15:21:14.000Z</time>
      </trkpt>
      <trkpt lat="45.42251" lon="6.19939">
        <ele>1651.5999755859</ele>
        <time>2023-08-08T15:21:22.000Z</time>
      </trkpt>
      <trkpt lat="45.42248" lon="6.19939">
        <ele>1651.1999511719</ele>
        <time>2023-08-08T15:21:26.000Z</time>
      </trkpt>
      <trkpt lat="45.42244" lon="6.19941">
        <ele>1650.8000488281</ele>
        <time>2023-08-08T15:21:29.000Z</time>
      </trkpt>
      <trkpt lat="45.42242" lon="6.19948">
        <ele>1650.5999755859</ele>
        <time>2023-08-08T15:21:36.000Z</time>
      </trkpt>
      <trkpt lat="45.42242" lon="6.19956">
        <ele>1651.8000488281</ele>
        <time>2023-08-08T15:21:45.000Z</time>
      </trkpt>
      <trkpt lat="45.42244" lon="6.19959">
        <ele>1652.1999511719</ele>
        <time>2023-08-08T15:21:50.000Z</time>
      </trkpt>
      <trkpt lat="45.42244" lon="6.19961">
        <ele>1652.4000244141</ele>
        <time>2023-08-08T15:21:52.000Z</time>
      </trkpt>
      <trkpt lat="45.42244" lon="6.19964">
        <ele>1653.4000244141</ele>
        <time>2023-08-08T15:21:57.000Z</time>
      </trkpt>
      <trkpt lat="45.42244" lon="6.19965">
        <ele>1653.5999755859</ele>
        <time>2023-08-08T15:21:59.000Z</time>
      </trkpt>
      <trkpt lat="45.42242" lon="6.19968">
        <ele>1654.4000244141</ele>
        <time>2023-08-08T15:22:05.000Z</time>
      </trkpt>
      <trkpt lat="45.42241" lon="6.19968">
        <ele>1654.5999755859</ele>
        <time>2023-08-08T15:22:06.000Z</time>
      </trkpt>
      <trkpt lat="45.42237" lon="6.19962">
        <ele>1655.1999511719</ele>
        <time>2023-08-08T15:22:12.000Z</time>
      </trkpt>
      <trkpt lat="45.42235" lon="6.19962">
        <ele>1655.5999755859</ele>
        <time>2023-08-08T15:22:14.000Z</time>
      </trkpt>
      <trkpt lat="45.4223" lon="6.19961">
        <ele>1656.1999511719</ele>
        <time>2023-08-08T15:22:20.000Z</time>
      </trkpt>
      <trkpt lat="45.42223" lon="6.19959">
        <ele>1656.1999511719</ele>
        <time>2023-08-08T15:22:31.000Z</time>
      </trkpt>
      <trkpt lat="45.42216" lon="6.19962">
        <ele>1656.4000244141</ele>
        <time>2023-08-08T15:22:39.000Z</time>
      </trkpt>
      <trkpt lat="45.4221" lon="6.19965">
        <ele>1656.1999511719</ele>
        <time>2023-08-08T15:22:47.000Z</time>
      </trkpt>
      <trkpt lat="45.42207" lon="6.1997">
        <ele>1656.5999755859</ele>
        <time>2023-08-08T15:22:53.000Z</time>
      </trkpt>
      <trkpt lat="45.42207" lon="6.19972">
        <ele>1657</ele>
        <time>2023-08-08T15:22:56.000Z</time>
      </trkpt>
      <trkpt lat="45.42206" lon="6.19972">
        <ele>1657.8000488281</ele>
        <time>2023-08-08T15:23:00.000Z</time>
      </trkpt>
      <trkpt lat="45.42204" lon="6.19972">
        <ele>1658.4000244141</ele>
        <time>2023-08-08T15:23:03.000Z</time>
      </trkpt>
      <trkpt lat="45.42201" lon="6.19968">
        <ele>1659</ele>
        <time>2023-08-08T15:23:08.000Z</time>
      </trkpt>
      <trkpt lat="45.42201" lon="6.19964">
        <ele>1659.1999511719</ele>
        <time>2023-08-08T15:23:11.000Z</time>
      </trkpt>
      <trkpt lat="45.42198" lon="6.19958">
        <ele>1660</ele>
        <time>2023-08-08T15:23:18.000Z</time>
      </trkpt>
      <trkpt lat="45.42197" lon="6.19957">
        <ele>1660</ele>
        <time>2023-08-08T15:23:19.000Z</time>
      </trkpt>
      <trkpt lat="45.42192" lon="6.19946">
        <ele>1660</ele>
        <time>2023-08-08T15:23:27.000Z</time>
      </trkpt>
      <trkpt lat="45.42192" lon="6.19939">
        <ele>1660.4000244141</ele>
        <time>2023-08-08T15:23:33.000Z</time>
      </trkpt>
      <trkpt lat="45.42189" lon="6.19929">
        <ele>1661</ele>
        <time>2023-08-08T15:23:42.000Z</time>
      </trkpt>
      <trkpt lat="45.42188" lon="6.19929">
        <ele>1661</ele>
        <time>2023-08-08T15:23:43.000Z</time>
      </trkpt>
      <trkpt lat="45.42186" lon="6.19925">
        <ele>1661.5999755859</ele>
        <time>2023-08-08T15:23:49.000Z</time>
      </trkpt>
      <trkpt lat="45.42183" lon="6.19919">
        <ele>1662.1999511719</ele>
        <time>2023-08-08T15:23:54.000Z</time>
      </trkpt>
      <trkpt lat="45.42181" lon="6.19918">
        <ele>1662.1999511719</ele>
        <time>2023-08-08T15:23:56.000Z</time>
      </trkpt>
      <trkpt lat="45.42177" lon="6.19908">
        <ele>1662.1999511719</ele>
        <time>2023-08-08T15:24:05.000Z</time>
      </trkpt>
      <trkpt lat="45.4217" lon="6.19895">
        <ele>1662.5999755859</ele>
        <time>2023-08-08T15:24:14.000Z</time>
      </trkpt>
      <trkpt lat="45.42165" lon="6.19889">
        <ele>1662.5999755859</ele>
        <time>2023-08-08T15:24:20.000Z</time>
      </trkpt>
      <trkpt lat="45.42162" lon="6.19886">
        <ele>1662.8000488281</ele>
        <time>2023-08-08T15:24:27.000Z</time>
      </trkpt>
      <trkpt lat="45.4216" lon="6.19888">
        <ele>1663</ele>
        <time>2023-08-08T15:24:33.000Z</time>
      </trkpt>
      <trkpt lat="45.4216" lon="6.19889">
        <ele>1663</ele>
        <time>2023-08-08T15:24:34.000Z</time>
      </trkpt>
      <trkpt lat="45.42157" lon="6.19887">
        <ele>1663</ele>
        <time>2023-08-08T15:24:43.000Z</time>
      </trkpt>
      <trkpt lat="45.42155" lon="6.19886">
        <ele>1662.8000488281</ele>
        <time>2023-08-08T15:24:51.000Z</time>
      </trkpt>
      <trkpt lat="45.42153" lon="6.19885">
        <ele>1662.8000488281</ele>
        <time>2023-08-08T15:24:57.000Z</time>
      </trkpt>
      <trkpt lat="45.42146" lon="6.19882">
        <ele>1662.5999755859</ele>
        <time>2023-08-08T15:25:06.000Z</time>
      </trkpt>
      <trkpt lat="45.42141" lon="6.1988">
        <ele>1663</ele>
        <time>2023-08-08T15:25:13.000Z</time>
      </trkpt>
      <trkpt lat="45.42141" lon="6.19878">
        <ele>1663.1999511719</ele>
        <time>2023-08-08T15:25:15.000Z</time>
      </trkpt>
      <trkpt lat="45.42139" lon="6.19876">
        <ele>1664</ele>
        <time>2023-08-08T15:25:20.000Z</time>
      </trkpt>
      <trkpt lat="45.42137" lon="6.19876">
        <ele>1664.4000244141</ele>
        <time>2023-08-08T15:25:23.000Z</time>
      </trkpt>
      <trkpt lat="45.42134" lon="6.19877">
        <ele>1665</ele>
        <time>2023-08-08T15:25:29.000Z</time>
      </trkpt>
      <trkpt lat="45.42131" lon="6.19877">
        <ele>1665.4000244141</ele>
        <time>2023-08-08T15:25:33.000Z</time>
      </trkpt>
      <trkpt lat="45.42126" lon="6.19875">
        <ele>1665.8000488281</ele>
        <time>2023-08-08T15:25:38.000Z</time>
      </trkpt>
      <trkpt lat="45.42119" lon="6.19873">
        <ele>1666.4000244141</ele>
        <time>2023-08-08T15:25:45.000Z</time>
      </trkpt>
      <trkpt lat="45.42118" lon="6.19872">
        <ele>1666.5999755859</ele>
        <time>2023-08-08T15:25:46.000Z</time>
      </trkpt>
      <trkpt lat="45.42114" lon="6.19873">
        <ele>1666.5999755859</ele>
        <time>2023-08-08T15:25:50.000Z</time>
      </trkpt>
      <trkpt lat="45.42111" lon="6.19874">
        <ele>1666.5999755859</ele>
        <time>2023-08-08T15:25:56.000Z</time>
      </trkpt>
      <trkpt lat="45.42108" lon="6.19871">
        <ele>1667.5999755859</ele>
        <time>2023-08-08T15:26:05.000Z</time>
      </trkpt>
      <trkpt lat="45.42107" lon="6.19871">
        <ele>1667.5999755859</ele>
        <time>2023-08-08T15:26:06.000Z</time>
      </trkpt>
      <trkpt lat="45.42103" lon="6.19869">
        <ele>1668.4000244141</ele>
        <time>2023-08-08T15:26:11.000Z</time>
      </trkpt>
      <trkpt lat="45.42099" lon="6.19873">
        <ele>1668.5999755859</ele>
        <time>2023-08-08T15:26:18.000Z</time>
      </trkpt>
      <trkpt lat="45.42098" lon="6.19873">
        <ele>1667.8000488281</ele>
        <time>2023-08-08T15:26:25.000Z</time>
      </trkpt>
      <trkpt lat="45.42098" lon="6.19875">
        <ele>1668.4000244141</ele>
        <time>2023-08-08T15:26:33.000Z</time>
      </trkpt>
      <trkpt lat="45.421" lon="6.19872">
        <ele>1668.5999755859</ele>
        <time>2023-08-08T15:26:44.000Z</time>
      </trkpt>
      <trkpt lat="45.421" lon="6.19873">
        <ele>1668.1999511719</ele>
        <time>2023-08-08T15:26:52.000Z</time>
      </trkpt>
      <trkpt lat="45.42096" lon="6.19867">
        <ele>1668.4000244141</ele>
        <time>2023-08-08T15:26:59.000Z</time>
      </trkpt>
      <trkpt lat="45.42092" lon="6.19871">
        <ele>1668.5999755859</ele>
        <time>2023-08-08T15:27:05.000Z</time>
      </trkpt>
      <trkpt lat="45.42093" lon="6.19872">
        <ele>1668.8000488281</ele>
        <time>2023-08-08T15:27:07.000Z</time>
      </trkpt>
      <trkpt lat="45.42093" lon="6.19872">
        <ele>1669</ele>
        <time>2023-08-08T15:27:11.000Z</time>
      </trkpt>
      <trkpt lat="45.42092" lon="6.1987">
        <ele>1669</ele>
        <time>2023-08-08T15:27:17.000Z</time>
      </trkpt>
      <trkpt lat="45.42088" lon="6.19868">
        <ele>1669.1999511719</ele>
        <time>2023-08-08T15:27:25.000Z</time>
      </trkpt>
      <trkpt lat="45.42085" lon="6.19869">
        <ele>1669.8000488281</ele>
        <time>2023-08-08T15:27:29.000Z</time>
      </trkpt>
      <trkpt lat="45.42079" lon="6.19868">
        <ele>1670.4000244141</ele>
        <time>2023-08-08T15:27:35.000Z</time>
      </trkpt>
      <trkpt lat="45.42076" lon="6.19867">
        <ele>1670.8000488281</ele>
        <time>2023-08-08T15:27:38.000Z</time>
      </trkpt>
      <trkpt lat="45.42074" lon="6.19867">
        <ele>1671.1999511719</ele>
        <time>2023-08-08T15:27:43.000Z</time>
      </trkpt>
      <trkpt lat="45.42068" lon="6.19869">
        <ele>1671.5999755859</ele>
        <time>2023-08-08T15:27:50.000Z</time>
      </trkpt>
      <trkpt lat="45.42067" lon="6.19868">
        <ele>1671.8000488281</ele>
        <time>2023-08-08T15:27:52.000Z</time>
      </trkpt>
      <trkpt lat="45.42066" lon="6.19868">
        <ele>1672.4000244141</ele>
        <time>2023-08-08T15:27:58.000Z</time>
      </trkpt>
      <trkpt lat="45.42062" lon="6.19866">
        <ele>1673</ele>
        <time>2023-08-08T15:28:03.000Z</time>
      </trkpt>
      <trkpt lat="45.4206" lon="6.19866">
        <ele>1673.5999755859</ele>
        <time>2023-08-08T15:28:08.000Z</time>
      </trkpt>
      <trkpt lat="45.42059" lon="6.19865">
        <ele>1673.8000488281</ele>
        <time>2023-08-08T15:28:17.000Z</time>
      </trkpt>
      <trkpt lat="45.42059" lon="6.19865">
        <ele>1674</ele>
        <time>2023-08-08T15:28:20.000Z</time>
      </trkpt>
      <trkpt lat="45.42054" lon="6.19862">
        <ele>1674.5999755859</ele>
        <time>2023-08-08T15:28:26.000Z</time>
      </trkpt>
      <trkpt lat="45.42053" lon="6.19862">
        <ele>1675</ele>
        <time>2023-08-08T15:28:28.000Z</time>
      </trkpt>
      <trkpt lat="45.42053" lon="6.19862">
        <ele>1676</ele>
        <time>2023-08-08T15:28:34.000Z</time>
      </trkpt>
      <trkpt lat="45.42052" lon="6.19862">
        <ele>1676.1999511719</ele>
        <time>2023-08-08T15:28:35.000Z</time>
      </trkpt>
      <trkpt lat="45.42048" lon="6.19863">
        <ele>1677.1999511719</ele>
        <time>2023-08-08T15:28:43.000Z</time>
      </trkpt>
      <trkpt lat="45.42043" lon="6.19864">
        <ele>1678</ele>
        <time>2023-08-08T15:28:49.000Z</time>
      </trkpt>
      <trkpt lat="45.4204" lon="6.19867">
        <ele>1678.1999511719</ele>
        <time>2023-08-08T15:28:52.000Z</time>
      </trkpt>
      <trkpt lat="45.42038" lon="6.1987">
        <ele>1678.4000244141</ele>
        <time>2023-08-08T15:28:55.000Z</time>
      </trkpt>
      <trkpt lat="45.42035" lon="6.19868">
        <ele>1678.8000488281</ele>
        <time>2023-08-08T15:29:01.000Z</time>
      </trkpt>
      <trkpt lat="45.42034" lon="6.19867">
        <ele>1679.1999511719</ele>
        <time>2023-08-08T15:29:03.000Z</time>
      </trkpt>
      <trkpt lat="45.42034" lon="6.19866">
        <ele>1679.4000244141</ele>
        <time>2023-08-08T15:29:04.000Z</time>
      </trkpt>
      <trkpt lat="45.42032" lon="6.19865">
        <ele>1680.4000244141</ele>
        <time>2023-08-08T15:29:11.000Z</time>
      </trkpt>
      <trkpt lat="45.4203" lon="6.19868">
        <ele>1681.5999755859</ele>
        <time>2023-08-08T15:29:18.000Z</time>
      </trkpt>
      <trkpt lat="45.42029" lon="6.19868">
        <ele>1681.5999755859</ele>
        <time>2023-08-08T15:29:19.000Z</time>
      </trkpt>
      <trkpt lat="45.42024" lon="6.19866">
        <ele>1682.5999755859</ele>
        <time>2023-08-08T15:29:26.000Z</time>
      </trkpt>
      <trkpt lat="45.42022" lon="6.19862">
        <ele>1683.4000244141</ele>
        <time>2023-08-08T15:29:33.000Z</time>
      </trkpt>
      <trkpt lat="45.42021" lon="6.19859">
        <ele>1683.8000488281</ele>
        <time>2023-08-08T15:29:35.000Z</time>
      </trkpt>
      <trkpt lat="45.42019" lon="6.19854">
        <ele>1684.4000244141</ele>
        <time>2023-08-08T15:29:40.000Z</time>
      </trkpt>
      <trkpt lat="45.42019" lon="6.19855">
        <ele>1684.8000488281</ele>
        <time>2023-08-08T15:29:43.000Z</time>
      </trkpt>
      <trkpt lat="45.42018" lon="6.19855">
        <ele>1685.1999511719</ele>
        <time>2023-08-08T15:29:46.000Z</time>
      </trkpt>
      <trkpt lat="45.42015" lon="6.19854">
        <ele>1685.8000488281</ele>
        <time>2023-08-08T15:29:51.000Z</time>
      </trkpt>
      <trkpt lat="45.42015" lon="6.19853">
        <ele>1686.1999511719</ele>
        <time>2023-08-08T15:29:53.000Z</time>
      </trkpt>
      <trkpt lat="45.42011" lon="6.19852">
        <ele>1687</ele>
        <time>2023-08-08T15:29:59.000Z</time>
      </trkpt>
      <trkpt lat="45.4201" lon="6.19852">
        <ele>1687</ele>
        <time>2023-08-08T15:30:00.000Z</time>
      </trkpt>
      <trkpt lat="45.42006" lon="6.19852">
        <ele>1688</ele>
        <time>2023-08-08T15:30:07.000Z</time>
      </trkpt>
      <trkpt lat="45.42005" lon="6.19852">
        <ele>1688</ele>
        <time>2023-08-08T15:30:08.000Z</time>
      </trkpt>
      <trkpt lat="45.41999" lon="6.19852">
        <ele>1689</ele>
        <time>2023-08-08T15:30:14.000Z</time>
      </trkpt>
      <trkpt lat="45.41997" lon="6.19851">
        <ele>1689.1999511719</ele>
        <time>2023-08-08T15:30:16.000Z</time>
      </trkpt>
      <trkpt lat="45.41993" lon="6.1985">
        <ele>1690</ele>
        <time>2023-08-08T15:30:23.000Z</time>
      </trkpt>
      <trkpt lat="45.41991" lon="6.19846">
        <ele>1691</ele>
        <time>2023-08-08T15:30:32.000Z</time>
      </trkpt>
      <trkpt lat="45.41991" lon="6.19845">
        <ele>1691</ele>
        <time>2023-08-08T15:30:33.000Z</time>
      </trkpt>
      <trkpt lat="45.41987" lon="6.19843">
        <ele>1691.8000488281</ele>
        <time>2023-08-08T15:30:40.000Z</time>
      </trkpt>
      <trkpt lat="45.4198" lon="6.1984">
        <ele>1692.1999511719</ele>
        <time>2023-08-08T15:30:47.000Z</time>
      </trkpt>
      <trkpt lat="45.41976" lon="6.19841">
        <ele>1693</ele>
        <time>2023-08-08T15:30:53.000Z</time>
      </trkpt>
      <trkpt lat="45.41975" lon="6.19843">
        <ele>1693.4000244141</ele>
        <time>2023-08-08T15:30:57.000Z</time>
      </trkpt>
      <trkpt lat="45.41974" lon="6.19845">
        <ele>1694.4000244141</ele>
        <time>2023-08-08T15:31:01.000Z</time>
      </trkpt>
      <trkpt lat="45.41973" lon="6.19845">
        <ele>1694.5999755859</ele>
        <time>2023-08-08T15:31:02.000Z</time>
      </trkpt>
      <trkpt lat="45.41968" lon="6.19844">
        <ele>1695.4000244141</ele>
        <time>2023-08-08T15:31:08.000Z</time>
      </trkpt>
      <trkpt lat="45.41967" lon="6.19843">
        <ele>1695.5999755859</ele>
        <time>2023-08-08T15:31:10.000Z</time>
      </trkpt>
      <trkpt lat="45.41962" lon="6.1984">
        <ele>1696</ele>
        <time>2023-08-08T15:31:16.000Z</time>
      </trkpt>
      <trkpt lat="45.41958" lon="6.19838">
        <ele>1696.4000244141</ele>
        <time>2023-08-08T15:31:21.000Z</time>
      </trkpt>
      <trkpt lat="45.41954" lon="6.19838">
        <ele>1696.8000488281</ele>
        <time>2023-08-08T15:31:25.000Z</time>
      </trkpt>
      <trkpt lat="45.4195" lon="6.19839">
        <ele>1697.5999755859</ele>
        <time>2023-08-08T15:31:31.000Z</time>
      </trkpt>
      <trkpt lat="45.41949" lon="6.19839">
        <ele>1697.8000488281</ele>
        <time>2023-08-08T15:31:33.000Z</time>
      </trkpt>
      <trkpt lat="45.41947" lon="6.19838">
        <ele>1698.5999755859</ele>
        <time>2023-08-08T15:31:38.000Z</time>
      </trkpt>
      <trkpt lat="45.41946" lon="6.19838">
        <ele>1698.8000488281</ele>
        <time>2023-08-08T15:31:40.000Z</time>
      </trkpt>
      <trkpt lat="45.41942" lon="6.19838">
        <ele>1699.8000488281</ele>
        <time>2023-08-08T15:31:46.000Z</time>
      </trkpt>
      <trkpt lat="45.41942" lon="6.19838">
        <ele>1700</ele>
        <time>2023-08-08T15:31:47.000Z</time>
      </trkpt>
      <trkpt lat="45.41939" lon="6.19839">
        <ele>1700.8000488281</ele>
        <time>2023-08-08T15:31:53.000Z</time>
      </trkpt>
      <trkpt lat="45.41939" lon="6.19839">
        <ele>1701</ele>
        <time>2023-08-08T15:31:54.000Z</time>
      </trkpt>
      <trkpt lat="45.41935" lon="6.19837">
        <ele>1701.8000488281</ele>
        <time>2023-08-08T15:32:00.000Z</time>
      </trkpt>
      <trkpt lat="45.41935" lon="6.19837">
        <ele>1702</ele>
        <time>2023-08-08T15:32:01.000Z</time>
      </trkpt>
      <trkpt lat="45.41931" lon="6.19832">
        <ele>1702.8000488281</ele>
        <time>2023-08-08T15:32:09.000Z</time>
      </trkpt>
      <trkpt lat="45.41931" lon="6.19832">
        <ele>1703</ele>
        <time>2023-08-08T15:32:10.000Z</time>
      </trkpt>
      <trkpt lat="45.41928" lon="6.19832">
        <ele>1704</ele>
        <time>2023-08-08T15:32:17.000Z</time>
      </trkpt>
      <trkpt lat="45.41925" lon="6.19832">
        <ele>1705</ele>
        <time>2023-08-08T15:32:24.000Z</time>
      </trkpt>
      <trkpt lat="45.41923" lon="6.19833">
        <ele>1705.5999755859</ele>
        <time>2023-08-08T15:32:27.000Z</time>
      </trkpt>
      <trkpt lat="45.41921" lon="6.19832">
        <ele>1706.1999511719</ele>
        <time>2023-08-08T15:32:32.000Z</time>
      </trkpt>
      <trkpt lat="45.41921" lon="6.1983">
        <ele>1706.5999755859</ele>
        <time>2023-08-08T15:32:35.000Z</time>
      </trkpt>
      <trkpt lat="45.41919" lon="6.19827">
        <ele>1707.4000244141</ele>
        <time>2023-08-08T15:32:39.000Z</time>
      </trkpt>
      <trkpt lat="45.41918" lon="6.19827">
        <ele>1707.5999755859</ele>
        <time>2023-08-08T15:32:41.000Z</time>
      </trkpt>
      <trkpt lat="45.41917" lon="6.19829">
        <ele>1708.4000244141</ele>
        <time>2023-08-08T15:32:46.000Z</time>
      </trkpt>
      <trkpt lat="45.41918" lon="6.19828">
        <ele>1708.4000244141</ele>
        <time>2023-08-08T15:32:50.000Z</time>
      </trkpt>
      <trkpt lat="45.41917" lon="6.1983">
        <ele>1708.4000244141</ele>
        <time>2023-08-08T15:33:01.000Z</time>
      </trkpt>
      <trkpt lat="45.41913" lon="6.19825">
        <ele>1708.5999755859</ele>
        <time>2023-08-08T15:33:08.000Z</time>
      </trkpt>
      <trkpt lat="45.41912" lon="6.19821">
        <ele>1709.4000244141</ele>
        <time>2023-08-08T15:33:14.000Z</time>
      </trkpt>
      <trkpt lat="45.41911" lon="6.1982">
        <ele>1709.5999755859</ele>
        <time>2023-08-08T15:33:15.000Z</time>
      </trkpt>
      <trkpt lat="45.41908" lon="6.19816">
        <ele>1710.5999755859</ele>
        <time>2023-08-08T15:33:22.000Z</time>
      </trkpt>
      <trkpt lat="45.41907" lon="6.19816">
        <ele>1710.5999755859</ele>
        <time>2023-08-08T15:33:23.000Z</time>
      </trkpt>
      <trkpt lat="45.41903" lon="6.19819">
        <ele>1711.4000244141</ele>
        <time>2023-08-08T15:33:29.000Z</time>
      </trkpt>
      <trkpt lat="45.41902" lon="6.19818">
        <ele>1711.8000488281</ele>
        <time>2023-08-08T15:33:31.000Z</time>
      </trkpt>
      <trkpt lat="45.41901" lon="6.19817">
        <ele>1712.1999511719</ele>
        <time>2023-08-08T15:33:35.000Z</time>
      </trkpt>
      <trkpt lat="45.419" lon="6.19815">
        <ele>1713</ele>
        <time>2023-08-08T15:33:38.000Z</time>
      </trkpt>
      <trkpt lat="45.41901" lon="6.19814">
        <ele>1713.8000488281</ele>
        <time>2023-08-08T15:33:43.000Z</time>
      </trkpt>
      <trkpt lat="45.419" lon="6.19814">
        <ele>1714</ele>
        <time>2023-08-08T15:33:44.000Z</time>
      </trkpt>
      <trkpt lat="45.41897" lon="6.19812">
        <ele>1715.1999511719</ele>
        <time>2023-08-08T15:33:50.000Z</time>
      </trkpt>
      <trkpt lat="45.41892" lon="6.19813">
        <ele>1716.4000244141</ele>
        <time>2023-08-08T15:33:58.000Z</time>
      </trkpt>
      <trkpt lat="45.41888" lon="6.19811">
        <ele>1717.4000244141</ele>
        <time>2023-08-08T15:34:08.000Z</time>
      </trkpt>
      <trkpt lat="45.41888" lon="6.19809">
        <ele>1717.4000244141</ele>
        <time>2023-08-08T15:34:10.000Z</time>
      </trkpt>
      <trkpt lat="45.41887" lon="6.19804">
        <ele>1718.5999755859</ele>
        <time>2023-08-08T15:34:16.000Z</time>
      </trkpt>
      <trkpt lat="45.41886" lon="6.19802">
        <ele>1718.5999755859</ele>
        <time>2023-08-08T15:34:18.000Z</time>
      </trkpt>
      <trkpt lat="45.41883" lon="6.19801">
        <ele>1719.5999755859</ele>
        <time>2023-08-08T15:34:25.000Z</time>
      </trkpt>
      <trkpt lat="45.41883" lon="6.19801">
        <ele>1719.8000488281</ele>
        <time>2023-08-08T15:34:26.000Z</time>
      </trkpt>
      <trkpt lat="45.4188" lon="6.19799">
        <ele>1720.5999755859</ele>
        <time>2023-08-08T15:34:32.000Z</time>
      </trkpt>
      <trkpt lat="45.41879" lon="6.19798">
        <ele>1721</ele>
        <time>2023-08-08T15:34:34.000Z</time>
      </trkpt>
      <trkpt lat="45.41878" lon="6.19798">
        <ele>1721.8000488281</ele>
        <time>2023-08-08T15:34:40.000Z</time>
      </trkpt>
      <trkpt lat="45.41876" lon="6.19795">
        <ele>1722.1999511719</ele>
        <time>2023-08-08T15:34:43.000Z</time>
      </trkpt>
      <trkpt lat="45.41873" lon="6.1979">
        <ele>1723</ele>
        <time>2023-08-08T15:34:49.000Z</time>
      </trkpt>
      <trkpt lat="45.41873" lon="6.1979">
        <ele>1723</ele>
        <time>2023-08-08T15:34:50.000Z</time>
      </trkpt>
      <trkpt lat="45.4187" lon="6.19792">
        <ele>1723.5999755859</ele>
        <time>2023-08-08T15:34:55.000Z</time>
      </trkpt>
      <trkpt lat="45.4187" lon="6.19792">
        <ele>1724</ele>
        <time>2023-08-08T15:34:57.000Z</time>
      </trkpt>
      <trkpt lat="45.41869" lon="6.19791">
        <ele>1724</ele>
        <time>2023-08-08T15:34:58.000Z</time>
      </trkpt>
      <trkpt lat="45.41868" lon="6.19789">
        <ele>1724.4000244141</ele>
        <time>2023-08-08T15:35:00.000Z</time>
      </trkpt>
      <trkpt lat="45.41867" lon="6.19785">
        <ele>1724.8000488281</ele>
        <time>2023-08-08T15:35:04.000Z</time>
      </trkpt>
      <trkpt lat="45.41866" lon="6.19782">
        <ele>1725</ele>
        <time>2023-08-08T15:35:06.000Z</time>
      </trkpt>
      <trkpt lat="45.41865" lon="6.19781">
        <ele>1725.8000488281</ele>
        <time>2023-08-08T15:35:12.000Z</time>
      </trkpt>
      <trkpt lat="45.41864" lon="6.19779">
        <ele>1726.1999511719</ele>
        <time>2023-08-08T15:35:15.000Z</time>
      </trkpt>
      <trkpt lat="45.41862" lon="6.19779">
        <ele>1726.8000488281</ele>
        <time>2023-08-08T15:35:20.000Z</time>
      </trkpt>
      <trkpt lat="45.4186" lon="6.19777">
        <ele>1727.4000244141</ele>
        <time>2023-08-08T15:35:24.000Z</time>
      </trkpt>
      <trkpt lat="45.41858" lon="6.19773">
        <ele>1728</ele>
        <time>2023-08-08T15:35:29.000Z</time>
      </trkpt>
      <trkpt lat="45.41857" lon="6.1977">
        <ele>1728.5999755859</ele>
        <time>2023-08-08T15:35:33.000Z</time>
      </trkpt>
      <trkpt lat="45.41855" lon="6.19768">
        <ele>1729.1999511719</ele>
        <time>2023-08-08T15:35:38.000Z</time>
      </trkpt>
      <trkpt lat="45.41854" lon="6.19768">
        <ele>1729.5999755859</ele>
        <time>2023-08-08T15:35:41.000Z</time>
      </trkpt>
      <trkpt lat="45.4185" lon="6.19764">
        <ele>1730.4000244141</ele>
        <time>2023-08-08T15:35:48.000Z</time>
      </trkpt>
      <trkpt lat="45.4185" lon="6.19763">
        <ele>1730.5999755859</ele>
        <time>2023-08-08T15:35:50.000Z</time>
      </trkpt>
      <trkpt lat="45.41848" lon="6.1976">
        <ele>1731.5999755859</ele>
        <time>2023-08-08T15:35:56.000Z</time>
      </trkpt>
      <trkpt lat="45.41848" lon="6.1976">
        <ele>1731.5999755859</ele>
        <time>2023-08-08T15:35:57.000Z</time>
      </trkpt>
      <trkpt lat="45.41846" lon="6.19756">
        <ele>1732.5999755859</ele>
        <time>2023-08-08T15:36:03.000Z</time>
      </trkpt>
      <trkpt lat="45.41845" lon="6.19756">
        <ele>1732.8000488281</ele>
        <time>2023-08-08T15:36:05.000Z</time>
      </trkpt>
      <trkpt lat="45.41841" lon="6.19754">
        <ele>1733.5999755859</ele>
        <time>2023-08-08T15:36:12.000Z</time>
      </trkpt>
      <trkpt lat="45.4184" lon="6.19754">
        <ele>1733.8000488281</ele>
        <time>2023-08-08T15:36:13.000Z</time>
      </trkpt>
      <trkpt lat="45.41835" lon="6.19752">
        <ele>1734.8000488281</ele>
        <time>2023-08-08T15:36:21.000Z</time>
      </trkpt>
      <trkpt lat="45.4183" lon="6.19747">
        <ele>1735.8000488281</ele>
        <time>2023-08-08T15:36:29.000Z</time>
      </trkpt>
      <trkpt lat="45.4183" lon="6.19747">
        <ele>1736</ele>
        <time>2023-08-08T15:36:30.000Z</time>
      </trkpt>
      <trkpt lat="45.41827" lon="6.19745">
        <ele>1736.8000488281</ele>
        <time>2023-08-08T15:36:36.000Z</time>
      </trkpt>
      <trkpt lat="45.41825" lon="6.19744">
        <ele>1737</ele>
        <time>2023-08-08T15:36:39.000Z</time>
      </trkpt>
      <trkpt lat="45.41822" lon="6.1974">
        <ele>1737.5999755859</ele>
        <time>2023-08-08T15:36:43.000Z</time>
      </trkpt>
      <trkpt lat="45.41822" lon="6.19739">
        <ele>1738.1999511719</ele>
        <time>2023-08-08T15:36:47.000Z</time>
      </trkpt>
      <trkpt lat="45.41822" lon="6.19737">
        <ele>1739</ele>
        <time>2023-08-08T15:36:52.000Z</time>
      </trkpt>
      <trkpt lat="45.41822" lon="6.19735">
        <ele>1739.4000244141</ele>
        <time>2023-08-08T15:36:54.000Z</time>
      </trkpt>
      <trkpt lat="45.41823" lon="6.19727">
        <ele>1740.1999511719</ele>
        <time>2023-08-08T15:37:01.000Z</time>
      </trkpt>
      <trkpt lat="45.41821" lon="6.19725">
        <ele>1740.4000244141</ele>
        <time>2023-08-08T15:37:04.000Z</time>
      </trkpt>
      <trkpt lat="45.41819" lon="6.19722">
        <ele>1740.8000488281</ele>
        <time>2023-08-08T15:37:09.000Z</time>
      </trkpt>
      <trkpt lat="45.41818" lon="6.19721">
        <ele>1741.4000244141</ele>
        <time>2023-08-08T15:37:13.000Z</time>
      </trkpt>
      <trkpt lat="45.41814" lon="6.19718">
        <ele>1742.1999511719</ele>
        <time>2023-08-08T15:37:19.000Z</time>
      </trkpt>
      <trkpt lat="45.41812" lon="6.19718">
        <ele>1742.4000244141</ele>
        <time>2023-08-08T15:37:21.000Z</time>
      </trkpt>
      <trkpt lat="45.41809" lon="6.1972">
        <ele>1743.1999511719</ele>
        <time>2023-08-08T15:37:27.000Z</time>
      </trkpt>
      <trkpt lat="45.41809" lon="6.19719">
        <ele>1743.4000244141</ele>
        <time>2023-08-08T15:37:29.000Z</time>
      </trkpt>
      <trkpt lat="45.41804" lon="6.19716">
        <ele>1743.5999755859</ele>
        <time>2023-08-08T15:37:34.000Z</time>
      </trkpt>
      <trkpt lat="45.41802" lon="6.19711">
        <ele>1744</ele>
        <time>2023-08-08T15:37:41.000Z</time>
      </trkpt>
      <trkpt lat="45.41802" lon="6.19709">
        <ele>1744.5999755859</ele>
        <time>2023-08-08T15:37:46.000Z</time>
      </trkpt>
      <trkpt lat="45.41803" lon="6.19707">
        <ele>1745.1999511719</ele>
        <time>2023-08-08T15:37:49.000Z</time>
      </trkpt>
      <trkpt lat="45.41802" lon="6.19704">
        <ele>1745.8000488281</ele>
        <time>2023-08-08T15:37:52.000Z</time>
      </trkpt>
      <trkpt lat="45.41802" lon="6.19704">
        <ele>1746</ele>
        <time>2023-08-08T15:37:54.000Z</time>
      </trkpt>
      <trkpt lat="45.41799" lon="6.19703">
        <ele>1746.8000488281</ele>
        <time>2023-08-08T15:38:00.000Z</time>
      </trkpt>
      <trkpt lat="45.41797" lon="6.19703">
        <ele>1747.1999511719</ele>
        <time>2023-08-08T15:38:03.000Z</time>
      </trkpt>
      <trkpt lat="45.41794" lon="6.19701">
        <ele>1747.8000488281</ele>
        <time>2023-08-08T15:38:06.000Z</time>
      </trkpt>
      <trkpt lat="45.41794" lon="6.19696">
        <ele>1748.5999755859</ele>
        <time>2023-08-08T15:38:11.000Z</time>
      </trkpt>
      <trkpt lat="45.41794" lon="6.19695">
        <ele>1748.8000488281</ele>
        <time>2023-08-08T15:38:13.000Z</time>
      </trkpt>
      <trkpt lat="45.41793" lon="6.1969">
        <ele>1749.8000488281</ele>
        <time>2023-08-08T15:38:20.000Z</time>
      </trkpt>
      <trkpt lat="45.41793" lon="6.1969">
        <ele>1750</ele>
        <time>2023-08-08T15:38:21.000Z</time>
      </trkpt>
      <trkpt lat="45.4179" lon="6.19688">
        <ele>1750.8000488281</ele>
        <time>2023-08-08T15:38:28.000Z</time>
      </trkpt>
      <trkpt lat="45.4179" lon="6.19689">
        <ele>1751.1999511719</ele>
        <time>2023-08-08T15:38:31.000Z</time>
      </trkpt>
      <trkpt lat="45.41787" lon="6.19687">
        <ele>1751.8000488281</ele>
        <time>2023-08-08T15:38:35.000Z</time>
      </trkpt>
      <trkpt lat="45.41784" lon="6.19686">
        <ele>1752.1999511719</ele>
        <time>2023-08-08T15:38:39.000Z</time>
      </trkpt>
      <trkpt lat="45.41781" lon="6.19685">
        <ele>1752.5999755859</ele>
        <time>2023-08-08T15:38:44.000Z</time>
      </trkpt>
      <trkpt lat="45.41781" lon="6.19685">
        <ele>1753</ele>
        <time>2023-08-08T15:38:52.000Z</time>
      </trkpt>
      <trkpt lat="45.41781" lon="6.19683">
        <ele>1753.1999511719</ele>
        <time>2023-08-08T15:38:55.000Z</time>
      </trkpt>
      <trkpt lat="45.41779" lon="6.1968">
        <ele>1753.8000488281</ele>
        <time>2023-08-08T15:39:00.000Z</time>
      </trkpt>
      <trkpt lat="45.41778" lon="6.19679">
        <ele>1754.4000244141</ele>
        <time>2023-08-08T15:39:04.000Z</time>
      </trkpt>
      <trkpt lat="45.41778" lon="6.19677">
        <ele>1754.8000488281</ele>
        <time>2023-08-08T15:39:08.000Z</time>
      </trkpt>
      <trkpt lat="45.41776" lon="6.19674">
        <ele>1755.4000244141</ele>
        <time>2023-08-08T15:39:12.000Z</time>
      </trkpt>
      <trkpt lat="45.41774" lon="6.19672">
        <ele>1755.4000244141</ele>
        <time>2023-08-08T15:39:14.000Z</time>
      </trkpt>
      <trkpt lat="45.41773" lon="6.19668">
        <ele>1756.4000244141</ele>
        <time>2023-08-08T15:39:21.000Z</time>
      </trkpt>
      <trkpt lat="45.41773" lon="6.19668">
        <ele>1756.4000244141</ele>
        <time>2023-08-08T15:39:22.000Z</time>
      </trkpt>
      <trkpt lat="45.4177" lon="6.19665">
        <ele>1757.4000244141</ele>
        <time>2023-08-08T15:39:29.000Z</time>
      </trkpt>
      <trkpt lat="45.41769" lon="6.19665">
        <ele>1757.4000244141</ele>
        <time>2023-08-08T15:39:30.000Z</time>
      </trkpt>
      <trkpt lat="45.41768" lon="6.19657">
        <ele>1758.4000244141</ele>
        <time>2023-08-08T15:39:38.000Z</time>
      </trkpt>
      <trkpt lat="45.41768" lon="6.19656">
        <ele>1758.5999755859</ele>
        <time>2023-08-08T15:39:39.000Z</time>
      </trkpt>
      <trkpt lat="45.41764" lon="6.19652">
        <ele>1759.1999511719</ele>
        <time>2023-08-08T15:39:46.000Z</time>
      </trkpt>
      <trkpt lat="45.41761" lon="6.1965">
        <ele>1759.5999755859</ele>
        <time>2023-08-08T15:39:52.000Z</time>
      </trkpt>
      <trkpt lat="45.4176" lon="6.1965">
        <ele>1759.8000488281</ele>
        <time>2023-08-08T15:39:53.000Z</time>
      </trkpt>
      <trkpt lat="45.41756" lon="6.19649">
        <ele>1760.8000488281</ele>
        <time>2023-08-08T15:39:59.000Z</time>
      </trkpt>
      <trkpt lat="45.41756" lon="6.19646">
        <ele>1761.1999511719</ele>
        <time>2023-08-08T15:40:03.000Z</time>
      </trkpt>
      <trkpt lat="45.41754" lon="6.19643">
        <ele>1761.8000488281</ele>
        <time>2023-08-08T15:40:08.000Z</time>
      </trkpt>
      <trkpt lat="45.41754" lon="6.19643">
        <ele>1762.5999755859</ele>
        <time>2023-08-08T15:40:12.000Z</time>
      </trkpt>
      <trkpt lat="45.41753" lon="6.19642">
        <ele>1762.8000488281</ele>
        <time>2023-08-08T15:40:15.000Z</time>
      </trkpt>
      <trkpt lat="45.4175" lon="6.19636">
        <ele>1763.8000488281</ele>
        <time>2023-08-08T15:40:21.000Z</time>
      </trkpt>
      <trkpt lat="45.4175" lon="6.19635">
        <ele>1764</ele>
        <time>2023-08-08T15:40:23.000Z</time>
      </trkpt>
      <trkpt lat="45.41749" lon="6.19637">
        <ele>1764.4000244141</ele>
        <time>2023-08-08T15:40:28.000Z</time>
      </trkpt>
      <trkpt lat="45.41747" lon="6.19633">
        <ele>1764.4000244141</ele>
        <time>2023-08-08T15:40:35.000Z</time>
      </trkpt>
      <trkpt lat="45.41743" lon="6.1963">
        <ele>1764.8000488281</ele>
        <time>2023-08-08T15:40:42.000Z</time>
      </trkpt>
      <trkpt lat="45.41741" lon="6.19627">
        <ele>1765</ele>
        <time>2023-08-08T15:40:46.000Z</time>
      </trkpt>
      <trkpt lat="45.4174" lon="6.19625">
        <ele>1765.4000244141</ele>
        <time>2023-08-08T15:40:49.000Z</time>
      </trkpt>
      <trkpt lat="45.41739" lon="6.19623">
        <ele>1766.1999511719</ele>
        <time>2023-08-08T15:40:54.000Z</time>
      </trkpt>
      <trkpt lat="45.41736" lon="6.19621">
        <ele>1767</ele>
        <time>2023-08-08T15:40:58.000Z</time>
      </trkpt>
      <trkpt lat="45.41734" lon="6.19619">
        <ele>1767.1999511719</ele>
        <time>2023-08-08T15:41:01.000Z</time>
      </trkpt>
      <trkpt lat="45.41731" lon="6.19616">
        <ele>1767.8000488281</ele>
        <time>2023-08-08T15:41:06.000Z</time>
      </trkpt>
      <trkpt lat="45.41729" lon="6.19613">
        <ele>1768.1999511719</ele>
        <time>2023-08-08T15:41:12.000Z</time>
      </trkpt>
      <trkpt lat="45.41728" lon="6.19612">
        <ele>1768.4000244141</ele>
        <time>2023-08-08T15:41:13.000Z</time>
      </trkpt>
      <trkpt lat="45.41727" lon="6.19609">
        <ele>1769.4000244141</ele>
        <time>2023-08-08T15:41:19.000Z</time>
      </trkpt>
      <trkpt lat="45.41726" lon="6.19608">
        <ele>1769.5999755859</ele>
        <time>2023-08-08T15:41:20.000Z</time>
      </trkpt>
      <trkpt lat="45.41724" lon="6.19605">
        <ele>1770.5999755859</ele>
        <time>2023-08-08T15:41:27.000Z</time>
      </trkpt>
      <trkpt lat="45.41724" lon="6.19604">
        <ele>1771</ele>
        <time>2023-08-08T15:41:29.000Z</time>
      </trkpt>
      <trkpt lat="45.41721" lon="6.19596">
        <ele>1771.4000244141</ele>
        <time>2023-08-08T15:41:37.000Z</time>
      </trkpt>
      <trkpt lat="45.41721" lon="6.19595">
        <ele>1771.5999755859</ele>
        <time>2023-08-08T15:41:38.000Z</time>
      </trkpt>
      <trkpt lat="45.41719" lon="6.19591">
        <ele>1772.4000244141</ele>
        <time>2023-08-08T15:41:45.000Z</time>
      </trkpt>
      <trkpt lat="45.41718" lon="6.1959">
        <ele>1772.5999755859</ele>
        <time>2023-08-08T15:41:47.000Z</time>
      </trkpt>
      <trkpt lat="45.41717" lon="6.19588">
        <ele>1773.1999511719</ele>
        <time>2023-08-08T15:41:52.000Z</time>
      </trkpt>
      <trkpt lat="45.41716" lon="6.19586">
        <ele>1773.8000488281</ele>
        <time>2023-08-08T15:41:57.000Z</time>
      </trkpt>
      <trkpt lat="45.41713" lon="6.19585">
        <ele>1774</ele>
        <time>2023-08-08T15:42:00.000Z</time>
      </trkpt>
      <trkpt lat="45.41709" lon="6.1958">
        <ele>1774.8000488281</ele>
        <time>2023-08-08T15:42:06.000Z</time>
      </trkpt>
      <trkpt lat="45.41709" lon="6.19579">
        <ele>1775</ele>
        <time>2023-08-08T15:42:07.000Z</time>
      </trkpt>
      <trkpt lat="45.41708" lon="6.19575">
        <ele>1775.8000488281</ele>
        <time>2023-08-08T15:42:13.000Z</time>
      </trkpt>
      <trkpt lat="45.41706" lon="6.19572">
        <ele>1776.1999511719</ele>
        <time>2023-08-08T15:42:16.000Z</time>
      </trkpt>
      <trkpt lat="45.41703" lon="6.19567">
        <ele>1777</ele>
        <time>2023-08-08T15:42:23.000Z</time>
      </trkpt>
      <trkpt lat="45.41699" lon="6.19565">
        <ele>1778</ele>
        <time>2023-08-08T15:42:31.000Z</time>
      </trkpt>
      <trkpt lat="45.41699" lon="6.19564">
        <ele>1778.1999511719</ele>
        <time>2023-08-08T15:42:32.000Z</time>
      </trkpt>
      <trkpt lat="45.41696" lon="6.19563">
        <ele>1778.1999511719</ele>
        <time>2023-08-08T15:42:39.000Z</time>
      </trkpt>
      <trkpt lat="45.41695" lon="6.19555">
        <ele>1778.8000488281</ele>
        <time>2023-08-08T15:42:46.000Z</time>
      </trkpt>
      <trkpt lat="45.41694" lon="6.19553">
        <ele>1779</ele>
        <time>2023-08-08T15:42:48.000Z</time>
      </trkpt>
      <trkpt lat="45.4169" lon="6.19548">
        <ele>1779.5999755859</ele>
        <time>2023-08-08T15:42:54.000Z</time>
      </trkpt>
      <trkpt lat="45.41688" lon="6.19547">
        <ele>1780.1999511719</ele>
        <time>2023-08-08T15:43:00.000Z</time>
      </trkpt>
      <trkpt lat="45.41688" lon="6.19547">
        <ele>1780.4000244141</ele>
        <time>2023-08-08T15:43:02.000Z</time>
      </trkpt>
      <trkpt lat="45.41683" lon="6.19541">
        <ele>1780.8000488281</ele>
        <time>2023-08-08T15:43:09.000Z</time>
      </trkpt>
      <trkpt lat="45.41681" lon="6.19534">
        <ele>1781.1999511719</ele>
        <time>2023-08-08T15:43:17.000Z</time>
      </trkpt>
      <trkpt lat="45.41677" lon="6.19531">
        <ele>1781.5999755859</ele>
        <time>2023-08-08T15:43:24.000Z</time>
      </trkpt>
      <trkpt lat="45.41671" lon="6.19522">
        <ele>1782.4000244141</ele>
        <time>2023-08-08T15:43:32.000Z</time>
      </trkpt>
      <trkpt lat="45.41671" lon="6.19522">
        <ele>1782.4000244141</ele>
        <time>2023-08-08T15:43:33.000Z</time>
      </trkpt>
      <trkpt lat="45.41668" lon="6.19517">
        <ele>1783.1999511719</ele>
        <time>2023-08-08T15:43:39.000Z</time>
      </trkpt>
      <trkpt lat="45.41667" lon="6.19514">
        <ele>1783.4000244141</ele>
        <time>2023-08-08T15:43:41.000Z</time>
      </trkpt>
      <trkpt lat="45.41666" lon="6.19505">
        <ele>1783.8000488281</ele>
        <time>2023-08-08T15:43:46.000Z</time>
      </trkpt>
      <trkpt lat="45.41664" lon="6.19502">
        <ele>1784.1999511719</ele>
        <time>2023-08-08T15:43:52.000Z</time>
      </trkpt>
      <trkpt lat="45.41661" lon="6.19502">
        <ele>1784.4000244141</ele>
        <time>2023-08-08T15:43:57.000Z</time>
      </trkpt>
      <trkpt lat="45.41659" lon="6.19502">
        <ele>1784.5999755859</ele>
        <time>2023-08-08T15:43:59.000Z</time>
      </trkpt>
      <trkpt lat="45.41657" lon="6.19501">
        <ele>1785.5999755859</ele>
        <time>2023-08-08T15:44:04.000Z</time>
      </trkpt>
      <trkpt lat="45.41654" lon="6.195">
        <ele>1786.1999511719</ele>
        <time>2023-08-08T15:44:08.000Z</time>
      </trkpt>
      <trkpt lat="45.41654" lon="6.195">
        <ele>1786.5999755859</ele>
        <time>2023-08-08T15:44:10.000Z</time>
      </trkpt>
      <trkpt lat="45.41653" lon="6.19496">
        <ele>1787.5999755859</ele>
        <time>2023-08-08T15:44:17.000Z</time>
      </trkpt>
      <trkpt lat="45.41653" lon="6.19494">
        <ele>1787.5999755859</ele>
        <time>2023-08-08T15:44:18.000Z</time>
      </trkpt>
      <trkpt lat="45.41651" lon="6.19488">
        <ele>1788.4000244141</ele>
        <time>2023-08-08T15:44:24.000Z</time>
      </trkpt>
      <trkpt lat="45.41649" lon="6.19485">
        <ele>1788.8000488281</ele>
        <time>2023-08-08T15:44:27.000Z</time>
      </trkpt>
      <trkpt lat="45.41645" lon="6.19483">
        <ele>1789.4000244141</ele>
        <time>2023-08-08T15:44:32.000Z</time>
      </trkpt>
      <trkpt lat="45.41642" lon="6.19482">
        <ele>1790</ele>
        <time>2023-08-08T15:44:36.000Z</time>
      </trkpt>
      <trkpt lat="45.4164" lon="6.19484">
        <ele>1790.4000244141</ele>
        <time>2023-08-08T15:44:39.000Z</time>
      </trkpt>
      <trkpt lat="45.41637" lon="6.19481">
        <ele>1791</ele>
        <time>2023-08-08T15:44:45.000Z</time>
      </trkpt>
      <trkpt lat="45.41637" lon="6.19481">
        <ele>1791.1999511719</ele>
        <time>2023-08-08T15:44:46.000Z</time>
      </trkpt>
      <trkpt lat="45.41636" lon="6.19476">
        <ele>1792.1999511719</ele>
        <time>2023-08-08T15:44:52.000Z</time>
      </trkpt>
      <trkpt lat="45.41634" lon="6.19473">
        <ele>1792.5999755859</ele>
        <time>2023-08-08T15:44:55.000Z</time>
      </trkpt>
      <trkpt lat="45.41632" lon="6.19474">
        <ele>1793.1999511719</ele>
        <time>2023-08-08T15:45:00.000Z</time>
      </trkpt>
      <trkpt lat="45.41631" lon="6.19473">
        <ele>1793.4000244141</ele>
        <time>2023-08-08T15:45:01.000Z</time>
      </trkpt>
      <trkpt lat="45.41626" lon="6.19469">
        <ele>1793.8000488281</ele>
        <time>2023-08-08T15:45:09.000Z</time>
      </trkpt>
      <trkpt lat="45.41622" lon="6.19467">
        <ele>1793.5999755859</ele>
        <time>2023-08-08T15:45:16.000Z</time>
      </trkpt>
      <trkpt lat="45.41621" lon="6.19464">
        <ele>1793.4000244141</ele>
        <time>2023-08-08T15:45:23.000Z</time>
      </trkpt>
      <trkpt lat="45.41622" lon="6.19461">
        <ele>1793.8000488281</ele>
        <time>2023-08-08T15:45:26.000Z</time>
      </trkpt>
      <trkpt lat="45.41622" lon="6.19458">
        <ele>1794.4000244141</ele>
        <time>2023-08-08T15:45:29.000Z</time>
      </trkpt>
      <trkpt lat="45.41621" lon="6.19456">
        <ele>1794.8000488281</ele>
        <time>2023-08-08T15:45:33.000Z</time>
      </trkpt>
      <trkpt lat="45.41621" lon="6.19452">
        <ele>1795.4000244141</ele>
        <time>2023-08-08T15:45:38.000Z</time>
      </trkpt>
      <trkpt lat="45.41621" lon="6.19449">
        <ele>1795.8000488281</ele>
        <time>2023-08-08T15:45:41.000Z</time>
      </trkpt>
      <trkpt lat="45.4162" lon="6.19446">
        <ele>1796.5999755859</ele>
        <time>2023-08-08T15:45:46.000Z</time>
      </trkpt>
      <trkpt lat="45.41618" lon="6.19444">
        <ele>1797.1999511719</ele>
        <time>2023-08-08T15:45:51.000Z</time>
      </trkpt>
      <trkpt lat="45.41617" lon="6.19443">
        <ele>1797.5999755859</ele>
        <time>2023-08-08T15:45:53.000Z</time>
      </trkpt>
      <trkpt lat="45.41616" lon="6.19441">
        <ele>1798.8000488281</ele>
        <time>2023-08-08T15:45:59.000Z</time>
      </trkpt>
      <trkpt lat="45.41615" lon="6.19441">
        <ele>1799</ele>
        <time>2023-08-08T15:46:01.000Z</time>
      </trkpt>
      <trkpt lat="45.4161" lon="6.19439">
        <ele>1799.8000488281</ele>
        <time>2023-08-08T15:46:06.000Z</time>
      </trkpt>
      <trkpt lat="45.41609" lon="6.19439">
        <ele>1800</ele>
        <time>2023-08-08T15:46:09.000Z</time>
      </trkpt>
      <trkpt lat="45.41605" lon="6.19438">
        <ele>1799.8000488281</ele>
        <time>2023-08-08T15:46:15.000Z</time>
      </trkpt>
      <trkpt lat="45.41602" lon="6.19435">
        <ele>1799.5999755859</ele>
        <time>2023-08-08T15:46:19.000Z</time>
      </trkpt>
      <trkpt lat="45.41601" lon="6.19428">
        <ele>1800.1999511719</ele>
        <time>2023-08-08T15:46:27.000Z</time>
      </trkpt>
      <trkpt lat="45.416" lon="6.19424">
        <ele>1800.8000488281</ele>
        <time>2023-08-08T15:46:31.000Z</time>
      </trkpt>
      <trkpt lat="45.41598" lon="6.19422">
        <ele>1801.8000488281</ele>
        <time>2023-08-08T15:46:37.000Z</time>
      </trkpt>
      <trkpt lat="45.41596" lon="6.1942">
        <ele>1802</ele>
        <time>2023-08-08T15:46:40.000Z</time>
      </trkpt>
      <trkpt lat="45.41595" lon="6.19415">
        <ele>1802.8000488281</ele>
        <time>2023-08-08T15:46:46.000Z</time>
      </trkpt>
      <trkpt lat="45.41594" lon="6.19413">
        <ele>1803</ele>
        <time>2023-08-08T15:46:48.000Z</time>
      </trkpt>
      <trkpt lat="45.41593" lon="6.19411">
        <ele>1803</ele>
        <time>2023-08-08T15:46:53.000Z</time>
      </trkpt>
      <trkpt lat="45.4159" lon="6.19407">
        <ele>1803.5999755859</ele>
        <time>2023-08-08T15:47:03.000Z</time>
      </trkpt>
      <trkpt lat="45.41583" lon="6.19405">
        <ele>1803.8000488281</ele>
        <time>2023-08-08T15:47:10.000Z</time>
      </trkpt>
      <trkpt lat="45.41582" lon="6.19404">
        <ele>1804.1999511719</ele>
        <time>2023-08-08T15:47:14.000Z</time>
      </trkpt>
      <trkpt lat="45.41579" lon="6.19401">
        <ele>1804.5999755859</ele>
        <time>2023-08-08T15:47:17.000Z</time>
      </trkpt>
      <trkpt lat="45.41576" lon="6.19399">
        <ele>1805.4000244141</ele>
        <time>2023-08-08T15:47:23.000Z</time>
      </trkpt>
      <trkpt lat="45.41575" lon="6.19398">
        <ele>1805.4000244141</ele>
        <time>2023-08-08T15:47:25.000Z</time>
      </trkpt>
      <trkpt lat="45.41575" lon="6.19395">
        <ele>1805.8000488281</ele>
        <time>2023-08-08T15:47:32.000Z</time>
      </trkpt>
      <trkpt lat="45.41575" lon="6.19394">
        <ele>1805.8000488281</ele>
        <time>2023-08-08T15:47:33.000Z</time>
      </trkpt>
      <trkpt lat="45.41575" lon="6.19393">
        <ele>1806.1999511719</ele>
        <time>2023-08-08T15:47:36.000Z</time>
      </trkpt>
      <trkpt lat="45.41574" lon="6.1939">
        <ele>1806.1999511719</ele>
        <time>2023-08-08T15:47:40.000Z</time>
      </trkpt>
      <trkpt lat="45.41571" lon="6.19386">
        <ele>1806.4000244141</ele>
        <time>2023-08-08T15:47:44.000Z</time>
      </trkpt>
      <trkpt lat="45.41568" lon="6.19384">
        <ele>1806.5999755859</ele>
        <time>2023-08-08T15:47:48.000Z</time>
      </trkpt>
      <trkpt lat="45.41565" lon="6.19383">
        <ele>1807.4000244141</ele>
        <time>2023-08-08T15:47:53.000Z</time>
      </trkpt>
      <trkpt lat="45.41563" lon="6.19383">
        <ele>1807.4000244141</ele>
        <time>2023-08-08T15:47:55.000Z</time>
      </trkpt>
      <trkpt lat="45.41562" lon="6.1938">
        <ele>1808.4000244141</ele>
        <time>2023-08-08T15:48:03.000Z</time>
      </trkpt>
      <trkpt lat="45.41561" lon="6.19379">
        <ele>1808.4000244141</ele>
        <time>2023-08-08T15:48:04.000Z</time>
      </trkpt>
      <trkpt lat="45.41558" lon="6.19378">
        <ele>1808.8000488281</ele>
        <time>2023-08-08T15:48:10.000Z</time>
      </trkpt>
      <trkpt lat="45.41554" lon="6.19376">
        <ele>1809.4000244141</ele>
        <time>2023-08-08T15:48:18.000Z</time>
      </trkpt>
      <trkpt lat="45.41552" lon="6.19375">
        <ele>1809.4000244141</ele>
        <time>2023-08-08T15:48:20.000Z</time>
      </trkpt>
      <trkpt lat="45.41549" lon="6.19371">
        <ele>1809.5999755859</ele>
        <time>2023-08-08T15:48:26.000Z</time>
      </trkpt>
      <trkpt lat="45.41545" lon="6.19368">
        <ele>1809.8000488281</ele>
        <time>2023-08-08T15:48:34.000Z</time>
      </trkpt>
      <trkpt lat="45.41541" lon="6.19365">
        <ele>1809.5999755859</ele>
        <time>2023-08-08T15:48:41.000Z</time>
      </trkpt>
      <trkpt lat="45.41537" lon="6.19362">
        <ele>1810</ele>
        <time>2023-08-08T15:48:49.000Z</time>
      </trkpt>
      <trkpt lat="45.41531" lon="6.1936">
        <ele>1810.1999511719</ele>
        <time>2023-08-08T15:48:57.000Z</time>
      </trkpt>
      <trkpt lat="45.41529" lon="6.19362">
        <ele>1810.4000244141</ele>
        <time>2023-08-08T15:49:06.000Z</time>
      </trkpt>
      <trkpt lat="45.41529" lon="6.19368">
        <ele>1810</ele>
        <time>2023-08-08T15:49:13.000Z</time>
      </trkpt>
      <trkpt lat="45.41528" lon="6.19369">
        <ele>1810.5999755859</ele>
        <time>2023-08-08T15:49:21.000Z</time>
      </trkpt>
      <trkpt lat="45.41527" lon="6.19369">
        <ele>1810.5999755859</ele>
        <time>2023-08-08T15:49:22.000Z</time>
      </trkpt>
      <trkpt lat="45.41523" lon="6.19369">
        <ele>1811.5999755859</ele>
        <time>2023-08-08T15:49:28.000Z</time>
      </trkpt>
      <trkpt lat="45.41523" lon="6.19368">
        <ele>1811.8000488281</ele>
        <time>2023-08-08T15:49:29.000Z</time>
      </trkpt>
      <trkpt lat="45.41521" lon="6.19364">
        <ele>1812.5999755859</ele>
        <time>2023-08-08T15:49:35.000Z</time>
      </trkpt>
      <trkpt lat="45.41519" lon="6.19361">
        <ele>1813.4000244141</ele>
        <time>2023-08-08T15:49:43.000Z</time>
      </trkpt>
      <trkpt lat="45.4152" lon="6.19361">
        <ele>1813.8000488281</ele>
        <time>2023-08-08T15:49:46.000Z</time>
      </trkpt>
      <trkpt lat="45.41518" lon="6.19361">
        <ele>1814.4000244141</ele>
        <time>2023-08-08T15:49:49.000Z</time>
      </trkpt>
      <trkpt lat="45.41514" lon="6.19357">
        <ele>1814.4000244141</ele>
        <time>2023-08-08T15:49:57.000Z</time>
      </trkpt>
      <trkpt lat="45.41513" lon="6.19351">
        <ele>1814.1999511719</ele>
        <time>2023-08-08T15:50:04.000Z</time>
      </trkpt>
      <trkpt lat="45.4151" lon="6.19349">
        <ele>1814.8000488281</ele>
        <time>2023-08-08T15:50:12.000Z</time>
      </trkpt>
      <trkpt lat="45.4151" lon="6.19349">
        <ele>1815</ele>
        <time>2023-08-08T15:50:13.000Z</time>
      </trkpt>
      <trkpt lat="45.41507" lon="6.19346">
        <ele>1816</ele>
        <time>2023-08-08T15:50:21.000Z</time>
      </trkpt>
      <trkpt lat="45.41507" lon="6.19346">
        <ele>1816</ele>
        <time>2023-08-08T15:50:22.000Z</time>
      </trkpt>
      <trkpt lat="45.41506" lon="6.19347">
        <ele>1817</ele>
        <time>2023-08-08T15:50:28.000Z</time>
      </trkpt>
      <trkpt lat="45.41504" lon="6.19346">
        <ele>1817.4000244141</ele>
        <time>2023-08-08T15:50:30.000Z</time>
      </trkpt>
      <trkpt lat="45.41503" lon="6.19346">
        <ele>1818</ele>
        <time>2023-08-08T15:50:33.000Z</time>
      </trkpt>
      <trkpt lat="45.41501" lon="6.19346">
        <ele>1818.4000244141</ele>
        <time>2023-08-08T15:50:37.000Z</time>
      </trkpt>
      <trkpt lat="45.41498" lon="6.19346">
        <ele>1819.1999511719</ele>
        <time>2023-08-08T15:50:42.000Z</time>
      </trkpt>
      <trkpt lat="45.41496" lon="6.19347">
        <ele>1819.4000244141</ele>
        <time>2023-08-08T15:50:44.000Z</time>
      </trkpt>
      <trkpt lat="45.41497" lon="6.19354">
        <ele>1820.1999511719</ele>
        <time>2023-08-08T15:50:50.000Z</time>
      </trkpt>
      <trkpt lat="45.41497" lon="6.19355">
        <ele>1820.4000244141</ele>
        <time>2023-08-08T15:50:52.000Z</time>
      </trkpt>
      <trkpt lat="45.41495" lon="6.19348">
        <ele>1821.1999511719</ele>
        <time>2023-08-08T15:50:59.000Z</time>
      </trkpt>
      <trkpt lat="45.41489" lon="6.19345">
        <ele>1822.1999511719</ele>
        <time>2023-08-08T15:51:07.000Z</time>
      </trkpt>
      <trkpt lat="45.41488" lon="6.19345">
        <ele>1822.5999755859</ele>
        <time>2023-08-08T15:51:10.000Z</time>
      </trkpt>
      <trkpt lat="45.41487" lon="6.19345">
        <ele>1823.5999755859</ele>
        <time>2023-08-08T15:51:16.000Z</time>
      </trkpt>
      <trkpt lat="45.41486" lon="6.19345">
        <ele>1823.5999755859</ele>
        <time>2023-08-08T15:51:17.000Z</time>
      </trkpt>
      <trkpt lat="45.41486" lon="6.19345">
        <ele>1824</ele>
        <time>2023-08-08T15:51:19.000Z</time>
      </trkpt>
      <trkpt lat="45.41484" lon="6.19344">
        <ele>1824.5999755859</ele>
        <time>2023-08-08T15:51:23.000Z</time>
      </trkpt>
      <trkpt lat="45.41484" lon="6.19342">
        <ele>1825.1999511719</ele>
        <time>2023-08-08T15:51:28.000Z</time>
      </trkpt>
      <trkpt lat="45.41482" lon="6.19341">
        <ele>1825.4000244141</ele>
        <time>2023-08-08T15:51:35.000Z</time>
      </trkpt>
      <trkpt lat="45.41481" lon="6.19341">
        <ele>1825.5999755859</ele>
        <time>2023-08-08T15:51:36.000Z</time>
      </trkpt>
      <trkpt lat="45.41479" lon="6.19342">
        <ele>1826.5999755859</ele>
        <time>2023-08-08T15:51:42.000Z</time>
      </trkpt>
      <trkpt lat="45.41479" lon="6.19343">
        <ele>1826.8000488281</ele>
        <time>2023-08-08T15:51:43.000Z</time>
      </trkpt>
      <trkpt lat="45.41478" lon="6.1934">
        <ele>1827.8000488281</ele>
        <time>2023-08-08T15:51:48.000Z</time>
      </trkpt>
      <trkpt lat="45.41478" lon="6.19338">
        <ele>1828</ele>
        <time>2023-08-08T15:51:50.000Z</time>
      </trkpt>
      <trkpt lat="45.41476" lon="6.19336">
        <ele>1828.8000488281</ele>
        <time>2023-08-08T15:51:55.000Z</time>
      </trkpt>
      <trkpt lat="45.41474" lon="6.19338">
        <ele>1829.1999511719</ele>
        <time>2023-08-08T15:51:58.000Z</time>
      </trkpt>
      <trkpt lat="45.41473" lon="6.19339">
        <ele>1829.8000488281</ele>
        <time>2023-08-08T15:52:03.000Z</time>
      </trkpt>
      <trkpt lat="45.41472" lon="6.19338">
        <ele>1830.5999755859</ele>
        <time>2023-08-08T15:52:07.000Z</time>
      </trkpt>
      <trkpt lat="45.41471" lon="6.19339">
        <ele>1831</ele>
        <time>2023-08-08T15:52:10.000Z</time>
      </trkpt>
      <trkpt lat="45.41468" lon="6.19338">
        <ele>1831.4000244141</ele>
        <time>2023-08-08T15:52:14.000Z</time>
      </trkpt>
      <trkpt lat="45.41466" lon="6.19337">
        <ele>1832.1999511719</ele>
        <time>2023-08-08T15:52:19.000Z</time>
      </trkpt>
      <trkpt lat="45.41463" lon="6.19336">
        <ele>1832.8000488281</ele>
        <time>2023-08-08T15:52:22.000Z</time>
      </trkpt>
      <trkpt lat="45.41462" lon="6.19336">
        <ele>1833.4000244141</ele>
        <time>2023-08-08T15:52:25.000Z</time>
      </trkpt>
      <trkpt lat="45.41462" lon="6.19339">
        <ele>1833.8000488281</ele>
        <time>2023-08-08T15:52:31.000Z</time>
      </trkpt>
      <trkpt lat="45.41462" lon="6.19339">
        <ele>1834.1999511719</ele>
        <time>2023-08-08T15:52:40.000Z</time>
      </trkpt>
      <trkpt lat="45.41465" lon="6.19341">
        <ele>1834</ele>
        <time>2023-08-08T15:52:48.000Z</time>
      </trkpt>
      <trkpt lat="45.41463" lon="6.1934">
        <ele>1834.1999511719</ele>
        <time>2023-08-08T15:52:56.000Z</time>
      </trkpt>
      <trkpt lat="45.41464" lon="6.19338">
        <ele>1833.8000488281</ele>
        <time>2023-08-08T15:53:04.000Z</time>
      </trkpt>
      <trkpt lat="45.41467" lon="6.19339">
        <ele>1833.8000488281</ele>
        <time>2023-08-08T15:53:13.000Z</time>
      </trkpt>
      <trkpt lat="45.41465" lon="6.19338">
        <ele>1833.5999755859</ele>
        <time>2023-08-08T15:53:21.000Z</time>
      </trkpt>
      <trkpt lat="45.41463" lon="6.19338">
        <ele>1833.8000488281</ele>
        <time>2023-08-08T15:53:30.000Z</time>
      </trkpt>
      <trkpt lat="45.41461" lon="6.19338">
        <ele>1833.8000488281</ele>
        <time>2023-08-08T15:53:37.000Z</time>
      </trkpt>
      <trkpt lat="45.41461" lon="6.19338">
        <ele>1833.5999755859</ele>
        <time>2023-08-08T15:53:46.000Z</time>
      </trkpt>
      <trkpt lat="45.41462" lon="6.19337">
        <ele>1833.5999755859</ele>
        <time>2023-08-08T15:53:54.000Z</time>
      </trkpt>
      <trkpt lat="45.41456" lon="6.1934">
        <ele>1833.4000244141</ele>
        <time>2023-08-08T15:54:02.000Z</time>
      </trkpt>
      <trkpt lat="45.41458" lon="6.19341">
        <ele>1833.4000244141</ele>
        <time>2023-08-08T15:54:09.000Z</time>
      </trkpt>
      <trkpt lat="45.41459" lon="6.1934">
        <ele>1833.4000244141</ele>
        <time>2023-08-08T15:54:20.000Z</time>
      </trkpt>
      <trkpt lat="45.4146" lon="6.19339">
        <ele>1833.4000244141</ele>
        <time>2023-08-08T15:54:28.000Z</time>
      </trkpt>
      <trkpt lat="45.41459" lon="6.19339">
        <ele>1833.4000244141</ele>
        <time>2023-08-08T15:54:36.000Z</time>
      </trkpt>
      <trkpt lat="45.41462" lon="6.19336">
        <ele>1833.4000244141</ele>
        <time>2023-08-08T15:54:44.000Z</time>
      </trkpt>
      <trkpt lat="45.41464" lon="6.19334">
        <ele>1833.4000244141</ele>
        <time>2023-08-08T15:54:52.000Z</time>
      </trkpt>
      <trkpt lat="45.41461" lon="6.19337">
        <ele>1833.1999511719</ele>
        <time>2023-08-08T15:54:58.000Z</time>
      </trkpt>
      <trkpt lat="45.41461" lon="6.19337">
        <ele>1833.4000244141</ele>
        <time>2023-08-08T15:55:02.000Z</time>
      </trkpt>
      <trkpt lat="45.41461" lon="6.19338">
        <ele>1833.4000244141</ele>
        <time>2023-08-08T15:55:04.000Z</time>
      </trkpt>
      <trkpt lat="45.41462" lon="6.19339">
        <ele>1833.1999511719</ele>
        <time>2023-08-08T15:55:13.000Z</time>
      </trkpt>
      <trkpt lat="45.41461" lon="6.19342">
        <ele>1833.4000244141</ele>
        <time>2023-08-08T15:55:21.000Z</time>
      </trkpt>
      <trkpt lat="45.41459" lon="6.19342">
        <ele>1833</ele>
        <time>2023-08-08T15:55:29.000Z</time>
      </trkpt>
      <trkpt lat="45.41459" lon="6.1934">
        <ele>1833.1999511719</ele>
        <time>2023-08-08T15:55:39.000Z</time>
      </trkpt>
      <trkpt lat="45.41458" lon="6.19338">
        <ele>1833.4000244141</ele>
        <time>2023-08-08T15:55:47.000Z</time>
      </trkpt>
      <trkpt lat="45.41456" lon="6.19336">
        <ele>1834.4000244141</ele>
        <time>2023-08-08T15:55:53.000Z</time>
      </trkpt>
      <trkpt lat="45.41455" lon="6.19336">
        <ele>1834.8000488281</ele>
        <time>2023-08-08T15:55:55.000Z</time>
      </trkpt>
      <trkpt lat="45.41454" lon="6.19333">
        <ele>1835.5999755859</ele>
        <time>2023-08-08T15:55:59.000Z</time>
      </trkpt>
      <trkpt lat="45.41453" lon="6.19332">
        <ele>1836</ele>
        <time>2023-08-08T15:56:02.000Z</time>
      </trkpt>
      <trkpt lat="45.41452" lon="6.19331">
        <ele>1836.5999755859</ele>
        <time>2023-08-08T15:56:05.000Z</time>
      </trkpt>
      <trkpt lat="45.41448" lon="6.19328">
        <ele>1837.5999755859</ele>
        <time>2023-08-08T15:56:10.000Z</time>
      </trkpt>
      <trkpt lat="45.41451" lon="6.19325">
        <ele>1838.5999755859</ele>
        <time>2023-08-08T15:56:18.000Z</time>
      </trkpt>
      <trkpt lat="45.41447" lon="6.19326">
        <ele>1839.8000488281</ele>
        <time>2023-08-08T15:56:25.000Z</time>
      </trkpt>
      <trkpt lat="45.41447" lon="6.19326">
        <ele>1840</ele>
        <time>2023-08-08T15:56:26.000Z</time>
      </trkpt>
      <trkpt lat="45.41444" lon="6.19328">
        <ele>1841</ele>
        <time>2023-08-08T15:56:33.000Z</time>
      </trkpt>
      <trkpt lat="45.41437" lon="6.19328">
        <ele>1842</ele>
        <time>2023-08-08T15:56:42.000Z</time>
      </trkpt>
      <trkpt lat="45.41436" lon="6.19327">
        <ele>1843.1999511719</ele>
        <time>2023-08-08T15:56:49.000Z</time>
      </trkpt>
      <trkpt lat="45.41436" lon="6.19327">
        <ele>1843.4000244141</ele>
        <time>2023-08-08T15:56:50.000Z</time>
      </trkpt>
      <trkpt lat="45.4143" lon="6.19325">
        <ele>1844.4000244141</ele>
        <time>2023-08-08T15:56:58.000Z</time>
      </trkpt>
      <trkpt lat="45.4143" lon="6.19325">
        <ele>1844.4000244141</ele>
        <time>2023-08-08T15:56:59.000Z</time>
      </trkpt>
      <trkpt lat="45.41428" lon="6.1932">
        <ele>1845.1999511719</ele>
        <time>2023-08-08T15:57:05.000Z</time>
      </trkpt>
      <trkpt lat="45.41428" lon="6.1932">
        <ele>1845.4000244141</ele>
        <time>2023-08-08T15:57:06.000Z</time>
      </trkpt>
      <trkpt lat="45.41427" lon="6.1932">
        <ele>1846.4000244141</ele>
        <time>2023-08-08T15:57:14.000Z</time>
      </trkpt>
      <trkpt lat="45.41426" lon="6.1932">
        <ele>1846.8000488281</ele>
        <time>2023-08-08T15:57:16.000Z</time>
      </trkpt>
      <trkpt lat="45.41426" lon="6.1932">
        <ele>1847.5999755859</ele>
        <time>2023-08-08T15:57:20.000Z</time>
      </trkpt>
      <trkpt lat="45.41425" lon="6.1932">
        <ele>1848</ele>
        <time>2023-08-08T15:57:23.000Z</time>
      </trkpt>
      <trkpt lat="45.41424" lon="6.19319">
        <ele>1848.5999755859</ele>
        <time>2023-08-08T15:57:27.000Z</time>
      </trkpt>
      <trkpt lat="45.41423" lon="6.19316">
        <ele>1849.1999511719</ele>
        <time>2023-08-08T15:57:31.000Z</time>
      </trkpt>
      <trkpt lat="45.41423" lon="6.19313">
        <ele>1849.5999755859</ele>
        <time>2023-08-08T15:57:34.000Z</time>
      </trkpt>
      <trkpt lat="45.41422" lon="6.19311">
        <ele>1849.4000244141</ele>
        <time>2023-08-08T15:57:38.000Z</time>
      </trkpt>
      <trkpt lat="45.41419" lon="6.19305">
        <ele>1849.8000488281</ele>
        <time>2023-08-08T15:57:47.000Z</time>
      </trkpt>
      <trkpt lat="45.41417" lon="6.19304">
        <ele>1850.5999755859</ele>
        <time>2023-08-08T15:57:53.000Z</time>
      </trkpt>
      <trkpt lat="45.41415" lon="6.19305">
        <ele>1851.1999511719</ele>
        <time>2023-08-08T15:57:56.000Z</time>
      </trkpt>
      <trkpt lat="45.41414" lon="6.19307">
        <ele>1851.5999755859</ele>
        <time>2023-08-08T15:57:59.000Z</time>
      </trkpt>
      <trkpt lat="45.41412" lon="6.1931">
        <ele>1852.4000244141</ele>
        <time>2023-08-08T15:58:04.000Z</time>
      </trkpt>
      <trkpt lat="45.41412" lon="6.19309">
        <ele>1852.8000488281</ele>
        <time>2023-08-08T15:58:06.000Z</time>
      </trkpt>
      <trkpt lat="45.41408" lon="6.19307">
        <ele>1853.5999755859</ele>
        <time>2023-08-08T15:58:11.000Z</time>
      </trkpt>
      <trkpt lat="45.41405" lon="6.19306">
        <ele>1854</ele>
        <time>2023-08-08T15:58:14.000Z</time>
      </trkpt>
      <trkpt lat="45.41405" lon="6.19306">
        <ele>1854.8000488281</ele>
        <time>2023-08-08T15:58:19.000Z</time>
      </trkpt>
      <trkpt lat="45.41404" lon="6.19307">
        <ele>1855.1999511719</ele>
        <time>2023-08-08T15:58:21.000Z</time>
      </trkpt>
      <trkpt lat="45.41405" lon="6.19308">
        <ele>1856</ele>
        <time>2023-08-08T15:58:27.000Z</time>
      </trkpt>
      <trkpt lat="45.41402" lon="6.19312">
        <ele>1856</ele>
        <time>2023-08-08T15:58:35.000Z</time>
      </trkpt>
      <trkpt lat="45.41401" lon="6.19313">
        <ele>1856.1999511719</ele>
        <time>2023-08-08T15:58:38.000Z</time>
      </trkpt>
      <trkpt lat="45.41399" lon="6.1931">
        <ele>1856.8000488281</ele>
        <time>2023-08-08T15:58:43.000Z</time>
      </trkpt>
      <trkpt lat="45.41399" lon="6.1931">
        <ele>1857.1999511719</ele>
        <time>2023-08-08T15:58:45.000Z</time>
      </trkpt>
      <trkpt lat="45.41398" lon="6.19307">
        <ele>1857.8000488281</ele>
        <time>2023-08-08T15:58:50.000Z</time>
      </trkpt>
      <trkpt lat="45.41398" lon="6.19304">
        <ele>1858.1999511719</ele>
        <time>2023-08-08T15:58:53.000Z</time>
      </trkpt>
      <trkpt lat="45.41397" lon="6.19302">
        <ele>1858.5999755859</ele>
        <time>2023-08-08T15:58:57.000Z</time>
      </trkpt>
      <trkpt lat="45.41396" lon="6.19301">
        <ele>1859.1999511719</ele>
        <time>2023-08-08T15:59:00.000Z</time>
      </trkpt>
      <trkpt lat="45.41394" lon="6.193">
        <ele>1859.8000488281</ele>
        <time>2023-08-08T15:59:05.000Z</time>
      </trkpt>
      <trkpt lat="45.41391" lon="6.19299">
        <ele>1860.1999511719</ele>
        <time>2023-08-08T15:59:10.000Z</time>
      </trkpt>
      <trkpt lat="45.4139" lon="6.19298">
        <ele>1860.5999755859</ele>
        <time>2023-08-08T15:59:12.000Z</time>
      </trkpt>
      <trkpt lat="45.41387" lon="6.19298">
        <ele>1861.4000244141</ele>
        <time>2023-08-08T15:59:15.000Z</time>
      </trkpt>
      <trkpt lat="45.41385" lon="6.19299">
        <ele>1861.8000488281</ele>
        <time>2023-08-08T15:59:19.000Z</time>
      </trkpt>
      <trkpt lat="45.41384" lon="6.19296">
        <ele>1862.4000244141</ele>
        <time>2023-08-08T15:59:23.000Z</time>
      </trkpt>
      <trkpt lat="45.41383" lon="6.19294">
        <ele>1863</ele>
        <time>2023-08-08T15:59:28.000Z</time>
      </trkpt>
      <trkpt lat="45.41382" lon="6.19294">
        <ele>1863.4000244141</ele>
        <time>2023-08-08T15:59:31.000Z</time>
      </trkpt>
      <trkpt lat="45.4138" lon="6.19293">
        <ele>1863.5999755859</ele>
        <time>2023-08-08T15:59:36.000Z</time>
      </trkpt>
      <trkpt lat="45.41379" lon="6.19288">
        <ele>1864.5999755859</ele>
        <time>2023-08-08T15:59:42.000Z</time>
      </trkpt>
      <trkpt lat="45.41378" lon="6.19284">
        <ele>1865</ele>
        <time>2023-08-08T15:59:45.000Z</time>
      </trkpt>
      <trkpt lat="45.41376" lon="6.19278">
        <ele>1865.1999511719</ele>
        <time>2023-08-08T15:59:52.000Z</time>
      </trkpt>
      <trkpt lat="45.41375" lon="6.19275">
        <ele>1865.5999755859</ele>
        <time>2023-08-08T15:59:55.000Z</time>
      </trkpt>
      <trkpt lat="45.41372" lon="6.19273">
        <ele>1865.5999755859</ele>
        <time>2023-08-08T15:59:59.000Z</time>
      </trkpt>
      <trkpt lat="45.41368" lon="6.1927">
        <ele>1866.5999755859</ele>
        <time>2023-08-08T16:00:07.000Z</time>
      </trkpt>
      <trkpt lat="45.41366" lon="6.19269">
        <ele>1867</ele>
        <time>2023-08-08T16:00:10.000Z</time>
      </trkpt>
      <trkpt lat="45.41363" lon="6.19268">
        <ele>1867.5999755859</ele>
        <time>2023-08-08T16:00:17.000Z</time>
      </trkpt>
      <trkpt lat="45.41363" lon="6.19267">
        <ele>1867.8000488281</ele>
        <time>2023-08-08T16:00:18.000Z</time>
      </trkpt>
      <trkpt lat="45.41363" lon="6.19264">
        <ele>1867.8000488281</ele>
        <time>2023-08-08T16:00:23.000Z</time>
      </trkpt>
      <trkpt lat="45.41357" lon="6.19266">
        <ele>1868.1999511719</ele>
        <time>2023-08-08T16:00:31.000Z</time>
      </trkpt>
      <trkpt lat="45.41352" lon="6.19267">
        <ele>1869</ele>
        <time>2023-08-08T16:00:40.000Z</time>
      </trkpt>
      <trkpt lat="45.41352" lon="6.19267">
        <ele>1870</ele>
        <time>2023-08-08T16:00:48.000Z</time>
      </trkpt>
      <trkpt lat="45.41352" lon="6.19267">
        <ele>1870.1999511719</ele>
        <time>2023-08-08T16:00:49.000Z</time>
      </trkpt>
      <trkpt lat="45.4135" lon="6.19265">
        <ele>1871.1999511719</ele>
        <time>2023-08-08T16:00:56.000Z</time>
      </trkpt>
      <trkpt lat="45.41349" lon="6.19264">
        <ele>1871.4000244141</ele>
        <time>2023-08-08T16:00:59.000Z</time>
      </trkpt>
      <trkpt lat="45.41349" lon="6.19266">
        <ele>1871.8000488281</ele>
        <time>2023-08-08T16:01:06.000Z</time>
      </trkpt>
      <trkpt lat="45.41345" lon="6.19263">
        <ele>1871.5999755859</ele>
        <time>2023-08-08T16:01:11.000Z</time>
      </trkpt>
      <trkpt lat="45.41345" lon="6.19264">
        <ele>1872.1999511719</ele>
        <time>2023-08-08T16:01:18.000Z</time>
      </trkpt>
      <trkpt lat="45.41344" lon="6.19264">
        <ele>1873.1999511719</ele>
        <time>2023-08-08T16:01:24.000Z</time>
      </trkpt>
      <trkpt lat="45.41343" lon="6.19264">
        <ele>1873.1999511719</ele>
        <time>2023-08-08T16:01:25.000Z</time>
      </trkpt>
      <trkpt lat="45.41343" lon="6.19261">
        <ele>1874.1999511719</ele>
        <time>2023-08-08T16:01:33.000Z</time>
      </trkpt>
      <trkpt lat="45.41338" lon="6.19256">
        <ele>1875</ele>
        <time>2023-08-08T16:01:41.000Z</time>
      </trkpt>
      <trkpt lat="45.41336" lon="6.19252">
        <ele>1875.4000244141</ele>
        <time>2023-08-08T16:01:45.000Z</time>
      </trkpt>
      <trkpt lat="45.41334" lon="6.19251">
        <ele>1875.8000488281</ele>
        <time>2023-08-08T16:01:48.000Z</time>
      </trkpt>
      <trkpt lat="45.41332" lon="6.1925">
        <ele>1876.4000244141</ele>
        <time>2023-08-08T16:01:52.000Z</time>
      </trkpt>
      <trkpt lat="45.4133" lon="6.19252">
        <ele>1877</ele>
        <time>2023-08-08T16:01:56.000Z</time>
      </trkpt>
      <trkpt lat="45.41326" lon="6.19251">
        <ele>1877.4000244141</ele>
        <time>2023-08-08T16:02:01.000Z</time>
      </trkpt>
      <trkpt lat="45.41325" lon="6.19251">
        <ele>1877.4000244141</ele>
        <time>2023-08-08T16:02:03.000Z</time>
      </trkpt>
      <trkpt lat="45.41323" lon="6.19249">
        <ele>1878.1999511719</ele>
        <time>2023-08-08T16:02:10.000Z</time>
      </trkpt>
      <trkpt lat="45.41321" lon="6.19247">
        <ele>1878.5999755859</ele>
        <time>2023-08-08T16:02:15.000Z</time>
      </trkpt>
      <trkpt lat="45.4132" lon="6.19244">
        <ele>1878.8000488281</ele>
        <time>2023-08-08T16:02:20.000Z</time>
      </trkpt>
      <trkpt lat="45.41317" lon="6.19243">
        <ele>1879.4000244141</ele>
        <time>2023-08-08T16:02:29.000Z</time>
      </trkpt>
      <trkpt lat="45.41316" lon="6.19243">
        <ele>1879.5999755859</ele>
        <time>2023-08-08T16:02:30.000Z</time>
      </trkpt>
      <trkpt lat="45.41314" lon="6.19244">
        <ele>1880</ele>
        <time>2023-08-08T16:02:37.000Z</time>
      </trkpt>
      <trkpt lat="45.4131" lon="6.19241">
        <ele>1880.5999755859</ele>
        <time>2023-08-08T16:02:45.000Z</time>
      </trkpt>
      <trkpt lat="45.41306" lon="6.1924">
        <ele>1881.4000244141</ele>
        <time>2023-08-08T16:02:51.000Z</time>
      </trkpt>
      <trkpt lat="45.41305" lon="6.19239">
        <ele>1881.5999755859</ele>
        <time>2023-08-08T16:02:53.000Z</time>
      </trkpt>
      <trkpt lat="45.41301" lon="6.19236">
        <ele>1882</ele>
        <time>2023-08-08T16:03:00.000Z</time>
      </trkpt>
      <trkpt lat="45.41299" lon="6.19232">
        <ele>1882.5999755859</ele>
        <time>2023-08-08T16:03:07.000Z</time>
      </trkpt>
      <trkpt lat="45.41296" lon="6.19229">
        <ele>1883.5999755859</ele>
        <time>2023-08-08T16:03:15.000Z</time>
      </trkpt>
      <trkpt lat="45.41295" lon="6.19229">
        <ele>1884</ele>
        <time>2023-08-08T16:03:17.000Z</time>
      </trkpt>
      <trkpt lat="45.41291" lon="6.19226">
        <ele>1884.5999755859</ele>
        <time>2023-08-08T16:03:22.000Z</time>
      </trkpt>
      <trkpt lat="45.4129" lon="6.19225">
        <ele>1884.8000488281</ele>
        <time>2023-08-08T16:03:24.000Z</time>
      </trkpt>
      <trkpt lat="45.41284" lon="6.19219">
        <ele>1885.5999755859</ele>
        <time>2023-08-08T16:03:33.000Z</time>
      </trkpt>
      <trkpt lat="45.41284" lon="6.19218">
        <ele>1885.8000488281</ele>
        <time>2023-08-08T16:03:34.000Z</time>
      </trkpt>
      <trkpt lat="45.41281" lon="6.19216">
        <ele>1887</ele>
        <time>2023-08-08T16:03:42.000Z</time>
      </trkpt>
      <trkpt lat="45.41281" lon="6.19216">
        <ele>1887.1999511719</ele>
        <time>2023-08-08T16:03:43.000Z</time>
      </trkpt>
      <trkpt lat="45.41279" lon="6.19211">
        <ele>1887.5999755859</ele>
        <time>2023-08-08T16:03:49.000Z</time>
      </trkpt>
      <trkpt lat="45.41275" lon="6.19211">
        <ele>1888</ele>
        <time>2023-08-08T16:03:55.000Z</time>
      </trkpt>
      <trkpt lat="45.41272" lon="6.1921">
        <ele>1888.4000244141</ele>
        <time>2023-08-08T16:03:58.000Z</time>
      </trkpt>
      <trkpt lat="45.41269" lon="6.19208">
        <ele>1889.1999511719</ele>
        <time>2023-08-08T16:04:04.000Z</time>
      </trkpt>
      <trkpt lat="45.41268" lon="6.19208">
        <ele>1889.1999511719</ele>
        <time>2023-08-08T16:04:05.000Z</time>
      </trkpt>
      <trkpt lat="45.41265" lon="6.19204">
        <ele>1890.1999511719</ele>
        <time>2023-08-08T16:04:12.000Z</time>
      </trkpt>
      <trkpt lat="45.41263" lon="6.19201">
        <ele>1890.5999755859</ele>
        <time>2023-08-08T16:04:15.000Z</time>
      </trkpt>
      <trkpt lat="45.41261" lon="6.19198">
        <ele>1891.1999511719</ele>
        <time>2023-08-08T16:04:20.000Z</time>
      </trkpt>
      <trkpt lat="45.4126" lon="6.19197">
        <ele>1892</ele>
        <time>2023-08-08T16:04:24.000Z</time>
      </trkpt>
      <trkpt lat="45.41259" lon="6.19196">
        <ele>1892.4000244141</ele>
        <time>2023-08-08T16:04:27.000Z</time>
      </trkpt>
      <trkpt lat="45.41255" lon="6.19196">
        <ele>1893.1999511719</ele>
        <time>2023-08-08T16:04:33.000Z</time>
      </trkpt>
      <trkpt lat="45.41254" lon="6.19197">
        <ele>1893.4000244141</ele>
        <time>2023-08-08T16:04:35.000Z</time>
      </trkpt>
      <trkpt lat="45.41253" lon="6.19196">
        <ele>1894.1999511719</ele>
        <time>2023-08-08T16:04:41.000Z</time>
      </trkpt>
      <trkpt lat="45.41252" lon="6.19196">
        <ele>1894.4000244141</ele>
        <time>2023-08-08T16:04:43.000Z</time>
      </trkpt>
      <trkpt lat="45.41249" lon="6.19192">
        <ele>1895.1999511719</ele>
        <time>2023-08-08T16:04:48.000Z</time>
      </trkpt>
      <trkpt lat="45.41246" lon="6.19189">
        <ele>1895.5999755859</ele>
        <time>2023-08-08T16:04:52.000Z</time>
      </trkpt>
      <trkpt lat="45.41244" lon="6.19186">
        <ele>1896</ele>
        <time>2023-08-08T16:04:55.000Z</time>
      </trkpt>
      <trkpt lat="45.41243" lon="6.19184">
        <ele>1896.8000488281</ele>
        <time>2023-08-08T16:05:02.000Z</time>
      </trkpt>
      <trkpt lat="45.4124" lon="6.19181">
        <ele>1897.5999755859</ele>
        <time>2023-08-08T16:05:10.000Z</time>
      </trkpt>
      <trkpt lat="45.4124" lon="6.19181">
        <ele>1897.8000488281</ele>
        <time>2023-08-08T16:05:11.000Z</time>
      </trkpt>
      <trkpt lat="45.41234" lon="6.19176">
        <ele>1898.4000244141</ele>
        <time>2023-08-08T16:05:16.000Z</time>
      </trkpt>
      <trkpt lat="45.41228" lon="6.19168">
        <ele>1898.8000488281</ele>
        <time>2023-08-08T16:05:25.000Z</time>
      </trkpt>
      <trkpt lat="45.41226" lon="6.1916">
        <ele>1899.4000244141</ele>
        <time>2023-08-08T16:05:34.000Z</time>
      </trkpt>
      <trkpt lat="45.41222" lon="6.19154">
        <ele>1900</ele>
        <time>2023-08-08T16:05:42.000Z</time>
      </trkpt>
      <trkpt lat="45.41217" lon="6.19146">
        <ele>1901</ele>
        <time>2023-08-08T16:05:50.000Z</time>
      </trkpt>
      <trkpt lat="45.41215" lon="6.19146">
        <ele>1901.4000244141</ele>
        <time>2023-08-08T16:05:59.000Z</time>
      </trkpt>
      <trkpt lat="45.41215" lon="6.19143">
        <ele>1901.4000244141</ele>
        <time>2023-08-08T16:06:09.000Z</time>
      </trkpt>
      <trkpt lat="45.41215" lon="6.19141">
        <ele>1901.1999511719</ele>
        <time>2023-08-08T16:06:18.000Z</time>
      </trkpt>
      <trkpt lat="45.41216" lon="6.19141">
        <ele>1901.4000244141</ele>
        <time>2023-08-08T16:06:26.000Z</time>
      </trkpt>
      <trkpt lat="45.41215" lon="6.19141">
        <ele>1901.5999755859</ele>
        <time>2023-08-08T16:06:35.000Z</time>
      </trkpt>
      <trkpt lat="45.41212" lon="6.19139">
        <ele>1901.5999755859</ele>
        <time>2023-08-08T16:06:43.000Z</time>
      </trkpt>
      <trkpt lat="45.41211" lon="6.19139">
        <ele>1902</ele>
        <time>2023-08-08T16:06:46.000Z</time>
      </trkpt>
      <trkpt lat="45.41209" lon="6.19136">
        <ele>1902.5999755859</ele>
        <time>2023-08-08T16:06:51.000Z</time>
      </trkpt>
      <trkpt lat="45.41207" lon="6.19133">
        <ele>1903.1999511719</ele>
        <time>2023-08-08T16:06:55.000Z</time>
      </trkpt>
      <trkpt lat="45.41207" lon="6.19132">
        <ele>1903.1999511719</ele>
        <time>2023-08-08T16:06:56.000Z</time>
      </trkpt>
      <trkpt lat="45.41207" lon="6.19129">
        <ele>1903.1999511719</ele>
        <time>2023-08-08T16:06:58.000Z</time>
      </trkpt>
      <trkpt lat="45.41203" lon="6.1912">
        <ele>1903.1999511719</ele>
        <time>2023-08-08T16:07:07.000Z</time>
      </trkpt>
      <trkpt lat="45.41201" lon="6.19116">
        <ele>1904.1999511719</ele>
        <time>2023-08-08T16:07:15.000Z</time>
      </trkpt>
      <trkpt lat="45.41198" lon="6.19114">
        <ele>1905.4000244141</ele>
        <time>2023-08-08T16:07:22.000Z</time>
      </trkpt>
      <trkpt lat="45.41198" lon="6.19115">
        <ele>1905.5999755859</ele>
        <time>2023-08-08T16:07:24.000Z</time>
      </trkpt>
      <trkpt lat="45.41195" lon="6.19114">
        <ele>1906.5999755859</ele>
        <time>2023-08-08T16:07:29.000Z</time>
      </trkpt>
      <trkpt lat="45.41192" lon="6.1911">
        <ele>1907.4000244141</ele>
        <time>2023-08-08T16:07:36.000Z</time>
      </trkpt>
      <trkpt lat="45.4119" lon="6.19109">
        <ele>1907.5999755859</ele>
        <time>2023-08-08T16:07:38.000Z</time>
      </trkpt>
      <trkpt lat="45.41188" lon="6.19106">
        <ele>1908.1999511719</ele>
        <time>2023-08-08T16:07:43.000Z</time>
      </trkpt>
      <trkpt lat="45.41186" lon="6.19104">
        <ele>1908.8000488281</ele>
        <time>2023-08-08T16:07:47.000Z</time>
      </trkpt>
      <trkpt lat="45.41183" lon="6.19102">
        <ele>1909.5999755859</ele>
        <time>2023-08-08T16:07:52.000Z</time>
      </trkpt>
      <trkpt lat="45.41183" lon="6.19102">
        <ele>1909.8000488281</ele>
        <time>2023-08-08T16:07:53.000Z</time>
      </trkpt>
      <trkpt lat="45.4118" lon="6.191">
        <ele>1911</ele>
        <time>2023-08-08T16:08:00.000Z</time>
      </trkpt>
      <trkpt lat="45.41179" lon="6.19091">
        <ele>1911.1999511719</ele>
        <time>2023-08-08T16:08:09.000Z</time>
      </trkpt>
      <trkpt lat="45.41178" lon="6.19087">
        <ele>1911.5999755859</ele>
        <time>2023-08-08T16:08:16.000Z</time>
      </trkpt>
      <trkpt lat="45.41175" lon="6.19081">
        <ele>1911.8000488281</ele>
        <time>2023-08-08T16:08:24.000Z</time>
      </trkpt>
      <trkpt lat="45.41174" lon="6.19073">
        <ele>1912</ele>
        <time>2023-08-08T16:08:30.000Z</time>
      </trkpt>
      <trkpt lat="45.41172" lon="6.19065">
        <ele>1912.5999755859</ele>
        <time>2023-08-08T16:08:39.000Z</time>
      </trkpt>
      <trkpt lat="45.41171" lon="6.1906">
        <ele>1913</ele>
        <time>2023-08-08T16:08:43.000Z</time>
      </trkpt>
      <trkpt lat="45.4117" lon="6.19058">
        <ele>1913.8000488281</ele>
        <time>2023-08-08T16:08:48.000Z</time>
      </trkpt>
      <trkpt lat="45.41172" lon="6.19051">
        <ele>1913.4000244141</ele>
        <time>2023-08-08T16:08:55.000Z</time>
      </trkpt>
      <trkpt lat="45.41173" lon="6.1904">
        <ele>1913.4000244141</ele>
        <time>2023-08-08T16:09:03.000Z</time>
      </trkpt>
      <trkpt lat="45.41172" lon="6.19031">
        <ele>1914</ele>
        <time>2023-08-08T16:09:10.000Z</time>
      </trkpt>
      <trkpt lat="45.41171" lon="6.1903">
        <ele>1914.1999511719</ele>
        <time>2023-08-08T16:09:11.000Z</time>
      </trkpt>
      <trkpt lat="45.41168" lon="6.19029">
        <ele>1915.1999511719</ele>
        <time>2023-08-08T16:09:16.000Z</time>
      </trkpt>
      <trkpt lat="45.41167" lon="6.19028">
        <ele>1915.5999755859</ele>
        <time>2023-08-08T16:09:18.000Z</time>
      </trkpt>
      <trkpt lat="45.41164" lon="6.19029">
        <ele>1916.1999511719</ele>
        <time>2023-08-08T16:09:22.000Z</time>
      </trkpt>
      <trkpt lat="45.41161" lon="6.19029">
        <ele>1917</ele>
        <time>2023-08-08T16:09:26.000Z</time>
      </trkpt>
      <trkpt lat="45.4116" lon="6.19029">
        <ele>1917.4000244141</ele>
        <time>2023-08-08T16:09:28.000Z</time>
      </trkpt>
      <trkpt lat="45.41157" lon="6.19024">
        <ele>1918.5999755859</ele>
        <time>2023-08-08T16:09:33.000Z</time>
      </trkpt>
      <trkpt lat="45.41157" lon="6.19024">
        <ele>1918.8000488281</ele>
        <time>2023-08-08T16:09:34.000Z</time>
      </trkpt>
      <trkpt lat="45.41158" lon="6.19018">
        <ele>1919.5999755859</ele>
        <time>2023-08-08T16:09:39.000Z</time>
      </trkpt>
      <trkpt lat="45.41157" lon="6.19016">
        <ele>1920.1999511719</ele>
        <time>2023-08-08T16:09:42.000Z</time>
      </trkpt>
      <trkpt lat="45.41156" lon="6.19014">
        <ele>1920.8000488281</ele>
        <time>2023-08-08T16:09:45.000Z</time>
      </trkpt>
      <trkpt lat="45.41154" lon="6.19013">
        <ele>1921.4000244141</ele>
        <time>2023-08-08T16:09:49.000Z</time>
      </trkpt>
      <trkpt lat="45.41153" lon="6.19012">
        <ele>1921.8000488281</ele>
        <time>2023-08-08T16:09:51.000Z</time>
      </trkpt>
      <trkpt lat="45.41152" lon="6.19012">
        <ele>1923</ele>
        <time>2023-08-08T16:09:56.000Z</time>
      </trkpt>
      <trkpt lat="45.41152" lon="6.19012">
        <ele>1923</ele>
        <time>2023-08-08T16:09:57.000Z</time>
      </trkpt>
      <trkpt lat="45.4115" lon="6.19009">
        <ele>1924</ele>
        <time>2023-08-08T16:10:03.000Z</time>
      </trkpt>
      <trkpt lat="45.41149" lon="6.19005">
        <ele>1925.1999511719</ele>
        <time>2023-08-08T16:10:10.000Z</time>
      </trkpt>
      <trkpt lat="45.41149" lon="6.19005">
        <ele>1925.4000244141</ele>
        <time>2023-08-08T16:10:11.000Z</time>
      </trkpt>
      <trkpt lat="45.41147" lon="6.19003">
        <ele>1926.1999511719</ele>
        <time>2023-08-08T16:10:15.000Z</time>
      </trkpt>
      <trkpt lat="45.41148" lon="6.19003">
        <ele>1926.4000244141</ele>
        <time>2023-08-08T16:10:18.000Z</time>
      </trkpt>
      <trkpt lat="45.41146" lon="6.19003">
        <ele>1926.4000244141</ele>
        <time>2023-08-08T16:10:26.000Z</time>
      </trkpt>
      <trkpt lat="45.41144" lon="6.19002">
        <ele>1926.8000488281</ele>
        <time>2023-08-08T16:10:35.000Z</time>
      </trkpt>
      <trkpt lat="45.41146" lon="6.19002">
        <ele>1926.8000488281</ele>
        <time>2023-08-08T16:10:42.000Z</time>
      </trkpt>
      <trkpt lat="45.41146" lon="6.19003">
        <ele>1927.1999511719</ele>
        <time>2023-08-08T16:10:50.000Z</time>
      </trkpt>
      <trkpt lat="45.41146" lon="6.19004">
        <ele>1927.1999511719</ele>
        <time>2023-08-08T16:10:51.000Z</time>
      </trkpt>
      <trkpt lat="45.41145" lon="6.19003">
        <ele>1927.4000244141</ele>
        <time>2023-08-08T16:10:59.000Z</time>
      </trkpt>
      <trkpt lat="45.41146" lon="6.19001">
        <ele>1927.8000488281</ele>
        <time>2023-08-08T16:11:07.000Z</time>
      </trkpt>
      <trkpt lat="45.41142" lon="6.18997">
        <ele>1928.1999511719</ele>
        <time>2023-08-08T16:11:15.000Z</time>
      </trkpt>
      <trkpt lat="45.41141" lon="6.18997">
        <ele>1928.5999755859</ele>
        <time>2023-08-08T16:11:16.000Z</time>
      </trkpt>
      <trkpt lat="45.41138" lon="6.18997">
        <ele>1929.4000244141</ele>
        <time>2023-08-08T16:11:21.000Z</time>
      </trkpt>
      <trkpt lat="45.41135" lon="6.18995">
        <ele>1930.5999755859</ele>
        <time>2023-08-08T16:11:27.000Z</time>
      </trkpt>
      <trkpt lat="45.41135" lon="6.18995">
        <ele>1930.8000488281</ele>
        <time>2023-08-08T16:11:28.000Z</time>
      </trkpt>
      <trkpt lat="45.41134" lon="6.18994">
        <ele>1931.8000488281</ele>
        <time>2023-08-08T16:11:32.000Z</time>
      </trkpt>
      <trkpt lat="45.41133" lon="6.18992">
        <ele>1932.1999511719</ele>
        <time>2023-08-08T16:11:34.000Z</time>
      </trkpt>
      <trkpt lat="45.41132" lon="6.1899">
        <ele>1932.8000488281</ele>
        <time>2023-08-08T16:11:37.000Z</time>
      </trkpt>
      <trkpt lat="45.4113" lon="6.18988">
        <ele>1933.4000244141</ele>
        <time>2023-08-08T16:11:41.000Z</time>
      </trkpt>
      <trkpt lat="45.41128" lon="6.18986">
        <ele>1934</ele>
        <time>2023-08-08T16:11:44.000Z</time>
      </trkpt>
      <trkpt lat="45.41127" lon="6.18983">
        <ele>1934.8000488281</ele>
        <time>2023-08-08T16:11:48.000Z</time>
      </trkpt>
      <trkpt lat="45.41127" lon="6.18982">
        <ele>1935.1999511719</ele>
        <time>2023-08-08T16:11:49.000Z</time>
      </trkpt>
      <trkpt lat="45.41125" lon="6.18978">
        <ele>1936.1999511719</ele>
        <time>2023-08-08T16:11:56.000Z</time>
      </trkpt>
      <trkpt lat="45.41125" lon="6.18977">
        <ele>1936.1999511719</ele>
        <time>2023-08-08T16:11:57.000Z</time>
      </trkpt>
      <trkpt lat="45.41127" lon="6.18973">
        <ele>1937</ele>
        <time>2023-08-08T16:12:03.000Z</time>
      </trkpt>
      <trkpt lat="45.41128" lon="6.18973">
        <ele>1937.4000244141</ele>
        <time>2023-08-08T16:12:04.000Z</time>
      </trkpt>
      <trkpt lat="45.41132" lon="6.1897">
        <ele>1938.4000244141</ele>
        <time>2023-08-08T16:12:10.000Z</time>
      </trkpt>
      <trkpt lat="45.41133" lon="6.1897">
        <ele>1938.5999755859</ele>
        <time>2023-08-08T16:12:11.000Z</time>
      </trkpt>
      <trkpt lat="45.41135" lon="6.1897">
        <ele>1939.4000244141</ele>
        <time>2023-08-08T16:12:16.000Z</time>
      </trkpt>
      <trkpt lat="45.41138" lon="6.18967">
        <ele>1940</ele>
        <time>2023-08-08T16:12:20.000Z</time>
      </trkpt>
      <trkpt lat="45.41137" lon="6.18965">
        <ele>1940.5999755859</ele>
        <time>2023-08-08T16:12:24.000Z</time>
      </trkpt>
      <trkpt lat="45.41135" lon="6.18963">
        <ele>1940.8000488281</ele>
        <time>2023-08-08T16:12:27.000Z</time>
      </trkpt>
      <trkpt lat="45.41132" lon="6.1896">
        <ele>1941.5999755859</ele>
        <time>2023-08-08T16:12:32.000Z</time>
      </trkpt>
      <trkpt lat="45.41131" lon="6.1896">
        <ele>1942.1999511719</ele>
        <time>2023-08-08T16:12:36.000Z</time>
      </trkpt>
      <trkpt lat="45.41131" lon="6.18959">
        <ele>1942.8000488281</ele>
        <time>2023-08-08T16:12:38.000Z</time>
      </trkpt>
      <trkpt lat="45.41132" lon="6.18958">
        <ele>1943.5999755859</ele>
        <time>2023-08-08T16:12:44.000Z</time>
      </trkpt>
      <trkpt lat="45.41131" lon="6.18959">
        <ele>1943.8000488281</ele>
        <time>2023-08-08T16:12:45.000Z</time>
      </trkpt>
      <trkpt lat="45.4113" lon="6.18955">
        <ele>1944.8000488281</ele>
        <time>2023-08-08T16:12:51.000Z</time>
      </trkpt>
      <trkpt lat="45.41132" lon="6.18955">
        <ele>1945</ele>
        <time>2023-08-08T16:12:58.000Z</time>
      </trkpt>
      <trkpt lat="45.41133" lon="6.18952">
        <ele>1945.1999511719</ele>
        <time>2023-08-08T16:13:05.000Z</time>
      </trkpt>
      <trkpt lat="45.4113" lon="6.18951">
        <ele>1946</ele>
        <time>2023-08-08T16:13:11.000Z</time>
      </trkpt>
      <trkpt lat="45.41128" lon="6.18949">
        <ele>1946.4000244141</ele>
        <time>2023-08-08T16:13:14.000Z</time>
      </trkpt>
      <trkpt lat="45.41128" lon="6.18949">
        <ele>1947</ele>
        <time>2023-08-08T16:13:17.000Z</time>
      </trkpt>
      <trkpt lat="45.41128" lon="6.18948">
        <ele>1948</ele>
        <time>2023-08-08T16:13:22.000Z</time>
      </trkpt>
      <trkpt lat="45.41129" lon="6.18947">
        <ele>1948.4000244141</ele>
        <time>2023-08-08T16:13:24.000Z</time>
      </trkpt>
      <trkpt lat="45.4113" lon="6.18944">
        <ele>1949.1999511719</ele>
        <time>2023-08-08T16:13:29.000Z</time>
      </trkpt>
      <trkpt lat="45.4113" lon="6.1894">
        <ele>1950</ele>
        <time>2023-08-08T16:13:35.000Z</time>
      </trkpt>
      <trkpt lat="45.41131" lon="6.18936">
        <ele>1950</ele>
        <time>2023-08-08T16:13:45.000Z</time>
      </trkpt>
      <trkpt lat="45.4113" lon="6.18934">
        <ele>1950.1999511719</ele>
        <time>2023-08-08T16:13:48.000Z</time>
      </trkpt>
      <trkpt lat="45.4113" lon="6.18933">
        <ele>1951</ele>
        <time>2023-08-08T16:13:52.000Z</time>
      </trkpt>
      <trkpt lat="45.41129" lon="6.18933">
        <ele>1951.4000244141</ele>
        <time>2023-08-08T16:13:54.000Z</time>
      </trkpt>
      <trkpt lat="45.41128" lon="6.18929">
        <ele>1952.1999511719</ele>
        <time>2023-08-08T16:13:58.000Z</time>
      </trkpt>
      <trkpt lat="45.41127" lon="6.18928">
        <ele>1952.4000244141</ele>
        <time>2023-08-08T16:14:00.000Z</time>
      </trkpt>
      <trkpt lat="45.41126" lon="6.18926">
        <ele>1953.1999511719</ele>
        <time>2023-08-08T16:14:04.000Z</time>
      </trkpt>
      <trkpt lat="45.41126" lon="6.18925">
        <ele>1953.5999755859</ele>
        <time>2023-08-08T16:14:06.000Z</time>
      </trkpt>
      <trkpt lat="45.41125" lon="6.1892">
        <ele>1954.5999755859</ele>
        <time>2023-08-08T16:14:12.000Z</time>
      </trkpt>
      <trkpt lat="45.41124" lon="6.18918">
        <ele>1955.5999755859</ele>
        <time>2023-08-08T16:14:17.000Z</time>
      </trkpt>
      <trkpt lat="45.41124" lon="6.18918">
        <ele>1955.8000488281</ele>
        <time>2023-08-08T16:14:18.000Z</time>
      </trkpt>
      <trkpt lat="45.41123" lon="6.18917">
        <ele>1956.5999755859</ele>
        <time>2023-08-08T16:14:23.000Z</time>
      </trkpt>
      <trkpt lat="45.41122" lon="6.18916">
        <ele>1957.4000244141</ele>
        <time>2023-08-08T16:14:26.000Z</time>
      </trkpt>
      <trkpt lat="45.41121" lon="6.18916">
        <ele>1957.8000488281</ele>
        <time>2023-08-08T16:14:28.000Z</time>
      </trkpt>
      <trkpt lat="45.41121" lon="6.18917">
        <ele>1958.1999511719</ele>
        <time>2023-08-08T16:14:35.000Z</time>
      </trkpt>
      <trkpt lat="45.41116" lon="6.18915">
        <ele>1959</ele>
        <time>2023-08-08T16:14:41.000Z</time>
      </trkpt>
      <trkpt lat="45.41115" lon="6.18914">
        <ele>1959.4000244141</ele>
        <time>2023-08-08T16:14:43.000Z</time>
      </trkpt>
      <trkpt lat="45.41114" lon="6.18911">
        <ele>1960</ele>
        <time>2023-08-08T16:14:48.000Z</time>
      </trkpt>
      <trkpt lat="45.41115" lon="6.18907">
        <ele>1961.1999511719</ele>
        <time>2023-08-08T16:14:53.000Z</time>
      </trkpt>
      <trkpt lat="45.41115" lon="6.18907">
        <ele>1961.4000244141</ele>
        <time>2023-08-08T16:14:54.000Z</time>
      </trkpt>
      <trkpt lat="45.4112" lon="6.18901">
        <ele>1962.4000244141</ele>
        <time>2023-08-08T16:15:01.000Z</time>
      </trkpt>
      <trkpt lat="45.41121" lon="6.189">
        <ele>1962.4000244141</ele>
        <time>2023-08-08T16:15:02.000Z</time>
      </trkpt>
      <trkpt lat="45.41123" lon="6.18897">
        <ele>1963.1999511719</ele>
        <time>2023-08-08T16:15:09.000Z</time>
      </trkpt>
      <trkpt lat="45.41123" lon="6.18897">
        <ele>1963.5999755859</ele>
        <time>2023-08-08T16:15:10.000Z</time>
      </trkpt>
      <trkpt lat="45.41124" lon="6.18893">
        <ele>1964.5999755859</ele>
        <time>2023-08-08T16:15:16.000Z</time>
      </trkpt>
      <trkpt lat="45.41124" lon="6.18893">
        <ele>1964.8000488281</ele>
        <time>2023-08-08T16:15:17.000Z</time>
      </trkpt>
      <trkpt lat="45.41124" lon="6.18891">
        <ele>1965.4000244141</ele>
        <time>2023-08-08T16:15:24.000Z</time>
      </trkpt>
      <trkpt lat="45.41123" lon="6.18888">
        <ele>1965.5999755859</ele>
        <time>2023-08-08T16:15:32.000Z</time>
      </trkpt>
      <trkpt lat="45.41123" lon="6.18889">
        <ele>1965.8000488281</ele>
        <time>2023-08-08T16:15:34.000Z</time>
      </trkpt>
      <trkpt lat="45.41121" lon="6.18887">
        <ele>1966.8000488281</ele>
        <time>2023-08-08T16:15:38.000Z</time>
      </trkpt>
      <trkpt lat="45.41121" lon="6.18886">
        <ele>1967</ele>
        <time>2023-08-08T16:15:39.000Z</time>
      </trkpt>
      <trkpt lat="45.41119" lon="6.18883">
        <ele>1968</ele>
        <time>2023-08-08T16:15:45.000Z</time>
      </trkpt>
      <trkpt lat="45.41119" lon="6.18883">
        <ele>1968.1999511719</ele>
        <time>2023-08-08T16:15:46.000Z</time>
      </trkpt>
      <trkpt lat="45.41117" lon="6.1888">
        <ele>1969</ele>
        <time>2023-08-08T16:15:52.000Z</time>
      </trkpt>
      <trkpt lat="45.41117" lon="6.18879">
        <ele>1969.5999755859</ele>
        <time>2023-08-08T16:15:54.000Z</time>
      </trkpt>
      <trkpt lat="45.41116" lon="6.18876">
        <ele>1970.4000244141</ele>
        <time>2023-08-08T16:15:59.000Z</time>
      </trkpt>
      <trkpt lat="45.41116" lon="6.18874">
        <ele>1970.5999755859</ele>
        <time>2023-08-08T16:16:01.000Z</time>
      </trkpt>
      <trkpt lat="45.41116" lon="6.18873">
        <ele>1971.4000244141</ele>
        <time>2023-08-08T16:16:04.000Z</time>
      </trkpt>
      <trkpt lat="45.41116" lon="6.1887">
        <ele>1972</ele>
        <time>2023-08-08T16:16:09.000Z</time>
      </trkpt>
      <trkpt lat="45.41116" lon="6.18868">
        <ele>1972.4000244141</ele>
        <time>2023-08-08T16:16:12.000Z</time>
      </trkpt>
      <trkpt lat="45.41115" lon="6.18865">
        <ele>1973.1999511719</ele>
        <time>2023-08-08T16:16:17.000Z</time>
      </trkpt>
      <trkpt lat="45.41115" lon="6.18864">
        <ele>1973.5999755859</ele>
        <time>2023-08-08T16:16:19.000Z</time>
      </trkpt>
      <trkpt lat="45.41113" lon="6.18859">
        <ele>1974.8000488281</ele>
        <time>2023-08-08T16:16:26.000Z</time>
      </trkpt>
      <trkpt lat="45.41113" lon="6.18858">
        <ele>1975</ele>
        <time>2023-08-08T16:16:27.000Z</time>
      </trkpt>
      <trkpt lat="45.41114" lon="6.18854">
        <ele>1976.1999511719</ele>
        <time>2023-08-08T16:16:33.000Z</time>
      </trkpt>
      <trkpt lat="45.41113" lon="6.18851">
        <ele>1976.8000488281</ele>
        <time>2023-08-08T16:16:36.000Z</time>
      </trkpt>
      <trkpt lat="45.41113" lon="6.18849">
        <ele>1977.1999511719</ele>
        <time>2023-08-08T16:16:38.000Z</time>
      </trkpt>
      <trkpt lat="45.41113" lon="6.18844">
        <ele>1978.1999511719</ele>
        <time>2023-08-08T16:16:44.000Z</time>
      </trkpt>
      <trkpt lat="45.41113" lon="6.18843">
        <ele>1978.4000244141</ele>
        <time>2023-08-08T16:16:45.000Z</time>
      </trkpt>
      <trkpt lat="45.41112" lon="6.18838">
        <ele>1979.4000244141</ele>
        <time>2023-08-08T16:16:50.000Z</time>
      </trkpt>
      <trkpt lat="45.4111" lon="6.18835">
        <ele>1980</ele>
        <time>2023-08-08T16:16:53.000Z</time>
      </trkpt>
      <trkpt lat="45.41108" lon="6.18834">
        <ele>1980.4000244141</ele>
        <time>2023-08-08T16:16:57.000Z</time>
      </trkpt>
      <trkpt lat="45.41106" lon="6.18832">
        <ele>1980.5999755859</ele>
        <time>2023-08-08T16:17:01.000Z</time>
      </trkpt>
      <trkpt lat="45.41104" lon="6.18832">
        <ele>1981.1999511719</ele>
        <time>2023-08-08T16:17:09.000Z</time>
      </trkpt>
      <trkpt lat="45.41104" lon="6.18832">
        <ele>1981.1999511719</ele>
        <time>2023-08-08T16:17:17.000Z</time>
      </trkpt>
      <trkpt lat="45.41103" lon="6.18834">
        <ele>1981</ele>
        <time>2023-08-08T16:17:27.000Z</time>
      </trkpt>
      <trkpt lat="45.41103" lon="6.18832">
        <ele>1981.1999511719</ele>
        <time>2023-08-08T16:17:34.000Z</time>
      </trkpt>
      <trkpt lat="45.41104" lon="6.18832">
        <ele>1981.1999511719</ele>
        <time>2023-08-08T16:17:41.000Z</time>
      </trkpt>
      <trkpt lat="45.41104" lon="6.18834">
        <ele>1981.1999511719</ele>
        <time>2023-08-08T16:17:50.000Z</time>
      </trkpt>
      <trkpt lat="45.41102" lon="6.18833">
        <ele>1981.4000244141</ele>
        <time>2023-08-08T16:17:57.000Z</time>
      </trkpt>
      <trkpt lat="45.41098" lon="6.18829">
        <ele>1981.5999755859</ele>
        <time>2023-08-08T16:18:02.000Z</time>
      </trkpt>
      <trkpt lat="45.41099" lon="6.18828">
        <ele>1982</ele>
        <time>2023-08-08T16:18:03.000Z</time>
      </trkpt>
      <trkpt lat="45.41096" lon="6.18823">
        <ele>1982.5999755859</ele>
        <time>2023-08-08T16:18:07.000Z</time>
      </trkpt>
      <trkpt lat="45.41094" lon="6.1882">
        <ele>1983</ele>
        <time>2023-08-08T16:18:09.000Z</time>
      </trkpt>
      <trkpt lat="45.41093" lon="6.18817">
        <ele>1983.8000488281</ele>
        <time>2023-08-08T16:18:13.000Z</time>
      </trkpt>
      <trkpt lat="45.41091" lon="6.18814">
        <ele>1983.8000488281</ele>
        <time>2023-08-08T16:18:15.000Z</time>
      </trkpt>
      <trkpt lat="45.41085" lon="6.18808">
        <ele>1983.8000488281</ele>
        <time>2023-08-08T16:18:22.000Z</time>
      </trkpt>
      <trkpt lat="45.41082" lon="6.18799">
        <ele>1984.5999755859</ele>
        <time>2023-08-08T16:18:30.000Z</time>
      </trkpt>
      <trkpt lat="45.4108" lon="6.18795">
        <ele>1984.8000488281</ele>
        <time>2023-08-08T16:18:33.000Z</time>
      </trkpt>
      <trkpt lat="45.41077" lon="6.18791">
        <ele>1985.1999511719</ele>
        <time>2023-08-08T16:18:38.000Z</time>
      </trkpt>
      <trkpt lat="45.41075" lon="6.1879">
        <ele>1985.8000488281</ele>
        <time>2023-08-08T16:18:43.000Z</time>
      </trkpt>
      <trkpt lat="45.41072" lon="6.18789">
        <ele>1986</ele>
        <time>2023-08-08T16:18:46.000Z</time>
      </trkpt>
      <trkpt lat="45.41066" lon="6.18788">
        <ele>1984.8000488281</ele>
        <time>2023-08-08T16:18:53.000Z</time>
      </trkpt>
      <trkpt lat="45.41061" lon="6.18789">
        <ele>1983.4000244141</ele>
        <time>2023-08-08T16:18:57.000Z</time>
      </trkpt>
      <trkpt lat="45.41055" lon="6.18792">
        <ele>1983.1999511719</ele>
        <time>2023-08-08T16:19:02.000Z</time>
      </trkpt>
      <trkpt lat="45.41053" lon="6.18793">
        <ele>1983.4000244141</ele>
        <time>2023-08-08T16:19:08.000Z</time>
      </trkpt>
      <trkpt lat="45.41055" lon="6.18795">
        <ele>1983</ele>
        <time>2023-08-08T16:19:17.000Z</time>
      </trkpt>
      <trkpt lat="45.41054" lon="6.18796">
        <ele>1983</ele>
        <time>2023-08-08T16:19:27.000Z</time>
      </trkpt>
      <trkpt lat="45.41052" lon="6.18794">
        <ele>1983.4000244141</ele>
        <time>2023-08-08T16:19:35.000Z</time>
      </trkpt>
      <trkpt lat="45.41046" lon="6.18796">
        <ele>1983.1999511719</ele>
        <time>2023-08-08T16:19:44.000Z</time>
      </trkpt>
      <trkpt lat="45.41042" lon="6.18799">
        <ele>1982.4000244141</ele>
        <time>2023-08-08T16:19:51.000Z</time>
      </trkpt>
      <trkpt lat="45.41041" lon="6.18799">
        <ele>1982.1999511719</ele>
        <time>2023-08-08T16:19:54.000Z</time>
      </trkpt>
      <trkpt lat="45.41036" lon="6.18801">
        <ele>1982.4000244141</ele>
        <time>2023-08-08T16:20:02.000Z</time>
      </trkpt>
      <trkpt lat="45.41029" lon="6.188">
        <ele>1981.4000244141</ele>
        <time>2023-08-08T16:20:07.000Z</time>
      </trkpt>
      <trkpt lat="45.41028" lon="6.18799">
        <ele>1981.1999511719</ele>
        <time>2023-08-08T16:20:08.000Z</time>
      </trkpt>
      <trkpt lat="45.41024" lon="6.18797">
        <ele>1980.5999755859</ele>
        <time>2023-08-08T16:20:14.000Z</time>
      </trkpt>
      <trkpt lat="45.41023" lon="6.18796">
        <ele>1980.4000244141</ele>
        <time>2023-08-08T16:20:22.000Z</time>
      </trkpt>
      <trkpt lat="45.41023" lon="6.18798">
        <ele>1980.1999511719</ele>
        <time>2023-08-08T16:20:30.000Z</time>
      </trkpt>
      <trkpt lat="45.41023" lon="6.18799">
        <ele>1980.1999511719</ele>
        <time>2023-08-08T16:20:31.000Z</time>
      </trkpt>
      <trkpt lat="45.41023" lon="6.18797">
        <ele>1980.1999511719</ele>
        <time>2023-08-08T16:20:37.000Z</time>
      </trkpt>
      <trkpt lat="45.41022" lon="6.18797">
        <ele>1980</ele>
        <time>2023-08-08T16:20:44.000Z</time>
      </trkpt>
      <trkpt lat="45.41017" lon="6.18796">
        <ele>1979</ele>
        <time>2023-08-08T16:20:50.000Z</time>
      </trkpt>
      <trkpt lat="45.41016" lon="6.18797">
        <ele>1978.8000488281</ele>
        <time>2023-08-08T16:20:51.000Z</time>
      </trkpt>
      <trkpt lat="45.41009" lon="6.18799">
        <ele>1977.8000488281</ele>
        <time>2023-08-08T16:20:58.000Z</time>
      </trkpt>
      <trkpt lat="45.41007" lon="6.18798">
        <ele>1977.4000244141</ele>
        <time>2023-08-08T16:21:00.000Z</time>
      </trkpt>
      <trkpt lat="45.41005" lon="6.18799">
        <ele>1976.8000488281</ele>
        <time>2023-08-08T16:21:04.000Z</time>
      </trkpt>
      <trkpt lat="45.41001" lon="6.188">
        <ele>1976</ele>
        <time>2023-08-08T16:21:08.000Z</time>
      </trkpt>
      <trkpt lat="45.40997" lon="6.188">
        <ele>1975.8000488281</ele>
        <time>2023-08-08T16:21:12.000Z</time>
      </trkpt>
      <trkpt lat="45.40997" lon="6.188">
        <ele>1975.4000244141</ele>
        <time>2023-08-08T16:21:14.000Z</time>
      </trkpt>
      <trkpt lat="45.40995" lon="6.18801">
        <ele>1974.8000488281</ele>
        <time>2023-08-08T16:21:19.000Z</time>
      </trkpt>
      <trkpt lat="45.40994" lon="6.18801">
        <ele>1974.8000488281</ele>
        <time>2023-08-08T16:21:20.000Z</time>
      </trkpt>
      <trkpt lat="45.40988" lon="6.18802">
        <ele>1973.8000488281</ele>
        <time>2023-08-08T16:21:26.000Z</time>
      </trkpt>
      <trkpt lat="45.40986" lon="6.18802">
        <ele>1973.5999755859</ele>
        <time>2023-08-08T16:21:28.000Z</time>
      </trkpt>
      <trkpt lat="45.40977" lon="6.18802">
        <ele>1972.8000488281</ele>
        <time>2023-08-08T16:21:35.000Z</time>
      </trkpt>
      <trkpt lat="45.40975" lon="6.18803">
        <ele>1972.5999755859</ele>
        <time>2023-08-08T16:21:39.000Z</time>
      </trkpt>
      <trkpt lat="45.40974" lon="6.18802">
        <ele>1972</ele>
        <time>2023-08-08T16:21:43.000Z</time>
      </trkpt>
      <trkpt lat="45.40971" lon="6.18803">
        <ele>1971.5999755859</ele>
        <time>2023-08-08T16:21:46.000Z</time>
      </trkpt>
      <trkpt lat="45.40967" lon="6.18804">
        <ele>1970.4000244141</ele>
        <time>2023-08-08T16:21:50.000Z</time>
      </trkpt>
      <trkpt lat="45.40966" lon="6.18804">
        <ele>1970.1999511719</ele>
        <time>2023-08-08T16:21:51.000Z</time>
      </trkpt>
      <trkpt lat="45.40956" lon="6.18812">
        <ele>1969.5999755859</ele>
        <time>2023-08-08T16:21:58.000Z</time>
      </trkpt>
      <trkpt lat="45.40952" lon="6.18814">
        <ele>1969.4000244141</ele>
        <time>2023-08-08T16:22:01.000Z</time>
      </trkpt>
      <trkpt lat="45.40945" lon="6.18817">
        <ele>1969.5999755859</ele>
        <time>2023-08-08T16:22:06.000Z</time>
      </trkpt>
      <trkpt lat="45.40939" lon="6.18825">
        <ele>1969.4000244141</ele>
        <time>2023-08-08T16:22:13.000Z</time>
      </trkpt>
      <trkpt lat="45.40931" lon="6.1883">
        <ele>1968.4000244141</ele>
        <time>2023-08-08T16:22:20.000Z</time>
      </trkpt>
      <trkpt lat="45.4093" lon="6.1883">
        <ele>1968.1999511719</ele>
        <time>2023-08-08T16:22:21.000Z</time>
      </trkpt>
      <trkpt lat="45.40926" lon="6.18832">
        <ele>1967.4000244141</ele>
        <time>2023-08-08T16:22:27.000Z</time>
      </trkpt>
      <trkpt lat="45.40925" lon="6.18832">
        <ele>1967</ele>
        <time>2023-08-08T16:22:28.000Z</time>
      </trkpt>
      <trkpt lat="45.40921" lon="6.18832">
        <ele>1966.1999511719</ele>
        <time>2023-08-08T16:22:32.000Z</time>
      </trkpt>
      <trkpt lat="45.40917" lon="6.18829">
        <ele>1965</ele>
        <time>2023-08-08T16:22:36.000Z</time>
      </trkpt>
      <trkpt lat="45.40917" lon="6.18827">
        <ele>1964.8000488281</ele>
        <time>2023-08-08T16:22:37.000Z</time>
      </trkpt>
      <trkpt lat="45.40914" lon="6.18821">
        <ele>1963.8000488281</ele>
        <time>2023-08-08T16:22:43.000Z</time>
      </trkpt>
      <trkpt lat="45.40915" lon="6.18817">
        <ele>1963</ele>
        <time>2023-08-08T16:22:46.000Z</time>
      </trkpt>
      <trkpt lat="45.40915" lon="6.18816">
        <ele>1962.5999755859</ele>
        <time>2023-08-08T16:22:47.000Z</time>
      </trkpt>
      <trkpt lat="45.40916" lon="6.18811">
        <ele>1961.5999755859</ele>
        <time>2023-08-08T16:22:52.000Z</time>
      </trkpt>
      <trkpt lat="45.40916" lon="6.1881">
        <ele>1961.1999511719</ele>
        <time>2023-08-08T16:22:54.000Z</time>
      </trkpt>
      <trkpt lat="45.40916" lon="6.18808">
        <ele>1960.4000244141</ele>
        <time>2023-08-08T16:22:56.000Z</time>
      </trkpt>
      <trkpt lat="45.40914" lon="6.18806">
        <ele>1959.4000244141</ele>
        <time>2023-08-08T16:23:02.000Z</time>
      </trkpt>
      <trkpt lat="45.40914" lon="6.18805">
        <ele>1958.8000488281</ele>
        <time>2023-08-08T16:23:03.000Z</time>
      </trkpt>
      <trkpt lat="45.40913" lon="6.18803">
        <ele>1958.1999511719</ele>
        <time>2023-08-08T16:23:06.000Z</time>
      </trkpt>
      <trkpt lat="45.40913" lon="6.18802">
        <ele>1957.1999511719</ele>
        <time>2023-08-08T16:23:09.000Z</time>
      </trkpt>
      <trkpt lat="45.40914" lon="6.18801">
        <ele>1956.5999755859</ele>
        <time>2023-08-08T16:23:12.000Z</time>
      </trkpt>
      <trkpt lat="45.40914" lon="6.18798">
        <ele>1956</ele>
        <time>2023-08-08T16:23:16.000Z</time>
      </trkpt>
      <trkpt lat="45.40912" lon="6.18796">
        <ele>1955.4000244141</ele>
        <time>2023-08-08T16:23:21.000Z</time>
      </trkpt>
      <trkpt lat="45.40911" lon="6.18794">
        <ele>1954.8000488281</ele>
        <time>2023-08-08T16:23:24.000Z</time>
      </trkpt>
      <trkpt lat="45.4091" lon="6.18793">
        <ele>1953.8000488281</ele>
        <time>2023-08-08T16:23:27.000Z</time>
      </trkpt>
      <trkpt lat="45.4091" lon="6.18791">
        <ele>1953</ele>
        <time>2023-08-08T16:23:30.000Z</time>
      </trkpt>
      <trkpt lat="45.4091" lon="6.1879">
        <ele>1952.8000488281</ele>
        <time>2023-08-08T16:23:31.000Z</time>
      </trkpt>
      <trkpt lat="45.4091" lon="6.18786">
        <ele>1951.5999755859</ele>
        <time>2023-08-08T16:23:37.000Z</time>
      </trkpt>
      <trkpt lat="45.4091" lon="6.18784">
        <ele>1951.1999511719</ele>
        <time>2023-08-08T16:23:39.000Z</time>
      </trkpt>
      <trkpt lat="45.40909" lon="6.18783">
        <ele>1950.4000244141</ele>
        <time>2023-08-08T16:23:42.000Z</time>
      </trkpt>
      <trkpt lat="45.40907" lon="6.18779">
        <ele>1949.4000244141</ele>
        <time>2023-08-08T16:23:46.000Z</time>
      </trkpt>
      <trkpt lat="45.40906" lon="6.18779">
        <ele>1948.8000488281</ele>
        <time>2023-08-08T16:23:48.000Z</time>
      </trkpt>
      <trkpt lat="45.40905" lon="6.18779">
        <ele>1948.1999511719</ele>
        <time>2023-08-08T16:23:50.000Z</time>
      </trkpt>
      <trkpt lat="45.40903" lon="6.18777">
        <ele>1947.1999511719</ele>
        <time>2023-08-08T16:23:54.000Z</time>
      </trkpt>
      <trkpt lat="45.40902" lon="6.18776">
        <ele>1946.8000488281</ele>
        <time>2023-08-08T16:23:56.000Z</time>
      </trkpt>
      <trkpt lat="45.40903" lon="6.18774">
        <ele>1946</ele>
        <time>2023-08-08T16:23:59.000Z</time>
      </trkpt>
      <trkpt lat="45.40906" lon="6.18772">
        <ele>1945</ele>
        <time>2023-08-08T16:24:04.000Z</time>
      </trkpt>
      <trkpt lat="45.40905" lon="6.18772">
        <ele>1944.5999755859</ele>
        <time>2023-08-08T16:24:06.000Z</time>
      </trkpt>
      <trkpt lat="45.40905" lon="6.18771">
        <ele>1944.1999511719</ele>
        <time>2023-08-08T16:24:09.000Z</time>
      </trkpt>
      <trkpt lat="45.40904" lon="6.18771">
        <ele>1944</ele>
        <time>2023-08-08T16:24:10.000Z</time>
      </trkpt>
      <trkpt lat="45.40904" lon="6.18771">
        <ele>1943.8000488281</ele>
        <time>2023-08-08T16:24:11.000Z</time>
      </trkpt>
      <trkpt lat="45.40904" lon="6.18769">
        <ele>1942.5999755859</ele>
        <time>2023-08-08T16:24:15.000Z</time>
      </trkpt>
      <trkpt lat="45.40904" lon="6.18768">
        <ele>1942</ele>
        <time>2023-08-08T16:24:18.000Z</time>
      </trkpt>
      <trkpt lat="45.40904" lon="6.18767">
        <ele>1941.4000244141</ele>
        <time>2023-08-08T16:24:21.000Z</time>
      </trkpt>
      <trkpt lat="45.40905" lon="6.18764">
        <ele>1940.4000244141</ele>
        <time>2023-08-08T16:24:26.000Z</time>
      </trkpt>
      <trkpt lat="45.40904" lon="6.18761">
        <ele>1940.1999511719</ele>
        <time>2023-08-08T16:24:28.000Z</time>
      </trkpt>
      <trkpt lat="45.40903" lon="6.18758">
        <ele>1939</ele>
        <time>2023-08-08T16:24:33.000Z</time>
      </trkpt>
      <trkpt lat="45.40902" lon="6.18755">
        <ele>1938</ele>
        <time>2023-08-08T16:24:38.000Z</time>
      </trkpt>
      <trkpt lat="45.40902" lon="6.18755">
        <ele>1937.8000488281</ele>
        <time>2023-08-08T16:24:41.000Z</time>
      </trkpt>
      <trkpt lat="45.40901" lon="6.18754">
        <ele>1937</ele>
        <time>2023-08-08T16:24:47.000Z</time>
      </trkpt>
      <trkpt lat="45.40901" lon="6.18754">
        <ele>1936.8000488281</ele>
        <time>2023-08-08T16:24:48.000Z</time>
      </trkpt>
      <trkpt lat="45.409" lon="6.18751">
        <ele>1935.5999755859</ele>
        <time>2023-08-08T16:24:53.000Z</time>
      </trkpt>
      <trkpt lat="45.40899" lon="6.18749">
        <ele>1935.1999511719</ele>
        <time>2023-08-08T16:24:56.000Z</time>
      </trkpt>
      <trkpt lat="45.40898" lon="6.18748">
        <ele>1934.5999755859</ele>
        <time>2023-08-08T16:24:59.000Z</time>
      </trkpt>
      <trkpt lat="45.409" lon="6.18746">
        <ele>1933.4000244141</ele>
        <time>2023-08-08T16:25:04.000Z</time>
      </trkpt>
      <trkpt lat="45.40899" lon="6.1874">
        <ele>1932.4000244141</ele>
        <time>2023-08-08T16:25:10.000Z</time>
      </trkpt>
      <trkpt lat="45.40899" lon="6.18739">
        <ele>1932</ele>
        <time>2023-08-08T16:25:12.000Z</time>
      </trkpt>
      <trkpt lat="45.40898" lon="6.18736">
        <ele>1931.1999511719</ele>
        <time>2023-08-08T16:25:16.000Z</time>
      </trkpt>
      <trkpt lat="45.40898" lon="6.18733">
        <ele>1930</ele>
        <time>2023-08-08T16:25:19.000Z</time>
      </trkpt>
      <trkpt lat="45.40898" lon="6.18732">
        <ele>1930</ele>
        <time>2023-08-08T16:25:20.000Z</time>
      </trkpt>
      <trkpt lat="45.40898" lon="6.18728">
        <ele>1928.8000488281</ele>
        <time>2023-08-08T16:25:24.000Z</time>
      </trkpt>
      <trkpt lat="45.40898" lon="6.18722">
        <ele>1927.8000488281</ele>
        <time>2023-08-08T16:25:31.000Z</time>
      </trkpt>
      <trkpt lat="45.40896" lon="6.18719">
        <ele>1926.5999755859</ele>
        <time>2023-08-08T16:25:36.000Z</time>
      </trkpt>
      <trkpt lat="45.40895" lon="6.18716">
        <ele>1925.4000244141</ele>
        <time>2023-08-08T16:25:40.000Z</time>
      </trkpt>
      <trkpt lat="45.40892" lon="6.18711">
        <ele>1924.1999511719</ele>
        <time>2023-08-08T16:25:45.000Z</time>
      </trkpt>
      <trkpt lat="45.40891" lon="6.18707">
        <ele>1923.4000244141</ele>
        <time>2023-08-08T16:25:49.000Z</time>
      </trkpt>
      <trkpt lat="45.40891" lon="6.18707">
        <ele>1923.1999511719</ele>
        <time>2023-08-08T16:25:50.000Z</time>
      </trkpt>
      <trkpt lat="45.40888" lon="6.18703">
        <ele>1922</ele>
        <time>2023-08-08T16:25:55.000Z</time>
      </trkpt>
      <trkpt lat="45.40885" lon="6.18701">
        <ele>1920.8000488281</ele>
        <time>2023-08-08T16:26:01.000Z</time>
      </trkpt>
      <trkpt lat="45.40883" lon="6.18699">
        <ele>1920.1999511719</ele>
        <time>2023-08-08T16:26:03.000Z</time>
      </trkpt>
      <trkpt lat="45.40883" lon="6.18699">
        <ele>1919.8000488281</ele>
        <time>2023-08-08T16:26:05.000Z</time>
      </trkpt>
      <trkpt lat="45.40883" lon="6.18697">
        <ele>1918.8000488281</ele>
        <time>2023-08-08T16:26:09.000Z</time>
      </trkpt>
      <trkpt lat="45.40883" lon="6.18697">
        <ele>1918.5999755859</ele>
        <time>2023-08-08T16:26:10.000Z</time>
      </trkpt>
      <trkpt lat="45.40878" lon="6.18698">
        <ele>1918</ele>
        <time>2023-08-08T16:26:18.000Z</time>
      </trkpt>
      <trkpt lat="45.40877" lon="6.18698">
        <ele>1917.5999755859</ele>
        <time>2023-08-08T16:26:19.000Z</time>
      </trkpt>
      <trkpt lat="45.40875" lon="6.18697">
        <ele>1916.5999755859</ele>
        <time>2023-08-08T16:26:23.000Z</time>
      </trkpt>
      <trkpt lat="45.40875" lon="6.18697">
        <ele>1916.1999511719</ele>
        <time>2023-08-08T16:26:25.000Z</time>
      </trkpt>
      <trkpt lat="45.40875" lon="6.18698">
        <ele>1915.8000488281</ele>
        <time>2023-08-08T16:26:36.000Z</time>
      </trkpt>
      <trkpt lat="45.40878" lon="6.18695">
        <ele>1915.8000488281</ele>
        <time>2023-08-08T16:26:43.000Z</time>
      </trkpt>
      <trkpt lat="45.40878" lon="6.18694">
        <ele>1915.5999755859</ele>
        <time>2023-08-08T16:26:44.000Z</time>
      </trkpt>
      <trkpt lat="45.40876" lon="6.18688">
        <ele>1914.1999511719</ele>
        <time>2023-08-08T16:26:49.000Z</time>
      </trkpt>
      <trkpt lat="45.40876" lon="6.18688">
        <ele>1913.8000488281</ele>
        <time>2023-08-08T16:26:50.000Z</time>
      </trkpt>
      <trkpt lat="45.40874" lon="6.18687">
        <ele>1913.1999511719</ele>
        <time>2023-08-08T16:26:54.000Z</time>
      </trkpt>
      <trkpt lat="45.40874" lon="6.1869">
        <ele>1913</ele>
        <time>2023-08-08T16:26:57.000Z</time>
      </trkpt>
      <trkpt lat="45.40871" lon="6.18694">
        <ele>1912.1999511719</ele>
        <time>2023-08-08T16:27:03.000Z</time>
      </trkpt>
      <trkpt lat="45.4087" lon="6.18693">
        <ele>1911.5999755859</ele>
        <time>2023-08-08T16:27:05.000Z</time>
      </trkpt>
      <trkpt lat="45.40869" lon="6.18691">
        <ele>1911</ele>
        <time>2023-08-08T16:27:08.000Z</time>
      </trkpt>
      <trkpt lat="45.40868" lon="6.18688">
        <ele>1909.8000488281</ele>
        <time>2023-08-08T16:27:12.000Z</time>
      </trkpt>
      <trkpt lat="45.40866" lon="6.18683">
        <ele>1908.8000488281</ele>
        <time>2023-08-08T16:27:18.000Z</time>
      </trkpt>
      <trkpt lat="45.40866" lon="6.18681">
        <ele>1908</ele>
        <time>2023-08-08T16:27:20.000Z</time>
      </trkpt>
      <trkpt lat="45.40865" lon="6.18681">
        <ele>1907.5999755859</ele>
        <time>2023-08-08T16:27:21.000Z</time>
      </trkpt>
      <trkpt lat="45.40865" lon="6.18677">
        <ele>1906.5999755859</ele>
        <time>2023-08-08T16:27:25.000Z</time>
      </trkpt>
      <trkpt lat="45.40865" lon="6.18674">
        <ele>1905.4000244141</ele>
        <time>2023-08-08T16:27:30.000Z</time>
      </trkpt>
      <trkpt lat="45.40863" lon="6.18669">
        <ele>1904.4000244141</ele>
        <time>2023-08-08T16:27:35.000Z</time>
      </trkpt>
      <trkpt lat="45.40862" lon="6.18664">
        <ele>1903.1999511719</ele>
        <time>2023-08-08T16:27:39.000Z</time>
      </trkpt>
      <trkpt lat="45.40862" lon="6.18662">
        <ele>1902.4000244141</ele>
        <time>2023-08-08T16:27:41.000Z</time>
      </trkpt>
      <trkpt lat="45.40862" lon="6.18661">
        <ele>1902.1999511719</ele>
        <time>2023-08-08T16:27:42.000Z</time>
      </trkpt>
      <trkpt lat="45.40862" lon="6.18657">
        <ele>1901.1999511719</ele>
        <time>2023-08-08T16:27:46.000Z</time>
      </trkpt>
      <trkpt lat="45.40859" lon="6.18654">
        <ele>1900</ele>
        <time>2023-08-08T16:27:50.000Z</time>
      </trkpt>
      <trkpt lat="45.40859" lon="6.18655">
        <ele>1899</ele>
        <time>2023-08-08T16:27:54.000Z</time>
      </trkpt>
      <trkpt lat="45.40859" lon="6.18655">
        <ele>1898.8000488281</ele>
        <time>2023-08-08T16:27:55.000Z</time>
      </trkpt>
      <trkpt lat="45.40859" lon="6.18655">
        <ele>1898.5999755859</ele>
        <time>2023-08-08T16:27:58.000Z</time>
      </trkpt>
      <trkpt lat="45.40859" lon="6.18659">
        <ele>1898.4000244141</ele>
        <time>2023-08-08T16:28:06.000Z</time>
      </trkpt>
      <trkpt lat="45.40859" lon="6.18659">
        <ele>1898.1999511719</ele>
        <time>2023-08-08T16:28:12.000Z</time>
      </trkpt>
      <trkpt lat="45.40857" lon="6.18657">
        <ele>1898.1999511719</ele>
        <time>2023-08-08T16:28:20.000Z</time>
      </trkpt>
      <trkpt lat="45.40855" lon="6.18655">
        <ele>1897.8000488281</ele>
        <time>2023-08-08T16:28:23.000Z</time>
      </trkpt>
      <trkpt lat="45.40852" lon="6.18652">
        <ele>1896.5999755859</ele>
        <time>2023-08-08T16:28:27.000Z</time>
      </trkpt>
      <trkpt lat="45.40852" lon="6.18651">
        <ele>1895.4000244141</ele>
        <time>2023-08-08T16:28:31.000Z</time>
      </trkpt>
      <trkpt lat="45.40852" lon="6.18649">
        <ele>1894.4000244141</ele>
        <time>2023-08-08T16:28:34.000Z</time>
      </trkpt>
      <trkpt lat="45.40852" lon="6.18648">
        <ele>1894.1999511719</ele>
        <time>2023-08-08T16:28:35.000Z</time>
      </trkpt>
      <trkpt lat="45.40852" lon="6.18644">
        <ele>1893.4000244141</ele>
        <time>2023-08-08T16:28:38.000Z</time>
      </trkpt>
      <trkpt lat="45.40852" lon="6.18636">
        <ele>1892.4000244141</ele>
        <time>2023-08-08T16:28:42.000Z</time>
      </trkpt>
      <trkpt lat="45.4085" lon="6.18635">
        <ele>1892</ele>
        <time>2023-08-08T16:28:44.000Z</time>
      </trkpt>
      <trkpt lat="45.40848" lon="6.18634">
        <ele>1891.1999511719</ele>
        <time>2023-08-08T16:28:49.000Z</time>
      </trkpt>
      <trkpt lat="45.40848" lon="6.18635">
        <ele>1891</ele>
        <time>2023-08-08T16:28:50.000Z</time>
      </trkpt>
      <trkpt lat="45.40847" lon="6.18635">
        <ele>1890.5999755859</ele>
        <time>2023-08-08T16:28:51.000Z</time>
      </trkpt>
      <trkpt lat="45.40846" lon="6.18636">
        <ele>1890</ele>
        <time>2023-08-08T16:28:53.000Z</time>
      </trkpt>
      <trkpt lat="45.40843" lon="6.18634">
        <ele>1889</ele>
        <time>2023-08-08T16:28:58.000Z</time>
      </trkpt>
      <trkpt lat="45.40841" lon="6.18634">
        <ele>1888.8000488281</ele>
        <time>2023-08-08T16:28:59.000Z</time>
      </trkpt>
      <trkpt lat="45.40836" lon="6.1863">
        <ele>1887.5999755859</ele>
        <time>2023-08-08T16:29:04.000Z</time>
      </trkpt>
      <trkpt lat="45.40835" lon="6.18631">
        <ele>1887.1999511719</ele>
        <time>2023-08-08T16:29:05.000Z</time>
      </trkpt>
      <trkpt lat="45.40834" lon="6.1863">
        <ele>1887</ele>
        <time>2023-08-08T16:29:06.000Z</time>
      </trkpt>
      <trkpt lat="45.40833" lon="6.18631">
        <ele>1886.4000244141</ele>
        <time>2023-08-08T16:29:08.000Z</time>
      </trkpt>
      <trkpt lat="45.4083" lon="6.18631">
        <ele>1885.4000244141</ele>
        <time>2023-08-08T16:29:12.000Z</time>
      </trkpt>
      <trkpt lat="45.4083" lon="6.18631">
        <ele>1884.4000244141</ele>
        <time>2023-08-08T16:29:15.000Z</time>
      </trkpt>
      <trkpt lat="45.4083" lon="6.18631">
        <ele>1884</ele>
        <time>2023-08-08T16:29:16.000Z</time>
      </trkpt>
      <trkpt lat="45.40827" lon="6.1863">
        <ele>1883</ele>
        <time>2023-08-08T16:29:20.000Z</time>
      </trkpt>
      <trkpt lat="45.40826" lon="6.18628">
        <ele>1882.1999511719</ele>
        <time>2023-08-08T16:29:23.000Z</time>
      </trkpt>
      <trkpt lat="45.40825" lon="6.18627">
        <ele>1881.8000488281</ele>
        <time>2023-08-08T16:29:25.000Z</time>
      </trkpt>
      <trkpt lat="45.40824" lon="6.18625">
        <ele>1880.4000244141</ele>
        <time>2023-08-08T16:29:30.000Z</time>
      </trkpt>
      <trkpt lat="45.40824" lon="6.18625">
        <ele>1880.1999511719</ele>
        <time>2023-08-08T16:29:31.000Z</time>
      </trkpt>
      <trkpt lat="45.40823" lon="6.18624">
        <ele>1879.4000244141</ele>
        <time>2023-08-08T16:29:33.000Z</time>
      </trkpt>
      <trkpt lat="45.40824" lon="6.1862">
        <ele>1878.4000244141</ele>
        <time>2023-08-08T16:29:37.000Z</time>
      </trkpt>
      <trkpt lat="45.40824" lon="6.1862">
        <ele>1878</ele>
        <time>2023-08-08T16:29:39.000Z</time>
      </trkpt>
      <trkpt lat="45.40825" lon="6.18618">
        <ele>1877.4000244141</ele>
        <time>2023-08-08T16:29:46.000Z</time>
      </trkpt>
      <trkpt lat="45.40825" lon="6.18617">
        <ele>1877.1999511719</ele>
        <time>2023-08-08T16:29:47.000Z</time>
      </trkpt>
      <trkpt lat="45.40825" lon="6.18616">
        <ele>1876.1999511719</ele>
        <time>2023-08-08T16:29:51.000Z</time>
      </trkpt>
      <trkpt lat="45.40825" lon="6.18616">
        <ele>1876</ele>
        <time>2023-08-08T16:29:53.000Z</time>
      </trkpt>
      <trkpt lat="45.40824" lon="6.18615">
        <ele>1875.8000488281</ele>
        <time>2023-08-08T16:30:03.000Z</time>
      </trkpt>
      <trkpt lat="45.40825" lon="6.18616">
        <ele>1875.8000488281</ele>
        <time>2023-08-08T16:30:10.000Z</time>
      </trkpt>
      <trkpt lat="45.40825" lon="6.18617">
        <ele>1875.8000488281</ele>
        <time>2023-08-08T16:30:18.000Z</time>
      </trkpt>
      <trkpt lat="45.40828" lon="6.18612">
        <ele>1875</ele>
        <time>2023-08-08T16:30:25.000Z</time>
      </trkpt>
      <trkpt lat="45.40827" lon="6.18608">
        <ele>1873.8000488281</ele>
        <time>2023-08-08T16:30:29.000Z</time>
      </trkpt>
      <trkpt lat="45.40826" lon="6.18607">
        <ele>1873</ele>
        <time>2023-08-08T16:30:33.000Z</time>
      </trkpt>
      <trkpt lat="45.40826" lon="6.18607">
        <ele>1872.8000488281</ele>
        <time>2023-08-08T16:30:34.000Z</time>
      </trkpt>
      <trkpt lat="45.40824" lon="6.18605">
        <ele>1871.5999755859</ele>
        <time>2023-08-08T16:30:40.000Z</time>
      </trkpt>
      <trkpt lat="45.40823" lon="6.18605">
        <ele>1871.4000244141</ele>
        <time>2023-08-08T16:30:41.000Z</time>
      </trkpt>
      <trkpt lat="45.40824" lon="6.18602">
        <ele>1870.5999755859</ele>
        <time>2023-08-08T16:30:45.000Z</time>
      </trkpt>
      <trkpt lat="45.40825" lon="6.18598">
        <ele>1870.1999511719</ele>
        <time>2023-08-08T16:30:47.000Z</time>
      </trkpt>
      <trkpt lat="45.40826" lon="6.1859">
        <ele>1869.4000244141</ele>
        <time>2023-08-08T16:30:52.000Z</time>
      </trkpt>
      <trkpt lat="45.40825" lon="6.18584">
        <ele>1868.5999755859</ele>
        <time>2023-08-08T16:30:55.000Z</time>
      </trkpt>
      <trkpt lat="45.40825" lon="6.18583">
        <ele>1868.4000244141</ele>
        <time>2023-08-08T16:30:56.000Z</time>
      </trkpt>
      <trkpt lat="45.40822" lon="6.18582">
        <ele>1867.4000244141</ele>
        <time>2023-08-08T16:31:02.000Z</time>
      </trkpt>
      <trkpt lat="45.40821" lon="6.18583">
        <ele>1866.5999755859</ele>
        <time>2023-08-08T16:31:06.000Z</time>
      </trkpt>
      <trkpt lat="45.4082" lon="6.18584">
        <ele>1866.1999511719</ele>
        <time>2023-08-08T16:31:08.000Z</time>
      </trkpt>
      <trkpt lat="45.40819" lon="6.18584">
        <ele>1865.8000488281</ele>
        <time>2023-08-08T16:31:10.000Z</time>
      </trkpt>
      <trkpt lat="45.40817" lon="6.18585">
        <ele>1865.1999511719</ele>
        <time>2023-08-08T16:31:13.000Z</time>
      </trkpt>
      <trkpt lat="45.40817" lon="6.18585">
        <ele>1864.8000488281</ele>
        <time>2023-08-08T16:31:15.000Z</time>
      </trkpt>
      <trkpt lat="45.40813" lon="6.18587">
        <ele>1863.8000488281</ele>
        <time>2023-08-08T16:31:19.000Z</time>
      </trkpt>
      <trkpt lat="45.40811" lon="6.18589">
        <ele>1863.1999511719</ele>
        <time>2023-08-08T16:31:21.000Z</time>
      </trkpt>
      <trkpt lat="45.4081" lon="6.18592">
        <ele>1862.8000488281</ele>
        <time>2023-08-08T16:31:23.000Z</time>
      </trkpt>
      <trkpt lat="45.40807" lon="6.18602">
        <ele>1861.5999755859</ele>
        <time>2023-08-08T16:31:29.000Z</time>
      </trkpt>
      <trkpt lat="45.40808" lon="6.18602">
        <ele>1860.5999755859</ele>
        <time>2023-08-08T16:31:37.000Z</time>
      </trkpt>
      <trkpt lat="45.40809" lon="6.18601">
        <ele>1860.4000244141</ele>
        <time>2023-08-08T16:31:38.000Z</time>
      </trkpt>
      <trkpt lat="45.40808" lon="6.18599">
        <ele>1859.4000244141</ele>
        <time>2023-08-08T16:31:42.000Z</time>
      </trkpt>
      <trkpt lat="45.40806" lon="6.18599">
        <ele>1858.4000244141</ele>
        <time>2023-08-08T16:31:46.000Z</time>
      </trkpt>
      <trkpt lat="45.40805" lon="6.18599">
        <ele>1858</ele>
        <time>2023-08-08T16:31:48.000Z</time>
      </trkpt>
      <trkpt lat="45.40802" lon="6.18598">
        <ele>1856.8000488281</ele>
        <time>2023-08-08T16:31:53.000Z</time>
      </trkpt>
      <trkpt lat="45.40801" lon="6.18598">
        <ele>1856.5999755859</ele>
        <time>2023-08-08T16:31:54.000Z</time>
      </trkpt>
      <trkpt lat="45.40799" lon="6.186">
        <ele>1855.8000488281</ele>
        <time>2023-08-08T16:31:58.000Z</time>
      </trkpt>
      <trkpt lat="45.40796" lon="6.186">
        <ele>1855</ele>
        <time>2023-08-08T16:32:01.000Z</time>
      </trkpt>
      <trkpt lat="45.40794" lon="6.186">
        <ele>1854.8000488281</ele>
        <time>2023-08-08T16:32:03.000Z</time>
      </trkpt>
      <trkpt lat="45.40788" lon="6.18601">
        <ele>1853.8000488281</ele>
        <time>2023-08-08T16:32:07.000Z</time>
      </trkpt>
      <trkpt lat="45.40787" lon="6.18601">
        <ele>1853.5999755859</ele>
        <time>2023-08-08T16:32:08.000Z</time>
      </trkpt>
      <trkpt lat="45.40783" lon="6.18605">
        <ele>1852.5999755859</ele>
        <time>2023-08-08T16:32:14.000Z</time>
      </trkpt>
      <trkpt lat="45.40784" lon="6.18605">
        <ele>1852.4000244141</ele>
        <time>2023-08-08T16:32:15.000Z</time>
      </trkpt>
      <trkpt lat="45.40786" lon="6.18603">
        <ele>1852.4000244141</ele>
        <time>2023-08-08T16:32:17.000Z</time>
      </trkpt>
      <trkpt lat="45.40788" lon="6.18606">
        <ele>1852.1999511719</ele>
        <time>2023-08-08T16:32:19.000Z</time>
      </trkpt>
      <trkpt lat="45.40788" lon="6.18607">
        <ele>1852.1999511719</ele>
        <time>2023-08-08T16:32:21.000Z</time>
      </trkpt>
      <trkpt lat="45.40786" lon="6.18606">
        <ele>1851.4000244141</ele>
        <time>2023-08-08T16:32:27.000Z</time>
      </trkpt>
      <trkpt lat="45.40786" lon="6.18606">
        <ele>1851.1999511719</ele>
        <time>2023-08-08T16:32:28.000Z</time>
      </trkpt>
      <trkpt lat="45.40783" lon="6.18601">
        <ele>1850.4000244141</ele>
        <time>2023-08-08T16:32:33.000Z</time>
      </trkpt>
      <trkpt lat="45.40783" lon="6.186">
        <ele>1850</ele>
        <time>2023-08-08T16:32:35.000Z</time>
      </trkpt>
      <trkpt lat="45.40782" lon="6.18598">
        <ele>1849.1999511719</ele>
        <time>2023-08-08T16:32:38.000Z</time>
      </trkpt>
      <trkpt lat="45.40781" lon="6.18594">
        <ele>1848.5999755859</ele>
        <time>2023-08-08T16:32:43.000Z</time>
      </trkpt>
      <trkpt lat="45.4078" lon="6.18592">
        <ele>1848.1999511719</ele>
        <time>2023-08-08T16:32:45.000Z</time>
      </trkpt>
      <trkpt lat="45.40778" lon="6.18587">
        <ele>1847</ele>
        <time>2023-08-08T16:32:50.000Z</time>
      </trkpt>
      <trkpt lat="45.40778" lon="6.18586">
        <ele>1846.8000488281</ele>
        <time>2023-08-08T16:32:51.000Z</time>
      </trkpt>
      <trkpt lat="45.40778" lon="6.1858">
        <ele>1845.8000488281</ele>
        <time>2023-08-08T16:32:55.000Z</time>
      </trkpt>
      <trkpt lat="45.40778" lon="6.18576">
        <ele>1845</ele>
        <time>2023-08-08T16:32:58.000Z</time>
      </trkpt>
      <trkpt lat="45.40778" lon="6.18575">
        <ele>1844.5999755859</ele>
        <time>2023-08-08T16:32:59.000Z</time>
      </trkpt>
      <trkpt lat="45.40779" lon="6.18571">
        <ele>1843.4000244141</ele>
        <time>2023-08-08T16:33:04.000Z</time>
      </trkpt>
      <trkpt lat="45.40779" lon="6.1857">
        <ele>1843.1999511719</ele>
        <time>2023-08-08T16:33:05.000Z</time>
      </trkpt>
      <trkpt lat="45.4078" lon="6.18565">
        <ele>1842.4000244141</ele>
        <time>2023-08-08T16:33:09.000Z</time>
      </trkpt>
      <trkpt lat="45.40779" lon="6.18561">
        <ele>1841.5999755859</ele>
        <time>2023-08-08T16:33:13.000Z</time>
      </trkpt>
      <trkpt lat="45.40779" lon="6.1856">
        <ele>1841.4000244141</ele>
        <time>2023-08-08T16:33:14.000Z</time>
      </trkpt>
      <trkpt lat="45.40778" lon="6.18552">
        <ele>1840.1999511719</ele>
        <time>2023-08-08T16:33:20.000Z</time>
      </trkpt>
      <trkpt lat="45.40775" lon="6.18548">
        <ele>1839.1999511719</ele>
        <time>2023-08-08T16:33:25.000Z</time>
      </trkpt>
      <trkpt lat="45.40775" lon="6.18548">
        <ele>1839</ele>
        <time>2023-08-08T16:33:26.000Z</time>
      </trkpt>
      <trkpt lat="45.40771" lon="6.18545">
        <ele>1838.1999511719</ele>
        <time>2023-08-08T16:33:31.000Z</time>
      </trkpt>
      <trkpt lat="45.40771" lon="6.18544">
        <ele>1837.8000488281</ele>
        <time>2023-08-08T16:33:32.000Z</time>
      </trkpt>
      <trkpt lat="45.40771" lon="6.18543">
        <ele>1836.8000488281</ele>
        <time>2023-08-08T16:33:35.000Z</time>
      </trkpt>
      <trkpt lat="45.4077" lon="6.18542">
        <ele>1835.8000488281</ele>
        <time>2023-08-08T16:33:38.000Z</time>
      </trkpt>
      <trkpt lat="45.4077" lon="6.18542">
        <ele>1835.5999755859</ele>
        <time>2023-08-08T16:33:39.000Z</time>
      </trkpt>
      <trkpt lat="45.4077" lon="6.1854">
        <ele>1835</ele>
        <time>2023-08-08T16:33:41.000Z</time>
      </trkpt>
      <trkpt lat="45.4077" lon="6.18539">
        <ele>1834.8000488281</ele>
        <time>2023-08-08T16:33:42.000Z</time>
      </trkpt>
      <trkpt lat="45.40769" lon="6.18537">
        <ele>1834.1999511719</ele>
        <time>2023-08-08T16:33:44.000Z</time>
      </trkpt>
      <trkpt lat="45.40768" lon="6.18537">
        <ele>1833.5999755859</ele>
        <time>2023-08-08T16:33:46.000Z</time>
      </trkpt>
      <trkpt lat="45.40766" lon="6.18534">
        <ele>1832.5999755859</ele>
        <time>2023-08-08T16:33:51.000Z</time>
      </trkpt>
      <trkpt lat="45.4076" lon="6.18532">
        <ele>1831.5999755859</ele>
        <time>2023-08-08T16:33:57.000Z</time>
      </trkpt>
      <trkpt lat="45.40757" lon="6.18532">
        <ele>1831.1999511719</ele>
        <time>2023-08-08T16:33:59.000Z</time>
      </trkpt>
      <trkpt lat="45.40753" lon="6.18532">
        <ele>1830.5999755859</ele>
        <time>2023-08-08T16:34:03.000Z</time>
      </trkpt>
      <trkpt lat="45.40753" lon="6.18535">
        <ele>1830</ele>
        <time>2023-08-08T16:34:06.000Z</time>
      </trkpt>
      <trkpt lat="45.40753" lon="6.18544">
        <ele>1829.8000488281</ele>
        <time>2023-08-08T16:34:13.000Z</time>
      </trkpt>
      <trkpt lat="45.40751" lon="6.1854">
        <ele>1829.1999511719</ele>
        <time>2023-08-08T16:38:20.000Z</time>
      </trkpt>
      <trkpt lat="45.40754" lon="6.18535">
        <ele>1829.4000244141</ele>
        <time>2023-08-08T16:38:30.000Z</time>
      </trkpt>
      <trkpt lat="45.40754" lon="6.18538">
        <ele>1829.5999755859</ele>
        <time>2023-08-08T16:39:34.000Z</time>
      </trkpt>
      <trkpt lat="45.40753" lon="6.18531">
        <ele>1829.5999755859</ele>
        <time>2023-08-08T16:39:40.000Z</time>
      </trkpt>
      <trkpt lat="45.40753" lon="6.18531">
        <ele>1829.5999755859</ele>
        <time>2023-08-08T16:39:49.000Z</time>
      </trkpt>
      <trkpt lat="45.40753" lon="6.18533">
        <ele>1829.8000488281</ele>
        <time>2023-08-08T16:39:53.000Z</time>
      </trkpt>
    </trkseg>
  </trk>
</gpx>